{
  "fields": [{"id":"_id","type":"int"},{"id":"Time (EPOCH)","type":"numeric"},{"id":"Latitude","type":"numeric"},{"id":"Longitude","type":"numeric"},{"id":"AMSL (m)","type":"numeric"},{"id":"AGL (m)","type":"numeric"},{"id":"Heading (deg)","type":"numeric"},{"id":"WindU (m/s)","type":"numeric"},{"id":"WindV (m/s)","type":"numeric"},{"id":"Temperature (C)","type":"numeric"},{"id":"RH (%)","type":"numeric"},{"id":"CH4 (ppm)","type":"numeric"},{"id":"CO2 (ppm)","type":"numeric"}],
  "records": [
    [1,1525538166,56.6532,-111.2093,369.2,2.2,269.7,3.1,-0.2,15.7,37.9,722.9379,139.9924],
    [2,1525538167,56.6532,-111.2096,369.2,2.2,269.9,2.9,-0.3,14.77,38.4,723.0124,139.9927],
    [3,1525538168,56.6532,-111.21,369.3,2.3,270.5,2.8,-0.2,14.99,38.29,723.0792,139.9926],
    [4,1525538169,56.6532,-111.2104,369.3,2.4,270.4,2.5,-0.2,14.46,38.55,723.0464,139.999],
    [5,1525538170,56.6532,-111.2108,369.3,2.4,270.4,1.8,-0.2,15.5,38.33,723.0464,139.995],
    [6,1525538171,56.6532,-111.2112,369.3,2.4,270.8,1.4,-0.2,15.11,38.49,723.1034,139.9936],
    [7,1525538172,56.6532,-111.2117,369.3,2.4,270.7,1.3,-0.1,14.72,38.65,723.1497,139.9955],
    [8,1525538173,56.6532,-111.2122,369.4,2.4,270.6,1.5,-0.2,14.39,38.86,723.2688,140.0065],
    [9,1525538174,56.6532,-111.2127,369.4,2.5,270.6,1.2,-0.2,15.2,38.97,723.2283,140.0033],
    [10,1525538175,56.6532,-111.2132,369.5,2.5,270.4,0.5,-0.2,14.77,39.69,723.3034,140.001],
    [11,1525538176,56.6532,-111.2138,369.5,2.6,270.9,0.7,-0.3,14.91,39.35,722.9847,139.9937],
    [12,1525538177,56.6532,-111.2144,369.5,2.7,270.6,1.0,-0.1,15.46,39.01,722.8585,139.9871],
    [13,1525538178,56.6532,-111.215,369.5,1.8,269.9,0.7,0.2,14.88,39.18,722.9487,139.9881],
    [14,1525538179,56.6532,-111.2156,369.6,1.9,269.0,0.4,0.3,15.09,39.33,722.6346,139.9894],
    [15,1525538180,56.6532,-111.2163,369.8,2.1,269.7,0.3,0.2,14.74,39.51,722.5207,139.9898],
    [16,1525538181,56.6532,-111.217,369.9,1.9,268.9,-0.6,0.8,14.77,39.71,722.2033,140.0003],
    [17,1525538182,56.6532,-111.2176,370.0,2.1,268.9,0.0,0.5,15.31,39.11,722.0974,139.9993],
    [18,1525538183,56.6532,-111.2184,370.2,2.3,270.3,0.0,-0.3,14.57,39.83,722.0279,139.9868],
    [19,1525538184,56.6532,-111.2191,370.5,2.4,269.8,0.7,0.1,14.74,39.92,721.878,139.9859],
    [20,1525538185,56.6532,-111.2199,370.8,2.1,269.5,1.2,0.4,14.76,40.13,721.8707,140.0033],
    [21,1525538186,56.6532,-111.2207,371.2,2.5,267.9,1.1,1.7,14.72,40.02,721.9539,140.0106],
    [22,1525538187,56.6532,-111.2214,371.6,2.6,266.2,1.1,2.9,14.73,40.37,721.8094,139.9956],
    [23,1525538188,56.6532,-111.2222,372.0,3.0,267.0,1.4,2.1,14.55,40.02,721.4616,140.0025],
    [24,1525538189,56.6532,-111.223,372.7,3.7,268.8,3.0,1.0,14.28,39.92,720.9275,139.9915],
    [25,1525538190,56.6532,-111.2238,373.6,4.6,269.9,2.7,0.9,15.15,40.04,720.9595,140.0028],
    [26,1525538191,56.6532,-111.2247,374.3,5.3,269.3,2.2,1.5,14.89,39.78,720.5411,140.0065],
    [27,1525538192,56.6532,-111.2255,375.4,6.4,268.6,2.5,1.8,14.33,39.81,720.6344,139.9939],
    [28,1525538193,56.6532,-111.2263,377.6,8.9,268.1,2.2,1.9,14.56,39.82,720.9268,140.0039],
    [29,1525538194,56.6532,-111.2272,380.9,12.2,267.4,2.9,2.2,14.8,39.51,720.6622,140.012],
    [30,1525538195,56.6532,-111.2281,383.9,15.2,267.6,2.4,1.9,14.91,39.08,719.5529,140.0125],
    [31,1525538196,56.6532,-111.2289,387.0,18.3,267.6,2.2,2.0,14.33,39.71,718.9855,140.0031],
    [32,1525538197,56.6532,-111.2298,391.1,22.4,267.2,2.2,2.2,15.25,39.23,718.423,139.9906],
    [33,1525538198,56.6532,-111.2306,395.0,26.3,267.3,2.4,1.9,15.0,39.47,718.1652,139.9877],
    [34,1525538199,56.6532,-111.2315,399.6,30.9,267.9,2.6,1.6,14.65,39.67,717.6769,140.0],
    [35,1525538200,56.6532,-111.2322,404.7,36.0,267.7,2.6,2.4,15.28,39.52,717.1148,139.9976],
    [36,1525538201,56.6532,-111.2331,410.1,41.4,266.6,2.5,3.5,14.2,40.15,716.6997,139.9985],
    [37,1525538202,56.6532,-111.234,415.9,47.9,267.4,3.1,2.9,14.47,39.73,716.2998,139.9961],
    [38,1525538203,56.6532,-111.2348,421.8,53.8,269.3,3.1,1.1,14.4,39.74,715.8631,139.9943],
    [39,1525538204,56.6532,-111.2357,427.3,59.3,270.1,3.0,0.8,14.29,39.75,715.6832,140.0055],
    [40,1525538205,56.6532,-111.2365,433.1,65.1,267.4,2.6,3.1,14.49,39.68,715.3246,140.001],
    [41,1525538206,56.6532,-111.2374,437.6,69.6,266.8,2.5,3.4,15.03,39.73,714.9072,140.0019],
    [42,1525538207,56.6532,-111.2382,442.1,74.4,268.6,2.4,1.7,14.08,39.82,714.398,140.0097],
    [43,1525538208,56.6532,-111.2391,446.6,79.6,269.3,2.6,0.9,14.29,39.64,714.1602,140.0055],
    [44,1525538209,56.6532,-111.24,450.7,83.6,268.6,2.3,1.2,14.13,39.63,713.4618,139.9969],
    [45,1525538210,56.6532,-111.2408,454.3,88.2,267.7,2.2,2.0,14.36,39.49,713.039,140.0056],
    [46,1525538211,56.6532,-111.2418,458.8,92.7,267.1,2.5,2.5,14.53,39.45,712.37,139.9988],
    [47,1525538212,56.6532,-111.2427,463.3,97.5,267.8,2.2,1.7,14.62,39.79,712.0727,140.0003],
    [48,1525538213,56.6532,-111.2436,468.4,103.4,267.2,2.6,2.3,14.13,39.54,711.4761,140.0042],
    [49,1525538214,56.6532,-111.2444,474.5,109.8,266.6,3.5,2.4,14.39,39.78,710.945,139.9984],
    [50,1525538215,56.6532,-111.2453,480.0,116.0,268.2,2.7,1.1,14.39,39.42,710.2545,140.0007],
    [51,1525538216,56.6532,-111.2462,485.8,122.1,268.1,2.8,1.7,13.88,39.52,709.8585,140.0064],
    [52,1525538217,56.6532,-111.2471,492.2,128.6,268.3,2.4,1.7,13.87,39.39,709.3353,140.0044],
    [53,1525538218,56.6532,-111.248,498.7,135.8,267.6,2.2,2.3,13.93,39.62,708.9524,139.9969],
    [54,1525538219,56.6532,-111.2489,505.1,142.2,267.3,2.3,2.2,13.49,39.62,708.3784,140.0023],
    [55,1525538220,56.6532,-111.2498,511.4,148.7,267.2,2.4,1.9,13.82,39.65,707.5536,139.993],
    [56,1525538221,56.6532,-111.2507,517.4,154.6,267.1,1.8,1.7,13.7,40.03,706.985,139.9982],
    [57,1525538222,56.6532,-111.2516,523.2,160.5,267.1,1.7,1.6,14.7,39.26,706.2634,140.0043],
    [58,1525538223,56.6531,-111.2524,529.3,167.3,267.0,1.9,1.6,14.14,39.67,706.1154,140.0108],
    [59,1525538224,56.6531,-111.2533,536.1,174.4,267.5,2.1,1.0,13.82,39.78,705.3455,140.0016],
    [60,1525538225,56.6531,-111.2542,543.9,183.2,266.3,2.0,2.1,13.95,40.09,704.6935,139.9981],
    [61,1525538226,56.6531,-111.255,551.0,190.8,265.3,2.7,2.6,13.78,40.23,704.3218,140.0045],
    [62,1525538227,56.6531,-111.256,558.4,198.7,266.0,2.9,1.8,13.74,40.26,703.5343,139.998],
    [63,1525538228,56.6531,-111.2568,565.0,206.0,265.5,2.2,2.8,13.62,40.42,702.9608,140.0036],
    [64,1525538229,56.6531,-111.2577,571.3,212.4,265.4,3.1,3.7,13.64,40.53,702.5258,140.0024],
    [65,1525538230,56.6531,-111.2587,578.4,219.7,269.7,3.3,1.4,13.37,40.61,701.7333,139.9974],
    [66,1525538231,56.6531,-111.2595,584.8,226.1,271.7,3.1,1.7,13.4,40.36,700.7968,139.9996],
    [67,1525538232,56.6531,-111.2604,591.9,233.9,272.5,3.3,2.7,13.4,40.94,700.3911,139.9998],
    [68,1525538233,56.6532,-111.2613,598.9,241.2,274.4,3.4,2.4,13.07,40.64,699.847,140.0087],
    [69,1525538234,56.6532,-111.2621,606.6,248.9,275.9,3.5,2.8,13.31,40.62,699.1324,139.991],
    [70,1525538235,56.6533,-111.2629,613.8,256.9,277.1,2.7,3.2,12.93,40.88,698.4574,140.0027],
    [71,1525538236,56.6534,-111.2638,622.1,266.1,279.6,2.8,2.6,13.68,40.71,698.2885,139.9995],
    [72,1525538237,56.6535,-111.2646,629.7,273.7,282.3,2.8,2.3,12.72,40.81,697.8693,139.9958],
    [73,1525538238,56.6537,-111.2655,636.8,280.8,285.0,2.9,2.1,13.05,40.91,697.3648,140.0],
    [74,1525538239,56.6538,-111.2663,643.7,287.7,288.1,3.0,1.6,13.04,40.93,696.7731,139.9975],
    [75,1525538240,56.654,-111.2671,650.2,295.3,290.6,3.1,1.7,12.89,40.91,696.5655,139.9958],
    [76,1525538241,56.6542,-111.2678,656.1,301.1,291.8,3.5,2.5,13.33,40.43,696.0983,140.0055],
    [77,1525538242,56.6544,-111.2686,661.4,306.5,294.0,3.8,2.2,13.23,40.4,695.6449,139.9996],
    [78,1525538243,56.6547,-111.2694,666.3,310.3,296.8,3.9,1.6,12.75,40.89,695.1723,140.0021],
    [79,1525538244,56.6549,-111.2701,671.1,315.1,299.4,4.0,0.9,12.82,41.07,694.9385,139.9944],
    [80,1525538245,56.6552,-111.2708,676.5,320.6,302.0,3.6,1.2,12.88,41.36,694.4904,139.9992],
    [81,1525538246,56.6554,-111.2715,681.6,324.6,303.7,4.0,1.3,12.49,41.22,694.2958,139.9999],
    [82,1525538247,56.6558,-111.2722,686.5,329.2,306.0,3.3,1.6,12.57,41.24,693.4288,139.9946],
    [83,1525538248,56.6561,-111.2729,691.1,333.2,307.7,3.6,1.7,12.85,41.3,693.1208,139.9954],
    [84,1525538249,56.6564,-111.2735,695.3,336.3,309.4,4.3,1.3,12.81,41.35,692.5595,140.0011],
    [85,1525538250,56.6567,-111.2741,700.4,339.7,312.3,4.5,0.7,12.61,42.32,692.0588,139.9919],
    [86,1525538251,56.6571,-111.2747,705.5,343.5,315.0,4.8,0.3,12.62,41.47,691.6954,139.9986],
    [87,1525538252,56.6575,-111.2753,711.1,348.1,317.3,4.9,0.3,12.55,42.12,691.4047,140.0004],
    [88,1525538253,56.6579,-111.2759,717.6,353.6,319.7,5.3,-0.1,12.78,41.02,690.8709,139.9978],
    [89,1525538254,56.6582,-111.2763,723.3,358.3,321.2,5.5,0.5,13.02,41.02,690.6408,140.0046],
    [90,1525538255,56.6587,-111.2768,729.1,363.1,323.3,5.8,0.1,12.2,41.15,690.2183,139.9886],
    [91,1525538256,56.6591,-111.2773,733.9,367.7,326.4,5.0,-0.4,12.51,40.96,689.9184,140.0003],
    [92,1525538257,56.6595,-111.2777,738.2,371.2,328.9,4.8,-0.3,13.06,40.82,689.5464,140.003],
    [93,1525538258,56.66,-111.2781,743.0,374.9,331.4,4.9,-0.3,12.5,41.01,689.2257,139.9986],
    [94,1525538259,56.6604,-111.2784,747.3,378.4,333.7,4.8,-0.4,12.21,41.68,688.8731,139.9938],
    [95,1525538260,56.6609,-111.2788,751.7,381.0,335.3,5.2,-0.3,12.08,41.53,688.6708,140.005],
    [96,1525538261,56.6613,-111.279,755.6,384.7,337.6,4.5,-0.4,11.53,41.58,688.337,140.0033],
    [97,1525538262,56.6618,-111.2793,759.3,387.3,339.9,4.0,-0.4,11.78,41.68,688.1193,139.9927],
    [98,1525538263,56.6623,-111.2796,763.2,392.3,340.8,4.3,-0.2,12.0,42.0,687.6284,140.0022],
    [99,1525538264,56.6628,-111.2798,766.9,395.8,342.2,4.1,-0.7,12.2,41.95,687.3993,139.9919],
    [100,1525538265,56.6633,-111.28,770.3,401.3,343.1,4.4,-0.9,11.85,43.0,687.1323,140.0097],
    [101,1525538266,56.6638,-111.2802,774.1,406.1,343.1,5.0,-0.6,11.88,42.75,686.9613,140.0085],
    [102,1525538267,56.6642,-111.2804,777.8,410.8,344.7,4.0,-0.5,11.86,43.71,686.51,139.9932],
    [103,1525538268,56.6647,-111.2805,781.5,415.4,344.4,4.8,-0.7,11.82,43.55,686.2225,139.9987],
    [104,1525538269,56.6652,-111.2807,785.3,419.7,344.6,4.6,-1.2,11.34,43.39,685.8478,139.9945],
    [105,1525538270,56.6657,-111.2809,788.4,423.3,345.8,3.8,-0.6,11.25,43.71,685.578,140.0046],
    [106,1525538271,56.6662,-111.2811,791.4,426.4,345.0,5.1,0.0,12.08,43.54,685.3139,140.0001],
    [107,1525538272,56.6667,-111.2812,795.3,430.3,344.9,5.8,-0.9,12.29,43.16,685.198,140.0011],
    [108,1525538273,56.6672,-111.2814,799.4,433.4,345.5,5.4,-1.1,11.43,43.49,684.8684,139.9936],
    [109,1525538274,56.6677,-111.2815,803.3,436.6,345.0,5.7,-1.1,11.03,43.24,684.6894,140.0012],
    [110,1525538275,56.6682,-111.2817,806.3,438.0,344.5,6.0,-1.3,11.32,42.73,684.4604,140.0028],
    [111,1525538276,56.6687,-111.2819,809.1,439.1,343.8,6.6,-1.7,11.58,42.64,684.0782,140.001],
    [112,1525538277,56.6692,-111.282,811.8,441.7,344.1,5.8,-1.4,12.06,41.73,683.695,139.999],
    [113,1525538278,56.6697,-111.2822,814.1,445.1,344.2,5.3,-1.2,11.16,41.2,683.4015,139.9944],
    [114,1525538279,56.6703,-111.2824,817.5,453.6,343.5,5.4,-0.8,10.96,40.74,682.9676,139.9989],
    [115,1525538280,56.6708,-111.2826,820.6,464.3,342.3,6.2,-0.5,11.57,41.0,682.6385,139.9949],
    [116,1525538281,56.6713,-111.2828,824.1,477.1,342.3,6.0,-0.5,11.67,40.59,682.2072,140.0134],
    [117,1525538282,56.6718,-111.283,828.0,492.6,342.6,5.7,-0.6,11.64,40.52,681.6503,139.9924],
    [118,1525538283,56.6723,-111.2832,832.2,507.2,342.3,6.2,-1.5,12.03,40.27,681.315,140.0022],
    [119,1525538284,56.6728,-111.2834,837.4,519.4,341.2,7.1,-1.9,11.83,40.0,680.6918,140.0002],
    [120,1525538285,56.6733,-111.2836,842.2,531.5,341.3,6.6,-2.2,11.41,40.66,679.6453,140.0028],
    [121,1525538286,56.6738,-111.2838,847.1,539.1,341.1,6.6,-2.1,11.11,39.69,679.2632,140.0007],
    [122,1525538287,56.6743,-111.284,852.9,553.1,340.9,7.1,-2.8,11.33,39.34,678.3297,139.9961],
    [123,1525538288,56.6748,-111.2842,858.9,568.6,341.5,7.2,-3.5,11.4,39.54,677.8894,139.9971],
    [124,1525538289,56.6753,-111.2844,866.2,585.4,341.0,8.0,-3.7,10.64,38.98,677.4581,139.9992],
    [125,1525538290,56.6758,-111.2846,874.2,598.4,341.5,7.4,-4.1,10.96,38.59,677.2471,139.9945],
    [126,1525538291,56.6763,-111.2848,882.9,616.9,340.9,7.8,-4.0,11.03,38.21,676.9729,139.9972],
    [127,1525538292,56.6768,-111.285,891.6,634.5,339.7,8.4,-3.9,11.33,37.72,676.8554,140.0002],
    [128,1525538293,56.6772,-111.2852,898.8,646.1,339.4,8.3,-3.7,11.42,37.85,676.7656,140.0002],
    [129,1525538294,56.6777,-111.2854,903.8,656.4,339.1,8.5,-3.4,11.14,37.3,676.6668,140.0042],
    [130,1525538295,56.6782,-111.2856,908.1,664.5,339.1,8.4,-3.3,11.47,36.77,676.48,140.0002],
    [131,1525538296,56.6786,-111.2858,910.7,667.7,339.8,7.8,-3.5,11.29,36.76,676.3603,139.9977],
    [132,1525538297,56.6791,-111.2861,912.7,670.7,339.9,7.8,-3.4,11.09,36.96,676.2074,140.0011],
    [133,1525538298,56.6796,-111.2863,914.1,672.1,339.7,8.0,-3.4,11.84,36.47,676.0319,140.001],
    [134,1525538299,56.6801,-111.2865,915.2,672.3,339.9,7.9,-3.5,10.82,36.5,675.8731,139.9944],
    [135,1525538300,56.6805,-111.2867,916.7,673.4,339.5,8.2,-3.4,12.02,36.23,675.7569,140.0027],
    [136,1525538301,56.681,-111.2869,918.5,673.8,339.4,8.1,-3.4,10.76,36.57,675.4948,139.9999],
    [137,1525538302,56.6815,-111.2871,920.3,674.2,339.2,8.1,-3.2,11.75,36.07,675.4309,139.999],
    [138,1525538303,56.682,-111.2874,922.3,675.3,338.8,8.3,-3.2,11.37,35.95,675.173,139.9985],
    [139,1525538304,56.6825,-111.2876,924.0,677.0,338.6,8.2,-3.3,10.86,36.58,674.9535,140.0003],
    [140,1525538305,56.683,-111.2879,925.8,678.8,338.4,8.2,-3.4,11.31,35.94,674.7167,139.9954],
    [141,1525538306,56.6835,-111.2881,927.7,680.4,338.1,8.3,-3.4,11.34,36.34,674.4836,140.0009],
    [142,1525538307,56.684,-111.2884,929.7,682.3,338.0,8.1,-3.6,11.12,36.99,674.227,139.9974],
    [143,1525538308,56.6845,-111.2886,932.0,685.0,337.6,8.1,-3.6,11.21,36.0,674.1104,139.9994],
    [144,1525538309,56.685,-111.2889,934.7,689.6,337.1,8.3,-3.5,11.11,36.6,673.7708,140.001],
    [145,1525538310,56.6855,-111.2892,937.5,693.2,337.0,8.3,-3.6,10.56,36.16,673.5254,140.0036],
    [146,1525538311,56.686,-111.2894,940.1,697.1,337.2,8.1,-3.7,11.58,35.9,673.2942,140.001],
    [147,1525538312,56.6865,-111.2897,943.0,701.6,337.2,8.0,-3.8,10.94,36.35,673.0463,140.0009],
    [148,1525538313,56.6871,-111.29,946.0,704.9,337.1,8.1,-3.8,10.78,36.09,672.6722,139.9985],
    [149,1525538314,56.6875,-111.2903,948.9,707.9,337.1,8.1,-3.8,11.22,36.39,672.4267,140.0021],
    [150,1525538315,56.6881,-111.2906,952.1,709.9,337.2,8.0,-3.7,10.87,36.64,672.2246,139.9997],
    [151,1525538316,56.6885,-111.2909,955.1,712.1,337.4,8.0,-3.7,11.3,35.59,672.0898,139.9994],
    [152,1525538317,56.6891,-111.2911,958.5,714.5,337.6,8.0,-3.6,11.07,35.93,671.7485,139.9974],
    [153,1525538318,56.6896,-111.2914,961.9,716.8,337.9,8.0,-3.6,11.4,35.36,671.5621,139.9941],
    [154,1525538319,56.6901,-111.2917,965.1,720.1,338.1,8.0,-3.6,11.05,36.79,671.3556,139.9969],
    [155,1525538320,56.6906,-111.292,968.2,723.2,338.4,8.0,-3.7,11.23,35.86,671.2321,139.9976],
    [156,1525538321,56.6911,-111.2922,970.8,725.8,338.1,8.2,-3.7,11.26,35.97,670.9318,139.9982],
    [157,1525538322,56.6917,-111.2925,973.3,728.3,337.7,8.6,-3.7,10.85,35.96,670.7095,140.001],
    [158,1525538323,56.6922,-111.2928,975.6,730.6,337.6,8.6,-3.9,10.52,36.1,670.4267,139.9985],
    [159,1525538324,56.6927,-111.293,977.9,734.6,337.4,8.7,-4.0,10.7,36.2,670.2301,139.9973],
    [160,1525538325,56.6932,-111.2933,980.4,737.4,337.2,8.7,-4.0,10.67,36.11,669.8967,139.9985],
    [161,1525538326,56.6937,-111.2936,983.2,738.2,337.0,8.7,-3.9,10.81,36.03,669.6759,139.9997],
    [162,1525538327,56.6942,-111.2939,986.0,736.5,336.9,8.7,-3.9,10.91,36.28,669.3729,140.0004],
    [163,1525538328,56.6948,-111.2942,989.0,730.0,336.8,8.6,-3.8,10.8,36.85,669.0924,139.9953],
    [164,1525538329,56.6953,-111.2945,992.1,719.1,336.7,8.6,-3.9,10.68,36.22,668.6256,139.9983],
    [165,1525538330,56.6958,-111.2948,995.4,717.0,336.5,8.7,-3.8,10.81,36.19,668.4726,139.9971],
    [166,1525538331,56.6963,-111.295,998.4,707.7,336.3,8.7,-3.8,11.08,35.59,668.2691,139.9979],
    [167,1525538332,56.6968,-111.2954,1002.3,700.7,336.3,8.7,-3.9,10.82,36.13,667.7506,140.0004],
    [168,1525538333,56.6973,-111.2957,1005.8,696.3,336.4,8.6,-3.9,10.86,36.67,667.4231,140.0017],
    [169,1525538334,56.6978,-111.2959,1009.3,695.6,336.4,8.6,-4.0,10.33,36.1,667.1924,139.9963],
    [170,1525538335,56.6984,-111.2963,1013.5,697.3,336.5,8.5,-4.1,10.63,36.41,666.8666,139.9985],
    [171,1525538336,56.6989,-111.2966,1017.8,697.6,336.2,8.7,-4.0,10.76,36.14,666.4803,139.9977],
    [172,1525538337,56.6995,-111.2969,1021.9,696.5,335.9,8.7,-4.0,10.69,36.04,666.2671,140.0006],
    [173,1525538338,56.7,-111.2972,1025.9,697.8,335.9,8.6,-4.1,10.69,35.96,665.8699,139.9997],
    [174,1525538339,56.7005,-111.2975,1030.1,696.6,335.8,8.7,-4.2,10.43,35.68,665.5423,140.0013],
    [175,1525538340,56.701,-111.2978,1034.2,697.0,336.0,8.5,-4.4,10.76,36.38,665.2133,140.0017],
    [176,1525538341,56.7015,-111.2981,1038.5,694.7,336.1,8.4,-4.3,10.58,36.18,664.9297,139.997],
    [177,1525538342,56.702,-111.2984,1042.5,692.1,336.1,8.4,-4.3,10.37,36.34,664.6591,139.9994],
    [178,1525538343,56.7025,-111.2987,1046.3,693.5,336.2,8.4,-4.4,11.08,35.6,664.2934,139.9973],
    [179,1525538344,56.703,-111.299,1050.5,693.8,336.5,8.3,-4.4,10.9,35.77,664.1174,139.9959],
    [180,1525538345,56.7035,-111.2993,1054.0,695.3,336.5,8.4,-4.4,10.43,35.94,663.7805,139.9968],
    [181,1525538346,56.704,-111.2996,1057.9,697.9,336.5,8.5,-4.4,9.96,35.77,663.6998,139.9998],
    [182,1525538347,56.7045,-111.2999,1061.4,701.5,336.5,8.6,-4.4,10.07,35.61,663.2006,139.9994],
    [183,1525538348,56.7051,-111.3002,1065.1,705.1,336.7,8.5,-4.4,10.46,35.98,662.9418,140.0033],
    [184,1525538349,56.7055,-111.3005,1068.2,708.2,336.9,8.5,-4.5,10.25,35.76,662.6618,139.9948],
    [185,1525538350,56.7061,-111.3008,1071.6,712.0,336.8,8.7,-4.5,10.71,35.46,662.5115,139.9966],
    [186,1525538351,56.7066,-111.3011,1074.8,715.8,336.6,8.8,-4.5,10.87,34.96,662.0692,139.9956],
    [187,1525538352,56.7071,-111.3013,1077.9,718.9,336.4,8.9,-4.5,10.5,35.83,661.8633,140.0013],
    [188,1525538353,56.7076,-111.3016,1081.5,722.8,335.9,9.2,-4.4,9.89,35.69,661.6424,139.9997],
    [189,1525538354,56.7081,-111.3019,1084.6,725.4,335.8,9.3,-4.5,10.38,35.74,661.3233,139.9985],
    [190,1525538355,56.7086,-111.3022,1088.2,728.5,335.7,9.3,-4.5,10.48,35.69,660.93,139.9968],
    [191,1525538356,56.7091,-111.3025,1091.3,731.3,335.7,9.2,-4.5,10.8,35.28,660.824,139.9992],
    [192,1525538357,56.7096,-111.3028,1095.1,735.1,335.7,9.2,-4.5,10.08,35.88,660.5104,139.9938],
    [193,1525538358,56.7101,-111.3031,1098.2,738.2,335.6,9.2,-4.5,10.24,35.9,660.1679,139.9987],
    [194,1525538359,56.7107,-111.3034,1102.1,742.1,335.6,9.3,-4.6,9.73,35.9,659.8461,139.9989],
    [195,1525538360,56.7112,-111.3037,1105.6,745.6,335.6,9.3,-4.6,10.33,36.53,659.6094,139.9977],
    [196,1525538361,56.7117,-111.304,1109.1,749.1,335.6,9.3,-4.6,10.09,36.04,659.2246,139.9954],
    [197,1525538362,56.7121,-111.3043,1112.5,752.5,335.6,9.3,-4.6,9.74,36.24,658.9823,139.9984],
    [198,1525538363,56.7127,-111.3047,1116.5,756.5,335.6,9.4,-4.7,10.28,36.17,658.6094,139.9994],
    [199,1525538364,56.7132,-111.3049,1120.0,760.0,335.6,9.4,-4.6,10.26,36.27,658.3725,140.0007],
    [200,1525538365,56.7137,-111.3052,1123.6,763.6,335.5,9.6,-4.6,10.15,36.39,658.0639,140.0007],
    [201,1525538366,56.7142,-111.3055,1127.5,767.5,335.5,9.6,-4.7,10.01,36.82,657.7759,140.0008],
    [202,1525538367,56.7147,-111.3058,1131.4,771.4,335.5,9.5,-4.7,10.11,36.51,657.5442,139.9973],
    [203,1525538368,56.7152,-111.3061,1135.2,775.2,335.4,9.5,-4.7,10.1,36.63,657.2384,140.0002],
    [204,1525538369,56.7157,-111.3064,1138.9,778.9,335.3,9.5,-4.5,10.14,36.35,656.9118,139.9992],
    [205,1525538370,56.7162,-111.3067,1142.8,782.8,335.1,9.6,-4.5,9.84,36.56,656.6458,139.9997],
    [206,1525538371,56.7167,-111.307,1146.3,785.6,335.0,9.6,-4.6,10.06,36.69,656.3974,139.9972],
    [207,1525538372,56.7172,-111.3073,1150.0,789.3,334.8,9.6,-4.6,10.12,36.81,656.0689,139.9989],
    [208,1525538373,56.7177,-111.3076,1153.4,792.6,334.5,9.7,-4.5,10.44,36.29,655.8425,139.9954],
    [209,1525538374,56.7182,-111.308,1157.1,797.1,334.2,9.7,-4.4,10.0,36.59,655.7032,140.0022],
    [210,1525538375,56.7187,-111.3083,1160.4,800.4,333.9,9.8,-4.3,9.74,37.41,655.4483,139.9972],
    [211,1525538376,56.7192,-111.3086,1163.5,803.5,333.7,9.7,-4.3,9.92,37.79,655.2363,140.0005],
    [212,1525538377,56.7197,-111.3089,1166.7,807.7,333.5,9.7,-4.3,10.17,36.77,655.0256,139.9938],
    [213,1525538378,56.7202,-111.3093,1169.9,810.9,333.2,9.8,-4.2,9.84,37.04,654.8127,139.9949],
    [214,1525538379,56.7207,-111.3096,1172.8,813.7,333.1,9.8,-4.2,9.59,37.46,654.6906,139.9973],
    [215,1525538380,56.7212,-111.3099,1175.4,816.4,333.0,9.7,-4.2,9.64,37.36,654.4345,140.0006],
    [216,1525538381,56.7217,-111.3103,1178.2,819.0,332.9,9.7,-4.2,9.78,37.45,654.1053,139.9954],
    [217,1525538382,56.7222,-111.3106,1180.7,820.7,332.8,9.7,-4.2,9.26,37.62,654.0321,139.995],
    [218,1525538383,56.7227,-111.311,1183.2,823.0,332.8,9.6,-4.2,9.34,37.5,653.6913,139.9989],
    [219,1525538384,56.7232,-111.3113,1185.7,824.7,332.6,9.6,-4.2,9.73,37.42,653.4779,140.0029],
    [220,1525538385,56.7237,-111.3116,1188.2,827.2,332.5,9.7,-4.1,9.25,37.94,653.2506,139.9961],
    [221,1525538386,56.7242,-111.312,1191.0,830.0,332.5,9.5,-4.3,10.07,37.78,652.9513,139.9964],
    [222,1525538387,56.7247,-111.3123,1193.4,832.8,332.3,9.5,-4.2,9.29,37.71,652.6741,139.9981],
    [223,1525538388,56.7252,-111.3127,1196.5,836.5,332.2,9.5,-4.3,9.45,37.77,652.5698,140.0001],
    [224,1525538389,56.7257,-111.3131,1199.6,839.6,332.1,9.8,-4.1,9.39,37.77,652.1406,139.9996],
    [225,1525538390,56.7262,-111.3134,1202.6,842.5,332.3,9.9,-4.1,9.72,38.21,651.9649,140.0009],
    [226,1525538391,56.7267,-111.3138,1205.5,846.5,333.2,9.5,-4.3,9.35,38.51,651.5973,139.9996],
    [227,1525538392,56.7272,-111.3141,1208.6,849.6,334.1,9.3,-4.3,9.57,37.47,651.3627,139.9958],
    [228,1525538393,56.7277,-111.3144,1212.1,852.3,334.9,9.3,-4.4,9.28,38.39,651.1317,140.0003],
    [229,1525538394,56.7282,-111.3148,1215.6,855.8,335.6,9.3,-4.3,9.14,37.99,650.7893,139.9974],
    [230,1525538395,56.7288,-111.3151,1219.1,859.1,336.2,9.4,-4.3,9.42,38.11,650.5225,139.9991],
    [231,1525538396,56.7293,-111.3153,1222.5,861.8,336.7,9.4,-4.2,8.97,37.86,650.3153,139.9999],
    [232,1525538397,56.7298,-111.3156,1226.0,864.7,337.2,9.5,-4.3,9.03,37.61,650.0252,139.9993],
    [233,1525538398,56.7303,-111.3159,1229.8,867.8,337.8,9.5,-4.3,8.87,37.81,649.679,139.994],
    [234,1525538399,56.7309,-111.3162,1233.5,870.5,338.3,9.5,-4.3,9.04,37.88,649.323,139.9973],
    [235,1525538400,56.7314,-111.3164,1237.1,874.1,338.8,9.5,-4.3,9.67,37.5,649.0452,139.9969],
    [236,1525538401,56.7319,-111.3166,1240.5,876.5,339.1,9.5,-4.2,9.18,37.83,648.7791,139.9965],
    [237,1525538402,56.7323,-111.3168,1243.4,879.4,339.4,9.5,-4.3,8.81,37.71,648.4958,139.9963],
    [238,1525538403,56.7328,-111.3171,1247.1,883.1,339.8,9.4,-4.3,9.9,37.51,648.1401,139.9998],
    [239,1525538404,56.7334,-111.3173,1251.0,887.0,340.1,9.4,-4.3,9.03,37.7,648.0029,139.999],
    [240,1525538405,56.734,-111.3176,1255.2,891.2,340.4,9.4,-4.3,9.23,38.13,647.6407,139.9997],
    [241,1525538406,56.7346,-111.3178,1259.0,895.0,340.6,9.4,-4.3,8.99,37.82,647.307,139.9948],
    [242,1525538407,56.7351,-111.318,1262.7,898.7,340.6,9.5,-4.3,9.16,37.82,646.886,139.9967],
    [243,1525538408,56.7356,-111.3182,1266.1,902.1,340.7,9.5,-4.3,8.49,38.01,646.6852,139.9986],
    [244,1525538409,56.7362,-111.3184,1270.1,906.1,340.7,9.5,-4.3,8.75,37.82,646.3813,140.0011],
    [245,1525538410,56.7367,-111.3186,1273.8,909.8,340.6,9.6,-4.2,8.33,38.12,646.1933,139.9958],
    [246,1525538411,56.7372,-111.3188,1277.6,913.6,340.4,9.7,-4.2,8.83,38.07,645.8509,139.9972],
    [247,1525538412,56.7377,-111.319,1281.1,918.1,340.2,9.7,-4.2,8.35,38.2,645.5491,140.0035],
    [248,1525538413,56.7383,-111.3192,1285.0,922.0,340.0,9.7,-4.2,8.74,38.47,645.252,139.9969],
    [249,1525538414,56.7388,-111.3195,1288.5,925.5,339.8,9.7,-4.1,8.9,38.76,645.0273,139.9966],
    [250,1525538415,56.7393,-111.3197,1292.3,929.3,339.5,9.8,-4.1,8.67,38.29,644.6557,139.9998],
    [251,1525538416,56.7399,-111.3199,1295.8,932.5,339.4,9.7,-4.1,8.67,38.54,644.5681,139.9988],
    [252,1525538417,56.7404,-111.3201,1299.4,935.4,339.2,9.6,-4.1,8.97,37.87,644.2735,139.9999],
    [253,1525538418,56.7409,-111.3204,1302.8,939.8,339.0,9.6,-4.0,9.0,38.17,644.0571,139.9999],
    [254,1525538419,56.7414,-111.3206,1306.0,943.0,338.9,9.6,-4.0,8.22,38.72,643.8144,139.997],
    [255,1525538420,56.7419,-111.3208,1309.1,946.1,338.7,9.6,-4.1,8.72,38.36,643.6603,139.9972],
    [256,1525538421,56.7425,-111.3211,1312.7,950.7,338.6,9.6,-4.0,8.67,38.51,643.4804,139.9989],
    [257,1525538422,56.743,-111.3213,1315.7,953.7,338.7,9.5,-4.0,8.07,38.76,643.2194,139.9993],
    [258,1525538423,56.7436,-111.3216,1318.8,956.8,339.0,9.4,-4.0,8.5,38.85,642.9483,139.9973],
    [259,1525538424,56.7441,-111.3218,1321.7,959.7,339.4,9.6,-4.0,8.31,39.04,642.7401,139.9969],
    [260,1525538425,56.7446,-111.322,1324.4,962.4,340.1,9.4,-4.1,8.52,39.16,642.4535,139.9952],
    [261,1525538426,56.7452,-111.3223,1327.1,965.1,340.9,9.2,-4.2,8.24,38.69,642.3029,139.9998],
    [262,1525538427,56.7457,-111.3225,1329.8,967.7,341.4,9.2,-4.3,8.57,38.74,642.0111,139.9965],
    [263,1525538428,56.7462,-111.3227,1332.4,970.3,341.7,9.2,-4.2,8.09,39.12,641.7455,139.9965],
    [264,1525538429,56.7468,-111.3229,1335.4,972.5,342.1,9.3,-4.2,8.43,39.72,641.4702,139.9948],
    [265,1525538430,56.7473,-111.323,1338.0,975.1,342.4,9.3,-4.2,8.38,39.02,641.1918,139.9975],
    [266,1525538431,56.7479,-111.3232,1341.2,978.2,342.7,9.3,-4.3,7.69,39.27,640.8163,139.998],
    [267,1525538432,56.7484,-111.3234,1344.4,981.5,343.0,9.3,-4.2,8.3,39.65,640.5584,139.9977],
    [268,1525538433,56.7489,-111.3236,1347.6,984.7,343.2,9.3,-4.2,7.59,39.38,640.2406,139.9972],
    [269,1525538434,56.7495,-111.3238,1351.3,988.3,343.3,9.4,-4.2,8.02,39.58,639.8883,139.9949],
    [270,1525538435,56.7501,-111.3239,1354.9,991.9,343.4,9.4,-4.2,8.79,39.1,639.4758,139.9965],
    [271,1525538436,56.7506,-111.3241,1358.5,995.5,343.5,9.5,-4.3,8.0,40.07,639.2416,139.9989],
    [272,1525538437,56.7511,-111.3242,1362.6,999.6,343.4,9.5,-4.3,8.14,39.82,638.8382,139.999],
    [273,1525538438,56.7517,-111.3244,1366.9,1003.9,343.3,9.7,-4.3,8.0,39.81,638.5651,139.998],
    [274,1525538439,56.7522,-111.3246,1371.1,1008.1,343.2,9.6,-4.3,8.1,40.12,638.1991,140.0006],
    [275,1525538440,56.7528,-111.3247,1375.4,1012.4,343.0,9.7,-4.3,8.45,39.94,638.0886,139.9971],
    [276,1525538441,56.7533,-111.3249,1380.0,1017.0,342.8,9.8,-4.3,7.85,40.39,637.7183,139.9947],
    [277,1525538442,56.7539,-111.3251,1384.0,1021.0,342.7,9.8,-4.3,8.01,40.3,637.5995,139.9912],
    [278,1525538443,56.7544,-111.3252,1387.8,1024.8,342.5,9.9,-4.3,8.26,40.23,637.3887,139.9986],
    [279,1525538444,56.7549,-111.3254,1391.4,1028.1,342.2,9.9,-4.2,7.92,40.48,637.3073,139.9998],
    [280,1525538445,56.7555,-111.3256,1394.9,1030.9,342.0,10.1,-4.2,8.19,39.8,637.1146,139.9969],
    [281,1525538446,56.756,-111.3257,1397.9,1033.9,342.3,10.2,-4.2,7.29,40.43,636.9309,139.9962],
    [282,1525538447,56.7566,-111.3259,1400.8,1036.8,343.1,9.9,-4.3,7.25,40.59,636.7431,140.0017],
    [283,1525538448,56.7571,-111.3261,1403.1,1039.1,344.0,9.6,-4.3,7.76,40.51,636.5936,140.0006],
    [284,1525538449,56.7577,-111.3262,1405.4,1041.4,344.6,9.6,-4.4,8.09,40.22,636.424,139.9973],
    [285,1525538450,56.7582,-111.3264,1407.5,1043.5,345.1,9.6,-4.4,7.6,40.59,636.1833,139.9976],
    [286,1525538451,56.7588,-111.3265,1409.6,1045.6,345.5,9.5,-4.4,7.72,40.66,635.9814,139.9983],
    [287,1525538452,56.7592,-111.3266,1411.3,1047.3,345.7,9.6,-4.4,7.86,40.75,635.6911,139.9991],
    [288,1525538453,56.7598,-111.3267,1413.5,1049.5,345.7,9.8,-4.4,7.44,40.89,635.4274,139.9942],
    [289,1525538454,56.7604,-111.3268,1416.2,1052.2,345.9,9.8,-4.3,7.83,40.55,635.1882,139.9972],
    [290,1525538455,56.761,-111.3269,1419.0,1055.0,346.2,9.8,-4.4,8.1,40.79,634.97,140.0008],
    [291,1525538456,56.7616,-111.327,1421.8,1057.8,346.5,9.8,-4.4,7.51,40.86,634.6471,139.9971],
    [292,1525538457,56.7622,-111.3271,1424.9,1060.9,346.9,9.8,-4.4,7.47,41.06,634.2736,139.9978],
    [293,1525538458,56.7627,-111.3272,1428.1,1064.1,347.2,9.8,-4.4,7.02,41.46,633.9599,139.9956],
    [294,1525538459,56.7633,-111.3273,1431.3,1068.3,347.5,9.9,-4.4,7.14,41.52,633.5804,139.998],
    [295,1525538460,56.7638,-111.3274,1434.8,1072.8,347.6,10.0,-4.2,7.23,41.51,633.3134,139.9965],
    [296,1525538461,56.7644,-111.3275,1438.8,1076.8,347.7,10.3,-4.2,7.47,41.95,632.9737,139.9967],
    [297,1525538462,56.7649,-111.3275,1442.6,1081.6,347.9,10.4,-4.2,7.22,41.58,632.6684,139.9985],
    [298,1525538463,56.7655,-111.3276,1446.6,1085.6,348.1,10.5,-4.2,6.9,41.76,632.2677,139.9961],
    [299,1525538464,56.7661,-111.3277,1450.9,1090.8,348.3,10.6,-4.2,6.91,41.61,632.0403,139.9972],
    [300,1525538465,56.7666,-111.3277,1454.8,1096.1,348.3,10.6,-4.2,6.92,41.66,631.7925,139.9984],
    [301,1525538466,56.7672,-111.3278,1459.4,1102.7,348.2,10.7,-4.2,7.19,41.62,631.3555,139.9927],
    [302,1525538467,56.7678,-111.3278,1463.4,1107.4,348.2,10.7,-4.2,7.21,41.74,631.1948,139.9972],
    [303,1525538468,56.7683,-111.3279,1467.6,1110.5,348.1,10.8,-4.2,6.82,42.0,630.7578,139.996],
    [304,1525538469,56.7689,-111.3279,1471.8,1112.5,347.8,10.8,-4.2,7.2,42.53,630.5115,139.9994],
    [305,1525538470,56.7695,-111.328,1475.8,1114.8,347.6,10.9,-4.2,6.97,42.0,630.3627,139.9957],
    [306,1525538471,56.77,-111.328,1479.4,1118.4,347.5,10.9,-4.2,6.92,42.57,630.0775,139.9997],
    [307,1525538472,56.7706,-111.3281,1483.3,1122.2,347.3,10.9,-4.1,7.66,41.89,629.8353,139.9966],
    [308,1525538473,56.7711,-111.3282,1486.8,1124.8,347.0,11.0,-4.1,7.56,42.18,629.6364,139.9994],
    [309,1525538474,56.7717,-111.3282,1490.2,1128.2,346.8,11.0,-4.1,7.41,41.62,629.4784,139.9967],
    [310,1525538475,56.7722,-111.3283,1493.2,1131.2,346.5,11.1,-4.2,7.25,42.3,629.2946,139.999],
    [311,1525538476,56.7728,-111.3284,1496.4,1134.4,346.2,11.1,-4.1,6.93,42.33,629.0564,139.9971],
    [312,1525538477,56.7733,-111.3285,1499.3,1137.3,345.9,11.2,-4.1,7.23,42.24,628.8512,139.9986],
    [313,1525538478,56.7739,-111.3286,1502.0,1138.9,345.8,11.2,-4.1,6.43,42.4,628.6335,139.9948],
    [314,1525538479,56.7744,-111.3287,1504.8,1141.8,345.7,11.2,-4.1,6.82,42.82,628.3973,140.0016],
    [315,1525538480,56.775,-111.3288,1507.3,1144.3,345.6,11.3,-4.1,7.17,42.18,628.2588,139.9997],
    [316,1525538481,56.7755,-111.3288,1509.8,1146.8,345.5,11.3,-4.1,6.22,42.97,628.0933,139.9962],
    [317,1525538482,56.7761,-111.3289,1512.4,1149.4,345.5,11.3,-4.1,6.82,42.84,627.8746,140.0005],
    [318,1525538483,56.7766,-111.329,1514.9,1151.2,345.4,11.3,-4.1,6.78,42.95,627.746,139.9989],
    [319,1525538484,56.7772,-111.3291,1517.5,1154.6,345.3,11.3,-4.1,6.71,43.11,627.3938,140.0004],
    [320,1525538485,56.7777,-111.3292,1520.2,1157.1,345.2,11.3,-4.1,6.63,43.98,627.1797,139.9977],
    [321,1525538486,56.7783,-111.3293,1522.7,1160.7,345.2,11.2,-4.1,6.74,43.16,626.8706,139.9956],
    [322,1525538487,56.7789,-111.3294,1525.5,1163.5,345.2,11.3,-4.1,6.25,43.56,626.6439,139.9935],
    [323,1525538488,56.7794,-111.3295,1528.3,1165.6,345.2,11.3,-4.0,6.11,43.29,626.4857,139.9947],
    [324,1525538489,56.7799,-111.3296,1530.9,1167.9,345.1,11.4,-4.2,6.79,42.87,626.1929,139.9977],
    [325,1525538490,56.7805,-111.3297,1534.0,1170.0,345.1,11.4,-4.1,6.46,44.15,625.9115,139.9968],
    [326,1525538491,56.781,-111.3298,1536.9,1172.9,345.1,11.4,-4.1,7.33,43.35,625.7607,139.998],
    [327,1525538492,56.7816,-111.3299,1539.9,1175.9,345.1,11.4,-4.1,6.37,43.67,625.4787,140.0009],
    [328,1525538493,56.7822,-111.33,1543.2,1179.2,345.1,11.4,-4.1,6.56,43.57,625.0744,139.9971],
    [329,1525538494,56.7828,-111.3301,1546.5,1182.5,345.2,11.4,-4.2,6.02,43.79,624.9017,139.9982],
    [330,1525538495,56.7833,-111.3302,1549.8,1185.8,345.2,11.4,-4.1,5.75,43.85,624.6478,139.9968],
    [331,1525538496,56.7838,-111.3303,1552.9,1188.9,345.2,11.4,-4.2,6.11,44.03,624.4771,139.998],
    [332,1525538497,56.7844,-111.3304,1556.4,1192.4,345.3,11.4,-4.2,6.25,44.25,624.0102,139.9978],
    [333,1525538498,56.785,-111.3305,1559.8,1195.8,345.3,11.3,-4.3,6.81,44.11,623.7743,139.9955],
    [334,1525538499,56.7855,-111.3306,1563.2,1199.1,345.2,11.4,-4.3,5.76,44.33,623.5244,139.9965],
    [335,1525538500,56.7861,-111.3307,1566.7,1203.7,345.1,11.3,-4.3,6.21,44.66,623.2294,140.0024],
    [336,1525538501,56.7866,-111.3308,1570.1,1207.1,345.0,11.3,-4.3,6.76,44.08,622.9034,139.9936],
    [337,1525538502,56.7872,-111.331,1573.8,1210.8,344.8,11.4,-4.3,6.15,44.7,622.706,139.9936],
    [338,1525538503,56.7878,-111.3311,1577.3,1214.3,344.5,11.4,-4.3,6.31,45.12,622.3186,139.9983],
    [339,1525538504,56.7883,-111.3312,1580.8,1217.8,344.3,11.4,-4.4,5.8,44.52,622.2065,139.9961],
    [340,1525538505,56.7888,-111.3313,1583.9,1220.9,343.9,11.5,-4.4,6.09,44.58,621.8846,139.9949],
    [341,1525538506,56.7894,-111.3314,1588.0,1224.0,343.5,11.6,-4.4,5.52,44.77,621.6142,140.001],
    [342,1525538507,56.7899,-111.3315,1591.8,1227.8,343.3,11.5,-4.4,6.15,44.79,621.4441,139.9958],
    [343,1525538508,56.7905,-111.3317,1595.1,1230.1,342.9,11.6,-4.3,6.41,44.77,621.2733,139.9945],
    [344,1525538509,56.7909,-111.3318,1598.2,1233.2,342.5,11.6,-4.3,5.88,45.37,620.9444,139.9997],
    [345,1525538510,56.7915,-111.332,1601.8,1235.8,342.0,11.6,-4.4,5.96,45.09,620.7285,139.9998],
    [346,1525538511,56.7921,-111.3321,1605.4,1239.4,341.3,12.1,-4.4,6.5,45.01,620.4961,139.9958],
    [347,1525538512,56.7927,-111.3323,1608.4,1242.4,341.6,11.8,-4.5,5.67,44.96,620.1927,139.999],
    [348,1525538513,56.7932,-111.3324,1611.0,1245.1,342.4,11.2,-4.7,5.81,45.29,619.9709,139.9944],
    [349,1525538514,56.7937,-111.3326,1614.1,1249.1,342.4,11.4,-4.5,6.45,45.26,619.826,140.0003],
    [350,1525538515,56.7942,-111.3327,1617.0,1253.0,342.3,11.6,-4.4,5.89,45.38,619.4695,140.0016],
    [351,1525538516,56.7948,-111.3329,1620.3,1257.4,342.6,11.5,-4.4,5.28,45.73,619.2832,140.0007],
    [352,1525538517,56.7953,-111.333,1623.2,1260.2,342.7,11.7,-4.7,5.76,46.32,618.9706,140.0018],
    [353,1525538518,56.7959,-111.3332,1626.4,1264.4,343.2,11.4,-4.8,5.6,46.24,618.7149,140.0036],
    [354,1525538519,56.7964,-111.3333,1629.3,1267.3,343.8,11.1,-5.2,5.65,45.69,618.4123,139.9926],
    [355,1525538520,56.797,-111.3334,1632.9,1270.0,343.9,11.2,-4.7,5.76,46.37,618.2746,139.9915],
    [356,1525538521,56.7975,-111.3336,1636.3,1271.4,343.9,11.2,-4.9,5.47,46.16,617.8814,139.9952],
    [357,1525538522,56.7981,-111.3337,1639.4,1273.4,344.3,11.0,-5.0,5.64,46.36,617.7148,139.992],
    [358,1525538523,56.7986,-111.3338,1642.6,1276.7,343.9,11.3,-4.7,5.69,46.66,617.4464,139.9991],
    [359,1525538524,56.7992,-111.3339,1646.3,1280.1,343.7,11.2,-4.5,5.03,46.13,617.2425,139.9966],
    [360,1525538525,56.7997,-111.3341,1649.8,1282.7,343.5,11.2,-4.4,5.49,46.3,616.9583,140.0015],
    [361,1525538526,56.8002,-111.3342,1653.3,1286.2,343.0,11.5,-4.4,5.15,46.33,616.7566,140.0005],
    [362,1525538527,56.8008,-111.3343,1656.6,1289.6,343.1,11.3,-4.5,5.29,46.39,616.4533,139.9938],
    [363,1525538528,56.8013,-111.3345,1659.7,1292.7,342.7,11.5,-4.5,5.44,47.08,616.3079,139.9947],
    [364,1525538529,56.8019,-111.3346,1662.8,1295.8,342.7,11.3,-4.7,5.5,46.63,616.052,139.996],
    [365,1525538530,56.8024,-111.3348,1665.8,1298.9,342.6,11.0,-4.7,5.33,46.82,615.8434,139.9977],
    [366,1525538531,56.8029,-111.3349,1668.8,1300.7,342.2,11.2,-4.6,5.73,46.44,615.6342,139.9976],
    [367,1525538532,56.8035,-111.3351,1671.8,1303.8,341.6,11.3,-4.5,5.39,47.35,615.4484,139.9989],
    [368,1525538533,56.804,-111.3352,1674.9,1305.8,341.1,11.5,-4.5,4.81,46.87,615.1459,139.9947],
    [369,1525538534,56.8045,-111.3354,1678.0,1309.0,340.9,11.5,-4.5,5.35,46.72,615.0123,139.9969],
    [370,1525538535,56.8051,-111.3356,1680.9,1310.9,341.0,11.4,-4.6,5.63,46.46,614.7408,139.9955],
    [371,1525538536,56.8056,-111.3357,1683.7,1313.7,341.2,11.3,-4.4,5.75,46.75,614.6136,139.9955],
    [372,1525538537,56.8061,-111.3359,1686.8,1316.8,341.3,11.4,-4.4,5.75,47.0,614.5289,139.9961],
    [373,1525538538,56.8067,-111.3361,1689.6,1319.6,341.6,11.3,-4.4,5.17,47.5,614.2059,140.0004],
    [374,1525538539,56.8072,-111.3362,1692.4,1323.4,342.1,11.1,-4.4,4.44,47.55,614.004,139.9996],
    [375,1525538540,56.8077,-111.3364,1695.0,1326.0,342.4,11.3,-4.4,5.16,47.8,613.7921,139.9965],
    [376,1525538541,56.8083,-111.3365,1697.7,1328.7,342.8,11.2,-4.4,4.85,47.22,613.6265,140.0037],
    [377,1525538542,56.8088,-111.3367,1700.1,1331.1,343.4,10.9,-4.5,5.1,48.09,613.4345,139.9959],
    [378,1525538543,56.8094,-111.3368,1702.8,1333.8,343.5,11.3,-4.4,5.33,47.49,613.0984,139.9949],
    [379,1525538544,56.8099,-111.3369,1705.3,1336.6,343.8,11.3,-4.5,4.57,48.28,612.9265,139.9998],
    [380,1525538545,56.8104,-111.3371,1707.6,1339.6,344.2,11.0,-4.5,4.79,47.98,612.6246,139.9965],
    [381,1525538546,56.811,-111.3372,1710.4,1342.4,344.2,11.2,-4.4,4.73,47.75,612.4892,139.9885],
    [382,1525538547,56.8115,-111.3373,1713.0,1346.0,344.3,11.3,-4.7,5.41,47.53,612.1933,139.9982],
    [383,1525538548,56.8121,-111.3374,1716.1,1349.1,344.6,11.0,-4.7,4.75,48.56,611.8378,139.9959],
    [384,1525538549,56.8127,-111.3375,1719.0,1353.0,344.7,10.9,-4.6,5.04,47.58,611.5333,139.9953],
    [385,1525538550,56.8132,-111.3377,1721.9,1355.9,344.6,10.9,-4.5,4.7,48.32,611.4013,140.0017],
    [386,1525538551,56.8137,-111.3378,1725.3,1359.3,344.5,11.0,-5.0,4.74,48.57,610.9826,139.9941],
    [387,1525538552,56.8143,-111.3379,1728.7,1363.7,344.4,10.9,-4.7,4.69,48.15,610.7551,139.9958],
    [388,1525538553,56.8148,-111.338,1732.3,1367.3,344.2,11.1,-4.7,4.82,48.26,610.3375,139.9958],
    [389,1525538554,56.8154,-111.3381,1736.0,1371.0,344.6,10.7,-4.9,4.72,48.64,610.1761,139.9943],
    [390,1525538555,56.8159,-111.3383,1739.6,1374.6,344.6,10.6,-4.9,4.62,48.9,609.8109,139.9952],
    [391,1525538556,56.8165,-111.3384,1743.5,1378.5,344.5,10.7,-4.9,4.62,49.35,609.6048,139.998],
    [392,1525538557,56.817,-111.3385,1747.3,1382.3,344.5,10.6,-5.0,4.57,48.66,609.2266,139.9988],
    [393,1525538558,56.8176,-111.3386,1751.1,1386.1,344.3,10.7,-5.0,4.6,48.66,609.0484,139.9967],
    [394,1525538559,56.8181,-111.3388,1755.0,1389.7,344.0,10.7,-4.9,4.23,49.02,608.7198,139.9958],
    [395,1525538560,56.8186,-111.3389,1758.9,1392.9,344.0,10.6,-5.0,4.71,48.42,608.5319,139.9965],
    [396,1525538561,56.8192,-111.339,1762.6,1396.6,343.7,10.7,-4.9,3.98,48.94,608.2373,139.9993],
    [397,1525538562,56.8197,-111.3392,1766.3,1400.3,343.4,10.7,-5.0,5.05,48.62,608.0676,139.997],
    [398,1525538563,56.8202,-111.3393,1769.9,1403.9,343.1,10.7,-5.0,4.61,48.81,607.8209,139.9936],
    [399,1525538564,56.8208,-111.3394,1773.3,1407.3,342.9,10.6,-4.9,4.01,49.25,607.6858,139.9996],
    [400,1525538565,56.8213,-111.3396,1776.8,1410.8,342.5,10.7,-4.7,4.39,48.84,607.393,139.9944],
    [401,1525538566,56.8218,-111.3398,1780.0,1414.0,342.0,10.8,-4.7,4.17,49.4,607.3297,139.9954],
    [402,1525538567,56.8224,-111.3399,1783.0,1417.3,341.5,10.8,-4.7,4.33,49.69,607.128,139.997],
    [403,1525538568,56.8229,-111.3401,1785.8,1420.8,340.8,10.8,-4.6,4.22,49.82,606.9709,140.0004],
    [404,1525538569,56.8234,-111.3403,1788.5,1423.5,340.2,10.9,-4.5,3.97,49.51,606.8129,139.9943],
    [405,1525538570,56.8239,-111.3405,1790.8,1426.8,339.8,11.2,-4.4,3.92,49.9,606.7048,139.995],
    [406,1525538571,56.8245,-111.3407,1793.1,1429.1,340.0,10.8,-4.6,4.46,49.18,606.4719,139.9963],
    [407,1525538572,56.825,-111.3409,1795.2,1431.2,340.0,10.7,-4.6,3.96,49.97,606.2566,139.9941],
    [408,1525538573,56.8255,-111.3411,1797.4,1434.4,339.8,10.9,-4.6,4.01,49.85,606.1753,139.9922],
    [409,1525538574,56.8261,-111.3413,1799.5,1436.5,339.9,10.8,-4.6,3.96,49.73,605.9944,139.9983],
    [410,1525538575,56.8266,-111.3415,1801.6,1438.3,340.1,10.7,-4.7,3.56,50.06,605.6773,139.9996],
    [411,1525538576,56.8271,-111.3417,1803.8,1439.8,340.2,10.7,-4.6,3.87,50.52,605.5744,139.9955],
    [412,1525538577,56.8277,-111.3419,1806.2,1442.2,340.3,10.7,-4.7,3.89,50.12,605.3512,139.9978],
    [413,1525538578,56.8282,-111.3421,1808.5,1444.5,340.6,10.4,-4.9,3.62,49.65,605.1808,140.0006],
    [414,1525538579,56.8287,-111.3423,1810.9,1447.9,340.5,10.2,-4.9,4.05,49.78,604.9835,139.9931],
    [415,1525538580,56.8293,-111.3425,1813.4,1451.3,339.5,10.7,-4.6,3.84,49.73,604.8711,139.9952],
    [416,1525538581,56.8298,-111.3428,1815.7,1453.7,338.6,10.9,-4.6,3.78,49.61,604.6544,139.9928],
    [417,1525538582,56.8303,-111.343,1818.1,1456.1,338.0,10.7,-4.6,3.2,49.85,604.4339,139.9968],
    [418,1525538583,56.8309,-111.3433,1820.5,1458.5,337.4,10.7,-4.5,3.75,49.8,604.2824,139.9978],
    [419,1525538584,56.8314,-111.3435,1822.8,1460.8,336.8,10.7,-4.5,3.83,49.83,604.0539,139.9982],
    [420,1525538585,56.8319,-111.3438,1825.1,1463.1,336.4,10.7,-4.6,3.77,49.76,603.7348,139.9977],
    [421,1525538586,56.8325,-111.3441,1827.7,1464.9,336.0,10.7,-4.6,3.43,50.02,603.6096,140.0018],
    [422,1525538587,56.833,-111.3444,1830.3,1467.3,335.6,10.8,-4.5,3.56,50.25,603.3006,139.9939],
    [423,1525538588,56.8335,-111.3447,1832.8,1469.8,335.4,10.7,-4.7,3.87,50.32,603.0985,139.9959],
    [424,1525538589,56.834,-111.345,1835.6,1472.6,335.3,10.7,-4.7,3.63,49.86,602.8094,139.9927],
    [425,1525538590,56.8346,-111.3453,1838.5,1475.5,335.2,10.5,-4.8,3.22,50.12,602.6139,140.0002],
    [426,1525538591,56.835,-111.3455,1841.1,1478.1,335.2,10.4,-4.8,3.63,50.14,602.3928,139.9988],
    [427,1525538592,56.8356,-111.3459,1844.7,1481.7,335.0,10.5,-4.8,3.39,49.79,602.0316,139.9953],
    [428,1525538593,56.8361,-111.3462,1848.2,1486.2,334.8,10.5,-4.8,3.54,49.84,601.7687,139.999],
    [429,1525538594,56.8366,-111.3465,1851.6,1489.6,334.7,10.4,-4.8,4.15,49.28,601.5936,139.9965],
    [430,1525538595,56.8371,-111.3468,1855.3,1493.3,334.6,10.4,-4.8,3.07,49.85,601.2373,139.9937],
    [431,1525538596,56.8377,-111.3471,1859.1,1497.8,334.5,10.6,-4.7,3.43,49.97,601.0206,139.9936],
    [432,1525538597,56.8382,-111.3474,1862.7,1501.7,334.8,10.4,-4.9,3.45,49.52,600.6925,139.996],
    [433,1525538598,56.8387,-111.3477,1866.2,1505.2,335.3,10.1,-5.0,3.46,50.09,600.3779,139.9988],
    [434,1525538599,56.8392,-111.348,1869.4,1508.4,335.3,10.3,-5.0,4.07,48.99,600.2513,140.0002],
    [435,1525538600,56.8397,-111.3483,1873.1,1513.1,335.4,10.3,-5.1,3.11,49.46,599.9921,139.9961],
    [436,1525538601,56.8403,-111.3487,1876.7,1516.7,335.3,10.3,-5.1,3.29,49.45,599.8347,139.9998],
    [437,1525538602,56.8408,-111.3489,1880.2,1520.2,335.1,10.4,-5.0,3.09,49.58,599.4656,140.0018],
    [438,1525538603,56.8413,-111.3492,1883.7,1523.7,334.9,10.5,-4.9,3.14,49.85,599.2474,139.9934],
    [439,1525538604,56.8418,-111.3495,1887.2,1527.2,334.9,10.4,-4.9,2.98,49.46,598.9322,139.9968],
    [440,1525538605,56.8423,-111.3499,1890.7,1530.7,334.8,10.4,-4.9,3.08,49.4,598.783,139.9906],
    [441,1525538606,56.8428,-111.3502,1894.0,1533.3,334.6,10.5,-4.8,4.05,49.14,598.6037,139.9962],
    [442,1525538607,56.8433,-111.3505,1897.3,1536.3,334.4,10.6,-4.7,3.25,49.53,598.3743,139.9966],
    [443,1525538608,56.8438,-111.3508,1900.4,1539.4,334.2,10.7,-4.7,3.36,49.49,598.1964,139.9974],
    [444,1525538609,56.8443,-111.3511,1903.3,1542.3,334.3,10.6,-4.7,3.24,49.49,598.0111,139.9979],
    [445,1525538610,56.8448,-111.3514,1906.1,1545.1,334.6,10.4,-4.8,3.95,49.3,597.9029,139.9996],
    [446,1525538611,56.8454,-111.3517,1908.6,1547.6,334.6,10.4,-4.8,3.01,49.49,597.698,139.999],
    [447,1525538612,56.8459,-111.352,1911.0,1550.0,334.5,10.5,-4.8,3.08,49.59,597.5379,139.9985],
    [448,1525538613,56.8464,-111.3523,1913.5,1552.5,334.5,10.5,-4.8,2.62,50.02,597.3278,139.9974],
    [449,1525538614,56.8469,-111.3526,1915.6,1554.6,334.5,10.5,-4.7,3.39,49.58,597.1686,139.996],
    [450,1525538615,56.8474,-111.3529,1917.9,1556.9,334.4,10.5,-4.8,3.66,49.67,596.9665,139.9974],
    [451,1525538616,56.8479,-111.3533,1920.2,1560.2,334.3,10.5,-4.7,2.55,50.87,596.8015,139.9963],
    [452,1525538617,56.8484,-111.3536,1922.5,1562.5,334.2,10.6,-4.7,2.75,51.2,596.593,140.0],
    [453,1525538618,56.8489,-111.3539,1924.9,1565.2,334.1,10.6,-4.7,2.86,50.79,596.4001,139.9945],
    [454,1525538619,56.8495,-111.3542,1927.4,1568.4,334.1,10.6,-4.8,3.35,50.57,596.184,139.9974],
    [455,1525538620,56.85,-111.3545,1929.8,1570.8,334.0,10.6,-4.7,2.64,50.8,595.936,139.9948],
    [456,1525538621,56.8505,-111.3549,1932.5,1573.5,333.9,10.7,-4.7,2.39,51.09,595.6847,139.9996],
    [457,1525538622,56.851,-111.3552,1935.1,1577.1,334.0,10.6,-4.7,2.89,50.74,595.5066,139.9954],
    [458,1525538623,56.8515,-111.3555,1937.7,1579.7,334.1,10.6,-4.7,2.45,51.32,595.2475,139.9961],
    [459,1525538624,56.852,-111.3558,1940.7,1582.7,334.1,10.6,-4.7,2.39,51.55,595.0571,139.994],
    [460,1525538625,56.8525,-111.3561,1943.5,1586.5,334.1,10.6,-4.7,2.75,52.14,594.7477,139.9965],
    [461,1525538626,56.853,-111.3565,1946.5,1589.5,334.1,10.6,-4.6,2.64,52.36,594.5668,139.9957],
    [462,1525538627,56.8536,-111.3568,1949.6,1592.6,334.0,10.7,-4.6,2.52,51.9,594.2446,139.9976],
    [463,1525538628,56.8541,-111.3571,1952.7,1595.7,334.1,10.8,-4.7,1.92,52.09,594.0196,139.9977],
    [464,1525538629,56.8546,-111.3574,1956.0,1599.0,334.1,10.7,-4.7,2.09,52.17,593.8032,140.0003],
    [465,1525538630,56.8551,-111.3577,1959.2,1603.2,334.1,10.7,-4.7,2.04,52.32,593.6146,139.994],
    [466,1525538631,56.8556,-111.3581,1962.5,1606.5,334.1,10.7,-4.7,3.04,51.76,593.2924,139.9944],
    [467,1525538632,56.8562,-111.3584,1965.8,1609.8,334.2,10.7,-4.7,2.42,52.41,593.1352,139.9912],
    [468,1525538633,56.8567,-111.3587,1969.1,1613.1,334.2,10.7,-4.6,2.85,51.78,592.9973,139.9971],
    [469,1525538634,56.8572,-111.359,1972.1,1616.1,334.2,10.8,-4.6,2.42,52.79,592.8246,139.9922],
    [470,1525538635,56.8577,-111.3593,1975.2,1619.2,334.3,10.7,-4.6,2.38,52.6,592.7025,139.9979],
    [471,1525538636,56.8582,-111.3596,1978.6,1622.6,334.4,10.7,-4.5,2.74,52.2,592.675,139.9966],
    [472,1525538637,56.8587,-111.3599,1981.4,1625.4,334.7,10.7,-4.6,2.27,52.57,592.6392,139.9988],
    [473,1525538638,56.8592,-111.3602,1983.8,1627.8,335.0,10.6,-4.6,2.17,52.75,592.6144,139.9978],
    [474,1525538639,56.8597,-111.3605,1985.7,1629.7,335.2,10.6,-4.7,2.7,52.62,592.5616,140.0003],
    [475,1525538640,56.8603,-111.3608,1987.2,1631.2,335.2,10.7,-4.5,2.2,52.92,592.55,139.9959],
    [476,1525538641,56.8608,-111.3611,1988.0,1632.0,335.3,10.7,-4.7,2.73,52.75,592.5478,139.9975],
    [477,1525538642,56.8613,-111.3614,1988.4,1632.4,335.7,10.5,-4.7,2.28,52.76,592.5455,139.9963],
    [478,1525538643,56.8618,-111.3617,1988.8,1632.8,335.6,10.6,-4.6,2.78,52.43,592.5699,140.0053],
    [479,1525538644,56.8623,-111.362,1989.0,1633.0,335.5,10.8,-4.6,2.23,53.32,592.5801,139.9952],
    [480,1525538645,56.8629,-111.3623,1989.3,1634.3,335.6,10.7,-4.8,2.3,52.73,592.6037,139.9991],
    [481,1525538646,56.8635,-111.3626,1989.4,1634.4,335.7,10.5,-4.7,2.11,52.93,592.5808,139.9915],
    [482,1525538647,56.864,-111.3629,1989.2,1634.2,335.8,10.4,-4.8,2.08,53.08,592.5962,139.9956],
    [483,1525538648,56.8645,-111.3633,1988.8,1634.1,335.6,10.5,-4.6,1.99,53.45,592.5805,139.9991],
    [484,1525538649,56.8651,-111.3636,1988.6,1634.6,335.5,10.6,-4.6,2.11,53.5,592.5384,139.9962],
    [485,1525538650,56.8656,-111.3639,1988.4,1634.4,335.6,10.4,-4.7,2.27,52.69,592.514,139.9992],
    [486,1525538651,56.8662,-111.3642,1988.3,1634.3,335.7,10.4,-4.6,1.5,53.07,592.4559,139.9989],
    [487,1525538652,56.8667,-111.3645,1988.3,1634.3,335.9,10.3,-4.8,1.88,52.98,592.4365,140.0003],
    [488,1525538653,56.8673,-111.3649,1988.4,1634.4,336.1,10.3,-4.8,2.03,52.83,592.4083,139.9982],
    [489,1525538654,56.8678,-111.3652,1988.7,1634.7,336.1,10.3,-4.8,1.18,52.91,592.3936,139.9969],
    [490,1525538655,56.8684,-111.3655,1989.1,1635.1,336.2,10.3,-4.8,2.05,52.65,592.3599,140.0006],
    [491,1525538656,56.869,-111.3658,1989.6,1635.6,336.4,10.3,-4.9,1.85,53.6,592.351,139.9968],
    [492,1525538657,56.8696,-111.3661,1990.0,1636.0,336.5,10.2,-4.9,1.65,52.88,592.2795,139.9978],
    [493,1525538658,56.8701,-111.3664,1990.2,1635.5,336.7,10.2,-4.8,1.87,53.05,592.2733,139.9985],
    [494,1525538659,56.8707,-111.3667,1990.4,1635.4,336.8,10.1,-4.8,1.6,52.82,592.2333,139.999],
    [495,1525538660,56.8712,-111.3671,1990.7,1635.7,336.9,10.1,-4.7,2.0,52.68,592.1869,139.9965],
    [496,1525538661,56.8718,-111.3674,1991.1,1636.1,337.1,10.0,-4.7,2.02,52.9,592.1151,139.9991],
    [497,1525538662,56.8724,-111.3677,1991.4,1636.4,337.3,10.0,-4.7,1.61,52.56,592.0599,139.9953],
    [498,1525538663,56.873,-111.368,1991.8,1636.8,337.5,10.1,-4.8,1.16,52.86,592.0126,139.998],
    [499,1525538664,56.8736,-111.3683,1992.3,1637.5,337.7,10.0,-4.7,2.15,52.74,591.9475,139.9946],
    [500,1525538665,56.8741,-111.3686,1992.9,1638.9,338.0,10.0,-4.7,1.93,52.8,591.8625,139.9967],
    [501,1525538666,56.8747,-111.3689,1993.7,1639.7,338.2,10.0,-4.7,1.28,52.89,591.8373,139.9932],
    [502,1525538667,56.8753,-111.3692,1994.5,1640.5,338.6,10.0,-4.7,2.6,52.44,591.8178,140.0021],
    [503,1525538668,56.8759,-111.3695,1995.2,1641.2,338.9,9.9,-4.8,1.79,53.01,591.8002,139.996],
    [504,1525538669,56.8765,-111.3698,1996.0,1643.0,339.2,10.0,-5.1,1.9,52.62,591.7817,139.9978],
    [505,1525538670,56.8771,-111.37,1996.8,1643.8,339.2,10.2,-5.1,1.72,52.65,591.767,139.9939],
    [506,1525538671,56.8777,-111.3703,1997.3,1644.3,339.4,10.1,-5.1,2.42,52.56,591.7789,139.9992],
    [507,1525538672,56.8783,-111.3706,1997.4,1645.4,339.5,10.0,-5.1,1.9,53.24,591.7601,139.9972],
    [508,1525538673,56.8789,-111.3709,1997.6,1645.6,339.4,10.2,-5.1,1.81,53.31,591.7316,140.0007],
    [509,1525538674,56.8795,-111.3711,1997.8,1645.8,339.5,10.2,-5.1,1.76,53.15,591.7133,139.9986],
    [510,1525538675,56.8801,-111.3714,1997.9,1645.9,339.7,10.1,-5.1,1.52,53.2,591.6927,140.0001],
    [511,1525538676,56.8806,-111.3717,1997.9,1646.1,339.9,10.0,-5.1,1.47,53.26,591.6857,140.0028],
    [512,1525538677,56.8813,-111.372,1998.0,1647.0,340.1,9.9,-5.1,2.29,52.89,591.662,140.0007],
    [513,1525538678,56.8818,-111.3722,1998.2,1647.2,340.2,10.0,-5.0,2.59,53.15,591.6279,140.0023],
    [514,1525538679,56.8825,-111.3725,1998.5,1647.5,340.4,9.9,-5.1,1.78,54.04,591.5843,139.9935],
    [515,1525538680,56.8831,-111.3727,1998.7,1647.7,340.5,9.9,-5.0,1.79,53.6,591.5578,140.0017],
    [516,1525538681,56.8837,-111.373,1999.0,1648.0,340.5,10.0,-5.0,1.83,53.33,591.5142,139.9971],
    [517,1525538682,56.8843,-111.3733,1999.3,1648.3,340.6,10.0,-5.0,2.06,53.3,591.4866,139.9982],
    [518,1525538683,56.8849,-111.3735,1999.6,1648.6,340.6,10.0,-5.0,1.65,53.45,591.468,140.001],
    [519,1525538684,56.8855,-111.3738,2000.0,1649.0,340.7,10.0,-5.0,1.95,53.67,591.4455,140.0007],
    [520,1525538685,56.8862,-111.374,2000.4,1649.4,340.9,10.0,-5.0,1.31,53.9,591.4201,139.9999],
    [521,1525538686,56.8868,-111.3743,2000.8,1649.8,341.0,10.1,-5.1,2.0,53.16,591.402,139.997],
    [522,1525538687,56.8874,-111.3745,2001.3,1651.3,341.2,10.1,-5.1,1.86,53.62,591.369,139.9938],
    [523,1525538688,56.888,-111.3748,2001.6,1651.6,341.4,10.1,-5.1,1.14,53.64,591.3679,139.9985],
    [524,1525538689,56.8887,-111.375,2001.8,1651.8,341.7,10.1,-5.1,1.67,53.73,591.3516,139.997],
    [525,1525538690,56.8893,-111.3753,2002.0,1652.7,342.0,10.1,-5.2,2.21,53.09,591.318,139.9988],
    [526,1525538691,56.8899,-111.3755,2002.3,1653.3,342.3,10.0,-5.2,2.16,53.45,591.2946,139.9982],
    [527,1525538692,56.8906,-111.3757,2002.5,1653.5,342.7,9.9,-5.3,1.63,53.76,591.2609,139.9994],
    [528,1525538693,56.8912,-111.376,2002.6,1654.6,342.7,10.0,-5.2,1.65,53.8,591.2042,139.9954],
    [529,1525538694,56.8918,-111.3762,2002.9,1654.9,342.6,10.1,-5.2,2.32,53.51,591.1662,139.9986],
    [530,1525538695,56.8925,-111.3764,2003.2,1655.2,342.7,10.1,-5.1,1.99,53.73,591.1306,139.9965],
    [531,1525538696,56.8931,-111.3766,2003.4,1656.4,342.7,10.1,-5.2,1.83,53.8,591.1257,140.0013],
    [532,1525538697,56.8937,-111.3768,2003.8,1656.8,342.7,10.1,-5.2,1.21,54.15,591.1151,140.0006],
    [533,1525538698,56.8944,-111.3771,2004.3,1657.3,342.7,9.9,-5.1,1.76,54.43,591.1019,139.9997],
    [534,1525538699,56.895,-111.3773,2004.9,1658.9,342.3,9.9,-5.0,1.76,53.89,591.0564,139.9968],
    [535,1525538700,56.8956,-111.3775,2005.4,1659.4,341.6,10.2,-4.9,1.67,54.59,591.0521,139.998],
    [536,1525538701,56.8963,-111.3778,2005.6,1660.6,341.1,10.1,-4.9,2.08,53.76,590.9986,139.9963],
    [537,1525538702,56.8969,-111.378,2005.6,1661.6,340.6,10.4,-4.9,1.75,54.83,590.9795,139.9967],
    [538,1525538703,56.8975,-111.3783,2005.7,1663.1,340.4,10.3,-5.0,1.72,54.13,590.9365,139.9975],
    [539,1525538704,56.8982,-111.3786,2005.9,1667.3,340.3,10.2,-5.1,1.67,54.26,590.9227,139.9992],
    [540,1525538705,56.8988,-111.3789,2006.3,1670.3,340.2,10.2,-5.0,2.07,53.69,590.9213,140.0008],
    [541,1525538706,56.8994,-111.3792,2006.7,1670.7,340.3,10.1,-5.1,1.69,54.84,590.9332,139.9973],
    [542,1525538707,56.9001,-111.3795,2007.2,1668.5,340.3,10.0,-5.0,1.67,54.4,590.9494,139.9997],
    [543,1525538708,56.9007,-111.3797,2007.5,1667.1,340.2,10.1,-4.9,1.43,54.19,590.9452,140.0021],
    [544,1525538709,56.9014,-111.38,2007.6,1666.6,340.2,10.0,-5.1,1.44,54.04,590.9428,139.9978],
    [545,1525538710,56.9019,-111.3803,2007.7,1665.7,340.2,10.0,-5.1,1.92,54.06,590.9199,139.9968],
    [546,1525538711,56.9026,-111.3806,2007.6,1664.6,340.1,10.1,-5.1,1.58,54.91,590.9231,139.9992],
    [547,1525538712,56.9033,-111.3809,2007.4,1664.4,340.2,10.0,-4.9,1.68,54.57,590.9262,139.9975],
    [548,1525538713,56.9039,-111.3812,2007.3,1664.3,340.2,10.0,-4.9,1.8,54.02,590.9392,140.0017],
    [549,1525538714,56.9045,-111.3815,2007.2,1664.2,340.2,10.0,-4.8,2.0,54.23,590.9611,139.9952],
    [550,1525538715,56.9052,-111.3818,2007.2,1664.2,340.2,10.0,-4.9,1.26,54.14,590.986,139.9982],
    [551,1525538716,56.9059,-111.3821,2007.1,1664.1,340.2,10.0,-4.8,1.92,53.7,591.0005,140.0027],
    [552,1525538717,56.9065,-111.3823,2007.0,1664.0,340.3,10.0,-5.0,2.12,53.8,590.9998,140.0005],
    [553,1525538718,56.9072,-111.3826,2006.9,1663.9,340.4,10.0,-5.0,1.12,54.38,591.0017,139.9989],
    [554,1525538719,56.9078,-111.3829,2006.6,1663.6,340.5,9.9,-5.0,1.41,54.07,590.9794,139.9981],
    [555,1525538720,56.9084,-111.3832,2006.2,1663.2,340.6,9.9,-5.1,0.96,54.16,590.9724,139.9976],
    [556,1525538721,56.9091,-111.3835,2005.9,1662.9,340.7,9.9,-5.0,1.61,54.37,590.9401,139.9994],
    [557,1525538722,56.9098,-111.3838,2005.8,1662.8,340.8,9.7,-4.9,1.71,54.73,590.9429,139.9986],
    [558,1525538723,56.9105,-111.3841,2005.8,1662.8,340.7,9.8,-4.9,1.22,54.13,590.931,139.9964],
    [559,1525538724,56.9111,-111.3844,2005.9,1662.9,340.6,9.9,-5.0,1.92,53.75,590.9229,139.9958],
    [560,1525538725,56.9118,-111.3846,2006.1,1663.1,340.6,9.9,-4.9,2.41,53.67,590.9272,139.995],
    [561,1525538726,56.9124,-111.3849,2006.2,1663.2,340.7,9.9,-4.9,1.81,54.03,590.8995,139.998],
    [562,1525538727,56.9131,-111.3852,2006.3,1663.3,340.8,9.8,-4.9,1.05,53.99,590.8895,140.0017],
    [563,1525538728,56.9138,-111.3855,2006.5,1663.5,340.9,9.8,-4.9,1.64,54.19,590.8851,140.0011],
    [564,1525538729,56.9144,-111.3858,2006.7,1663.7,341.0,9.7,-4.9,1.34,54.02,590.8815,140.0],
    [565,1525538730,56.9151,-111.3861,2006.7,1663.7,341.0,9.8,-4.9,1.44,54.13,590.8471,139.9992],
    [566,1525538731,56.9157,-111.3864,2006.8,1663.8,341.1,9.8,-5.0,1.69,53.82,590.8675,140.0033],
    [567,1525538732,56.9164,-111.3866,2006.9,1663.9,341.1,9.8,-5.1,1.56,53.89,590.89,140.0],
    [568,1525538733,56.917,-111.3869,2007.1,1664.1,341.1,9.9,-5.0,1.48,53.92,590.926,139.998],
    [569,1525538734,56.9177,-111.3872,2007.3,1664.3,341.1,9.8,-5.0,2.13,53.15,590.9488,140.0002],
    [570,1525538735,56.9184,-111.3875,2007.4,1664.4,341.1,9.9,-5.1,2.04,54.07,591.0091,139.9994],
    [571,1525538736,56.9191,-111.3878,2007.2,1665.2,341.1,9.8,-5.2,2.35,53.5,591.0219,140.0009],
    [572,1525538737,56.9197,-111.3881,2006.9,1664.9,341.1,9.8,-5.2,1.79,53.62,591.0616,140.0038],
    [573,1525538738,56.9204,-111.3883,2006.4,1664.4,341.0,9.9,-5.1,1.13,54.03,591.0662,140.0016],
    [574,1525538739,56.9211,-111.3886,2005.9,1663.9,341.0,9.8,-5.2,1.62,54.24,591.1077,139.9987],
    [575,1525538740,56.9217,-111.3889,2005.3,1663.3,341.1,9.8,-5.3,1.76,54.05,591.1495,140.0037],
    [576,1525538741,56.9224,-111.3892,2004.8,1663.8,341.1,9.9,-5.3,2.41,53.68,591.1509,140.0038],
    [577,1525538742,56.923,-111.3895,2004.5,1663.5,341.2,9.9,-5.3,1.58,54.37,591.1623,140.003],
    [578,1525538743,56.9237,-111.3898,2004.3,1663.3,341.3,9.9,-5.3,1.63,54.88,591.1683,139.9978],
    [579,1525538744,56.9244,-111.39,2004.0,1663.0,341.5,9.8,-5.3,1.09,54.04,591.2209,140.0021],
    [580,1525538745,56.925,-111.3903,2003.6,1662.6,341.6,9.8,-5.3,1.76,54.04,591.2526,140.0],
    [581,1525538746,56.9257,-111.3906,2003.3,1663.3,341.8,9.7,-5.1,1.49,54.2,591.2603,139.9982],
    [582,1525538747,56.9264,-111.3909,2003.0,1663.5,342.0,9.7,-5.1,1.33,54.39,591.3288,139.9973],
    [583,1525538748,56.9271,-111.3911,2002.6,1663.6,342.2,9.7,-5.2,1.28,54.13,591.3635,139.9998],
    [584,1525538749,56.9277,-111.3914,2002.2,1664.2,342.4,9.7,-5.2,1.26,54.2,591.4162,140.0005],
    [585,1525538750,56.9284,-111.3917,2001.7,1663.7,342.6,9.6,-5.2,1.92,54.07,591.4972,139.9993],
    [586,1525538751,56.9291,-111.3919,2001.2,1662.9,342.8,9.6,-5.3,1.84,53.96,591.5387,139.9996],
    [587,1525538752,56.9298,-111.3922,2000.5,1661.5,342.9,9.6,-5.3,2.37,53.9,591.5924,139.9991],
    [588,1525538753,56.9305,-111.3924,1999.9,1660.9,343.1,9.7,-5.4,1.29,54.32,591.645,140.0011],
    [589,1525538754,56.9312,-111.3927,1999.1,1659.8,343.4,9.6,-5.4,1.58,54.18,591.7458,139.9981],
    [590,1525538755,56.9318,-111.3929,1998.3,1659.3,343.6,9.5,-5.4,1.64,54.58,591.7931,140.0032],
    [591,1525538756,56.9325,-111.3931,1997.6,1658.6,343.9,9.5,-5.4,1.68,54.47,591.8457,140.0062],
    [592,1525538757,56.9331,-111.3933,1996.7,1657.7,344.0,9.5,-5.6,1.69,54.56,591.8933,140.0008],
    [593,1525538758,56.9338,-111.3936,1995.8,1656.5,344.0,9.4,-5.5,1.64,54.52,591.9268,140.003],
    [594,1525538759,56.9346,-111.3938,1994.8,1655.8,343.9,9.3,-5.6,1.34,54.3,591.9711,140.0015],
    [595,1525538760,56.9352,-111.3941,1993.9,1654.9,343.6,9.4,-5.6,1.23,54.33,591.9948,140.0056],
    [596,1525538761,56.9359,-111.3943,1993.2,1654.2,343.1,9.5,-5.7,1.51,54.54,592.0428,139.9998],
    [597,1525538762,56.9366,-111.3946,1992.6,1653.9,342.8,9.6,-5.7,1.57,55.2,592.0762,139.9999],
    [598,1525538763,56.9373,-111.3948,1992.0,1654.0,342.5,9.6,-5.7,1.68,54.83,592.1024,139.9999],
    [599,1525538764,56.9379,-111.3951,1991.4,1653.4,342.2,9.5,-5.6,2.38,54.58,592.0953,140.0001],
    [600,1525538765,56.9386,-111.3954,1990.9,1653.9,342.0,9.6,-5.6,1.58,54.98,592.0945,140.0028],
    [601,1525538766,56.9393,-111.3957,1990.3,1653.3,341.7,9.7,-5.6,1.85,55.17,592.098,139.9987],
    [602,1525538767,56.94,-111.3959,1989.8,1652.8,341.6,9.7,-5.7,1.54,55.36,592.0648,139.9997],
    [603,1525538768,56.9407,-111.3962,1989.5,1652.8,341.6,9.7,-5.6,1.52,55.54,592.0356,139.996],
    [604,1525538769,56.9413,-111.3965,1989.3,1653.3,341.6,9.7,-5.7,1.89,55.39,592.0125,139.9984],
    [605,1525538770,56.942,-111.3968,1989.3,1653.3,341.6,9.7,-5.8,1.61,55.59,592.0243,139.9997],
    [606,1525538771,56.9427,-111.3971,1989.5,1654.5,341.6,9.7,-5.8,1.58,55.63,592.1228,140.0007],
    [607,1525538772,56.9434,-111.3973,1989.7,1654.7,341.7,9.7,-5.8,2.28,55.39,592.1954,140.0019],
    [608,1525538773,56.944,-111.3976,1990.1,1656.1,341.9,9.7,-5.8,1.86,56.13,592.2719,140.002],
    [609,1525538774,56.9447,-111.3979,1990.5,1656.5,342.0,9.7,-5.7,1.69,55.63,592.3383,140.0045],
    [610,1525538775,56.9454,-111.3982,1990.3,1657.3,342.1,9.7,-5.7,1.35,56.36,592.3649,140.0036],
    [611,1525538776,56.9461,-111.3985,1989.5,1657.5,342.2,9.7,-5.7,1.74,55.95,592.3371,139.9978],
    [612,1525538777,56.9468,-111.3987,1988.5,1656.8,342.3,9.8,-5.7,1.71,55.92,592.2547,139.9962],
    [613,1525538778,56.9474,-111.399,1987.3,1656.1,342.5,9.8,-5.7,1.99,55.83,592.236,139.9979],
    [614,1525538779,56.9481,-111.3992,1986.1,1654.6,342.6,9.7,-5.7,1.63,56.26,592.1779,139.9989],
    [615,1525538780,56.9488,-111.3995,1985.7,1653.7,342.7,9.8,-5.7,1.79,56.32,592.1522,140.0021],
    [616,1525538781,56.9495,-111.3997,1985.9,1654.3,342.8,9.8,-5.7,1.85,56.67,592.0715,140.0005],
    [617,1525538782,56.9502,-111.4,1986.6,1654.6,342.8,9.8,-5.7,1.25,56.12,592.0209,140.0024],
    [618,1525538783,56.9508,-111.4002,1987.3,1655.8,342.8,9.7,-5.8,1.55,56.27,591.9454,139.9964],
    [619,1525538784,56.9515,-111.4005,1987.9,1656.6,342.8,9.8,-5.8,2.42,56.02,591.9109,140.0011],
    [620,1525538785,56.9522,-111.4008,1988.7,1657.7,342.7,9.9,-5.8,2.08,56.16,591.8469,139.9999],
    [621,1525538786,56.9529,-111.401,1989.5,1658.5,342.7,9.9,-5.8,1.67,56.42,591.7705,140.0047],
    [622,1525538787,56.9535,-111.4012,1990.3,1659.3,342.6,9.9,-5.7,2.16,56.18,591.725,140.0002],
    [623,1525538788,56.9542,-111.4015,1991.1,1660.1,342.5,10.0,-5.8,2.46,56.13,591.6819,139.9968],
    [624,1525538789,56.9549,-111.4018,1991.9,1661.6,342.4,10.0,-5.7,1.34,56.88,591.6397,140.0033],
    [625,1525538790,56.9555,-111.402,1992.8,1662.8,342.3,10.1,-5.7,1.77,56.88,591.5892,139.9952],
    [626,1525538791,56.9562,-111.4023,1993.7,1664.0,342.2,10.0,-5.7,1.75,56.9,591.5401,140.0036],
    [627,1525538792,56.9569,-111.4025,1994.4,1665.5,342.1,10.1,-5.7,1.61,56.58,591.5002,140.0002],
    [628,1525538793,56.9575,-111.4028,1995.1,1666.1,342.0,10.1,-5.7,1.04,56.61,591.3998,139.9979],
    [629,1525538794,56.9582,-111.4031,1995.8,1666.8,341.9,10.2,-5.7,1.57,56.72,591.3527,140.0024],
    [630,1525538795,56.9589,-111.4033,1996.4,1667.4,341.8,10.1,-5.7,1.74,56.93,591.2891,140.0009],
    [631,1525538796,56.9595,-111.4036,1997.0,1668.1,341.6,10.1,-5.7,1.74,56.85,591.255,139.9981],
    [632,1525538797,56.9602,-111.4038,1997.8,1668.8,341.5,10.2,-5.7,1.97,56.93,591.2504,139.9981],
    [633,1525538798,56.9608,-111.4041,1998.7,1669.7,341.5,10.1,-5.7,1.85,56.83,591.2229,139.9995],
    [634,1525538799,56.9616,-111.4044,1999.7,1670.7,341.4,10.2,-5.7,2.0,56.89,591.1819,139.9984],
    [635,1525538800,56.9622,-111.4047,2000.5,1671.5,341.3,10.2,-5.8,1.83,57.65,591.1953,140.0037],
    [636,1525538801,56.9629,-111.4049,2001.1,1672.0,341.3,10.1,-5.7,1.88,56.96,591.2032,140.0078],
    [637,1525538802,56.9635,-111.4052,2001.4,1672.4,341.2,10.1,-5.7,1.94,56.65,591.2409,140.0],
    [638,1525538803,56.9642,-111.4055,2001.7,1673.7,341.2,10.1,-5.8,1.66,57.08,591.2568,140.0045],
    [639,1525538804,56.9648,-111.4058,2001.9,1674.0,341.2,10.1,-5.7,1.92,56.87,591.2998,140.0011],
    [640,1525538805,56.9654,-111.406,2002.0,1673.9,341.2,10.1,-5.7,1.58,57.39,591.3684,140.0025],
    [641,1525538806,56.9661,-111.4063,2001.9,1674.9,341.2,10.0,-5.5,1.59,57.09,591.3987,140.0052],
    [642,1525538807,56.9668,-111.4066,2001.6,1674.7,341.3,10.0,-5.5,1.71,57.91,591.4188,140.0015],
    [643,1525538808,56.9675,-111.4069,2001.1,1674.8,341.3,10.1,-5.7,2.39,56.85,591.3891,140.0004],
    [644,1525538809,56.9681,-111.4071,2000.4,1674.4,341.3,10.2,-5.7,1.81,56.93,591.3733,139.9973],
    [645,1525538810,56.9687,-111.4074,1999.7,1674.0,341.3,10.1,-5.7,1.56,57.21,591.3784,139.9994],
    [646,1525538811,56.9694,-111.4077,1999.1,1676.0,341.3,10.1,-5.6,1.8,57.37,591.3748,139.9992],
    [647,1525538812,56.97,-111.4079,1998.9,1679.5,341.4,10.1,-5.6,1.94,57.51,591.3564,140.0016],
    [648,1525538813,56.9707,-111.4082,1999.0,1682.3,341.4,10.2,-5.7,1.6,57.51,591.3485,140.0013],
    [649,1525538814,56.9714,-111.4085,1999.1,1682.8,341.5,10.1,-5.6,1.17,57.03,591.3414,140.0],
    [650,1525538815,56.9721,-111.4088,1999.3,1681.3,341.5,10.2,-5.7,1.45,57.25,591.3482,140.0007],
    [651,1525538816,56.9727,-111.409,1999.4,1680.1,341.6,10.2,-5.7,2.55,56.75,591.3361,140.0012],
    [652,1525538817,56.9734,-111.4093,1999.5,1677.0,341.6,10.2,-5.7,2.03,57.53,591.3347,140.0009],
    [653,1525538818,56.9741,-111.4096,1999.6,1674.2,341.7,10.2,-5.7,1.45,57.42,591.3212,139.9984],
    [654,1525538819,56.9746,-111.4098,1999.6,1672.7,341.7,10.2,-5.7,1.04,57.45,591.3093,139.9992],
    [655,1525538820,56.9753,-111.4101,1999.7,1671.6,341.7,10.2,-5.7,1.77,57.76,591.2793,139.9992],
    [656,1525538821,56.976,-111.4103,1999.8,1672.1,341.8,10.1,-5.6,1.73,58.23,591.2352,140.0029],
    [657,1525538822,56.9766,-111.4106,1999.9,1672.7,341.8,10.1,-5.7,1.45,58.07,591.2291,139.999],
    [658,1525538823,56.9773,-111.4109,2000.1,1672.8,341.8,10.1,-5.7,1.74,58.19,591.2043,139.9988],
    [659,1525538824,56.978,-111.4111,2000.3,1673.3,341.9,10.1,-5.7,1.06,57.72,591.2121,139.9989],
    [660,1525538825,56.9786,-111.4114,2000.6,1674.6,342.0,10.2,-5.7,1.63,57.58,591.1897,139.9993],
    [661,1525538826,56.9793,-111.4116,2001.0,1676.2,342.0,10.1,-5.8,1.85,58.04,591.1831,140.0006],
    [662,1525538827,56.98,-111.4119,2001.4,1677.3,342.1,10.1,-5.7,1.41,57.72,591.1517,139.9982],
    [663,1525538828,56.9806,-111.4121,2001.6,1676.3,342.2,10.1,-5.7,1.46,57.76,591.1232,140.0036],
    [664,1525538829,56.9813,-111.4124,2001.8,1674.8,342.2,10.1,-5.6,1.61,57.78,591.1017,139.999],
    [665,1525538830,56.982,-111.4127,2001.9,1672.9,342.2,10.1,-5.7,1.43,57.75,591.0608,139.9992],
    [666,1525538831,56.9826,-111.4129,2002.2,1673.2,342.3,10.1,-5.7,2.08,57.44,591.0389,140.0012],
    [667,1525538832,56.9833,-111.4132,2002.4,1673.4,342.3,10.2,-5.7,1.56,58.48,590.9796,139.9995],
    [668,1525538833,56.984,-111.4134,2002.8,1673.8,342.4,10.2,-5.6,1.66,57.65,590.9508,139.9962],
    [669,1525538834,56.9846,-111.4136,2003.2,1674.2,342.5,10.2,-5.6,1.79,57.49,590.8929,139.9989],
    [670,1525538835,56.9852,-111.4139,2003.6,1674.6,342.5,10.2,-5.6,2.08,57.3,590.8737,139.9983],
    [671,1525538836,56.9859,-111.4141,2004.2,1675.2,342.6,10.2,-5.6,2.44,57.4,590.7934,139.9993],
    [672,1525538837,56.9866,-111.4144,2004.7,1675.7,342.6,10.2,-5.6,2.44,57.29,590.73,139.9983],
    [673,1525538838,56.9873,-111.4146,2005.3,1676.3,342.7,10.2,-5.7,1.7,57.96,590.6677,139.9995],
    [674,1525538839,56.9879,-111.4148,2005.9,1676.9,342.8,10.2,-5.6,1.65,57.85,590.6187,140.0015],
    [675,1525538840,56.9885,-111.4151,2006.6,1677.6,342.8,10.2,-5.6,1.13,58.02,590.5864,139.9993],
    [676,1525538841,56.9892,-111.4153,2007.4,1678.7,342.9,10.1,-5.6,1.77,58.42,590.5199,139.9981],
    [677,1525538842,56.9899,-111.4155,2008.2,1679.2,343.0,10.2,-5.6,1.81,57.86,590.5016,139.9973],
    [678,1525538843,56.9905,-111.4158,2009.0,1679.3,343.0,10.2,-5.5,1.72,58.6,590.475,139.9973],
    [679,1525538844,56.9912,-111.416,2009.7,1679.7,343.1,10.2,-5.6,2.47,57.81,590.4715,140.0001],
    [680,1525538845,56.9919,-111.4162,2010.4,1680.4,343.1,10.2,-5.5,1.59,58.07,590.4725,139.9964],
    [681,1525538846,56.9925,-111.4164,2011.0,1681.0,343.2,10.1,-5.5,1.8,57.57,590.4816,139.9957],
    [682,1525538847,56.9932,-111.4167,2011.5,1681.5,343.3,10.2,-5.6,1.61,57.88,590.5128,140.0005],
    [683,1525538848,56.9938,-111.4169,2011.8,1681.7,343.3,10.2,-5.6,1.67,58.02,590.5507,140.0047],
    [684,1525538849,56.9944,-111.4171,2012.0,1683.0,343.4,10.2,-5.6,2.07,57.5,590.5597,140.0026],
    [685,1525538850,56.9951,-111.4173,2012.0,1683.2,343.5,10.2,-5.6,1.53,57.96,590.6426,140.0018],
    [686,1525538851,56.9958,-111.4175,2011.8,1683.8,343.6,10.2,-5.6,2.29,57.51,590.7054,140.0009],
    [687,1525538852,56.9964,-111.4177,2011.5,1683.3,343.6,10.2,-5.6,2.09,57.74,590.7907,140.0007],
    [688,1525538853,56.9971,-111.418,2011.1,1682.8,343.7,10.2,-5.5,1.68,58.63,590.8249,139.9993],
    [689,1525538854,56.9978,-111.4182,2010.5,1681.5,343.8,10.2,-5.6,1.61,58.25,590.9187,140.0051],
    [690,1525538855,56.9984,-111.4184,2009.7,1679.5,343.9,10.3,-5.5,1.66,58.23,591.0268,140.0024],
    [691,1525538856,56.9991,-111.4186,2008.8,1677.4,344.0,10.2,-5.5,1.67,57.88,591.0843,139.9999],
    [692,1525538857,56.9997,-111.4188,2007.9,1676.6,344.1,10.2,-5.6,0.9,58.11,591.1409,140.0024],
    [693,1525538858,57.0004,-111.419,2006.9,1675.7,344.3,10.2,-5.5,1.59,57.9,591.2154,140.0054],
    [694,1525538859,57.0011,-111.4192,2005.9,1675.0,344.4,10.3,-5.5,1.4,58.06,591.2695,140.0029],
    [695,1525538860,57.0017,-111.4194,2004.8,1675.0,344.6,10.2,-5.5,1.0,58.05,591.3499,140.0061],
    [696,1525538861,57.0024,-111.4196,2003.6,1675.7,344.8,10.2,-5.5,2.16,57.84,591.4028,139.9998],
    [697,1525538862,57.0031,-111.4198,2002.5,1681.5,345.0,10.2,-5.4,1.6,58.02,591.4439,140.0016],
    [698,1525538863,57.0038,-111.42,2001.4,1687.2,345.2,10.1,-5.4,1.35,57.86,591.4439,139.9998],
    [699,1525538864,57.0044,-111.4201,2000.5,1690.6,345.5,10.0,-5.4,1.45,57.74,591.4436,140.0012],
    [700,1525538865,57.0051,-111.4203,1999.6,1696.1,345.7,10.0,-5.2,1.28,58.1,591.37,139.9976],
    [701,1525538866,57.0058,-111.4205,1998.9,1704.3,346.0,9.9,-5.3,1.55,58.7,591.3504,139.9982],
    [702,1525538867,57.0065,-111.4207,1998.4,1713.6,346.1,10.1,-5.3,2.02,57.76,591.2934,139.996],
    [703,1525538868,57.0072,-111.4208,1998.2,1719.8,346.4,10.1,-5.4,1.62,58.56,591.3273,139.9969],
    [704,1525538869,57.0078,-111.421,1998.4,1722.4,346.6,10.1,-5.2,1.83,57.84,591.4228,140.002],
    [705,1525538870,57.0085,-111.4211,1998.9,1723.9,346.9,10.0,-5.3,0.9,58.02,591.4723,140.0015],
    [706,1525538871,57.0092,-111.4213,1999.6,1727.3,347.1,10.0,-5.3,1.85,57.44,591.5295,139.9996],
    [707,1525538872,57.0099,-111.4214,2000.1,1732.0,347.3,10.1,-5.3,1.4,58.24,591.5596,140.003],
    [708,1525538873,57.0106,-111.4215,2000.0,1730.4,347.5,10.1,-5.4,1.44,57.73,591.5395,139.9999],
    [709,1525538874,57.0113,-111.4217,1999.2,1726.6,347.6,10.0,-5.2,1.81,57.6,591.5405,139.9959],
    [710,1525538875,57.0119,-111.4218,1998.3,1718.0,347.7,10.0,-5.2,1.84,58.06,591.551,140.0016],
    [711,1525538876,57.0126,-111.4219,1997.4,1702.1,347.8,9.9,-5.2,2.2,57.49,591.5784,139.9991],
    [712,1525538877,57.0133,-111.4221,1996.9,1694.4,347.8,10.0,-5.2,1.48,57.52,591.5979,140.0002],
    [713,1525538878,57.014,-111.4222,1996.7,1681.6,347.9,10.0,-5.3,1.37,57.7,591.6755,140.0052],
    [714,1525538879,57.0147,-111.4223,1996.7,1675.0,347.9,10.0,-5.2,1.53,58.06,591.7263,140.0034],
    [715,1525538880,57.0154,-111.4224,1996.7,1668.7,347.9,10.0,-5.3,2.06,57.53,591.7609,140.0016],
    [716,1525538881,57.0161,-111.4226,1996.5,1667.5,347.9,10.0,-5.3,1.08,57.64,591.8357,140.0031],
    [717,1525538882,57.0167,-111.4227,1996.1,1667.1,348.0,9.9,-5.4,1.48,57.38,591.9239,140.0025],
    [718,1525538883,57.0175,-111.4228,1995.3,1666.3,347.7,9.6,-5.3,1.67,57.04,591.9978,140.0101],
    [719,1525538884,57.0182,-111.423,1994.6,1665.6,346.9,9.7,-5.3,1.11,57.49,592.066,140.0018],
    [720,1525538885,57.0188,-111.4231,1993.7,1664.7,346.0,9.7,-5.3,1.8,56.85,592.1557,139.9985],
    [721,1525538886,57.0195,-111.4233,1992.7,1663.0,344.6,10.0,-5.3,1.47,57.95,592.2419,140.0041],
    [722,1525538887,57.0202,-111.4235,1991.7,1661.8,343.5,9.9,-5.2,1.58,57.71,592.3344,140.0057],
    [723,1525538888,57.0208,-111.4238,1990.6,1661.3,342.4,9.9,-5.0,0.84,57.34,592.3783,140.004],
    [724,1525538889,57.0215,-111.424,1989.4,1659.7,341.3,9.9,-5.2,1.38,57.03,592.3889,139.9991],
    [725,1525538890,57.0222,-111.4243,1988.3,1659.3,340.2,9.9,-5.1,1.61,57.3,592.398,140.007],
    [726,1525538891,57.0228,-111.4247,1987.1,1658.1,339.0,9.8,-5.0,1.54,57.08,592.3908,140.0009],
    [727,1525538892,57.0234,-111.4249,1986.1,1657.4,338.1,9.8,-4.9,2.28,56.71,592.3511,139.9949],
    [728,1525538893,57.0241,-111.4253,1985.2,1657.2,336.8,10.0,-5.0,1.37,56.65,592.3413,139.9976],
    [729,1525538894,57.0248,-111.4258,1984.8,1656.8,335.7,10.1,-4.9,1.1,56.5,592.3374,140.0003],
    [730,1525538895,57.0255,-111.4262,1984.6,1656.6,334.9,10.3,-4.8,2.28,56.06,592.3346,140.0013],
    [731,1525538896,57.0261,-111.4266,1984.7,1656.7,334.6,10.4,-4.8,1.32,56.3,592.3563,139.9977],
    [732,1525538897,57.0268,-111.4271,1985.0,1657.0,334.9,10.1,-5.1,1.93,55.83,592.36,139.9996],
    [733,1525538898,57.0274,-111.4275,1985.3,1657.3,335.1,10.0,-5.1,1.53,56.23,592.3446,139.9999],
    [734,1525538899,57.028,-111.4279,1985.4,1657.4,335.2,10.0,-5.0,1.58,56.32,592.3471,139.9999],
    [735,1525538900,57.0287,-111.4283,1985.4,1657.4,335.4,9.9,-5.1,1.17,56.2,592.3345,140.0008],
    [736,1525538901,57.0293,-111.4287,1985.3,1657.3,335.4,9.9,-5.1,2.36,55.68,592.3198,140.0016],
    [737,1525538902,57.03,-111.4291,1985.3,1657.5,335.1,10.0,-5.0,1.41,55.73,592.2893,139.9991],
    [738,1525538903,57.0306,-111.4295,1985.3,1658.0,335.0,10.1,-5.1,1.62,56.12,592.2309,140.0011],
    [739,1525538904,57.0312,-111.4299,1985.3,1658.4,335.0,10.0,-5.2,1.28,55.79,592.1991,139.9977],
    [740,1525538905,57.0318,-111.4304,1985.5,1658.5,334.9,10.1,-5.2,1.84,55.45,592.1566,139.9987],
    [741,1525538906,57.0325,-111.4308,1985.8,1658.8,334.8,10.1,-5.2,1.24,55.54,592.1075,139.9981],
    [742,1525538907,57.0331,-111.4312,1986.2,1659.2,334.8,10.1,-5.2,1.66,56.19,592.0877,140.0031],
    [743,1525538908,57.0338,-111.4316,1986.7,1659.7,334.8,10.1,-5.2,1.59,55.58,592.0507,140.0001],
    [744,1525538909,57.0344,-111.4321,1987.2,1660.2,334.8,10.1,-5.3,1.73,55.27,592.0056,140.0011],
    [745,1525538910,57.0351,-111.4325,1987.9,1661.7,334.8,10.1,-5.2,1.7,55.9,591.9937,140.0004],
    [746,1525538911,57.0357,-111.4329,1988.4,1662.4,334.9,10.1,-5.3,1.45,55.53,591.9761,139.9993],
    [747,1525538912,57.0363,-111.4334,1989.0,1663.0,334.9,10.1,-5.3,1.36,55.32,591.9614,139.9965],
    [748,1525538913,57.037,-111.4338,1989.5,1662.5,334.9,10.0,-5.3,1.68,55.45,591.9511,140.0024],
    [749,1525538914,57.0376,-111.4342,1989.9,1662.9,335.0,10.0,-5.3,1.57,55.67,591.9612,139.9989],
    [750,1525538915,57.0382,-111.4346,1990.3,1663.3,335.0,10.0,-5.2,1.68,55.69,591.9633,139.9992],
    [751,1525538916,57.0388,-111.435,1990.5,1663.5,335.1,10.0,-5.3,1.28,55.87,591.9786,140.0036],
    [752,1525538917,57.0395,-111.4355,1990.7,1663.7,335.1,10.0,-5.3,1.69,55.84,592.0061,140.0045],
    [753,1525538918,57.0401,-111.4358,1990.8,1663.8,335.2,10.0,-5.2,2.21,55.35,592.0104,139.9964],
    [754,1525538919,57.0408,-111.4363,1990.8,1663.8,335.2,10.0,-5.3,1.44,55.81,592.0378,139.9992],
    [755,1525538920,57.0414,-111.4367,1990.7,1663.7,335.3,9.9,-5.3,2.48,55.29,592.0521,140.0033],
    [756,1525538921,57.0421,-111.4371,1990.6,1663.6,335.3,9.9,-5.3,1.85,55.96,592.0783,140.0011],
    [757,1525538922,57.0427,-111.4375,1990.3,1662.3,335.3,9.9,-5.2,1.79,55.52,592.0916,140.0012],
    [758,1525538923,57.0433,-111.4379,1990.1,1662.1,335.3,9.9,-5.2,2.33,55.25,592.115,140.0027],
    [759,1525538924,57.0439,-111.4383,1989.7,1661.7,335.3,9.9,-5.2,1.21,55.59,592.1295,139.9995],
    [760,1525538925,57.0446,-111.4388,1989.4,1661.4,335.2,9.9,-5.2,1.56,55.39,592.1431,140.003],
    [761,1525538926,57.0452,-111.4392,1989.1,1660.1,335.1,9.9,-5.2,1.56,55.56,592.147,140.0059],
    [762,1525538927,57.0459,-111.4396,1988.9,1659.9,335.0,9.9,-5.2,1.72,55.42,592.1439,139.9996],
    [763,1525538928,57.0465,-111.44,1988.7,1659.7,334.9,9.9,-5.2,2.04,54.46,592.1445,140.0002],
    [764,1525538929,57.0471,-111.4404,1988.5,1659.5,334.8,9.8,-5.2,1.41,54.44,592.1534,140.0005],
    [765,1525538930,57.0478,-111.4409,1988.3,1658.3,334.7,9.8,-5.2,2.11,54.37,592.1477,140.0018],
    [766,1525538931,57.0484,-111.4413,1988.2,1658.2,334.6,9.8,-5.2,1.64,54.41,592.1476,140.0001],
    [767,1525538932,57.049,-111.4417,1988.1,1658.1,334.5,9.8,-5.1,1.66,54.64,592.1423,140.0052],
    [768,1525538933,57.0497,-111.4422,1988.1,1658.1,334.5,9.8,-5.2,2.34,53.76,592.1309,139.998],
    [769,1525538934,57.0503,-111.4426,1988.0,1658.2,334.4,9.8,-5.2,2.07,53.56,592.1518,140.0033],
    [770,1525538935,57.0509,-111.443,1988.0,1658.0,334.4,9.8,-5.2,1.41,54.3,592.1545,140.0038],
    [771,1525538936,57.0515,-111.4434,1988.1,1658.1,334.4,9.7,-5.1,2.05,53.61,592.1508,140.0019],
    [772,1525538937,57.0522,-111.4439,1988.1,1658.1,334.4,9.8,-5.2,1.68,54.42,592.1393,139.9999],
    [773,1525538938,57.0528,-111.4443,1988.1,1658.1,334.4,9.7,-5.1,1.8,53.95,592.1604,140.0004],
    [774,1525538939,57.0534,-111.4447,1988.1,1658.1,334.3,9.7,-5.1,1.63,54.35,592.168,140.0018],
    [775,1525538940,57.0541,-111.4452,1988.1,1658.1,334.4,9.6,-5.1,1.76,54.26,592.1828,139.9974],
    [776,1525538941,57.0547,-111.4456,1988.1,1658.1,334.4,9.6,-5.0,2.39,54.07,592.1774,140.0009],
    [777,1525538942,57.0554,-111.4461,1988.1,1658.1,334.4,9.7,-5.0,1.68,54.76,592.1743,140.0001],
    [778,1525538943,57.0559,-111.4465,1988.0,1658.0,334.5,9.7,-5.0,1.14,54.74,592.1664,140.0014],
    [779,1525538944,57.0566,-111.4469,1987.8,1657.8,334.5,9.7,-5.0,1.76,54.82,592.1504,139.9994],
    [780,1525538945,57.0573,-111.4474,1987.7,1657.6,334.6,9.6,-5.1,1.65,55.41,592.1381,139.9987],
    [781,1525538946,57.0578,-111.4478,1987.6,1657.6,334.7,9.7,-5.1,1.96,55.28,592.1115,140.0015],
    [782,1525538947,57.0585,-111.4482,1987.6,1656.7,334.7,9.7,-5.1,1.69,55.95,592.0911,140.001],
    [783,1525538948,57.0591,-111.4487,1987.7,1656.7,334.8,9.7,-5.2,0.99,55.5,592.0427,139.9989],
    [784,1525538949,57.0598,-111.4491,1987.9,1656.9,334.9,9.6,-5.2,1.31,55.62,592.0217,139.9998],
    [785,1525538950,57.0604,-111.4495,1988.1,1657.1,335.0,9.6,-5.2,1.32,55.76,591.9855,139.9963],
    [786,1525538951,57.061,-111.4499,1988.4,1657.4,335.0,9.7,-5.2,1.56,55.87,591.9503,139.9965],
    [787,1525538952,57.0617,-111.4504,1988.7,1657.7,335.1,9.6,-5.2,1.54,56.15,591.9311,140.0001],
    [788,1525538953,57.0623,-111.4508,1989.1,1658.1,335.1,9.7,-5.2,1.49,55.83,591.9153,140.001],
    [789,1525538954,57.0629,-111.4512,1989.5,1658.5,335.1,9.7,-5.3,1.57,56.05,591.9258,140.0001],
    [790,1525538955,57.0636,-111.4516,1989.9,1658.9,335.1,9.8,-5.3,1.71,56.37,591.9185,140.0036],
    [791,1525538956,57.0642,-111.452,1990.4,1659.4,335.1,9.7,-5.2,1.71,55.81,591.9189,140.0012],
    [792,1525538957,57.0648,-111.4524,1990.7,1659.7,335.1,9.7,-5.2,1.65,56.1,591.9438,140.002],
    [793,1525538958,57.0655,-111.4529,1991.0,1660.0,335.1,9.7,-5.3,2.1,55.87,591.9412,140.0016],
    [794,1525538959,57.0661,-111.4533,1991.0,1660.0,335.0,9.8,-5.3,2.24,55.45,591.946,140.0016],
    [795,1525538960,57.0667,-111.4537,1991.0,1660.0,334.9,9.8,-5.3,1.84,55.75,591.9438,140.0029],
    [796,1525538961,57.0674,-111.4541,1990.9,1659.9,334.9,9.8,-5.3,1.4,56.26,591.9628,140.0027],
    [797,1525538962,57.068,-111.4545,1990.9,1659.9,334.8,9.8,-5.3,1.47,56.23,591.9727,140.002],
    [798,1525538963,57.0686,-111.455,1990.8,1659.8,334.7,9.8,-5.3,1.39,56.19,591.9621,139.9998],
    [799,1525538964,57.0692,-111.4554,1990.7,1659.7,334.6,9.8,-5.3,1.44,56.25,591.9639,139.9958],
    [800,1525538965,57.0698,-111.4558,1990.6,1659.6,334.5,9.8,-5.3,2.0,55.71,591.9786,140.0014],
    [801,1525538966,57.0705,-111.4563,1990.5,1660.5,334.4,9.8,-5.3,2.11,55.8,592.0089,140.0013],
    [802,1525538967,57.0712,-111.4567,1990.4,1660.4,334.3,9.8,-5.3,1.54,56.35,591.9963,139.9978],
    [803,1525538968,57.0718,-111.4571,1990.3,1660.3,334.2,9.8,-5.4,2.35,56.32,592.0045,140.0019],
    [804,1525538969,57.0723,-111.4576,1990.2,1660.9,334.1,9.8,-5.4,1.99,56.6,592.0235,140.003],
    [805,1525538970,57.073,-111.458,1990.0,1661.0,334.0,9.8,-5.4,1.73,56.98,592.0231,140.0032],
    [806,1525538971,57.0737,-111.4585,1989.9,1660.9,333.9,9.8,-5.4,2.07,56.52,592.016,140.0024],
    [807,1525538972,57.0743,-111.4589,1989.8,1661.8,333.8,9.8,-5.4,1.38,56.73,592.0208,140.0001],
    [808,1525538973,57.0749,-111.4594,1989.6,1661.8,333.7,9.7,-5.4,2.07,56.53,592.019,140.002],
    [809,1525538974,57.0755,-111.4598,1989.5,1662.5,333.6,9.8,-5.4,1.09,56.7,591.9903,139.9987],
    [810,1525538975,57.0762,-111.4603,1989.4,1663.4,333.5,9.8,-5.4,1.44,57.16,591.9683,140.0001],
    [811,1525538976,57.0768,-111.4607,1989.4,1663.0,333.6,9.7,-5.4,1.63,56.33,591.9444,139.9975],
    [812,1525538977,57.0774,-111.4612,1989.4,1662.4,333.5,9.8,-5.4,1.43,56.81,591.9267,140.0],
    [813,1525538978,57.078,-111.4616,1989.5,1662.5,333.4,9.8,-5.4,1.48,56.54,591.9,140.0009],
    [814,1525538979,57.0786,-111.4621,1989.7,1661.7,333.4,9.8,-5.5,1.03,56.76,591.8652,139.9991],
    [815,1525538980,57.0793,-111.4625,1989.9,1661.9,333.4,9.8,-5.6,1.99,56.49,591.8549,139.9967],
    [816,1525538981,57.0799,-111.463,1990.3,1662.3,333.4,9.8,-5.5,1.61,56.92,591.8207,139.9995],
    [817,1525538982,57.0805,-111.4635,1990.6,1663.6,333.4,9.8,-5.5,2.08,56.64,591.8005,140.0015],
    [818,1525538983,57.0812,-111.4639,1990.9,1663.9,333.4,9.8,-5.6,1.22,56.65,591.7712,139.9998],
    [819,1525538984,57.0818,-111.4644,1991.3,1664.3,333.4,9.8,-5.6,1.34,56.79,591.7358,139.9974],
    [820,1525538985,57.0824,-111.4648,1991.6,1664.6,333.4,9.8,-5.6,2.03,56.54,591.6987,140.0012],
    [821,1525538986,57.083,-111.4653,1992.0,1666.0,333.4,9.9,-5.6,1.39,57.0,591.7008,140.0012],
    [822,1525538987,57.0836,-111.4658,1992.4,1666.5,333.4,9.9,-5.5,1.58,57.4,591.6772,139.9997],
    [823,1525538988,57.0843,-111.4662,1992.8,1666.8,333.5,9.8,-5.6,1.43,57.52,591.6619,139.9993],
    [824,1525538989,57.0849,-111.4667,1993.1,1667.1,333.5,9.8,-5.6,1.53,57.23,591.6459,140.001],
    [825,1525538990,57.0854,-111.4671,1993.4,1667.4,333.5,9.8,-5.6,1.33,57.11,591.6419,139.999],
    [826,1525538991,57.0861,-111.4676,1993.7,1667.7,333.5,9.8,-5.5,2.04,56.54,591.6352,140.0007],
    [827,1525538992,57.0867,-111.468,1994.0,1668.0,333.5,9.9,-5.4,1.08,57.07,591.6385,140.0022],
    [828,1525538993,57.0874,-111.4685,1994.2,1668.4,333.7,9.8,-5.5,2.3,56.79,591.6378,140.0025],
    [829,1525538994,57.088,-111.4689,1994.3,1669.3,333.7,9.8,-5.5,1.67,57.26,591.6458,139.9965],
    [830,1525538995,57.0886,-111.4694,1994.5,1669.5,333.8,9.8,-5.5,1.19,57.36,591.6689,139.9991],
    [831,1525538996,57.0892,-111.4698,1994.5,1670.1,333.9,9.7,-5.5,1.19,57.24,591.659,140.0031],
    [832,1525538997,57.0899,-111.4703,1994.6,1669.6,333.9,9.8,-5.4,1.69,57.24,591.6907,139.9985],
    [833,1525538998,57.0905,-111.4707,1994.6,1669.6,334.0,9.7,-5.5,1.31,57.22,591.7093,140.0021],
    [834,1525538999,57.0911,-111.4711,1994.5,1669.5,334.1,9.8,-5.4,2.06,56.87,591.7168,140.0009],
    [835,1525539000,57.0917,-111.4716,1994.4,1669.4,334.2,9.7,-5.4,2.0,57.54,591.7421,139.9967],
    [836,1525539001,57.0924,-111.472,1994.2,1669.2,334.3,9.7,-5.3,1.29,57.4,591.7832,140.0015],
    [837,1525539002,57.093,-111.4724,1994.0,1669.0,334.4,9.7,-5.4,2.11,57.18,591.7989,140.0011],
    [838,1525539003,57.0936,-111.4729,1993.7,1669.7,334.5,9.7,-5.4,1.08,57.69,591.8153,140.0],
    [839,1525539004,57.0942,-111.4733,1993.3,1669.3,334.7,9.7,-5.4,1.91,57.15,591.846,140.0019],
    [840,1525539005,57.0949,-111.4738,1993.0,1670.0,334.8,9.7,-5.4,2.32,57.0,591.8555,140.002],
    [841,1525539006,57.0955,-111.4742,1992.6,1669.6,334.9,9.7,-5.4,2.47,57.08,591.8833,140.0011],
    [842,1525539007,57.0961,-111.4746,1992.3,1669.3,335.1,9.7,-5.4,1.39,57.48,591.8959,139.9991],
    [843,1525539008,57.0968,-111.475,1992.0,1669.0,335.2,9.7,-5.4,1.6,57.68,591.9237,139.9995],
    [844,1525539009,57.0974,-111.4754,1991.7,1668.7,335.4,9.7,-5.4,1.1,57.63,591.9432,140.0034],
    [845,1525539010,57.0981,-111.4759,1991.4,1669.1,335.7,9.7,-5.4,1.7,57.9,591.9635,139.9976],
    [846,1525539011,57.0987,-111.4763,1991.1,1669.1,335.9,9.7,-5.4,2.29,57.35,591.9972,140.001],
    [847,1525539012,57.0993,-111.4767,1990.8,1668.8,336.0,9.7,-5.4,1.36,57.62,592.0309,140.0016],
    [848,1525539013,57.0999,-111.477,1990.6,1668.6,336.2,9.7,-5.4,1.76,57.29,592.0627,139.9991],
    [849,1525539014,57.1006,-111.4774,1990.2,1668.2,336.4,9.7,-5.5,2.29,57.11,592.0747,140.0003],
    [850,1525539015,57.1012,-111.4779,1989.8,1667.8,336.6,9.7,-5.4,1.68,58.19,592.0983,140.0011],
    [851,1525539016,57.1019,-111.4782,1989.5,1667.5,336.7,9.7,-5.5,2.07,57.52,592.1318,139.9996],
    [852,1525539017,57.1025,-111.4786,1989.1,1668.1,336.9,9.7,-5.5,1.25,57.36,592.1565,140.0008],
    [853,1525539018,57.1032,-111.479,1988.7,1667.7,336.9,9.7,-5.4,1.58,57.8,592.1771,139.9992],
    [854,1525539019,57.1039,-111.4794,1988.3,1667.3,337.0,9.7,-5.5,1.34,57.41,592.1893,140.0003],
    [855,1525539020,57.1045,-111.4798,1987.9,1667.9,337.1,9.7,-5.5,1.46,57.5,592.1781,139.9979],
    [856,1525539021,57.1051,-111.4802,1987.5,1667.5,337.1,9.7,-5.5,1.32,57.6,592.1841,140.0012],
    [857,1525539022,57.1057,-111.4805,1987.2,1667.5,337.0,9.7,-5.5,1.72,57.49,592.1782,140.0011],
    [858,1525539023,57.1064,-111.4809,1987.0,1668.0,336.8,9.7,-5.5,1.39,57.42,592.1761,140.0014],
    [859,1525539024,57.1071,-111.4813,1986.8,1667.8,336.6,9.8,-5.5,1.74,57.39,592.1624,140.0003],
    [860,1525539025,57.1077,-111.4817,1986.6,1668.6,336.5,9.7,-5.5,1.24,57.53,592.1401,140.0007],
    [861,1525539026,57.1084,-111.4821,1986.6,1668.6,336.3,9.7,-5.5,1.93,57.45,592.116,139.9989],
    [862,1525539027,57.109,-111.4825,1986.7,1669.4,336.1,9.7,-5.5,1.44,57.8,592.1156,140.0016],
    [863,1525539028,57.1096,-111.4829,1986.8,1669.8,336.0,9.7,-5.4,1.68,57.87,592.1087,140.0017],
    [864,1525539029,57.1103,-111.4833,1987.0,1670.0,335.9,9.6,-5.5,1.62,58.25,592.1157,140.0009],
    [865,1525539030,57.1109,-111.4837,1987.3,1670.3,335.8,9.6,-5.5,1.6,57.92,592.1236,140.0012],
    [866,1525539031,57.1116,-111.4842,1987.5,1669.7,335.8,9.6,-5.5,1.69,58.12,592.1595,140.0023],
    [867,1525539032,57.1122,-111.4845,1987.8,1669.8,335.8,9.5,-5.6,1.54,58.35,592.2002,140.0004],
    [868,1525539033,57.1128,-111.4849,1987.9,1669.9,335.9,9.5,-5.5,1.61,57.75,592.2644,140.0061],
    [869,1525539034,57.1135,-111.4854,1988.0,1670.0,335.9,9.6,-5.6,1.69,58.14,592.3364,140.0033],
    [870,1525539035,57.1141,-111.4858,1987.8,1669.8,335.9,9.6,-5.5,1.19,57.64,592.3854,140.004],
    [871,1525539036,57.1147,-111.4861,1987.6,1670.6,336.1,9.6,-5.5,2.26,57.33,592.4768,140.0029],
    [872,1525539037,57.1154,-111.4866,1987.1,1671.1,336.1,9.6,-5.5,1.38,57.8,592.6419,139.9894],
    [873,1525539038,57.116,-111.487,1986.5,1671.2,336.3,9.6,-5.5,1.54,57.91,593.0375,140.0126],
    [874,1525539039,57.1166,-111.4874,1985.6,1670.5,336.4,9.6,-5.4,1.65,58.47,593.128,140.0067],
    [875,1525539040,57.1173,-111.4877,1984.5,1670.5,336.5,9.6,-5.4,2.07,57.85,593.4143,140.0108],
    [876,1525539041,57.1179,-111.4881,1983.0,1669.0,336.7,9.6,-5.4,1.62,58.02,593.5662,140.0098],
    [877,1525539042,57.1185,-111.4885,1980.4,1666.4,336.9,9.6,-5.5,1.69,58.17,593.905,140.013],
    [878,1525539043,57.1192,-111.4889,1977.1,1663.1,337.0,9.6,-5.6,1.59,58.67,594.0796,140.0094],
    [879,1525539044,57.1198,-111.4892,1974.3,1660.0,337.1,9.4,-5.7,1.91,58.07,594.3377,140.0102],
    [880,1525539045,57.1204,-111.4896,1971.4,1656.4,337.0,9.5,-5.6,1.36,58.11,594.691,140.0071],
    [881,1525539046,57.1211,-111.49,1968.0,1653.1,336.7,9.5,-5.6,1.45,58.18,594.9919,140.011],
    [882,1525539047,57.1217,-111.4904,1965.0,1648.9,336.5,9.4,-5.6,1.5,58.06,595.1611,140.0127],
    [883,1525539048,57.1223,-111.4908,1961.7,1645.4,336.2,9.5,-5.6,1.81,57.94,595.5273,140.0087],
    [884,1525539049,57.1229,-111.4911,1958.5,1641.5,336.0,9.5,-5.6,1.44,58.28,595.8124,140.0061],
    [885,1525539050,57.1235,-111.4915,1954.9,1637.9,335.6,9.5,-5.6,1.38,58.35,596.2019,140.01],
    [886,1525539051,57.1242,-111.492,1950.8,1633.1,335.2,9.6,-5.6,1.85,58.08,596.365,140.0096],
    [887,1525539052,57.1248,-111.4924,1946.9,1628.9,334.9,9.6,-5.6,1.65,59.09,596.687,140.0079],
    [888,1525539053,57.1254,-111.4928,1943.1,1626.1,334.9,9.5,-5.7,1.88,58.28,596.9442,140.0042],
    [889,1525539054,57.126,-111.4932,1938.8,1621.8,334.9,9.4,-5.7,1.39,58.46,597.1874,140.0096],
    [890,1525539055,57.1267,-111.4937,1934.6,1617.6,335.0,9.3,-5.8,1.21,58.45,597.3932,140.0123],
    [891,1525539056,57.1272,-111.494,1931.2,1614.2,335.0,9.2,-5.8,1.7,59.13,597.5397,140.0129],
    [892,1525539057,57.1278,-111.4944,1928.2,1611.2,335.0,9.2,-5.7,1.48,58.58,597.9748,140.0106],
    [893,1525539058,57.1284,-111.4949,1925.1,1608.1,334.8,9.3,-5.7,1.79,58.6,598.2473,140.008],
    [894,1525539059,57.1291,-111.4953,1921.6,1604.7,334.9,9.1,-5.8,1.79,58.23,598.5074,140.0097],
    [895,1525539060,57.1297,-111.4958,1918.2,1602.1,334.9,9.2,-5.8,1.81,58.45,598.7934,140.0127],
    [896,1525539061,57.1304,-111.4962,1914.6,1598.6,335.0,9.1,-5.9,1.8,58.72,599.038,140.0089],
    [897,1525539062,57.1309,-111.4966,1911.2,1595.3,335.0,9.1,-5.8,1.66,58.33,599.3201,140.0067],
    [898,1525539063,57.1316,-111.497,1907.4,1592.4,335.0,9.1,-5.9,1.53,58.28,599.5838,140.0127],
    [899,1525539064,57.1322,-111.4975,1903.8,1588.8,335.0,9.1,-5.9,1.8,58.61,599.9298,140.0131],
    [900,1525539065,57.1328,-111.4979,1900.1,1586.2,335.0,9.1,-5.8,1.96,58.1,600.2754,140.0075],
    [901,1525539066,57.1334,-111.4983,1896.3,1583.0,335.1,9.0,-5.8,1.57,58.06,600.5783,140.0125],
    [902,1525539067,57.134,-111.4987,1892.4,1579.3,335.2,8.9,-5.9,1.97,58.03,600.8288,140.0118],
    [903,1525539068,57.1346,-111.4991,1888.6,1575.6,335.1,9.0,-5.9,1.9,58.28,601.1346,140.011],
    [904,1525539069,57.1352,-111.4995,1885.2,1572.2,335.2,8.9,-5.9,2.2,57.43,601.2907,140.0087],
    [905,1525539070,57.1358,-111.5,1881.0,1568.9,335.1,8.9,-5.9,1.98,57.76,601.5076,140.0097],
    [906,1525539071,57.1365,-111.5004,1876.7,1564.6,335.1,9.0,-5.8,2.23,57.57,601.9506,140.0079],
    [907,1525539072,57.1371,-111.5008,1873.0,1560.9,335.0,9.0,-5.8,2.01,57.57,602.1358,140.0114],
    [908,1525539073,57.1377,-111.5012,1869.3,1557.2,335.1,8.9,-5.7,1.55,57.33,602.508,140.01],
    [909,1525539074,57.1383,-111.5017,1865.5,1553.5,335.0,8.9,-5.7,1.86,57.41,602.7024,140.01],
    [910,1525539075,57.139,-111.5021,1861.7,1549.7,334.8,9.0,-5.6,1.51,57.33,602.9671,140.0086],
    [911,1525539076,57.1396,-111.5025,1857.9,1546.0,334.7,9.0,-5.7,1.76,57.57,603.2086,140.0093],
    [912,1525539077,57.1401,-111.5029,1854.6,1542.6,334.6,9.0,-5.7,1.89,57.24,603.4219,140.0097],
    [913,1525539078,57.1408,-111.5034,1850.7,1538.8,334.3,9.0,-5.7,2.23,57.26,603.4329,140.0097],
    [914,1525539079,57.1414,-111.5038,1847.3,1535.3,334.1,9.1,-5.7,1.99,57.12,603.7574,140.0075],
    [915,1525539080,57.142,-111.5043,1844.3,1532.3,334.0,9.0,-5.7,2.01,56.88,603.9706,140.0061],
    [916,1525539081,57.1426,-111.5047,1841.6,1529.6,333.8,9.0,-5.7,1.64,56.84,604.1055,140.0057],
    [917,1525539082,57.1431,-111.5051,1839.2,1527.2,333.7,9.0,-5.6,2.44,56.09,604.4074,140.006],
    [918,1525539083,57.1438,-111.5056,1836.3,1524.3,333.5,9.0,-5.6,1.83,56.54,604.4731,140.0057],
    [919,1525539084,57.1444,-111.5061,1833.5,1521.5,333.2,9.1,-5.5,2.02,56.48,604.8792,140.0133],
    [920,1525539085,57.145,-111.5065,1830.8,1518.8,333.1,9.1,-5.5,2.0,56.38,604.9438,140.0137],
    [921,1525539086,57.1456,-111.507,1828.2,1517.2,332.8,9.2,-5.5,2.36,56.32,605.2208,140.006],
    [922,1525539087,57.1462,-111.5074,1825.8,1514.8,332.7,9.1,-5.6,2.43,56.76,605.4296,140.0089],
    [923,1525539088,57.1468,-111.5079,1822.7,1511.7,332.6,9.0,-5.6,2.21,56.1,605.6509,140.0076],
    [924,1525539089,57.1474,-111.5084,1819.7,1508.7,332.3,9.2,-5.6,2.15,56.49,606.046,140.0124],
    [925,1525539090,57.148,-111.5089,1816.6,1505.6,332.0,9.3,-5.4,2.6,55.73,606.2475,140.0078],
    [926,1525539091,57.1486,-111.5093,1813.7,1502.7,331.9,9.3,-5.3,3.03,55.44,606.4851,140.0101],
    [927,1525539092,57.1492,-111.5098,1810.7,1499.7,331.8,9.4,-5.3,2.81,55.65,606.7393,140.0083],
    [928,1525539093,57.1497,-111.5102,1807.9,1496.9,331.9,9.3,-5.3,2.47,56.21,606.8553,140.0095],
    [929,1525539094,57.1503,-111.5107,1804.8,1494.8,332.0,9.4,-5.1,2.54,56.12,607.2172,140.0117],
    [930,1525539095,57.1509,-111.5112,1801.5,1491.5,332.1,9.4,-5.2,2.42,55.4,607.3766,140.0066],
    [931,1525539096,57.1515,-111.5116,1798.7,1488.7,332.3,9.4,-5.2,2.69,55.14,607.6184,140.0079],
    [932,1525539097,57.1521,-111.5121,1795.3,1485.3,332.4,9.4,-5.2,2.71,55.93,608.0112,140.0077],
    [933,1525539098,57.1527,-111.5126,1791.8,1481.8,332.6,9.4,-5.1,2.88,54.62,608.1708,140.0048],
    [934,1525539099,57.1533,-111.513,1788.5,1478.5,332.7,9.4,-5.0,2.95,54.61,608.347,140.008],
    [935,1525539100,57.1539,-111.5134,1785.7,1475.7,332.8,9.3,-5.0,2.63,55.22,608.6765,140.0063],
    [936,1525539101,57.1545,-111.5139,1782.2,1473.3,332.9,9.3,-5.0,2.68,55.07,608.838,140.0106],
    [937,1525539102,57.1551,-111.5144,1779.0,1470.0,332.9,9.3,-4.9,2.87,54.53,609.1724,140.0073],
    [938,1525539103,57.1557,-111.5148,1775.9,1466.9,332.9,9.3,-4.9,3.2,53.85,609.4787,140.0103],
    [939,1525539104,57.1563,-111.5153,1772.6,1463.6,332.9,9.3,-5.0,3.05,53.53,609.5542,140.0137],
    [940,1525539105,57.1569,-111.5157,1769.3,1459.3,332.8,9.3,-4.9,3.16,53.85,609.9498,140.011],
    [941,1525539106,57.1575,-111.5162,1766.1,1456.1,332.7,9.3,-4.9,2.32,53.97,610.0602,140.0097],
    [942,1525539107,57.158,-111.5166,1762.9,1452.9,332.7,9.3,-4.9,2.99,53.88,610.4054,140.0093],
    [943,1525539108,57.1587,-111.5171,1759.4,1449.4,332.6,9.3,-4.8,3.38,53.4,610.5607,140.0035],
    [944,1525539109,57.1593,-111.5175,1756.0,1447.0,332.6,9.3,-4.8,2.83,54.07,610.7799,140.0069],
    [945,1525539110,57.1599,-111.518,1752.6,1443.6,332.6,9.4,-4.8,2.72,53.73,611.0501,140.0036],
    [946,1525539111,57.1604,-111.5184,1749.5,1440.5,332.8,9.5,-4.9,3.34,53.37,611.1706,140.008],
    [947,1525539112,57.161,-111.5188,1746.8,1437.8,333.2,9.3,-4.8,2.6,53.71,611.4659,140.009],
    [948,1525539113,57.1616,-111.5193,1743.7,1434.7,333.7,9.2,-4.8,2.96,53.76,611.6288,140.0062],
    [949,1525539114,57.1622,-111.5197,1740.9,1431.9,334.3,9.2,-4.9,2.95,53.27,611.9979,140.0064],
    [950,1525539115,57.1628,-111.5201,1738.0,1429.0,334.9,9.2,-4.9,3.38,53.23,612.0482,140.0065],
    [951,1525539116,57.1634,-111.5205,1735.4,1425.4,335.4,9.1,-4.9,3.3,52.21,612.2528,140.0073],
    [952,1525539117,57.1639,-111.5208,1732.8,1422.8,335.7,9.2,-4.8,3.07,53.33,612.6312,140.0062],
    [953,1525539118,57.1645,-111.5212,1729.8,1419.8,335.9,9.3,-4.8,3.36,52.45,612.81,140.006],
    [954,1525539119,57.1652,-111.5217,1726.5,1416.5,336.3,9.3,-4.9,3.5,52.58,612.9973,140.0097],
    [955,1525539120,57.1659,-111.5221,1723.3,1414.3,336.6,9.2,-5.0,3.02,52.78,613.2987,140.0036],
    [956,1525539121,57.1665,-111.5224,1720.3,1411.3,336.6,9.2,-5.0,2.95,52.6,613.5157,140.0097],
    [957,1525539122,57.1671,-111.5228,1717.3,1409.3,336.6,9.2,-4.8,2.79,52.45,613.8565,140.0072],
    [958,1525539123,57.1677,-111.5232,1714.4,1406.4,336.6,9.3,-4.9,2.93,52.29,614.0123,140.0102],
    [959,1525539124,57.1683,-111.5235,1711.4,1404.4,336.6,9.2,-4.8,3.46,52.57,614.2909,140.008],
    [960,1525539125,57.1689,-111.5239,1708.1,1401.1,336.5,9.2,-4.9,3.37,52.06,614.416,140.0065],
    [961,1525539126,57.1695,-111.5243,1704.8,1397.8,336.3,9.1,-4.8,3.73,51.67,614.8074,140.0069],
    [962,1525539127,57.1702,-111.5247,1701.3,1395.3,335.9,9.3,-4.7,3.14,52.0,615.1608,140.0071],
    [963,1525539128,57.1707,-111.525,1698.0,1392.0,335.6,9.3,-4.7,3.0,51.93,615.3788,140.01],
    [964,1525539129,57.1714,-111.5255,1694.5,1388.5,335.3,9.3,-4.7,3.32,51.66,615.5059,140.0108],
    [965,1525539130,57.172,-111.5259,1691.2,1385.1,335.1,9.3,-4.7,3.11,51.83,615.8373,140.009],
    [966,1525539131,57.1726,-111.5262,1687.9,1382.9,334.9,9.3,-4.7,3.19,51.76,616.0182,140.0071],
    [967,1525539132,57.1732,-111.5267,1684.5,1379.5,334.7,9.2,-4.8,3.43,51.64,616.2856,140.0073],
    [968,1525539133,57.1737,-111.527,1681.5,1377.5,334.6,9.2,-4.8,3.78,51.1,616.525,140.0087],
    [969,1525539134,57.1744,-111.5275,1678.2,1375.3,334.6,9.1,-4.8,3.4,51.33,616.7985,140.0067],
    [970,1525539135,57.175,-111.5279,1675.0,1373.1,334.6,9.1,-4.8,3.33,51.1,617.0155,140.0084],
    [971,1525539136,57.1755,-111.5283,1672.2,1370.2,334.6,9.1,-4.8,3.3,51.23,617.2494,140.0036],
    [972,1525539137,57.1762,-111.5287,1668.8,1367.8,334.7,9.1,-4.8,3.53,51.85,617.3897,140.0078],
    [973,1525539138,57.1767,-111.5291,1665.8,1365.6,334.7,9.2,-4.9,4.18,51.05,617.6621,140.0071],
    [974,1525539139,57.1774,-111.5295,1662.5,1363.5,334.7,9.2,-4.7,4.21,50.81,617.866,140.0018],
    [975,1525539140,57.178,-111.5299,1659.5,1361.5,334.9,9.1,-4.8,3.82,50.95,618.1213,140.0085],
    [976,1525539141,57.1785,-111.5303,1656.7,1360.4,335.0,9.1,-4.7,3.78,51.05,618.2815,140.0088],
    [977,1525539142,57.1792,-111.5307,1653.5,1358.8,335.2,9.0,-4.7,3.55,50.91,618.5772,140.0082],
    [978,1525539143,57.1798,-111.5311,1650.8,1358.1,335.3,9.1,-4.7,3.76,50.75,618.7512,140.0011],
    [979,1525539144,57.1804,-111.5315,1647.8,1356.8,335.5,9.0,-4.7,3.85,50.33,619.0514,140.0089],
    [980,1525539145,57.181,-111.5319,1644.8,1354.8,335.3,9.2,-4.7,3.8,51.21,619.3698,140.006],
    [981,1525539146,57.1816,-111.5323,1641.8,1352.8,335.2,9.2,-4.6,3.53,50.47,619.4177,140.0073],
    [982,1525539147,57.1822,-111.5327,1638.9,1349.9,335.1,9.2,-4.6,3.58,50.66,619.815,140.0069],
    [983,1525539148,57.1828,-111.5331,1635.9,1346.9,335.0,9.2,-4.7,4.15,49.83,620.0714,140.0102],
    [984,1525539149,57.1834,-111.5335,1632.5,1343.5,335.0,9.2,-4.6,3.94,49.9,620.2125,140.006],
    [985,1525539150,57.184,-111.5339,1629.3,1340.3,335.0,9.2,-4.6,3.77,50.08,620.4423,140.0097],
    [986,1525539151,57.1846,-111.5343,1626.3,1336.3,335.2,9.1,-4.6,4.05,49.93,620.6715,140.0078],
    [987,1525539152,57.1852,-111.5347,1623.3,1333.3,335.2,9.2,-4.7,3.97,50.31,621.004,140.0075],
    [988,1525539153,57.1858,-111.5351,1619.8,1330.8,335.4,9.1,-4.6,3.67,49.84,621.1569,140.0056],
    [989,1525539154,57.1864,-111.5355,1616.8,1327.8,335.5,9.2,-4.7,4.23,50.08,621.6311,140.006],
    [990,1525539155,57.187,-111.5359,1613.8,1325.8,335.7,9.1,-4.7,4.0,49.43,621.7709,140.0068],
    [991,1525539156,57.1876,-111.5363,1610.2,1323.9,335.9,9.1,-4.7,4.13,49.24,621.9552,140.0076],
    [992,1525539157,57.1882,-111.5367,1606.9,1322.5,336.0,9.1,-4.8,3.86,50.07,622.4376,140.0069],
    [993,1525539158,57.1889,-111.537,1603.5,1321.5,336.1,9.2,-4.8,4.39,49.45,622.62,140.0079],
    [994,1525539159,57.1895,-111.5374,1599.9,1318.9,336.2,9.1,-4.8,4.42,49.28,622.9014,140.0086],
    [995,1525539160,57.1901,-111.5378,1596.2,1315.2,336.3,9.1,-4.7,3.83,49.34,623.1797,140.0068],
    [996,1525539161,57.1907,-111.5382,1592.8,1311.8,336.4,9.2,-4.8,4.22,49.19,623.3777,140.0074],
    [997,1525539162,57.1913,-111.5386,1589.0,1308.0,336.5,9.1,-4.6,4.37,48.85,623.6734,140.0093],
    [998,1525539163,57.1919,-111.5389,1585.4,1304.4,336.4,9.2,-4.7,4.93,48.61,623.9108,140.0059],
    [999,1525539164,57.1925,-111.5393,1582.1,1301.1,336.4,9.3,-4.7,4.15,49.28,624.1699,140.007],
    [1000,1525539165,57.1931,-111.5397,1578.6,1297.6,336.3,9.3,-4.8,4.37,49.02,624.3312,140.0049],
    [1001,1525539166,57.1937,-111.54,1575.3,1294.3,336.3,9.3,-4.7,4.26,48.93,624.5606,140.0043],
    [1002,1525539167,57.1943,-111.5404,1572.1,1291.1,336.2,9.3,-4.7,4.74,48.62,624.843,140.0043],
    [1003,1525539168,57.1949,-111.5408,1568.8,1287.8,336.1,9.3,-4.8,4.77,48.34,625.134,140.0061],
    [1004,1525539169,57.1956,-111.5412,1565.7,1283.4,336.0,9.3,-4.8,4.68,48.26,625.3635,140.0057],
    [1005,1525539170,57.1961,-111.5415,1562.8,1279.8,335.9,9.3,-4.8,4.57,49.07,625.6229,140.0092],
    [1006,1525539171,57.1968,-111.5419,1559.6,1276.6,335.8,9.3,-4.8,4.69,48.35,625.7882,140.0066],
    [1007,1525539172,57.1974,-111.5423,1556.3,1274.3,335.7,9.4,-4.8,4.9,47.9,626.0867,140.0053],
    [1008,1525539173,57.198,-111.5427,1553.1,1272.1,335.8,9.3,-4.9,4.92,47.93,626.2481,140.0066],
    [1009,1525539174,57.1986,-111.5431,1550.0,1270.0,335.7,9.4,-4.9,4.98,48.07,626.5669,140.0041],
    [1010,1525539175,57.1992,-111.5435,1546.9,1266.9,335.6,9.4,-4.9,4.47,47.98,626.6277,140.0075],
    [1011,1525539176,57.1998,-111.5439,1543.8,1264.8,335.4,9.4,-4.8,4.75,48.14,626.8744,140.0119],
    [1012,1525539177,57.2004,-111.5443,1541.0,1262.0,335.3,9.4,-4.8,4.37,47.59,627.0515,140.0045],
    [1013,1525539178,57.201,-111.5447,1538.2,1260.3,335.1,9.4,-4.8,5.13,47.06,627.2685,140.0091],
    [1014,1525539179,57.2016,-111.5451,1535.4,1257.4,334.8,9.4,-4.8,4.89,47.8,627.4092,140.0061],
    [1015,1525539180,57.2022,-111.5455,1533.0,1255.0,334.6,9.5,-4.8,4.37,47.31,627.6729,140.0022],
    [1016,1525539181,57.2028,-111.5459,1530.5,1252.5,334.4,9.4,-4.7,4.48,47.34,627.7575,140.0046],
    [1017,1525539182,57.2034,-111.5463,1528.1,1250.1,334.3,9.5,-4.8,4.91,47.48,628.0194,140.0064],
    [1018,1525539183,57.204,-111.5467,1525.7,1248.5,334.2,9.5,-4.9,5.16,47.27,628.2628,140.0043],
    [1019,1525539184,57.2046,-111.5471,1523.4,1246.4,334.1,9.5,-4.9,4.76,47.12,628.4845,140.0042],
    [1020,1525539185,57.2052,-111.5475,1520.9,1243.9,334.1,9.5,-4.9,5.58,46.52,628.5591,140.0038],
    [1021,1525539186,57.2058,-111.548,1518.5,1241.5,334.1,9.5,-5.0,4.99,46.9,628.8161,140.0046],
    [1022,1525539187,57.2064,-111.5484,1516.1,1239.8,334.1,9.5,-5.0,4.95,46.75,629.0333,140.0064],
    [1023,1525539188,57.207,-111.5488,1513.5,1237.5,334.1,9.6,-5.1,5.7,46.25,629.2918,140.0089],
    [1024,1525539189,57.2076,-111.5492,1511.0,1235.0,334.2,9.6,-5.2,4.9,46.68,629.3782,140.0068],
    [1025,1525539190,57.2082,-111.5496,1508.4,1232.4,334.3,9.6,-5.0,5.05,46.76,629.6697,140.0089],
    [1026,1525539191,57.2088,-111.55,1505.5,1230.5,334.4,9.6,-5.0,5.1,46.64,629.8514,140.0054],
    [1027,1525539192,57.2094,-111.5504,1502.9,1227.2,334.5,9.6,-4.9,4.82,46.24,630.0537,140.0042],
    [1028,1525539193,57.2099,-111.5507,1500.5,1224.4,334.7,9.5,-4.9,4.56,46.37,630.166,140.0094],
    [1029,1525539194,57.2105,-111.5512,1497.5,1220.5,335.0,9.5,-5.0,5.5,45.77,630.3521,140.0035],
    [1030,1525539195,57.2111,-111.5516,1494.8,1216.5,335.0,9.5,-4.9,5.28,46.5,630.4882,140.0047],
    [1031,1525539196,57.2118,-111.552,1492.3,1213.3,335.1,9.6,-4.9,5.29,46.0,630.5996,140.0032],
    [1032,1525539197,57.2123,-111.5524,1490.3,1210.3,335.3,9.5,-4.9,4.76,46.22,630.7436,140.0039],
    [1033,1525539198,57.2129,-111.5527,1488.1,1207.1,335.4,9.6,-4.9,5.93,45.64,630.9578,140.0067],
    [1034,1525539199,57.2136,-111.5532,1486.0,1204.0,335.5,9.7,-4.9,5.21,45.94,631.16,140.0011],
    [1035,1525539200,57.2141,-111.5535,1484.2,1202.2,335.5,9.7,-4.9,5.87,45.43,631.4428,140.0067],
    [1036,1525539201,57.2147,-111.5539,1482.3,1200.3,335.7,9.6,-4.9,5.43,46.42,631.5273,140.004],
    [1037,1525539202,57.2153,-111.5543,1480.2,1197.2,335.7,9.6,-5.0,4.87,45.86,631.8556,140.0016],
    [1038,1525539203,57.2159,-111.5546,1477.7,1194.7,335.5,9.7,-5.0,4.94,45.95,631.9845,140.0069],
    [1039,1525539204,57.2165,-111.555,1475.0,1192.0,335.4,9.7,-5.1,5.32,45.79,632.1935,140.0045],
    [1040,1525539205,57.217,-111.5554,1472.6,1188.6,335.2,9.7,-5.1,4.72,45.93,632.4038,140.0097],
    [1041,1525539206,57.2177,-111.5557,1469.9,1185.9,334.8,9.8,-5.0,5.53,45.57,632.6842,140.0073],
    [1042,1525539207,57.2182,-111.5561,1467.3,1182.3,334.5,9.7,-5.0,5.62,46.3,632.8087,140.0065],
    [1043,1525539208,57.2189,-111.5566,1464.7,1179.7,334.1,9.7,-5.0,5.9,45.55,633.018,140.0055],
    [1044,1525539209,57.2193,-111.5569,1462.6,1176.6,333.8,9.7,-4.9,5.57,46.28,633.1724,140.0086],
    [1045,1525539210,57.22,-111.5573,1459.8,1173.8,333.3,9.7,-5.0,5.39,45.55,633.295,140.0025],
    [1046,1525539211,57.2206,-111.5578,1457.1,1171.1,333.0,9.7,-5.0,5.41,45.45,633.4568,140.0051],
    [1047,1525539212,57.2211,-111.5582,1454.6,1168.6,332.6,9.7,-5.0,5.92,44.94,633.6265,140.0057],
    [1048,1525539213,57.2217,-111.5586,1452.2,1165.2,332.5,9.6,-5.0,5.29,45.25,633.7806,140.0006],
    [1049,1525539214,57.2223,-111.5591,1450.1,1162.1,332.3,9.7,-4.9,6.2,45.09,633.9791,140.0058],
    [1050,1525539215,57.2229,-111.5595,1448.0,1160.0,332.2,9.6,-5.0,5.42,45.52,634.0759,140.004],
    [1051,1525539216,57.2234,-111.5599,1446.1,1157.1,332.1,9.6,-5.0,5.89,44.68,634.442,140.002],
    [1052,1525539217,57.224,-111.5604,1444.1,1155.1,332.1,9.6,-5.1,5.93,44.82,634.6828,140.0013],
    [1053,1525539218,57.2245,-111.5608,1442.4,1153.4,332.0,9.5,-5.0,5.12,45.17,634.9872,140.0059],
    [1054,1525539219,57.2251,-111.5613,1440.5,1151.5,331.8,9.7,-4.8,5.21,44.99,635.2408,140.0074],
    [1055,1525539220,57.2257,-111.5617,1438.3,1149.3,331.7,9.9,-4.8,5.68,45.18,635.4915,140.0079],
    [1056,1525539221,57.2262,-111.5621,1435.2,1146.2,332.2,9.7,-4.9,5.8,45.56,635.7258,140.0064],
    [1057,1525539222,57.2268,-111.5626,1431.7,1142.6,332.9,9.5,-5.1,6.34,44.68,636.2098,140.0057],
    [1058,1525539223,57.2274,-111.563,1428.1,1138.1,333.4,9.5,-5.0,5.62,45.02,636.4092,140.0027],
    [1059,1525539224,57.228,-111.5634,1424.1,1134.1,333.7,9.5,-4.9,5.69,44.91,636.7298,140.0095],
    [1060,1525539225,57.2285,-111.5638,1420.3,1130.3,334.0,9.6,-4.8,5.51,44.65,637.0787,140.0075],
    [1061,1525539226,57.2291,-111.5642,1416.4,1126.4,334.5,9.5,-4.8,5.55,45.12,637.3187,140.0053],
    [1062,1525539227,57.2297,-111.5646,1412.5,1122.5,334.8,9.6,-4.9,6.45,44.65,637.6399,140.0058],
    [1063,1525539228,57.2303,-111.565,1408.3,1117.3,335.3,9.6,-4.9,6.36,44.7,637.9528,140.0064],
    [1064,1525539229,57.2308,-111.5653,1404.6,1113.6,335.6,9.6,-5.0,6.83,44.21,638.1551,140.0081],
    [1065,1525539230,57.2315,-111.5657,1400.1,1108.1,336.0,9.5,-5.0,6.24,44.22,638.4877,140.0048],
    [1066,1525539231,57.232,-111.5661,1396.5,1104.5,336.3,9.5,-5.1,6.4,44.3,638.8118,140.0106],
    [1067,1525539232,57.2327,-111.5665,1392.4,1099.4,336.6,9.4,-4.9,5.63,44.42,639.1045,140.0036],
    [1068,1525539233,57.2332,-111.5668,1389.1,1096.1,336.7,9.4,-4.9,6.07,44.69,639.3581,140.0054],
    [1069,1525539234,57.2339,-111.5672,1385.3,1091.3,336.9,9.3,-4.9,5.49,44.46,639.5922,140.0063],
    [1070,1525539235,57.2345,-111.5675,1381.9,1087.9,337.0,9.3,-4.9,6.0,44.19,639.9109,140.0101],
    [1071,1525539236,57.2351,-111.5679,1378.0,1084.0,337.0,9.4,-4.9,5.62,44.37,640.0869,140.0056],
    [1072,1525539237,57.2357,-111.5682,1374.4,1080.4,337.3,9.3,-4.9,6.35,44.37,640.4346,140.0073],
    [1073,1525539238,57.2363,-111.5685,1370.9,1076.9,337.3,9.5,-4.8,6.84,43.35,640.816,140.0046],
    [1074,1525539239,57.2369,-111.5689,1367.3,1073.3,337.2,9.6,-4.8,6.36,44.01,640.9193,140.0056],
    [1075,1525539240,57.2375,-111.5692,1363.4,1069.4,337.4,9.4,-4.8,6.26,43.62,641.3738,140.0077],
    [1076,1525539241,57.2381,-111.5696,1359.8,1065.8,337.3,9.5,-4.8,6.04,43.49,641.5908,140.0024],
    [1077,1525539242,57.2387,-111.5699,1356.2,1062.2,337.3,9.4,-4.8,6.65,43.75,641.7755,140.0066],
    [1078,1525539243,57.2394,-111.5703,1352.6,1058.6,337.2,9.5,-4.9,6.99,43.09,642.1268,140.0065],
    [1079,1525539244,57.24,-111.5706,1349.2,1054.6,337.2,9.5,-4.8,6.15,43.57,642.473,140.0045],
    [1080,1525539245,57.2405,-111.571,1345.9,1050.9,337.3,9.4,-4.8,6.85,42.68,642.7867,140.004],
    [1081,1525539246,57.2412,-111.5713,1342.4,1047.4,337.5,9.3,-4.9,6.83,43.22,642.9264,140.0054],
    [1082,1525539247,57.2418,-111.5717,1338.9,1042.9,337.5,9.3,-4.8,6.53,43.6,643.2844,140.0109],
    [1083,1525539248,57.2424,-111.572,1335.0,1039.0,337.8,9.2,-4.9,6.48,43.35,643.6144,140.0078],
    [1084,1525539249,57.243,-111.5724,1331.1,1034.1,337.9,9.2,-4.8,6.72,43.5,643.9704,140.0078],
    [1085,1525539250,57.2436,-111.5727,1327.5,1030.5,338.2,9.0,-4.9,6.12,43.29,644.2467,140.0053],
    [1086,1525539251,57.2442,-111.573,1323.6,1026.6,338.4,9.0,-4.9,6.63,42.93,644.59,140.0099],
    [1087,1525539252,57.2448,-111.5733,1319.7,1022.7,338.4,9.0,-4.8,6.7,43.6,644.9317,140.0081],
    [1088,1525539253,57.2455,-111.5737,1315.5,1018.5,338.4,9.0,-4.8,6.37,42.94,645.2557,140.0054],
    [1089,1525539254,57.2459,-111.5739,1312.4,1015.2,338.3,9.1,-4.8,6.83,42.63,645.5906,140.0059],
    [1090,1525539255,57.2466,-111.5743,1307.8,1009.8,338.3,9.0,-4.8,6.63,42.44,645.7427,140.0062],
    [1091,1525539256,57.2473,-111.5747,1303.2,1005.3,338.2,9.1,-4.7,6.73,42.93,646.0363,140.0051],
    [1092,1525539257,57.2479,-111.575,1298.8,1000.8,338.1,9.2,-4.6,6.75,42.85,646.1361,140.0034],
    [1093,1525539258,57.2485,-111.5753,1295.3,997.1,338.0,9.2,-4.6,6.74,42.68,646.4305,140.0103],
    [1094,1525539259,57.2492,-111.5757,1291.8,993.5,337.8,9.3,-4.5,6.89,43.29,646.6689,140.0031],
    [1095,1525539260,57.2498,-111.576,1288.5,989.7,337.6,9.3,-4.3,6.44,42.48,646.8722,140.0092],
    [1096,1525539261,57.2504,-111.5764,1285.6,986.7,337.3,9.3,-4.4,6.72,42.47,647.1464,140.0138],
    [1097,1525539262,57.251,-111.5767,1282.8,983.8,337.3,9.2,-4.5,6.86,42.44,647.2543,140.0047],
    [1098,1525539263,57.2516,-111.5771,1280.1,981.4,336.9,9.4,-4.3,6.69,42.31,647.4991,140.0061],
    [1099,1525539264,57.2521,-111.5774,1277.6,979.6,337.0,9.3,-4.4,6.75,42.28,647.744,140.0038],
    [1100,1525539265,57.2528,-111.5778,1274.8,976.8,336.7,9.4,-4.3,6.84,42.33,647.9169,140.0075],
    [1101,1525539266,57.2534,-111.5781,1272.0,974.0,336.4,9.5,-4.3,7.21,42.56,648.1722,140.0052],
    [1102,1525539267,57.254,-111.5785,1269.4,972.4,336.3,9.5,-4.3,7.44,41.99,648.4007,140.0078],
    [1103,1525539268,57.2546,-111.5788,1267.0,970.0,336.2,9.4,-4.3,6.9,42.11,648.6253,140.0061],
    [1104,1525539269,57.2552,-111.5792,1264.2,967.2,336.1,9.4,-4.3,6.86,42.65,648.8694,140.0017],
    [1105,1525539270,57.2558,-111.5796,1261.7,965.7,335.9,9.5,-4.1,6.88,42.65,649.1524,140.0085],
    [1106,1525539271,57.2564,-111.5799,1259.1,963.0,335.9,9.4,-4.2,7.12,42.2,649.3179,140.0073],
    [1107,1525539272,57.257,-111.5803,1256.2,961.2,335.9,9.5,-4.2,7.81,41.83,649.7006,140.0071],
    [1108,1525539273,57.2575,-111.5807,1253.4,958.4,335.8,9.5,-4.1,6.97,42.18,649.9552,140.0073],
    [1109,1525539274,57.2581,-111.581,1250.0,955.0,336.0,9.4,-4.3,7.11,42.37,650.4178,140.0074],
    [1110,1525539275,57.2588,-111.5814,1246.4,952.4,336.2,9.3,-4.2,7.96,42.06,650.5785,140.0068],
    [1111,1525539276,57.2593,-111.5817,1243.0,949.0,336.3,9.3,-4.1,7.11,42.76,650.9354,140.0069],
    [1112,1525539277,57.2599,-111.5821,1239.3,945.3,336.5,9.3,-4.4,7.29,42.25,651.222,140.0063],
    [1113,1525539278,57.2606,-111.5825,1235.5,941.5,336.3,9.3,-4.2,7.9,41.83,651.5629,140.006],
    [1114,1525539279,57.2611,-111.5828,1232.2,938.2,336.0,9.5,-4.0,8.08,41.94,651.8458,139.9995],
    [1115,1525539280,57.2617,-111.5832,1228.1,934.1,335.8,9.6,-4.1,7.51,42.6,652.3118,140.0062],
    [1116,1525539281,57.2623,-111.5836,1224.2,930.2,336.0,9.4,-4.1,6.96,42.19,652.5895,140.0043],
    [1117,1525539282,57.2629,-111.5839,1220.1,926.1,335.7,9.5,-3.9,7.38,41.98,652.9162,140.0069],
    [1118,1525539283,57.2635,-111.5843,1216.0,922.0,335.7,9.5,-3.9,7.26,41.72,653.2387,140.0058],
    [1119,1525539284,57.2641,-111.5847,1211.6,917.6,335.8,9.5,-3.9,7.74,41.22,653.5189,140.0071],
    [1120,1525539285,57.2647,-111.585,1207.3,913.3,336.0,9.4,-4.0,8.16,41.33,653.9581,140.0082],
    [1121,1525539286,57.2653,-111.5854,1203.1,909.1,336.2,9.2,-4.1,8.0,41.5,654.4732,140.0084],
    [1122,1525539287,57.2659,-111.5857,1199.3,905.3,336.2,9.3,-3.9,7.62,42.12,654.7606,140.0079],
    [1123,1525539288,57.2665,-111.5861,1194.4,900.4,336.2,9.3,-3.9,7.96,41.06,655.1866,140.0067],
    [1124,1525539289,57.2671,-111.5865,1189.7,895.7,336.3,9.3,-3.8,7.56,42.22,655.5454,140.0092],
    [1125,1525539290,57.2677,-111.5868,1185.4,891.4,336.4,9.3,-3.8,8.16,41.81,655.8995,140.0028],
    [1126,1525539291,57.2683,-111.5872,1180.4,886.4,336.5,9.3,-3.7,7.86,41.46,656.0752,140.0038],
    [1127,1525539292,57.2689,-111.5875,1175.7,881.7,336.7,9.3,-3.7,7.54,41.29,656.3852,140.0066],
    [1128,1525539293,57.2695,-111.5879,1171.0,877.0,336.9,9.1,-3.6,8.26,40.82,656.7852,140.0072],
    [1129,1525539294,57.2701,-111.5883,1166.5,872.5,336.7,9.3,-3.5,8.29,41.11,657.2111,140.0059],
    [1130,1525539295,57.2707,-111.5886,1162.6,868.6,336.4,9.4,-3.5,7.87,41.43,657.6167,140.0058],
    [1131,1525539296,57.2713,-111.5889,1158.9,865.2,336.2,9.3,-3.5,7.85,41.04,657.8403,140.0075],
    [1132,1525539297,57.2719,-111.5893,1154.5,860.5,335.7,9.4,-3.4,8.4,40.4,658.2611,140.0032],
    [1133,1525539298,57.2726,-111.5897,1150.1,856.1,335.2,9.5,-3.4,8.76,40.71,658.7516,140.0072],
    [1134,1525539299,57.2732,-111.5901,1145.7,851.7,334.8,9.5,-3.5,8.13,40.73,659.064,140.0071],
    [1135,1525539300,57.2738,-111.5905,1141.0,847.0,334.5,9.4,-3.5,7.39,41.19,659.4048,140.0064],
    [1136,1525539301,57.2743,-111.5909,1136.1,842.1,334.3,9.5,-3.5,8.48,40.66,659.9011,140.0038],
    [1137,1525539302,57.2749,-111.5913,1131.0,837.0,334.1,9.4,-3.5,7.97,40.78,660.4433,140.0051],
    [1138,1525539303,57.2756,-111.5917,1125.7,831.7,334.0,9.4,-3.4,8.32,40.8,660.6816,140.0072],
    [1139,1525539304,57.2762,-111.5921,1120.8,826.8,333.8,9.5,-3.3,8.71,40.93,661.0653,140.008],
    [1140,1525539305,57.2768,-111.5926,1115.8,821.8,333.9,9.4,-3.4,8.46,40.62,661.4738,140.0032],
    [1141,1525539306,57.2774,-111.593,1111.1,817.1,334.0,9.3,-3.5,8.19,40.74,661.7075,140.0051],
    [1142,1525539307,57.278,-111.5934,1106.4,811.7,333.9,9.4,-3.3,7.89,41.07,662.3514,140.0073],
    [1143,1525539308,57.2785,-111.5938,1101.4,806.4,333.7,9.5,-3.4,8.61,40.69,662.6678,140.0052],
    [1144,1525539309,57.2792,-111.5942,1096.3,800.3,333.6,9.4,-3.3,8.25,40.87,663.0197,140.0018],
    [1145,1525539310,57.2798,-111.5947,1091.2,795.2,333.4,9.5,-3.2,8.08,41.2,663.3885,140.007],
    [1146,1525539311,57.2804,-111.5951,1086.3,790.3,333.4,9.3,-3.2,8.95,40.63,663.7101,140.0036],
    [1147,1525539312,57.281,-111.5955,1081.8,784.8,333.3,9.4,-3.0,8.54,41.52,664.1813,140.0061],
    [1148,1525539313,57.2816,-111.5959,1076.9,779.9,333.3,9.4,-3.0,8.49,40.94,664.5027,140.005],
    [1149,1525539314,57.2822,-111.5964,1072.4,775.4,333.5,9.2,-3.0,8.95,40.3,664.8376,140.0071],
    [1150,1525539315,57.2828,-111.5968,1068.0,771.0,333.7,9.2,-2.9,8.26,40.97,665.1803,140.0066],
    [1151,1525539316,57.2834,-111.5972,1063.1,765.3,334.2,8.8,-2.9,8.84,40.3,665.7037,140.0072],
    [1152,1525539317,57.284,-111.5976,1058.9,760.9,334.3,8.8,-2.8,7.95,40.71,665.9899,140.0042],
    [1153,1525539318,57.2846,-111.5981,1053.9,755.9,334.5,8.6,-2.8,8.67,40.46,666.275,140.0055],
    [1154,1525539319,57.2852,-111.5985,1049.4,751.4,334.7,8.6,-2.8,8.69,40.88,666.8238,140.0058],
    [1155,1525539320,57.2858,-111.5989,1044.9,746.9,335.0,8.4,-2.8,8.76,40.88,667.3531,140.0037],
    [1156,1525539321,57.2865,-111.5993,1040.1,742.1,335.2,8.3,-2.7,8.66,40.33,667.5096,140.0074],
    [1157,1525539322,57.2871,-111.5997,1035.4,737.4,335.5,8.1,-2.7,8.84,40.44,668.0811,140.007],
    [1158,1525539323,57.2876,-111.6001,1031.2,733.2,335.6,8.1,-2.8,8.8,40.14,668.4155,140.004],
    [1159,1525539324,57.2883,-111.6005,1025.8,727.8,335.9,8.0,-2.8,8.57,40.51,668.927,140.0038],
    [1160,1525539325,57.2889,-111.6009,1020.9,722.0,336.0,8.0,-2.9,8.74,40.45,669.4649,140.0069],
    [1161,1525539326,57.2895,-111.6013,1016.0,717.0,336.2,7.8,-2.7,8.65,40.58,669.709,140.007],
    [1162,1525539327,57.2902,-111.6017,1010.8,711.8,336.4,7.7,-2.7,8.8,40.5,670.0928,140.0075],
    [1163,1525539328,57.2908,-111.6021,1005.8,706.8,336.7,7.5,-2.5,9.52,40.19,670.5011,140.0059],
    [1164,1525539329,57.2914,-111.6025,1000.5,702.5,336.8,7.6,-2.6,8.75,40.26,670.9405,140.0074],
    [1165,1525539330,57.292,-111.6029,995.5,697.5,336.8,7.5,-2.3,9.18,39.91,671.4489,140.0024],
    [1166,1525539331,57.2927,-111.6033,990.2,693.2,337.1,7.3,-2.3,8.88,40.8,671.7014,140.0064],
    [1167,1525539332,57.2933,-111.6036,985.1,688.1,337.1,7.2,-2.0,9.09,40.68,672.1722,140.0047],
    [1168,1525539333,57.2939,-111.604,980.1,683.4,337.3,7.1,-1.9,9.05,40.33,672.4508,140.009],
    [1169,1525539334,57.2945,-111.6044,975.3,679.3,337.5,7.0,-1.9,9.09,40.96,672.9293,140.004],
    [1170,1525539335,57.2952,-111.6048,969.6,673.6,337.6,7.0,-1.8,9.04,40.23,673.1445,140.006],
    [1171,1525539336,57.2958,-111.6052,964.4,668.4,337.7,6.8,-1.6,9.86,40.02,673.4086,140.0075],
    [1172,1525539337,57.2965,-111.6056,959.6,664.6,337.6,6.9,-1.5,9.22,40.29,673.7009,140.0056],
    [1173,1525539338,57.2972,-111.606,954.9,659.9,337.5,6.8,-1.3,9.43,40.06,674.1925,140.0064],
    [1174,1525539339,57.2978,-111.6063,950.7,655.7,337.4,6.9,-1.2,8.99,40.28,674.3901,140.008],
    [1175,1525539340,57.2984,-111.6067,946.7,651.9,337.4,6.7,-1.1,9.01,40.13,674.7626,140.008],
    [1176,1525539341,57.2991,-111.6071,942.8,648.8,337.1,6.8,-0.9,9.97,40.0,675.0384,140.0055],
    [1177,1525539342,57.2997,-111.6075,939.2,645.2,337.0,6.7,-1.0,9.24,40.4,675.5634,140.0044],
    [1178,1525539343,57.3003,-111.6079,935.7,641.7,336.7,6.7,-0.6,8.94,40.04,676.0108,140.0088],
    [1179,1525539344,57.301,-111.6083,932.1,638.1,336.6,6.5,-0.5,9.2,40.03,676.4657,140.0013],
    [1180,1525539345,57.3016,-111.6087,928.3,634.3,336.4,6.5,-0.3,9.47,40.13,676.7852,140.006],
    [1181,1525539346,57.3022,-111.6091,924.1,630.1,336.4,6.3,-0.2,9.1,40.21,677.3676,140.0055],
    [1182,1525539347,57.3028,-111.6095,919.7,625.7,336.5,6.0,-0.2,9.44,40.02,677.6904,140.0056],
    [1183,1525539348,57.3035,-111.6099,914.4,620.4,336.4,6.0,-0.1,8.68,40.19,678.121,140.0044],
    [1184,1525539349,57.3041,-111.6103,909.1,615.1,336.5,5.8,0.0,9.28,40.44,678.5299,140.0028],
    [1185,1525539350,57.3048,-111.6108,903.5,609.5,336.6,5.6,-0.1,9.56,39.87,678.9967,140.005],
    [1186,1525539351,57.3054,-111.6112,898.1,604.1,336.5,5.6,0.0,9.57,40.18,679.1786,140.0051],
    [1187,1525539352,57.306,-111.6116,892.5,598.5,336.3,5.6,0.1,9.1,40.95,679.5147,140.0048],
    [1188,1525539353,57.3067,-111.612,887.5,594.6,336.1,5.6,0.2,9.17,40.75,679.8115,140.0067],
    [1189,1525539354,57.3073,-111.6125,882.6,589.6,335.9,5.5,0.3,9.9,40.35,680.1131,140.0041],
    [1190,1525539355,57.308,-111.6129,878.2,585.2,335.8,5.4,0.4,9.24,40.72,680.4216,140.0028],
    [1191,1525539356,57.3086,-111.6133,874.1,581.1,335.6,5.3,0.6,8.81,40.79,680.5691,140.0039],
    [1192,1525539357,57.3092,-111.6138,870.4,577.4,335.4,5.2,0.7,9.0,41.08,680.7833,140.0045],
    [1193,1525539358,57.3099,-111.6142,866.8,573.8,335.2,5.2,0.9,9.29,40.92,681.0693,140.0046],
    [1194,1525539359,57.3105,-111.6147,863.5,570.5,335.0,5.1,0.9,9.75,40.78,681.1943,140.0053],
    [1195,1525539360,57.3111,-111.6151,860.3,567.3,334.9,5.0,0.8,9.29,40.88,681.6075,139.9989],
    [1196,1525539361,57.3118,-111.6156,857.2,564.2,334.8,4.8,0.9,9.7,40.76,681.7992,140.0038],
    [1197,1525539362,57.3124,-111.6161,854.2,561.2,334.5,5.0,1.0,9.51,40.84,682.1618,140.0068],
    [1198,1525539363,57.313,-111.6165,851.2,558.2,334.4,4.7,1.2,9.51,40.73,682.5347,140.0063],
    [1199,1525539364,57.3137,-111.617,848.2,555.2,334.2,4.6,1.3,9.02,40.84,682.65,140.0081],
    [1200,1525539365,57.3143,-111.6175,845.1,553.1,334.1,4.6,1.3,9.27,40.87,683.2448,140.0075],
    [1201,1525539366,57.3149,-111.618,841.7,549.7,334.0,4.5,1.4,9.63,41.16,683.3926,140.0032],
    [1202,1525539367,57.3155,-111.6184,838.4,546.4,333.9,4.4,1.5,9.55,40.96,683.6213,140.0048],
    [1203,1525539368,57.3162,-111.6189,834.3,542.3,333.7,4.3,1.6,9.81,40.82,683.9163,140.0058],
    [1204,1525539369,57.3168,-111.6194,830.4,538.4,333.5,4.2,1.7,10.03,40.95,684.1671,140.0033],
    [1205,1525539370,57.3174,-111.6199,826.6,534.6,333.3,4.2,1.8,9.79,40.91,684.6265,140.0036],
    [1206,1525539371,57.3181,-111.6204,823.4,531.4,333.1,4.3,1.9,9.28,41.24,684.9021,140.004],
    [1207,1525539372,57.3186,-111.6209,820.5,528.5,333.3,4.2,1.9,9.87,41.23,685.4655,140.001],
    [1208,1525539373,57.3193,-111.6214,817.0,525.0,333.5,4.2,1.9,9.55,42.19,685.7913,140.0034],
    [1209,1525539374,57.3199,-111.6219,813.1,521.1,333.9,4.1,2.0,9.35,41.84,686.352,140.0047],
    [1210,1525539375,57.3206,-111.6224,809.1,517.1,334.4,3.9,2.2,9.85,42.12,686.6905,140.004],
    [1211,1525539376,57.3212,-111.6229,804.7,512.7,335.1,3.8,2.3,9.99,42.33,687.0495,140.0043],
    [1212,1525539377,57.3218,-111.6233,800.3,508.3,335.7,3.7,2.3,9.07,42.23,687.537,140.0036],
    [1213,1525539378,57.3225,-111.6237,795.1,503.1,336.3,3.6,2.5,9.19,42.45,688.1882,140.0017],
    [1214,1525539379,57.3231,-111.6242,790.1,498.1,336.8,3.6,2.7,9.68,42.71,688.3813,140.0044],
    [1215,1525539380,57.3238,-111.6246,784.2,492.2,337.2,3.6,2.8,9.74,43.27,688.8268,140.0002],
    [1216,1525539381,57.3243,-111.625,779.7,488.7,337.7,3.5,2.8,9.94,43.17,689.1662,140.0031],
    [1217,1525539382,57.3251,-111.6254,773.7,482.7,338.0,3.4,2.9,9.99,43.19,689.6145,140.0056],
    [1218,1525539383,57.3258,-111.6259,768.0,477.0,338.3,3.4,3.0,10.0,43.52,690.0481,140.0038],
    [1219,1525539384,57.3264,-111.6263,763.1,472.1,338.5,3.5,3.1,10.32,43.45,690.3822,140.0071],
    [1220,1525539385,57.327,-111.6267,758.9,467.9,338.6,3.4,3.1,9.71,44.32,690.7417,140.0042],
    [1221,1525539386,57.3277,-111.6271,754.2,463.2,338.7,3.3,3.2,9.53,44.49,691.2601,140.0016],
    [1222,1525539387,57.3284,-111.6275,749.5,459.2,338.6,3.3,3.4,9.91,44.58,691.588,140.0063],
    [1223,1525539388,57.3291,-111.6279,745.1,455.1,338.6,3.3,3.5,9.82,44.77,691.9416,140.0005],
    [1224,1525539389,57.3298,-111.6283,739.9,449.9,338.5,3.2,3.7,9.33,44.95,692.3851,140.0067],
    [1225,1525539390,57.3304,-111.6287,735.4,445.4,338.5,3.2,3.8,9.84,45.44,692.774,140.0036],
    [1226,1525539391,57.3312,-111.6292,730.4,440.4,338.6,3.1,3.9,9.76,45.41,692.9906,140.0056],
    [1227,1525539392,57.3318,-111.6296,725.8,435.8,338.6,3.1,3.9,9.36,45.82,693.5049,140.0068],
    [1228,1525539393,57.3325,-111.63,721.3,431.3,338.8,2.9,3.9,9.57,46.02,693.6807,140.0021],
    [1229,1525539394,57.3332,-111.6304,716.9,426.9,338.9,2.9,3.9,9.6,46.34,694.1164,140.0058],
    [1230,1525539395,57.3338,-111.6308,712.8,422.8,339.0,2.9,4.0,9.34,46.95,694.5012,140.0043],
    [1231,1525539396,57.3345,-111.6312,708.2,419.2,338.8,2.9,4.1,9.83,46.67,694.9298,140.004],
    [1232,1525539397,57.3352,-111.6317,703.8,414.8,338.9,2.7,4.0,10.01,46.6,695.1259,140.006],
    [1233,1525539398,57.3359,-111.6321,699.7,410.7,338.6,2.8,4.1,9.33,47.22,695.4372,140.0039],
    [1234,1525539399,57.3366,-111.6325,695.1,406.1,338.5,2.7,4.1,9.62,47.31,695.7974,140.0044],
    [1235,1525539400,57.3373,-111.6329,690.7,401.7,338.3,2.3,3.9,9.11,47.72,695.9525,140.0044],
    [1236,1525539401,57.338,-111.6334,686.3,398.0,337.5,2.3,3.9,9.77,47.68,696.3808,140.0018],
    [1237,1525539402,57.3386,-111.6339,682.4,394.4,336.1,2.5,3.9,9.64,48.51,696.7284,140.0054],
    [1238,1525539403,57.3393,-111.6344,678.8,390.8,334.5,2.3,3.9,9.96,48.11,697.012,140.0065],
    [1239,1525539404,57.34,-111.6349,675.1,387.1,332.5,2.3,3.9,10.05,47.77,697.2625,140.0064],
    [1240,1525539405,57.3406,-111.6354,671.7,383.7,330.3,2.5,4.1,9.87,48.04,697.5357,140.0032],
    [1241,1525539406,57.3412,-111.6361,668.2,381.2,328.2,2.5,4.1,9.91,47.56,697.9223,140.0052],
    [1242,1525539407,57.3419,-111.6367,664.7,377.7,326.2,2.3,3.9,9.5,48.29,698.1551,140.006],
    [1243,1525539408,57.3425,-111.6374,661.4,374.4,324.2,2.2,3.9,9.57,48.69,698.5193,140.0007],
    [1244,1525539409,57.343,-111.6381,658.3,371.3,322.1,2.2,3.8,9.69,48.27,698.788,140.004],
    [1245,1525539410,57.3436,-111.6389,654.7,367.7,319.9,2.0,3.9,9.53,48.65,699.1734,140.0029],
    [1246,1525539411,57.3442,-111.6397,651.1,364.1,317.9,2.1,3.8,9.81,48.77,699.4412,140.0055],
    [1247,1525539412,57.3447,-111.6405,647.8,360.8,316.0,2.1,3.8,9.86,48.58,699.7133,140.006],
    [1248,1525539413,57.3452,-111.6414,643.8,356.8,313.9,2.0,3.7,9.84,48.29,699.8776,140.0039],
    [1249,1525539414,57.3457,-111.6424,640.0,353.0,311.9,1.9,3.7,9.75,48.53,700.2089,140.0072],
    [1250,1525539415,57.3462,-111.6433,636.5,348.5,310.2,1.8,3.5,9.82,48.8,700.5015,140.0058],
    [1251,1525539416,57.3467,-111.6442,633.0,345.0,308.3,1.7,3.5,9.86,48.67,700.612,140.0042],
    [1252,1525539417,57.3471,-111.6452,629.6,341.6,306.4,1.7,3.3,9.72,48.83,701.1104,140.0075],
    [1253,1525539418,57.3476,-111.6463,626.3,339.4,304.4,1.4,3.1,9.84,48.8,701.2413,140.0012],
    [1254,1525539419,57.348,-111.6473,623.2,336.2,301.4,1.6,3.2,9.89,48.2,701.5687,140.0038],
    [1255,1525539420,57.3483,-111.6484,620.2,333.2,298.5,1.4,3.4,9.91,47.73,701.9416,140.0039],
    [1256,1525539421,57.3487,-111.6494,617.2,331.2,295.7,1.3,3.7,9.93,46.81,702.1826,140.006],
    [1257,1525539422,57.349,-111.6505,614.3,328.3,293.0,1.3,3.8,10.17,46.24,702.6408,140.0049],
    [1258,1525539423,57.3493,-111.6518,610.9,325.9,290.4,1.3,3.4,10.37,45.85,702.8975,139.9993],
    [1259,1525539424,57.3495,-111.6529,607.6,322.6,288.4,1.4,3.2,10.15,45.48,703.2368,140.0049],
    [1260,1525539425,57.3498,-111.6541,603.6,319.6,285.7,1.4,3.3,9.91,45.91,703.4657,140.0098],
    [1261,1525539426,57.35,-111.6553,599.9,318.0,284.0,0.9,2.8,10.71,44.98,703.7878,140.0046],
    [1262,1525539427,57.3501,-111.6565,596.3,317.1,281.7,0.4,3.4,10.54,45.1,704.283,140.0053],
    [1263,1525539428,57.3503,-111.6577,592.6,318.2,280.0,0.7,2.8,9.91,45.4,704.5226,140.0022],
    [1264,1525539429,57.3504,-111.6589,588.8,322.1,278.1,0.6,2.8,10.29,45.96,704.9098,140.0025],
    [1265,1525539430,57.3505,-111.6602,584.7,327.6,275.8,0.3,3.4,10.56,45.5,705.5271,140.0083],
    [1266,1525539431,57.3506,-111.6614,580.7,340.2,274.1,0.5,3.4,10.09,46.2,705.7096,139.9955],
    [1267,1525539432,57.3507,-111.6626,576.5,340.3,272.8,0.2,3.2,9.92,46.7,706.2894,140.007],
    [1268,1525539433,57.3507,-111.6639,572.9,337.2,271.7,-0.1,2.8,9.81,46.96,706.6392,140.0005],
    [1269,1525539434,57.3508,-111.6652,568.7,333.7,270.3,0.0,3.0,9.64,47.15,707.1158,140.004],
    [1270,1525539435,57.3508,-111.6664,563.8,328.8,269.1,-0.1,3.3,10.07,47.54,707.4658,140.0045],
    [1271,1525539436,57.3508,-111.6675,558.9,323.9,268.3,-0.3,3.1,9.8,48.12,707.6593,139.9992],
    [1272,1525539437,57.3508,-111.6689,553.1,318.1,266.7,-0.1,3.7,9.9,48.11,708.0228,140.0059],
    [1273,1525539438,57.3508,-111.6701,548.1,313.1,266.0,0.0,3.3,9.66,47.65,708.4824,140.0002],
    [1274,1525539439,57.3508,-111.6714,543.5,308.5,265.8,0.0,2.6,9.89,47.22,708.8157,140.0003],
    [1275,1525539440,57.3507,-111.6727,539.1,304.1,264.4,0.0,3.4,10.17,47.44,709.1188,140.0015],
    [1276,1525539441,57.3507,-111.6739,534.9,290.9,264.0,0.0,3.5,10.55,47.09,709.3019,140.0035],
    [1277,1525539442,57.3507,-111.6751,531.1,278.4,263.8,0.2,3.6,9.98,47.26,709.6899,140.0031],
    [1278,1525539443,57.3506,-111.6764,526.7,268.6,263.9,0.3,3.5,9.91,47.38,709.9127,140.0052],
    [1279,1525539444,57.3506,-111.6777,522.8,262.9,264.3,0.2,3.4,9.57,46.1,710.2774,140.0007],
    [1280,1525539445,57.3505,-111.679,519.3,258.3,264.6,0.2,3.5,10.21,45.35,710.5064,139.9999],
    [1281,1525539446,57.3505,-111.6802,515.8,254.8,265.3,0.1,3.3,10.68,43.38,710.8059,140.0023],
    [1282,1525539447,57.3505,-111.6815,512.4,250.4,266.3,0.0,3.2,9.79,43.06,711.0723,140.0054],
    [1283,1525539448,57.3505,-111.6828,508.9,245.9,267.3,0.0,3.2,10.13,42.22,711.4598,140.0027],
    [1284,1525539449,57.3505,-111.6841,505.6,241.6,268.5,0.0,2.8,10.55,40.82,711.6558,140.0055],
    [1285,1525539450,57.3505,-111.6854,502.1,237.1,269.4,0.2,2.7,10.24,40.59,711.949,140.0036],
    [1286,1525539451,57.3505,-111.6866,498.9,233.9,270.1,0.4,2.5,10.03,39.68,712.3627,140.0034],
    [1287,1525539452,57.3505,-111.6877,496.2,230.2,270.2,-0.1,2.7,10.1,39.32,712.6659,140.0056],
    [1288,1525539453,57.3506,-111.689,492.6,226.3,270.2,-0.1,2.5,10.31,39.31,713.0118,140.0047],
    [1289,1525539454,57.3506,-111.6904,488.6,221.6,269.7,-0.1,2.8,11.01,38.58,713.4861,140.0005],
    [1290,1525539455,57.3506,-111.6917,484.6,217.6,269.0,0.1,2.7,11.16,38.45,713.8031,140.0075],
    [1291,1525539456,57.3506,-111.6929,480.6,213.6,268.4,0.1,2.5,10.84,38.25,713.9812,139.9972],
    [1292,1525539457,57.3506,-111.6942,476.4,208.4,266.9,0.2,2.9,11.1,38.1,714.3348,140.0024],
    [1293,1525539458,57.3506,-111.6955,472.5,204.5,265.7,-0.2,3.2,10.63,38.16,714.7942,140.0021],
    [1294,1525539459,57.3506,-111.6968,468.3,200.3,264.8,0.1,3.2,10.64,39.31,715.118,140.0034],
    [1295,1525539460,57.3505,-111.698,464.4,196.4,265.3,-0.9,1.8,10.81,39.59,715.5397,140.0078],
    [1296,1525539461,57.3505,-111.6993,460.8,192.8,265.1,-0.8,1.7,10.52,40.17,715.7956,140.0018],
    [1297,1525539462,57.3504,-111.7005,456.7,187.7,263.7,-0.3,3.5,11.08,40.74,716.2945,140.0029],
    [1298,1525539463,57.3504,-111.7019,452.9,183.2,264.2,-0.5,3.5,10.6,41.46,716.3966,140.0036],
    [1299,1525539464,57.3504,-111.7031,449.6,178.6,265.3,-0.4,3.1,10.92,41.57,716.5226,140.0057],
    [1300,1525539465,57.3503,-111.7043,445.2,172.3,266.7,-0.7,2.7,10.59,42.68,716.5749,140.0051],
    [1301,1525539466,57.3503,-111.7056,440.8,163.5,268.4,-1.1,1.9,10.72,42.12,716.6409,140.0075],
    [1302,1525539467,57.3503,-111.7069,437.1,155.1,270.8,-1.3,0.5,10.78,42.52,716.5972,140.0031],
    [1303,1525539468,57.3504,-111.7082,433.9,149.9,271.0,-1.3,1.5,10.91,42.62,716.4806,140.003],
    [1304,1525539469,57.3504,-111.7094,432.4,147.4,270.8,-0.7,2.4,10.65,42.75,716.525,140.0053],
    [1305,1525539470,57.3504,-111.7107,431.6,146.6,272.4,-1.6,1.3,10.3,42.72,716.4428,140.0024],
    [1306,1525539471,57.3505,-111.712,430.8,145.8,272.4,-2.7,1.8,11.36,42.51,716.4574,140.0087],
    [1307,1525539472,57.3505,-111.7133,431.1,146.1,272.2,-1.4,2.1,10.8,43.11,716.4326,140.0022],
    [1308,1525539473,57.3506,-111.7143,432.0,148.0,272.6,-0.8,1.5,11.45,42.27,716.3883,140.0089],
    [1309,1525539474,57.3506,-111.7157,432.4,148.4,272.3,-1.0,1.7,10.81,43.26,716.4635,140.0032],
    [1310,1525539475,57.3506,-111.717,432.6,149.6,271.7,-0.3,1.5,11.25,43.29,716.4907,140.0086],
    [1311,1525539476,57.3507,-111.7182,432.9,150.9,271.8,-0.7,0.6,10.92,43.76,716.3503,139.9997],
    [1312,1525539477,57.3507,-111.7195,433.2,151.2,269.9,-0.6,1.7,11.14,44.08,716.2115,139.9987],
    [1313,1525539478,57.3507,-111.7207,433.9,151.9,268.3,-1.1,1.9,11.43,43.67,716.0289,140.0039],
    [1314,1525539479,57.3507,-111.722,433.7,152.4,267.7,-1.4,1.3,10.73,44.0,716.0299,140.0026],
    [1315,1525539480,57.3507,-111.7232,433.5,152.5,265.6,-1.6,2.4,11.13,44.03,715.9216,140.0028],
    [1316,1525539481,57.3506,-111.7245,434.1,153.1,265.1,-0.6,2.2,11.38,44.07,715.9959,139.9919],
    [1317,1525539482,57.3506,-111.7257,435.4,155.4,264.8,-0.9,2.2,11.22,45.31,715.9609,140.0055],
    [1318,1525539483,57.3506,-111.727,437.4,159.4,264.3,-0.9,2.7,11.25,44.69,715.9678,140.0016],
    [1319,1525539484,57.3505,-111.7281,438.3,162.4,264.5,-1.2,2.9,10.6,45.27,715.9106,140.0057],
    [1320,1525539485,57.3505,-111.7294,439.2,165.9,265.2,-0.6,2.5,11.37,45.39,715.9606,139.9987],
    [1321,1525539486,57.3505,-111.7306,438.9,167.9,266.9,0.6,1.5,11.81,45.69,716.021,139.9994],
    [1322,1525539487,57.3504,-111.7318,439.1,166.4,266.8,0.6,2.4,11.13,45.9,716.1733,140.0124],
    [1323,1525539488,57.3504,-111.7331,439.1,164.0,268.0,-0.5,2.4,10.68,45.96,716.324,139.9994],
    [1324,1525539489,57.3504,-111.7343,439.3,163.4,269.4,-0.1,2.2,11.24,46.12,716.3898,139.9981],
    [1325,1525539490,57.3504,-111.7356,439.4,161.4,271.0,-0.8,1.1,11.11,45.98,716.4988,140.0009],
    [1326,1525539491,57.3505,-111.7368,438.5,159.5,270.0,-0.7,2.7,11.4,46.16,716.5028,139.9992],
    [1327,1525539492,57.3505,-111.7381,437.1,156.8,269.2,-0.8,3.8,11.29,45.21,716.5342,140.0038],
    [1328,1525539493,57.3505,-111.7393,435.4,153.4,269.1,-1.0,4.2,11.32,45.75,716.554,140.0039],
    [1329,1525539494,57.3505,-111.7405,434.2,151.2,269.2,-0.8,4.0,11.14,45.15,716.5326,140.0047],
    [1330,1525539495,57.3506,-111.7418,433.1,149.1,269.3,-0.7,3.4,10.96,45.6,716.4498,140.0032],
    [1331,1525539496,57.3506,-111.743,432.6,147.6,268.4,-0.7,3.9,11.51,45.56,716.4586,139.999],
    [1332,1525539497,57.3506,-111.7443,432.2,146.2,268.3,-0.6,3.4,11.33,45.54,716.3047,140.0007],
    [1333,1525539498,57.3506,-111.7455,432.1,145.2,267.8,-1.2,3.3,11.99,45.13,716.1291,140.0099],
    [1334,1525539499,57.3506,-111.7468,432.4,144.3,267.5,-1.5,3.0,11.67,44.81,715.9578,140.0085],
    [1335,1525539500,57.3506,-111.7481,432.5,143.6,266.8,-1.2,3.1,10.92,45.28,715.733,139.9948],
    [1336,1525539501,57.3506,-111.7493,432.4,142.4,266.4,-0.6,3.1,11.13,45.29,715.6046,140.0038],
    [1337,1525539502,57.3506,-111.7505,433.4,142.3,266.1,-0.9,2.9,11.2,45.19,715.4476,139.9956],
    [1338,1525539503,57.3506,-111.7518,436.0,143.0,266.5,-1.0,2.1,11.04,44.88,715.3874,139.9998],
    [1339,1525539504,57.3505,-111.7531,438.5,144.5,265.6,-1.6,2.9,11.8,43.98,715.3524,140.0028],
    [1340,1525539505,57.3505,-111.7543,440.6,145.6,266.9,-0.4,1.5,11.23,44.69,715.2985,140.003],
    [1341,1525539506,57.3505,-111.7556,442.3,146.3,266.9,0.2,2.4,11.61,44.27,715.1393,139.9992],
    [1342,1525539507,57.3505,-111.7568,443.9,147.9,267.2,0.4,2.7,11.4,44.34,715.054,140.0008],
    [1343,1525539508,57.3505,-111.758,445.4,150.4,268.9,-0.7,1.4,11.21,44.7,714.9739,140.0016],
    [1344,1525539509,57.3505,-111.7593,446.3,151.3,269.6,-1.2,1.5,12.0,44.35,714.9084,139.9989],
    [1345,1525539510,57.3505,-111.7605,447.1,152.1,269.5,-1.2,2.0,11.37,44.88,714.8837,140.002],
    [1346,1525539511,57.3505,-111.7617,448.2,152.2,269.8,-0.6,1.6,11.12,44.81,714.8582,140.0062],
    [1347,1525539512,57.3505,-111.763,449.2,153.2,269.6,0.0,1.7,11.88,44.75,714.846,139.9967],
    [1348,1525539513,57.3505,-111.7642,450.3,155.0,268.9,0.0,2.5,11.55,45.13,714.8173,140.0053],
    [1349,1525539514,57.3505,-111.7655,451.0,157.0,268.8,-0.3,2.5,11.3,45.3,714.73,140.0021],
    [1350,1525539515,57.3505,-111.7667,451.5,160.5,268.7,-0.5,2.6,11.54,46.24,714.7178,140.0071],
    [1351,1525539516,57.3505,-111.768,451.9,160.9,268.1,-0.4,2.9,11.92,46.37,714.7279,139.9982],
    [1352,1525539517,57.3506,-111.7692,452.0,159.3,268.6,0.3,2.1,11.78,46.5,714.7393,140.0002],
    [1353,1525539518,57.3506,-111.7704,452.4,157.4,268.4,-0.2,2.1,11.61,46.63,714.7086,139.9969],
    [1354,1525539519,57.3506,-111.7717,453.2,156.5,268.3,-0.5,1.9,11.68,46.77,714.6914,140.0022],
    [1355,1525539520,57.3506,-111.7729,453.5,156.5,267.6,-1.1,2.6,11.15,46.38,714.365,140.0068],
    [1356,1525539521,57.3505,-111.7741,453.6,155.6,266.9,-0.9,3.0,11.46,46.23,714.2891,139.996],
    [1357,1525539522,57.3505,-111.7754,453.4,154.4,267.7,-0.7,1.9,11.48,46.2,714.2096,140.0006],
    [1358,1525539523,57.3505,-111.7766,453.5,153.5,268.0,0.2,1.5,11.47,46.16,714.1409,139.9944],
    [1359,1525539524,57.3505,-111.7778,453.5,152.5,268.1,0.1,1.3,11.53,46.11,714.0905,140.0005],
    [1360,1525539525,57.3505,-111.7791,455.4,153.4,267.5,0.4,1.0,11.73,45.96,714.0604,140.008],
    [1361,1525539526,57.3505,-111.7803,457.8,154.8,267.6,-0.1,-0.6,11.13,45.98,714.0066,140.0045],
    [1362,1525539527,57.3504,-111.7815,459.2,155.2,263.6,-0.7,0.6,11.59,45.9,713.9797,140.0069],
    [1363,1525539528,57.3503,-111.7827,460.1,155.1,259.3,0.0,1.1,11.53,46.05,713.8853,140.0014],
    [1364,1525539529,57.3502,-111.7839,460.6,155.7,253.0,-0.5,2.0,11.24,46.32,713.8763,140.0003],
    [1365,1525539530,57.35,-111.7851,461.1,156.0,246.8,-0.1,2.0,11.62,45.75,713.8709,140.0012],
    [1366,1525539531,57.3497,-111.7862,461.7,158.7,240.4,0.4,1.9,11.58,45.67,714.0762,139.9987],
    [1367,1525539532,57.3494,-111.7872,462.5,161.8,233.2,-0.1,2.0,11.63,45.6,714.2829,140.0043],
    [1368,1525539533,57.349,-111.7881,463.0,163.9,225.6,-0.7,2.9,11.58,45.7,714.3754,140.0053],
    [1369,1525539534,57.3485,-111.7889,463.1,164.8,221.0,0.1,2.1,11.49,45.71,714.4545,139.9936],
    [1370,1525539535,57.348,-111.7896,462.2,163.2,215.7,-0.2,2.9,12.26,45.57,714.5149,140.0019],
    [1371,1525539536,57.3475,-111.7903,460.9,160.9,210.6,0.6,2.4,11.8,46.09,714.6241,140.0032],
    [1372,1525539537,57.3469,-111.7909,459.4,159.4,205.7,-0.1,2.2,12.13,45.52,714.9038,140.0029],
    [1373,1525539538,57.3464,-111.7914,457.7,157.7,200.8,-0.5,1.8,11.69,45.7,715.0246,140.0012],
    [1374,1525539539,57.3458,-111.7917,456.4,156.4,195.4,0.1,2.3,11.91,45.62,715.0575,139.9977],
    [1375,1525539540,57.3451,-111.792,455.4,154.3,188.0,-1.3,2.1,11.58,45.83,715.1043,139.9999],
    [1376,1525539541,57.3445,-111.7921,453.8,152.8,183.1,-2.2,1.8,11.57,46.54,715.1382,140.0005],
    [1377,1525539542,57.3439,-111.7922,451.1,149.1,181.0,-0.6,1.5,11.7,45.38,715.25,140.0032],
    [1378,1525539543,57.3432,-111.7922,449.1,146.1,177.2,-1.7,3.1,11.39,45.73,715.2155,140.0038],
    [1379,1525539544,57.3426,-111.7921,447.9,143.6,175.2,-1.8,2.9,11.73,45.66,715.1341,140.0032],
    [1380,1525539545,57.3419,-111.7921,447.4,140.3,174.0,-2.6,3.5,12.02,45.14,715.08,140.0066],
    [1381,1525539546,57.3413,-111.792,447.1,139.1,174.8,-1.5,4.0,11.71,45.29,715.0566,140.0007],
    [1382,1525539547,57.3406,-111.7919,446.4,137.7,176.3,-0.7,3.6,11.68,45.32,714.9603,140.011],
    [1383,1525539548,57.34,-111.7918,446.6,137.6,176.5,-1.4,3.6,11.93,44.97,714.8609,140.0072],
    [1384,1525539549,57.3393,-111.7918,447.2,138.2,178.2,-0.2,3.5,11.74,46.07,714.8126,139.9989],
    [1385,1525539550,57.3387,-111.7917,448.0,139.3,179.0,0.1,3.6,11.08,46.07,714.6113,140.0068],
    [1386,1525539551,57.338,-111.7917,448.6,139.6,179.3,-0.1,2.9,12.04,45.56,714.5255,140.0038],
    [1387,1525539552,57.3374,-111.7917,449.8,140.8,179.8,-0.2,2.8,11.64,46.48,714.1686,139.9985],
    [1388,1525539553,57.3368,-111.7917,451.0,141.8,180.2,-0.3,2.3,11.26,46.04,714.1569,140.0089],
    [1389,1525539554,57.3361,-111.7917,451.4,141.4,180.2,-0.7,2.2,11.79,46.4,714.0983,139.9967],
    [1390,1525539555,57.3355,-111.7918,453.2,143.2,181.1,0.3,2.2,11.32,46.47,714.0471,140.0052],
    [1391,1525539556,57.3348,-111.7918,454.9,144.9,180.7,-0.2,2.5,11.74,45.79,713.9613,140.001],
    [1392,1525539557,57.3342,-111.7918,457.1,148.1,180.7,0.0,2.4,11.59,46.18,713.9409,139.999],
    [1393,1525539558,57.3336,-111.7918,459.3,152.8,180.7,0.0,1.8,11.52,46.48,713.8098,140.0067],
    [1394,1525539559,57.3329,-111.7918,460.3,155.6,180.0,-0.5,1.8,11.7,46.21,713.7273,140.0037],
    [1395,1525539560,57.3323,-111.7918,461.2,156.6,179.4,-0.8,1.8,11.7,46.21,713.6962,140.0031],
    [1396,1525539561,57.3316,-111.7918,461.9,153.7,178.8,-1.1,2.7,11.46,46.3,713.6726,140.0095],
    [1397,1525539562,57.331,-111.7918,462.3,152.3,179.2,-0.2,2.7,11.48,46.37,713.517,140.0006],
    [1398,1525539563,57.3304,-111.7918,463.2,153.2,178.7,-0.4,2.3,11.72,46.93,713.3863,139.9995],
    [1399,1525539564,57.3297,-111.7918,464.5,154.5,178.0,0.1,2.2,11.47,46.69,713.2314,139.9981],
    [1400,1525539565,57.3291,-111.7917,465.0,155.0,176.3,0.5,1.6,11.76,46.17,713.0861,139.9884],
    [1401,1525539566,57.3286,-111.7916,465.6,155.6,172.6,0.4,1.8,11.53,46.49,713.0627,140.0022],
    [1402,1525539567,57.3279,-111.7914,466.9,156.9,167.6,0.5,2.0,11.43,46.32,713.0951,140.0032],
    [1403,1525539568,57.3273,-111.791,468.8,158.8,162.2,0.4,2.3,11.62,46.33,713.0527,140.0042],
    [1404,1525539569,57.3267,-111.7906,470.6,160.6,156.0,-0.7,2.4,11.85,45.95,713.0464,140.001],
    [1405,1525539570,57.3261,-111.7901,472.1,162.1,150.5,-0.8,2.3,11.14,46.18,712.761,139.9922],
    [1406,1525539571,57.3257,-111.7895,472.8,162.8,145.9,-1.1,2.5,11.65,46.35,712.7888,139.9985],
    [1407,1525539572,57.3252,-111.7889,472.7,162.7,140.8,-0.9,1.7,11.3,46.45,712.8058,139.9963],
    [1408,1525539573,57.3248,-111.7881,472.6,163.6,136.1,-0.3,1.9,11.43,46.49,712.9012,140.0061],
    [1409,1525539574,57.3243,-111.7871,473.5,164.5,130.7,-0.2,2.0,11.73,46.5,712.948,139.998],
    [1410,1525539575,57.3239,-111.7862,475.0,167.0,126.4,-1.0,2.9,11.08,46.6,712.9485,140.0054],
    [1411,1525539576,57.3236,-111.7853,476.3,168.3,123.0,-1.2,3.0,11.52,46.8,713.007,139.9943],
    [1412,1525539577,57.3233,-111.7843,476.4,169.4,118.6,-1.5,2.3,11.36,46.66,713.1405,139.9932],
    [1413,1525539578,57.323,-111.7832,475.4,169.1,114.2,-1.1,1.8,11.22,46.61,713.2074,139.9931],
    [1414,1525539579,57.3228,-111.7821,474.1,168.1,110.0,-1.4,2.4,11.65,46.92,713.417,139.9983],
    [1415,1525539580,57.3226,-111.7812,474.5,169.5,106.2,-0.2,1.8,11.66,47.17,713.6535,140.0032],
    [1416,1525539581,57.3225,-111.78,474.2,170.2,101.8,-1.0,2.1,11.83,47.21,713.8841,139.9985],
    [1417,1525539582,57.3224,-111.7788,472.5,168.5,98.4,-1.1,2.8,11.77,46.91,713.9802,139.9976],
    [1418,1525539583,57.3223,-111.7776,470.9,167.9,93.8,-2.0,1.6,11.5,47.31,714.1458,140.0009],
    [1419,1525539584,57.3223,-111.7765,468.9,166.9,91.5,-1.1,1.5,11.68,47.07,714.3204,140.0044],
    [1420,1525539585,57.3223,-111.7753,466.1,165.1,89.9,-0.6,0.9,11.63,47.18,714.4417,139.999],
    [1421,1525539586,57.3224,-111.7741,464.2,163.2,88.6,-0.3,0.8,12.22,46.47,714.5667,140.0052],
    [1422,1525539587,57.3224,-111.7729,462.2,162.2,88.5,-0.6,1.5,12.0,46.68,714.7892,139.9995],
    [1423,1525539588,57.3224,-111.7717,460.2,160.2,88.1,-0.5,1.5,11.01,47.05,714.877,140.0082],
    [1424,1525539589,57.3224,-111.7705,458.3,158.2,87.8,-0.9,0.8,11.29,46.81,715.0555,140.0021],
    [1425,1525539590,57.3225,-111.7693,456.1,157.1,89.6,-1.0,1.9,11.85,46.74,715.1191,140.0047],
    [1426,1525539591,57.3225,-111.7681,454.4,155.4,91.2,-1.3,2.5,11.47,46.98,715.0966,140.0055],
    [1427,1525539592,57.3225,-111.7668,452.9,154.9,92.6,-1.4,2.9,12.14,47.08,715.0162,139.997],
    [1428,1525539593,57.3225,-111.7658,451.3,153.3,93.7,-1.2,3.3,12.28,47.07,715.0266,140.0033],
    [1429,1525539594,57.3225,-111.7645,449.2,151.2,94.7,-1.4,3.7,11.43,47.39,715.1015,140.0002],
    [1430,1525539595,57.3224,-111.7633,447.8,148.8,95.7,-0.9,3.7,11.74,47.85,715.1853,140.0018],
    [1431,1525539596,57.3224,-111.762,447.8,147.8,96.1,-1.2,2.9,11.92,47.26,715.2674,139.9969],
    [1432,1525539597,57.3223,-111.7608,448.5,147.5,97.6,-1.0,3.5,11.68,47.1,715.2478,140.0164],
    [1433,1525539598,57.3223,-111.7596,448.7,147.4,97.4,-0.6,2.9,11.97,46.98,715.2961,139.9936],
    [1434,1525539599,57.3222,-111.7585,448.2,146.2,96.3,-0.6,2.1,11.3,47.81,715.4594,139.9994],
    [1435,1525539600,57.3222,-111.7574,447.4,145.4,95.0,-0.6,1.4,11.71,48.29,715.4577,140.0057],
    [1436,1525539601,57.3221,-111.756,446.0,144.0,94.0,-0.9,1.7,11.67,48.14,715.3694,140.0008],
    [1437,1525539602,57.3221,-111.7548,445.9,143.9,92.9,-0.9,1.7,12.14,47.68,715.1641,140.0053],
    [1438,1525539603,57.3221,-111.7535,445.4,143.4,91.9,-1.6,1.9,11.46,47.94,714.9688,140.0019],
    [1439,1525539604,57.3221,-111.7523,444.0,142.2,91.2,-1.0,2.4,11.56,48.1,714.8643,140.0021],
    [1440,1525539605,57.3221,-111.7511,443.7,142.7,88.6,-1.0,1.4,11.68,48.4,714.8433,140.0004],
    [1441,1525539606,57.3222,-111.7499,444.6,144.0,88.0,-1.2,2.6,11.73,47.67,714.8554,139.9998],
    [1442,1525539607,57.3222,-111.7487,446.8,147.6,86.9,-1.3,2.8,12.43,47.36,714.9032,140.0041],
    [1443,1525539608,57.3223,-111.7475,449.1,150.1,85.4,-1.2,2.5,11.42,48.29,714.8627,140.0093],
    [1444,1525539609,57.3224,-111.7463,450.7,153.1,84.9,-1.2,2.4,11.48,47.97,714.8592,140.0047],
    [1445,1525539610,57.3224,-111.7451,451.3,155.5,84.5,-1.0,1.9,12.23,47.41,714.8431,140.0047],
    [1446,1525539611,57.3225,-111.744,451.2,157.2,86.1,-1.6,3.1,11.63,47.94,714.7769,139.9936],
    [1447,1525539612,57.3226,-111.7427,450.6,157.6,87.3,-1.8,3.0,11.54,47.88,714.7101,139.9994],
    [1448,1525539613,57.3226,-111.7414,450.8,157.8,88.4,-1.4,2.6,11.79,47.67,714.5979,140.0037],
    [1449,1525539614,57.3227,-111.7403,451.2,159.2,90.1,-0.4,2.9,11.31,48.03,714.5408,140.0006],
    [1450,1525539615,57.3227,-111.7391,451.6,160.6,91.2,-0.6,2.7,11.76,47.78,714.5026,140.0013],
    [1451,1525539616,57.3227,-111.7379,451.9,161.9,92.1,-0.5,3.7,11.27,48.21,714.3493,140.0042],
    [1452,1525539617,57.3227,-111.7367,452.7,163.7,91.0,-1.0,3.4,11.74,48.25,714.2065,139.9962],
    [1453,1525539618,57.3227,-111.7356,453.9,165.9,88.2,-0.9,2.6,11.43,48.29,714.0615,139.9996],
    [1454,1525539619,57.3228,-111.7343,454.4,167.4,84.5,-1.5,2.5,11.57,48.59,713.9641,139.9998],
    [1455,1525539620,57.3229,-111.7331,455.2,168.2,78.8,-1.5,1.2,11.44,48.94,713.8612,140.0028],
    [1456,1525539621,57.3231,-111.732,456.8,169.8,73.3,-1.6,1.2,11.59,49.87,713.7334,139.995],
    [1457,1525539622,57.3233,-111.7309,458.6,172.6,68.2,-1.6,2.0,11.76,50.14,713.5832,139.9957],
    [1458,1525539623,57.3236,-111.7298,460.4,174.4,61.9,-0.6,1.7,11.5,50.16,713.4704,140.0087],
    [1459,1525539624,57.324,-111.7288,462.0,176.0,55.7,-0.9,1.7,11.43,50.42,713.8215,139.9931],
    [1460,1525539625,57.3243,-111.7279,463.1,177.1,50.4,-1.2,2.2,11.75,50.28,713.9138,139.9944],
    [1461,1525539626,57.3248,-111.7271,464.9,178.9,45.2,-1.9,2.5,11.77,50.62,714.2016,139.9934],
    [1462,1525539627,57.3253,-111.7263,466.4,181.4,40.4,-1.6,2.3,11.63,50.66,714.4921,140.0009],
    [1463,1525539628,57.3258,-111.7256,466.8,181.8,35.8,-1.7,1.5,11.42,51.12,714.7339,140.0],
    [1464,1525539629,57.3264,-111.725,464.9,179.9,32.4,-2.1,1.6,11.63,51.76,715.4794,140.0022],
    [1465,1525539630,57.3269,-111.7244,462.3,178.1,26.7,-1.6,0.5,11.28,51.63,715.7868,140.0045],
    [1466,1525539631,57.3276,-111.7239,459.4,175.4,21.0,-1.7,0.3,11.81,51.25,716.3066,140.0052],
    [1467,1525539632,57.3282,-111.7236,456.5,173.5,17.5,-1.8,0.7,11.61,51.91,716.5944,139.9977],
    [1468,1525539633,57.3288,-111.7233,452.1,169.1,14.9,-1.8,1.6,11.91,51.28,717.0754,139.9999],
    [1469,1525539634,57.3295,-111.723,446.3,164.3,11.5,-0.9,1.4,11.54,51.87,717.3791,139.9989],
    [1470,1525539635,57.3302,-111.7228,440.4,158.4,10.3,-1.0,2.3,11.48,52.42,717.8721,140.0015],
    [1471,1525539636,57.3308,-111.7226,434.9,153.9,9.3,-0.6,2.9,12.24,51.72,718.1081,140.0011],
    [1472,1525539637,57.3315,-111.7224,430.1,150.2,9.3,-1.7,2.2,11.6,51.84,718.5029,139.9959],
    [1473,1525539638,57.3322,-111.7223,425.7,147.3,9.5,-2.2,2.4,11.5,51.92,718.744,140.0077],
    [1474,1525539639,57.3329,-111.7221,420.8,147.8,8.6,-1.5,2.2,10.99,51.62,718.7839,140.0027],
    [1475,1525539640,57.3336,-111.7219,416.0,147.2,8.4,-1.7,2.1,11.39,51.58,718.7853,140.0073],
    [1476,1525539641,57.3343,-111.7218,411.4,144.9,7.8,-1.1,2.0,11.44,50.64,718.7302,140.0058],
    [1477,1525539642,57.335,-111.7216,407.9,144.3,7.4,-1.4,1.6,11.86,50.24,718.7385,139.9931],
    [1478,1525539643,57.3357,-111.7215,406.0,141.4,6.6,-1.7,2.5,11.7,49.78,718.6625,140.0045],
    [1479,1525539644,57.3364,-111.7214,404.8,137.6,5.1,-1.6,2.5,11.6,49.31,718.546,139.9993],
    [1480,1525539645,57.3371,-111.7213,404.6,136.6,2.9,-0.5,2.7,11.54,49.16,718.5104,140.0092],
    [1481,1525539646,57.3378,-111.7213,405.2,135.2,361.5,-0.1,2.5,11.38,48.71,718.4686,140.0051],
    [1482,1525539647,57.3385,-111.7213,405.3,136.0,361.2,-0.7,2.3,11.9,48.49,718.2427,140.0045],
    [1483,1525539648,57.3392,-111.7213,405.9,138.9,360.4,-0.5,2.7,11.5,48.43,718.1609,140.0061],
    [1484,1525539649,57.34,-111.7213,407.1,142.2,360.0,-0.4,2.0,11.81,48.29,717.994,140.0058],
    [1485,1525539650,57.3406,-111.7213,408.1,143.1,360.7,-1.0,2.1,12.38,48.08,717.8201,140.0026],
    [1486,1525539651,57.3413,-111.7213,409.1,143.1,360.9,-1.0,2.2,11.48,48.32,717.5813,140.0072],
    [1487,1525539652,57.3421,-111.7213,410.9,144.9,361.4,-1.4,2.1,11.13,48.02,717.0692,140.0019],
    [1488,1525539653,57.3427,-111.7213,412.8,146.2,360.5,-0.7,2.4,11.72,47.77,716.9466,139.9959],
    [1489,1525539654,57.3434,-111.7213,414.6,143.0,358.3,-0.5,2.4,12.05,47.38,716.4561,140.0012],
    [1490,1525539655,57.3441,-111.7214,416.4,140.8,354.7,-0.6,2.4,11.75,47.71,716.3654,140.0062],
    [1491,1525539656,57.3447,-111.7215,418.9,141.2,350.5,-0.3,2.6,11.77,47.98,716.2056,140.0061],
    [1492,1525539657,57.3454,-111.7218,423.3,144.3,345.9,-0.8,2.5,11.55,47.36,716.1108,140.0057],
    [1493,1525539658,57.3461,-111.7221,428.2,148.2,341.3,-1.0,1.3,11.58,47.14,715.9379,139.9941],
    [1494,1525539659,57.3467,-111.7226,431.5,152.4,336.9,-1.0,0.7,11.86,46.53,715.7892,140.0095],
    [1495,1525539660,57.3473,-111.7232,434.1,155.1,330.7,-0.5,1.4,11.68,46.24,715.6814,140.0039],
    [1496,1525539661,57.3479,-111.7238,436.3,156.3,325.2,-0.6,1.7,11.79,45.76,715.5768,140.0049],
    [1497,1525539662,57.3484,-111.7246,437.8,158.2,318.7,-0.5,2.3,12.21,45.15,715.4235,139.9982],
    [1498,1525539663,57.3489,-111.7253,438.6,159.6,312.4,0.1,1.9,12.17,45.71,715.4302,140.0121],
    [1499,1525539664,57.3493,-111.7263,440.6,161.9,305.2,-0.1,2.5,11.75,45.46,715.5269,140.0002],
    [1500,1525539665,57.3497,-111.7273,441.9,166.9,299.1,0.9,2.3,12.02,45.24,715.5562,140.0043],
    [1501,1525539666,57.35,-111.7284,443.0,168.8,294.0,0.0,1.0,11.26,45.45,715.8098,140.0048],
    [1502,1525539667,57.3502,-111.7294,444.7,171.7,289.1,-0.2,0.8,11.65,45.24,715.8361,139.998],
    [1503,1525539668,57.3504,-111.7306,445.7,174.8,283.6,-0.1,2.1,12.41,44.82,715.8123,140.0075],
    [1504,1525539669,57.3505,-111.7318,445.2,172.5,278.5,-0.2,2.8,12.42,44.63,715.8286,140.0049],
    [1505,1525539670,57.3506,-111.733,443.3,169.3,275.6,0.0,2.2,11.8,45.36,716.0096,140.0055],
    [1506,1525539671,57.3507,-111.7342,440.7,165.5,271.3,-0.1,3.1,11.85,45.87,715.9996,139.9991],
    [1507,1525539672,57.3507,-111.7353,440.1,163.5,268.4,-0.3,2.8,11.73,45.36,715.9485,140.0022],
    [1508,1525539673,57.3507,-111.7363,441.0,163.2,267.5,-0.7,2.8,11.93,45.7,715.8806,139.9994],
    [1509,1525539674,57.3507,-111.7376,441.1,162.2,266.0,-0.6,3.7,12.18,44.98,715.9398,139.9945],
    [1510,1525539675,57.3507,-111.7388,440.0,159.3,266.1,-1.3,2.9,11.47,45.15,715.9872,139.9998],
    [1511,1525539676,57.3507,-111.7401,439.2,156.2,264.9,-1.3,3.6,11.92,45.0,716.0002,139.9992],
    [1512,1525539677,57.3507,-111.7413,439.5,155.8,264.0,-0.8,3.8,12.27,44.61,716.0808,140.0048],
    [1513,1525539678,57.3506,-111.7423,440.3,155.9,263.9,-1.0,3.5,11.5,44.84,716.2827,139.9985],
    [1514,1525539679,57.3506,-111.7436,440.4,155.4,263.4,-0.9,3.6,11.58,45.49,716.252,140.0062],
    [1515,1525539680,57.3505,-111.7448,439.5,153.3,263.4,-0.9,3.2,11.81,45.7,716.2766,139.9952],
    [1516,1525539681,57.3505,-111.746,438.8,151.9,263.2,-1.4,3.6,12.01,45.27,716.2657,140.001],
    [1517,1525539682,57.3504,-111.7472,438.1,150.0,263.0,-1.2,4.0,12.17,44.78,716.2452,140.0096],
    [1518,1525539683,57.3504,-111.7484,436.6,147.1,264.6,-1.6,2.7,11.82,45.3,716.2776,139.9974],
    [1519,1525539684,57.3504,-111.7495,435.3,144.6,265.0,-1.3,3.5,11.91,45.37,716.2696,140.0043],
    [1520,1525539685,57.3504,-111.7507,435.1,143.1,266.3,0.0,3.3,11.97,45.28,716.0394,140.0016],
    [1521,1525539686,57.3504,-111.752,435.2,142.1,268.5,-0.1,2.1,11.82,45.18,715.8263,140.0002],
    [1522,1525539687,57.3504,-111.7532,435.5,141.4,269.6,-0.2,2.0,12.38,44.89,715.5956,140.005],
    [1523,1525539688,57.3504,-111.7543,435.3,140.3,271.4,-0.6,0.9,12.01,45.34,715.3745,140.0027],
    [1524,1525539689,57.3504,-111.7556,435.5,139.5,272.0,-0.6,1.4,11.64,45.53,715.2538,139.9919],
    [1525,1525539690,57.3505,-111.7568,437.3,141.3,272.4,-0.3,1.5,11.78,45.77,715.1191,139.9994],
    [1526,1525539691,57.3505,-111.758,439.9,144.9,272.3,-0.1,1.9,12.28,45.28,715.1524,139.9964],
    [1527,1525539692,57.3505,-111.7591,442.8,147.8,272.3,-0.6,2.1,11.95,45.27,715.1614,140.0097],
    [1528,1525539693,57.3506,-111.7603,445.5,150.5,272.0,-0.5,2.6,12.27,44.61,715.1997,140.0021],
    [1529,1525539694,57.3506,-111.7615,448.0,152.8,272.8,-0.7,1.2,11.45,45.18,715.0842,140.0161],
    [1530,1525539695,57.3507,-111.7627,449.5,153.8,272.8,-0.7,0.8,11.66,45.34,715.0551,140.0023],
    [1531,1525539696,57.3507,-111.7639,449.1,154.1,270.2,-0.7,2.1,12.13,45.44,715.0205,139.9984],
    [1532,1525539697,57.3507,-111.7651,448.7,155.0,268.0,-0.1,2.6,11.76,46.31,714.9716,139.9999],
    [1533,1525539698,57.3507,-111.7663,448.3,156.6,267.0,0.1,1.8,11.83,46.61,714.7788,139.9986],
    [1534,1525539699,57.3507,-111.7675,448.8,158.9,265.1,-0.6,2.4,11.71,46.03,714.6863,140.0088],
    [1535,1525539700,57.3506,-111.7686,449.9,157.9,264.1,-1.3,2.3,11.7,46.27,714.6368,139.9941],
    [1536,1525539701,57.3506,-111.7698,450.1,155.9,263.6,-1.2,2.3,11.65,46.45,714.6345,140.0014],
    [1537,1525539702,57.3505,-111.771,450.6,154.9,262.6,-0.5,3.3,11.75,46.43,714.745,139.9999],
    [1538,1525539703,57.3505,-111.7721,451.7,154.7,263.6,-0.4,2.4,11.74,46.92,714.82,140.0007],
    [1539,1525539704,57.3504,-111.7734,453.6,155.6,264.5,-1.0,1.9,11.85,46.37,714.852,140.0047],
    [1540,1525539705,57.3504,-111.7745,454.5,155.5,266.1,-0.4,0.7,11.92,46.38,714.7967,140.0046],
    [1541,1525539706,57.3504,-111.7757,454.6,155.7,266.5,-1.6,1.1,11.83,46.67,714.5911,140.0006],
    [1542,1525539707,57.3503,-111.7769,453.8,153.8,266.0,0.1,2.3,11.6,46.44,714.5164,139.999],
    [1543,1525539708,57.3503,-111.7781,452.8,151.8,266.4,0.0,1.6,12.33,45.65,714.4645,140.0131],
    [1544,1525539709,57.3503,-111.7792,452.2,150.2,266.5,-0.2,1.3,11.92,46.57,714.3508,140.0027],
    [1545,1525539710,57.3503,-111.7805,452.6,149.6,265.1,-0.6,2.2,11.79,46.5,714.2274,140.0087],
    [1546,1525539711,57.3502,-111.7817,454.0,150.0,264.3,-0.6,0.8,11.84,46.54,713.9888,140.0066],
    [1547,1525539712,57.3501,-111.7829,455.7,150.7,261.0,0.2,0.9,11.75,46.39,713.8163,140.0009],
    [1548,1525539713,57.35,-111.784,456.3,151.4,255.4,-0.4,2.1,11.61,46.41,713.7698,140.0031],
    [1549,1525539714,57.3499,-111.7851,457.4,152.4,249.4,0.4,1.7,11.85,46.81,713.6645,139.9982],
    [1550,1525539715,57.3496,-111.7861,459.2,155.1,242.6,-0.5,2.0,12.01,45.86,713.7087,140.0031],
    [1551,1525539716,57.3493,-111.7872,461.7,161.1,233.2,-0.5,3.1,12.22,45.51,713.7752,139.9976],
    [1552,1525539717,57.3489,-111.788,463.9,164.9,226.3,-0.6,2.7,11.71,45.7,714.0163,139.9969],
    [1553,1525539718,57.3485,-111.7888,465.6,167.3,220.1,-1.1,2.6,12.52,45.54,714.1133,140.0045],
    [1554,1525539719,57.348,-111.7895,466.5,167.5,213.9,-1.7,2.8,11.99,45.59,714.24,140.0011],
    [1555,1525539720,57.3475,-111.7901,466.4,166.3,210.3,-0.7,2.1,11.76,45.89,714.3902,140.004],
    [1556,1525539721,57.3471,-111.7906,465.0,165.0,206.6,-0.4,2.2,11.83,46.6,714.4807,140.0005],
    [1557,1525539722,57.3465,-111.7911,462.9,162.9,200.5,-1.0,1.5,11.74,46.0,714.6134,140.0016],
    [1558,1525539723,57.3459,-111.7915,461.3,161.3,195.0,-0.5,2.5,11.84,46.05,714.7056,140.0016],
    [1559,1525539724,57.3453,-111.7918,460.0,160.0,189.5,-1.1,2.7,11.82,46.28,714.8947,139.9969],
    [1560,1525539725,57.3447,-111.7919,458.2,157.2,185.0,-1.6,2.5,12.27,45.83,715.0156,139.9977],
    [1561,1525539726,57.3441,-111.792,456.1,154.4,181.8,-1.3,3.6,11.83,45.95,715.1488,140.0051],
    [1562,1525539727,57.3435,-111.792,454.9,152.6,179.6,-1.1,3.5,11.78,46.88,715.3178,140.0],
    [1563,1525539728,57.3429,-111.792,453.9,149.9,177.8,-1.5,3.3,11.65,46.27,715.3364,140.0031],
    [1564,1525539729,57.3423,-111.792,452.1,146.4,177.4,-1.4,3.4,11.81,46.72,715.2161,139.9982],
    [1565,1525539730,57.3416,-111.792,450.3,142.6,177.6,-1.3,3.3,11.69,46.75,714.9697,140.0023],
    [1566,1525539731,57.341,-111.7919,448.9,140.6,177.8,-1.1,3.0,12.17,46.18,714.799,140.0028],
    [1567,1525539732,57.3404,-111.7919,447.0,138.0,178.6,-0.5,2.8,11.76,47.18,714.6587,139.9987],
    [1568,1525539733,57.3398,-111.7919,446.2,137.2,178.2,-1.1,2.5,11.96,46.1,714.5153,139.9998],
    [1569,1525539734,57.3392,-111.7919,447.5,138.5,178.1,-1.1,2.3,11.76,46.39,714.4021,140.003],
    [1570,1525539735,57.3386,-111.7919,449.5,140.9,178.6,-0.7,2.2,12.2,46.35,714.1799,140.0059],
    [1571,1525539736,57.338,-111.7918,451.8,142.8,178.5,-0.9,2.1,11.72,46.89,714.1097,139.9995],
    [1572,1525539737,57.3374,-111.7918,453.8,144.8,179.3,-0.3,3.1,11.64,46.45,713.8672,140.0037],
    [1573,1525539738,57.3368,-111.7918,455.6,146.5,180.1,-0.2,3.0,12.15,46.16,713.688,139.9961],
    [1574,1525539739,57.3361,-111.7918,457.8,147.8,180.5,-0.1,3.2,11.65,46.81,713.5651,140.0024],
    [1575,1525539740,57.3355,-111.7918,459.8,149.8,180.7,0.1,2.4,11.59,46.47,713.2991,139.9974],
    [1576,1525539741,57.3349,-111.7919,462.0,152.0,180.0,-0.7,1.9,11.85,46.6,713.2104,140.0013],
    [1577,1525539742,57.3343,-111.7919,464.4,155.4,179.5,-1.3,2.7,11.92,46.39,713.1319,140.0038],
    [1578,1525539743,57.3337,-111.7919,466.4,159.5,180.6,0.0,2.8,12.26,46.13,712.9715,140.0003],
    [1579,1525539744,57.3331,-111.7919,467.8,162.5,180.8,0.2,2.9,11.62,46.77,712.9434,139.9982],
    [1580,1525539745,57.3326,-111.7919,469.6,165.7,180.0,-0.4,2.6,11.63,46.54,712.9016,139.9956],
    [1581,1525539746,57.3319,-111.7919,471.9,164.4,180.7,0.5,2.6,11.58,46.4,712.9383,140.0025],
    [1582,1525539747,57.3313,-111.7919,473.2,164.2,179.4,-0.9,2.3,11.68,46.77,712.799,140.0004],
    [1583,1525539748,57.3307,-111.7919,474.5,164.5,179.3,-0.6,2.2,11.69,46.34,712.8363,140.0005],
    [1584,1525539749,57.3301,-111.7919,475.0,165.0,178.6,-1.0,1.4,11.7,46.74,712.66,139.9996],
    [1585,1525539750,57.3296,-111.7919,475.3,165.3,177.4,-0.6,1.9,11.61,46.64,712.5853,139.9991],
    [1586,1525539751,57.329,-111.7918,475.6,165.6,176.3,1.0,1.7,11.61,46.74,712.631,139.998],
    [1587,1525539752,57.3284,-111.7917,475.7,165.7,171.1,-0.3,2.4,11.71,47.36,712.5698,139.996],
    [1588,1525539753,57.3279,-111.7915,476.0,166.0,165.4,-0.7,3.0,11.63,47.22,712.6777,139.9987],
    [1589,1525539754,57.3273,-111.7911,477.4,167.4,160.0,0.5,3.2,11.34,46.98,712.8079,139.9994],
    [1590,1525539755,57.3267,-111.7907,478.6,168.6,152.5,-1.4,2.8,11.87,46.5,712.8745,139.9961],
    [1591,1525539756,57.3262,-111.7901,478.6,168.6,147.1,-0.6,3.6,11.54,46.74,712.9293,139.996],
    [1592,1525539757,57.3257,-111.7894,478.6,168.6,139.6,-0.6,2.8,11.3,46.78,713.0943,139.9963],
    [1593,1525539758,57.3253,-111.7886,478.7,168.7,133.8,-0.7,3.0,11.93,46.71,713.231,139.9995],
    [1594,1525539759,57.3249,-111.7878,477.9,168.9,130.5,0.8,3.1,12.4,46.56,713.4918,139.9926],
    [1595,1525539760,57.3246,-111.7869,476.6,167.6,124.7,-0.1,3.1,11.45,47.0,713.8159,139.9967],
    [1596,1525539761,57.3243,-111.7859,475.4,167.4,119.7,-0.4,2.3,11.36,46.98,714.0342,140.001],
    [1597,1525539762,57.324,-111.7849,473.8,166.5,114.5,-0.8,1.7,11.56,47.08,714.1985,139.9973],
    [1598,1525539763,57.3238,-111.7838,471.8,164.8,110.3,-1.7,2.0,11.49,46.99,714.4306,139.9987],
    [1599,1525539764,57.3236,-111.7828,469.3,163.3,107.7,-1.2,2.6,11.58,47.09,714.7009,139.9931],
    [1600,1525539765,57.3234,-111.7816,466.0,161.0,104.0,-1.0,2.4,11.93,46.85,714.7193,140.0092],
    [1601,1525539766,57.3233,-111.7805,462.8,157.8,100.4,-1.1,1.6,12.13,46.71,714.7893,140.0022],
    [1602,1525539767,57.3232,-111.7794,459.8,155.8,97.9,-0.8,0.7,11.71,47.25,714.9582,139.9989],
    [1603,1525539768,57.3232,-111.7781,457.4,154.4,97.3,-1.3,1.5,11.69,47.56,715.2169,139.9998],
    [1604,1525539769,57.3231,-111.777,454.5,152.5,98.3,-1.2,2.7,11.51,47.29,715.3579,140.0044],
    [1605,1525539770,57.323,-111.7758,452.8,150.8,97.7,-1.0,1.7,11.62,47.4,715.3155,140.0001],
    [1606,1525539771,57.323,-111.7747,451.6,150.6,98.3,-1.1,2.8,11.15,47.46,715.2945,140.0023],
    [1607,1525539772,57.3229,-111.7734,449.9,149.9,97.7,-1.7,2.4,11.7,47.78,715.4088,139.9967],
    [1608,1525539773,57.3228,-111.7722,448.1,148.1,96.8,-1.4,2.5,11.57,47.4,715.4238,140.0029],
    [1609,1525539774,57.3228,-111.771,446.1,146.1,96.8,0.3,3.3,11.83,47.43,715.3428,139.9995],
    [1610,1525539775,57.3227,-111.7699,445.5,146.5,94.7,-0.7,2.1,11.55,47.7,715.3074,140.0013],
    [1611,1525539776,57.3227,-111.7687,445.9,146.9,93.8,-0.4,1.9,11.86,48.32,715.3322,139.9976],
    [1612,1525539777,57.3227,-111.7674,445.1,146.1,93.0,-1.0,1.9,11.81,47.68,715.3676,140.0012],
    [1613,1525539778,57.3227,-111.7662,444.9,146.9,92.4,-1.0,2.0,12.08,47.9,715.4211,140.0052],
    [1614,1525539779,57.3227,-111.765,445.1,147.1,92.5,-1.3,2.5,12.2,47.29,715.371,140.0054],
    [1615,1525539780,57.3227,-111.7637,445.9,147.9,93.2,-0.9,3.2,11.94,47.6,715.2466,140.001],
    [1616,1525539781,57.3226,-111.7626,445.8,146.5,92.5,-1.5,2.3,12.22,47.24,715.0728,140.006],
    [1617,1525539782,57.3226,-111.7614,445.2,144.2,92.1,-1.7,2.0,11.86,48.26,714.9054,139.9951],
    [1618,1525539783,57.3226,-111.7601,444.7,143.7,91.8,-1.2,1.6,11.99,47.31,714.8016,140.0037],
    [1619,1525539784,57.3226,-111.7589,445.2,143.2,91.1,-0.6,1.0,11.33,47.7,714.3731,140.0002],
    [1620,1525539785,57.3226,-111.7577,446.3,144.3,91.7,-1.0,1.9,12.07,48.19,714.2984,139.9988],
    [1621,1525539786,57.3226,-111.7565,447.8,145.8,92.0,-1.5,1.9,11.27,48.02,714.1518,140.0046],
    [1622,1525539787,57.3226,-111.7553,449.7,147.7,91.9,-2.2,1.5,12.13,47.79,713.9987,139.9992],
    [1623,1525539788,57.3226,-111.7541,452.3,150.3,93.2,-1.6,2.2,11.9,48.27,713.8463,140.0002],
    [1624,1525539789,57.3226,-111.7529,455.4,153.5,93.2,-1.6,2.3,11.79,47.87,713.7525,139.9989],
    [1625,1525539790,57.3226,-111.7517,458.1,157.1,94.0,-1.4,3.2,11.6,48.58,713.7094,139.9991],
    [1626,1525539791,57.3226,-111.7507,460.1,159.2,93.1,-1.6,2.3,11.5,48.12,713.7015,140.0018],
    [1627,1525539792,57.3225,-111.7495,462.0,161.9,93.3,-1.8,3.2,11.63,48.33,713.734,139.9959],
    [1628,1525539793,57.3225,-111.7483,463.7,164.6,92.7,-1.7,3.2,11.84,48.14,713.7409,140.0013],
    [1629,1525539794,57.3225,-111.7472,464.8,166.8,91.9,-1.8,3.1,11.58,48.31,713.8148,139.9969],
    [1630,1525539795,57.3226,-111.746,465.7,168.7,91.0,-1.4,2.9,11.55,48.27,714.0024,139.9971],
    [1631,1525539796,57.3226,-111.7448,465.9,170.6,89.7,-1.3,2.6,11.71,49.05,714.1854,139.9925],
    [1632,1525539797,57.3226,-111.7437,465.7,171.6,89.2,-1.3,2.9,11.53,48.63,714.285,140.0004],
    [1633,1525539798,57.3226,-111.7425,465.1,172.1,87.6,-1.1,1.6,12.18,47.8,714.3437,140.0003],
    [1634,1525539799,57.3227,-111.7413,464.6,172.3,87.3,-1.1,1.9,11.86,48.03,714.5897,140.0018],
    [1635,1525539800,57.3227,-111.7402,462.8,170.8,87.8,-0.6,2.7,11.84,48.4,714.758,139.9983],
    [1636,1525539801,57.3228,-111.7391,460.9,169.9,86.5,-1.0,1.6,11.47,48.28,714.7815,140.0018],
    [1637,1525539802,57.3228,-111.7378,459.2,169.2,86.6,-1.2,2.0,11.92,48.48,714.832,140.0042],
    [1638,1525539803,57.3229,-111.7367,457.6,168.6,86.5,-0.9,1.8,11.7,49.26,714.8435,140.0001],
    [1639,1525539804,57.323,-111.7354,455.3,167.3,87.3,-1.1,2.5,11.34,49.51,714.8246,139.9937],
    [1640,1525539805,57.323,-111.7342,452.8,165.8,88.8,-1.7,3.4,11.75,49.79,714.7304,140.0035],
    [1641,1525539806,57.323,-111.7331,451.9,164.9,88.6,-1.7,3.4,12.3,49.79,714.5705,140.0022],
    [1642,1525539807,57.3231,-111.732,451.6,164.6,87.6,-1.3,4.1,11.94,50.76,714.4433,139.9991],
    [1643,1525539808,57.3232,-111.7307,451.1,165.1,82.6,-1.3,3.9,11.27,50.62,714.3632,139.9967],
    [1644,1525539809,57.3233,-111.7295,451.5,165.5,76.3,-1.4,4.0,11.69,51.48,714.182,139.9984],
    [1645,1525539810,57.3236,-111.7284,452.3,166.3,68.5,-1.5,3.2,11.68,51.18,714.158,139.9986],
    [1646,1525539811,57.3239,-111.7273,453.9,167.9,59.2,-0.8,2.8,11.55,51.61,714.1379,140.0028],
    [1647,1525539812,57.3242,-111.7264,456.0,170.7,52.6,-0.6,2.9,11.72,51.41,714.133,140.0041],
    [1648,1525539813,57.3246,-111.7257,457.6,172.6,46.2,-0.8,3.1,11.65,51.43,714.1042,139.9979],
    [1649,1525539814,57.3251,-111.7249,459.0,174.0,38.1,-0.9,2.1,11.92,51.46,714.1503,140.0001],
    [1650,1525539815,57.3258,-111.7242,459.6,174.6,29.4,-0.6,1.5,12.01,50.92,714.1728,140.0011],
    [1651,1525539816,57.3263,-111.7237,459.8,175.8,22.5,-0.6,1.6,11.69,51.5,714.2629,140.0001],
    [1652,1525539817,57.327,-111.7233,460.3,176.3,16.0,0.0,1.8,11.66,51.14,714.4413,140.0008],
    [1653,1525539818,57.3276,-111.723,460.7,177.7,11.1,0.2,2.0,11.87,51.04,714.6365,140.0001],
    [1654,1525539819,57.3283,-111.7228,460.7,177.7,7.6,0.0,1.9,11.71,51.17,714.8855,139.9939],
    [1655,1525539820,57.3289,-111.7227,460.0,178.0,5.1,0.3,1.8,11.63,51.75,715.1898,139.9962],
    [1656,1525539821,57.3295,-111.7226,458.7,176.7,3.9,0.1,1.8,12.3,50.45,715.3324,139.9972],
    [1657,1525539822,57.3302,-111.7225,457.2,176.3,3.8,-0.3,2.4,11.91,50.33,715.5796,140.0009],
    [1658,1525539823,57.3309,-111.7224,455.0,174.4,3.3,0.1,2.3,11.46,50.47,715.7017,140.0009],
    [1659,1525539824,57.3315,-111.7224,452.0,172.2,4.2,-0.6,2.1,11.17,50.16,715.8896,140.0017],
    [1660,1525539825,57.3322,-111.7223,448.8,170.4,4.6,-0.8,1.9,11.29,50.01,715.8617,139.9962],
    [1661,1525539826,57.3329,-111.7222,446.3,173.3,5.3,-1.8,1.9,11.56,49.97,715.8766,140.0],
    [1662,1525539827,57.3335,-111.7221,444.4,173.0,5.3,-1.6,2.2,11.64,49.92,715.8749,140.0047],
    [1663,1525539828,57.3342,-111.722,442.5,174.2,4.3,-0.4,1.8,11.31,50.02,715.9756,140.0018],
    [1664,1525539829,57.3349,-111.7219,440.2,173.3,4.7,-0.9,2.5,11.1,50.01,716.0322,139.9981],
    [1665,1525539830,57.3356,-111.7219,439.3,173.4,5.0,-1.4,2.3,11.16,50.19,716.0958,140.005],
    [1666,1525539831,57.3362,-111.7218,439.4,171.7,4.7,-1.2,2.5,12.04,49.48,716.1419,139.9945],
    [1667,1525539832,57.3369,-111.7217,439.5,170.6,3.6,-0.9,2.3,11.7,49.93,716.0663,139.9915],
    [1668,1525539833,57.3376,-111.7217,439.0,168.7,4.0,-2.0,3.2,11.49,50.06,716.0087,140.0097],
    [1669,1525539834,57.3382,-111.7216,438.2,167.9,362.1,-0.9,2.5,11.23,50.33,715.9812,139.9964],
    [1670,1525539835,57.3389,-111.7216,437.2,169.0,360.6,-0.6,2.4,11.11,49.87,715.8706,140.0039],
    [1671,1525539836,57.3396,-111.7216,436.5,170.2,359.8,-1.2,1.7,11.34,49.65,715.8504,140.0056],
    [1672,1525539837,57.3403,-111.7217,436.7,170.3,358.3,-1.0,1.7,12.27,48.93,715.7557,140.005],
    [1673,1525539838,57.3409,-111.7217,437.9,170.3,357.0,-0.6,1.4,11.7,49.28,715.6177,140.0064],
    [1674,1525539839,57.3416,-111.7218,438.5,170.8,356.6,-1.0,2.6,11.61,48.97,715.451,140.0069],
    [1675,1525539840,57.3423,-111.7219,439.5,173.6,356.4,-1.9,2.6,11.08,48.81,715.1801,140.0002],
    [1676,1525539841,57.3429,-111.722,440.1,174.1,354.3,-2.0,2.8,11.88,48.42,714.9434,140.005],
    [1677,1525539842,57.3436,-111.7222,440.5,170.9,349.5,-1.8,2.4,11.66,48.64,714.7605,140.0064],
    [1678,1525539843,57.3443,-111.7225,442.1,169.2,342.8,-0.5,2.7,11.4,48.67,714.6443,139.9972],
    [1679,1525539844,57.3449,-111.7229,444.6,169.2,336.7,-0.5,3.4,11.95,47.93,714.5008,140.0031],
    [1680,1525539845,57.3454,-111.7234,447.4,173.9,331.6,-0.2,2.9,11.2,48.18,714.3914,140.0027],
    [1681,1525539846,57.346,-111.7241,450.5,178.2,325.5,-0.5,2.8,11.36,48.09,714.405,140.0022],
    [1682,1525539847,57.3465,-111.7248,452.9,179.8,320.0,0.0,2.7,11.34,48.06,714.3802,139.9983],
    [1683,1525539848,57.347,-111.7255,455.0,181.0,315.0,0.0,2.3,11.58,47.93,714.3691,140.0001],
    [1684,1525539849,57.3475,-111.7264,456.9,185.6,310.6,-0.6,2.0,11.68,47.37,714.3867,139.9982],
    [1685,1525539850,57.3479,-111.7273,458.1,188.2,306.5,-0.7,2.1,11.86,47.32,714.4755,140.0042],
    [1686,1525539851,57.3482,-111.7282,458.4,189.1,302.4,-0.4,2.1,11.65,47.44,714.4473,139.9997],
    [1687,1525539852,57.3486,-111.7292,458.5,188.0,299.6,-0.7,1.4,11.66,47.7,714.3053,140.0142],
    [1688,1525539853,57.3489,-111.7303,458.4,186.4,295.7,-0.4,1.4,11.67,47.05,714.379,139.9956],
    [1689,1525539854,57.3491,-111.7314,458.0,185.1,292.2,0.4,0.8,11.49,47.58,714.4899,140.0099],
    [1690,1525539855,57.3494,-111.7324,457.3,182.2,288.9,0.4,0.9,11.5,46.9,714.5031,139.9983],
    [1691,1525539856,57.3496,-111.7336,456.9,179.9,284.6,0.6,1.4,11.57,47.06,714.581,140.0018],
    [1692,1525539857,57.3497,-111.7347,458.0,179.0,280.9,0.0,1.8,11.63,47.62,714.592,140.003],
    [1693,1525539858,57.3498,-111.7359,458.2,178.5,279.2,-0.4,1.5,11.48,47.15,714.6008,140.0002],
    [1694,1525539859,57.3499,-111.737,457.4,176.7,276.1,-0.9,2.8,12.0,46.17,714.5775,139.9986],
    [1695,1525539860,57.35,-111.7382,456.4,175.4,272.6,-0.1,4.1,11.99,46.48,714.74,139.9979],
    [1696,1525539861,57.3501,-111.7392,455.8,173.9,271.3,0.1,3.4,11.6,46.7,714.8,140.0031],
    [1697,1525539862,57.3501,-111.7405,455.7,172.7,269.3,-0.2,3.4,11.26,46.77,715.0308,139.9961],
    [1698,1525539863,57.3501,-111.7417,455.8,171.8,267.6,-1.1,3.4,11.45,47.01,715.05,139.9988],
    [1699,1525539864,57.3501,-111.7429,455.8,170.8,266.5,-1.0,3.0,11.54,46.28,715.0518,140.0015],
    [1700,1525539865,57.3501,-111.744,454.9,168.9,265.7,-1.1,2.8,11.65,46.32,715.0676,139.9957],
    [1701,1525539866,57.3501,-111.7452,453.1,166.1,264.4,-1.1,3.6,11.77,46.64,715.0815,140.0051],
    [1702,1525539867,57.35,-111.7464,451.4,163.4,264.4,-1.5,3.3,11.28,46.23,714.9768,139.996],
    [1703,1525539868,57.35,-111.7476,450.3,161.3,264.5,-1.5,3.3,11.63,47.11,714.9615,140.0018],
    [1704,1525539869,57.35,-111.7487,449.7,159.7,264.7,-0.5,3.3,11.55,47.0,714.8489,140.0057],
    [1705,1525539870,57.3499,-111.7499,449.6,158.9,266.0,0.0,2.0,11.66,47.14,714.8254,140.0057],
    [1706,1525539871,57.3499,-111.7511,449.6,157.5,266.0,-0.1,2.2,11.46,46.74,714.754,140.0003],
    [1707,1525539872,57.3499,-111.7523,450.1,156.8,266.2,0.2,1.9,11.84,46.65,714.6721,139.9908],
    [1708,1525539873,57.3499,-111.7534,450.9,155.9,266.4,0.1,1.8,11.68,47.16,714.6381,139.9974],
    [1709,1525539874,57.3498,-111.7546,452.3,156.3,265.6,-0.5,2.7,11.45,46.95,714.5607,140.0008],
    [1710,1525539875,57.3498,-111.7556,453.2,157.3,264.9,-1.5,3.1,11.75,47.05,714.3803,140.0047],
    [1711,1525539876,57.3498,-111.7569,453.8,157.8,264.6,-1.5,2.9,11.48,46.85,714.1408,140.0055],
    [1712,1525539877,57.3498,-111.7581,454.4,158.4,264.5,0.1,2.7,11.82,46.58,714.0669,139.9942],
    [1713,1525539878,57.3497,-111.7592,454.5,158.5,265.1,0.7,2.0,11.77,47.26,713.9799,140.0022],
    [1714,1525539879,57.3497,-111.7604,455.2,159.2,265.1,0.4,1.6,11.85,47.23,713.9446,140.0065],
    [1715,1525539880,57.3496,-111.7616,457.6,161.6,265.2,-0.3,1.7,11.76,46.83,713.7393,139.9993],
    [1716,1525539881,57.3496,-111.7628,459.7,163.7,264.2,0.3,3.0,11.22,46.84,713.6341,140.0041],
    [1717,1525539882,57.3496,-111.7638,461.1,164.1,264.3,0.9,2.8,11.37,46.99,713.5613,140.0051],
    [1718,1525539883,57.3495,-111.7651,462.3,166.2,265.4,0.7,1.9,11.53,46.93,713.5385,139.9991],
    [1719,1525539884,57.3495,-111.7663,463.6,169.6,264.3,0.2,3.0,12.22,46.41,713.5967,139.9974],
    [1720,1525539885,57.3495,-111.7674,465.3,174.2,264.1,0.0,3.0,11.6,47.06,713.6127,139.9991],
    [1721,1525539886,57.3494,-111.7686,466.8,175.8,264.0,0.0,2.9,11.68,46.67,713.6161,140.0046],
    [1722,1525539887,57.3494,-111.7697,468.0,175.0,264.1,-0.2,2.5,11.48,46.39,713.571,139.9928],
    [1723,1525539888,57.3493,-111.7708,468.5,173.5,264.3,-0.8,2.1,11.67,45.95,713.5958,140.0065],
    [1724,1525539889,57.3493,-111.7719,468.3,172.3,263.7,-0.5,2.5,11.43,46.25,713.6137,140.0019],
    [1725,1525539890,57.3492,-111.7732,467.6,170.7,263.8,-0.9,2.3,11.85,46.12,713.5723,140.0054],
    [1726,1525539891,57.3492,-111.7743,467.5,169.5,263.2,-1.2,2.7,11.42,46.02,713.5305,140.0018],
    [1727,1525539892,57.3492,-111.7755,467.4,168.4,263.1,0.0,2.5,11.62,46.12,713.5105,139.9905],
    [1728,1525539893,57.3491,-111.7766,467.1,167.0,263.0,0.6,2.5,11.47,46.4,713.5819,140.0066],
    [1729,1525539894,57.349,-111.7778,467.0,166.2,262.3,-0.2,3.6,11.67,46.26,713.6245,140.0064],
    [1730,1525539895,57.349,-111.7789,467.8,166.8,261.8,-0.2,4.3,11.88,46.36,713.7425,140.0108],
    [1731,1525539896,57.3489,-111.7801,468.2,166.2,263.4,-1.5,3.0,11.47,46.58,713.7113,140.0106],
    [1732,1525539897,57.3489,-111.7812,468.4,166.4,265.0,0.6,1.9,11.69,46.77,713.6732,140.0053],
    [1733,1525539898,57.3489,-111.7824,467.7,167.7,266.7,0.5,-0.2,11.29,46.69,713.5156,140.0036],
    [1734,1525539899,57.3488,-111.7836,466.8,167.8,264.9,0.0,-0.3,11.36,46.85,713.384,140.0069],
    [1735,1525539900,57.3487,-111.7847,466.0,167.0,260.7,-0.1,0.6,11.63,46.39,713.2018,139.9996],
    [1736,1525539901,57.3486,-111.7858,465.2,166.2,253.8,-0.1,2.0,11.42,46.35,713.1228,140.0003],
    [1737,1525539902,57.3484,-111.7869,465.3,166.6,245.7,0.0,2.3,11.47,46.28,713.0959,140.0024],
    [1738,1525539903,57.3481,-111.7879,467.4,168.7,236.9,0.0,1.9,11.5,46.26,713.0312,139.9963],
    [1739,1525539904,57.3478,-111.7889,469.7,169.6,228.7,-0.4,2.2,12.11,46.16,712.9361,139.9941],
    [1740,1525539905,57.3473,-111.7897,471.8,171.8,221.7,-0.4,2.2,11.12,46.34,712.9243,139.9982],
    [1741,1525539906,57.3469,-111.7904,472.9,172.9,215.6,-0.5,2.6,11.77,46.22,712.9407,139.996],
    [1742,1525539907,57.3464,-111.7911,473.2,173.2,208.4,-0.8,2.6,11.86,46.27,713.0365,140.0035],
    [1743,1525539908,57.3458,-111.7915,473.8,173.8,201.3,-0.6,2.4,11.83,46.38,713.2357,139.9955],
    [1744,1525539909,57.3453,-111.7919,474.8,174.7,193.8,-1.1,3.1,12.25,46.27,713.2847,140.0033],
    [1745,1525539910,57.3447,-111.7921,475.3,174.3,188.7,-1.1,3.1,11.84,46.66,713.3174,140.0013],
    [1746,1525539911,57.3441,-111.7923,474.9,173.1,183.8,-1.3,2.7,11.98,46.37,713.5742,139.9951],
    [1747,1525539912,57.3435,-111.7923,473.4,171.1,178.4,-2.9,2.0,11.7,46.92,713.6599,139.9998],
    [1748,1525539913,57.3429,-111.7923,471.0,167.0,176.7,-1.9,2.2,11.67,46.66,713.7642,139.999],
    [1749,1525539914,57.3423,-111.7923,469.8,164.1,175.2,-2.8,3.0,11.68,46.59,713.892,140.0025],
    [1750,1525539915,57.3417,-111.7922,469.3,162.2,176.7,-1.1,3.6,11.73,46.77,713.9226,140.0029],
    [1751,1525539916,57.3411,-111.7922,467.9,159.9,179.3,1.0,3.1,11.79,47.29,713.9921,139.9985],
    [1752,1525539917,57.3405,-111.7921,466.1,157.1,178.9,-0.1,3.4,11.33,46.79,714.0009,140.0004],
    [1753,1525539918,57.3399,-111.7921,464.8,155.8,180.4,1.1,3.0,12.13,46.01,713.8996,140.0002],
    [1754,1525539919,57.3393,-111.7921,463.8,154.8,180.5,0.6,2.9,12.18,46.46,713.8689,140.0056],
    [1755,1525539920,57.3387,-111.7921,462.8,153.8,179.8,-0.4,3.1,11.37,46.68,713.8814,139.9975],
    [1756,1525539921,57.3381,-111.7921,462.3,153.3,180.3,0.1,3.5,11.15,46.65,713.8433,140.005],
    [1757,1525539922,57.3375,-111.7921,461.9,152.9,180.8,0.5,3.2,11.45,46.64,713.8411,140.0051],
    [1758,1525539923,57.3369,-111.7921,462.6,152.6,180.3,0.0,2.8,11.49,46.64,713.9059,140.0025],
    [1759,1525539924,57.3363,-111.7921,463.2,153.2,180.4,-0.1,2.9,11.2,46.53,713.8681,140.0004],
    [1760,1525539925,57.3357,-111.7922,463.4,153.4,181.0,0.2,2.6,11.37,46.25,713.7678,139.9989],
    [1761,1525539926,57.335,-111.7922,463.4,153.4,180.8,-0.4,1.9,11.74,46.29,713.7082,139.998],
    [1762,1525539927,57.3344,-111.7922,463.7,154.8,180.1,-1.0,1.8,11.94,45.74,713.5167,139.9977],
    [1763,1525539928,57.3339,-111.7922,463.5,155.5,180.7,-0.5,2.1,11.68,46.28,713.4737,140.0054],
    [1764,1525539929,57.3332,-111.7922,463.3,157.2,180.2,-1.2,1.7,11.73,46.57,713.3933,139.9933],
    [1765,1525539930,57.3326,-111.7923,464.2,159.3,180.8,-0.6,1.6,11.85,46.03,713.3759,140.0087],
    [1766,1525539931,57.3321,-111.7923,465.6,160.7,180.4,-1.2,2.6,11.65,46.35,712.9797,140.013],
    [1767,1525539932,57.3314,-111.7923,467.0,159.4,181.7,0.4,2.5,12.51,46.1,712.4465,139.9982],
    [1768,1525539933,57.3308,-111.7923,467.6,157.6,181.3,0.1,2.3,11.66,46.26,712.1404,140.0036],
    [1769,1525539934,57.3302,-111.7924,467.9,157.9,181.3,1.2,2.6,11.65,46.6,711.3334,139.9987],
    [1770,1525539935,57.3296,-111.7924,468.6,158.6,179.1,0.9,2.3,11.41,46.31,711.0058,140.003],
    [1771,1525539936,57.3289,-111.7923,471.3,161.3,173.6,-0.6,2.9,12.14,46.55,710.558,140.0021],
    [1772,1525539937,57.3283,-111.7921,477.0,167.0,170.1,0.8,3.7,11.68,46.84,709.9226,139.9983],
    [1773,1525539938,57.3278,-111.7919,484.2,174.2,164.8,-0.3,3.5,11.61,46.81,709.7513,139.9983],
    [1774,1525539939,57.3272,-111.7915,491.6,181.6,159.2,-0.8,3.4,11.47,46.68,709.401,139.9936],
    [1775,1525539940,57.3267,-111.7911,498.2,188.2,155.3,-0.1,3.2,11.3,46.65,709.1132,140.0047],
    [1776,1525539941,57.3262,-111.7906,503.8,193.8,150.4,-0.2,1.9,11.58,46.6,708.9819,139.9916],
    [1777,1525539942,57.3258,-111.79,508.8,198.8,143.8,-1.4,1.3,12.0,46.54,708.8672,140.0004],
    [1778,1525539943,57.3253,-111.7894,513.2,203.2,139.5,-1.0,1.7,11.75,47.53,708.7763,139.9933],
    [1779,1525539944,57.3249,-111.7887,516.8,206.8,134.9,-1.4,2.9,11.91,47.06,708.846,139.9923],
    [1780,1525539945,57.3245,-111.7879,520.0,211.0,129.9,0.2,2.0,11.75,47.61,709.0378,139.9963],
    [1781,1525539946,57.3242,-111.7871,522.1,213.1,124.5,0.4,1.4,11.99,47.51,709.2113,139.9917],
    [1782,1525539947,57.3239,-111.7862,523.3,215.3,118.7,-0.1,1.4,11.61,48.49,709.3736,139.9908],
    [1783,1525539948,57.3237,-111.7852,524.2,216.2,112.1,-0.4,0.6,11.75,48.07,709.6692,139.9967],
    [1784,1525539949,57.3235,-111.7843,524.0,217.0,107.5,0.5,0.6,11.95,47.99,709.8955,139.9999],
    [1785,1525539950,57.3234,-111.7833,522.0,215.9,103.3,1.9,1.2,11.72,48.02,709.9811,139.9997],
    [1786,1525539951,57.3233,-111.7822,519.5,213.5,98.9,0.9,1.6,11.18,48.09,710.0162,140.0087],
    [1787,1525539952,57.3232,-111.7812,516.8,211.8,94.6,-0.7,0.6,12.02,48.06,710.0263,139.9915],
    [1788,1525539953,57.3232,-111.7801,513.9,209.9,92.5,-0.3,0.8,11.65,48.59,709.9893,139.995],
    [1789,1525539954,57.3232,-111.779,510.5,206.5,92.2,-0.5,2.1,11.84,47.87,709.7842,139.9943],
    [1790,1525539955,57.3232,-111.7779,508.7,205.7,91.9,-0.8,2.6,12.28,48.02,709.7107,140.0036],
    [1791,1525539956,57.3232,-111.7768,508.6,206.6,90.9,-0.4,1.5,11.87,48.19,709.6346,140.0054],
    [1792,1525539957,57.3232,-111.7757,508.5,207.2,91.4,-1.5,2.1,11.22,48.47,709.4241,140.0019],
    [1793,1525539958,57.3232,-111.7747,509.2,208.2,92.6,-1.4,2.3,11.55,48.75,709.4557,139.9963],
    [1794,1525539959,57.3232,-111.7736,510.5,210.5,93.8,-2.1,2.2,11.73,48.91,709.3719,139.994],
    [1795,1525539960,57.3232,-111.7725,511.9,211.9,96.2,-1.9,3.0,12.04,48.33,709.3255,139.9972],
    [1796,1525539961,57.3231,-111.7714,513.4,213.4,97.2,-0.8,2.0,11.43,48.88,709.3816,140.0003],
    [1797,1525539962,57.3231,-111.7704,515.1,216.1,98.9,-0.4,2.8,11.59,49.12,709.3967,140.0011],
    [1798,1525539963,57.323,-111.7692,515.4,216.4,101.2,-0.1,4.1,11.64,48.97,709.3617,139.9983],
    [1799,1525539964,57.3229,-111.7681,515.9,216.9,100.5,-1.6,3.2,10.93,49.19,709.4182,140.0017],
    [1800,1525539965,57.3228,-111.7671,516.6,218.6,101.8,-0.8,4.6,11.81,48.94,709.4794,139.9973],
    [1801,1525539966,57.3227,-111.7659,516.5,218.5,100.1,-0.4,3.4,11.43,49.36,709.5374,140.0009],
    [1802,1525539967,57.3227,-111.7649,516.3,218.3,98.0,-0.7,3.0,11.76,48.47,709.6884,139.9974],
    [1803,1525539968,57.3226,-111.7638,516.4,218.4,96.7,-0.5,3.3,11.85,48.9,709.813,139.9986],
    [1804,1525539969,57.3226,-111.7627,516.1,216.8,94.6,-0.2,2.7,11.44,49.13,709.8624,140.0007],
    [1805,1525539970,57.3226,-111.7615,514.9,214.9,93.1,-0.1,2.6,11.38,49.44,709.9121,139.997],
    [1806,1525539971,57.3226,-111.7604,513.5,212.5,90.8,-1.1,1.4,11.47,49.22,709.9854,140.0013],
    [1807,1525539972,57.3226,-111.7594,512.3,210.3,90.8,-0.9,2.6,11.44,49.99,709.9487,140.0],
    [1808,1525539973,57.3226,-111.7582,510.9,208.9,90.3,-1.1,2.8,11.74,49.5,709.913,139.9998],
    [1809,1525539974,57.3226,-111.7571,510.2,208.2,88.8,-0.7,2.1,11.49,49.62,709.903,139.9995],
    [1810,1525539975,57.3227,-111.756,509.7,207.7,87.8,-0.7,1.6,11.43,49.76,709.8933,140.0054],
    [1811,1525539976,57.3227,-111.7548,508.9,206.9,88.1,-0.6,2.3,11.55,49.6,709.873,140.0001],
    [1812,1525539977,57.3227,-111.7537,508.6,206.6,88.1,-0.5,2.0,11.48,49.78,709.8789,139.9989],
    [1813,1525539978,57.3228,-111.7525,509.1,207.1,88.1,-0.9,1.4,11.27,50.02,709.8768,140.0001],
    [1814,1525539979,57.3228,-111.7514,509.4,208.4,89.7,-1.2,2.0,11.28,50.06,709.8853,139.9967],
    [1815,1525539980,57.3228,-111.7502,509.7,209.4,91.1,-1.0,2.4,11.37,50.41,709.8744,140.0035],
    [1816,1525539981,57.3228,-111.7491,510.0,210.5,92.3,-0.6,2.6,11.56,49.8,709.8529,140.0045],
    [1817,1525539982,57.3228,-111.748,510.0,211.9,92.1,-0.5,2.2,11.5,49.86,709.673,140.0012],
    [1818,1525539983,57.3228,-111.747,509.9,211.9,92.8,-1.3,2.8,11.32,50.06,709.5454,140.0059],
    [1819,1525539984,57.3228,-111.7458,509.6,213.3,92.7,-1.7,2.9,11.33,50.23,709.401,139.995],
    [1820,1525539985,57.3228,-111.7446,509.7,214.7,91.8,-0.6,2.1,11.34,50.5,709.3478,139.9998],
    [1821,1525539986,57.3228,-111.7434,510.4,217.5,91.6,-0.5,2.4,11.3,49.91,709.3248,140.0013],
    [1822,1525539987,57.3228,-111.7423,511.9,218.9,91.8,-0.4,2.9,11.29,49.68,709.3184,139.999],
    [1823,1525539988,57.3228,-111.7412,513.7,221.7,91.2,0.1,2.5,10.94,49.63,709.2005,140.0029],
    [1824,1525539989,57.3228,-111.74,515.1,223.1,91.3,0.2,2.8,11.32,49.76,709.1644,140.0056],
    [1825,1525539990,57.3228,-111.7389,516.0,225.0,90.6,0.1,2.3,11.42,50.26,709.2964,139.9998],
    [1826,1525539991,57.3229,-111.7377,516.4,226.4,90.2,-0.2,2.4,11.64,49.76,709.3039,140.0007],
    [1827,1525539992,57.3229,-111.7366,516.3,227.3,90.1,-0.3,2.8,11.97,49.26,709.2667,139.9996],
    [1828,1525539993,57.3229,-111.7354,516.9,228.9,89.3,-0.8,3.7,11.88,49.48,709.1935,139.9969],
    [1829,1525539994,57.323,-111.7344,517.4,230.4,88.2,-0.7,5.2,11.12,49.8,709.0799,139.989],
    [1830,1525539995,57.3231,-111.7332,516.8,229.8,83.0,-0.6,4.2,11.36,50.15,709.0604,139.9957],
    [1831,1525539996,57.3232,-111.7321,516.5,229.5,75.4,-0.1,3.1,11.55,49.99,709.1112,139.9917],
    [1832,1525539997,57.3234,-111.731,516.9,230.9,68.8,-0.2,3.2,11.31,50.59,709.1892,139.9917],
    [1833,1525539998,57.3237,-111.73,517.5,231.5,62.0,-0.3,3.3,11.18,51.05,709.328,140.0],
    [1834,1525539999,57.324,-111.7291,518.5,232.5,54.7,-1.1,2.7,11.04,51.21,709.4605,139.996],
    [1835,1525540000,57.3245,-111.7282,519.0,233.0,47.9,-1.2,2.3,11.12,51.14,709.7113,139.9985],
    [1836,1525540001,57.325,-111.7273,518.3,232.3,40.8,-1.1,1.2,11.23,51.91,709.8585,140.0018],
    [1837,1525540002,57.3255,-111.7266,517.5,232.5,35.1,-0.9,1.2,11.11,52.09,709.9566,140.0053],
    [1838,1525540003,57.326,-111.7261,516.3,231.3,31.7,-1.9,1.7,11.26,52.47,709.9975,140.0032],
    [1839,1525540004,57.3266,-111.7255,513.9,228.9,27.1,-1.9,1.6,11.26,52.84,710.139,140.0007],
    [1840,1525540005,57.3272,-111.725,511.4,226.4,20.6,-0.8,1.6,11.75,52.94,710.3063,139.9977],
    [1841,1525540006,57.3278,-111.7247,509.5,225.5,14.4,0.3,1.9,11.17,53.69,710.5506,139.9932],
    [1842,1525540007,57.3285,-111.7244,508.6,225.4,9.1,1.3,2.8,10.8,53.24,710.8691,140.0002],
    [1843,1525540008,57.3291,-111.7243,507.9,224.9,5.9,0.8,2.8,11.6,52.72,711.1479,139.9973],
    [1844,1525540009,57.3298,-111.7241,506.4,224.3,3.6,0.4,2.5,11.04,52.8,711.3666,139.998],
    [1845,1525540010,57.3304,-111.7241,504.4,222.4,361.0,1.0,2.6,11.09,53.04,711.5328,140.0013],
    [1846,1525540011,57.331,-111.7241,502.4,220.4,359.9,0.9,2.2,10.94,52.8,711.5743,140.0027],
    [1847,1525540012,57.3317,-111.7241,499.0,217.9,360.0,0.3,2.5,11.25,52.31,711.5286,139.9972],
    [1848,1525540013,57.3324,-111.7241,495.5,214.7,359.8,0.9,2.6,10.96,51.97,711.5109,139.9987],
    [1849,1525540014,57.333,-111.724,492.8,212.8,360.9,0.2,2.5,11.09,51.96,711.5076,140.0039],
    [1850,1525540015,57.3338,-111.724,490.1,211.1,361.9,0.0,2.7,11.15,51.85,711.5361,140.0032],
    [1851,1525540016,57.3345,-111.724,489.2,211.9,2.7,0.2,2.3,11.08,51.65,711.5443,140.0012],
    [1852,1525540017,57.3351,-111.7239,489.4,212.3,4.3,-0.3,2.4,11.3,51.9,711.5273,140.0042],
    [1853,1525540018,57.3358,-111.7238,489.8,214.8,5.7,-1.1,2.3,10.77,51.14,711.4479,139.9929],
    [1854,1525540019,57.3364,-111.7237,489.9,214.9,6.2,-1.1,2.3,11.09,51.33,711.1728,139.9952],
    [1855,1525540020,57.3371,-111.7236,490.1,215.4,6.1,-0.6,2.8,10.78,50.7,710.9235,140.0065],
    [1856,1525540021,57.3378,-111.7235,490.0,215.0,5.8,0.1,2.9,10.91,50.33,710.7744,139.9965],
    [1857,1525540022,57.3385,-111.7233,490.2,216.6,6.0,-0.1,2.3,11.11,50.27,710.5535,140.0035],
    [1858,1525540023,57.339,-111.7232,490.2,217.1,6.4,-0.5,2.8,11.6,49.99,710.4874,140.004],
    [1859,1525540024,57.3396,-111.7231,492.3,218.9,7.0,-1.4,2.1,11.1,49.95,710.1054,140.0023],
    [1860,1525540025,57.3404,-111.723,496.2,223.2,5.7,-0.2,2.3,11.13,50.3,709.851,140.0028],
    [1861,1525540026,57.3411,-111.7229,499.0,225.9,5.5,-1.0,3.1,11.38,49.8,709.4446,140.0075],
    [1862,1525540027,57.3418,-111.7228,501.0,231.5,4.4,-1.4,3.4,11.21,50.27,709.0319,140.0059],
    [1863,1525540028,57.3425,-111.7227,503.1,236.5,360.2,-0.2,2.9,11.29,49.73,708.7741,140.0001],
    [1864,1525540029,57.3431,-111.7228,506.0,240.4,356.5,-0.1,2.5,10.97,49.85,708.5549,139.994],
    [1865,1525540030,57.3438,-111.7229,510.4,242.4,352.0,-0.5,2.3,11.16,49.53,708.4617,139.9977],
    [1866,1525540031,57.3444,-111.7231,515.2,244.9,347.0,-0.4,2.8,11.33,49.08,708.5235,140.0018],
    [1867,1525540032,57.345,-111.7234,519.7,247.4,341.7,-0.3,2.8,11.3,49.35,708.6242,140.0026],
    [1868,1525540033,57.3456,-111.7238,523.3,251.0,336.4,-0.1,3.3,11.45,49.05,708.6671,139.9963],
    [1869,1525540034,57.3461,-111.7243,526.2,253.1,331.1,0.0,2.7,11.28,48.41,708.6632,139.9978],
    [1870,1525540035,57.3467,-111.7249,527.2,252.9,326.2,-0.2,2.8,11.24,48.45,708.6946,139.9994],
    [1871,1525540036,57.3472,-111.7255,526.9,252.9,320.2,0.7,3.2,11.03,48.06,708.6051,140.0018],
    [1872,1525540037,57.3477,-111.7264,525.3,251.7,313.6,0.5,3.4,10.89,48.21,708.5362,140.0028],
    [1873,1525540038,57.3481,-111.7272,524.1,251.7,307.3,1.4,3.0,11.93,47.74,708.5096,140.0046],
    [1874,1525540039,57.3485,-111.7281,524.0,254.1,302.3,1.2,2.4,11.37,47.96,708.5316,140.0019],
    [1875,1525540040,57.3488,-111.7291,524.3,253.3,297.7,1.3,2.1,11.67,48.29,708.5565,139.999],
    [1876,1525540041,57.3491,-111.7301,525.1,253.1,293.3,2.4,2.5,11.01,48.34,708.481,139.9974],
    [1877,1525540042,57.3493,-111.7311,525.7,253.5,290.0,1.6,2.4,11.28,48.42,708.831,139.9987],
    [1878,1525540043,57.3496,-111.7322,526.5,252.5,287.2,1.1,2.1,11.2,47.86,709.1084,139.9996],
    [1879,1525540044,57.3498,-111.7333,526.5,250.7,283.8,0.7,3.0,11.19,47.94,709.3479,140.0048],
    [1880,1525540045,57.3499,-111.7344,526.3,248.4,281.4,0.9,2.9,11.29,48.56,709.5784,139.995],
    [1881,1525540046,57.35,-111.7355,526.0,247.7,278.7,1.4,3.3,11.27,47.96,709.7623,139.9991],
    [1882,1525540047,57.3502,-111.7366,524.0,244.8,277.2,1.2,3.0,11.23,48.61,710.2374,139.9986],
    [1883,1525540048,57.3503,-111.7378,520.6,239.5,274.2,1.0,3.5,11.11,47.79,710.4822,140.0007],
    [1884,1525540049,57.3503,-111.7389,517.3,235.2,271.2,1.6,4.1,11.17,48.24,710.5284,140.0034],
    [1885,1525540050,57.3504,-111.7401,513.6,230.6,269.7,1.7,3.3,11.35,46.98,710.8649,139.999],
    [1886,1525540051,57.3504,-111.7412,510.1,226.1,267.7,1.2,3.5,11.05,47.85,710.9346,140.0003],
    [1887,1525540052,57.3504,-111.7423,506.8,222.5,265.7,0.7,3.6,11.03,48.07,710.9641,139.9999],
    [1888,1525540053,57.3503,-111.7435,503.8,218.8,264.7,0.4,3.3,11.03,47.3,711.0699,139.9901],
    [1889,1525540054,57.3503,-111.7447,500.1,214.1,262.5,-0.4,4.9,11.21,47.24,711.1707,140.0009],
    [1890,1525540055,57.3503,-111.7459,497.8,210.0,262.3,-0.5,4.7,10.98,47.53,711.177,139.9989],
    [1891,1525540056,57.3502,-111.747,496.9,208.8,262.2,-0.8,4.6,11.13,47.65,711.1787,140.0019],
    [1892,1525540057,57.3502,-111.7482,496.4,207.3,262.7,-0.8,4.2,11.44,47.52,711.0954,140.0067],
    [1893,1525540058,57.3501,-111.7495,495.2,204.5,264.8,0.3,3.0,11.43,47.51,711.1362,139.9944],
    [1894,1525540059,57.3501,-111.7506,494.1,202.1,265.3,-0.1,3.4,10.94,47.75,711.1409,139.9919],
    [1895,1525540060,57.3501,-111.7519,493.5,200.5,266.3,0.6,3.4,11.1,48.29,711.1559,140.0039],
    [1896,1525540061,57.3501,-111.753,493.7,199.7,267.3,-0.5,2.9,11.51,48.22,711.0763,140.0028],
    [1897,1525540062,57.3501,-111.7543,494.2,199.2,269.0,-0.4,1.7,11.03,48.47,710.9474,139.9972],
    [1898,1525540063,57.3501,-111.7554,494.2,198.2,268.2,0.1,3.2,11.91,48.26,710.7882,140.0018],
    [1899,1525540064,57.3501,-111.7566,494.2,198.2,269.8,0.1,1.7,10.97,48.96,710.7797,140.0013],
    [1900,1525540065,57.3501,-111.7579,494.1,198.1,270.4,-0.3,1.3,11.27,48.5,710.6835,139.9955],
    [1901,1525540066,57.3501,-111.7591,494.5,198.5,270.0,0.1,1.7,11.71,48.14,710.5405,140.0051],
    [1902,1525540067,57.3501,-111.7603,495.5,199.5,269.8,0.7,1.6,11.04,48.66,710.3829,140.0032],
    [1903,1525540068,57.3502,-111.7614,497.0,201.0,269.9,0.5,1.1,10.65,47.78,710.1025,140.0002],
    [1904,1525540069,57.3502,-111.7627,498.2,202.2,269.7,0.1,0.9,11.56,47.49,709.9921,140.0001],
    [1905,1525540070,57.3502,-111.7638,498.7,202.7,268.1,0.5,2.2,10.65,47.77,709.892,140.0016],
    [1906,1525540071,57.3502,-111.765,500.4,205.2,267.1,0.0,2.5,10.85,47.86,709.7047,139.9996],
    [1907,1525540072,57.3501,-111.7663,502.8,210.5,266.3,-0.6,3.0,11.37,47.45,709.5862,139.9976],
    [1908,1525540073,57.3501,-111.7675,505.3,214.6,265.5,-0.1,3.4,11.34,47.72,709.5082,139.9987],
    [1909,1525540074,57.3501,-111.7687,507.2,215.5,265.6,-0.2,2.9,10.66,47.73,709.4193,139.9998],
    [1910,1525540075,57.3501,-111.7699,508.9,215.6,265.3,0.2,3.2,10.6,47.8,709.3704,140.0],
    [1911,1525540076,57.3501,-111.771,510.5,215.6,264.7,0.4,3.8,11.19,47.79,709.2859,139.9955],
    [1912,1525540077,57.35,-111.7722,512.0,215.0,265.0,0.3,3.7,11.95,47.01,709.198,140.0005],
    [1913,1525540078,57.35,-111.7733,513.4,215.6,266.5,0.3,2.2,11.36,47.34,708.9571,140.0002],
    [1914,1525540079,57.35,-111.7745,514.4,216.4,266.8,-0.1,2.5,11.24,47.03,708.7362,140.0046],
    [1915,1525540080,57.35,-111.7757,515.2,216.2,267.0,-0.2,2.9,11.41,46.92,708.5204,140.003],
    [1916,1525540081,57.35,-111.7768,515.8,215.8,268.0,0.3,2.5,11.15,47.7,708.4539,139.9916],
    [1917,1525540082,57.35,-111.778,516.8,215.8,268.3,0.6,3.1,11.18,47.45,708.6463,139.9984],
    [1918,1525540083,57.35,-111.7792,519.0,217.0,268.8,-0.4,2.6,11.24,47.94,708.6971,140.0047],
    [1919,1525540084,57.35,-111.7803,522.1,219.1,270.7,-1.0,1.1,11.11,47.82,708.6942,140.0105],
    [1920,1525540085,57.35,-111.7815,524.9,220.9,269.7,-1.8,1.9,11.23,48.41,708.5464,140.0052],
    [1921,1525540086,57.35,-111.7826,525.9,220.9,269.1,-1.0,1.5,11.34,47.74,708.3633,140.0011],
    [1922,1525540087,57.35,-111.7838,524.6,219.7,266.2,-0.2,2.2,10.76,47.9,708.2016,140.0025],
    [1923,1525540088,57.35,-111.7849,523.1,218.0,260.9,0.4,2.6,11.16,47.97,708.0679,140.0078],
    [1924,1525540089,57.3499,-111.7858,522.5,217.5,255.6,0.4,3.0,11.28,48.3,707.9127,140.0002],
    [1925,1525540090,57.3497,-111.7869,523.3,219.7,247.6,0.3,3.0,11.09,48.02,708.0869,140.0009],
    [1926,1525540091,57.3494,-111.7881,526.0,226.4,239.0,0.5,2.8,11.24,47.96,708.2053,140.0026],
    [1927,1525540092,57.3491,-111.789,528.3,230.1,230.9,0.6,3.8,11.15,47.61,708.3885,139.9956],
    [1928,1525540093,57.3487,-111.7898,530.1,232.1,223.5,-0.2,3.5,11.0,47.73,708.5757,139.9995],
    [1929,1525540094,57.3482,-111.7906,532.2,233.2,216.4,0.2,3.6,11.02,47.71,708.8263,139.9955],
    [1930,1525540095,57.3478,-111.7913,531.8,231.8,212.0,0.8,3.3,11.04,47.72,708.8879,139.9946],
    [1931,1525540096,57.3473,-111.7918,530.0,229.0,206.3,0.8,2.6,11.07,47.67,709.0211,140.0035],
    [1932,1525540097,57.3467,-111.7922,527.5,226.5,198.8,-0.7,2.8,10.98,47.83,709.1208,139.9937],
    [1933,1525540098,57.3461,-111.7925,524.6,223.7,191.3,-2.0,3.6,10.54,48.03,709.2956,140.0024],
    [1934,1525540099,57.3456,-111.7927,522.8,221.9,187.1,-0.9,3.0,11.3,48.26,709.4736,139.9929],
    [1935,1525540100,57.345,-111.7929,521.5,219.5,184.3,0.0,3.1,11.48,47.46,709.6033,140.0041],
    [1936,1525540101,57.3444,-111.7929,519.8,217.8,179.5,-1.5,2.9,11.23,48.23,709.694,140.004],
    [1937,1525540102,57.3438,-111.7929,518.0,216.0,176.5,-1.8,2.8,11.2,48.0,709.6661,140.0078],
    [1938,1525540103,57.3432,-111.7928,516.8,213.9,175.7,-1.1,3.1,11.06,47.91,709.6059,139.9993],
    [1939,1525540104,57.3426,-111.7928,514.9,210.7,175.2,-1.0,3.3,10.73,47.93,709.4105,140.0026],
    [1940,1525540105,57.342,-111.7927,513.2,207.2,176.1,0.1,2.9,11.24,48.38,709.2687,139.9881],
    [1941,1525540106,57.3413,-111.7926,511.8,203.8,176.7,0.4,3.0,10.99,48.09,709.1904,140.0009],
    [1942,1525540107,57.3407,-111.7925,511.4,202.4,176.4,0.0,2.2,11.26,47.74,709.0819,139.9996],
    [1943,1525540108,57.3401,-111.7924,512.2,203.2,177.5,0.9,2.3,11.12,47.75,708.9588,140.005],
    [1944,1525540109,57.3395,-111.7924,513.9,204.9,177.6,0.4,2.2,11.1,48.31,708.8293,140.002],
    [1945,1525540110,57.339,-111.7923,515.3,206.3,177.8,0.5,3.3,11.21,47.76,708.5773,139.9983],
    [1946,1525540111,57.3383,-111.7923,516.6,207.6,178.5,0.7,3.6,11.15,47.74,708.4569,139.9948],
    [1947,1525540112,57.3377,-111.7922,517.7,208.7,177.3,-0.9,3.2,11.93,47.17,708.4331,139.9967],
    [1948,1525540113,57.3371,-111.7922,518.9,209.9,177.8,-0.9,3.7,11.38,47.39,708.4404,140.0032],
    [1949,1525540114,57.3365,-111.7922,521.4,211.4,177.8,-1.1,3.4,10.96,47.59,708.4798,139.9944],
    [1950,1525540115,57.3359,-111.7922,524.0,214.0,178.4,-0.5,3.0,11.2,47.62,708.5207,139.9954],
    [1951,1525540116,57.3353,-111.7921,525.8,215.8,179.2,0.3,2.8,10.94,48.03,708.5901,140.0039],
    [1952,1525540117,57.3347,-111.7921,526.4,216.4,178.9,-0.1,2.5,11.51,47.45,708.6732,140.0006],
    [1953,1525540118,57.3341,-111.7921,526.4,218.1,178.1,-1.1,2.2,11.24,48.57,708.7403,140.0047],
    [1954,1525540119,57.3336,-111.7921,526.1,219.4,178.6,-0.7,2.7,11.27,48.56,708.7355,139.9899],
    [1955,1525540120,57.3329,-111.7921,525.2,220.2,179.9,0.5,3.4,11.16,48.02,708.6847,140.0031],
    [1956,1525540121,57.3323,-111.7921,524.5,219.9,180.0,0.9,3.2,11.69,47.71,708.6342,140.0044],
    [1957,1525540122,57.3317,-111.792,523.7,217.5,180.1,1.2,2.8,11.42,48.01,708.6201,139.9998],
    [1958,1525540123,57.3311,-111.792,523.0,214.0,179.4,0.6,3.1,10.96,48.43,708.5555,140.0016],
    [1959,1525540124,57.3305,-111.792,522.2,212.2,179.4,0.7,3.1,10.94,47.96,708.4138,140.0001],
    [1960,1525540125,57.3299,-111.792,522.6,212.6,178.7,-0.1,2.8,11.07,47.98,708.0758,140.0067],
    [1961,1525540126,57.3293,-111.7919,523.7,213.7,177.7,-1.0,2.9,11.76,47.74,707.7592,140.0155],
    [1962,1525540127,57.3287,-111.7919,524.3,214.3,178.6,0.2,2.9,11.37,48.39,707.3214,139.9992],
    [1963,1525540128,57.3281,-111.7919,524.7,214.7,178.0,0.8,1.9,10.9,47.99,706.5747,140.0042],
    [1964,1525540129,57.3275,-111.7918,525.7,215.7,176.5,1.6,1.7,11.13,48.21,705.9623,139.9984],
    [1965,1525540130,57.3269,-111.7917,527.8,217.8,171.3,0.5,2.3,11.04,48.09,705.6652,140.0003],
    [1966,1525540131,57.3263,-111.7914,531.6,221.6,164.1,-1.2,3.0,10.98,48.37,704.9389,140.0069],
    [1967,1525540132,57.3257,-111.7911,537.1,227.1,158.3,-0.3,3.2,11.23,48.42,704.8701,140.0042],
    [1968,1525540133,57.3252,-111.7906,545.4,235.4,150.3,-1.7,2.5,11.34,48.37,704.2709,139.9845],
    [1969,1525540134,57.3247,-111.79,553.9,243.9,144.5,-1.0,2.3,10.81,48.67,704.0689,139.9897],
    [1970,1525540135,57.3243,-111.7894,560.7,250.7,139.2,-0.5,2.3,11.0,48.72,704.0583,139.993],
    [1971,1525540136,57.3239,-111.7887,566.0,256.0,134.0,0.4,2.2,11.21,49.21,704.1772,139.9895],
    [1972,1525540137,57.3235,-111.7878,571.4,262.4,126.6,0.4,2.4,11.12,48.95,704.5137,140.0031],
    [1973,1525540138,57.3233,-111.7871,575.5,266.5,120.2,0.5,2.4,11.57,48.64,704.5006,140.0018],
    [1974,1525540139,57.323,-111.786,579.5,271.5,114.3,1.3,2.5,11.27,48.76,704.4513,140.0021],
    [1975,1525540140,57.3229,-111.785,579.7,271.7,108.8,0.5,1.8,11.33,48.55,704.2669,139.9977],
    [1976,1525540141,57.3227,-111.784,577.9,270.9,103.5,0.3,1.7,11.15,48.94,704.0637,139.996],
    [1977,1525540142,57.3226,-111.783,575.2,269.2,99.8,0.6,2.1,11.08,48.46,703.9414,139.9993],
    [1978,1525540143,57.3226,-111.7819,573.3,267.5,94.4,0.0,0.6,11.1,48.59,703.8054,140.0008],
    [1979,1525540144,57.3225,-111.7809,573.7,268.7,90.9,0.0,0.2,11.83,48.24,703.7378,139.9968],
    [1980,1525540145,57.3225,-111.7797,575.7,271.7,90.5,0.2,1.6,11.19,48.77,703.6937,139.9965],
    [1981,1525540146,57.3226,-111.7787,578.1,274.1,89.1,0.1,1.0,11.27,48.89,703.65,139.9933],
    [1982,1525540147,57.3226,-111.7776,580.2,277.2,89.1,0.4,0.9,10.95,49.03,703.6467,139.9989],
    [1983,1525540148,57.3226,-111.7766,581.8,279.8,89.4,0.4,0.5,11.27,49.65,703.5644,140.0062],
    [1984,1525540149,57.3226,-111.7755,583.2,282.2,91.1,0.3,1.6,10.94,49.36,703.4758,140.0057],
    [1985,1525540150,57.3226,-111.7744,583.6,282.6,92.7,-0.2,2.5,11.36,49.94,703.248,139.9994],
    [1986,1525540151,57.3226,-111.7734,584.2,284.2,92.7,-0.8,2.0,11.25,50.03,703.2778,140.0011],
    [1987,1525540152,57.3226,-111.7723,584.1,284.1,93.1,-0.3,2.2,11.16,50.57,703.3585,139.9978],
    [1988,1525540153,57.3226,-111.7712,584.4,284.4,94.0,0.3,2.6,11.19,50.91,703.4671,139.9958],
    [1989,1525540154,57.3225,-111.7702,585.9,286.9,94.3,0.5,2.6,10.79,50.46,703.5447,139.9969],
    [1990,1525540155,57.3225,-111.7691,588.0,289.0,95.2,0.9,3.2,11.94,50.34,703.6865,139.9949],
    [1991,1525540156,57.3225,-111.768,588.1,289.1,94.0,0.4,1.9,11.43,50.75,703.7991,139.9985],
    [1992,1525540157,57.3225,-111.767,587.2,288.2,93.4,0.4,1.6,11.05,51.11,703.8905,140.001],
    [1993,1525540158,57.3225,-111.7659,586.2,288.2,94.0,0.2,2.5,11.06,50.57,703.9584,139.9982],
    [1994,1525540159,57.3224,-111.7648,585.2,287.2,94.1,0.7,2.8,11.14,50.65,704.0048,139.9981],
    [1995,1525540160,57.3224,-111.7637,583.7,285.7,92.7,-0.3,2.0,11.07,50.74,704.1809,139.9968],
    [1996,1525540161,57.3224,-111.7626,582.1,282.8,93.4,-0.1,3.0,10.84,50.88,704.2706,140.0018],
    [1997,1525540162,57.3224,-111.7615,580.9,280.9,92.4,0.2,2.2,10.8,50.87,704.3552,139.9966],
    [1998,1525540163,57.3224,-111.7604,580.2,279.2,91.5,0.2,1.5,11.29,50.7,704.3976,139.9963],
    [1999,1525540164,57.3224,-111.7593,579.1,277.1,91.5,-0.2,1.7,10.47,50.86,704.3846,139.9994],
    [2000,1525540165,57.3224,-111.7582,577.9,275.9,91.6,0.0,2.3,10.79,51.0,704.42,139.998],
    [2001,1525540166,57.3224,-111.757,576.5,274.5,92.3,0.8,3.2,11.48,50.82,704.4803,140.0025],
    [2002,1525540167,57.3224,-111.756,575.2,273.2,90.8,0.5,1.9,11.35,50.43,704.5271,139.9986],
    [2003,1525540168,57.3224,-111.7548,574.5,272.5,90.2,0.4,1.7,10.63,51.0,704.5553,139.9953],
    [2004,1525540169,57.3224,-111.7537,574.3,272.3,90.8,0.5,2.3,10.91,50.97,704.5279,140.0011],
    [2005,1525540170,57.3225,-111.7525,573.9,272.0,91.4,-0.3,2.8,10.86,51.55,704.439,140.0008],
    [2006,1525540171,57.3225,-111.7514,573.5,272.5,91.6,0.1,2.9,11.13,50.31,704.4338,140.0015],
    [2007,1525540172,57.3225,-111.7502,572.9,272.6,91.5,0.0,2.6,10.71,50.77,704.3488,140.0017],
    [2008,1525540173,57.3225,-111.7491,572.2,272.8,92.2,-0.2,2.6,10.73,50.84,704.1312,140.0037],
    [2009,1525540174,57.3225,-111.7479,572.4,273.3,92.7,-0.6,2.5,11.03,50.99,703.8555,140.0007],
    [2010,1525540175,57.3225,-111.7467,573.3,275.3,93.2,-0.5,2.3,10.58,50.61,703.7536,139.9981],
    [2011,1525540176,57.3224,-111.7455,573.5,276.9,93.5,-0.5,2.5,10.88,50.69,703.682,139.9952],
    [2012,1525540177,57.3224,-111.7444,574.4,279.5,94.1,-0.3,2.9,11.06,50.81,703.6559,139.9984],
    [2013,1525540178,57.3224,-111.7432,576.9,283.0,93.5,-0.5,2.4,11.22,50.09,703.7293,140.0006],
    [2014,1525540179,57.3224,-111.7421,579.5,286.5,94.0,-0.3,3.1,10.91,50.43,703.6549,139.9974],
    [2015,1525540180,57.3224,-111.7411,581.4,289.4,94.4,0.2,3.6,10.73,50.31,703.6028,140.0015],
    [2016,1525540181,57.3224,-111.7399,582.3,291.0,93.7,0.1,3.2,11.21,50.17,703.6451,139.9978],
    [2017,1525540182,57.3224,-111.7387,582.3,291.3,93.8,-0.3,3.5,11.03,50.14,703.7095,140.0084],
    [2018,1525540183,57.3224,-111.7376,581.8,291.8,93.0,-0.5,3.0,10.9,50.85,703.5219,140.0007],
    [2019,1525540184,57.3224,-111.7364,582.2,293.2,91.9,-0.6,2.7,10.49,51.02,703.3123,140.0011],
    [2020,1525540185,57.3224,-111.7352,582.6,294.6,91.8,-1.1,3.7,10.39,50.91,702.9595,139.9962],
    [2021,1525540186,57.3224,-111.7341,582.4,295.4,91.6,-0.1,5.2,11.12,50.79,702.5591,139.9962],
    [2022,1525540187,57.3224,-111.733,582.0,295.0,87.2,0.4,3.8,10.59,51.2,702.3427,139.996],
    [2023,1525540188,57.3225,-111.7318,582.8,295.8,80.9,0.1,2.4,11.44,51.25,702.1781,140.0006],
    [2024,1525540189,57.3227,-111.7307,585.3,299.3,76.6,-0.7,3.4,10.81,52.18,702.1653,139.9919],
    [2025,1525540190,57.3228,-111.7297,588.7,302.7,71.9,-0.4,3.5,10.78,51.83,702.1995,139.9906],
    [2026,1525540191,57.3231,-111.7285,593.9,307.9,65.0,-0.3,3.1,10.88,51.56,702.3475,139.9938],
    [2027,1525540192,57.3234,-111.7275,597.9,311.9,59.7,-0.3,3.2,10.51,51.97,702.5152,139.9902],
    [2028,1525540193,57.3238,-111.7266,600.2,314.2,53.5,0.2,3.0,10.84,52.73,703.2549,139.9936],
    [2029,1525540194,57.3242,-111.7257,600.5,315.5,45.9,0.4,2.4,10.78,52.9,703.7066,139.999],
    [2030,1525540195,57.3246,-111.725,600.2,315.2,39.1,0.2,2.2,10.51,52.5,704.0765,139.9997],
    [2031,1525540196,57.3252,-111.7244,598.5,313.5,33.4,0.2,2.4,10.76,52.82,704.6029,139.999],
    [2032,1525540197,57.3257,-111.7238,594.7,309.7,27.5,0.3,2.2,10.16,53.02,705.0493,140.0046],
    [2033,1525540198,57.3263,-111.7233,589.7,305.7,22.7,0.0,1.7,10.72,53.33,705.4725,140.0011],
    [2034,1525540199,57.3269,-111.7229,583.8,299.8,17.8,0.4,2.1,10.21,53.36,705.6864,139.9954],
    [2035,1525540200,57.3275,-111.7226,577.9,294.9,14.0,0.3,2.1,10.94,52.88,706.0772,140.0022],
    [2036,1525540201,57.3282,-111.7223,571.5,288.7,10.3,0.2,2.0,10.54,53.35,706.3984,140.0018],
    [2037,1525540202,57.3289,-111.7221,566.6,284.6,7.4,0.3,2.4,10.64,54.12,706.5559,140.0032],
    [2038,1525540203,57.3295,-111.722,561.3,280.3,5.0,0.7,2.1,11.31,52.92,706.5667,140.0011],
    [2039,1525540204,57.3302,-111.7219,557.3,276.2,3.7,0.4,2.4,10.61,53.58,706.6202,139.9963],
    [2040,1525540205,57.3308,-111.7218,553.7,273.9,2.9,0.4,2.4,10.8,53.05,706.6302,140.0009],
    [2041,1525540206,57.3316,-111.7218,550.0,272.1,3.0,-0.3,2.9,10.66,53.94,706.4612,140.0011],
    [2042,1525540207,57.3323,-111.7217,547.6,273.7,361.6,0.7,2.7,10.75,52.94,706.3567,140.0048],
    [2043,1525540208,57.333,-111.7217,547.0,275.7,361.6,0.2,2.6,10.26,53.19,706.3017,139.9981],
    [2044,1525540209,57.3337,-111.7216,546.7,281.1,362.0,-0.1,2.9,10.66,52.92,706.2899,139.9969],
    [2045,1525540210,57.3344,-111.7216,546.9,282.3,360.8,1.3,2.7,10.64,53.03,706.2239,140.0047],
    [2046,1525540211,57.3349,-111.7216,547.8,284.2,361.0,1.0,2.8,10.48,52.23,706.1103,140.0017],
    [2047,1525540212,57.3356,-111.7215,549.9,285.2,361.4,0.7,3.2,10.67,52.25,705.8664,140.0058],
    [2048,1525540213,57.3364,-111.7215,551.2,284.1,361.5,0.9,3.4,10.86,51.38,705.4336,140.0003],
    [2049,1525540214,57.3371,-111.7214,551.3,282.2,361.8,0.8,3.2,10.96,51.05,705.2804,139.9945],
    [2050,1525540215,57.3378,-111.7214,551.7,282.0,361.8,1.0,3.5,11.06,50.65,705.0333,139.9989],
    [2051,1525540216,57.3384,-111.7213,553.4,284.1,361.8,1.1,3.5,11.3,50.28,704.8344,139.9996],
    [2052,1525540217,57.3391,-111.7213,556.8,289.2,361.1,1.9,3.4,11.02,50.32,704.7109,139.9977],
    [2053,1525540218,57.3398,-111.7212,560.8,295.9,361.2,1.5,3.2,10.68,50.33,704.5646,139.9961],
    [2054,1525540219,57.3404,-111.7212,563.8,298.8,361.1,1.5,3.0,10.57,49.08,704.5699,140.0031],
    [2055,1525540220,57.3411,-111.7211,566.2,300.2,360.6,1.7,2.9,10.66,48.88,704.3389,140.0016],
    [2056,1525540221,57.3418,-111.7211,568.2,302.3,361.2,0.5,2.9,10.99,48.18,704.1802,139.9972],
    [2057,1525540222,57.3425,-111.721,569.7,303.2,361.4,0.0,2.0,10.76,48.37,704.0193,140.0028],
    [2058,1525540223,57.3431,-111.721,570.7,301.6,360.3,-0.2,1.3,10.83,48.46,703.9458,140.0062],
    [2059,1525540224,57.3437,-111.7211,571.8,296.7,359.3,-1.9,2.4,10.81,49.06,703.847,139.9974],
    [2060,1525540225,57.3444,-111.7211,573.0,295.3,354.1,-1.0,2.6,10.74,49.27,703.8262,139.9986],
    [2061,1525540226,57.3451,-111.7213,575.4,295.7,347.7,-0.5,2.1,10.42,49.6,703.8124,139.9998],
    [2062,1525540227,57.3457,-111.7217,577.6,297.5,342.1,-0.1,2.5,10.79,50.36,703.9355,140.0032],
    [2063,1525540228,57.3464,-111.7221,579.3,299.3,336.1,-0.2,3.1,10.86,51.09,704.0736,140.0045],
    [2064,1525540229,57.347,-111.7226,580.6,301.6,330.4,0.2,2.8,10.4,50.71,704.1711,139.9995],
    [2065,1525540230,57.3475,-111.7233,581.0,302.0,323.1,1.1,2.9,10.89,51.18,704.2826,139.9985],
    [2066,1525540231,57.348,-111.724,580.8,301.1,316.8,1.1,2.6,11.16,50.37,704.3904,139.9985],
    [2067,1525540232,57.3485,-111.7248,579.8,300.9,310.4,0.8,2.7,11.32,49.94,704.6743,139.998],
    [2068,1525540233,57.3489,-111.7257,578.4,299.3,303.7,0.7,3.2,11.05,49.89,704.8006,139.9982],
    [2069,1525540234,57.3492,-111.7267,577.1,300.9,298.1,-0.5,2.8,10.61,49.87,704.949,140.0053],
    [2070,1525540235,57.3495,-111.7278,576.1,301.8,293.0,0.3,3.0,10.7,49.5,705.0198,140.0074],
    [2071,1525540236,57.3498,-111.7289,574.1,300.8,288.2,1.4,3.4,10.65,49.62,705.0097,140.0076],
    [2072,1525540237,57.35,-111.73,571.6,299.6,284.7,1.5,3.3,10.55,49.66,704.8505,140.0013],
    [2073,1525540238,57.3501,-111.7312,569.4,298.5,281.1,1.8,3.4,10.49,49.46,704.7372,140.0055],
    [2074,1525540239,57.3503,-111.7323,567.5,294.2,278.5,1.5,2.8,10.16,49.32,704.6821,139.9982],
    [2075,1525540240,57.3504,-111.7335,566.3,291.4,275.8,0.8,2.0,10.59,49.33,704.6322,139.9919],
    [2076,1525540241,57.3505,-111.7347,566.2,289.2,272.6,0.2,2.4,10.56,48.86,704.6151,139.9978],
    [2077,1525540242,57.3505,-111.7359,567.4,289.4,269.7,-0.1,2.7,10.74,48.78,704.5619,139.9987],
    [2078,1525540243,57.3505,-111.7371,568.8,289.8,267.8,-0.1,3.3,10.77,49.01,704.5532,140.0011],
    [2079,1525540244,57.3505,-111.7383,570.1,289.8,266.1,-0.2,4.1,10.92,49.86,704.537,140.0066],
    [2080,1525540245,57.3505,-111.7395,570.5,288.5,266.8,-0.9,2.9,10.49,49.59,704.4525,139.9946],
    [2081,1525540246,57.3505,-111.7407,570.9,287.9,266.8,-0.2,3.2,10.44,50.12,704.2631,140.0059],
    [2082,1525540247,57.3505,-111.7419,571.1,287.1,266.3,0.8,4.0,10.65,49.55,704.1636,139.9997],
    [2083,1525540248,57.3505,-111.7429,571.3,286.3,267.6,0.4,2.8,10.34,49.82,704.1334,139.9906],
    [2084,1525540249,57.3505,-111.7442,571.6,285.6,266.9,0.0,4.2,10.96,49.39,704.1391,140.0041],
    [2085,1525540250,57.3505,-111.7454,572.5,285.5,267.2,0.6,4.5,10.46,50.1,704.1272,139.9998],
    [2086,1525540251,57.3505,-111.7466,574.2,286.2,268.5,1.1,3.9,11.16,49.61,704.0651,140.0013],
    [2087,1525540252,57.3505,-111.7478,575.6,286.6,269.6,1.4,2.6,10.67,49.85,703.9881,139.9989],
    [2088,1525540253,57.3505,-111.7489,576.1,286.0,271.4,1.2,0.8,11.24,49.47,703.9851,139.9994],
    [2089,1525540254,57.3506,-111.7502,576.2,285.2,269.8,1.3,2.5,10.64,49.84,703.849,140.0009],
    [2090,1525540255,57.3506,-111.7514,576.5,284.3,269.4,1.0,2.4,10.63,49.93,703.7764,139.9972],
    [2091,1525540256,57.3506,-111.7525,577.0,283.1,269.1,1.1,2.5,10.85,49.62,703.6778,140.0016],
    [2092,1525540257,57.3506,-111.7536,577.6,282.6,268.8,1.0,2.8,10.87,50.02,703.5776,140.0012],
    [2093,1525540258,57.3506,-111.7548,578.3,283.3,269.3,0.5,2.3,11.03,49.68,703.5248,139.9977],
    [2094,1525540259,57.3506,-111.7561,579.6,283.6,268.9,0.3,2.8,11.09,48.78,703.4893,140.0026],
    [2095,1525540260,57.3506,-111.7573,580.6,285.6,268.4,0.7,3.1,10.64,49.62,703.4434,139.9996],
    [2096,1525540261,57.3506,-111.7584,581.5,286.5,267.7,1.0,3.4,11.48,49.25,703.4666,140.0028],
    [2097,1525540262,57.3506,-111.7597,582.5,287.5,267.4,0.9,3.0,11.04,49.56,703.5386,140.001],
    [2098,1525540263,57.3506,-111.7608,583.4,288.4,266.9,0.9,3.2,10.72,50.22,703.6377,139.9945],
    [2099,1525540264,57.3506,-111.762,584.2,288.5,266.1,0.8,3.8,10.42,49.47,703.775,140.0028],
    [2100,1525540265,57.3506,-111.7632,584.7,289.1,266.3,0.4,3.3,11.15,49.19,703.8629,140.0017],
    [2101,1525540266,57.3506,-111.7644,584.7,289.9,266.2,0.1,3.2,11.09,48.19,703.9039,139.998],
    [2102,1525540267,57.3506,-111.7654,583.9,291.0,266.0,0.3,3.3,10.66,48.35,703.927,139.9978],
    [2103,1525540268,57.3506,-111.7667,582.2,291.2,266.6,0.8,2.2,10.78,48.65,703.9497,140.0012],
    [2104,1525540269,57.3506,-111.7679,580.9,289.9,266.4,0.7,2.4,10.42,48.15,703.9876,140.0014],
    [2105,1525540270,57.3505,-111.7691,579.6,287.6,265.7,0.8,3.2,11.44,47.88,703.9983,140.0035],
    [2106,1525540271,57.3505,-111.7703,578.8,283.8,266.8,0.3,2.2,10.82,48.89,703.9844,139.9998],
    [2107,1525540272,57.3505,-111.7715,578.4,282.4,267.4,0.1,1.9,10.85,48.62,703.9008,140.0068],
    [2108,1525540273,57.3505,-111.7727,578.0,281.0,266.7,0.5,2.7,10.29,48.66,703.8391,139.9973],
    [2109,1525540274,57.3505,-111.7739,577.7,279.7,267.1,0.0,2.5,10.83,48.42,703.8013,139.994],
    [2110,1525540275,57.3505,-111.7751,577.7,278.7,266.5,0.2,3.3,11.24,47.89,703.838,139.9959],
    [2111,1525540276,57.3505,-111.7763,577.8,277.8,267.7,0.4,2.1,11.19,48.13,704.0069,140.0065],
    [2112,1525540277,57.3504,-111.7775,578.9,277.9,268.3,-0.2,2.0,10.66,48.54,704.0311,140.0065],
    [2113,1525540278,57.3505,-111.7787,579.6,277.6,268.4,-0.3,2.4,10.59,48.48,703.8851,140.013],
    [2114,1525540279,57.3505,-111.7799,579.6,277.2,268.6,0.0,2.1,10.82,49.19,703.7455,139.9975],
    [2115,1525540280,57.3505,-111.7811,578.9,274.9,268.8,0.2,1.3,11.24,48.52,703.5474,140.0086],
    [2116,1525540281,57.3504,-111.7823,577.7,272.7,266.2,-0.1,1.8,10.62,48.35,703.2189,139.995],
    [2117,1525540282,57.3504,-111.7835,577.2,271.5,260.8,-0.3,2.5,10.23,48.7,703.0914,139.9972],
    [2118,1525540283,57.3503,-111.7847,577.8,272.1,253.9,-0.4,3.1,10.41,48.76,703.1172,139.9978],
    [2119,1525540284,57.3501,-111.7858,579.6,273.9,246.9,0.2,2.8,10.17,48.88,703.1887,139.9996],
    [2120,1525540285,57.3498,-111.7869,582.5,279.0,240.0,0.3,2.6,10.78,49.3,703.2562,140.0028],
    [2121,1525540286,57.3495,-111.7879,586.0,285.0,232.3,0.3,3.2,10.31,49.1,703.3565,140.0022],
    [2122,1525540287,57.3491,-111.7887,588.4,289.3,227.2,0.7,3.0,11.24,48.7,703.4185,140.003],
    [2123,1525540288,57.3487,-111.7895,588.8,290.8,222.3,1.1,3.0,10.89,48.78,703.3522,139.9997],
    [2124,1525540289,57.3482,-111.7903,588.1,289.0,214.8,0.6,3.6,10.81,48.87,703.3019,140.0011],
    [2125,1525540290,57.3477,-111.7909,587.0,287.0,207.9,0.3,3.3,10.3,48.82,703.3166,139.9931],
    [2126,1525540291,57.3471,-111.7914,585.8,285.8,201.5,-0.1,3.4,11.15,48.3,703.5327,139.9921],
    [2127,1525540292,57.3466,-111.7917,584.9,284.0,195.1,-0.5,4.0,10.43,48.75,703.8247,140.0017],
    [2128,1525540293,57.346,-111.792,585.3,285.4,191.5,1.0,3.5,11.5,48.15,703.9914,140.0],
    [2129,1525540294,57.3454,-111.7922,586.4,286.4,188.2,1.2,3.6,10.38,48.85,704.2523,139.9999],
    [2130,1525540295,57.3447,-111.7923,586.1,285.1,185.2,0.4,3.9,10.61,48.67,704.4491,140.0],
    [2131,1525540296,57.3441,-111.7924,584.3,282.5,182.8,-0.5,4.2,10.6,48.81,704.6407,140.0019],
    [2132,1525540297,57.3435,-111.7924,581.1,278.8,181.4,-0.6,3.9,10.77,48.61,704.6019,140.0043],
    [2133,1525540298,57.3429,-111.7925,578.1,274.1,180.5,-0.6,3.5,10.58,48.57,704.5234,140.0061],
    [2134,1525540299,57.3423,-111.7925,575.8,270.1,181.0,0.7,3.7,10.71,48.31,704.3603,140.0016],
    [2135,1525540300,57.3417,-111.7925,573.2,266.2,180.7,1.0,3.5,10.73,48.42,704.0817,140.0023],
    [2136,1525540301,57.3411,-111.7925,571.0,262.6,179.1,0.2,3.4,11.11,47.9,703.9335,139.9992],
    [2137,1525540302,57.3404,-111.7924,569.9,260.9,177.2,-1.3,3.4,10.57,48.45,703.894,139.9976],
    [2138,1525540303,57.3398,-111.7924,571.2,262.2,176.9,-1.4,3.3,10.48,48.31,703.9286,140.0009],
    [2139,1525540304,57.3392,-111.7924,573.6,264.6,177.5,-1.0,3.0,10.78,48.81,704.001,140.0003],
    [2140,1525540305,57.3386,-111.7923,576.7,267.7,177.7,-1.3,2.9,11.01,48.25,703.9874,140.0021],
    [2141,1525540306,57.3379,-111.7923,579.0,270.0,178.5,-0.9,2.9,10.97,48.38,703.9507,139.998],
    [2142,1525540307,57.3373,-111.7923,579.8,270.6,179.5,-0.1,3.1,10.84,48.87,703.7452,140.0045],
    [2143,1525540308,57.3367,-111.7923,579.0,269.0,180.7,0.9,3.0,10.71,48.93,703.6151,139.999],
    [2144,1525540309,57.3361,-111.7923,578.2,268.2,181.1,1.2,3.1,10.13,48.78,703.4671,139.9998],
    [2145,1525540310,57.3354,-111.7923,578.4,268.4,181.1,1.2,3.1,10.7,48.88,703.4795,140.0003],
    [2146,1525540311,57.3348,-111.7923,578.8,268.8,181.0,1.0,3.4,10.57,48.79,703.4706,139.9977],
    [2147,1525540312,57.3342,-111.7923,581.0,271.2,180.8,0.8,3.3,10.96,48.58,703.275,140.0003],
    [2148,1525540313,57.3336,-111.7923,583.1,276.5,181.4,1.2,3.5,10.84,48.65,703.2269,139.99],
    [2149,1525540314,57.333,-111.7923,584.4,279.4,181.1,0.8,3.3,10.76,48.58,703.2727,140.0039],
    [2150,1525540315,57.3324,-111.7923,584.8,280.1,181.6,1.5,2.3,11.1,48.37,703.2723,139.9981],
    [2151,1525540316,57.3318,-111.7923,584.9,278.5,181.6,1.5,2.3,11.08,47.96,703.1641,139.9991],
    [2152,1525540317,57.3312,-111.7923,585.9,276.9,179.7,-0.3,2.7,10.75,48.48,703.1262,140.0038],
    [2153,1525540318,57.3305,-111.7923,587.6,277.6,179.8,0.2,2.8,10.86,49.34,703.1628,140.0049],
    [2154,1525540319,57.3299,-111.7923,587.7,277.7,179.7,0.3,2.3,10.63,48.91,702.9834,140.0036],
    [2155,1525540320,57.3293,-111.7923,587.4,277.4,179.1,-0.1,1.5,10.85,48.69,702.6859,140.009],
    [2156,1525540321,57.3287,-111.7923,588.4,278.4,178.3,0.3,1.7,11.21,48.78,702.0222,140.0055],
    [2157,1525540322,57.328,-111.7922,588.8,278.8,177.9,2.0,2.1,10.44,48.91,701.3583,139.9998],
    [2158,1525540323,57.3275,-111.7921,588.3,278.3,173.6,1.2,2.4,10.44,49.27,700.7816,139.9951],
    [2159,1525540324,57.3268,-111.7919,589.3,279.3,165.9,0.0,2.6,11.5,48.92,700.0213,139.9902],
    [2160,1525540325,57.3263,-111.7916,592.5,282.5,160.3,1.0,2.3,10.85,49.11,699.6141,139.9912],
    [2161,1525540326,57.3257,-111.7911,598.7,288.7,152.5,0.9,2.4,11.39,49.08,699.3102,139.992],
    [2162,1525540327,57.3253,-111.7905,605.8,295.8,144.9,0.3,2.5,10.45,49.1,699.0546,139.9986],
    [2163,1525540328,57.3248,-111.7898,615.2,305.2,137.4,0.3,2.8,10.98,49.2,698.9821,139.9976],
    [2164,1525540329,57.3244,-111.789,624.0,314.0,131.1,-0.5,3.3,11.16,48.92,698.9567,139.998],
    [2165,1525540330,57.3241,-111.7881,631.6,322.3,125.6,-0.1,2.8,11.1,49.03,698.9534,140.0075],
    [2166,1525540331,57.3238,-111.7872,636.7,327.7,119.6,-0.5,2.0,11.02,49.32,698.7673,139.9951],
    [2167,1525540332,57.3235,-111.7863,638.8,330.8,115.6,0.4,2.3,10.83,49.78,698.4786,139.9934],
    [2168,1525540333,57.3233,-111.7853,639.3,331.3,110.8,1.0,2.5,11.06,49.74,698.4144,139.9945],
    [2169,1525540334,57.3232,-111.7843,639.1,332.1,104.7,0.9,1.1,10.9,50.11,698.4146,139.9873],
    [2170,1525540335,57.3231,-111.7832,638.9,332.6,99.2,1.1,0.7,10.88,49.98,698.4552,139.9956],
    [2171,1525540336,57.323,-111.7821,640.6,334.6,95.1,0.6,0.5,10.86,50.79,698.6809,139.9928],
    [2172,1525540337,57.323,-111.7811,643.7,338.7,93.0,0.7,0.7,10.94,50.06,698.8044,140.0006],
    [2173,1525540338,57.3229,-111.78,645.7,341.0,93.2,0.9,1.9,10.37,50.2,698.9775,139.9913],
    [2174,1525540339,57.3229,-111.779,645.6,341.6,93.7,0.3,3.1,11.02,49.68,699.2338,140.0012],
    [2175,1525540340,57.3229,-111.7779,644.7,341.7,93.8,0.3,3.6,10.41,50.36,699.4101,139.9996],
    [2176,1525540341,57.3229,-111.7768,642.3,340.3,92.8,-0.2,2.6,10.78,51.09,699.4576,140.0028],
    [2177,1525540342,57.3229,-111.7757,639.8,338.5,91.5,-1.1,1.1,10.63,51.06,699.3398,140.0016],
    [2178,1525540343,57.3229,-111.7746,638.0,337.0,93.5,-1.0,2.5,11.43,50.79,699.1071,139.9989],
    [2179,1525540344,57.3229,-111.7734,635.6,335.6,94.9,-0.7,2.6,10.35,51.11,698.9336,139.9994],
    [2180,1525540345,57.3228,-111.7725,633.3,333.3,95.9,-1.1,2.7,10.28,51.65,698.7709,139.996],
    [2181,1525540346,57.3228,-111.7712,632.0,332.0,97.2,-0.6,3.0,10.67,51.54,698.7346,139.9996],
    [2182,1525540347,57.3227,-111.7701,633.6,334.6,97.2,-0.1,2.5,10.61,51.37,698.7199,140.0014],
    [2183,1525540348,57.3227,-111.769,635.9,336.9,96.8,0.0,1.8,10.83,52.0,698.7348,139.9967],
    [2184,1525540349,57.3226,-111.768,638.0,339.0,96.6,-0.4,1.7,10.24,51.73,698.6714,140.0029],
    [2185,1525540350,57.3226,-111.7668,639.9,341.9,96.6,-0.9,1.9,10.27,51.61,698.6988,139.9982],
    [2186,1525540351,57.3225,-111.7658,640.6,342.6,96.6,-0.4,2.0,10.33,52.13,698.7064,140.0031],
    [2187,1525540352,57.3225,-111.7646,641.0,343.0,96.1,-0.4,2.1,11.22,51.81,698.7639,139.9958],
    [2188,1525540353,57.3224,-111.7635,641.3,342.3,96.2,-0.2,2.8,10.6,52.03,698.7743,140.0],
    [2189,1525540354,57.3224,-111.7623,641.5,341.5,95.1,0.3,2.5,10.05,51.98,698.8442,139.9967],
    [2190,1525540355,57.3224,-111.7613,641.6,340.5,94.5,0.6,2.6,10.34,51.91,698.8756,140.0043],
    [2191,1525540356,57.3224,-111.7601,641.4,340.4,94.0,1.0,3.0,10.23,52.02,698.918,139.9945],
    [2192,1525540357,57.3223,-111.759,640.9,338.9,94.0,0.8,3.6,10.67,52.12,698.9716,140.0033],
    [2193,1525540358,57.3223,-111.7578,640.5,338.5,92.8,0.8,2.9,10.38,52.02,699.044,139.9943],
    [2194,1525540359,57.3223,-111.7567,639.9,337.9,92.3,0.5,2.8,11.1,51.53,699.0254,139.9961],
    [2195,1525540360,57.3223,-111.7555,639.2,337.2,91.8,0.9,2.3,10.54,51.7,699.0361,140.0031],
    [2196,1525540361,57.3223,-111.7544,638.6,336.6,92.2,1.1,2.9,10.82,51.35,699.0719,139.9976],
    [2197,1525540362,57.3223,-111.7533,638.0,336.1,91.9,1.2,2.6,10.0,51.49,699.0931,140.0024],
    [2198,1525540363,57.3223,-111.7521,637.2,335.3,91.6,-0.1,2.6,10.38,52.03,699.1484,140.004],
    [2199,1525540364,57.3224,-111.7509,636.9,335.9,91.8,0.1,3.0,10.37,51.73,699.2106,139.9955],
    [2200,1525540365,57.3224,-111.7498,636.9,336.8,91.3,0.2,2.5,11.13,51.28,699.1904,140.0028],
    [2201,1525540366,57.3224,-111.7487,636.8,337.6,91.8,0.0,2.9,10.51,52.36,699.2051,139.9968],
    [2202,1525540367,57.3224,-111.7474,636.4,338.3,92.6,0.2,3.4,10.62,51.54,699.2044,139.998],
    [2203,1525540368,57.3224,-111.7463,636.1,338.4,92.2,0.7,2.5,10.24,51.86,699.2049,139.9967],
    [2204,1525540369,57.3224,-111.7452,635.5,339.7,92.9,1.3,3.3,10.39,51.5,699.127,139.9981],
    [2205,1525540370,57.3224,-111.744,635.2,341.0,92.5,1.8,2.8,10.94,50.61,699.047,139.9987],
    [2206,1525540371,57.3224,-111.7428,635.2,342.3,91.4,1.5,2.0,10.66,50.49,698.9098,139.9988],
    [2207,1525540372,57.3224,-111.7416,635.1,342.1,91.4,1.3,2.3,10.96,50.17,698.8204,140.0029],
    [2208,1525540373,57.3224,-111.7405,634.8,342.8,91.3,0.9,2.7,10.6,50.55,698.7917,140.0],
    [2209,1525540374,57.3224,-111.7393,635.4,344.4,91.6,0.3,3.5,10.46,50.63,698.7464,139.9971],
    [2210,1525540375,57.3224,-111.7381,636.5,346.5,91.0,0.2,3.0,10.25,50.4,698.6934,140.0049],
    [2211,1525540376,57.3224,-111.737,637.7,348.7,90.8,-0.1,2.8,10.74,50.4,698.5113,139.9905],
    [2212,1525540377,57.3224,-111.7358,638.8,350.6,90.7,-0.1,2.6,10.37,50.5,698.3548,139.996],
    [2213,1525540378,57.3225,-111.7346,639.1,351.1,90.4,0.0,2.9,10.41,50.7,698.1817,139.9985],
    [2214,1525540379,57.3225,-111.7334,639.6,352.6,90.1,0.4,4.6,9.89,50.81,698.0285,139.9989],
    [2215,1525540380,57.3225,-111.7322,640.6,353.6,87.0,0.6,4.8,10.07,50.89,697.8598,139.9939],
    [2216,1525540381,57.3226,-111.7311,642.2,356.2,80.8,0.2,3.7,10.38,50.96,697.7095,139.998],
    [2217,1525540382,57.3228,-111.73,644.4,358.4,75.0,0.1,3.6,10.28,51.02,697.4327,139.9949],
    [2218,1525540383,57.323,-111.7289,646.2,360.2,69.0,0.3,3.9,10.13,50.88,697.3977,139.998],
    [2219,1525540384,57.3233,-111.7278,647.9,361.9,61.4,0.5,3.1,10.5,50.97,697.3161,139.9974],
    [2220,1525540385,57.3237,-111.7268,649.8,363.8,53.7,0.8,2.4,10.3,50.75,697.3072,139.9919],
    [2221,1525540386,57.3241,-111.7259,652.3,367.3,47.2,0.6,2.6,10.35,51.15,697.4794,139.9994],
    [2222,1525540387,57.3246,-111.7251,654.8,369.8,41.2,1.2,3.0,9.94,51.69,697.6238,139.9863],
    [2223,1525540388,57.3251,-111.7244,656.6,371.6,35.6,1.3,2.6,10.69,51.46,698.3501,140.003],
    [2224,1525540389,57.3256,-111.7238,657.6,372.6,30.5,1.4,2.7,10.53,52.27,699.1194,139.9902],
    [2225,1525540390,57.3262,-111.7232,657.9,373.9,26.0,1.3,2.7,10.36,52.18,699.4817,140.0018],
    [2226,1525540391,57.3267,-111.7228,657.0,373.2,22.3,1.6,2.8,9.81,52.55,699.8885,140.0028],
    [2227,1525540392,57.3274,-111.7223,652.5,369.5,18.5,1.4,2.6,10.84,52.55,700.3765,139.9999],
    [2228,1525540393,57.328,-111.722,646.9,363.9,14.5,1.7,3.2,10.26,53.18,700.6482,139.9986],
    [2229,1525540394,57.3286,-111.7217,639.2,357.2,9.5,2.3,2.6,10.1,52.61,700.9309,140.0001],
    [2230,1525540395,57.3293,-111.7215,632.3,351.3,6.3,1.9,2.8,10.18,52.66,701.2508,140.0018],
    [2231,1525540396,57.3299,-111.7214,626.3,346.4,2.7,3.0,2.8,10.1,52.66,701.4006,140.0],
    [2232,1525540397,57.3306,-111.7213,621.9,342.9,361.3,2.5,3.0,10.26,52.35,701.6052,140.0067],
    [2233,1525540398,57.3313,-111.7212,617.9,339.9,360.6,2.0,3.1,10.57,51.44,701.736,139.9989],
    [2234,1525540399,57.332,-111.7212,614.0,341.0,360.3,1.6,2.9,11.03,50.76,701.7852,139.9985],
    [2235,1525540400,57.3327,-111.7212,609.7,341.1,360.4,1.2,3.2,10.56,50.87,701.8685,139.9993],
    [2236,1525540401,57.3334,-111.7211,606.7,341.7,360.0,1.7,3.2,10.08,50.84,701.9057,140.0049],
    [2237,1525540402,57.3341,-111.7211,604.7,343.5,359.8,1.9,3.0,10.27,50.94,701.8729,140.0017],
    [2238,1525540403,57.3348,-111.7211,603.4,342.7,359.6,2.1,2.8,10.32,50.76,701.7704,139.9996],
    [2239,1525540404,57.3355,-111.7211,602.7,340.8,359.7,1.9,2.8,10.35,50.31,701.6072,140.0004],
    [2240,1525540405,57.3362,-111.721,602.0,337.3,359.5,2.0,2.9,10.07,49.11,701.4634,140.0017],
    [2241,1525540406,57.3368,-111.721,601.4,335.0,359.1,2.4,2.9,10.46,49.23,701.3427,140.0016],
    [2242,1525540407,57.3376,-111.721,601.4,332.5,359.0,2.4,2.8,10.81,47.77,701.2326,140.0001],
    [2243,1525540408,57.3383,-111.721,602.8,333.3,358.8,2.7,2.8,10.24,47.12,701.1673,140.0039],
    [2244,1525540409,57.339,-111.721,605.0,337.2,359.2,2.4,2.6,10.41,46.23,700.9286,139.9967],
    [2245,1525540410,57.3397,-111.7209,607.0,341.0,359.1,2.5,2.8,10.38,46.29,700.8687,140.0028],
    [2246,1525540411,57.3404,-111.7209,608.3,343.3,359.0,2.5,2.8,10.72,45.67,700.8245,140.0008],
    [2247,1525540412,57.341,-111.7209,609.6,344.7,358.8,2.7,2.7,10.74,45.94,700.7256,140.0049],
    [2248,1525540413,57.3417,-111.7209,610.8,344.8,358.3,2.8,2.4,10.72,45.09,700.6009,140.002],
    [2249,1525540414,57.3423,-111.7209,612.2,345.7,358.1,1.7,2.4,10.97,45.2,700.4434,140.0032],
    [2250,1525540415,57.3431,-111.7209,613.8,342.8,355.8,1.5,2.4,10.5,44.77,700.2085,139.9985],
    [2251,1525540416,57.3437,-111.721,614.6,339.6,352.0,1.6,2.5,11.07,44.81,700.1272,140.0053],
    [2252,1525540417,57.3444,-111.7212,615.4,337.7,346.7,2.0,2.3,10.4,44.36,699.8959,140.0034],
    [2253,1525540418,57.3451,-111.7215,617.0,338.1,341.3,1.4,1.9,10.57,44.26,699.6514,140.0022],
    [2254,1525540419,57.3457,-111.722,618.9,339.6,335.3,1.5,2.0,11.49,43.87,699.5938,140.0001],
    [2255,1525540420,57.3463,-111.7225,621.2,342.9,329.1,1.9,2.0,10.82,44.14,699.5377,140.0002],
    [2256,1525540421,57.3469,-111.7231,623.7,345.8,323.7,1.8,1.8,10.82,44.19,699.4702,140.0001],
    [2257,1525540422,57.3473,-111.7238,626.0,347.7,319.0,1.8,1.9,11.01,43.09,699.4607,140.0029],
    [2258,1525540423,57.3479,-111.7247,628.7,349.7,313.5,1.9,1.8,10.89,43.74,699.4987,140.0053],
    [2259,1525540424,57.3483,-111.7255,629.9,351.9,309.4,2.1,1.9,11.14,43.69,699.562,139.9994],
    [2260,1525540425,57.3487,-111.7264,630.6,354.0,304.2,2.0,2.0,10.36,43.25,699.6745,139.9992],
    [2261,1525540426,57.3491,-111.7274,631.3,357.6,299.7,1.9,2.2,10.7,42.86,699.9454,140.002],
    [2262,1525540427,57.3494,-111.7284,631.8,359.0,295.6,1.5,2.0,11.39,42.81,700.0489,140.005],
    [2263,1525540428,57.3496,-111.7295,631.5,359.5,291.5,1.6,2.4,11.08,42.95,700.1643,139.9959],
    [2264,1525540429,57.3499,-111.7306,630.5,359.6,287.2,2.2,2.7,11.03,43.24,700.3477,140.0038],
    [2265,1525540430,57.3501,-111.7317,628.8,356.1,284.3,2.6,1.9,11.03,44.06,700.4467,140.0036],
    [2266,1525540431,57.3502,-111.7328,626.8,352.5,280.6,2.5,2.5,11.0,44.31,700.5832,140.0036],
    [2267,1525540432,57.3504,-111.734,624.6,348.6,277.6,2.4,3.1,11.22,44.71,700.7807,139.9987],
    [2268,1525540433,57.3505,-111.7351,622.9,346.0,275.4,2.6,2.9,11.58,44.74,700.8304,139.9939],
    [2269,1525540434,57.3505,-111.7363,621.3,343.3,273.0,2.4,3.3,10.62,45.71,700.9429,140.0055],
    [2270,1525540435,57.3506,-111.7375,620.0,341.3,271.3,2.0,3.1,10.71,46.37,700.9664,139.9887],
    [2271,1525540436,57.3506,-111.7387,618.5,337.8,270.2,2.0,2.7,10.91,46.98,701.0211,139.9964],
    [2272,1525540437,57.3506,-111.7398,616.3,334.2,269.0,2.3,3.1,10.85,47.35,701.204,139.9996],
    [2273,1525540438,57.3506,-111.741,614.6,331.7,268.7,3.1,3.0,10.57,48.1,701.1235,140.0073],
    [2274,1525540439,57.3507,-111.7422,613.6,329.3,268.5,2.8,3.4,10.37,47.96,701.0859,139.9949],
    [2275,1525540440,57.3507,-111.7435,612.7,327.7,268.9,3.2,2.9,10.88,48.26,701.0828,139.9945],
    [2276,1525540441,57.3507,-111.7446,611.8,325.8,269.1,2.7,3.0,10.83,48.48,701.1959,139.9975],
    [2277,1525540442,57.3507,-111.7458,611.1,324.1,269.8,1.5,2.2,10.84,48.42,701.2579,140.0022],
    [2278,1525540443,57.3507,-111.747,610.6,322.6,268.5,2.0,3.9,11.36,48.1,701.3312,140.0039],
    [2279,1525540444,57.3507,-111.7481,611.5,322.5,267.6,2.0,4.0,10.93,49.1,701.3239,140.0028],
    [2280,1525540445,57.3507,-111.7493,612.1,322.1,268.7,1.8,2.1,11.57,48.48,701.2981,140.0009],
    [2281,1525540446,57.3507,-111.7505,611.4,320.3,268.0,1.1,2.6,10.47,49.04,701.3003,139.9968],
    [2282,1525540447,57.3507,-111.7517,610.5,317.5,267.8,1.1,2.5,10.73,49.14,701.2665,140.0064],
    [2283,1525540448,57.3507,-111.753,609.7,315.7,267.2,0.6,3.1,11.14,48.94,700.9571,139.9983],
    [2284,1525540449,57.3507,-111.7541,609.7,314.7,266.8,-0.1,3.1,10.56,49.64,700.7559,140.0093],
    [2285,1525540450,57.3507,-111.7553,609.9,313.9,267.3,0.1,2.4,10.71,49.39,700.5195,139.9903],
    [2286,1525540451,57.3507,-111.7565,609.7,313.7,267.5,0.1,2.3,11.01,49.89,700.1935,140.0029],
    [2287,1525540452,57.3507,-111.7577,610.6,315.6,268.1,0.3,2.1,10.86,49.72,700.0454,139.9992],
    [2288,1525540453,57.3507,-111.7589,612.7,317.7,269.2,0.1,1.7,11.03,49.34,699.764,139.9994],
    [2289,1525540454,57.3507,-111.76,615.0,320.0,268.6,0.0,3.2,11.01,49.6,699.4738,140.0003],
    [2290,1525540455,57.3507,-111.7612,618.5,323.6,269.3,0.2,2.5,10.56,49.91,699.2971,139.9964],
    [2291,1525540456,57.3508,-111.7625,622.0,326.3,270.0,0.5,2.2,10.71,49.65,699.238,140.0008],
    [2292,1525540457,57.3508,-111.7636,625.4,330.5,268.5,0.8,4.0,10.69,48.79,698.9208,140.0026],
    [2293,1525540458,57.3508,-111.7648,628.4,334.6,268.3,-0.2,3.8,11.5,48.44,698.6887,139.9975],
    [2294,1525540459,57.3508,-111.766,631.2,339.2,267.6,0.2,4.3,10.25,48.78,698.5787,140.0022],
    [2295,1525540460,57.3508,-111.7671,633.3,342.6,267.5,1.0,4.3,10.63,49.17,698.4035,139.9915],
    [2296,1525540461,57.3508,-111.7682,635.3,344.3,268.3,0.8,3.4,10.25,49.09,698.3961,139.9987],
    [2297,1525540462,57.3508,-111.7694,637.5,344.4,269.0,1.4,2.9,10.61,48.86,698.368,139.9996],
    [2298,1525540463,57.3509,-111.7706,639.9,344.7,268.6,2.0,3.1,10.13,48.98,698.3857,139.999],
    [2299,1525540464,57.3509,-111.7716,642.0,345.1,268.7,1.3,2.7,10.76,48.63,698.3647,139.9991],
    [2300,1525540465,57.3509,-111.7728,643.9,345.9,268.8,2.3,2.3,10.64,49.62,698.3992,139.9961],
    [2301,1525540466,57.3509,-111.774,644.6,346.4,267.9,2.1,3.2,10.14,49.1,698.4631,140.001],
    [2302,1525540467,57.3509,-111.7751,645.0,346.0,267.3,1.3,3.3,10.4,49.15,698.505,140.0021],
    [2303,1525540468,57.3509,-111.7762,645.0,345.0,267.7,1.1,2.5,10.54,49.13,698.4818,140.009],
    [2304,1525540469,57.3509,-111.7774,644.9,343.8,266.3,1.8,3.8,10.39,49.41,698.3855,140.0071],
    [2305,1525540470,57.3509,-111.7785,644.5,342.7,266.4,2.0,3.1,10.79,49.01,698.1662,140.0033],
    [2306,1525540471,57.3509,-111.7796,643.7,341.7,266.3,1.9,2.4,10.57,49.28,697.9893,140.001],
    [2307,1525540472,57.3508,-111.7808,643.3,340.3,264.5,1.6,2.0,10.92,49.0,697.7913,140.0017],
    [2308,1525540473,57.3508,-111.7819,643.6,339.7,260.5,1.5,2.4,10.24,49.38,697.7124,139.9961],
    [2309,1525540474,57.3507,-111.783,644.7,339.7,255.7,1.4,3.0,10.59,49.26,697.6609,140.0026],
    [2310,1525540475,57.3505,-111.7841,647.0,341.0,249.3,1.5,3.4,10.98,48.83,697.6585,139.9933],
    [2311,1525540476,57.3503,-111.7852,649.8,344.1,243.5,1.2,3.6,10.44,49.6,697.6533,139.9914],
    [2312,1525540477,57.35,-111.7861,651.9,347.5,238.1,0.8,3.9,10.14,49.92,698.0005,139.9958],
    [2313,1525540478,57.3497,-111.7871,653.1,351.1,232.5,0.9,3.7,10.65,49.3,698.1596,139.9996],
    [2314,1525540479,57.3493,-111.7879,654.1,354.4,226.6,0.7,3.5,10.5,49.49,698.4009,140.0004],
    [2315,1525540480,57.3489,-111.7886,654.4,355.4,221.5,1.2,3.4,10.71,49.65,698.7123,140.0017],
    [2316,1525540481,57.3485,-111.7893,654.1,355.8,217.1,1.7,3.3,10.18,49.73,699.1156,140.0006],
    [2317,1525540482,57.348,-111.79,651.9,352.9,212.4,1.2,3.8,10.37,50.18,699.2457,140.0023],
    [2318,1525540483,57.3474,-111.7906,648.4,348.4,207.1,1.5,3.9,10.62,49.16,699.4928,140.0038],
    [2319,1525540484,57.3469,-111.791,645.4,345.4,202.5,1.6,3.7,10.38,49.31,699.9313,140.0016],
    [2320,1525540485,57.3463,-111.7914,641.7,341.7,198.0,1.3,3.3,10.77,48.84,699.7992,140.012],
    [2321,1525540486,57.3458,-111.7917,637.9,337.9,193.0,0.9,3.3,10.6,48.5,700.141,139.9909],
    [2322,1525540487,57.3452,-111.7919,635.0,334.8,189.0,0.6,2.9,10.48,48.46,700.224,139.9995],
    [2323,1525540488,57.3446,-111.792,631.6,330.6,184.5,-1.1,3.7,10.65,48.25,700.0177,140.0024],
    [2324,1525540489,57.3439,-111.7921,628.6,326.9,183.9,0.1,3.2,10.3,48.56,699.8589,140.0025],
    [2325,1525540490,57.3433,-111.7922,626.7,323.8,182.3,-1.4,3.4,10.37,48.68,699.8113,139.9972],
    [2326,1525540491,57.3427,-111.7923,625.1,320.8,183.1,0.0,3.2,10.38,48.81,699.6624,140.0089],
    [2327,1525540492,57.3421,-111.7923,624.0,318.0,184.1,1.0,2.8,10.34,48.87,699.4645,139.9974],
    [2328,1525540493,57.3415,-111.7924,624.8,317.1,182.6,-0.6,3.0,11.07,48.78,699.3463,139.9987],
    [2329,1525540494,57.3408,-111.7924,627.3,318.3,183.3,0.6,2.9,10.55,49.12,699.0712,140.0065],
    [2330,1525540495,57.3403,-111.7925,628.6,319.6,184.2,1.4,2.7,10.39,49.28,698.9528,139.9981],
    [2331,1525540496,57.3396,-111.7926,630.6,321.6,183.3,0.6,2.8,10.62,48.89,698.7244,140.0024],
    [2332,1525540497,57.339,-111.7926,632.3,323.3,184.0,1.8,3.2,10.14,49.37,698.6267,139.9993],
    [2333,1525540498,57.3384,-111.7927,634.2,325.2,183.2,1.8,3.3,9.88,49.45,698.4231,140.0009],
    [2334,1525540499,57.3378,-111.7927,636.6,327.6,181.3,1.5,3.2,10.26,49.54,698.4957,139.9974],
    [2335,1525540500,57.3371,-111.7927,638.8,328.8,180.0,1.8,3.4,10.44,50.11,698.5214,139.9956],
    [2336,1525540501,57.3365,-111.7926,641.3,331.3,178.6,1.8,3.0,10.03,49.89,698.5493,140.0027],
    [2337,1525540502,57.3359,-111.7926,643.5,333.5,177.1,1.1,2.5,9.94,49.54,698.6483,139.9968],
    [2338,1525540503,57.3353,-111.7925,644.7,334.7,175.3,-0.6,2.3,10.45,50.1,698.6318,140.0007],
    [2339,1525540504,57.3347,-111.7924,644.9,334.9,175.6,-0.1,2.6,10.47,50.05,698.6678,139.9936],
    [2340,1525540505,57.3342,-111.7923,644.7,335.6,176.5,0.5,2.8,10.48,49.98,698.7284,139.9992],
    [2341,1525540506,57.3335,-111.7922,644.5,337.9,176.1,-0.6,2.7,10.32,50.02,698.7255,139.996],
    [2342,1525540507,57.333,-111.7922,644.1,339.1,176.7,-0.2,2.3,10.46,50.0,698.6301,139.9976],
    [2343,1525540508,57.3324,-111.7921,643.2,338.6,178.1,0.5,2.5,10.06,49.73,698.5604,140.008],
    [2344,1525540509,57.3317,-111.7921,642.6,336.3,178.1,-0.4,2.9,10.05,49.83,698.5168,140.0073],
    [2345,1525540510,57.3311,-111.792,642.0,332.0,180.2,1.2,3.1,10.77,49.82,698.122,140.0108],
    [2346,1525540511,57.3305,-111.792,641.7,331.7,181.0,1.4,3.4,10.46,50.24,697.6136,140.0037],
    [2347,1525540512,57.3299,-111.792,642.2,332.2,181.2,1.6,3.7,10.42,50.28,696.9001,139.9995],
    [2348,1525540513,57.3293,-111.792,643.1,333.1,180.5,1.7,3.8,10.21,50.14,696.1757,139.9951],
    [2349,1525540514,57.3286,-111.792,644.9,334.9,177.4,1.4,3.3,11.11,49.68,695.5204,140.0027],
    [2350,1525540515,57.328,-111.7919,648.5,338.5,171.7,0.5,3.1,10.59,50.27,695.196,139.9988],
    [2351,1525540516,57.3275,-111.7916,654.2,344.2,165.4,-0.1,3.3,10.52,50.79,694.4536,139.9953],
    [2352,1525540517,57.3269,-111.7913,662.1,352.1,158.6,-0.4,3.4,11.01,50.33,694.2902,139.9922],
    [2353,1525540518,57.3264,-111.7908,670.4,360.4,153.6,0.4,3.8,10.01,50.69,694.275,139.9979],
    [2354,1525540519,57.3259,-111.7903,678.8,368.8,147.4,0.3,2.9,10.69,50.67,694.1039,140.0013],
    [2355,1525540520,57.3255,-111.7897,686.2,376.2,140.4,-0.5,1.2,9.91,50.93,693.8793,139.9888],
    [2356,1525540521,57.3251,-111.789,692.5,382.5,135.2,0.0,0.9,10.52,51.21,693.7551,139.9929],
    [2357,1525540522,57.3247,-111.7882,696.7,387.7,132.5,1.7,2.2,10.4,50.95,693.77,139.9953],
    [2358,1525540523,57.3243,-111.7874,698.1,389.1,125.7,0.8,1.5,10.33,51.65,693.7716,139.9889],
    [2359,1525540524,57.3241,-111.7865,699.0,390.2,117.2,0.3,0.5,10.09,51.02,693.9208,139.9996],
    [2360,1525540525,57.3238,-111.7856,700.9,392.9,111.3,0.8,0.5,10.44,51.3,694.0696,139.9944],
    [2361,1525540526,57.3237,-111.7846,702.6,395.6,106.8,1.4,0.3,10.24,50.9,694.1874,139.9934],
    [2362,1525540527,57.3235,-111.7836,702.9,396.1,103.1,1.3,0.3,10.39,51.15,694.5837,139.9945],
    [2363,1525540528,57.3234,-111.7825,702.3,396.3,101.0,0.8,0.9,10.37,50.85,694.9158,140.0044],
    [2364,1525540529,57.3233,-111.7815,701.3,396.3,100.1,1.0,1.2,10.38,51.11,694.9788,140.0036],
    [2365,1525540530,57.3232,-111.7805,699.5,394.5,99.9,1.6,1.6,10.4,50.53,694.8811,140.0016],
    [2366,1525540531,57.3232,-111.7794,697.0,393.0,99.5,1.6,1.3,10.83,50.85,694.7982,139.9938],
    [2367,1525540532,57.3231,-111.7783,694.0,391.0,98.8,1.1,0.3,10.34,50.81,694.6355,139.997],
    [2368,1525540533,57.323,-111.7773,690.9,387.9,99.3,1.2,0.5,10.27,50.77,694.6742,140.0032],
    [2369,1525540534,57.3229,-111.7763,688.8,386.8,100.3,1.6,1.0,10.86,50.52,694.6924,139.9989],
    [2370,1525540535,57.3228,-111.7752,688.7,387.7,100.4,1.9,0.3,11.07,50.42,694.6066,139.9988],
    [2371,1525540536,57.3227,-111.774,689.9,388.9,101.7,2.3,1.2,10.25,51.34,694.5094,140.0017],
    [2372,1525540537,57.3226,-111.7729,691.2,391.2,101.8,2.0,1.1,10.38,50.83,694.3965,139.9952],
    [2373,1525540538,57.3225,-111.7718,691.4,391.4,101.8,1.9,0.7,10.02,51.06,694.2579,139.9981],
    [2374,1525540539,57.3224,-111.7708,691.3,391.3,102.9,2.3,1.4,10.3,51.03,694.1366,139.9996],
    [2375,1525540540,57.3222,-111.7696,692.2,393.2,103.9,2.5,1.9,10.27,51.26,694.0344,139.9966],
    [2376,1525540541,57.3221,-111.7685,693.4,394.4,104.1,2.3,2.0,10.22,51.71,693.9148,139.9922],
    [2377,1525540542,57.322,-111.7674,694.5,395.5,104.8,2.4,3.2,9.8,51.43,693.9902,139.9965],
    [2378,1525540543,57.3219,-111.7663,695.6,397.6,103.6,2.1,2.9,10.12,51.3,694.0256,140.0001],
    [2379,1525540544,57.3218,-111.7652,697.0,399.0,100.9,1.5,1.7,9.83,51.44,694.0898,139.9954],
    [2380,1525540545,57.3217,-111.7643,698.0,400.0,100.1,1.2,2.2,9.68,51.3,694.1459,139.9993],
    [2381,1525540546,57.3216,-111.7631,699.2,400.2,99.6,0.7,3.4,10.46,51.73,694.1535,139.9982],
    [2382,1525540547,57.3215,-111.7619,699.6,399.6,97.6,1.0,2.8,10.42,51.21,694.2202,139.9986],
    [2383,1525540548,57.3215,-111.7607,698.7,397.8,96.9,1.6,3.2,10.66,50.95,694.2417,140.0021],
    [2384,1525540549,57.3214,-111.7596,697.9,396.9,96.8,1.9,3.9,10.05,51.5,694.313,139.9941],
    [2385,1525540550,57.3214,-111.7585,697.2,395.2,95.8,1.4,3.6,9.93,51.65,694.2749,140.0039],
    [2386,1525540551,57.3214,-111.7573,696.7,394.7,94.3,0.9,3.7,10.25,52.07,694.4137,139.9952],
    [2387,1525540552,57.3214,-111.7561,696.1,394.1,92.3,0.7,3.5,10.67,51.52,694.4924,139.9955],
    [2388,1525540553,57.3214,-111.755,695.7,393.7,90.1,1.2,3.4,10.24,51.52,694.7066,139.9978],
    [2389,1525540554,57.3214,-111.7539,694.9,392.9,88.5,1.4,3.7,10.01,51.87,694.6495,140.0029],
    [2390,1525540555,57.3215,-111.7527,694.6,392.6,85.5,1.6,2.2,9.95,51.92,694.5493,140.0001],
    [2391,1525540556,57.3216,-111.7516,693.8,392.6,84.9,1.8,3.0,10.06,51.83,694.3557,139.9952],
    [2392,1525540557,57.3217,-111.7503,691.7,390.9,84.2,1.5,3.5,10.0,51.71,694.2732,140.002],
    [2393,1525540558,57.3218,-111.7491,690.5,390.3,81.9,1.7,2.7,10.01,51.51,694.2477,140.0007],
    [2394,1525540559,57.3219,-111.748,690.3,391.2,79.6,2.2,2.0,10.07,51.98,694.2476,139.9977],
    [2395,1525540560,57.322,-111.7468,691.3,393.4,77.5,2.2,1.1,10.13,51.65,694.2239,140.0009],
    [2396,1525540561,57.3222,-111.7456,693.1,396.2,77.2,2.2,1.1,10.04,51.67,694.147,139.9991],
    [2397,1525540562,57.3223,-111.7445,694.5,399.5,78.1,2.6,1.5,9.85,51.41,694.1576,139.9971],
    [2398,1525540563,57.3225,-111.7433,695.3,401.3,79.9,2.6,2.1,10.76,50.98,694.0863,140.002],
    [2399,1525540564,57.3226,-111.7422,695.6,402.6,81.8,2.6,2.5,9.86,51.29,693.9864,139.992],
    [2400,1525540565,57.3227,-111.741,695.8,403.8,83.1,2.6,2.3,10.19,51.57,693.9164,139.9978],
    [2401,1525540566,57.3228,-111.7398,696.3,405.0,83.9,2.4,2.2,10.06,50.48,693.7621,139.9978],
    [2402,1525540567,57.3229,-111.7387,696.6,405.6,85.5,2.9,3.2,10.52,49.7,693.7582,139.9969],
    [2403,1525540568,57.3229,-111.7374,697.1,407.1,84.4,3.0,1.9,10.13,50.06,693.768,139.9982],
    [2404,1525540569,57.323,-111.7363,698.0,409.0,84.1,2.7,1.8,9.76,49.62,693.7147,140.0042],
    [2405,1525540570,57.3231,-111.735,699.0,411.0,84.8,2.1,2.5,9.84,49.32,693.6199,139.9932],
    [2406,1525540571,57.3232,-111.7338,700.2,413.2,84.7,2.0,2.9,10.17,49.53,693.6824,140.0024],
    [2407,1525540572,57.3233,-111.7327,701.0,414.0,84.2,1.8,4.3,9.63,48.93,693.8149,139.9901],
    [2408,1525540573,57.3234,-111.7316,701.0,414.7,81.0,1.8,4.2,10.43,48.35,693.8421,140.0025],
    [2409,1525540574,57.3235,-111.7304,701.7,415.7,75.5,2.3,3.6,10.13,48.95,693.7803,140.0004],
    [2410,1525540575,57.3238,-111.7292,702.5,416.5,69.9,2.6,3.4,10.2,48.34,693.6952,140.0],
    [2411,1525540576,57.324,-111.7282,702.5,416.5,64.7,3.0,2.9,10.14,48.28,693.6073,139.9996],
    [2412,1525540577,57.3244,-111.727,701.0,415.0,57.8,2.5,2.6,9.81,47.88,693.6981,139.9979],
    [2413,1525540578,57.3247,-111.726,700.0,415.0,51.4,1.9,2.8,10.15,48.41,694.1744,139.9997],
    [2414,1525540579,57.3252,-111.7252,700.0,415.0,44.2,1.9,2.5,9.69,47.56,694.4763,140.0004],
    [2415,1525540580,57.3257,-111.7244,701.2,416.2,37.6,2.0,3.3,10.5,47.29,694.7126,139.9974],
    [2416,1525540581,57.3262,-111.7237,702.1,418.1,32.7,2.6,3.5,10.3,48.08,694.8176,140.001],
    [2417,1525540582,57.3268,-111.723,701.0,417.0,27.5,3.3,2.8,10.38,48.36,694.9351,139.9994],
    [2418,1525540583,57.3274,-111.7225,698.1,415.1,23.3,3.0,3.3,10.26,48.31,695.0742,139.9971],
    [2419,1525540584,57.328,-111.722,694.3,411.3,17.9,3.7,3.1,10.02,48.0,695.1755,139.9943],
    [2420,1525540585,57.3286,-111.7217,690.8,408.8,14.3,3.6,3.1,10.43,47.86,695.215,139.9982],
    [2421,1525540586,57.3293,-111.7214,688.2,407.2,10.6,3.6,3.5,10.23,47.57,695.2333,139.9985],
    [2422,1525540587,57.33,-111.7211,686.3,406.3,7.3,3.6,3.1,9.75,47.85,695.2082,140.0041],
    [2423,1525540588,57.3307,-111.7209,684.6,406.1,5.2,3.2,3.1,10.08,47.49,695.1223,140.0002],
    [2424,1525540589,57.3313,-111.7208,683.3,408.0,3.0,3.5,2.8,10.86,46.57,695.0139,140.0031],
    [2425,1525540590,57.332,-111.7207,682.4,413.0,361.0,3.4,2.6,9.81,46.77,694.9159,139.9944],
    [2426,1525540591,57.3327,-111.7206,681.9,416.2,358.7,4.1,2.5,10.33,46.92,694.8714,139.9993],
    [2427,1525540592,57.3334,-111.7206,682.0,420.4,357.2,4.5,2.5,10.28,46.14,694.8757,139.9983],
    [2428,1525540593,57.3341,-111.7206,683.0,422.9,357.5,3.7,2.3,10.39,46.16,694.8746,139.9963],
    [2429,1525540594,57.3347,-111.7206,684.4,424.4,357.4,3.7,2.1,10.24,45.41,695.0259,140.0022],
    [2430,1525540595,57.3354,-111.7206,685.4,423.4,357.5,3.3,1.9,10.28,45.11,695.022,139.9996],
    [2431,1525540596,57.336,-111.7206,686.1,422.3,357.1,3.4,1.7,10.54,44.27,695.0233,139.9999],
    [2432,1525540597,57.3367,-111.7206,686.3,420.5,356.5,3.9,1.5,10.68,43.94,695.0245,139.9983],
    [2433,1525540598,57.3374,-111.7206,686.1,419.0,356.3,3.7,1.4,10.4,43.65,695.0216,139.9979],
    [2434,1525540599,57.3381,-111.7206,685.2,416.2,356.0,3.9,1.4,10.36,43.22,694.9781,139.998],
    [2435,1525540600,57.3388,-111.7207,684.4,416.4,355.6,3.8,1.5,10.91,42.34,694.8196,140.0],
    [2436,1525540601,57.3394,-111.7207,684.4,418.1,355.6,3.6,1.4,10.73,42.37,694.6048,140.0003],
    [2437,1525540602,57.3401,-111.7207,684.3,419.4,355.5,3.6,1.6,10.73,42.44,694.5101,140.0025],
    [2438,1525540603,57.3407,-111.7208,684.4,419.5,355.6,3.4,1.7,10.63,41.86,694.3496,140.0061],
    [2439,1525540604,57.3414,-111.7208,685.0,418.8,355.1,3.9,1.5,11.2,41.31,694.1636,140.0046],
    [2440,1525540605,57.3421,-111.7208,686.3,420.3,355.1,3.4,1.3,10.68,41.63,693.6943,139.9954],
    [2441,1525540606,57.3428,-111.7209,688.0,420.9,355.0,2.2,1.5,10.54,41.58,693.5048,139.9952],
    [2442,1525540607,57.3434,-111.721,689.9,417.0,353.0,1.8,1.6,11.16,41.04,693.2608,139.9993],
    [2443,1525540608,57.3441,-111.7211,691.8,416.1,348.1,2.6,1.8,10.82,41.41,693.2403,139.9952],
    [2444,1525540609,57.3448,-111.7214,694.9,416.0,342.1,2.9,1.9,10.77,41.43,693.26,140.0011],
    [2445,1525540610,57.3454,-111.7218,699.2,420.2,335.6,3.5,1.7,11.53,41.24,693.2848,140.0065],
    [2446,1525540611,57.346,-111.7223,703.2,424.3,330.7,3.9,1.0,10.84,41.51,693.2841,140.0019],
    [2447,1525540612,57.3465,-111.7229,705.3,427.3,325.9,4.1,1.2,10.6,41.96,693.4023,139.9978],
    [2448,1525540613,57.3471,-111.7235,705.9,427.9,320.5,4.8,0.9,10.3,41.9,693.6127,140.0045],
    [2449,1525540614,57.3476,-111.7242,705.8,426.9,315.0,4.8,0.7,10.85,41.81,693.8333,140.0076],
    [2450,1525540615,57.348,-111.725,705.7,427.8,310.2,3.8,1.2,10.72,41.54,694.0269,140.0056],
    [2451,1525540616,57.3484,-111.7259,705.9,428.0,305.1,3.5,1.4,11.12,40.96,694.2085,140.0015],
    [2452,1525540617,57.3488,-111.7269,705.2,429.9,300.9,3.5,1.9,10.85,41.82,694.3909,140.0017],
    [2453,1525540618,57.3491,-111.7278,702.9,430.8,298.2,3.2,1.6,10.99,41.05,694.6528,139.9971],
    [2454,1525540619,57.3494,-111.7289,699.1,427.1,294.1,3.4,2.1,10.67,41.68,694.9314,139.9982],
    [2455,1525540620,57.3497,-111.7299,696.4,424.4,290.4,3.7,2.1,10.85,42.11,695.1091,140.0063],
    [2456,1525540621,57.3499,-111.731,694.4,423.5,287.0,3.7,1.6,10.43,42.75,695.2687,140.0026],
    [2457,1525540622,57.3501,-111.7321,692.2,419.2,284.0,3.9,1.9,10.63,43.22,695.4991,140.0009],
    [2458,1525540623,57.3502,-111.7332,689.5,414.4,281.7,3.9,1.7,10.98,43.71,695.6009,139.9977],
    [2459,1525540624,57.3504,-111.7344,686.4,410.5,279.8,3.9,1.4,11.29,43.97,695.7853,139.9942],
    [2460,1525540625,57.3505,-111.7355,684.1,406.1,277.2,3.8,2.3,10.84,44.51,695.8947,140.0111],
    [2461,1525540626,57.3506,-111.7366,682.0,404.4,274.8,3.4,2.7,10.74,45.01,695.9271,140.0061],
    [2462,1525540627,57.3506,-111.7379,679.4,399.6,273.2,3.0,2.4,10.83,45.67,696.0773,139.9965],
    [2463,1525540628,57.3507,-111.739,677.0,395.8,271.0,3.9,3.4,10.67,46.02,696.1241,140.0023],
    [2464,1525540629,57.3507,-111.7402,675.0,392.0,270.2,3.4,2.8,10.6,46.6,696.2059,139.9986],
    [2465,1525540630,57.3508,-111.7414,673.6,389.6,269.0,2.7,3.7,10.91,47.01,696.2643,139.9956],
    [2466,1525540631,57.3508,-111.7426,672.8,387.8,268.8,2.4,3.5,11.01,47.05,696.2553,140.0011],
    [2467,1525540632,57.3508,-111.7438,671.8,385.8,270.0,2.9,2.5,10.62,47.93,696.1415,140.0045],
    [2468,1525540633,57.3508,-111.745,670.9,384.6,269.5,2.9,3.0,10.71,48.18,696.0127,140.0013],
    [2469,1525540634,57.3508,-111.7461,670.2,383.2,270.0,2.5,2.7,10.65,48.74,695.7842,140.0036],
    [2470,1525540635,57.3509,-111.7473,669.5,380.7,269.8,2.5,2.8,10.47,49.64,695.7777,140.0029],
    [2471,1525540636,57.3509,-111.7486,669.4,380.0,270.1,2.3,2.4,10.71,49.03,695.4332,139.9983],
    [2472,1525540637,57.3509,-111.7497,670.3,379.3,269.2,2.1,2.9,10.77,49.9,695.2168,139.9963],
    [2473,1525540638,57.3509,-111.7509,671.8,379.8,269.3,2.0,2.3,10.73,49.59,695.1224,139.999],
    [2474,1525540639,57.3509,-111.7522,674.2,381.1,268.9,2.1,2.6,10.39,49.78,695.037,140.0014],
    [2475,1525540640,57.3509,-111.7533,676.8,382.8,268.6,2.2,2.5,10.1,50.07,694.9344,139.9993],
    [2476,1525540641,57.3509,-111.7545,679.3,384.3,268.6,1.8,2.6,10.18,49.96,694.8655,140.0076],
    [2477,1525540642,57.3509,-111.7557,681.8,386.5,267.6,1.7,3.5,10.67,50.8,694.59,140.0027],
    [2478,1525540643,57.3509,-111.7568,683.5,388.4,267.9,1.8,3.2,10.51,50.88,694.4035,139.9978],
    [2479,1525540644,57.351,-111.758,684.9,389.9,267.8,1.5,3.3,11.31,50.36,694.2422,139.9941],
    [2480,1525540645,57.351,-111.7591,686.1,391.3,267.7,1.4,3.1,10.43,50.67,694.1378,139.9985],
    [2481,1525540646,57.351,-111.7603,688.0,393.0,267.6,1.0,3.1,10.31,50.39,694.0765,140.0007],
    [2482,1525540647,57.351,-111.7615,690.0,395.0,267.5,0.7,3.2,10.02,50.05,693.8327,139.9925],
    [2483,1525540648,57.351,-111.7627,691.9,396.9,268.1,0.8,2.6,10.77,49.54,693.8239,139.9946],
    [2484,1525540649,57.351,-111.7639,693.5,398.4,267.7,1.9,3.2,10.31,49.94,693.8011,140.0034],
    [2485,1525540650,57.351,-111.765,694.8,401.6,267.1,2.7,3.5,10.25,49.69,693.7435,139.9947],
    [2486,1525540651,57.351,-111.7661,696.3,405.3,267.3,2.1,2.8,9.77,49.44,693.8437,139.9999],
    [2487,1525540652,57.351,-111.7673,697.9,407.8,265.9,2.5,3.9,10.3,49.32,693.9094,140.0012],
    [2488,1525540653,57.3509,-111.7684,699.0,407.6,265.6,2.4,3.7,10.03,49.28,694.1141,139.9986],
    [2489,1525540654,57.3509,-111.7695,699.6,406.7,265.9,2.4,3.5,10.61,48.82,694.4059,139.9994],
    [2490,1525540655,57.3509,-111.7707,699.9,404.6,265.6,2.6,3.6,10.48,48.75,694.5812,140.0041],
    [2491,1525540656,57.3509,-111.7719,699.6,402.5,266.0,2.6,2.9,10.06,48.82,694.6596,139.9999],
    [2492,1525540657,57.3509,-111.773,698.3,400.3,266.0,2.6,3.0,10.1,48.88,694.7112,140.0023],
    [2493,1525540658,57.3508,-111.7742,696.2,398.0,265.1,2.3,3.8,9.89,48.85,694.6768,139.9984],
    [2494,1525540659,57.3508,-111.7753,693.7,394.7,265.4,2.2,2.9,10.25,48.81,694.6462,139.9928],
    [2495,1525540660,57.3508,-111.7765,690.5,390.5,265.2,1.5,2.6,10.29,49.57,694.6637,140.0043],
    [2496,1525540661,57.3508,-111.7777,689.0,388.0,264.8,1.3,2.4,10.27,49.77,694.5221,140.001],
    [2497,1525540662,57.3507,-111.7789,688.5,386.5,264.1,1.6,3.1,10.39,49.66,694.3515,140.0048],
    [2498,1525540663,57.3507,-111.7801,688.3,385.3,263.7,1.7,3.3,10.24,49.7,694.0852,140.0006],
    [2499,1525540664,57.3506,-111.7812,688.4,384.4,264.5,2.2,1.7,10.25,49.61,693.7353,139.998],
    [2500,1525540665,57.3506,-111.7824,688.7,383.7,262.7,2.2,1.5,10.23,49.97,693.6375,140.0077],
    [2501,1525540666,57.3505,-111.7836,689.6,383.9,258.4,2.6,1.6,9.79,49.59,693.4104,139.9969],
    [2502,1525540667,57.3503,-111.7847,691.3,385.3,253.0,3.2,1.7,10.47,49.37,693.2978,140.003],
    [2503,1525540668,57.3501,-111.7857,693.9,388.2,246.0,3.8,2.4,9.91,49.47,693.1788,140.003],
    [2504,1525540669,57.3498,-111.7868,697.7,394.1,239.5,4.2,1.9,9.74,49.32,692.9785,139.9936],
    [2505,1525540670,57.3495,-111.7877,700.9,400.0,232.8,3.4,2.4,10.76,48.82,692.8265,139.9952],
    [2506,1525540671,57.3491,-111.7886,703.4,404.3,225.3,2.7,3.1,10.02,49.09,692.7603,139.9975],
    [2507,1525540672,57.3486,-111.7894,705.5,407.5,219.6,3.0,2.7,10.07,48.8,692.7198,140.0016],
    [2508,1525540673,57.3481,-111.79,707.4,408.4,213.3,2.6,3.0,10.07,48.86,693.0373,140.0013],
    [2509,1525540674,57.3476,-111.7906,709.2,409.1,207.3,3.1,3.0,10.53,48.12,693.2413,139.9994],
    [2510,1525540675,57.3471,-111.791,710.7,410.7,201.9,2.9,3.2,9.71,48.36,693.4521,139.9993],
    [2511,1525540676,57.3465,-111.7914,712.1,412.1,196.2,1.6,3.2,10.23,48.49,693.5627,140.0023],
    [2512,1525540677,57.3459,-111.7916,712.3,412.3,193.4,2.0,3.2,9.89,48.01,693.8088,140.0022],
    [2513,1525540678,57.3453,-111.7918,709.7,409.6,191.7,3.2,2.9,10.13,47.93,693.9168,140.0045],
    [2514,1525540679,57.3447,-111.792,706.4,405.4,188.5,2.4,2.8,9.64,47.8,694.0963,139.9937],
    [2515,1525540680,57.3441,-111.7921,703.6,401.9,185.8,2.3,3.1,10.38,47.68,694.0638,140.0053],
    [2516,1525540681,57.3435,-111.7922,702.4,400.0,183.4,1.4,2.9,10.23,48.4,693.9918,140.0067],
    [2517,1525540682,57.3428,-111.7922,699.6,395.6,182.2,1.1,2.5,10.25,47.95,693.7372,139.993],
    [2518,1525540683,57.3422,-111.7922,696.7,390.7,181.5,0.5,2.7,10.11,48.27,693.7265,140.003],
    [2519,1525540684,57.3416,-111.7923,695.3,387.6,182.7,2.1,3.6,10.28,48.19,693.6743,139.9928],
    [2520,1525540685,57.3409,-111.7923,695.1,386.8,184.3,3.5,3.8,10.04,48.64,693.6582,140.0075],
    [2521,1525540686,57.3403,-111.7923,696.9,387.9,183.5,2.3,3.8,10.28,49.28,693.6507,140.0016],
    [2522,1525540687,57.3396,-111.7924,698.9,389.9,184.3,2.8,3.5,10.26,48.42,693.4544,140.0037],
    [2523,1525540688,57.339,-111.7924,700.0,391.0,183.5,1.8,3.3,10.35,48.65,693.174,139.9999],
    [2524,1525540689,57.3384,-111.7924,700.5,391.5,183.4,2.2,3.1,10.59,48.32,693.068,139.9933],
    [2525,1525540690,57.3378,-111.7925,700.7,391.7,182.6,2.1,3.1,9.77,48.38,692.9724,139.9959],
    [2526,1525540691,57.3371,-111.7925,701.1,391.1,181.1,1.8,3.0,10.75,48.16,692.9005,139.9977],
    [2527,1525540692,57.3365,-111.7925,702.9,392.9,180.4,2.0,2.9,10.5,47.92,692.9526,139.9993],
    [2528,1525540693,57.3359,-111.7924,705.9,395.9,180.0,2.1,2.9,10.2,48.69,693.0005,139.9927],
    [2529,1525540694,57.3353,-111.7924,707.8,397.8,180.3,2.8,2.9,10.38,47.78,693.079,140.0058],
    [2530,1525540695,57.3346,-111.7923,709.0,399.0,179.9,3.1,3.0,9.67,48.36,693.1673,140.0038],
    [2531,1525540696,57.334,-111.7923,709.5,400.4,178.2,1.8,3.0,10.77,48.06,693.3022,139.9947],
    [2532,1525540697,57.3335,-111.7922,709.7,403.0,176.9,0.9,2.7,10.05,49.19,693.4666,140.0037],
    [2533,1525540698,57.3328,-111.7921,709.1,404.1,178.6,3.0,2.7,9.88,48.57,693.647,139.999],
    [2534,1525540699,57.3322,-111.7921,708.2,402.2,177.8,1.4,3.0,10.75,47.99,693.7691,140.0037],
    [2535,1525540700,57.3315,-111.792,706.5,398.9,176.6,-0.2,3.1,10.39,48.41,693.7097,140.0161],
    [2536,1525540701,57.3309,-111.7919,705.3,395.3,177.7,0.4,2.8,9.88,49.17,693.2799,140.005],
    [2537,1525540702,57.3303,-111.7919,703.7,393.7,178.5,0.5,2.4,10.26,49.54,692.6538,140.0098],
    [2538,1525540703,57.3296,-111.7918,701.5,391.5,179.3,1.5,2.3,10.59,49.51,691.7315,140.0005],
    [2539,1525540704,57.329,-111.7918,699.5,389.5,178.8,2.3,2.4,10.06,49.88,690.7935,139.993],
    [2540,1525540705,57.3284,-111.7917,699.7,389.7,175.0,1.5,2.4,10.11,49.92,689.9848,139.9957],
    [2541,1525540706,57.3278,-111.7915,703.5,393.5,171.1,2.0,2.9,10.07,49.9,689.9167,139.9952],
    [2542,1525540707,57.3271,-111.7912,710.9,400.9,165.5,1.6,3.6,10.07,50.04,689.0426,139.9908],
    [2543,1525540708,57.3266,-111.7909,720.2,410.2,159.4,1.2,4.3,10.28,50.79,688.6982,139.9952],
    [2544,1525540709,57.326,-111.7904,731.3,421.3,153.4,1.5,4.7,9.77,50.48,688.6287,139.9998],
    [2545,1525540710,57.3255,-111.7898,742.1,432.1,147.2,1.5,4.4,9.87,51.02,688.4071,139.9924],
    [2546,1525540711,57.3251,-111.7891,751.8,441.8,141.8,1.8,3.6,9.58,50.88,688.3612,139.9879],
    [2547,1525540712,57.3247,-111.7884,757.7,448.0,137.2,2.1,3.3,10.1,50.77,688.4294,139.9873],
    [2548,1525540713,57.3243,-111.7875,761.6,452.6,131.0,2.0,2.8,10.28,51.35,688.5224,139.9977],
    [2549,1525540714,57.3239,-111.7867,763.4,454.4,125.3,2.0,2.2,10.29,50.69,688.5991,139.9985],
    [2550,1525540715,57.3237,-111.7858,764.9,456.9,119.6,2.6,1.6,10.16,50.72,688.8577,139.9982],
    [2551,1525540716,57.3234,-111.7847,766.3,459.1,114.8,2.9,1.7,10.01,50.64,689.0529,139.9982],
    [2552,1525540717,57.3232,-111.7837,766.2,459.2,112.2,3.1,2.3,9.68,50.42,689.1085,139.9998],
    [2553,1525540718,57.323,-111.7827,765.0,459.0,108.8,3.1,2.3,10.78,50.13,689.2625,139.9945],
    [2554,1525540719,57.3229,-111.7816,763.1,458.1,104.7,3.3,1.3,10.2,49.97,689.2893,139.9954],
    [2555,1525540720,57.3228,-111.7806,761.0,456.0,101.2,3.3,0.4,10.57,49.72,689.4061,139.9949],
    [2556,1525540721,57.3227,-111.7794,758.4,454.4,98.9,3.2,0.2,10.07,49.53,689.4766,140.0013],
    [2557,1525540722,57.3226,-111.7783,756.7,453.7,97.5,2.7,0.7,9.83,49.44,689.6748,140.0005],
    [2558,1525540723,57.3225,-111.7772,755.6,453.7,96.8,2.3,1.3,9.89,49.53,689.6993,139.9951],
    [2559,1525540724,57.3225,-111.776,754.5,452.5,95.2,2.3,1.1,9.89,49.16,689.6545,139.9991],
    [2560,1525540725,57.3224,-111.7749,753.6,452.6,95.7,3.3,2.4,9.9,49.59,689.6765,139.9969],
    [2561,1525540726,57.3224,-111.7736,751.7,450.7,94.1,3.5,1.1,10.21,49.22,689.7164,139.9951],
    [2562,1525540727,57.3224,-111.7725,749.8,449.8,92.2,3.2,-0.3,9.91,49.5,689.6513,139.9949],
    [2563,1525540728,57.3223,-111.7713,749.3,449.3,93.9,3.6,1.6,9.98,49.15,689.6701,139.9981],
    [2564,1525540729,57.3223,-111.7701,749.6,450.6,93.9,3.6,1.7,10.09,49.73,689.7699,139.9986],
    [2565,1525540730,57.3223,-111.7689,749.6,450.6,93.4,3.3,1.7,9.82,49.29,689.7574,139.9991],
    [2566,1525540731,57.3223,-111.7678,749.0,450.0,93.0,2.8,1.6,10.23,48.42,689.6903,139.9949],
    [2567,1525540732,57.3222,-111.7665,748.7,450.7,92.7,2.3,2.1,10.01,48.29,689.7189,139.9936],
    [2568,1525540733,57.3222,-111.7654,748.3,450.3,92.2,2.5,2.4,9.93,48.17,689.6888,139.9976],
    [2569,1525540734,57.3222,-111.7641,747.8,449.8,91.6,2.6,2.4,10.08,48.73,689.7123,139.9962],
    [2570,1525540735,57.3222,-111.7629,747.3,448.3,90.5,2.7,1.8,9.94,48.43,689.7047,139.9982],
    [2571,1525540736,57.3223,-111.7617,747.8,447.8,90.5,2.7,2.4,10.6,48.29,689.7325,140.0009],
    [2572,1525540737,57.3223,-111.7605,748.2,447.2,90.4,1.9,2.6,10.71,48.54,689.7506,140.0013],
    [2573,1525540738,57.3223,-111.7593,748.4,446.4,89.6,1.7,1.9,10.12,49.64,689.8229,140.0023],
    [2574,1525540739,57.3223,-111.7581,748.2,446.2,89.7,1.8,2.1,9.95,49.44,689.8378,140.002],
    [2575,1525540740,57.3223,-111.7568,747.8,445.8,91.1,1.9,3.4,10.38,49.53,689.9185,139.9993],
    [2576,1525540741,57.3224,-111.7556,747.8,445.8,90.8,1.6,2.8,9.78,49.8,689.9716,139.999],
    [2577,1525540742,57.3224,-111.7544,747.7,445.7,91.1,2.2,3.1,10.2,49.78,690.1003,140.0055],
    [2578,1525540743,57.3224,-111.7532,747.1,445.2,91.1,2.6,2.6,9.95,49.98,690.1614,140.0027],
    [2579,1525540744,57.3224,-111.7519,746.4,445.4,91.3,2.0,2.6,9.88,49.75,690.2714,140.0085],
    [2580,1525540745,57.3224,-111.7508,745.9,445.0,92.5,2.0,3.7,10.08,50.02,690.3929,140.0039],
    [2581,1525540746,57.3224,-111.7495,745.3,445.1,92.7,2.1,3.6,9.83,49.46,690.5742,139.9924],
    [2582,1525540747,57.3224,-111.7483,744.5,445.4,91.8,3.1,2.4,9.64,49.3,690.6665,139.9983],
    [2583,1525540748,57.3224,-111.747,743.0,445.0,91.4,3.6,1.9,10.09,49.25,690.7979,140.0014],
    [2584,1525540749,57.3224,-111.7458,742.0,445.2,91.1,4.4,1.5,9.88,49.66,690.8779,139.9897],
    [2585,1525540750,57.3224,-111.7446,740.4,445.4,90.3,4.8,1.0,10.5,49.18,690.9911,139.9925],
    [2586,1525540751,57.3224,-111.7434,738.4,444.4,90.7,3.6,1.8,10.05,49.29,691.048,139.9903],
    [2587,1525540752,57.3224,-111.7421,737.2,444.2,90.8,3.6,1.8,10.07,49.47,691.1599,139.9984],
    [2588,1525540753,57.3224,-111.7409,736.0,444.0,90.9,3.4,1.8,9.99,48.4,691.0786,140.0012],
    [2589,1525540754,57.3224,-111.7396,734.5,443.5,91.8,3.6,2.7,9.84,47.9,690.9375,139.9968],
    [2590,1525540755,57.3224,-111.7385,733.7,443.7,90.8,3.3,1.6,10.51,47.38,690.9084,140.0075],
    [2591,1525540756,57.3225,-111.7371,731.8,442.8,90.8,2.3,2.0,10.49,46.88,690.8754,139.9971],
    [2592,1525540757,57.3225,-111.736,730.5,441.5,91.2,2.0,2.4,9.58,46.82,690.9768,139.9958],
    [2593,1525540758,57.3225,-111.7346,730.8,442.8,90.9,2.3,3.3,9.76,46.83,690.9318,139.9959],
    [2594,1525540759,57.3225,-111.7334,732.2,445.2,89.7,2.4,3.8,9.48,46.64,690.8581,139.9944],
    [2595,1525540760,57.3226,-111.7322,733.4,446.4,86.6,3.2,3.3,10.07,46.0,690.7097,140.0],
    [2596,1525540761,57.3226,-111.7308,733.7,447.7,82.8,3.5,3.6,10.2,46.26,690.5964,139.9915],
    [2597,1525540762,57.3228,-111.7296,733.3,447.3,77.5,3.8,2.6,10.19,45.27,690.5857,139.9926],
    [2598,1525540763,57.323,-111.7285,733.0,447.0,72.0,3.4,2.2,9.83,45.08,690.5645,139.9938],
    [2599,1525540764,57.3232,-111.7272,733.9,447.9,66.9,2.6,2.9,9.97,44.91,690.764,139.9947],
    [2600,1525540765,57.3235,-111.7262,735.3,449.2,62.1,2.6,3.1,10.48,44.61,691.199,139.9991],
    [2601,1525540766,57.3239,-111.725,736.8,451.8,56.5,2.1,3.1,10.12,44.9,691.3826,140.0024],
    [2602,1525540767,57.3243,-111.724,737.7,452.7,50.7,2.0,3.2,9.83,45.14,692.0017,140.0082],
    [2603,1525540768,57.3248,-111.7232,737.9,452.9,45.2,2.1,2.9,10.01,45.95,692.1092,140.0028],
    [2604,1525540769,57.3253,-111.7223,735.9,451.9,39.6,1.6,3.3,10.18,46.26,692.2009,140.0001],
    [2605,1525540770,57.3258,-111.7216,731.8,447.8,33.0,2.6,2.8,9.59,46.97,692.0062,139.9957],
    [2606,1525540771,57.3264,-111.7209,726.1,443.1,24.5,3.6,2.3,10.08,47.64,691.8714,139.9954],
    [2607,1525540772,57.327,-111.7205,721.0,439.0,17.3,3.8,2.5,10.24,48.07,691.8364,139.9952],
    [2608,1525540773,57.3277,-111.7201,717.8,435.8,10.2,4.3,2.8,9.81,47.78,692.0222,140.0027],
    [2609,1525540774,57.3284,-111.7199,717.2,436.2,4.9,4.7,2.7,10.11,47.74,692.0051,139.999],
    [2610,1525540775,57.3291,-111.7197,719.0,439.1,361.2,4.6,1.8,9.74,47.89,692.0155,139.9986],
    [2611,1525540776,57.3298,-111.7197,721.0,444.4,359.7,4.3,2.0,10.25,47.46,692.0033,139.9993],
    [2612,1525540777,57.3304,-111.7196,721.3,448.3,358.8,4.2,1.9,10.1,47.11,691.9119,140.006],
    [2613,1525540778,57.3311,-111.7196,720.4,452.4,357.2,5.0,1.7,9.97,46.53,691.924,139.9974],
    [2614,1525540779,57.3318,-111.7196,720.1,456.7,356.6,5.0,1.6,9.95,45.83,691.9623,140.0004],
    [2615,1525540780,57.3325,-111.7195,719.9,459.3,356.5,4.7,1.6,10.76,44.8,691.8403,140.001],
    [2616,1525540781,57.3331,-111.7196,720.1,462.2,355.9,4.6,1.4,10.74,43.95,691.596,139.9989],
    [2617,1525540782,57.3338,-111.7196,720.9,462.9,355.0,4.8,1.4,10.76,43.78,691.3135,139.9986],
    [2618,1525540783,57.3344,-111.7196,721.2,461.6,354.2,5.0,1.4,10.28,43.3,691.084,139.9993],
    [2619,1525540784,57.3352,-111.7197,721.1,457.5,353.9,4.7,1.2,10.97,42.31,690.8172,139.9994],
    [2620,1525540785,57.3358,-111.7197,722.2,455.2,353.0,5.0,1.3,10.59,42.35,690.5379,139.9967],
    [2621,1525540786,57.3365,-111.7198,724.4,459.0,352.7,4.9,0.9,10.57,42.61,690.5138,139.9965],
    [2622,1525540787,57.3371,-111.7199,727.1,462.1,352.6,4.9,0.6,10.24,42.17,690.4887,140.0012],
    [2623,1525540788,57.3378,-111.7199,730.6,463.6,352.3,4.8,0.5,10.66,41.38,690.537,139.9951],
    [2624,1525540789,57.3385,-111.72,734.0,466.0,352.1,4.7,0.2,10.95,41.58,690.5235,139.9988],
    [2625,1525540790,57.3391,-111.7201,736.8,469.9,351.8,4.7,0.6,10.99,41.0,690.5162,139.9975],
    [2626,1525540791,57.3398,-111.7202,738.4,472.1,352.2,4.4,0.6,10.58,40.98,690.5536,140.0034],
    [2627,1525540792,57.3404,-111.7203,739.0,473.0,352.5,4.2,0.9,11.33,40.74,690.5245,139.996],
    [2628,1525540793,57.3411,-111.7204,739.0,473.1,353.4,3.5,1.0,10.33,40.85,690.4911,140.0007],
    [2629,1525540794,57.3417,-111.7205,738.9,471.2,353.5,3.7,1.3,10.23,41.06,690.5643,140.0083],
    [2630,1525540795,57.3424,-111.7205,738.8,469.8,353.8,3.4,1.1,10.66,40.96,690.5024,140.0022],
    [2631,1525540796,57.343,-111.7206,738.6,468.9,353.7,3.6,1.4,10.52,41.13,690.3927,140.0061],
    [2632,1525540797,57.3437,-111.7207,738.4,462.7,353.1,3.3,1.2,10.56,40.77,690.2673,140.0018],
    [2633,1525540798,57.3443,-111.7208,738.5,460.0,351.6,2.4,1.2,11.16,40.55,690.0819,140.0013],
    [2634,1525540799,57.3449,-111.7209,738.5,458.9,347.7,3.1,1.0,10.23,40.75,689.9618,139.9993],
    [2635,1525540800,57.3456,-111.7212,738.7,458.7,341.3,3.8,0.7,10.89,40.58,689.8726,140.0056],
    [2636,1525540801,57.3462,-111.7216,739.9,459.9,335.4,3.9,0.9,10.79,41.0,689.7785,140.0021],
    [2637,1525540802,57.3468,-111.7221,741.7,462.7,329.4,3.7,0.6,10.93,40.69,689.6847,139.9976],
    [2638,1525540803,57.3473,-111.7227,743.9,464.9,323.2,3.9,0.6,10.85,41.77,689.5761,139.9959],
    [2639,1525540804,57.3478,-111.7234,745.6,465.6,317.0,4.2,1.1,10.72,41.33,689.6109,140.0048],
    [2640,1525540805,57.3483,-111.7242,746.9,467.3,311.4,4.2,1.6,11.21,41.34,689.6632,140.0028],
    [2641,1525540806,57.3487,-111.725,748.0,469.0,306.5,4.5,1.4,10.54,42.04,689.7472,140.001],
    [2642,1525540807,57.349,-111.7258,749.1,469.9,302.8,4.6,0.8,10.61,42.1,689.7911,140.0036],
    [2643,1525540808,57.3494,-111.7268,750.1,473.8,298.9,4.3,0.5,10.61,42.45,689.8973,140.0024],
    [2644,1525540809,57.3497,-111.7279,750.1,476.1,294.4,4.3,0.9,10.23,42.54,690.1097,140.0004],
    [2645,1525540810,57.35,-111.7289,749.2,476.0,290.0,4.6,1.6,11.02,42.16,690.3295,139.9988],
    [2646,1525540811,57.3502,-111.7299,748.2,476.3,286.6,4.6,1.7,11.31,42.31,690.4064,140.0013],
    [2647,1525540812,57.3503,-111.731,747.3,476.4,283.5,5.0,1.8,11.02,43.0,690.4065,139.9996],
    [2648,1525540813,57.3505,-111.732,745.8,472.8,281.4,4.9,1.8,10.27,43.71,690.5197,140.0099],
    [2649,1525540814,57.3506,-111.7332,743.7,469.5,278.5,5.0,2.3,10.67,44.35,690.6759,140.0009],
    [2650,1525540815,57.3507,-111.7342,741.8,466.1,277.1,5.0,1.6,10.7,44.56,690.7665,140.0025],
    [2651,1525540816,57.3508,-111.7354,740.0,463.4,275.4,4.6,1.4,10.83,44.42,690.8766,140.0012],
    [2652,1525540817,57.3509,-111.7365,739.0,461.8,273.6,4.9,1.8,11.06,43.93,690.8427,139.9974],
    [2653,1525540818,57.3509,-111.7377,738.1,459.7,271.1,4.7,2.8,10.68,44.55,690.8786,140.0092],
    [2654,1525540819,57.351,-111.7388,737.1,457.1,270.1,4.0,2.2,10.67,43.59,690.8899,139.9988],
    [2655,1525540820,57.351,-111.7399,735.7,453.7,268.9,3.2,2.4,10.01,44.27,690.8499,140.0088],
    [2656,1525540821,57.351,-111.741,734.5,451.5,268.1,2.7,2.4,10.17,44.89,690.7845,139.9971],
    [2657,1525540822,57.351,-111.7423,734.4,450.3,267.4,3.1,2.5,10.93,45.48,690.6506,140.0007],
    [2658,1525540823,57.351,-111.7434,734.2,449.2,266.1,2.8,3.4,10.73,46.46,690.3805,140.0016],
    [2659,1525540824,57.3509,-111.7445,733.8,447.8,265.8,2.2,3.0,10.6,47.23,690.0858,139.999],
    [2660,1525540825,57.3509,-111.7456,734.3,447.3,266.1,2.0,2.7,10.43,49.29,689.9673,139.9989],
    [2661,1525540826,57.3509,-111.7468,735.1,447.0,266.0,2.4,3.0,10.06,49.22,689.7979,139.9984],
    [2662,1525540827,57.3509,-111.748,736.8,447.8,266.5,2.5,3.1,10.51,50.35,689.6691,139.9926],
    [2663,1525540828,57.3509,-111.7491,739.4,449.3,266.5,2.4,3.3,10.17,50.35,689.5912,139.998],
    [2664,1525540829,57.3509,-111.7502,742.5,451.4,266.8,2.5,2.9,10.27,51.04,689.5695,139.9932],
    [2665,1525540830,57.3509,-111.7514,745.0,452.8,266.8,2.7,3.0,10.25,51.36,689.3508,140.0002],
    [2666,1525540831,57.3509,-111.7525,746.7,453.4,266.3,3.1,3.7,10.06,51.5,689.2449,139.9993],
    [2667,1525540832,57.3508,-111.7536,748.1,453.0,266.6,3.8,3.1,10.16,51.47,689.1228,139.9965],
    [2668,1525540833,57.3508,-111.7547,749.2,454.2,267.2,4.3,2.7,10.22,50.85,689.0902,140.0005],
    [2669,1525540834,57.3508,-111.7558,750.3,454.4,267.2,4.7,2.9,10.9,49.73,689.0472,139.9979],
    [2670,1525540835,57.3508,-111.757,751.7,456.0,268.2,4.8,1.7,10.32,49.42,689.0591,140.0021],
    [2671,1525540836,57.3508,-111.7581,753.5,458.5,268.5,4.6,1.5,10.27,49.06,689.0363,140.0031],
    [2672,1525540837,57.3508,-111.7591,754.5,459.5,267.6,4.8,2.4,10.09,48.05,688.9472,140.0033],
    [2673,1525540838,57.3508,-111.7603,755.3,460.3,267.8,4.7,2.1,9.98,46.99,688.7999,140.0001],
    [2674,1525540839,57.3508,-111.7614,755.8,460.6,267.7,4.8,2.1,10.82,46.06,688.7842,140.0036],
    [2675,1525540840,57.3508,-111.7625,755.8,460.1,267.4,5.1,2.3,10.28,45.83,688.5953,140.0034],
    [2676,1525540841,57.3508,-111.7635,756.1,460.3,267.0,4.4,2.5,10.28,46.16,688.5688,139.9989],
    [2677,1525540842,57.3508,-111.7648,757.5,463.7,266.7,4.3,2.7,10.53,45.02,688.3568,139.9953],
    [2678,1525540843,57.3508,-111.7658,758.4,466.4,266.7,4.8,2.7,10.22,45.0,688.2879,139.9902],
    [2679,1525540844,57.3507,-111.767,759.2,468.5,266.1,4.1,3.3,10.07,45.63,688.3109,139.9987],
    [2680,1525540845,57.3507,-111.768,760.6,469.6,265.9,4.0,3.1,10.71,44.89,688.3051,140.0029],
    [2681,1525540846,57.3507,-111.7692,761.7,468.9,266.5,3.7,2.6,9.92,45.28,688.333,140.0004],
    [2682,1525540847,57.3507,-111.7703,763.1,469.2,265.7,4.0,3.9,10.21,45.5,688.3717,140.0042],
    [2683,1525540848,57.3507,-111.7714,764.4,468.4,266.8,4.4,3.0,10.24,45.8,688.4194,139.9961],
    [2684,1525540849,57.3507,-111.7725,764.9,467.9,267.7,4.3,2.8,10.21,46.83,688.4192,140.0025],
    [2685,1525540850,57.3507,-111.7735,764.9,466.9,267.7,4.1,3.3,10.53,46.35,688.3768,140.0],
    [2686,1525540851,57.3507,-111.7746,764.8,465.8,269.0,3.9,2.1,10.03,46.92,688.3198,140.0011],
    [2687,1525540852,57.3507,-111.7758,764.5,465.1,269.3,4.2,1.8,9.92,46.92,688.0491,140.0053],
    [2688,1525540853,57.3507,-111.7768,763.9,463.9,269.1,4.7,1.9,10.84,46.19,687.886,140.0013],
    [2689,1525540854,57.3507,-111.778,763.6,462.6,268.8,4.7,2.1,9.99,46.57,687.6994,140.003],
    [2690,1525540855,57.3507,-111.7791,763.8,461.8,268.7,4.9,1.9,10.27,46.57,687.4944,140.003],
    [2691,1525540856,57.3507,-111.7802,765.3,462.2,268.7,4.7,1.1,9.86,46.33,687.2554,140.0024],
    [2692,1525540857,57.3507,-111.7813,767.8,463.8,267.6,4.3,0.5,10.3,45.86,687.1258,140.0022],
    [2693,1525540858,57.3507,-111.7824,770.0,465.0,264.8,4.3,0.2,10.24,45.76,686.9423,140.0001],
    [2694,1525540859,57.3506,-111.7834,771.8,465.8,260.2,5.2,1.0,10.02,45.31,686.9686,139.9971],
    [2695,1525540860,57.3505,-111.7845,774.3,468.3,253.0,5.4,2.2,10.41,45.14,687.0943,140.0002],
    [2696,1525540861,57.3503,-111.7854,776.4,470.4,248.6,5.4,1.2,10.2,44.92,687.2571,139.9948],
    [2697,1525540862,57.35,-111.7865,779.5,475.2,241.9,5.3,1.3,10.2,45.26,687.754,140.005],
    [2698,1525540863,57.3497,-111.7874,782.0,480.3,236.3,5.4,1.2,9.96,44.78,688.0099,140.0044],
    [2699,1525540864,57.3493,-111.7883,783.0,483.4,232.3,6.0,0.7,10.35,43.84,688.1884,140.0],
    [2700,1525540865,57.3489,-111.7891,781.1,482.9,226.9,5.9,1.2,10.42,44.3,688.207,139.9987],
    [2701,1525540866,57.3485,-111.7898,777.4,479.1,220.4,5.5,2.3,10.85,43.19,688.0663,139.9965],
    [2702,1525540867,57.348,-111.7904,772.7,473.7,213.4,4.6,2.7,9.94,43.59,688.0496,139.9971],
    [2703,1525540868,57.3474,-111.7909,768.6,468.6,206.5,3.8,2.6,10.16,43.53,688.0035,139.9991],
    [2704,1525540869,57.3469,-111.7914,766.4,466.4,200.9,4.0,2.6,10.1,43.72,687.8662,140.0028],
    [2705,1525540870,57.3463,-111.7917,766.2,466.2,196.5,4.4,2.5,10.29,43.06,687.9567,139.9919],
    [2706,1525540871,57.3457,-111.7919,767.1,467.1,193.3,4.5,2.1,10.56,43.09,688.1714,140.0014],
    [2707,1525540872,57.3451,-111.7921,768.4,467.3,190.9,4.9,2.0,10.05,43.57,688.3582,139.9938],
    [2708,1525540873,57.3445,-111.7922,769.5,468.5,188.6,4.8,1.6,9.6,43.53,688.4547,140.0016],
    [2709,1525540874,57.3439,-111.7923,770.5,468.5,186.7,4.6,1.2,10.34,43.32,688.4645,140.0023],
    [2710,1525540875,57.3432,-111.7923,770.2,467.2,186.2,5.1,1.5,10.04,43.58,688.3812,139.9993],
    [2711,1525540876,57.3426,-111.7923,768.2,464.0,185.8,5.1,1.9,10.41,42.93,688.4071,139.9978],
    [2712,1525540877,57.3419,-111.7924,765.6,459.6,185.4,5.1,2.1,9.55,43.1,688.4567,139.9985],
    [2713,1525540878,57.3413,-111.7924,763.6,455.6,185.2,5.1,2.3,10.06,42.96,688.4515,139.9992],
    [2714,1525540879,57.3407,-111.7924,763.1,454.1,184.4,4.4,2.5,10.34,42.54,688.384,139.9987],
    [2715,1525540880,57.3401,-111.7924,763.7,454.7,184.3,4.4,2.8,10.2,43.02,688.2828,140.0024],
    [2716,1525540881,57.3395,-111.7925,764.0,455.0,183.7,4.0,2.6,10.23,42.72,688.1304,140.001],
    [2717,1525540882,57.3389,-111.7925,763.5,454.5,183.3,3.9,2.8,10.31,43.44,688.0806,139.9985],
    [2718,1525540883,57.3382,-111.7925,763.3,454.3,182.7,3.5,3.1,10.59,43.7,688.1645,139.9989],
    [2719,1525540884,57.3375,-111.7925,763.7,454.7,182.5,3.9,3.4,10.35,45.08,688.2303,140.0018],
    [2720,1525540885,57.3369,-111.7924,764.7,454.7,181.7,3.1,3.2,10.54,45.29,688.2756,139.9939],
    [2721,1525540886,57.3363,-111.7924,766.4,456.4,179.2,0.6,3.2,11.04,45.37,688.4421,139.9998],
    [2722,1525540887,57.3356,-111.7924,767.7,457.7,179.5,1.3,2.8,10.17,46.5,688.5393,140.0048],
    [2723,1525540888,57.335,-111.7924,767.5,457.5,180.4,2.2,1.9,10.24,47.75,688.507,139.9971],
    [2724,1525540889,57.3344,-111.7923,766.9,457.1,179.5,1.3,1.9,10.38,48.19,688.4232,140.003],
    [2725,1525540890,57.3338,-111.7923,765.7,457.7,180.7,2.7,2.3,9.93,48.18,688.2556,139.9949],
    [2726,1525540891,57.3332,-111.7923,764.1,458.0,181.3,3.1,2.5,9.97,48.41,688.1651,139.995],
    [2727,1525540892,57.3325,-111.7923,762.8,458.1,181.0,2.6,2.3,9.84,48.4,687.7899,139.9982],
    [2728,1525540893,57.3319,-111.7922,762.7,456.3,181.4,2.9,2.8,10.28,48.95,687.5816,140.0016],
    [2729,1525540894,57.3312,-111.7922,763.4,454.4,181.0,2.0,3.2,10.75,48.26,687.0432,140.0021],
    [2730,1525540895,57.3306,-111.7922,764.9,454.9,180.9,2.2,3.1,10.41,49.13,686.7428,140.0043],
    [2731,1525540896,57.33,-111.7922,767.2,457.2,181.5,3.2,3.0,10.34,49.64,686.1996,139.9995],
    [2732,1525540897,57.3294,-111.7922,770.0,460.0,181.1,4.2,3.2,9.9,49.53,685.6159,139.9955],
    [2733,1525540898,57.3287,-111.7921,773.4,463.4,178.9,4.2,3.6,10.16,49.83,684.9079,140.005],
    [2734,1525540899,57.3281,-111.792,777.6,467.6,174.0,2.2,3.4,10.11,49.44,684.4006,140.0002],
    [2735,1525540900,57.3275,-111.7918,783.3,473.3,170.0,2.1,3.6,10.57,49.23,683.8167,139.9903],
    [2736,1525540901,57.3269,-111.7915,790.0,480.0,166.4,2.9,3.9,10.1,49.8,683.5971,139.9926],
    [2737,1525540902,57.3263,-111.7911,797.3,487.3,161.7,2.8,4.0,9.94,50.2,683.4726,139.9996],
    [2738,1525540903,57.3258,-111.7907,804.1,494.1,156.8,2.5,3.6,10.39,50.31,683.4247,139.9925],
    [2739,1525540904,57.3253,-111.7901,811.3,501.3,150.1,1.8,3.1,10.28,50.37,683.4578,139.9915],
    [2740,1525540905,57.3249,-111.7895,817.9,507.9,144.8,2.4,2.9,9.98,50.81,683.6364,139.9957],
    [2741,1525540906,57.3244,-111.7888,823.2,513.2,140.4,3.0,2.7,10.19,50.74,683.8327,139.9939],
    [2742,1525540907,57.324,-111.788,826.0,517.0,134.9,3.3,1.6,9.85,50.87,683.991,140.0058],
    [2743,1525540908,57.3236,-111.7872,827.0,518.0,129.4,3.8,1.5,10.58,50.18,684.17,139.9928],
    [2744,1525540909,57.3233,-111.7863,826.5,518.5,124.3,3.8,1.3,10.13,50.22,684.2563,139.9941],
    [2745,1525540910,57.323,-111.7854,824.8,516.8,119.4,3.9,1.1,10.28,49.13,684.347,139.996],
    [2746,1525540911,57.3228,-111.7843,821.9,514.9,115.3,4.2,1.5,9.27,49.55,684.5266,140.001],
    [2747,1525540912,57.3225,-111.7832,818.9,512.6,109.4,4.1,0.3,9.68,49.3,684.6067,140.0107],
    [2748,1525540913,57.3224,-111.7821,817.7,511.7,104.6,4.1,0.0,9.36,48.94,684.5818,139.9885],
    [2749,1525540914,57.3223,-111.7811,816.8,511.8,102.2,4.3,0.6,9.98,48.75,684.4631,139.9963],
    [2750,1525540915,57.3222,-111.7799,815.4,511.4,98.9,4.6,0.2,9.63,47.96,684.4155,139.9981],
    [2751,1525540916,57.3221,-111.7787,813.3,509.3,96.3,5.2,0.1,9.46,47.65,684.4251,139.9908],
    [2752,1525540917,57.322,-111.7775,811.5,508.5,93.6,5.5,-0.4,9.92,47.32,684.3904,140.0049],
    [2753,1525540918,57.322,-111.7764,811.6,509.6,91.7,5.0,-0.3,9.95,47.3,684.3936,139.9976],
    [2754,1525540919,57.322,-111.7752,812.5,511.5,91.5,5.6,0.5,9.92,46.98,684.3835,139.9947],
    [2755,1525540920,57.322,-111.774,813.4,512.4,90.6,5.6,0.0,10.08,46.29,684.281,140.0031],
    [2756,1525540921,57.322,-111.7729,814.2,514.2,90.4,5.7,0.1,9.81,46.05,684.1799,140.0021],
    [2757,1525540922,57.322,-111.7717,814.5,514.5,90.3,6.2,0.0,9.32,45.65,683.9962,140.001],
    [2758,1525540923,57.322,-111.7705,814.5,514.5,90.0,6.1,-0.5,9.97,45.8,683.8287,140.0007],
    [2759,1525540924,57.322,-111.7693,814.7,515.7,91.0,6.1,0.4,10.29,44.92,683.6349,139.9989],
    [2760,1525540925,57.3219,-111.7682,815.3,516.3,90.6,6.2,-0.3,9.86,44.85,683.4367,139.9963],
    [2761,1525540926,57.3219,-111.7671,816.5,517.5,89.0,6.0,-1.7,10.13,44.3,683.2048,139.9995],
    [2762,1525540927,57.3219,-111.7658,818.3,520.3,89.6,6.3,-0.9,10.03,44.61,682.8559,139.9904],
    [2763,1525540928,57.3219,-111.7646,820.8,522.8,89.7,6.5,-0.8,10.22,43.91,682.8326,139.9896],
    [2764,1525540929,57.3219,-111.7634,823.6,524.6,89.5,6.4,-0.7,10.3,42.89,682.8011,139.9963],
    [2765,1525540930,57.3219,-111.7623,826.6,526.6,90.2,6.3,0.0,9.78,43.12,682.9112,139.994],
    [2766,1525540931,57.3219,-111.7611,829.6,528.7,89.5,5.5,-0.8,9.83,43.45,683.2464,139.9969],
    [2767,1525540932,57.3219,-111.7599,832.3,531.3,89.2,5.4,-0.7,10.64,42.73,683.4106,139.9963],
    [2768,1525540933,57.3219,-111.7588,833.4,531.4,89.8,4.9,0.3,9.73,42.98,683.494,140.002],
    [2769,1525540934,57.3219,-111.7576,833.3,531.3,88.8,4.5,-0.3,9.79,43.26,683.4701,140.0033],
    [2770,1525540935,57.322,-111.7564,831.9,529.9,88.9,4.5,0.3,10.13,43.8,683.5371,139.9993],
    [2771,1525540936,57.322,-111.7552,829.6,527.6,88.8,4.7,0.4,10.4,43.72,683.5503,140.0006],
    [2772,1525540937,57.322,-111.754,827.2,525.2,88.4,4.5,0.2,10.04,44.18,683.6088,140.0051],
    [2773,1525540938,57.322,-111.7528,825.4,523.5,88.9,5.0,0.5,10.03,44.6,683.6598,140.0032],
    [2774,1525540939,57.322,-111.7516,824.7,523.7,89.2,4.6,0.5,10.68,44.46,683.6846,139.9974],
    [2775,1525540940,57.322,-111.7504,824.5,523.7,90.2,4.7,1.6,10.06,44.68,683.6413,139.9946],
    [2776,1525540941,57.322,-111.7492,824.0,523.9,90.3,5.2,1.5,9.45,44.62,683.6541,140.0026],
    [2777,1525540942,57.3221,-111.748,823.5,524.4,89.6,5.6,0.6,10.21,45.01,683.6741,139.9984],
    [2778,1525540943,57.3221,-111.7468,823.0,525.1,89.3,5.8,0.3,10.05,44.85,683.7424,140.0002],
    [2779,1525540944,57.3221,-111.7456,822.7,525.8,89.5,5.7,0.6,10.05,45.08,683.8335,139.9989],
    [2780,1525540945,57.3221,-111.7445,822.9,527.9,89.6,5.8,0.6,9.94,44.73,683.8291,139.9993],
    [2781,1525540946,57.3221,-111.7433,823.1,529.1,89.4,5.8,0.2,9.78,44.4,683.7925,140.0021],
    [2782,1525540947,57.3221,-111.7419,822.9,529.9,89.5,5.9,-0.1,10.02,44.22,683.7461,139.9971],
    [2783,1525540948,57.3221,-111.7407,822.3,530.3,89.8,6.1,0.0,10.4,44.05,683.6929,139.9963],
    [2784,1525540949,57.3221,-111.7395,821.4,530.4,89.9,6.2,-0.1,10.19,43.94,683.6113,139.996],
    [2785,1525540950,57.3221,-111.7383,821.1,531.1,89.7,6.1,-0.5,10.7,43.57,683.6139,139.9954],
    [2786,1525540951,57.3221,-111.737,821.5,532.5,89.2,6.5,-1.2,9.92,43.74,683.5489,140.0039],
    [2787,1525540952,57.3221,-111.7358,821.9,533.6,89.4,6.2,-1.0,10.05,43.64,683.4342,139.9927],
    [2788,1525540953,57.3221,-111.7345,822.4,534.4,90.3,6.1,-0.1,10.03,42.92,683.3022,139.9944],
    [2789,1525540954,57.3221,-111.7333,823.1,536.1,90.0,6.3,0.5,9.96,42.78,683.2558,139.9892],
    [2790,1525540955,57.3221,-111.732,823.7,536.7,87.8,6.2,0.7,10.78,42.03,683.3444,139.998],
    [2791,1525540956,57.3222,-111.7308,824.3,538.3,82.6,6.0,-0.1,10.35,42.06,683.4917,139.9993],
    [2792,1525540957,57.3223,-111.7296,825.4,539.4,77.3,6.2,0.2,10.14,41.88,683.6077,139.9974],
    [2793,1525540958,57.3224,-111.7285,827.0,541.0,71.5,6.0,0.4,9.69,41.93,683.7582,139.9944],
    [2794,1525540959,57.3227,-111.7273,828.2,542.2,65.2,5.7,0.4,10.33,41.39,683.8699,139.9951],
    [2795,1525540960,57.3229,-111.7263,827.6,541.6,59.2,5.8,0.3,10.05,41.61,684.0206,139.9961],
    [2796,1525540961,57.3233,-111.7252,825.5,540.5,50.8,6.1,-0.2,10.13,41.47,684.393,139.9939],
    [2797,1525540962,57.3237,-111.7242,823.5,538.5,43.1,5.8,-0.1,10.08,41.5,685.0264,139.9964],
    [2798,1525540963,57.3242,-111.7234,821.8,536.8,36.6,5.2,0.6,10.22,41.29,685.5825,140.0033],
    [2799,1525540964,57.3247,-111.7227,820.2,535.2,30.6,5.4,1.0,10.56,40.8,686.076,140.0019],
    [2800,1525540965,57.3253,-111.722,817.7,533.7,24.3,6.0,1.2,10.17,41.74,686.3371,140.0123],
    [2801,1525540966,57.3259,-111.7215,814.0,530.4,20.5,5.1,0.8,9.98,41.74,686.5006,139.9999],
    [2802,1525540967,57.3265,-111.7211,807.3,524.3,16.6,4.9,0.8,10.17,42.17,686.44,140.0007],
    [2803,1525540968,57.3271,-111.7207,800.3,518.0,11.9,5.4,0.9,9.88,42.47,686.3274,139.9892],
    [2804,1525540969,57.3278,-111.7204,793.7,511.7,8.3,4.8,1.1,10.38,42.39,686.2463,139.9983],
    [2805,1525540970,57.3284,-111.7202,788.4,507.4,4.3,5.5,1.3,10.13,42.14,686.1912,140.0009],
    [2806,1525540971,57.3291,-111.72,786.7,506.2,360.2,6.5,1.9,9.73,42.55,686.1056,139.9951],
    [2807,1525540972,57.3298,-111.72,787.5,510.5,358.5,5.9,1.6,9.91,42.58,686.0432,139.997],
    [2808,1525540973,57.3305,-111.7199,788.5,514.2,358.0,5.4,0.9,10.75,42.36,686.0194,139.9951],
    [2809,1525540974,57.3311,-111.7199,789.2,519.5,356.4,6.7,0.3,10.28,42.72,686.0467,139.9978],
    [2810,1525540975,57.3318,-111.7198,790.1,524.2,356.6,6.6,0.2,10.38,42.35,686.0769,140.0005],
    [2811,1525540976,57.3324,-111.7198,791.1,528.9,357.8,6.1,0.4,11.02,41.78,686.0591,139.9963],
    [2812,1525540977,57.3332,-111.7197,792.0,534.1,359.4,5.5,0.4,10.28,42.01,686.0845,139.9984],
    [2813,1525540978,57.3338,-111.7196,792.3,534.3,360.3,5.1,0.2,10.34,42.43,686.0925,139.9997],
    [2814,1525540979,57.3345,-111.7195,792.3,531.3,360.3,4.9,0.3,10.24,41.84,686.0731,139.9972],
    [2815,1525540980,57.3351,-111.7195,792.2,528.7,358.8,5.9,0.3,10.61,40.77,686.0733,139.9988],
    [2816,1525540981,57.3358,-111.7194,792.1,524.4,357.9,6.0,0.1,10.41,41.52,686.0823,139.9997],
    [2817,1525540982,57.3365,-111.7194,791.8,525.1,357.6,5.6,0.0,10.53,40.83,686.0688,140.0025],
    [2818,1525540983,57.3371,-111.7193,791.7,526.7,356.5,6.0,-0.2,10.47,41.56,686.0215,140.0003],
    [2819,1525540984,57.3377,-111.7193,791.8,526.2,355.9,5.9,-0.4,10.32,41.17,686.004,139.9969],
    [2820,1525540985,57.3384,-111.7193,791.9,523.9,355.2,5.9,-0.5,9.91,40.75,686.0277,140.0031],
    [2821,1525540986,57.3391,-111.7193,792.1,524.0,354.4,5.9,-0.5,10.32,40.47,686.0562,139.9943],
    [2822,1525540987,57.3397,-111.7193,792.3,523.0,353.9,5.7,-0.3,10.31,40.48,686.0903,140.0012],
    [2823,1525540988,57.3404,-111.7194,792.5,522.1,353.3,5.6,-0.3,10.59,39.94,686.1111,140.0023],
    [2824,1525540989,57.341,-111.7194,792.6,522.7,353.3,4.7,-0.3,11.18,39.88,686.0193,139.9997],
    [2825,1525540990,57.3417,-111.7195,792.6,520.7,351.6,4.7,-0.3,10.69,40.0,685.8519,139.9981],
    [2826,1525540991,57.3424,-111.7197,792.5,518.4,349.0,4.7,-0.5,10.27,40.32,685.6626,139.994],
    [2827,1525540992,57.343,-111.7198,791.9,518.2,346.2,4.7,-0.6,10.73,39.77,685.5827,140.0032],
    [2828,1525540993,57.3436,-111.7201,791.3,514.9,340.9,5.6,-0.4,10.81,39.74,685.5392,139.9981],
    [2829,1525540994,57.3443,-111.7205,792.2,513.5,336.2,5.8,-0.3,11.24,39.73,685.514,140.0005],
    [2830,1525540995,57.3448,-111.7208,793.6,513.5,333.2,5.5,-0.3,10.77,39.97,685.5417,140.0],
    [2831,1525540996,57.3454,-111.7214,795.8,515.8,329.5,5.4,-0.5,10.07,39.94,685.619,139.9989],
    [2832,1525540997,57.346,-111.722,797.5,517.4,325.6,5.3,-0.6,10.3,39.85,685.6752,140.0039],
    [2833,1525540998,57.3465,-111.7226,798.5,519.9,321.8,5.4,-0.4,10.68,39.74,685.7236,139.9988],
    [2834,1525540999,57.347,-111.7233,798.9,521.0,318.0,5.6,-0.4,10.44,40.09,685.8148,140.0013],
    [2835,1525541000,57.3474,-111.724,798.8,520.5,314.3,5.7,-0.2,10.57,40.15,685.9166,140.0035],
    [2836,1525541001,57.3479,-111.7248,798.2,520.2,310.6,6.0,0.0,11.03,40.11,686.0204,139.9998],
    [2837,1525541002,57.3483,-111.7257,797.3,520.0,307.5,5.9,0.1,10.53,40.51,686.0807,140.0009],
    [2838,1525541003,57.3487,-111.7265,796.3,519.7,304.9,6.0,-0.2,10.49,39.9,686.2713,139.9963],
    [2839,1525541004,57.349,-111.7274,795.4,521.7,302.4,5.7,-0.4,11.04,39.57,686.5258,140.0105],
    [2840,1525541005,57.3494,-111.7284,794.2,521.4,298.8,5.6,0.3,10.23,39.86,686.5856,140.0039],
    [2841,1525541006,57.3497,-111.7294,792.9,520.9,296.0,5.5,-0.1,10.4,40.47,686.6993,140.0063],
    [2842,1525541007,57.3499,-111.7303,791.4,519.7,292.6,5.8,0.6,11.04,39.86,686.7835,140.0049],
    [2843,1525541008,57.3502,-111.7314,789.6,517.6,288.7,5.8,1.2,10.51,40.62,686.8249,140.0034],
    [2844,1525541009,57.3504,-111.7325,788.0,513.9,286.5,5.2,0.9,10.53,40.53,686.8899,140.0032],
    [2845,1525541010,57.3506,-111.7335,786.7,511.8,283.1,5.4,1.8,10.64,41.0,686.7467,140.0088],
    [2846,1525541011,57.3507,-111.7347,785.4,509.4,280.4,5.1,1.8,11.04,40.75,686.5049,139.9978],
    [2847,1525541012,57.3508,-111.7358,784.3,507.6,277.8,4.7,2.2,10.47,41.88,686.2927,140.0007],
    [2848,1525541013,57.3509,-111.7367,783.2,506.0,275.9,4.7,2.2,10.45,42.6,686.1027,139.9934],
    [2849,1525541014,57.351,-111.738,782.3,504.1,273.9,4.9,2.0,10.14,44.0,686.0458,139.9943],
    [2850,1525541015,57.351,-111.7391,783.9,503.3,271.6,5.2,2.6,10.48,44.47,685.9883,139.9958],
    [2851,1525541016,57.3511,-111.7402,786.2,504.1,271.1,4.9,2.2,10.48,45.01,686.0076,140.0022],
    [2852,1525541017,57.3511,-111.7412,788.7,505.8,271.1,4.7,1.9,10.41,46.22,685.9737,139.9949],
    [2853,1525541018,57.3511,-111.7423,790.9,506.9,271.0,4.7,1.5,10.52,46.17,685.9369,139.9915],
    [2854,1525541019,57.3512,-111.7435,792.8,507.8,270.7,4.9,0.9,10.3,47.27,685.8048,140.0075],
    [2855,1525541020,57.3512,-111.7446,793.4,507.4,268.3,5.3,2.2,10.23,47.73,685.72,139.9923],
    [2856,1525541021,57.3512,-111.7457,793.2,506.2,266.4,4.7,3.2,10.7,47.71,685.6356,139.9969],
    [2857,1525541022,57.3511,-111.7468,793.1,505.0,264.6,5.3,3.9,10.28,48.63,685.5718,139.9991],
    [2858,1525541023,57.3511,-111.7479,793.6,504.6,265.8,5.9,1.7,10.43,47.86,685.5848,139.9998],
    [2859,1525541024,57.3511,-111.749,794.7,504.6,265.2,6.0,2.0,10.28,47.52,685.5614,140.0006],
    [2860,1525541025,57.351,-111.7501,795.7,504.6,264.7,5.8,2.3,10.24,47.92,685.675,139.995],
    [2861,1525541026,57.351,-111.7512,797.0,504.8,265.3,6.2,1.9,10.33,46.73,685.7121,140.0007],
    [2862,1525541027,57.351,-111.7523,798.1,504.7,266.3,6.2,1.2,9.78,46.12,685.5819,139.9982],
    [2863,1525541028,57.3509,-111.7534,798.7,504.7,266.7,5.7,1.5,9.63,45.59,685.3976,140.0015],
    [2864,1525541029,57.3509,-111.7545,798.5,503.5,267.5,5.8,1.3,9.95,45.78,685.1196,139.9986],
    [2865,1525541030,57.3509,-111.7556,797.5,502.3,269.1,6.0,0.2,9.85,44.88,684.9228,140.0047],
    [2866,1525541031,57.3509,-111.7567,797.0,502.0,268.8,6.1,1.1,10.16,44.14,684.7051,139.9949],
    [2867,1525541032,57.3509,-111.7578,798.5,503.5,268.9,6.0,1.1,10.31,43.57,684.5326,139.9997],
    [2868,1525541033,57.3509,-111.7589,801.0,506.2,269.0,5.8,1.2,10.28,43.61,684.465,139.9998],
    [2869,1525541034,57.3509,-111.7598,803.3,509.1,269.0,5.7,1.3,10.24,43.21,684.3809,139.999],
    [2870,1525541035,57.3509,-111.761,806.3,511.3,269.3,5.7,1.1,9.87,43.06,684.3427,140.0056],
    [2871,1525541036,57.3509,-111.7622,808.9,514.0,269.6,5.8,1.0,9.76,42.8,684.3168,140.0044],
    [2872,1525541037,57.3509,-111.7632,811.0,516.0,269.7,5.9,1.1,10.3,43.04,684.0848,139.9975],
    [2873,1525541038,57.3509,-111.7643,812.5,518.4,269.6,5.9,1.2,10.67,42.22,683.968,140.0005],
    [2874,1525541039,57.3509,-111.7654,813.4,521.1,269.6,6.0,1.3,10.07,42.44,683.7855,139.9996],
    [2875,1525541040,57.3509,-111.7664,813.9,522.9,269.4,5.7,1.3,10.19,42.41,683.6201,139.9909],
    [2876,1525541041,57.3509,-111.7675,814.8,524.8,269.0,5.5,1.8,10.22,42.43,683.5377,139.9999],
    [2877,1525541042,57.3509,-111.7684,816.0,524.6,268.4,5.7,2.2,10.77,41.88,683.4957,139.9979],
    [2878,1525541043,57.3509,-111.7695,817.8,524.9,269.0,5.9,1.4,10.56,42.02,683.4114,140.0022],
    [2879,1525541044,57.3509,-111.7704,819.2,524.2,268.9,5.9,1.4,10.29,42.08,683.2783,140.0013],
    [2880,1525541045,57.3509,-111.7716,821.2,524.3,268.9,6.2,1.2,9.94,42.2,683.2806,139.9959],
    [2881,1525541046,57.3509,-111.7727,823.1,525.6,269.3,6.4,0.7,10.26,42.32,683.2884,139.996],
    [2882,1525541047,57.3509,-111.7738,824.1,526.1,269.2,6.3,0.7,9.6,42.29,683.348,139.9999],
    [2883,1525541048,57.3509,-111.7748,825.0,526.0,269.4,6.3,0.4,10.25,42.69,683.3233,140.0017],
    [2884,1525541049,57.3509,-111.7759,826.1,526.1,269.3,6.1,0.4,10.66,42.09,683.2894,139.9992],
    [2885,1525541050,57.3509,-111.7769,826.9,526.2,269.3,6.0,0.3,10.29,42.24,683.2716,140.0027],
    [2886,1525541051,57.3509,-111.778,826.9,525.9,269.4,6.1,0.2,9.99,42.23,683.2427,140.0062],
    [2887,1525541052,57.3509,-111.7791,826.4,524.4,269.2,5.9,0.4,10.62,42.15,683.2215,140.0064],
    [2888,1525541053,57.3509,-111.7802,826.4,523.4,268.8,5.8,0.6,11.1,41.91,683.0106,140.0052],
    [2889,1525541054,57.3509,-111.7812,826.6,522.6,268.5,5.7,0.2,10.39,42.39,682.8108,140.0021],
    [2890,1525541055,57.3509,-111.7822,827.0,522.0,267.1,5.5,-0.2,10.0,42.29,682.6156,140.0043],
    [2891,1525541056,57.3508,-111.7832,827.3,521.7,263.9,5.4,0.4,10.37,41.8,682.5698,140.0046],
    [2892,1525541057,57.3507,-111.7843,828.5,522.5,258.7,5.7,1.0,10.65,42.15,682.4742,140.0021],
    [2893,1525541058,57.3506,-111.7853,830.2,523.9,254.3,5.8,0.6,10.35,42.44,682.4706,140.0003],
    [2894,1525541059,57.3504,-111.7863,832.6,526.6,248.6,5.8,0.7,10.15,42.6,682.4905,140.0009],
    [2895,1525541060,57.3502,-111.7872,834.7,530.0,243.3,5.8,0.7,10.25,42.66,682.5441,139.9957],
    [2896,1525541061,57.3498,-111.7882,836.3,534.5,236.6,5.8,0.7,10.3,42.19,682.6436,139.9963],
    [2897,1525541062,57.3495,-111.7889,836.9,536.9,230.4,5.5,0.9,10.01,42.63,682.7862,139.9994],
    [2898,1525541063,57.3491,-111.7897,837.2,539.2,223.2,5.6,0.7,10.37,42.46,682.8952,139.9966],
    [2899,1525541064,57.3486,-111.7903,837.0,539.0,217.7,5.5,0.4,10.28,42.86,683.2068,140.0013],
    [2900,1525541065,57.3481,-111.7909,836.3,537.4,212.5,5.5,0.4,10.09,42.53,683.431,139.9982],
    [2901,1525541066,57.3476,-111.7913,835.4,535.4,208.6,6.1,0.1,10.19,43.12,683.5908,139.9949],
    [2902,1525541067,57.3471,-111.7917,834.1,533.1,204.5,5.8,0.3,10.54,42.07,683.9215,139.9993],
    [2903,1525541068,57.3465,-111.7921,831.7,530.7,200.2,5.8,0.4,10.35,42.46,684.1147,140.0015],
    [2904,1525541069,57.3459,-111.7923,829.0,527.9,197.2,6.1,0.3,10.84,42.49,684.4335,139.9985],
    [2905,1525541070,57.3453,-111.7925,825.8,524.9,193.2,5.6,0.5,10.46,42.97,684.5164,140.0066],
    [2906,1525541071,57.3447,-111.7927,822.4,520.7,190.6,6.3,1.0,10.53,42.42,684.5136,140.0059],
    [2907,1525541072,57.3441,-111.7928,819.2,517.2,188.1,6.0,1.6,10.26,43.38,684.3596,139.9949],
    [2908,1525541073,57.3435,-111.7928,816.1,513.0,185.8,5.4,1.6,10.27,43.07,684.0746,140.0084],
    [2909,1525541074,57.3428,-111.7928,812.8,508.8,184.4,6.1,1.8,9.88,42.79,683.6968,139.989],
    [2910,1525541075,57.3422,-111.7928,810.1,504.1,181.8,5.2,2.0,10.41,42.65,683.5981,139.9872],
    [2911,1525541076,57.3415,-111.7927,809.9,502.1,179.0,3.5,2.1,10.47,42.4,683.4099,139.998],
    [2912,1525541077,57.3409,-111.7927,811.4,503.0,178.7,3.6,2.3,10.07,43.13,683.3982,139.9887],
    [2913,1525541078,57.3402,-111.7926,814.1,505.1,179.3,3.2,2.2,10.39,44.33,683.3607,140.0024],
    [2914,1525541079,57.3396,-111.7925,818.0,509.0,180.3,3.4,2.4,9.89,44.67,683.245,139.9972],
    [2915,1525541080,57.339,-111.7925,821.1,512.1,183.9,6.2,1.7,10.07,45.09,683.1712,140.0011],
    [2916,1525541081,57.3384,-111.7925,823.1,514.1,184.0,4.5,1.8,10.08,45.57,683.1235,139.9985],
    [2917,1525541082,57.3377,-111.7925,824.1,515.1,185.1,4.9,2.2,9.97,45.83,683.0949,140.0006],
    [2918,1525541083,57.3371,-111.7925,824.5,514.5,186.5,5.3,2.0,10.32,45.38,683.1017,140.0004],
    [2919,1525541084,57.3365,-111.7926,825.6,515.6,187.0,5.1,1.3,9.72,45.86,683.1215,140.005],
    [2920,1525541085,57.3359,-111.7926,826.8,516.8,186.9,4.8,1.9,10.64,45.4,683.1422,139.995],
    [2921,1525541086,57.3353,-111.7927,827.5,517.5,186.6,4.9,2.2,9.95,45.74,683.1697,139.9989],
    [2922,1525541087,57.3347,-111.7927,828.0,518.0,185.7,4.8,2.3,10.52,45.78,683.1624,139.998],
    [2923,1525541088,57.334,-111.7928,828.2,519.1,184.5,5.0,2.2,9.57,46.73,683.1792,139.9946],
    [2924,1525541089,57.3334,-111.7928,828.0,521.2,183.5,5.2,1.9,9.9,46.66,683.1074,140.0022],
    [2925,1525541090,57.3328,-111.7927,827.7,522.7,181.9,4.9,2.0,9.85,47.19,683.0635,139.9959],
    [2926,1525541091,57.3322,-111.7927,827.3,522.3,181.0,4.9,2.3,10.25,46.4,683.0394,139.9925],
    [2927,1525541092,57.3315,-111.7926,826.9,519.3,180.0,4.3,2.8,9.98,46.4,683.056,140.0148],
    [2928,1525541093,57.3309,-111.7926,827.0,517.7,180.9,5.2,2.7,9.62,46.42,682.8765,140.0004],
    [2929,1525541094,57.3303,-111.7925,827.8,517.8,181.0,5.0,2.5,9.53,46.44,682.559,140.0116],
    [2930,1525541095,57.3297,-111.7924,828.2,518.2,181.1,5.2,2.7,9.79,46.91,682.0845,140.0049],
    [2931,1525541096,57.329,-111.7924,827.8,517.8,181.5,6.9,2.8,9.96,46.48,681.7614,139.9994],
    [2932,1525541097,57.3284,-111.7922,827.6,517.6,177.0,4.7,2.6,9.9,46.54,680.8137,139.9971],
    [2933,1525541098,57.3278,-111.7921,829.5,519.5,172.4,3.9,2.5,10.04,46.55,680.4128,139.9962],
    [2934,1525541099,57.3272,-111.7918,833.3,523.3,169.5,5.4,2.2,10.01,46.85,679.8293,139.994],
    [2935,1525541100,57.3266,-111.7915,838.8,528.8,164.5,5.7,2.2,10.43,46.56,679.399,139.9898],
    [2936,1525541101,57.326,-111.791,845.9,535.9,158.6,5.8,2.3,10.53,46.91,679.0064,139.9926],
    [2937,1525541102,57.3255,-111.7904,852.6,542.6,151.5,4.4,2.3,10.16,46.63,678.6945,139.9924],
    [2938,1525541103,57.325,-111.7898,859.0,549.0,144.7,3.9,2.1,9.88,47.09,678.6802,139.9928],
    [2939,1525541104,57.3245,-111.789,866.5,556.5,138.4,3.9,1.9,9.63,47.0,678.7079,139.9981],
    [2940,1525541105,57.3242,-111.7882,872.6,563.4,133.6,4.0,1.7,10.07,47.49,678.8189,140.0],
    [2941,1525541106,57.3238,-111.7873,878.1,569.1,128.3,4.2,1.3,9.78,47.58,678.7941,140.0],
    [2942,1525541107,57.3234,-111.7863,881.6,573.6,123.2,4.5,0.6,10.2,47.84,678.6994,139.9959],
    [2943,1525541108,57.3232,-111.7854,883.0,575.0,118.6,4.8,0.0,9.93,47.65,678.6449,139.9952],
    [2944,1525541109,57.3229,-111.7845,882.9,575.9,114.1,4.4,-0.7,9.55,47.94,678.4853,139.9926],
    [2945,1525541110,57.3227,-111.7833,881.4,575.1,109.3,4.7,-1.0,9.53,47.87,678.4082,140.001],
    [2946,1525541111,57.3225,-111.7822,880.8,574.8,105.3,4.7,-0.8,9.59,47.94,678.4667,139.9972],
    [2947,1525541112,57.3224,-111.781,882.3,577.3,102.1,5.1,-0.7,10.45,47.73,678.7742,140.0003],
    [2948,1525541113,57.3223,-111.7799,884.3,580.3,100.2,5.4,-0.4,9.5,48.08,678.9325,140.0006],
    [2949,1525541114,57.3222,-111.7788,885.6,581.6,99.0,5.6,0.4,10.14,47.62,679.0755,140.0029],
    [2950,1525541115,57.3221,-111.7776,886.3,583.3,96.6,5.9,-0.3,9.18,48.0,679.2127,139.9965],
    [2951,1525541116,57.322,-111.7766,886.0,584.0,94.3,5.9,-1.2,9.58,48.32,679.2706,139.9994],
    [2952,1525541117,57.322,-111.7754,884.1,583.1,93.9,5.9,-0.5,9.65,47.52,679.3714,139.9925],
    [2953,1525541118,57.3219,-111.7742,881.2,580.2,93.3,6.1,-0.2,9.7,47.69,679.3475,140.003],
    [2954,1525541119,57.3219,-111.773,878.7,578.7,91.6,6.1,-1.2,9.95,46.66,679.3304,139.9985],
    [2955,1525541120,57.3219,-111.7718,877.1,577.1,90.7,6.1,-1.5,9.64,47.48,679.3338,139.9985],
    [2956,1525541121,57.3219,-111.7707,876.0,576.0,90.9,6.6,-1.1,9.53,46.41,679.3482,139.9954],
    [2957,1525541122,57.3218,-111.7695,875.2,576.2,90.5,6.8,-1.4,9.29,46.23,679.4244,139.9985],
    [2958,1525541123,57.3218,-111.7683,875.1,576.1,90.0,6.7,-1.7,9.62,45.75,679.4413,139.9968],
    [2959,1525541124,57.3218,-111.7672,875.2,576.2,89.6,6.8,-2.0,10.33,45.3,679.4802,139.9982],
    [2960,1525541125,57.3218,-111.766,875.3,577.3,89.3,6.9,-2.1,9.64,45.23,679.4999,139.9976],
    [2961,1525541126,57.3218,-111.7648,875.1,577.1,89.0,7.1,-2.1,9.11,44.96,679.481,140.0017],
    [2962,1525541127,57.3218,-111.7636,874.7,575.7,88.4,7.1,-2.2,9.68,44.98,679.3638,140.0044],
    [2963,1525541128,57.3218,-111.7623,874.1,574.1,87.3,7.0,-2.4,9.42,44.47,679.2187,140.0012],
    [2964,1525541129,57.3218,-111.7612,873.7,573.7,86.0,6.8,-2.5,9.13,44.24,678.9266,139.9936],
    [2965,1525541130,57.3218,-111.7599,873.4,572.4,84.6,6.9,-2.4,9.73,43.66,678.7014,139.9927],
    [2966,1525541131,57.3219,-111.7587,873.2,571.2,82.8,7.0,-2.7,10.0,43.37,678.5025,139.9957],
    [2967,1525541132,57.3219,-111.7575,873.6,571.6,81.7,7.0,-2.8,9.84,43.12,678.3893,139.9949],
    [2968,1525541133,57.322,-111.7563,875.8,573.8,80.9,7.0,-2.9,10.2,42.71,678.3214,139.9954],
    [2969,1525541134,57.3221,-111.7552,878.8,576.8,80.8,7.0,-3.0,9.74,42.64,678.4185,139.9967],
    [2970,1525541135,57.3221,-111.754,881.8,579.8,81.8,6.8,-2.3,9.88,42.7,678.5253,139.9993],
    [2971,1525541136,57.3222,-111.7527,884.4,582.5,83.0,6.8,-1.8,9.98,42.76,678.6233,140.0042],
    [2972,1525541137,57.3222,-111.7516,886.1,585.1,83.9,7.0,-1.6,9.99,42.92,678.6369,139.9994],
    [2973,1525541138,57.3223,-111.7503,887.0,586.2,84.9,7.0,-1.6,9.93,42.59,678.6443,140.0038],
    [2974,1525541139,57.3223,-111.7491,886.3,586.9,85.7,6.7,-1.6,9.96,42.8,678.6044,140.004],
    [2975,1525541140,57.3223,-111.748,884.9,585.8,86.9,5.9,-1.1,10.02,42.2,678.5207,140.0004],
    [2976,1525541141,57.3224,-111.7467,883.8,585.8,88.6,6.3,-0.2,10.23,42.01,678.4274,140.0027],
    [2977,1525541142,57.3224,-111.7455,883.4,586.8,88.7,6.4,-0.8,10.41,41.76,678.2377,140.0011],
    [2978,1525541143,57.3224,-111.7442,883.4,588.4,89.2,6.9,-0.9,9.98,42.55,678.054,139.9994],
    [2979,1525541144,57.3224,-111.743,883.6,590.7,89.5,7.2,-1.6,9.82,42.27,677.9529,139.9973],
    [2980,1525541145,57.3224,-111.7417,884.5,591.5,90.1,7.1,-1.9,10.19,42.27,677.704,139.9978],
    [2981,1525541146,57.3223,-111.7405,885.6,593.6,91.1,7.2,-1.4,9.72,42.34,677.5934,139.9986],
    [2982,1525541147,57.3223,-111.7393,887.5,596.5,90.8,7.4,-1.8,9.74,42.26,677.2984,139.9905],
    [2983,1525541148,57.3223,-111.7381,890.0,600.0,89.7,7.3,-2.0,9.78,41.99,677.3038,139.9997],
    [2984,1525541149,57.3223,-111.7369,892.5,603.5,88.7,7.5,-1.2,9.54,42.16,677.288,139.9977],
    [2985,1525541150,57.3223,-111.7356,895.1,606.9,84.8,7.5,-1.9,10.17,41.41,677.2876,139.9973],
    [2986,1525541151,57.3224,-111.7344,897.5,610.1,79.4,7.5,-2.9,9.87,41.56,677.2657,139.9886],
    [2987,1525541152,57.3225,-111.7333,899.6,612.6,75.1,7.4,-2.9,10.12,41.56,677.308,139.9961],
    [2988,1525541153,57.3226,-111.7321,900.4,613.4,70.2,7.6,-3.2,10.6,41.1,677.4568,139.9927],
    [2989,1525541154,57.3228,-111.731,900.4,614.4,64.2,7.9,-3.8,9.86,41.58,677.6354,139.993],
    [2990,1525541155,57.3231,-111.7299,900.5,614.5,58.7,7.8,-3.6,9.73,41.09,677.8299,139.9982],
    [2991,1525541156,57.3234,-111.7288,900.7,614.7,54.1,7.7,-3.1,10.1,41.2,677.8968,139.9978],
    [2992,1525541157,57.3237,-111.7278,900.2,614.2,49.8,7.6,-2.9,10.1,41.37,678.3424,140.0005],
    [2993,1525541158,57.3241,-111.7269,898.9,612.9,45.3,7.4,-2.7,10.45,40.83,678.3601,139.9989],
    [2994,1525541159,57.3245,-111.726,896.8,611.8,40.9,7.4,-2.6,9.89,40.91,678.5882,139.9982],
    [2995,1525541160,57.3249,-111.7252,894.1,609.1,36.1,7.6,-2.7,10.29,40.87,678.7504,139.9991],
    [2996,1525541161,57.3254,-111.7244,891.1,606.1,31.2,7.8,-2.5,10.12,40.92,678.9968,139.9975],
    [2997,1525541162,57.3259,-111.7238,888.6,603.6,27.3,7.7,-2.1,10.3,40.36,679.0414,139.9977],
    [2998,1525541163,57.3265,-111.7232,886.5,602.5,23.5,7.5,-1.7,10.2,41.55,679.4274,139.9986],
    [2999,1525541164,57.327,-111.7227,884.6,601.6,19.8,7.6,-1.9,10.01,40.52,679.7524,139.9951],
    [3000,1525541165,57.3276,-111.7221,882.2,599.2,15.7,7.8,-1.9,10.51,40.18,679.9745,139.996],
    [3001,1525541166,57.3282,-111.7218,879.9,597.9,12.6,7.8,-1.8,10.21,40.56,680.1648,140.0035],
    [3002,1525541167,57.3288,-111.7214,876.5,594.5,9.5,7.8,-1.7,9.78,40.62,680.4987,139.9986],
    [3003,1525541168,57.3294,-111.7211,873.5,592.5,7.4,7.7,-1.7,10.15,40.61,680.6863,140.002],
    [3004,1525541169,57.3301,-111.7208,870.2,590.3,5.3,7.4,-1.4,10.78,40.16,680.7923,140.0013],
    [3005,1525541170,57.3307,-111.7206,867.2,589.9,3.8,7.1,-1.4,10.04,40.74,680.8303,140.0035],
    [3006,1525541171,57.3313,-111.7204,863.5,589.5,362.1,7.2,-1.1,10.31,40.43,680.707,139.9988],
    [3007,1525541172,57.332,-111.7203,860.1,592.1,361.0,6.5,-0.9,10.21,41.07,680.6953,139.9989],
    [3008,1525541173,57.3326,-111.7202,857.5,595.4,359.3,6.7,-0.9,9.88,40.5,680.6949,139.996],
    [3009,1525541174,57.3333,-111.7201,855.4,595.0,357.7,6.8,-1.2,10.62,40.31,680.7135,139.997],
    [3010,1525541175,57.3338,-111.7201,854.8,595.1,355.9,7.2,-1.5,10.25,40.77,680.728,140.0002],
    [3011,1525541176,57.3345,-111.7201,855.7,595.7,354.9,6.9,-1.6,10.69,40.13,680.6824,140.0017],
    [3012,1525541177,57.3352,-111.7201,856.2,594.3,354.3,6.6,-1.7,10.26,40.43,680.5848,140.0009],
    [3013,1525541178,57.3358,-111.7201,856.2,591.3,353.6,6.6,-1.7,9.72,40.45,680.4049,140.0],
    [3014,1525541179,57.3365,-111.7201,856.0,591.0,353.4,6.3,-1.6,10.04,40.72,680.2302,139.9988],
    [3015,1525541180,57.3371,-111.7202,855.9,591.0,352.7,6.6,-1.5,9.68,40.5,679.9939,140.0013],
    [3016,1525541181,57.3378,-111.7202,856.3,588.6,352.2,6.9,-1.6,10.27,40.59,679.8813,139.9991],
    [3017,1525541182,57.3384,-111.7203,857.3,589.3,352.1,6.8,-1.8,10.34,40.7,679.6553,140.0005],
    [3018,1525541183,57.339,-111.7203,858.9,592.0,351.9,6.9,-1.8,9.97,40.15,679.4572,139.9994],
    [3019,1525541184,57.3397,-111.7204,861.3,595.3,351.7,7.0,-1.8,10.67,40.41,679.2151,139.9985],
    [3020,1525541185,57.3403,-111.7204,863.8,597.8,351.8,6.8,-1.8,11.09,40.09,678.9631,139.9978],
    [3021,1525541186,57.341,-111.7205,866.2,600.3,351.9,6.8,-1.8,10.49,39.99,678.9081,140.0009],
    [3022,1525541187,57.3416,-111.7205,868.7,601.7,352.0,6.7,-1.8,10.2,40.39,678.4846,140.0064],
    [3023,1525541188,57.3422,-111.7206,871.2,604.6,351.9,6.7,-1.7,10.17,40.2,678.1914,140.0014],
    [3024,1525541189,57.3428,-111.7207,873.6,604.0,351.6,6.5,-1.8,10.67,40.38,677.8233,139.9977],
    [3025,1525541190,57.3434,-111.7207,876.3,602.8,350.9,6.0,-1.9,10.21,40.26,677.6291,139.9991],
    [3026,1525541191,57.344,-111.7208,879.1,602.6,348.5,6.3,-2.0,10.12,40.58,677.463,140.0003],
    [3027,1525541192,57.3447,-111.721,882.2,603.1,345.0,6.7,-2.1,10.04,40.34,677.3735,139.9954],
    [3028,1525541193,57.3453,-111.7212,886.0,606.3,340.7,7.1,-2.3,10.45,40.33,677.3365,139.9975],
    [3029,1525541194,57.3458,-111.7215,890.2,610.1,336.9,6.7,-2.4,10.42,40.41,677.3666,139.9976],
    [3030,1525541195,57.3464,-111.722,894.1,614.1,332.6,6.8,-2.4,10.42,40.63,677.447,140.0032],
    [3031,1525541196,57.3469,-111.7224,896.2,617.2,327.7,7.0,-2.3,10.79,39.99,677.6617,140.0021],
    [3032,1525541197,57.3473,-111.7229,897.5,618.5,323.3,7.2,-2.4,10.29,40.76,677.7759,140.0038],
    [3033,1525541198,57.3478,-111.7236,898.3,618.3,318.1,7.1,-2.4,10.45,40.44,678.051,140.005],
    [3034,1525541199,57.3483,-111.7243,898.1,618.6,313.5,7.1,-2.4,10.45,41.26,678.2377,140.0022],
    [3035,1525541200,57.3487,-111.725,897.1,618.1,309.1,7.2,-2.4,10.81,40.31,678.4144,140.0037],
    [3036,1525541201,57.349,-111.7258,895.3,616.1,305.0,7.2,-2.3,10.35,40.54,678.7393,140.0008],
    [3037,1525541202,57.3494,-111.7267,892.9,616.6,301.1,7.0,-2.2,10.44,40.69,679.0563,140.0021],
    [3038,1525541203,57.3496,-111.7276,890.3,616.0,297.2,7.0,-1.9,10.47,40.38,679.2956,140.0006],
    [3039,1525541204,57.3499,-111.7285,887.6,613.4,293.6,7.1,-1.6,10.55,40.33,679.4475,140.0069],
    [3040,1525541205,57.3501,-111.7296,884.6,611.9,290.1,7.0,-1.4,10.07,40.4,679.7031,140.0003],
    [3041,1525541206,57.3503,-111.7306,881.7,610.8,286.9,6.9,-1.5,10.71,40.28,679.756,140.0034],
    [3042,1525541207,57.3505,-111.7316,878.3,606.3,283.5,6.9,-1.3,10.67,40.26,679.7568,139.9984],
    [3043,1525541208,57.3506,-111.7327,874.6,601.0,279.5,7.0,-0.7,10.54,40.42,679.7822,139.995],
    [3044,1525541209,57.3507,-111.7338,871.0,596.1,275.9,7.0,-0.1,10.75,40.89,679.8925,140.0037],
    [3045,1525541210,57.3507,-111.7348,868.6,592.4,272.8,7.0,0.3,10.29,40.9,679.9294,139.9923],
    [3046,1525541211,57.3507,-111.7359,867.3,590.4,271.0,7.0,0.4,10.49,41.07,680.0409,140.0044],
    [3047,1525541212,57.3508,-111.737,866.9,588.2,269.6,7.3,0.6,10.85,40.88,680.0801,140.0008],
    [3048,1525541213,57.3508,-111.7382,866.3,586.6,269.6,7.5,-0.1,10.24,40.88,680.0572,139.9974],
    [3049,1525541214,57.3507,-111.7392,865.6,583.7,268.7,7.3,0.6,9.86,41.01,680.027,139.9965],
    [3050,1525541215,57.3507,-111.7404,864.8,581.8,268.4,7.2,0.5,10.39,41.23,679.9959,139.9978],
    [3051,1525541216,57.3507,-111.7415,863.8,579.8,268.7,7.1,0.1,10.49,41.19,679.9731,140.0019],
    [3052,1525541217,57.3507,-111.7426,863.0,578.0,268.5,7.0,0.8,10.26,41.34,679.9114,139.9993],
    [3053,1525541218,57.3507,-111.7438,863.1,577.1,269.3,7.2,0.7,10.33,41.64,679.8118,140.0011],
    [3054,1525541219,57.3507,-111.7449,863.4,577.1,270.6,7.2,0.3,10.42,41.31,679.7348,140.0001],
    [3055,1525541220,57.3507,-111.746,863.8,576.8,272.1,7.1,-0.3,10.44,41.48,679.6686,139.998],
    [3056,1525541221,57.3507,-111.7471,864.3,576.2,273.3,6.9,-0.6,10.35,41.62,679.4955,139.9976],
    [3057,1525541222,57.3508,-111.7482,865.0,576.0,273.9,6.8,-0.5,10.3,41.44,679.3126,140.0044],
    [3058,1525541223,57.3508,-111.7493,865.9,575.8,274.6,6.8,-1.0,10.56,41.54,679.2075,140.0019],
    [3059,1525541224,57.3509,-111.7505,867.0,575.9,274.7,6.7,-1.1,10.31,41.6,679.1511,140.0016],
    [3060,1525541225,57.3509,-111.7516,868.4,575.9,274.3,6.8,-1.2,9.84,41.64,679.0311,139.9977],
    [3061,1525541226,57.3509,-111.7527,870.1,576.2,273.6,6.8,-1.5,10.43,41.39,678.9221,139.9976],
    [3062,1525541227,57.351,-111.7538,872.0,576.9,272.4,6.6,-1.5,10.24,41.65,678.7936,140.0018],
    [3063,1525541228,57.351,-111.7549,873.8,578.7,271.0,6.4,-1.1,10.15,42.17,678.6927,140.0008],
    [3064,1525541229,57.351,-111.756,875.3,580.0,269.9,6.3,-1.0,10.37,42.37,678.6107,139.9983],
    [3065,1525541230,57.351,-111.7572,877.0,582.0,268.9,6.4,-1.0,10.04,42.28,678.5343,140.0019],
    [3066,1525541231,57.3509,-111.7583,878.3,583.3,268.2,6.4,-1.0,10.4,41.5,678.4936,139.9975],
    [3067,1525541232,57.3509,-111.7593,879.5,585.2,267.6,6.4,-0.9,9.83,41.65,678.4759,139.997],
    [3068,1525541233,57.3509,-111.7605,880.6,585.6,267.3,6.6,-1.0,9.96,41.73,678.4838,139.9959],
    [3069,1525541234,57.3508,-111.7615,881.5,586.3,267.2,6.7,-1.0,9.82,41.71,678.5184,139.9965],
    [3070,1525541235,57.3508,-111.7626,882.2,586.5,267.3,6.7,-0.8,10.6,41.76,678.5388,140.0001],
    [3071,1525541236,57.3507,-111.7637,882.8,587.9,267.7,6.7,-0.7,10.15,41.84,678.5522,139.9977],
    [3072,1525541237,57.3507,-111.7649,883.2,589.4,268.8,6.9,-0.9,10.64,41.9,678.571,139.9982],
    [3073,1525541238,57.3507,-111.7659,883.1,591.1,269.9,7.0,-1.3,10.87,41.28,678.567,140.0043],
    [3074,1525541239,57.3507,-111.767,882.8,592.1,271.3,6.8,-1.7,10.63,41.65,678.5307,140.0025],
    [3075,1525541240,57.3507,-111.7681,882.4,591.4,272.0,6.8,-1.4,10.12,41.79,678.5176,140.0025],
    [3076,1525541241,57.3507,-111.7692,882.1,589.3,272.9,6.8,-1.9,10.98,41.31,678.4799,140.0036],
    [3077,1525541242,57.3507,-111.7703,881.8,586.8,273.2,6.7,-2.3,10.47,42.3,678.4739,140.0025],
    [3078,1525541243,57.3507,-111.7714,881.9,585.9,271.9,6.7,-1.7,10.29,41.66,678.3893,139.998],
    [3079,1525541244,57.3507,-111.7725,882.3,585.4,270.2,6.7,-1.1,10.09,41.59,678.3435,139.9961],
    [3080,1525541245,57.3507,-111.7736,882.7,584.7,269.1,6.6,-1.1,9.96,41.75,678.2475,139.9986],
    [3081,1525541246,57.3507,-111.7747,883.2,584.2,268.0,6.5,-0.8,10.42,42.11,678.1602,139.9956],
    [3082,1525541247,57.3507,-111.7758,883.8,584.5,267.1,6.4,-0.6,10.0,41.68,678.112,140.0019],
    [3083,1525541248,57.3506,-111.777,884.5,584.5,267.0,6.4,-0.7,10.37,42.04,678.0632,140.0034],
    [3084,1525541249,57.3506,-111.778,885.2,584.2,267.0,6.4,-0.8,10.34,41.97,677.8531,140.0025],
    [3085,1525541250,57.3505,-111.7791,886.0,584.0,267.0,6.4,-1.2,10.48,42.02,677.7482,140.0032],
    [3086,1525541251,57.3505,-111.7802,886.8,583.8,266.5,6.4,-1.8,9.99,42.22,677.5879,140.003],
    [3087,1525541252,57.3504,-111.7813,887.7,583.7,263.9,6.4,-1.6,10.36,42.45,677.3645,140.0015],
    [3088,1525541253,57.3503,-111.7824,889.0,584.0,259.9,6.6,-1.4,9.95,42.38,677.2689,139.9966],
    [3089,1525541254,57.3502,-111.7834,890.5,585.6,255.2,6.5,-1.2,9.74,42.47,677.2681,139.9943],
    [3090,1525541255,57.35,-111.7845,892.4,587.3,249.3,6.4,-0.7,10.52,42.42,677.2657,139.9982],
    [3091,1525541256,57.3497,-111.7854,894.5,590.5,244.0,6.7,-1.1,10.11,42.67,677.2766,139.9974],
    [3092,1525541257,57.3494,-111.7864,896.7,595.1,238.9,7.0,-1.5,10.4,43.22,677.4814,139.9956],
    [3093,1525541258,57.349,-111.7873,898.2,599.0,234.0,7.1,-1.4,10.53,42.56,677.8121,139.9971],
    [3094,1525541259,57.3486,-111.7881,898.4,600.4,229.3,7.3,-1.7,10.27,42.82,678.085,139.9983],
    [3095,1525541260,57.3482,-111.7888,898.4,599.4,224.3,7.4,-1.4,10.39,43.28,678.3344,140.0009],
    [3096,1525541261,57.3476,-111.7895,897.8,597.7,219.3,7.7,-1.4,10.33,42.52,678.3954,140.0044],
    [3097,1525541262,57.3471,-111.7901,895.9,595.9,215.1,7.6,-1.2,10.23,42.48,678.4379,140.0047],
    [3098,1525541263,57.3465,-111.7906,892.6,592.6,209.8,7.4,-0.8,10.89,42.14,678.3669,139.9991],
    [3099,1525541264,57.346,-111.791,889.4,589.4,205.0,7.2,-0.4,10.16,42.24,678.2211,139.9949],
    [3100,1525541265,57.3453,-111.7914,886.3,586.3,199.7,6.3,-0.2,10.65,41.61,677.9897,139.9957],
    [3101,1525541266,57.3447,-111.7917,884.3,583.3,195.5,5.8,-0.3,10.21,42.35,677.8579,140.0031],
    [3102,1525541267,57.3441,-111.7919,883.5,582.0,191.9,5.7,-0.5,10.16,42.41,677.6458,139.9971],
    [3103,1525541268,57.3434,-111.792,883.9,581.6,189.2,6.0,-0.4,10.41,42.05,677.6014,139.9962],
    [3104,1525541269,57.3427,-111.792,885.5,581.2,186.7,5.9,0.0,10.12,42.6,677.6693,139.9965],
    [3105,1525541270,57.342,-111.7921,888.0,582.0,184.8,5.6,0.3,10.42,42.51,677.7714,140.0019],
    [3106,1525541271,57.3414,-111.7921,890.3,582.6,183.8,5.6,0.5,10.26,42.83,677.99,139.9967],
    [3107,1525541272,57.3407,-111.7921,892.3,583.3,183.9,6.4,-0.1,10.02,42.97,678.1524,139.9951],
    [3108,1525541273,57.3401,-111.792,893.1,584.1,183.8,6.8,-0.4,10.49,42.56,678.2168,140.0004],
    [3109,1525541274,57.3394,-111.792,892.5,583.5,183.7,7.1,-0.3,10.13,42.99,678.0978,139.9999],
    [3110,1525541275,57.3387,-111.7919,891.0,582.0,183.1,6.7,-0.1,9.91,43.11,678.0561,139.9978],
    [3111,1525541276,57.3381,-111.7919,888.9,580.0,183.0,6.6,0.3,10.33,43.19,678.0611,139.9954],
    [3112,1525541277,57.3374,-111.7919,886.8,577.8,183.4,6.2,1.1,10.04,43.19,678.0583,139.9992],
    [3113,1525541278,57.3368,-111.7918,885.6,576.4,184.0,5.9,1.1,10.45,43.16,678.0237,139.9997],
    [3114,1525541279,57.3361,-111.7919,886.1,576.1,185.6,6.2,0.7,10.2,43.7,677.9897,139.9949],
    [3115,1525541280,57.3354,-111.7919,886.9,576.9,186.9,6.6,0.4,9.74,43.43,677.8686,140.0049],
    [3116,1525541281,57.3347,-111.7919,887.3,577.3,187.6,6.8,0.4,10.01,43.51,677.6499,139.9841],
    [3117,1525541282,57.3341,-111.792,887.5,579.1,187.8,6.6,0.2,9.44,43.46,677.5798,140.0128],
    [3118,1525541283,57.3334,-111.792,887.6,580.9,187.5,6.4,0.3,10.39,43.24,677.5987,139.9971],
    [3119,1525541284,57.3328,-111.7921,888.0,584.1,188.0,7.1,0.6,10.41,42.76,677.6769,139.9875],
    [3120,1525541285,57.3321,-111.7922,889.2,583.2,186.8,5.9,1.5,9.79,43.21,677.8466,140.0092],
    [3121,1525541286,57.3314,-111.7922,891.2,583.5,187.1,7.1,1.3,10.06,43.53,677.8462,139.9968],
    [3122,1525541287,57.3308,-111.7922,892.3,582.5,187.1,7.0,0.6,9.84,43.74,677.7865,140.0087],
    [3123,1525541288,57.3301,-111.7923,892.8,582.8,185.1,5.8,0.7,10.04,44.44,677.6822,140.0066],
    [3124,1525541289,57.3294,-111.7923,892.1,582.1,185.9,7.7,1.0,9.97,44.28,677.5832,140.0035],
    [3125,1525541290,57.3287,-111.7923,890.5,580.5,183.2,6.9,0.9,9.81,44.34,677.3879,139.9909],
    [3126,1525541291,57.3281,-111.7922,889.8,579.8,179.9,7.1,1.1,9.86,44.23,677.3492,139.9965],
    [3127,1525541292,57.3274,-111.792,890.2,580.2,174.7,6.3,1.7,10.28,44.5,677.5404,140.0041],
    [3128,1525541293,57.3267,-111.7917,891.6,581.6,168.9,6.5,1.3,9.93,44.26,677.7412,139.9921],
    [3129,1525541294,57.3261,-111.7913,893.3,583.3,162.6,6.3,1.0,9.86,44.51,677.8512,139.9896],
    [3130,1525541295,57.3255,-111.7908,895.3,585.3,156.0,5.8,1.7,10.04,45.02,678.1487,139.9935],
    [3131,1525541296,57.3249,-111.7901,896.7,586.7,149.6,6.3,2.1,9.87,44.93,678.3176,139.9966],
    [3132,1525541297,57.3244,-111.7893,895.8,585.8,142.2,5.8,0.9,9.48,44.78,678.5483,140.0041],
    [3133,1525541298,57.3239,-111.7884,893.2,583.2,134.4,5.8,0.8,9.59,44.47,678.6954,139.9964],
    [3134,1525541299,57.3235,-111.7875,890.5,581.5,127.2,4.4,1.3,9.78,44.69,678.7441,139.9905],
    [3135,1525541300,57.3232,-111.7864,887.8,579.8,120.6,3.9,1.0,10.56,44.23,679.0256,140.0033],
    [3136,1525541301,57.3228,-111.7851,885.0,577.0,115.8,4.9,1.2,10.0,44.75,679.0818,139.9933],
    [3137,1525541302,57.3226,-111.784,882.6,575.6,111.3,5.1,0.6,9.87,45.13,679.2611,139.9992],
    [3138,1525541303,57.3224,-111.7827,880.8,574.8,106.9,4.6,0.5,10.06,45.6,679.3353,139.9971],
    [3139,1525541304,57.3222,-111.7814,879.3,574.0,103.6,3.8,0.3,9.85,46.13,679.3769,139.9995],
    [3140,1525541305,57.3221,-111.7801,877.6,572.9,101.4,4.6,0.6,9.83,46.28,679.626,139.9991],
    [3141,1525541306,57.3219,-111.7788,875.9,571.9,99.1,3.9,0.8,9.86,46.85,680.0319,140.0082],
    [3142,1525541307,57.3219,-111.7775,874.9,571.9,97.2,4.2,1.0,10.44,46.54,680.2009,140.0058],
    [3143,1525541308,57.3218,-111.7762,873.2,571.2,95.4,4.2,1.3,9.88,47.3,680.755,140.0008],
    [3144,1525541309,57.3218,-111.775,871.4,570.4,93.5,3.7,0.8,9.86,47.85,681.0809,140.0036],
    [3145,1525541310,57.3217,-111.7736,868.9,568.3,92.1,3.9,1.2,9.76,47.67,681.4444,140.0],
    [3146,1525541311,57.3217,-111.7723,865.5,565.5,91.7,4.6,1.7,9.61,47.82,681.8378,140.0025],
    [3147,1525541312,57.3217,-111.7709,861.2,561.2,90.0,4.9,0.6,9.95,48.34,682.1232,140.0035],
    [3148,1525541313,57.3217,-111.7696,856.7,557.7,89.8,4.6,0.8,9.33,48.43,682.2739,140.014],
    [3149,1525541314,57.3217,-111.7683,852.2,553.2,89.3,4.8,0.8,9.71,48.91,682.3401,140.0127],
    [3150,1525541315,57.3218,-111.767,847.5,548.5,89.2,5.1,0.7,9.78,48.92,682.4407,140.0109],
    [3151,1525541316,57.3218,-111.7657,843.7,545.7,88.4,5.4,0.0,9.64,48.5,682.2179,139.9983],
    [3152,1525541317,57.3218,-111.7644,840.4,542.4,87.8,5.2,0.0,9.98,48.07,682.0446,139.9994],
    [3153,1525541318,57.3218,-111.763,837.9,538.9,87.3,5.5,-0.1,9.83,48.28,681.8165,139.9992],
    [3154,1525541319,57.3219,-111.7618,836.5,536.5,86.2,6.0,-0.8,9.71,47.91,681.8517,139.9992],
    [3155,1525541320,57.3219,-111.7604,835.5,534.5,86.7,6.0,0.0,9.96,46.75,681.9871,140.0036],
    [3156,1525541321,57.3219,-111.759,836.2,534.2,86.4,6.0,-0.6,10.27,46.51,682.0646,139.9987],
    [3157,1525541322,57.322,-111.7576,839.1,537.1,86.7,5.9,-0.4,9.49,46.36,682.0517,140.0052],
    [3158,1525541323,57.322,-111.7563,841.5,539.5,87.5,6.1,-0.3,9.65,46.54,681.8111,139.9998],
    [3159,1525541324,57.322,-111.755,842.4,540.4,87.9,6.7,-0.6,9.66,45.51,681.5186,140.0005],
    [3160,1525541325,57.3221,-111.7537,841.9,539.9,88.7,6.5,-0.7,9.77,45.07,681.3448,140.0006],
    [3161,1525541326,57.3221,-111.7523,840.6,538.7,89.8,6.2,-0.4,9.86,45.26,681.2794,139.9967],
    [3162,1525541327,57.322,-111.751,840.1,539.1,90.8,6.0,-0.5,10.45,44.14,681.015,139.9993],
    [3163,1525541328,57.322,-111.7497,841.9,541.7,91.4,5.7,-0.5,9.87,44.5,680.9228,139.9996],
    [3164,1525541329,57.322,-111.7484,845.1,546.0,92.1,6.1,0.0,10.48,43.43,680.7471,139.9996],
    [3165,1525541330,57.322,-111.747,848.3,549.3,92.0,6.3,-0.3,9.88,44.03,680.5954,139.9934],
    [3166,1525541331,57.322,-111.7457,850.4,553.5,91.6,6.2,-0.5,9.86,43.43,680.5541,140.0005],
    [3167,1525541332,57.3219,-111.7444,851.9,555.8,91.3,6.1,-0.6,9.48,43.53,680.5594,139.9942],
    [3168,1525541333,57.3219,-111.7431,854.1,560.1,90.9,6.3,-0.3,10.21,42.91,680.6638,140.0017],
    [3169,1525541334,57.3219,-111.742,856.2,563.2,90.0,6.2,-0.6,10.59,42.7,680.7516,139.996],
    [3170,1525541335,57.3219,-111.7406,858.1,566.1,89.6,6.3,-0.1,10.11,42.81,680.761,140.0],
    [3171,1525541336,57.3219,-111.7392,858.9,567.9,88.7,6.4,-0.4,9.77,42.69,680.7882,140.0024],
    [3172,1525541337,57.3219,-111.738,858.7,568.7,88.1,6.4,-0.2,10.04,42.63,680.7406,140.0013],
    [3173,1525541338,57.322,-111.7367,857.7,568.7,87.2,6.5,-0.7,9.82,42.4,680.7353,139.9966],
    [3174,1525541339,57.322,-111.7355,856.6,568.6,86.2,6.4,-0.8,10.39,41.77,680.6251,139.9997],
    [3175,1525541340,57.322,-111.7341,855.9,568.6,84.9,6.2,0.5,10.2,42.04,680.5451,139.9922],
    [3176,1525541341,57.3221,-111.7328,855.6,568.6,80.6,6.1,-0.1,10.42,41.93,680.5134,139.9961],
    [3177,1525541342,57.3223,-111.7315,856.0,569.1,75.0,6.0,-0.1,10.1,42.15,680.4993,139.9943],
    [3178,1525541343,57.3225,-111.7303,856.7,570.7,68.6,5.9,-0.3,10.45,41.64,680.5524,139.9909],
    [3179,1525541344,57.3227,-111.7292,857.4,571.4,61.3,6.5,-1.5,10.07,42.07,680.8403,139.9936],
    [3180,1525541345,57.3231,-111.728,858.4,572.4,54.6,6.4,-0.9,9.95,42.14,681.0281,139.9973],
    [3181,1525541346,57.3234,-111.7271,859.4,573.4,49.4,6.2,-0.6,9.88,41.88,681.4233,139.9967],
    [3182,1525541347,57.3239,-111.726,859.9,574.9,42.0,6.4,-1.1,10.87,41.38,682.1498,140.0049],
    [3183,1525541348,57.3244,-111.7252,859.3,574.3,36.2,6.1,-0.8,10.04,41.72,682.7106,140.0003],
    [3184,1525541349,57.3249,-111.7245,857.5,572.5,31.8,6.1,-0.6,10.08,41.68,683.2169,140.0046],
    [3185,1525541350,57.3255,-111.7237,852.3,567.3,26.5,6.3,-0.5,9.98,41.88,683.5793,140.0049],
    [3186,1525541351,57.3261,-111.7232,846.2,562.2,21.5,6.3,-0.1,10.21,41.47,683.6285,140.0121],
    [3187,1525541352,57.3267,-111.7226,839.3,555.4,16.3,6.4,0.2,9.92,41.47,683.6026,140.0038],
    [3188,1525541353,57.3273,-111.7223,832.7,549.7,12.2,6.1,0.5,10.83,41.16,683.3362,139.9992],
    [3189,1525541354,57.328,-111.7219,826.5,543.8,8.1,6.1,0.5,10.68,41.57,683.3264,139.999],
    [3190,1525541355,57.3286,-111.7217,822.2,540.2,5.0,5.8,0.8,10.49,42.15,683.0384,139.9918],
    [3191,1525541356,57.3293,-111.7215,819.9,538.8,362.1,5.8,1.4,10.28,42.2,682.9513,139.9981],
    [3192,1525541357,57.33,-111.7214,820.3,539.8,360.0,5.7,1.7,10.02,42.54,682.7769,139.9996],
    [3193,1525541358,57.3307,-111.7213,822.2,543.3,359.3,5.2,1.4,10.53,42.45,682.6731,140.0],
    [3194,1525541359,57.3314,-111.7213,824.8,548.5,357.9,5.8,0.9,10.47,42.95,682.4927,139.9969],
    [3195,1525541360,57.3321,-111.7212,827.2,554.2,357.6,5.6,0.6,10.32,43.42,682.4036,139.9963],
    [3196,1525541361,57.3327,-111.7212,829.0,560.3,356.9,5.8,0.5,9.94,43.75,682.256,139.9992],
    [3197,1525541362,57.3334,-111.7212,830.1,565.0,356.2,6.1,0.3,10.69,43.06,682.1417,139.9986],
    [3198,1525541363,57.334,-111.7212,831.3,568.4,355.4,6.6,0.1,10.41,43.28,682.1079,140.0023],
    [3199,1525541364,57.3347,-111.7212,832.9,570.9,355.2,6.6,-0.4,10.2,43.67,682.0353,139.9976],
    [3200,1525541365,57.3354,-111.7212,834.9,571.9,354.8,6.7,-0.7,10.07,43.52,682.0451,140.0015],
    [3201,1525541366,57.3361,-111.7212,836.6,571.8,354.7,6.6,-0.9,9.91,42.87,682.0594,140.001],
    [3202,1525541367,57.3367,-111.7212,837.9,571.0,354.6,6.5,-0.9,9.6,42.57,682.0934,139.9972],
    [3203,1525541368,57.3374,-111.7212,838.9,569.8,354.9,6.1,-0.3,10.87,41.86,682.1357,139.9974],
    [3204,1525541369,57.338,-111.7212,839.5,569.5,354.7,6.3,-0.6,10.21,41.96,682.1581,140.0039],
    [3205,1525541370,57.3387,-111.7212,839.7,570.7,355.0,6.5,-0.8,10.25,41.67,682.0862,140.0033],
    [3206,1525541371,57.3394,-111.7212,839.5,572.5,355.6,6.4,-0.7,10.89,41.2,681.8124,139.9962],
    [3207,1525541372,57.3401,-111.7212,839.1,574.1,357.1,5.8,-0.8,9.94,41.72,681.6425,139.9972],
    [3208,1525541373,57.3407,-111.7211,838.6,573.6,357.7,5.8,-0.8,10.27,41.84,681.456,140.0053],
    [3209,1525541374,57.3414,-111.7211,838.3,573.0,357.9,5.8,-0.7,9.86,41.57,681.1487,140.0028],
    [3210,1525541375,57.342,-111.721,838.9,572.9,357.4,6.3,-0.7,10.07,41.38,680.7862,140.0029],
    [3211,1525541376,57.3427,-111.721,840.5,573.4,357.1,6.2,-1.1,10.29,41.36,680.4279,140.0067],
    [3212,1525541377,57.3433,-111.721,843.0,570.1,356.7,5.1,-1.2,10.21,41.63,680.1023,139.9987],
    [3213,1525541378,57.344,-111.721,845.8,569.3,353.9,5.3,-1.4,10.73,40.57,679.8896,139.9987],
    [3214,1525541379,57.3446,-111.721,849.1,570.0,348.9,6.4,-1.4,10.16,41.12,679.6468,139.9998],
    [3215,1525541380,57.3453,-111.7212,853.1,573.4,344.2,6.3,-1.6,10.45,41.62,679.5754,139.9989],
    [3216,1525541381,57.3459,-111.7215,857.7,577.7,339.2,6.3,-1.6,9.98,41.16,679.6139,139.9972],
    [3217,1525541382,57.3464,-111.7219,862.4,582.2,333.9,6.3,-1.5,10.14,41.25,679.8584,139.9996],
    [3218,1525541383,57.347,-111.7223,866.2,587.2,329.1,6.1,-1.5,10.29,41.28,680.0832,140.005],
    [3219,1525541384,57.3475,-111.7229,868.9,589.9,323.1,6.4,-1.8,9.95,41.1,680.2966,140.0019],
    [3220,1525541385,57.348,-111.7235,870.3,590.3,317.4,6.8,-1.6,9.97,41.06,680.7743,140.0231],
    [3221,1525541386,57.3484,-111.7242,870.3,590.3,312.4,6.8,-1.4,10.03,41.19,680.8219,140.0115],
    [3222,1525541387,57.3488,-111.7251,868.1,589.1,306.9,6.3,-1.1,10.23,41.18,680.9459,139.998],
    [3223,1525541388,57.3492,-111.7259,864.5,585.4,301.1,7.0,-0.5,10.31,41.7,680.8353,140.0029],
    [3224,1525541389,57.3494,-111.7268,860.4,583.3,296.1,7.2,-0.2,10.34,42.17,680.7593,140.0007],
    [3225,1525541390,57.3497,-111.7278,856.2,582.2,291.6,5.5,0.8,10.79,41.39,680.6579,139.9945],
    [3226,1525541391,57.3499,-111.7289,853.6,580.3,285.3,6.2,2.6,10.4,42.19,680.5623,139.9966],
    [3227,1525541392,57.3501,-111.7299,853.0,581.1,282.6,6.7,1.5,10.44,42.09,680.5154,139.9943],
    [3228,1525541393,57.3502,-111.731,853.6,582.6,281.5,6.4,0.4,10.57,42.56,680.4673,139.998],
    [3229,1525541394,57.3504,-111.732,854.9,581.9,279.3,6.6,1.1,10.38,43.11,680.4848,140.0003],
    [3230,1525541395,57.3505,-111.7331,856.4,581.4,278.9,6.5,0.2,10.32,42.82,680.5065,140.0007],
    [3231,1525541396,57.3506,-111.7341,857.6,582.5,278.1,6.7,0.1,10.17,42.7,680.5159,139.9994],
    [3232,1525541397,57.3507,-111.7352,858.2,581.5,277.1,6.8,0.3,10.49,42.5,680.5976,139.9962],
    [3233,1525541398,57.3507,-111.7363,858.7,581.0,276.3,6.8,0.3,9.97,42.49,680.625,140.0056],
    [3234,1525541399,57.3508,-111.7373,858.8,580.1,275.6,6.9,0.3,10.77,42.04,680.6189,140.0045],
    [3235,1525541400,57.3509,-111.7385,858.5,578.7,275.1,6.9,0.0,9.9,42.28,680.6346,139.9979],
    [3236,1525541401,57.3509,-111.7395,858.2,576.1,274.9,6.9,-0.5,10.19,42.2,680.5616,139.9978],
    [3237,1525541402,57.351,-111.7406,857.6,574.5,274.3,7.0,-0.9,10.25,42.45,680.6109,139.9979],
    [3238,1525541403,57.351,-111.7417,857.0,573.0,272.8,7.0,-0.6,10.06,42.25,680.7016,140.0004],
    [3239,1525541404,57.351,-111.7428,856.8,571.8,270.7,6.9,-0.1,10.17,42.2,680.9148,139.9982],
    [3240,1525541405,57.351,-111.7439,856.8,570.8,269.9,6.8,-0.8,10.71,42.12,680.9948,140.0059],
    [3241,1525541406,57.351,-111.745,857.2,570.3,268.3,6.7,-0.3,10.03,42.23,680.9883,140.006],
    [3242,1525541407,57.351,-111.7461,857.2,570.2,267.8,6.7,-0.7,10.25,42.42,680.8643,139.9985],
    [3243,1525541408,57.3509,-111.7472,856.1,568.1,267.2,6.5,-0.8,10.47,41.94,680.6799,139.9997],
    [3244,1525541409,57.3509,-111.7483,854.5,565.6,266.6,6.3,-0.5,10.26,41.91,680.5669,140.0016],
    [3245,1525541410,57.3508,-111.7494,853.0,562.9,266.5,6.1,-0.5,10.14,42.34,680.4696,139.9942],
    [3246,1525541411,57.3508,-111.7505,852.5,561.4,266.4,5.8,-0.3,10.3,42.17,680.3695,139.9971],
    [3247,1525541412,57.3508,-111.7516,853.9,560.9,266.6,5.9,-0.4,10.44,42.0,680.2452,139.9975],
    [3248,1525541413,57.3507,-111.7528,855.8,561.9,267.1,6.1,-0.5,10.29,42.19,680.1996,139.9963],
    [3249,1525541414,57.3507,-111.7538,857.5,562.5,267.5,6.3,-0.3,9.99,42.22,680.1357,139.9969],
    [3250,1525541415,57.3507,-111.7549,859.0,564.0,268.9,6.3,-1.1,10.06,42.22,680.0866,140.001],
    [3251,1525541416,57.3506,-111.756,860.2,564.2,270.1,6.3,-1.4,10.48,41.96,680.078,139.9991],
    [3252,1525541417,57.3506,-111.7571,861.4,565.7,270.8,6.4,-1.4,10.29,42.37,680.1023,139.9989],
    [3253,1525541418,57.3506,-111.7582,862.2,567.2,271.4,6.5,-1.6,10.72,41.83,680.2258,139.9977],
    [3254,1525541419,57.3506,-111.7593,862.9,567.9,271.6,6.6,-1.5,10.3,42.72,680.3189,140.0006],
    [3255,1525541420,57.3506,-111.7604,863.5,568.5,271.4,6.7,-1.4,10.83,41.62,680.4489,139.9993],
    [3256,1525541421,57.3506,-111.7615,863.7,568.5,271.1,6.8,-1.5,10.01,41.82,680.5448,140.0002],
    [3257,1525541422,57.3506,-111.7626,863.3,567.7,270.6,6.8,-1.3,10.44,42.65,680.8448,140.0052],
    [3258,1525541423,57.3506,-111.7637,862.6,567.6,269.9,6.5,-0.8,10.0,42.25,680.9254,139.9975],
    [3259,1525541424,57.3506,-111.7648,861.3,567.5,269.3,6.3,-0.5,9.87,42.02,680.9797,140.0023],
    [3260,1525541425,57.3506,-111.7659,859.8,567.8,269.0,6.2,-0.4,10.36,42.37,681.1129,140.0016],
    [3261,1525541426,57.3506,-111.767,858.0,567.3,268.7,6.1,-0.3,10.36,42.42,681.1508,139.9968],
    [3262,1525541427,57.3506,-111.7682,855.8,564.8,268.6,6.0,-0.3,10.24,42.29,681.1419,140.0024],
    [3263,1525541428,57.3506,-111.7692,854.0,561.3,268.7,5.9,-0.3,10.84,42.06,681.1074,140.003],
    [3264,1525541429,57.3505,-111.7703,852.4,557.4,268.8,5.8,-0.3,10.48,42.81,681.0305,139.9966],
    [3265,1525541430,57.3505,-111.7715,851.2,555.2,268.7,5.8,0.2,10.4,42.81,680.9547,139.9971],
    [3266,1525541431,57.3505,-111.7726,850.5,553.5,268.9,5.9,0.0,9.85,42.35,680.8861,139.9966],
    [3267,1525541432,57.3505,-111.7738,850.4,552.4,269.2,5.8,0.1,10.78,42.39,680.867,140.0016],
    [3268,1525541433,57.3505,-111.7749,850.7,551.7,269.0,5.7,0.3,10.39,43.29,680.7827,140.0023],
    [3269,1525541434,57.3505,-111.776,851.3,551.6,269.0,5.9,0.3,10.54,42.56,680.6606,140.0009],
    [3270,1525541435,57.3505,-111.7771,851.9,551.9,269.0,6.0,-0.1,10.2,42.96,680.5274,139.9999],
    [3271,1525541436,57.3505,-111.7783,852.7,551.7,269.0,6.2,-1.0,10.43,42.85,680.4597,140.0029],
    [3272,1525541437,57.3504,-111.7794,853.5,551.5,267.4,6.4,-1.0,9.8,43.04,680.3731,140.0032],
    [3273,1525541438,57.3504,-111.7805,854.4,551.4,263.9,6.1,-0.1,10.26,43.32,680.357,139.9994],
    [3274,1525541439,57.3503,-111.7816,855.5,551.5,260.1,6.3,-0.5,10.24,43.26,680.4302,140.0007],
    [3275,1525541440,57.3501,-111.7826,857.1,552.1,256.0,6.4,-0.7,10.47,43.17,680.5555,139.9995],
    [3276,1525541441,57.3499,-111.7838,858.6,554.3,249.7,6.0,0.2,10.37,43.53,680.7589,139.9985],
    [3277,1525541442,57.3497,-111.7848,859.4,555.4,244.1,6.0,0.2,9.97,43.44,681.0795,140.0042],
    [3278,1525541443,57.3494,-111.7857,859.6,557.2,238.9,6.2,0.2,10.27,43.98,681.2178,140.0031],
    [3279,1525541444,57.349,-111.7866,858.8,558.5,234.0,6.6,0.4,10.14,43.63,681.3774,140.0028],
    [3280,1525541445,57.3486,-111.7875,857.1,559.2,228.1,6.5,0.6,10.24,43.77,681.3406,140.0064],
    [3281,1525541446,57.3482,-111.7882,854.9,556.2,223.0,6.7,0.5,10.21,43.54,681.2415,140.0082],
    [3282,1525541447,57.3476,-111.7889,851.9,551.8,217.5,6.5,1.0,9.99,43.81,681.0132,139.9989],
    [3283,1525541448,57.3471,-111.7895,848.9,548.9,212.1,6.0,1.2,10.45,43.46,680.9,140.0],
    [3284,1525541449,57.3465,-111.79,846.7,546.7,207.1,5.8,1.1,10.28,43.94,680.8276,139.9968],
    [3285,1525541450,57.3459,-111.7904,846.4,546.4,203.0,5.2,0.9,10.22,44.65,680.8259,139.9996],
    [3286,1525541451,57.3453,-111.7908,848.2,548.2,199.9,5.1,0.7,10.28,44.92,680.8513,139.9993],
    [3287,1525541452,57.3447,-111.7911,851.0,550.0,198.7,5.7,0.3,10.4,44.49,680.8539,139.998],
    [3288,1525541453,57.3441,-111.7914,852.9,551.2,197.7,5.9,0.1,10.07,44.63,680.8099,140.0053],
    [3289,1525541454,57.3435,-111.7916,854.0,551.7,196.8,6.3,0.3,10.04,44.52,680.5921,139.9971],
    [3290,1525541455,57.3428,-111.7919,854.1,550.1,196.4,6.8,0.8,10.19,44.76,680.4591,139.9982],
    [3291,1525541456,57.3422,-111.7921,854.0,548.0,194.3,5.2,1.5,9.65,44.52,680.2982,139.9981],
    [3292,1525541457,57.3416,-111.7923,853.7,546.0,193.9,5.6,1.6,10.07,44.62,680.1995,139.9991],
    [3293,1525541458,57.3409,-111.7925,854.3,546.0,192.7,5.1,1.8,10.02,44.57,680.0987,140.0039],
    [3294,1525541459,57.3403,-111.7927,856.2,547.2,191.7,5.0,1.8,10.16,44.67,680.0413,139.9972],
    [3295,1525541460,57.3397,-111.7928,858.2,549.2,191.9,5.6,1.3,10.07,44.59,680.0208,140.0007],
    [3296,1525541461,57.3391,-111.793,860.1,551.1,191.4,5.8,1.1,10.26,44.49,679.9873,140.0005],
    [3297,1525541462,57.3384,-111.7931,862.0,552.0,190.9,6.6,0.9,9.82,44.57,680.0068,139.9862],
    [3298,1525541463,57.3378,-111.7932,863.4,553.4,188.6,5.7,1.0,10.07,45.0,680.0727,139.9976],
    [3299,1525541464,57.3371,-111.7933,864.4,554.4,186.8,5.5,1.0,9.96,44.62,680.1365,140.0025],
    [3300,1525541465,57.3365,-111.7933,865.1,555.1,186.4,6.2,0.6,9.86,45.09,680.417,139.9986],
    [3301,1525541466,57.3358,-111.7933,865.3,554.3,185.5,6.0,0.8,9.88,44.63,680.4573,139.9981],
    [3302,1525541467,57.3353,-111.7934,865.2,554.2,185.2,6.1,1.1,10.09,44.45,680.7604,140.0042],
    [3303,1525541468,57.3346,-111.7934,864.6,554.7,184.8,5.7,1.3,9.86,44.52,680.8933,140.0031],
    [3304,1525541469,57.334,-111.7934,862.6,553.3,184.3,5.8,1.2,9.95,45.01,680.9618,140.0095],
    [3305,1525541470,57.3333,-111.7934,860.8,554.6,184.7,6.6,1.2,10.01,44.62,681.1168,140.0014],
    [3306,1525541471,57.3327,-111.7933,858.6,553.7,183.9,6.0,1.4,10.18,44.81,681.3085,139.9892],
    [3307,1525541472,57.3321,-111.7933,856.7,551.7,182.8,5.1,1.4,10.21,45.2,681.4102,139.9949],
    [3308,1525541473,57.3314,-111.7933,853.9,546.2,183.0,5.1,1.3,10.07,45.32,681.6707,139.9974],
    [3309,1525541474,57.3308,-111.7933,852.1,542.1,182.1,4.2,1.9,10.36,45.26,681.8915,140.0119],
    [3310,1525541475,57.3301,-111.7932,851.2,541.2,183.0,5.3,1.5,10.51,45.22,681.9737,140.008],
    [3311,1525541476,57.3295,-111.7932,849.0,539.0,183.0,5.7,1.6,10.08,46.23,682.076,140.0082],
    [3312,1525541477,57.3288,-111.7932,847.0,537.0,182.5,6.3,1.9,10.04,46.25,682.0864,139.9949],
    [3313,1525541478,57.3282,-111.7931,844.9,534.9,180.6,6.5,2.2,10.53,45.67,682.0612,139.9946],
    [3314,1525541479,57.3276,-111.793,842.6,532.6,175.9,5.1,2.2,10.0,46.35,682.1327,139.9907],
    [3315,1525541480,57.327,-111.7928,840.8,530.8,170.2,4.8,2.0,9.64,46.58,682.529,139.9896],
    [3316,1525541481,57.3263,-111.7924,839.9,529.9,163.2,4.7,1.6,10.17,46.55,682.9041,139.9846],
    [3317,1525541482,57.3258,-111.7919,839.9,529.9,156.3,4.6,2.1,10.24,46.77,683.3061,139.9932],
    [3318,1525541483,57.3252,-111.7913,840.0,530.0,148.7,3.8,2.7,9.75,47.52,683.8528,139.9928],
    [3319,1525541484,57.3247,-111.7906,839.7,529.7,143.5,4.4,3.3,9.94,47.36,684.431,139.9949],
    [3320,1525541485,57.3243,-111.7898,836.9,526.9,137.2,3.1,3.2,10.14,47.5,684.6037,139.9999],
    [3321,1525541486,57.3238,-111.7888,832.1,522.1,128.4,0.7,3.3,9.98,47.25,685.2037,140.0043],
    [3322,1525541487,57.3235,-111.7878,826.5,517.5,121.2,-0.2,2.9,10.21,47.11,685.6226,140.0023],
    [3323,1525541488,57.3232,-111.7868,820.8,511.8,115.7,0.7,2.9,10.03,47.56,686.2072,140.0094],
    [3324,1525541489,57.3229,-111.7855,814.4,506.4,110.0,0.1,2.7,10.08,47.84,686.4295,140.0125],
    [3325,1525541490,57.3228,-111.7844,809.4,502.4,105.5,0.0,2.4,9.36,48.94,686.6179,140.0075],
    [3326,1525541491,57.3226,-111.7831,803.9,497.5,102.3,0.1,2.5,9.73,50.01,686.7677,140.0074],
    [3327,1525541492,57.3225,-111.7818,798.1,492.3,100.2,0.6,2.9,9.77,50.96,686.6512,140.0002],
    [3328,1525541493,57.3224,-111.7806,792.1,487.1,98.1,1.2,3.2,10.01,51.31,686.5451,140.0014],
    [3329,1525541494,57.3224,-111.7793,787.0,483.0,95.4,1.4,2.6,10.62,51.2,686.4563,140.0023],
    [3330,1525541495,57.3223,-111.7782,784.1,481.1,93.9,2.0,2.6,10.1,52.04,686.2904,140.0075],
    [3331,1525541496,57.3223,-111.7769,782.9,480.9,93.6,2.1,2.8,9.65,52.32,686.124,139.9981],
    [3332,1525541497,57.3223,-111.7756,783.8,481.8,93.9,2.2,3.2,9.73,52.59,686.0445,140.0022],
    [3333,1525541498,57.3223,-111.7744,785.5,484.5,95.3,2.5,4.3,9.81,52.87,686.0456,140.0018],
    [3334,1525541499,57.3223,-111.7731,787.1,487.1,95.5,2.6,3.7,9.85,52.58,686.0107,140.0019],
    [3335,1525541500,57.3222,-111.772,788.8,488.8,95.0,3.4,2.7,10.23,52.35,686.0036,140.0098],
    [3336,1525541501,57.3222,-111.7707,791.0,491.0,95.9,3.3,4.1,9.9,52.58,685.9732,140.001],
    [3337,1525541502,57.3222,-111.7694,792.5,493.5,96.2,3.1,4.6,9.78,52.97,685.8811,140.0021],
    [3338,1525541503,57.3222,-111.7681,793.3,494.3,94.1,3.0,2.9,10.02,52.55,685.8315,140.0041],
    [3339,1525541504,57.3221,-111.7669,793.8,495.1,93.1,3.1,2.6,10.06,52.62,685.9025,139.9988],
    [3340,1525541505,57.3221,-111.7657,794.1,496.1,92.6,3.7,2.4,9.62,52.73,685.9469,139.9919],
    [3341,1525541506,57.3221,-111.7646,794.6,496.6,91.9,3.8,1.8,9.44,52.38,686.1173,140.0041],
    [3342,1525541507,57.3221,-111.7633,795.3,496.3,91.7,3.8,2.0,10.02,51.62,686.24,139.9994],
    [3343,1525541508,57.3221,-111.7621,796.1,496.1,90.9,4.0,1.0,10.42,51.25,686.381,140.0021],
    [3344,1525541509,57.3221,-111.7609,795.8,494.8,90.2,4.0,0.3,9.62,51.82,686.4165,140.0031],
    [3345,1525541510,57.3221,-111.7597,794.6,493.6,91.4,3.9,1.9,9.4,51.15,686.4356,140.0018],
    [3346,1525541511,57.3221,-111.7585,792.9,490.9,91.5,3.8,1.9,9.39,51.01,686.4704,140.0056],
    [3347,1525541512,57.3221,-111.7573,791.6,489.6,90.2,3.9,1.2,9.9,51.15,686.4692,140.0062],
    [3348,1525541513,57.3221,-111.7561,790.4,488.4,90.9,4.2,2.0,10.0,50.57,686.5676,139.9981],
    [3349,1525541514,57.3222,-111.7549,789.4,487.4,90.4,4.1,1.2,9.24,50.5,686.6152,140.0061],
    [3350,1525541515,57.3222,-111.7537,789.0,487.0,90.0,4.8,0.8,9.47,50.16,686.632,140.0017],
    [3351,1525541516,57.3222,-111.7525,788.5,486.6,89.9,5.2,0.6,10.45,49.91,686.6657,139.9992],
    [3352,1525541517,57.3222,-111.7512,787.9,486.9,89.9,5.1,1.0,10.17,49.27,686.6834,140.0041],
    [3353,1525541518,57.3222,-111.75,787.2,486.3,90.6,4.7,1.6,10.14,49.08,686.6853,139.9981],
    [3354,1525541519,57.3222,-111.7488,787.0,487.8,89.9,5.1,0.7,9.38,48.57,686.6857,140.003],
    [3355,1525541520,57.3222,-111.7476,786.6,487.6,89.3,5.3,0.1,9.25,48.38,686.5751,140.001],
    [3356,1525541521,57.3222,-111.7464,786.2,488.3,89.8,5.1,0.6,9.63,48.14,686.4548,139.9998],
    [3357,1525541522,57.3222,-111.7452,785.8,489.1,90.0,4.8,0.6,9.73,47.7,686.3744,139.9989],
    [3358,1525541523,57.3222,-111.744,785.5,491.2,90.4,4.8,1.0,10.07,47.37,686.2107,140.005],
    [3359,1525541524,57.3222,-111.7427,785.8,492.8,90.9,5.2,1.4,10.08,47.88,686.0418,139.9965],
    [3360,1525541525,57.3222,-111.7415,786.7,493.7,90.4,5.3,0.9,9.86,47.58,685.967,139.9937],
    [3361,1525541526,57.3222,-111.7403,787.9,495.9,90.1,5.3,0.9,10.03,46.73,685.9434,140.0033],
    [3362,1525541527,57.3222,-111.7392,789.5,498.5,90.1,5.5,1.4,10.17,46.35,685.9033,140.0017],
    [3363,1525541528,57.3223,-111.7379,791.2,501.2,89.2,5.8,0.9,9.98,46.86,685.847,140.0008],
    [3364,1525541529,57.3223,-111.7367,793.2,504.2,88.2,5.3,0.9,9.56,46.22,685.7545,139.9941],
    [3365,1525541530,57.3223,-111.7355,794.7,506.7,87.9,5.2,2.1,9.96,46.62,685.7315,139.996],
    [3366,1525541531,57.3224,-111.7344,795.4,508.0,84.9,5.5,1.4,10.21,45.83,685.7443,139.996],
    [3367,1525541532,57.3225,-111.7332,795.9,508.9,79.7,5.4,0.6,10.08,45.54,685.9214,139.9865],
    [3368,1525541533,57.3226,-111.732,796.4,509.4,75.0,5.3,0.9,10.62,44.91,686.1272,139.9952],
    [3369,1525541534,57.3228,-111.7308,797.4,511.4,69.8,4.8,1.0,9.77,45.71,686.5348,140.0009],
    [3370,1525541535,57.323,-111.7298,798.0,512.0,64.3,4.9,0.9,9.97,45.3,686.9819,140.0004],
    [3371,1525541536,57.3233,-111.7287,797.8,511.8,58.5,5.2,0.7,10.17,45.37,687.0556,140.001],
    [3372,1525541537,57.3237,-111.7277,796.6,510.6,53.1,4.7,0.5,10.5,44.44,687.4553,139.993],
    [3373,1525541538,57.324,-111.7268,793.8,507.8,48.1,4.8,0.2,9.61,44.91,687.7287,140.004],
    [3374,1525541539,57.3244,-111.7259,789.8,504.8,43.7,5.2,0.0,10.34,44.49,688.0254,140.0007],
    [3375,1525541540,57.3249,-111.7251,784.4,499.4,39.2,5.3,0.1,10.14,44.58,688.0729,140.0],
    [3376,1525541541,57.3253,-111.7244,780.9,495.9,35.1,5.7,0.1,10.41,44.29,688.2258,140.0032],
    [3377,1525541542,57.3259,-111.7236,777.2,492.2,32.0,5.2,0.7,9.9,44.41,688.167,139.9981],
    [3378,1525541543,57.3265,-111.7229,773.1,489.1,28.3,4.9,1.2,10.44,43.93,688.1677,139.9995],
    [3379,1525541544,57.3271,-111.7223,770.1,487.1,24.7,4.7,1.2,10.44,44.11,688.2053,139.9984],
    [3380,1525541545,57.3277,-111.7218,767.8,484.8,21.1,4.4,1.5,9.52,44.2,688.3889,140.0012],
    [3381,1525541546,57.3283,-111.7213,766.8,484.8,17.3,4.2,1.9,10.25,44.57,688.4291,140.0021],
    [3382,1525541547,57.3289,-111.721,767.2,486.3,14.4,3.4,1.9,9.7,44.54,688.642,139.9973],
    [3383,1525541548,57.3295,-111.7206,767.4,487.4,10.9,4.1,1.6,9.99,44.85,688.9504,140.0074],
    [3384,1525541549,57.3302,-111.7204,766.8,488.8,8.2,3.9,1.4,10.13,45.07,688.9306,140.0023],
    [3385,1525541550,57.3308,-111.7202,765.6,491.3,5.7,3.8,1.7,9.98,45.42,688.8212,139.9995],
    [3386,1525541551,57.3315,-111.72,763.7,494.0,3.1,3.9,1.6,9.73,45.71,688.7648,139.9983],
    [3387,1525541552,57.3321,-111.7199,761.2,497.6,361.2,3.8,1.4,10.19,46.0,688.7638,139.9956],
    [3388,1525541553,57.3327,-111.7199,758.7,498.0,358.9,4.0,2.2,10.07,46.11,688.7954,139.994],
    [3389,1525541554,57.3334,-111.7198,757.7,498.6,357.0,3.9,2.8,10.34,47.1,688.7046,140.0015],
    [3390,1525541555,57.3341,-111.7198,758.8,499.8,355.6,4.4,2.4,10.11,46.75,688.6766,139.9982],
    [3391,1525541556,57.3347,-111.7199,759.7,499.8,354.8,5.0,1.7,10.81,46.64,688.5564,139.9962],
    [3392,1525541557,57.3353,-111.7199,759.8,495.1,354.8,5.0,1.2,10.19,47.21,688.4137,139.9986],
    [3393,1525541558,57.336,-111.7199,759.7,494.0,355.2,4.8,1.1,10.25,46.56,688.3642,139.9964],
    [3394,1525541559,57.3366,-111.7199,760.3,494.8,354.9,5.2,1.3,10.23,46.69,688.244,140.0067],
    [3395,1525541560,57.3373,-111.72,760.8,495.5,355.0,4.9,1.4,10.5,45.86,688.188,139.9998],
    [3396,1525541561,57.3379,-111.72,761.9,494.9,354.4,5.3,1.6,10.09,45.69,687.9233,140.0011],
    [3397,1525541562,57.3386,-111.72,763.4,495.3,354.4,5.1,1.3,10.23,45.09,687.9043,140.0009],
    [3398,1525541563,57.3392,-111.72,764.6,497.4,354.4,5.1,0.9,10.3,44.8,687.8008,139.9994],
    [3399,1525541564,57.3398,-111.7201,765.8,499.5,353.5,5.7,1.5,10.17,45.01,687.6999,139.9965],
    [3400,1525541565,57.3405,-111.7201,767.1,500.8,353.7,5.1,2.0,10.52,44.52,687.6146,140.0005],
    [3401,1525541566,57.3411,-111.7202,768.9,500.5,352.9,6.0,2.0,10.32,44.63,687.5949,140.0073],
    [3402,1525541567,57.3418,-111.7202,770.6,501.5,353.1,5.4,1.8,9.96,44.73,687.535,140.0036],
    [3403,1525541568,57.3424,-111.7202,771.6,500.8,353.3,5.0,1.6,10.39,44.38,687.5369,140.0015],
    [3404,1525541569,57.343,-111.7203,772.4,501.4,352.1,5.3,0.6,10.49,44.82,687.5442,140.0023],
    [3405,1525541570,57.3436,-111.7204,773.3,497.3,351.4,4.5,0.4,10.27,44.71,687.5509,140.0064],
    [3406,1525541571,57.3442,-111.7205,774.0,495.3,348.9,4.3,1.2,9.91,44.83,687.4962,140.0049],
    [3407,1525541572,57.3449,-111.7207,774.9,494.8,345.2,4.3,1.8,10.41,44.74,687.3467,140.0055],
    [3408,1525541573,57.3455,-111.721,775.2,495.2,340.7,4.0,1.5,9.74,44.96,687.1901,140.0006],
    [3409,1525541574,57.3461,-111.7213,775.0,495.0,335.8,4.1,1.7,10.46,45.03,686.9906,139.9978],
    [3410,1525541575,57.3466,-111.7218,774.8,494.7,329.9,4.6,1.8,10.33,45.9,686.8294,140.0087],
    [3411,1525541576,57.3472,-111.7223,775.0,496.0,323.9,4.8,1.5,10.27,45.89,686.7454,139.9962],
    [3412,1525541577,57.3477,-111.723,776.2,497.2,318.4,4.8,1.1,10.24,46.14,686.6992,139.9913],
    [3413,1525541578,57.3481,-111.7236,777.9,497.9,313.8,4.5,1.2,10.52,46.2,686.7805,139.9887],
    [3414,1525541579,57.3485,-111.7244,780.6,500.6,309.3,4.0,1.2,10.65,45.98,687.0811,140.0039],
    [3415,1525541580,57.3489,-111.7253,782.9,502.9,304.9,4.6,1.6,10.3,46.87,687.5798,140.0079],
    [3416,1525541581,57.3493,-111.7262,784.6,505.9,301.6,4.3,1.3,9.95,47.1,687.9139,140.0032],
    [3417,1525541582,57.3496,-111.7271,785.3,509.3,298.0,4.7,1.7,9.9,47.49,688.151,140.0093],
    [3418,1525541583,57.3498,-111.728,784.4,509.4,295.4,5.2,1.2,10.29,47.92,688.4523,139.992],
    [3419,1525541584,57.3501,-111.7289,781.8,508.1,292.7,4.5,1.2,9.82,48.25,688.4656,139.9905],
    [3420,1525541585,57.3503,-111.7299,777.6,505.6,287.2,4.4,3.2,9.99,48.72,688.5882,140.002],
    [3421,1525541586,57.3505,-111.731,772.5,501.6,283.1,3.6,3.9,9.85,49.12,688.5568,140.0086],
    [3422,1525541587,57.3507,-111.7321,767.6,494.6,279.8,3.0,4.0,10.32,49.26,688.5939,139.9945],
    [3423,1525541588,57.3508,-111.7332,764.0,489.8,277.2,3.8,3.5,10.02,50.33,688.6698,139.9943],
    [3424,1525541589,57.3509,-111.7342,761.9,486.9,276.4,4.9,1.9,10.29,50.31,688.706,140.0077],
    [3425,1525541590,57.351,-111.7354,761.1,485.0,274.4,4.8,2.0,10.28,50.73,688.8176,139.9948],
    [3426,1525541591,57.3511,-111.7365,761.2,484.1,272.4,4.6,3.3,9.6,50.81,688.7841,140.0106],
    [3427,1525541592,57.3511,-111.7376,760.8,482.5,271.5,4.9,3.0,10.18,50.08,688.6658,140.0009],
    [3428,1525541593,57.3511,-111.7387,760.1,480.1,272.5,4.9,1.3,10.07,49.8,688.5672,140.0019],
    [3429,1525541594,57.3512,-111.7398,759.2,477.1,271.0,5.6,2.1,10.29,49.13,688.4166,139.9962],
    [3430,1525541595,57.3512,-111.741,758.1,475.1,271.8,5.4,0.5,10.03,48.71,688.3905,139.9919],
    [3431,1525541596,57.3512,-111.7421,758.2,474.2,269.4,5.0,2.2,10.18,47.86,688.3312,139.9955],
    [3432,1525541597,57.3512,-111.7431,759.7,474.7,268.1,4.3,2.4,10.31,47.88,688.3625,140.0022],
    [3433,1525541598,57.3512,-111.7443,761.8,475.8,266.9,3.0,2.6,9.71,47.46,688.38,140.0032],
    [3434,1525541599,57.3512,-111.7454,763.3,476.3,266.1,2.9,2.6,10.75,47.24,688.34,140.0012],
    [3435,1525541600,57.3512,-111.7465,764.1,476.1,265.4,4.2,2.8,10.05,47.94,688.0181,140.017],
    [3436,1525541601,57.3512,-111.7476,764.5,475.6,264.6,5.1,2.9,10.52,48.19,687.8457,139.9992],
    [3437,1525541602,57.3511,-111.7487,764.2,474.3,265.6,4.9,1.7,10.28,48.25,687.5522,139.9947],
    [3438,1525541603,57.3511,-111.7498,763.9,473.0,265.3,4.6,2.4,9.75,48.49,687.1579,140.0043],
    [3439,1525541604,57.3511,-111.751,764.1,472.0,265.7,4.9,2.5,10.34,47.68,686.8805,139.9941],
    [3440,1525541605,57.351,-111.7521,765.3,472.2,266.0,4.3,2.6,9.95,47.43,686.7367,139.99],
    [3441,1525541606,57.351,-111.7531,768.6,474.6,265.1,4.1,4.0,10.14,47.22,686.7206,139.9914],
    [3442,1525541607,57.351,-111.7542,772.9,477.9,266.0,4.9,2.9,10.23,46.96,686.6703,139.9987],
    [3443,1525541608,57.351,-111.7553,777.7,482.4,266.9,4.9,1.9,10.4,46.27,686.6042,140.006],
    [3444,1525541609,57.351,-111.7564,781.4,486.1,266.8,5.0,1.7,10.65,46.37,686.5074,139.9906],
    [3445,1525541610,57.3509,-111.7575,783.9,488.9,268.4,5.1,0.1,9.7,46.8,686.3325,140.0045],
    [3446,1525541611,57.3509,-111.7586,785.0,490.0,268.3,5.3,0.5,9.94,46.41,686.2487,140.0003],
    [3447,1525541612,57.3509,-111.7596,785.5,491.2,267.4,5.1,1.4,10.64,45.92,686.1824,140.0032],
    [3448,1525541613,57.3509,-111.7607,786.5,491.5,267.1,4.4,1.7,9.89,45.88,686.0636,139.9945],
    [3449,1525541614,57.3509,-111.7617,787.8,492.8,267.3,4.1,1.4,10.22,45.46,686.041,139.9946],
    [3450,1525541615,57.3509,-111.7628,789.3,494.3,266.4,4.2,2.6,10.25,45.28,685.9451,140.0048],
    [3451,1525541616,57.3509,-111.7638,790.4,495.3,266.6,4.2,2.3,10.71,44.85,685.8123,139.9939],
    [3452,1525541617,57.3508,-111.7649,791.1,497.9,267.0,4.2,2.0,10.28,45.05,685.7421,139.9932],
    [3453,1525541618,57.3508,-111.766,792.1,500.1,266.3,4.6,2.5,10.51,45.42,685.6976,139.9976],
    [3454,1525541619,57.3508,-111.767,792.9,502.2,267.0,5.1,1.6,10.37,45.34,685.8541,139.9936],
    [3455,1525541620,57.3508,-111.768,793.8,502.8,266.3,5.1,2.3,10.29,45.54,685.9824,140.0057],
    [3456,1525541621,57.3508,-111.7691,795.1,503.0,265.5,5.3,2.9,9.85,45.57,685.9808,140.0093],
    [3457,1525541622,57.3507,-111.7701,796.4,502.5,265.9,5.4,2.3,10.13,45.45,686.0303,139.9945],
    [3458,1525541623,57.3507,-111.7712,797.0,501.0,266.0,5.4,2.2,9.96,45.48,686.0411,140.0017],
    [3459,1525541624,57.3507,-111.7722,795.9,498.9,265.8,5.7,2.2,10.11,45.32,685.9866,139.9923],
    [3460,1525541625,57.3507,-111.7733,794.0,496.0,265.9,5.2,1.8,10.17,45.29,685.9247,140.0035],
    [3461,1525541626,57.3506,-111.7744,793.2,494.4,264.8,4.4,3.1,10.35,45.18,685.7876,139.9966],
    [3462,1525541627,57.3506,-111.7754,793.0,494.0,265.0,4.8,2.8,10.24,45.87,685.7383,139.9986],
    [3463,1525541628,57.3506,-111.7764,792.9,492.9,265.9,4.7,2.2,10.26,45.95,685.7515,140.0072],
    [3464,1525541629,57.3506,-111.7775,793.2,492.2,265.7,4.5,2.6,10.52,45.14,685.7765,140.0057],
    [3465,1525541630,57.3505,-111.7786,793.9,493.0,266.4,4.4,2.5,10.65,45.47,685.7901,140.0036],
    [3466,1525541631,57.3505,-111.7796,795.0,493.0,266.1,4.9,2.7,10.51,45.9,685.7672,140.004],
    [3467,1525541632,57.3505,-111.7807,795.9,492.9,266.6,5.1,0.6,10.07,46.3,685.8254,140.0055],
    [3468,1525541633,57.3505,-111.7817,796.3,492.4,264.1,4.8,0.7,10.14,46.91,685.7008,140.0066],
    [3469,1525541634,57.3504,-111.7828,796.1,491.1,258.6,4.9,1.8,10.01,47.05,685.6682,140.0005],
    [3470,1525541635,57.3502,-111.7838,795.7,490.7,252.9,4.8,1.8,9.74,46.71,685.6792,139.9959],
    [3471,1525541636,57.35,-111.7849,795.7,490.0,246.7,4.8,1.8,10.88,46.69,685.68,139.9923],
    [3472,1525541637,57.3498,-111.7859,795.6,490.5,240.9,4.7,2.1,10.27,47.7,685.8319,139.996],
    [3473,1525541638,57.3495,-111.7867,795.5,493.2,234.3,3.8,3.1,9.99,47.4,685.981,140.0096],
    [3474,1525541639,57.3491,-111.7876,796.0,496.7,227.5,3.7,3.7,10.13,47.29,686.2736,139.9992],
    [3475,1525541640,57.3487,-111.7883,796.7,498.7,222.9,4.5,2.6,10.09,47.41,686.3108,140.0014],
    [3476,1525541641,57.3482,-111.789,796.5,497.4,219.7,5.1,2.1,9.91,47.76,686.5263,139.9963],
    [3477,1525541642,57.3478,-111.7896,794.9,494.8,213.4,3.2,4.0,9.5,47.93,686.5556,140.0072],
    [3478,1525541643,57.3473,-111.7902,792.7,492.7,208.8,2.8,3.6,9.65,48.34,686.6393,139.9845],
    [3479,1525541644,57.3467,-111.7907,790.3,490.3,205.5,3.8,2.1,9.62,48.29,686.5751,140.0058],
    [3480,1525541645,57.3462,-111.791,788.3,488.3,200.8,3.6,3.0,9.79,48.75,686.4556,140.0023],
    [3481,1525541646,57.3456,-111.7914,786.5,486.5,197.1,4.2,3.0,10.22,49.29,686.4289,139.9951],
    [3482,1525541647,57.3451,-111.7916,785.4,485.5,193.7,3.3,2.7,10.05,49.06,686.1277,140.0081],
    [3483,1525541648,57.3444,-111.7918,785.2,484.2,190.9,3.0,3.2,10.15,49.4,686.1492,139.9977],
    [3484,1525541649,57.3438,-111.792,785.3,483.3,190.4,3.4,2.4,10.1,48.8,686.2172,139.9996],
    [3485,1525541650,57.3432,-111.7921,786.4,483.5,188.1,1.8,3.0,10.13,49.24,686.0893,140.0136],
    [3486,1525541651,57.3426,-111.7922,787.8,483.5,190.1,4.7,2.5,9.95,48.82,686.0275,139.9863],
    [3487,1525541652,57.342,-111.7924,790.1,484.1,189.5,3.8,2.2,10.14,48.94,685.9321,139.9978],
    [3488,1525541653,57.3414,-111.7925,791.3,483.6,189.3,4.2,2.1,9.95,49.4,685.787,140.0027],
    [3489,1525541654,57.3408,-111.7926,791.3,483.0,191.3,6.2,1.2,10.66,49.44,685.6938,139.9963],
    [3490,1525541655,57.3402,-111.7927,791.2,482.2,189.4,4.0,1.2,9.66,49.74,685.7285,140.0021],
    [3491,1525541656,57.3397,-111.7928,792.4,483.4,188.8,4.0,2.2,10.17,49.68,685.6983,139.9996],
    [3492,1525541657,57.3391,-111.7929,794.3,485.3,189.5,5.0,3.1,9.81,49.41,685.688,140.0051],
    [3493,1525541658,57.3385,-111.793,795.3,486.3,188.8,4.2,2.8,9.76,49.24,685.7078,140.0025],
    [3494,1525541659,57.3379,-111.7931,796.5,486.5,188.5,4.3,2.8,10.27,49.16,685.7034,140.0051],
    [3495,1525541660,57.3373,-111.7932,797.3,487.3,188.8,5.1,2.2,10.07,48.94,685.6644,139.9976],
    [3496,1525541661,57.3367,-111.7933,797.3,487.3,187.4,4.9,2.5,10.17,49.21,685.868,139.9975],
    [3497,1525541662,57.3362,-111.7934,797.4,486.4,185.0,3.6,3.0,10.73,48.08,685.991,140.0044],
    [3498,1525541663,57.3356,-111.7934,797.5,486.5,183.6,3.5,3.0,10.31,48.65,686.1051,140.0001],
    [3499,1525541664,57.3351,-111.7934,797.9,486.9,184.3,5.0,2.5,9.75,48.17,686.2793,140.0062],
    [3500,1525541665,57.3345,-111.7934,798.1,488.1,184.0,5.2,1.9,10.38,48.27,686.2749,140.0048],
    [3501,1525541666,57.3339,-111.7934,797.4,488.1,182.9,4.5,1.9,10.23,47.7,686.1932,140.0073],
    [3502,1525541667,57.3334,-111.7933,795.3,487.6,182.3,4.3,1.8,10.05,48.26,686.1406,139.9948],
    [3503,1525541668,57.3327,-111.7933,793.3,488.4,181.7,3.9,1.9,10.23,47.61,686.2161,140.0044],
    [3504,1525541669,57.3322,-111.7933,791.9,486.9,182.7,4.8,1.8,9.57,47.53,686.1966,140.0028],
    [3505,1525541670,57.3316,-111.7932,791.0,483.4,182.8,4.4,1.5,9.41,47.36,686.215,139.9989],
    [3506,1525541671,57.3311,-111.7932,791.7,482.4,182.3,3.5,2.0,10.05,47.73,686.2332,140.0015],
    [3507,1525541672,57.3305,-111.7932,792.7,482.7,184.4,5.5,1.9,9.97,47.28,686.2964,139.9998],
    [3508,1525541673,57.3299,-111.7932,792.7,482.7,185.1,5.6,1.7,9.64,47.19,686.3433,139.9978],
    [3509,1525541674,57.3294,-111.7932,792.3,482.3,183.2,4.0,2.1,9.56,46.97,686.4588,140.0012],
    [3510,1525541675,57.3288,-111.7932,792.1,482.1,183.3,5.5,2.3,9.99,47.18,686.6059,139.9989],
    [3511,1525541676,57.3282,-111.7931,792.0,482.0,182.3,6.6,2.1,9.72,47.46,686.8529,139.9916],
    [3512,1525541677,57.3277,-111.793,791.8,481.8,177.7,5.0,2.5,9.88,46.83,686.9475,139.994],
    [3513,1525541678,57.3271,-111.7929,791.0,481.0,172.9,4.8,2.7,9.48,47.29,687.3022,139.9892],
    [3514,1525541679,57.3266,-111.7926,789.8,479.8,168.5,5.0,3.0,10.36,47.6,687.698,139.9965],
    [3515,1525541680,57.326,-111.7922,788.2,478.2,161.3,4.5,3.1,9.72,47.48,688.1074,139.9902],
    [3516,1525541681,57.3255,-111.7918,785.9,475.9,154.6,4.0,3.0,9.91,47.54,688.5266,140.0046],
    [3517,1525541682,57.325,-111.7912,783.1,473.1,147.4,3.6,2.9,9.72,47.49,688.8773,139.9939],
    [3518,1525541683,57.3245,-111.7904,780.0,470.0,139.7,2.5,3.0,10.23,46.99,689.4294,139.9933],
    [3519,1525541684,57.3241,-111.7897,775.9,465.9,132.6,0.9,2.8,10.41,47.44,689.9764,139.9997],
    [3520,1525541685,57.3238,-111.7888,771.3,461.3,126.4,0.0,2.8,9.57,48.15,690.1093,139.9966],
    [3521,1525541686,57.3234,-111.7878,765.8,456.8,120.8,0.7,2.8,10.28,47.99,690.2752,140.0008],
    [3522,1525541687,57.3232,-111.7868,760.8,451.8,116.5,1.7,3.3,10.05,48.96,690.7484,139.9956],
    [3523,1525541688,57.3229,-111.7856,755.2,447.2,111.1,1.4,3.3,10.41,49.28,690.9682,139.9984],
    [3524,1525541689,57.3228,-111.7845,749.4,442.4,107.5,1.2,3.6,9.92,50.13,691.0558,139.9957],
    [3525,1525541690,57.3226,-111.7833,743.2,436.9,101.2,0.4,1.2,10.0,50.27,691.1735,140.0065],
    [3526,1525541691,57.3225,-111.7821,739.7,433.7,96.8,0.6,0.7,10.01,50.23,691.0268,140.0036],
    [3527,1525541692,57.3225,-111.7809,736.7,431.7,98.6,2.6,4.6,9.92,50.61,690.8438,140.0033],
    [3528,1525541693,57.3224,-111.7797,734.2,430.2,96.8,2.0,3.6,10.07,51.18,690.7778,139.9992],
    [3529,1525541694,57.3224,-111.7785,731.5,428.5,94.9,1.4,2.6,10.1,51.52,690.7295,140.0015],
    [3530,1525541695,57.3223,-111.7772,730.7,428.0,93.7,1.7,1.9,10.3,50.85,690.7773,139.9958],
    [3531,1525541696,57.3223,-111.776,732.4,430.4,92.5,2.1,1.2,10.03,51.35,690.9567,139.9975],
    [3532,1525541697,57.3223,-111.7748,734.9,433.9,92.6,2.2,1.7,10.09,51.75,690.9852,140.0042],
    [3533,1525541698,57.3223,-111.7735,736.2,436.2,93.0,2.3,2.8,9.97,51.67,690.9518,139.9973],
    [3534,1525541699,57.3223,-111.7723,737.1,437.1,92.3,2.5,2.7,10.24,52.15,690.9786,140.0005],
    [3535,1525541700,57.3223,-111.7711,736.8,436.8,91.6,1.9,2.5,10.32,51.76,690.9626,140.0006],
    [3536,1525541701,57.3223,-111.7699,735.6,436.6,92.3,1.6,3.8,9.5,51.94,690.9786,139.998],
    [3537,1525541702,57.3223,-111.7687,734.3,435.3,92.5,1.7,4.2,10.53,51.77,690.9868,140.0074],
    [3538,1525541703,57.3223,-111.7675,734.0,435.0,92.3,1.7,4.2,9.72,51.69,691.1205,140.0011],
    [3539,1525541704,57.3223,-111.7663,734.2,436.2,91.8,1.5,3.6,10.16,51.97,691.1587,140.0039],
    [3540,1525541705,57.3224,-111.7651,734.4,436.4,91.3,1.6,3.0,9.65,52.34,691.25,139.9977],
    [3541,1525541706,57.3224,-111.7639,734.3,436.3,91.4,1.4,2.7,9.79,52.21,691.2485,139.9987],
    [3542,1525541707,57.3224,-111.7629,733.9,434.9,91.9,1.9,2.6,10.06,52.77,691.2395,140.0015],
    [3543,1525541708,57.3224,-111.7616,733.0,433.0,92.2,2.8,2.1,10.11,52.94,691.1863,139.9987],
    [3544,1525541709,57.3224,-111.7603,732.2,431.2,92.2,2.6,1.7,9.92,52.48,691.1371,140.0041],
    [3545,1525541710,57.3224,-111.7592,731.3,429.3,93.1,2.3,2.4,10.07,52.46,691.0223,139.9994],
    [3546,1525541711,57.3223,-111.7579,731.0,429.0,93.9,2.3,2.8,10.04,52.3,690.9472,140.0021],
    [3547,1525541712,57.3223,-111.7567,731.1,429.1,93.8,2.3,2.5,10.07,52.02,690.7808,140.0002],
    [3548,1525541713,57.3223,-111.7556,731.6,429.6,93.8,2.4,2.3,10.58,51.66,690.7821,139.9972],
    [3549,1525541714,57.3223,-111.7544,732.6,430.6,93.9,2.8,2.1,10.48,51.57,690.8302,139.9969],
    [3550,1525541715,57.3223,-111.7532,733.8,431.8,94.3,3.4,2.2,10.18,51.28,690.9389,140.002],
    [3551,1525541716,57.3222,-111.752,735.0,433.2,93.8,3.5,1.7,10.48,51.09,690.9951,139.9985],
    [3552,1525541717,57.3222,-111.7509,736.2,435.2,93.3,3.5,1.4,10.11,51.23,691.0559,139.9978],
    [3553,1525541718,57.3222,-111.7497,736.9,436.7,93.2,3.6,1.9,9.73,50.82,691.1218,139.9947],
    [3554,1525541719,57.3222,-111.7486,736.7,437.6,92.4,3.3,1.8,10.19,51.0,691.2075,139.997],
    [3555,1525541720,57.3222,-111.7474,735.7,436.6,90.7,2.7,0.9,10.18,50.6,691.3607,139.9937],
    [3556,1525541721,57.3222,-111.7461,734.3,436.7,89.8,2.6,1.2,10.16,49.89,691.6109,139.9981],
    [3557,1525541722,57.3222,-111.7449,733.9,437.8,89.2,3.2,1.5,9.73,49.84,691.6494,139.9976],
    [3558,1525541723,57.3222,-111.7437,733.4,439.4,88.8,3.4,1.7,9.62,49.83,691.8439,139.9969],
    [3559,1525541724,57.3223,-111.7425,732.3,439.3,88.9,3.5,1.8,9.9,49.33,692.0008,140.0008],
    [3560,1525541725,57.3223,-111.7415,730.8,437.8,88.9,3.7,1.7,10.04,49.66,692.1592,139.9981],
    [3561,1525541726,57.3223,-111.7401,728.5,436.5,90.1,3.7,2.2,10.04,49.27,692.3413,140.0032],
    [3562,1525541727,57.3223,-111.7389,726.2,435.2,90.9,3.5,2.2,10.96,48.14,692.4179,140.0004],
    [3563,1525541728,57.3223,-111.7377,724.1,434.1,92.2,3.4,3.0,10.34,48.5,692.6739,140.0012],
    [3564,1525541729,57.3223,-111.7365,721.9,432.9,92.4,3.3,3.3,10.29,48.34,692.8809,139.9923],
    [3565,1525541730,57.3223,-111.7354,720.2,432.2,91.8,3.0,3.8,10.07,48.09,693.0288,139.998],
    [3566,1525541731,57.3224,-111.7341,718.4,431.4,89.3,3.2,3.8,9.89,47.95,693.1003,140.0004],
    [3567,1525541732,57.3224,-111.7329,716.4,429.4,85.2,3.1,3.1,10.02,47.51,693.2026,140.0054],
    [3568,1525541733,57.3225,-111.7317,714.1,427.1,81.3,2.3,3.2,10.03,47.55,693.2105,140.0028],
    [3569,1525541734,57.3227,-111.7304,711.3,425.3,75.6,1.5,3.4,10.08,47.61,693.2001,139.994],
    [3570,1525541735,57.3229,-111.7293,709.3,423.3,70.0,1.5,3.6,10.25,47.38,693.1775,139.9937],
    [3571,1525541736,57.3232,-111.7282,707.8,421.8,63.2,2.0,2.5,10.24,47.56,693.3082,139.9939],
    [3572,1525541737,57.3235,-111.7272,707.0,421.0,57.3,1.9,2.8,10.28,48.32,693.8024,139.9989],
    [3573,1525541738,57.3239,-111.7262,707.0,422.0,52.1,1.7,4.0,10.45,48.13,693.9374,140.004],
    [3574,1525541739,57.3244,-111.7252,707.6,422.6,47.6,1.2,4.6,10.27,48.37,693.9805,139.9948],
    [3575,1525541740,57.3249,-111.7244,707.6,422.6,44.1,0.6,4.8,10.45,48.31,693.9827,139.9973],
    [3576,1525541741,57.3254,-111.7236,705.4,420.4,38.4,2.2,3.0,10.38,49.0,694.0513,140.0053],
    [3577,1525541742,57.3259,-111.7229,701.9,417.9,30.8,4.2,1.5,9.86,48.85,694.0329,140.0035],
    [3578,1525541743,57.3265,-111.7223,699.3,415.3,26.1,4.1,1.7,10.16,49.02,693.9411,140.0025],
    [3579,1525541744,57.327,-111.7218,698.0,415.0,22.4,3.5,1.9,10.51,48.68,693.825,140.0087],
    [3580,1525541745,57.3277,-111.7213,697.6,415.6,18.7,2.5,2.4,10.22,48.26,693.6984,139.9984],
    [3581,1525541746,57.3283,-111.7209,697.4,415.4,14.7,2.5,2.7,10.28,48.28,693.6847,139.9967],
    [3582,1525541747,57.329,-111.7206,697.3,416.3,10.2,2.9,2.6,10.34,48.41,693.6101,140.0003],
    [3583,1525541748,57.3296,-111.7204,697.8,417.8,6.4,3.0,2.1,10.33,48.21,693.6124,139.9992],
    [3584,1525541749,57.3303,-111.7202,699.1,422.1,3.1,3.3,2.0,10.28,48.68,693.6572,140.0061],
    [3585,1525541750,57.3309,-111.7201,700.8,427.9,360.5,3.3,2.7,10.31,48.14,693.5938,140.0038],
    [3586,1525541751,57.3315,-111.7201,702.1,432.3,358.7,3.5,3.0,10.43,48.23,693.5257,140.0008],
    [3587,1525541752,57.3322,-111.7201,702.7,437.1,357.5,3.5,3.0,10.83,47.93,693.5034,140.0014],
    [3588,1525541753,57.3328,-111.7201,702.6,441.2,357.7,2.8,2.8,11.2,47.88,693.4659,139.9989],
    [3589,1525541754,57.3334,-111.7201,702.3,442.6,357.6,3.0,2.8,10.68,48.24,693.4052,140.0013],
    [3590,1525541755,57.3341,-111.7201,702.7,443.8,357.5,2.9,3.3,10.19,48.5,693.3871,139.9989],
    [3591,1525541756,57.3348,-111.7201,703.7,443.1,358.2,2.4,3.6,9.82,48.86,693.388,139.9985],
    [3592,1525541757,57.3354,-111.7201,704.2,440.8,357.2,3.6,3.4,10.4,49.81,693.4495,140.0097],
    [3593,1525541758,57.336,-111.7201,704.4,439.6,357.4,3.3,2.7,10.28,49.74,693.4121,140.0012],
    [3594,1525541759,57.3366,-111.7201,705.0,440.0,357.8,2.9,2.3,10.42,50.33,693.2475,140.0018],
    [3595,1525541760,57.3372,-111.7201,705.5,439.8,357.7,3.0,2.5,10.84,49.7,693.2174,139.9966],
    [3596,1525541761,57.3379,-111.7201,705.4,437.7,357.9,2.6,2.5,10.67,49.5,693.1206,140.0013],
    [3597,1525541762,57.3385,-111.7201,705.0,437.0,357.6,2.5,2.9,9.77,49.76,693.0516,139.9961],
    [3598,1525541763,57.3391,-111.7201,705.2,438.3,357.3,2.5,2.9,10.59,49.45,693.0661,140.007],
    [3599,1525541764,57.3397,-111.7201,706.4,440.1,356.3,3.1,2.7,9.92,49.63,693.0048,140.001],
    [3600,1525541765,57.3404,-111.7201,707.8,441.5,356.3,2.7,2.8,10.27,49.57,692.8939,140.0061],
    [3601,1525541766,57.341,-111.7201,708.8,441.6,355.2,3.3,2.8,9.9,49.58,692.7191,140.0135],
    [3602,1525541767,57.3416,-111.7202,709.5,441.1,354.9,2.2,2.4,10.82,49.12,692.4857,140.0004],
    [3603,1525541768,57.3422,-111.7203,709.8,439.0,353.6,1.5,2.0,10.37,49.86,692.4327,139.991],
    [3604,1525541769,57.3429,-111.7204,709.8,438.8,349.6,2.7,1.1,10.2,50.05,692.3997,140.0042],
    [3605,1525541770,57.3435,-111.7206,711.1,437.6,346.2,2.2,1.1,10.42,50.04,692.4529,139.9982],
    [3606,1525541771,57.344,-111.7208,713.0,435.8,343.1,1.5,2.4,10.43,49.69,692.4467,140.0057],
    [3607,1525541772,57.3446,-111.7212,715.9,437.9,337.6,2.4,3.0,10.2,50.53,692.4039,140.0104],
    [3608,1525541773,57.3452,-111.7216,717.2,438.3,333.2,3.5,2.1,9.86,50.67,692.3842,139.9986],
    [3609,1525541774,57.3457,-111.7221,717.5,438.2,328.3,3.9,1.9,10.37,50.87,692.2859,140.0045],
    [3610,1525541775,57.3462,-111.7226,717.4,439.1,323.8,4.0,2.3,10.0,50.88,692.3215,139.9971],
    [3611,1525541776,57.3467,-111.7232,717.3,439.3,319.7,4.0,2.7,11.09,50.26,692.3327,139.9915],
    [3612,1525541777,57.3472,-111.7239,717.5,439.5,314.8,4.8,3.5,10.63,50.0,692.5206,139.9998],
    [3613,1525541778,57.3476,-111.7246,717.9,440.0,311.3,4.0,2.7,10.38,50.55,692.7361,140.0053],
    [3614,1525541779,57.348,-111.7254,718.9,441.9,307.8,4.1,3.1,10.26,50.46,692.914,139.999],
    [3615,1525541780,57.3483,-111.7261,719.0,442.4,305.2,4.3,3.1,9.62,50.21,693.0091,139.9984],
    [3616,1525541781,57.3487,-111.727,718.2,444.2,303.7,3.6,1.9,10.4,49.97,693.2013,140.0019],
    [3617,1525541782,57.349,-111.7279,716.8,444.7,301.7,2.8,1.6,10.46,50.21,693.2837,140.0089],
    [3618,1525541783,57.3494,-111.7287,714.5,442.6,299.2,3.0,2.1,10.86,50.21,693.4058,140.0012],
    [3619,1525541784,57.3496,-111.7296,711.9,439.9,296.0,3.6,2.5,10.44,51.16,693.5098,139.9976],
    [3620,1525541785,57.3499,-111.7306,709.6,438.8,293.6,3.6,1.8,10.4,50.52,693.4728,140.0104],
    [3621,1525541786,57.3502,-111.7315,707.5,435.4,290.6,3.4,1.6,10.19,50.62,693.5118,140.0024],
    [3622,1525541787,57.3504,-111.7326,705.9,431.9,285.7,3.7,3.4,10.29,51.32,693.4545,140.0059],
    [3623,1525541788,57.3505,-111.7336,704.9,430.0,282.6,4.0,3.4,10.25,50.95,693.3477,139.9999],
    [3624,1525541789,57.3507,-111.7346,704.1,428.1,281.8,3.6,1.4,10.48,50.94,693.2938,139.9981],
    [3625,1525541790,57.3508,-111.7356,703.9,427.1,278.1,3.1,3.0,10.47,51.44,693.272,139.9929],
    [3626,1525541791,57.3509,-111.7367,703.9,426.7,275.2,2.6,2.7,10.15,51.13,693.3036,140.0008],
    [3627,1525541792,57.351,-111.7377,704.3,426.0,272.8,2.0,2.6,10.8,51.08,693.3731,139.9914],
    [3628,1525541793,57.351,-111.7387,705.4,425.4,269.1,1.7,4.1,10.57,51.38,693.397,140.0002],
    [3629,1525541794,57.351,-111.7397,706.4,424.3,268.0,2.2,4.2,10.35,52.35,693.3981,140.0002],
    [3630,1525541795,57.351,-111.7409,706.8,423.8,268.1,2.4,3.6,10.14,52.2,693.3954,139.9981],
    [3631,1525541796,57.3511,-111.7418,706.7,422.7,267.5,2.3,4.3,10.3,52.15,693.3907,140.0046],
    [3632,1525541797,57.3511,-111.7429,706.0,421.0,268.4,2.9,3.4,9.76,52.73,693.4329,139.9995],
    [3633,1525541798,57.3511,-111.744,705.5,419.5,268.7,3.3,3.2,10.22,52.78,693.3855,140.0036],
    [3634,1525541799,57.3511,-111.745,705.6,418.6,268.5,3.2,3.4,10.45,52.78,693.3492,140.0047],
    [3635,1525541800,57.3511,-111.7461,705.6,418.6,268.8,2.8,3.1,10.43,53.02,693.3065,140.0052],
    [3636,1525541801,57.3511,-111.747,705.5,417.4,268.2,2.7,3.5,10.53,52.79,693.122,140.0025],
    [3637,1525541802,57.3511,-111.7482,705.2,416.0,268.8,3.5,2.5,10.18,53.28,693.0306,139.9993],
    [3638,1525541803,57.3511,-111.7492,705.1,415.0,268.3,3.6,3.1,10.34,53.2,693.0274,139.9973],
    [3639,1525541804,57.3512,-111.7502,705.7,414.7,267.1,3.5,3.9,10.3,52.92,693.0196,139.9993],
    [3640,1525541805,57.3512,-111.7513,706.3,414.2,268.1,3.2,2.1,10.58,51.84,693.0306,139.9977],
    [3641,1525541806,57.3511,-111.7524,707.7,414.3,267.1,2.7,2.1,9.92,51.38,693.0374,140.0029],
    [3642,1525541807,57.3511,-111.7534,709.3,415.3,264.8,2.9,3.3,10.54,50.62,693.0719,139.9977],
    [3643,1525541808,57.3511,-111.7544,710.0,415.0,265.1,3.0,1.8,10.33,50.69,693.0729,140.001],
    [3644,1525541809,57.3511,-111.7554,710.1,414.9,264.7,2.9,1.6,10.13,50.57,693.0503,140.0053],
    [3645,1525541810,57.351,-111.7565,709.8,414.5,262.4,3.2,3.7,10.14,50.24,693.0778,140.0039],
    [3646,1525541811,57.351,-111.7575,709.4,414.4,261.7,3.2,4.1,10.81,49.35,693.0366,140.008],
    [3647,1525541812,57.3509,-111.7586,709.1,414.1,261.9,3.4,3.8,10.15,49.62,692.9207,140.002],
    [3648,1525541813,57.3509,-111.7597,709.0,414.7,263.2,3.2,2.9,9.67,49.67,692.686,139.9893],
    [3649,1525541814,57.3508,-111.7607,709.0,414.0,263.8,3.1,3.5,10.31,49.59,692.3553,140.0002],
    [3650,1525541815,57.3508,-111.7618,709.1,413.3,266.3,3.0,2.9,9.61,49.61,692.0911,139.9944],
    [3651,1525541816,57.3508,-111.7628,709.6,413.9,267.9,2.5,3.3,10.31,49.96,691.9929,139.9956],
    [3652,1525541817,57.3508,-111.7638,710.9,416.0,269.6,2.3,3.3,10.93,49.04,691.5324,140.0023],
    [3653,1525541818,57.3509,-111.7649,713.0,419.8,271.9,3.0,2.2,10.06,49.76,691.4753,139.9955],
    [3654,1525541819,57.3509,-111.7659,715.7,424.4,271.9,3.7,3.0,10.01,49.53,691.3439,139.9957],
    [3655,1525541820,57.3509,-111.7669,719.5,428.9,271.7,4.0,2.9,10.17,49.78,691.056,139.9996],
    [3656,1525541821,57.351,-111.768,723.1,432.1,271.5,3.9,2.3,10.18,49.78,691.0101,139.9947],
    [3657,1525541822,57.351,-111.769,726.0,433.8,268.6,3.6,4.4,10.1,49.59,690.9357,140.0028],
    [3658,1525541823,57.351,-111.77,728.4,433.9,267.5,3.5,4.3,10.05,49.49,690.8381,139.997],
    [3659,1525541824,57.351,-111.771,730.5,434.5,268.3,3.6,2.8,9.76,49.31,690.7619,140.0045],
    [3660,1525541825,57.351,-111.7719,732.8,435.7,266.4,3.7,3.9,10.29,49.27,690.6733,139.9978],
    [3661,1525541826,57.351,-111.773,734.4,436.4,266.0,3.6,3.4,10.09,49.18,690.5626,139.9982],
    [3662,1525541827,57.351,-111.7738,735.0,437.0,266.0,3.7,2.9,10.01,49.24,690.5214,139.9897],
    [3663,1525541828,57.351,-111.7749,736.0,437.0,264.5,4.0,3.7,11.05,48.75,690.5056,140.0078],
    [3664,1525541829,57.351,-111.776,737.0,437.0,264.3,4.1,3.3,10.35,49.28,690.4455,140.0022],
    [3665,1525541830,57.351,-111.7771,738.2,437.5,263.1,3.9,4.1,10.32,49.58,690.5069,140.0048],
    [3666,1525541831,57.3509,-111.7781,739.2,438.2,262.1,3.7,4.7,10.34,49.68,690.5347,140.0054],
    [3667,1525541832,57.3509,-111.7791,740.2,438.2,262.2,3.9,4.0,10.75,49.03,690.6062,140.0052],
    [3668,1525541833,57.3508,-111.7801,740.6,437.6,262.9,3.7,2.6,9.81,49.43,690.6158,140.0016],
    [3669,1525541834,57.3508,-111.7811,740.8,437.9,261.4,4.1,3.0,10.47,49.52,690.6528,140.0022],
    [3670,1525541835,57.3507,-111.782,740.8,435.8,258.7,4.3,3.4,10.95,49.37,690.6772,139.9955],
    [3671,1525541836,57.3506,-111.783,740.2,435.2,255.0,4.5,3.3,10.15,49.6,690.7682,140.0035],
    [3672,1525541837,57.3505,-111.7839,739.8,433.8,251.3,4.6,2.8,9.73,49.25,690.8215,139.9917],
    [3673,1525541838,57.3503,-111.7849,739.5,433.8,245.9,4.6,2.7,10.19,49.0,690.9794,140.0018],
    [3674,1525541839,57.35,-111.7858,739.4,433.7,239.5,4.1,3.4,9.96,48.48,691.118,140.0014],
    [3675,1525541840,57.3498,-111.7866,739.1,434.8,234.1,3.8,3.7,10.0,48.19,691.2476,140.002],
    [3676,1525541841,57.3494,-111.7874,737.9,437.2,228.6,3.8,3.8,10.21,47.87,691.5244,139.998],
    [3677,1525541842,57.3491,-111.7881,736.8,437.8,223.7,3.7,4.1,10.23,47.83,691.6218,139.995],
    [3678,1525541843,57.3486,-111.7888,735.5,437.5,219.4,3.9,4.0,10.04,47.97,691.8264,140.0039],
    [3679,1525541844,57.3482,-111.7894,733.8,434.8,214.3,3.3,3.6,10.61,47.81,691.9986,140.0034],
    [3680,1525541845,57.3477,-111.79,731.9,431.8,209.7,2.6,3.2,10.31,48.01,692.2298,139.995],
    [3681,1525541846,57.3472,-111.7904,729.3,429.3,205.1,2.2,3.4,10.38,47.95,692.2107,140.0103],
    [3682,1525541847,57.3467,-111.7908,727.0,427.0,200.5,2.3,3.7,10.07,48.82,692.1302,140.0007],
    [3683,1525541848,57.3461,-111.7911,724.6,424.6,196.5,1.6,3.8,10.46,48.79,692.058,140.0025],
    [3684,1525541849,57.3456,-111.7914,722.3,422.3,192.5,0.9,4.1,9.79,48.74,691.8859,139.9983],
    [3685,1525541850,57.345,-111.7916,720.5,420.6,191.4,2.2,4.1,9.87,49.07,691.8897,140.0034],
    [3686,1525541851,57.3445,-111.7918,719.4,418.4,189.7,1.7,3.8,11.02,49.06,691.7971,140.006],
    [3687,1525541852,57.3439,-111.7919,720.0,418.5,187.2,0.6,3.5,10.09,49.48,691.6563,139.999],
    [3688,1525541853,57.3433,-111.792,721.8,418.9,186.0,0.6,3.9,9.64,49.59,691.4529,140.0048],
    [3689,1525541854,57.3427,-111.7921,723.4,419.1,186.3,2.1,3.9,10.31,49.74,691.3022,139.9974],
    [3690,1525541855,57.3422,-111.7922,723.6,417.6,186.5,3.0,3.2,10.96,49.78,691.2329,140.0015],
    [3691,1525541856,57.3416,-111.7923,725.0,417.3,185.4,2.3,2.8,9.97,50.14,691.0379,140.0004],
    [3692,1525541857,57.341,-111.7923,726.8,418.5,185.1,2.4,2.3,10.47,49.9,690.9415,139.9944],
    [3693,1525541858,57.3405,-111.7924,728.5,419.5,185.1,2.7,2.4,10.36,49.72,690.8646,139.9828],
    [3694,1525541859,57.34,-111.7924,730.0,421.0,185.2,3.0,2.7,10.99,49.17,691.0064,139.9991],
    [3695,1525541860,57.3393,-111.7925,731.8,422.8,184.8,3.2,2.0,10.31,49.23,691.202,140.001],
    [3696,1525541861,57.3387,-111.7925,733.5,424.5,183.1,2.7,2.2,10.37,49.47,691.2071,140.0043],
    [3697,1525541862,57.3382,-111.7925,734.6,425.6,181.5,2.1,2.7,10.33,49.0,691.0877,140.0006],
    [3698,1525541863,57.3376,-111.7925,735.4,426.4,180.6,2.1,2.8,10.25,48.74,691.0645,139.9956],
    [3699,1525541864,57.337,-111.7925,735.2,425.2,181.5,3.2,2.6,10.65,48.21,691.1922,140.0],
    [3700,1525541865,57.3365,-111.7924,733.3,423.3,182.2,3.7,2.5,10.56,48.56,691.3117,139.9943],
    [3701,1525541866,57.3359,-111.7924,732.1,422.1,181.7,2.9,2.6,10.39,48.18,691.4698,139.9978],
    [3702,1525541867,57.3353,-111.7924,732.6,422.6,180.6,2.4,2.3,9.64,48.6,691.577,140.0036],
    [3703,1525541868,57.3348,-111.7924,733.7,423.7,180.8,3.3,2.5,9.94,48.55,691.6572,140.0004],
    [3704,1525541869,57.3342,-111.7923,733.2,423.4,181.4,4.3,2.3,10.51,48.97,691.743,140.006],
    [3705,1525541870,57.3336,-111.7923,732.1,424.1,181.7,4.7,2.2,9.89,48.8,691.7229,140.0085],
    [3706,1525541871,57.3331,-111.7922,730.4,424.3,181.3,4.3,2.7,10.22,48.69,691.8262,139.9897],
    [3707,1525541872,57.3325,-111.7922,728.8,424.9,181.4,4.0,3.0,10.73,48.0,691.8936,139.9926],
    [3708,1525541873,57.3319,-111.7922,727.2,421.2,181.6,3.8,2.9,10.29,48.03,691.9532,139.9996],
    [3709,1525541874,57.3314,-111.7921,726.0,417.0,181.7,3.1,3.0,10.34,48.03,692.2216,140.0042],
    [3710,1525541875,57.3308,-111.7921,725.8,415.8,182.1,3.4,3.1,10.0,48.18,692.5293,140.0064],
    [3711,1525541876,57.3303,-111.7921,725.3,415.3,183.8,4.7,2.3,10.85,47.33,692.6982,140.0008],
    [3712,1525541877,57.3297,-111.7921,724.3,414.3,182.5,2.9,2.6,10.27,48.25,692.9231,139.9988],
    [3713,1525541878,57.3292,-111.7921,723.0,413.0,179.8,1.0,3.7,9.83,48.07,693.3388,140.0052],
    [3714,1525541879,57.3286,-111.7921,720.9,410.9,180.5,3.1,3.6,10.46,48.23,693.6316,139.9947],
    [3715,1525541880,57.3281,-111.792,718.5,408.5,178.5,3.3,3.0,10.02,48.96,693.6445,139.9916],
    [3716,1525541881,57.3275,-111.7919,716.0,406.0,172.1,2.0,2.8,10.35,49.69,694.0791,139.9943],
    [3717,1525541882,57.327,-111.7916,713.5,403.5,167.6,3.1,2.7,10.73,49.48,694.3819,139.9935],
    [3718,1525541883,57.3264,-111.7913,709.6,399.6,160.7,1.6,2.9,10.63,49.65,694.7289,139.9975],
    [3719,1525541884,57.3259,-111.7909,706.0,396.0,153.1,1.1,2.3,10.7,50.17,695.1422,139.9987],
    [3720,1525541885,57.3255,-111.7903,703.3,393.3,147.8,2.0,2.5,9.93,50.17,695.3703,139.9949],
    [3721,1525541886,57.325,-111.7897,700.1,390.1,142.2,1.4,3.1,10.27,50.51,695.787,140.0008],
    [3722,1525541887,57.3246,-111.7889,696.3,386.3,136.6,0.9,3.7,10.47,49.88,696.185,140.0144],
    [3723,1525541888,57.3242,-111.7881,692.6,383.2,132.2,1.2,4.2,10.24,50.13,696.431,139.9994],
    [3724,1525541889,57.3238,-111.7872,688.2,379.2,126.9,1.2,3.8,9.75,50.04,696.4264,139.995],
    [3725,1525541890,57.3235,-111.7863,683.2,375.2,121.9,0.9,3.4,10.22,50.35,696.3897,139.9984],
    [3726,1525541891,57.3233,-111.7853,677.6,369.6,117.1,1.1,2.4,11.11,49.86,696.3764,139.9934],
    [3727,1525541892,57.3231,-111.7843,673.1,366.1,110.4,0.5,0.2,10.53,50.17,696.4492,140.0032],
    [3728,1525541893,57.3229,-111.7834,671.3,364.3,106.9,0.9,0.9,10.25,50.73,696.5314,139.9939],
    [3729,1525541894,57.3227,-111.7822,670.6,364.6,104.6,1.2,2.4,10.56,50.36,696.6422,140.0032],
    [3730,1525541895,57.3226,-111.7811,670.9,365.9,101.4,0.7,2.1,11.0,50.52,696.6312,140.0053],
    [3731,1525541896,57.3225,-111.78,670.8,366.1,100.6,1.2,3.6,10.67,50.54,696.5662,139.9992],
    [3732,1525541897,57.3225,-111.7789,670.3,366.3,98.8,1.1,3.2,10.61,50.75,696.2576,140.0],
    [3733,1525541898,57.3224,-111.7778,669.3,366.3,98.2,1.0,3.9,10.43,51.23,696.0994,140.0107],
    [3734,1525541899,57.3224,-111.7767,668.2,366.2,97.0,0.6,3.2,10.84,51.23,695.8526,140.0053],
    [3735,1525541900,57.3223,-111.7756,668.0,366.0,95.6,0.1,2.4,11.31,51.0,695.8139,140.0006],
    [3736,1525541901,57.3223,-111.7745,668.7,367.7,96.4,0.2,3.5,10.59,51.56,695.7686,139.9969],
    [3737,1525541902,57.3223,-111.7734,670.9,370.9,97.4,0.4,4.2,10.53,51.66,695.8561,140.0056],
    [3738,1525541903,57.3222,-111.7723,674.5,374.5,96.3,0.9,2.9,10.39,51.73,695.8049,139.9973],
    [3739,1525541904,57.3222,-111.7712,677.0,377.0,95.5,1.8,2.5,10.63,51.87,695.8724,139.9972],
    [3740,1525541905,57.3221,-111.7701,678.2,379.3,94.1,2.0,1.5,10.88,51.81,696.0578,139.9939],
    [3741,1525541906,57.3221,-111.769,678.7,379.7,93.8,1.9,2.1,10.85,52.13,695.9953,139.9974],
    [3742,1525541907,57.3221,-111.7679,678.3,379.3,94.1,2.4,2.9,10.76,51.53,696.0341,139.9952],
    [3743,1525541908,57.3221,-111.7669,677.8,379.1,91.4,2.2,0.9,10.6,52.08,696.1729,140.0021],
    [3744,1525541909,57.3221,-111.766,677.2,379.2,91.1,1.5,1.6,10.79,51.43,696.5093,140.0048],
    [3745,1525541910,57.3221,-111.7648,675.7,377.7,92.7,0.6,3.3,10.64,51.8,696.5855,139.9989],
    [3746,1525541911,57.3221,-111.7636,675.1,376.1,91.9,-0.1,3.2,10.61,52.56,696.7943,139.9993],
    [3747,1525541912,57.3221,-111.7625,674.9,374.9,92.9,0.6,4.9,10.98,51.87,696.8998,140.0004],
    [3748,1525541913,57.3221,-111.7614,673.3,373.3,92.2,1.1,4.5,10.64,51.86,696.9501,139.9941],
    [3749,1525541914,57.3222,-111.7603,670.9,369.9,91.0,1.1,3.5,10.7,52.41,697.1003,140.0006],
    [3750,1525541915,57.3222,-111.7591,668.4,366.3,90.7,1.4,3.4,10.46,52.05,697.242,140.0016],
    [3751,1525541916,57.3222,-111.758,666.4,364.4,90.5,0.9,3.0,10.55,52.13,697.3776,140.0026],
    [3752,1525541917,57.3222,-111.7569,664.9,362.9,89.6,0.2,1.7,10.56,52.82,697.5093,140.0048],
    [3753,1525541918,57.3222,-111.7558,663.8,361.8,91.4,0.4,3.2,10.45,52.33,697.5581,139.9965],
    [3754,1525541919,57.3222,-111.7546,662.3,360.3,92.7,0.7,3.2,10.62,52.2,697.4326,139.9979],
    [3755,1525541920,57.3222,-111.7535,660.4,358.4,93.2,0.7,2.7,11.0,51.44,697.4841,139.998],
    [3756,1525541921,57.3222,-111.7524,658.8,356.9,94.4,1.2,3.0,10.65,51.73,697.6184,140.0058],
    [3757,1525541922,57.3222,-111.7513,657.5,356.4,93.8,1.1,2.3,10.18,51.82,697.7371,139.9978],
    [3758,1525541923,57.3222,-111.7501,656.6,355.8,92.7,0.5,2.0,10.23,51.32,697.8767,140.0039],
    [3759,1525541924,57.3222,-111.749,656.7,356.5,91.9,-0.4,2.3,10.86,50.7,697.9507,140.003],
    [3760,1525541925,57.3222,-111.7478,656.9,357.8,93.0,-0.2,4.2,10.74,51.52,698.1501,140.0017],
    [3761,1525541926,57.3222,-111.7467,656.0,358.1,93.2,1.0,4.4,10.39,50.84,698.2133,140.0069],
    [3762,1525541927,57.3222,-111.7455,654.7,357.8,92.4,1.9,3.5,10.65,51.03,698.1904,139.991],
    [3763,1525541928,57.3222,-111.7444,653.9,358.9,92.1,2.6,3.5,10.59,51.12,698.1306,139.989],
    [3764,1525541929,57.3222,-111.7433,652.2,358.2,92.0,3.3,3.7,10.69,50.7,698.0783,140.0036],
    [3765,1525541930,57.3222,-111.7421,650.2,357.2,89.9,3.7,1.8,10.6,49.88,698.0806,140.0034],
    [3766,1525541931,57.3223,-111.7409,648.5,356.5,87.8,3.5,-0.1,10.91,49.18,698.0043,139.9994],
    [3767,1525541932,57.3223,-111.7399,648.4,357.1,88.4,2.1,0.5,11.02,49.23,698.1364,140.0045],
    [3768,1525541933,57.3223,-111.7387,649.4,358.4,91.5,1.5,3.5,10.89,49.42,698.1996,140.0032],
    [3769,1525541934,57.3223,-111.7376,650.3,360.3,91.9,1.6,3.3,10.81,49.46,698.2119,140.0042],
    [3770,1525541935,57.3223,-111.7364,650.6,361.6,92.3,1.3,3.6,11.06,49.04,698.2109,140.0023],
    [3771,1525541936,57.3223,-111.7352,650.7,362.7,93.2,1.3,4.9,10.79,49.58,698.1817,140.0002],
    [3772,1525541937,57.3223,-111.7341,650.0,363.0,90.6,1.5,3.9,11.03,49.6,697.9875,139.9953],
    [3773,1525541938,57.3224,-111.733,649.4,362.4,86.8,1.5,3.2,10.9,49.71,697.8837,139.9936],
    [3774,1525541939,57.3225,-111.7318,649.3,362.3,82.8,1.6,3.3,10.69,49.84,697.866,139.9977],
    [3775,1525541940,57.3226,-111.7307,649.5,363.5,78.3,1.6,3.2,10.55,49.95,697.868,139.9986],
    [3776,1525541941,57.3228,-111.7296,650.1,364.1,72.8,1.5,2.7,10.34,50.31,697.8695,139.999],
    [3777,1525541942,57.323,-111.7285,651.5,365.5,67.0,1.6,2.9,10.79,49.96,697.8656,139.9954],
    [3778,1525541943,57.3233,-111.7276,652.9,366.9,62.2,1.3,2.8,10.89,50.43,697.95,140.0038],
    [3779,1525541944,57.3236,-111.7266,653.5,367.5,56.7,1.0,2.0,11.05,50.28,697.9899,139.9999],
    [3780,1525541945,57.324,-111.7257,653.6,368.6,52.0,1.2,2.1,10.79,49.98,698.0673,139.9948],
    [3781,1525541946,57.3244,-111.7249,653.9,368.9,47.3,1.5,2.9,10.59,49.61,698.2649,140.0025],
    [3782,1525541947,57.3248,-111.7241,654.0,369.0,41.4,2.3,2.3,10.86,50.1,698.3647,139.9965],
    [3783,1525541948,57.3253,-111.7233,653.3,368.3,35.8,2.7,2.3,10.76,49.31,698.5159,139.9926],
    [3784,1525541949,57.3258,-111.7227,652.1,368.1,31.7,1.4,2.6,10.55,48.9,699.0208,139.9978],
    [3785,1525541950,57.3263,-111.7222,651.4,367.4,27.9,0.2,3.0,10.63,48.69,699.4517,139.9963],
    [3786,1525541951,57.3268,-111.7217,649.9,366.9,23.3,0.9,3.0,10.97,48.7,699.8938,139.9978],
    [3787,1525541952,57.3275,-111.7213,648.0,365.3,18.8,0.7,3.0,11.2,48.35,700.4578,140.0071],
    [3788,1525541953,57.3281,-111.7209,645.0,363.0,15.5,0.2,3.2,10.93,48.93,700.8966,140.0106],
    [3789,1525541954,57.3287,-111.7207,641.0,360.0,12.1,0.6,3.1,10.52,49.63,700.9036,140.0072],
    [3790,1525541955,57.3293,-111.7205,635.8,355.8,9.5,0.4,3.4,11.33,49.7,700.6864,139.9974],
    [3791,1525541956,57.3299,-111.7203,629.5,350.9,7.0,0.4,3.6,10.57,50.52,700.5888,140.0017],
    [3792,1525541957,57.3306,-111.7202,622.7,348.4,4.2,1.0,3.4,10.83,50.65,700.2479,140.0042],
    [3793,1525541958,57.3313,-111.7201,617.3,345.8,361.5,1.0,3.5,10.7,50.43,700.127,139.9897],
    [3794,1525541959,57.3319,-111.7201,616.5,348.7,359.2,1.1,3.3,11.36,50.36,699.9792,140.0027],
    [3795,1525541960,57.3324,-111.7201,618.2,354.0,357.6,1.4,4.0,11.27,50.34,699.8955,139.9989],
    [3796,1525541961,57.3331,-111.7201,620.6,360.2,356.3,1.4,4.0,10.86,50.58,699.8243,140.002],
    [3797,1525541962,57.3338,-111.7202,623.1,363.4,353.7,3.2,3.5,10.77,50.18,699.7017,139.9997],
    [3798,1525541963,57.3344,-111.7203,625.8,365.8,354.6,2.0,3.2,10.89,49.84,699.5837,139.999],
    [3799,1525541964,57.3351,-111.7203,627.6,365.8,354.7,2.1,2.9,10.41,49.62,699.4126,140.006],
    [3800,1525541965,57.3357,-111.7204,628.6,365.5,354.8,2.2,2.5,10.73,49.56,699.1339,139.9905],
    [3801,1525541966,57.3363,-111.7205,629.1,364.1,354.9,2.4,2.6,10.4,49.22,699.0427,139.9975],
    [3802,1525541967,57.337,-111.7205,630.5,364.5,354.7,2.5,2.5,11.07,49.03,699.0156,139.9983],
    [3803,1525541968,57.3376,-111.7206,632.3,364.4,354.7,2.6,2.2,11.21,48.88,699.0798,139.9969],
    [3804,1525541969,57.3382,-111.7207,634.5,365.4,355.1,1.8,2.8,10.88,49.14,699.2406,140.0052],
    [3805,1525541970,57.3388,-111.7207,637.0,369.0,356.4,0.3,2.8,11.06,48.32,699.1546,139.9981],
    [3806,1525541971,57.3394,-111.7208,638.5,372.2,356.0,1.3,2.9,10.9,48.71,699.0979,140.0028],
    [3807,1525541972,57.34,-111.7208,639.4,374.4,353.8,4.1,3.0,10.31,49.15,699.0422,139.9982],
    [3808,1525541973,57.3406,-111.7209,639.0,374.0,354.6,3.4,2.4,10.82,49.03,698.7242,140.0015],
    [3809,1525541974,57.3413,-111.7209,637.6,372.4,356.5,1.3,2.9,10.59,49.16,698.5312,140.0011],
    [3810,1525541975,57.3419,-111.721,637.2,371.2,356.6,1.1,3.0,10.8,48.93,698.4455,140.0087],
    [3811,1525541976,57.3424,-111.721,638.1,371.6,356.0,0.6,2.4,10.41,48.83,698.3953,140.0087],
    [3812,1525541977,57.3431,-111.7211,639.8,370.1,355.2,-1.1,2.3,10.71,49.54,698.2224,139.9989],
    [3813,1525541978,57.3437,-111.7213,642.2,368.2,350.7,0.0,3.0,10.49,49.49,697.9456,139.9984],
    [3814,1525541979,57.3443,-111.7215,644.8,368.6,345.8,1.1,3.0,10.65,50.36,697.7678,140.0032],
    [3815,1525541980,57.3448,-111.7217,646.0,367.8,341.1,2.0,2.9,11.24,50.57,697.4524,139.9962],
    [3816,1525541981,57.3454,-111.7221,647.8,368.8,333.9,2.9,3.5,10.63,51.07,697.4991,140.0078],
    [3817,1525541982,57.3459,-111.7226,650.5,372.2,328.7,2.8,3.3,11.18,50.98,697.4748,139.997],
    [3818,1525541983,57.3464,-111.7231,653.0,376.3,323.7,3.5,3.2,11.0,50.89,697.5872,140.006],
    [3819,1525541984,57.3468,-111.7236,655.2,378.6,318.7,3.9,3.2,10.84,51.05,697.7045,140.0067],
    [3820,1525541985,57.3473,-111.7243,657.6,379.4,314.6,3.3,2.3,11.24,51.1,697.6817,139.9991],
    [3821,1525541986,57.3477,-111.7251,658.6,381.9,310.7,2.7,2.7,10.9,51.12,697.6562,140.0055],
    [3822,1525541987,57.3481,-111.7258,658.8,381.5,305.7,2.2,3.6,10.89,50.91,697.7645,140.0062],
    [3823,1525541988,57.3484,-111.7266,657.9,382.3,301.2,2.4,4.0,10.87,50.65,697.7802,140.0031],
    [3824,1525541989,57.3487,-111.7275,656.5,383.9,297.4,2.8,3.7,11.35,49.85,697.7719,139.9969],
    [3825,1525541990,57.349,-111.7283,656.1,384.3,293.4,3.3,3.8,10.94,49.98,697.9842,139.9969],
    [3826,1525541991,57.3492,-111.7291,656.4,384.4,290.5,3.1,3.9,10.7,50.64,698.1695,140.0018],
    [3827,1525541992,57.3494,-111.7301,656.2,384.2,288.3,2.0,3.2,10.53,49.96,698.3326,140.0022],
    [3828,1525541993,57.3496,-111.7311,655.4,383.4,285.1,1.7,3.3,10.86,49.96,698.4986,139.9991],
    [3829,1525541994,57.3498,-111.7321,654.5,381.5,280.7,2.0,5.0,10.97,50.15,698.6305,140.0006],
    [3830,1525541995,57.3499,-111.733,653.0,378.1,278.1,1.8,5.0,11.27,50.39,698.6853,139.9944],
    [3831,1525541996,57.35,-111.734,651.1,374.5,277.1,1.4,3.9,10.87,50.77,698.7477,140.0037],
    [3832,1525541997,57.3501,-111.735,649.1,371.0,274.6,1.6,4.5,10.54,50.85,698.769,140.0004],
    [3833,1525541998,57.3502,-111.736,646.8,367.7,272.9,2.0,4.2,10.9,51.15,698.6221,140.0041],
    [3834,1525541999,57.3502,-111.737,645.1,365.0,271.6,2.2,3.5,10.85,51.07,698.9147,139.996],
    [3835,1525542000,57.3503,-111.738,644.1,363.0,270.0,2.4,3.5,10.86,51.54,698.9851,139.9986],
    [3836,1525542001,57.3503,-111.739,643.3,361.2,268.5,2.6,3.5,10.81,51.48,699.0009,140.0073],
    [3837,1525542002,57.3503,-111.7399,642.6,359.5,267.0,2.4,3.7,10.08,51.41,699.0507,139.9961],
    [3838,1525542003,57.3503,-111.741,642.7,359.8,264.5,2.9,5.2,11.21,51.25,699.0756,140.0014],
    [3839,1525542004,57.3503,-111.742,641.6,357.6,265.6,3.4,3.2,10.52,51.64,699.0576,140.0063],
    [3840,1525542005,57.3503,-111.7431,640.2,355.2,267.3,2.8,1.3,10.41,51.51,699.1471,140.0015],
    [3841,1525542006,57.3503,-111.7441,639.5,353.5,265.4,2.6,3.1,11.0,51.39,699.1169,139.9998],
    [3842,1525542007,57.3502,-111.7451,639.2,352.2,265.3,2.8,3.0,10.75,51.56,699.1422,139.9974],
    [3843,1525542008,57.3502,-111.7461,638.9,351.2,265.8,2.5,2.9,10.86,51.63,699.1086,140.0077],
    [3844,1525542009,57.3502,-111.7471,638.6,350.6,265.3,2.6,3.8,10.79,51.35,699.0908,140.0005],
    [3845,1525542010,57.3502,-111.7482,638.3,349.2,267.2,2.6,2.6,11.2,50.28,699.0249,140.0034],
    [3846,1525542011,57.3502,-111.7491,638.3,348.3,268.6,2.3,2.0,10.86,50.58,698.9447,140.004],
    [3847,1525542012,57.3502,-111.7502,638.6,347.3,270.1,2.2,1.7,11.17,49.83,698.8659,140.0069],
    [3848,1525542013,57.3502,-111.7511,638.6,346.4,270.0,1.6,2.9,11.2,49.67,698.6719,140.0098],
    [3849,1525542014,57.3503,-111.7522,638.8,345.5,270.1,1.5,3.6,10.6,50.11,698.5563,140.0111],
    [3850,1525542015,57.3503,-111.7532,639.9,345.8,270.0,1.9,3.7,11.2,49.67,698.3498,139.9898],
    [3851,1525542016,57.3503,-111.7543,640.9,345.9,269.7,1.8,3.6,11.59,50.38,698.2566,140.0006],
    [3852,1525542017,57.3503,-111.7553,641.9,345.9,269.1,1.6,3.9,10.96,50.72,697.9837,140.0043],
    [3853,1525542018,57.3504,-111.7563,643.1,347.1,268.7,1.7,4.1,10.8,51.01,697.8472,140.0003],
    [3854,1525542019,57.3504,-111.7572,644.8,348.8,267.9,1.7,4.7,10.82,50.93,697.8148,139.995],
    [3855,1525542020,57.3504,-111.7583,647.2,352.2,267.7,2.0,4.4,10.71,50.96,697.6723,139.999],
    [3856,1525542021,57.3504,-111.7594,649.4,354.4,267.8,1.6,4.0,10.88,51.12,697.5064,139.9981],
    [3857,1525542022,57.3504,-111.7603,651.4,356.4,267.0,1.0,4.7,10.86,50.58,697.4372,139.998],
    [3858,1525542023,57.3505,-111.7613,653.3,357.3,266.2,1.0,5.0,11.61,50.32,697.4171,139.9978],
    [3859,1525542024,57.3505,-111.7622,654.4,358.4,266.7,0.9,3.9,10.87,51.03,697.2932,140.0036],
    [3860,1525542025,57.3505,-111.7633,655.9,359.9,266.4,0.9,3.5,10.34,50.4,697.2168,139.9904],
    [3861,1525542026,57.3505,-111.7643,657.4,362.1,264.6,0.7,4.7,10.89,50.38,697.0666,139.9921],
    [3862,1525542027,57.3504,-111.7652,658.3,364.3,264.1,1.1,4.7,10.82,50.7,697.0309,140.0002],
    [3863,1525542028,57.3504,-111.7661,658.9,366.9,264.0,1.3,4.7,10.93,49.84,697.0616,140.0007],
    [3864,1525542029,57.3504,-111.7672,659.8,369.8,264.4,0.8,4.2,11.52,50.08,697.0829,139.9981],
    [3865,1525542030,57.3504,-111.7683,661.4,370.4,265.9,0.3,2.9,10.89,50.84,697.2094,140.002],
    [3866,1525542031,57.3504,-111.7692,663.2,370.5,266.1,0.6,3.3,10.92,51.15,697.3018,140.0014],
    [3867,1525542032,57.3504,-111.7703,663.9,369.9,264.3,1.2,5.3,10.95,51.49,697.3277,140.0029],
    [3868,1525542033,57.3504,-111.7713,663.5,367.5,264.5,1.0,5.3,10.7,51.73,697.1755,139.9984],
    [3869,1525542034,57.3504,-111.7723,663.3,366.3,265.5,0.3,4.7,10.75,51.94,697.0512,139.9948],
    [3870,1525542035,57.3504,-111.7732,662.7,364.6,265.9,0.7,4.7,10.55,51.73,696.8166,139.9895],
    [3871,1525542036,57.3504,-111.7743,660.9,363.0,267.0,1.6,3.8,10.53,52.06,696.7801,139.9943],
    [3872,1525542037,57.3504,-111.7751,660.1,361.1,267.7,1.2,3.3,10.75,51.82,696.6221,140.0056],
    [3873,1525542038,57.3504,-111.7762,661.0,361.0,266.7,1.1,4.3,10.82,52.1,696.4631,139.9984],
    [3874,1525542039,57.3504,-111.7773,662.9,361.8,266.9,2.1,4.0,10.93,52.32,696.2849,140.0038],
    [3875,1525542040,57.3504,-111.7783,664.8,363.8,266.8,3.0,3.6,10.38,51.66,696.1784,140.0013],
    [3876,1525542041,57.3504,-111.7793,666.4,364.4,267.2,3.2,2.9,10.52,51.69,696.1034,139.9978],
    [3877,1525542042,57.3504,-111.7803,667.9,364.9,265.7,3.1,3.4,11.38,51.2,696.1381,140.006],
    [3878,1525542043,57.3504,-111.7813,669.8,365.8,264.7,3.0,2.5,11.21,51.4,696.4408,140.0081],
    [3879,1525542044,57.3503,-111.7821,671.3,366.3,262.8,3.1,2.0,10.8,52.06,696.5312,140.0067],
    [3880,1525542045,57.3503,-111.7831,673.0,367.9,258.1,3.1,2.9,10.75,51.46,696.7622,140.0021],
    [3881,1525542046,57.3501,-111.7843,674.2,368.7,251.9,2.9,3.9,10.66,51.19,696.7703,140.0061],
    [3882,1525542047,57.35,-111.7852,674.1,369.0,247.1,2.2,4.2,10.79,51.02,696.8421,140.0008],
    [3883,1525542048,57.3498,-111.7861,672.6,367.5,242.1,1.5,3.8,10.56,50.87,696.8751,139.9975],
    [3884,1525542049,57.3495,-111.7869,670.4,368.1,235.4,0.6,3.8,10.86,50.27,696.9634,140.0036],
    [3885,1525542050,57.3492,-111.7877,668.0,367.7,228.7,-0.4,4.1,10.45,50.47,696.8694,140.0047],
    [3886,1525542051,57.3489,-111.7885,666.1,368.1,222.6,-0.9,4.4,10.85,49.8,696.7456,139.994],
    [3887,1525542052,57.3485,-111.7892,665.4,367.1,217.8,-1.0,4.1,10.74,50.25,696.6302,139.996],
    [3888,1525542053,57.348,-111.7898,665.5,366.5,215.0,-0.3,3.3,11.02,49.96,696.4803,139.9959],
    [3889,1525542054,57.3477,-111.7903,665.2,365.2,212.5,0.6,2.4,10.84,50.49,696.5066,139.9976],
    [3890,1525542055,57.3472,-111.7908,665.8,365.8,206.9,0.9,2.6,11.28,50.51,696.8019,140.0099],
    [3891,1525542056,57.3467,-111.7912,667.0,367.0,201.3,1.5,3.2,10.43,51.33,696.8113,139.9961],
    [3892,1525542057,57.3462,-111.7916,668.7,368.7,196.4,2.2,3.1,10.36,51.11,696.7931,140.0045],
    [3893,1525542058,57.3456,-111.7918,669.7,369.7,191.4,1.2,3.0,10.4,51.52,696.8558,139.9919],
    [3894,1525542059,57.3451,-111.7919,668.8,368.7,186.9,-0.3,3.2,10.27,50.98,696.8101,140.0033],
    [3895,1525542060,57.3446,-111.792,666.6,365.6,183.3,-0.6,2.7,10.53,50.86,696.8067,140.0037],
    [3896,1525542061,57.344,-111.7921,665.5,363.8,181.0,-0.3,2.5,11.01,50.71,696.8813,140.0045],
    [3897,1525542062,57.3435,-111.7921,665.5,363.2,180.5,0.0,3.0,10.6,51.01,696.8307,139.9987],
    [3898,1525542063,57.343,-111.7921,665.6,361.6,183.0,2.5,3.6,10.85,50.77,696.6795,140.0023],
    [3899,1525542064,57.3424,-111.7921,665.7,360.0,184.5,3.2,3.4,10.8,50.83,696.6905,139.9961],
    [3900,1525542065,57.3418,-111.7921,665.7,358.6,183.5,1.6,3.0,10.86,50.69,696.6747,139.9945],
    [3901,1525542066,57.3413,-111.7922,665.6,357.6,183.4,1.3,3.1,10.49,50.35,696.6424,140.003],
    [3902,1525542067,57.3407,-111.7922,665.8,356.8,182.3,1.1,2.9,10.87,50.34,696.6434,140.0074],
    [3903,1525542068,57.3403,-111.7922,666.6,357.6,180.2,0.3,3.1,10.85,49.84,696.4937,139.999],
    [3904,1525542069,57.3397,-111.7922,667.4,358.4,179.0,0.8,3.3,10.88,49.77,696.4955,139.9967],
    [3905,1525542070,57.3391,-111.7922,667.5,358.5,179.0,1.8,3.6,10.65,49.9,696.4186,140.0056],
    [3906,1525542071,57.3386,-111.7921,667.3,358.3,178.2,1.4,3.8,10.3,49.94,696.4212,140.004],
    [3907,1525542072,57.338,-111.7921,667.4,358.4,178.1,1.7,3.5,11.06,49.35,696.4717,139.9962],
    [3908,1525542073,57.3374,-111.792,668.3,359.3,179.1,2.6,3.0,10.75,49.44,696.6386,139.9968],
    [3909,1525542074,57.3369,-111.7919,669.3,360.2,179.4,2.5,3.3,11.3,49.03,696.6864,139.9971],
    [3910,1525542075,57.3363,-111.7919,670.1,360.1,180.3,2.5,3.6,11.45,48.83,696.5334,139.9951],
    [3911,1525542076,57.3358,-111.7919,670.3,360.3,179.9,1.8,3.3,11.02,49.21,696.4166,140.0012],
    [3912,1525542077,57.3353,-111.7918,669.8,359.8,181.4,2.9,2.8,10.64,49.29,696.3934,139.9945],
    [3913,1525542078,57.3347,-111.7918,668.5,358.8,181.8,2.6,3.3,10.82,49.13,696.5068,139.9964],
    [3914,1525542079,57.3341,-111.7918,667.3,358.9,182.2,1.9,3.8,10.99,48.51,696.6177,140.0082],
    [3915,1525542080,57.3336,-111.7918,668.1,361.6,182.6,0.9,3.5,10.73,48.92,696.5088,140.0071],
    [3916,1525542081,57.333,-111.7919,670.1,365.4,182.4,0.0,3.5,10.62,49.28,696.1361,139.9934],
    [3917,1525542082,57.3325,-111.7919,670.6,366.0,183.4,0.8,2.9,10.82,49.26,696.0625,140.0042],
    [3918,1525542083,57.332,-111.792,670.1,364.1,183.9,1.6,2.9,10.4,49.62,695.881,139.9907],
    [3919,1525542084,57.3313,-111.792,669.0,360.0,184.9,3.0,3.2,10.78,50.03,695.8986,139.9947],
    [3920,1525542085,57.3308,-111.7921,669.7,359.7,184.0,2.4,3.4,10.6,49.81,696.2241,139.9969],
    [3921,1525542086,57.3302,-111.7921,672.6,362.6,182.7,1.8,3.8,10.73,49.57,696.5781,140.0118],
    [3922,1525542087,57.3297,-111.7921,674.7,364.7,182.6,1.7,3.6,10.31,49.46,696.7878,139.9992],
    [3923,1525542088,57.3292,-111.7921,675.7,365.7,180.8,0.7,4.5,11.28,49.18,697.0041,139.9875],
    [3924,1525542089,57.3286,-111.7921,676.2,366.2,181.1,3.0,4.8,10.85,49.34,697.2104,139.9933],
    [3925,1525542090,57.3281,-111.7921,674.7,364.7,180.1,4.2,4.3,10.86,50.04,697.5537,139.9973],
    [3926,1525542091,57.3275,-111.7919,671.7,361.7,172.9,1.5,3.5,10.76,49.29,698.1613,139.9924],
    [3927,1525542092,57.327,-111.7918,668.6,358.6,167.2,0.7,3.7,10.99,49.94,698.8248,139.9971],
    [3928,1525542093,57.3265,-111.7914,665.1,355.1,159.9,0.2,4.9,10.93,49.85,699.2185,140.0048],
    [3929,1525542094,57.326,-111.791,662.3,352.3,154.3,0.3,4.8,10.84,50.01,699.4486,140.0027],
    [3930,1525542095,57.3255,-111.7905,657.9,347.9,149.4,0.3,5.3,10.91,50.32,699.9867,139.9974],
    [3931,1525542096,57.325,-111.7898,652.2,342.2,142.2,-1.6,4.8,10.54,49.97,700.3368,139.9976],
    [3932,1525542097,57.3246,-111.7891,646.2,336.2,136.3,-1.2,4.6,10.73,50.12,700.9762,140.0044],
    [3933,1525542098,57.3242,-111.7883,639.3,330.0,130.1,-1.0,4.2,10.9,50.81,701.1599,140.0043],
    [3934,1525542099,57.3239,-111.7873,633.8,324.8,123.1,-0.5,3.2,11.49,50.33,701.3574,139.9987],
    [3935,1525542100,57.3236,-111.7864,629.2,321.2,118.5,0.8,3.1,11.06,50.62,701.3018,139.9988],
    [3936,1525542101,57.3233,-111.7853,623.6,315.6,112.9,0.2,1.8,11.05,50.75,701.2589,139.9962],
    [3937,1525542102,57.3231,-111.7843,618.0,311.0,107.8,-0.8,1.5,10.89,50.93,701.2355,139.9982],
    [3938,1525542103,57.323,-111.7831,613.5,307.2,104.9,0.0,2.7,11.13,50.88,701.2681,139.9988],
    [3939,1525542104,57.3228,-111.7819,611.4,305.7,101.6,0.5,2.2,11.41,50.88,701.3707,140.0038],
    [3940,1525542105,57.3228,-111.7808,611.3,306.3,98.3,0.3,1.0,11.61,50.61,701.522,139.9968],
    [3941,1525542106,57.3227,-111.7797,611.8,307.8,97.0,-0.2,1.6,10.9,50.66,701.664,140.0037],
    [3942,1525542107,57.3226,-111.7786,612.4,309.4,96.0,-0.6,2.1,11.39,50.36,701.9618,140.0004],
    [3943,1525542108,57.3226,-111.7773,612.2,309.2,96.3,0.0,3.4,11.69,49.69,702.135,140.0002],
    [3944,1525542109,57.3225,-111.7762,611.2,309.2,96.0,0.6,3.0,10.86,50.17,702.1811,140.0026],
    [3945,1525542110,57.3225,-111.7751,609.9,308.9,95.4,0.8,3.0,10.73,49.95,702.1686,139.9982],
    [3946,1525542111,57.3225,-111.774,608.0,307.0,95.5,1.3,3.0,11.3,49.92,702.0852,139.9929],
    [3947,1525542112,57.3225,-111.7727,605.3,305.3,95.1,2.1,3.0,11.04,50.16,702.034,139.9983],
    [3948,1525542113,57.3224,-111.7715,602.9,302.9,95.6,2.4,3.3,10.98,49.5,702.0247,140.0007],
    [3949,1525542114,57.3224,-111.7704,601.9,301.8,95.4,1.8,3.1,11.45,49.66,702.0574,140.0009],
    [3950,1525542115,57.3224,-111.7691,602.0,303.0,96.7,1.0,4.9,11.49,49.44,702.0356,140.0016],
    [3951,1525542116,57.3223,-111.7679,602.4,303.4,97.0,0.1,5.5,11.69,49.62,701.9682,140.0013],
    [3952,1525542117,57.3223,-111.7668,603.0,305.0,96.4,-0.4,4.8,10.73,49.57,701.9541,139.9982],
    [3953,1525542118,57.3223,-111.7656,603.4,305.4,96.3,-0.2,4.8,11.27,49.56,702.002,140.0035],
    [3954,1525542119,57.3223,-111.7645,603.5,305.5,96.5,-0.3,5.2,11.38,49.86,701.8841,140.0038],
    [3955,1525542120,57.3222,-111.7634,603.2,304.2,95.7,-0.5,4.6,11.28,49.96,701.5822,140.0013],
    [3956,1525542121,57.3222,-111.7622,603.9,303.9,94.7,0.1,3.9,11.13,49.98,701.528,140.0013],
    [3957,1525542122,57.3222,-111.761,604.2,303.2,94.0,0.1,4.0,10.97,50.01,701.504,139.9992],
    [3958,1525542123,57.3222,-111.7599,604.0,303.0,92.4,0.1,2.9,12.06,49.63,701.6481,139.9991],
    [3959,1525542124,57.3222,-111.7586,604.9,302.9,90.1,0.3,1.6,11.89,49.54,701.6866,140.0069],
    [3960,1525542125,57.3222,-111.7575,607.2,305.2,90.4,0.6,2.5,11.53,49.75,701.7225,139.9998],
    [3961,1525542126,57.3222,-111.7564,609.4,307.4,90.3,0.9,2.3,11.06,50.19,701.8207,140.0048],
    [3962,1525542127,57.3222,-111.7554,610.0,308.0,90.3,0.6,2.3,11.14,50.38,701.8846,139.9974],
    [3963,1525542128,57.3223,-111.7541,609.6,307.6,91.4,0.6,2.9,11.59,49.79,702.017,140.0007],
    [3964,1525542129,57.3223,-111.7529,608.3,306.4,91.3,0.9,2.0,11.34,50.37,702.1574,140.0044],
    [3965,1525542130,57.3223,-111.752,607.7,305.9,92.1,1.3,2.2,11.55,50.22,702.2913,140.0004],
    [3966,1525542131,57.3223,-111.7507,607.0,306.1,94.0,1.7,3.3,11.43,50.19,702.455,140.0022],
    [3967,1525542132,57.3223,-111.7494,606.3,306.2,94.1,1.7,3.3,11.38,49.89,702.3264,139.9999],
    [3968,1525542133,57.3222,-111.7483,605.2,306.1,93.7,1.6,3.0,11.03,49.7,702.0939,139.9988],
    [3969,1525542134,57.3222,-111.7471,603.6,305.6,92.1,1.6,2.0,11.2,49.97,702.047,139.9979],
    [3970,1525542135,57.3222,-111.7461,601.7,304.9,91.7,1.6,2.3,11.36,50.25,701.9229,140.0014],
    [3971,1525542136,57.3222,-111.7448,599.9,304.1,91.4,1.4,2.4,11.36,49.94,701.8356,139.9981],
    [3972,1525542137,57.3222,-111.7437,600.5,306.5,90.9,1.3,2.1,11.28,49.5,701.7247,140.0008],
    [3973,1525542138,57.3223,-111.7426,602.9,309.9,90.9,1.5,2.4,11.88,48.88,701.6679,139.9987],
    [3974,1525542139,57.3223,-111.7414,604.8,311.8,90.2,1.8,1.9,10.97,49.51,701.6344,140.0034],
    [3975,1525542140,57.3223,-111.7403,605.8,313.8,90.7,2.0,2.7,10.88,49.29,701.5887,140.001],
    [3976,1525542141,57.3223,-111.7391,606.7,315.7,91.1,1.9,3.6,11.23,49.15,701.4366,140.0018],
    [3977,1525542142,57.3223,-111.738,607.6,317.6,90.0,1.7,3.4,11.77,48.69,701.14,140.0],
    [3978,1525542143,57.3224,-111.7369,608.8,319.8,88.2,1.6,3.7,11.21,49.0,700.9392,139.9994],
    [3979,1525542144,57.3224,-111.7357,609.7,321.5,84.6,1.8,3.4,11.44,48.91,700.6912,139.9962],
    [3980,1525542145,57.3225,-111.7346,610.7,322.7,79.4,2.2,2.4,11.8,47.57,700.4681,139.9954],
    [3981,1525542146,57.3227,-111.7335,612.2,325.2,74.3,2.5,2.4,11.68,47.92,700.3947,139.9988],
    [3982,1525542147,57.3229,-111.7325,614.5,327.5,68.6,3.0,2.2,10.88,47.69,700.3498,139.9904],
    [3983,1525542148,57.3232,-111.7315,617.7,331.4,62.5,3.5,1.8,11.25,47.43,700.4048,139.9921],
    [3984,1525542149,57.3235,-111.7305,621.0,335.0,57.6,3.3,2.3,11.38,47.64,700.8065,139.9973],
    [3985,1525542150,57.3238,-111.7296,624.0,338.0,52.9,3.8,2.3,11.17,47.04,701.1668,140.0002],
    [3986,1525542151,57.3242,-111.7288,625.9,339.9,48.6,4.4,2.4,11.04,46.83,701.2894,139.997],
    [3987,1525542152,57.3246,-111.7279,626.2,340.2,45.4,3.4,2.9,11.36,46.88,701.6499,139.9953],
    [3988,1525542153,57.325,-111.7272,624.6,338.6,42.9,1.9,3.0,11.81,46.51,702.2422,139.9941],
    [3989,1525542154,57.3255,-111.7265,621.6,336.6,38.7,2.2,2.6,11.42,47.42,702.6008,140.0012],
    [3990,1525542155,57.3259,-111.7258,617.8,332.8,33.6,2.7,2.6,11.29,46.89,702.8259,139.9993],
    [3991,1525542156,57.3265,-111.7252,613.8,328.8,30.0,2.5,3.0,11.3,47.08,703.2036,139.9993],
    [3992,1525542157,57.327,-111.7246,609.5,325.5,26.5,2.5,2.5,11.36,47.06,703.507,140.0007],
    [3993,1525542158,57.3276,-111.7241,604.4,320.4,23.1,2.8,2.4,11.27,47.18,703.5626,140.0051],
    [3994,1525542159,57.3281,-111.7237,599.5,316.5,20.3,2.3,2.8,11.17,47.18,704.0117,140.0037],
    [3995,1525542160,57.3287,-111.7233,595.3,312.3,18.0,1.7,2.9,11.6,46.87,704.1604,140.002],
    [3996,1525542161,57.3293,-111.723,591.2,309.2,14.8,1.6,2.9,10.85,47.43,704.4747,139.9981],
    [3997,1525542162,57.33,-111.7227,588.3,306.3,12.8,0.7,2.8,11.44,47.48,704.7977,140.0011],
    [3998,1525542163,57.3306,-111.7224,585.2,304.2,10.5,0.5,2.3,11.85,47.09,704.834,140.0028],
    [3999,1525542164,57.3312,-111.7222,582.2,302.2,8.4,0.2,2.8,11.34,47.98,704.7583,139.9969],
    [4000,1525542165,57.3319,-111.7221,579.1,301.0,6.5,-0.1,3.4,11.2,47.77,704.7123,140.0065],
    [4001,1525542166,57.3325,-111.722,575.9,300.2,4.2,0.4,3.4,11.35,47.76,704.663,139.9977],
    [4002,1525542167,57.3332,-111.7219,572.3,302.4,361.2,1.5,3.6,11.54,47.51,704.7951,139.9945],
    [4003,1525542168,57.3338,-111.7219,571.0,302.6,360.5,1.2,3.6,11.31,48.41,704.8353,140.0004],
    [4004,1525542169,57.3345,-111.7218,571.5,305.9,361.1,0.1,3.4,11.03,48.75,704.9276,140.0045],
    [4005,1525542170,57.335,-111.7218,572.3,306.7,361.6,-0.4,3.2,11.21,49.05,705.0062,140.0024],
    [4006,1525542171,57.3358,-111.7218,572.5,306.6,361.4,-0.2,3.1,11.33,49.26,704.9724,140.0052],
    [4007,1525542172,57.3365,-111.7218,572.1,304.1,361.6,-0.6,3.2,11.34,49.11,704.936,140.0003],
    [4008,1525542173,57.3371,-111.7217,571.3,301.7,361.3,-0.2,3.5,11.45,49.19,704.8619,139.9982],
    [4009,1525542174,57.3377,-111.7217,570.5,299.6,360.9,0.7,3.8,11.88,48.68,704.7299,140.0044],
    [4010,1525542175,57.3383,-111.7217,569.5,298.5,361.1,0.8,4.2,11.42,49.72,704.4498,139.9985],
    [4011,1525542176,57.339,-111.7216,568.9,300.7,361.0,1.5,4.2,11.84,49.02,704.3281,140.0035],
    [4012,1525542177,57.3397,-111.7216,569.6,303.3,361.4,0.7,3.7,11.2,49.06,704.0334,140.005],
    [4013,1525542178,57.3404,-111.7216,570.5,304.1,2.9,-0.6,3.6,11.43,48.84,703.8545,139.996],
    [4014,1525542179,57.341,-111.7215,571.8,305.5,361.7,1.2,3.4,11.59,48.6,703.6132,140.0078],
    [4015,1525542180,57.3417,-111.7215,574.1,307.8,361.5,1.4,3.0,11.69,48.67,703.3114,140.0],
    [4016,1525542181,57.3423,-111.7214,576.7,310.8,362.0,0.6,3.1,11.41,49.03,702.9789,140.0066],
    [4017,1525542182,57.343,-111.7214,580.1,312.1,360.6,0.5,3.0,11.77,48.35,702.9053,140.0002],
    [4018,1525542183,57.3436,-111.7214,583.1,311.6,357.7,0.8,2.5,11.35,48.35,702.6716,140.0029],
    [4019,1525542184,57.3442,-111.7214,585.8,309.6,353.2,1.8,2.8,11.27,48.31,702.5395,140.004],
    [4020,1525542185,57.3448,-111.7216,589.2,310.3,348.9,1.6,3.2,11.68,48.01,702.1955,140.0001],
    [4021,1525542186,57.3454,-111.7218,591.9,312.9,344.3,2.3,3.5,11.28,47.95,702.1004,140.0005],
    [4022,1525542187,57.346,-111.7221,594.6,314.6,339.4,2.4,3.2,11.02,47.9,701.8031,139.9969],
    [4023,1525542188,57.3465,-111.7224,596.9,317.9,335.9,2.2,2.3,11.37,48.38,701.7126,140.001],
    [4024,1525542189,57.3471,-111.7229,599.0,320.0,332.4,0.9,1.8,11.48,48.34,701.7964,139.9967],
    [4025,1525542190,57.3476,-111.7234,601.4,322.4,328.2,0.1,2.0,11.07,48.31,701.9228,140.0112],
    [4026,1525542191,57.3481,-111.724,604.4,324.4,322.9,0.7,2.2,11.05,48.31,702.4449,140.0155],
    [4027,1525542192,57.3485,-111.7247,606.8,327.1,317.1,1.7,2.5,11.58,48.05,702.5228,140.0128],
    [4028,1525542193,57.349,-111.7254,608.4,329.1,312.1,1.8,2.6,10.98,48.29,702.7542,140.0037],
    [4029,1525542194,57.3494,-111.7262,607.7,329.0,307.9,2.2,2.7,11.27,48.78,702.6614,139.9868],
    [4030,1525542195,57.3497,-111.727,605.0,328.0,301.1,3.9,3.7,11.41,48.35,702.6619,140.0093],
    [4031,1525542196,57.35,-111.7278,602.3,327.0,296.4,3.4,3.9,11.36,48.24,702.6242,140.0032],
    [4032,1525542197,57.3503,-111.7288,598.9,323.9,289.7,2.2,4.6,11.4,48.56,702.7225,139.9999],
    [4033,1525542198,57.3505,-111.7298,596.6,324.7,284.6,1.9,4.6,11.48,48.94,702.5903,139.9988],
    [4034,1525542199,57.3507,-111.7308,596.9,324.8,281.2,1.7,4.0,11.89,48.46,702.5233,139.9995],
    [4035,1525542200,57.3508,-111.7318,597.2,324.4,277.7,1.1,4.8,11.32,48.69,702.2805,139.9953],
    [4036,1525542201,57.3509,-111.7328,597.2,323.2,273.7,0.8,6.1,11.04,49.35,702.2374,139.9926],
    [4037,1525542202,57.351,-111.7338,597.1,322.0,272.0,0.8,5.4,11.53,49.14,702.1685,140.001],
    [4038,1525542203,57.351,-111.7349,597.4,322.1,271.4,1.2,4.1,11.32,49.45,702.158,140.0007],
    [4039,1525542204,57.3511,-111.7359,598.1,321.8,268.7,1.6,4.8,11.6,49.51,702.0863,140.0027],
    [4040,1525542205,57.3511,-111.7369,599.8,322.6,266.9,1.9,5.3,11.24,49.87,702.0286,140.0034],
    [4041,1525542206,57.3511,-111.7379,601.5,323.3,267.0,2.5,4.3,11.35,50.57,701.9322,140.003],
    [4042,1525542207,57.3511,-111.7389,602.0,321.4,267.1,2.6,3.8,11.05,50.27,701.7347,139.9984],
    [4043,1525542208,57.3511,-111.74,602.9,320.8,267.3,1.7,3.1,10.93,50.07,701.613,139.9929],
    [4044,1525542209,57.3511,-111.741,603.6,320.6,268.1,1.3,2.5,11.14,50.45,701.6394,139.9992],
    [4045,1525542210,57.3511,-111.742,604.5,320.5,266.6,1.7,3.4,11.38,50.19,701.6769,140.0006],
    [4046,1525542211,57.3511,-111.743,605.7,320.7,265.3,1.3,3.3,11.08,50.23,701.8167,139.9947],
    [4047,1525542212,57.3511,-111.7441,607.5,321.5,263.1,1.1,3.7,11.3,50.07,701.9139,139.9992],
    [4048,1525542213,57.351,-111.7451,608.8,321.8,261.2,1.2,4.2,11.22,50.27,702.0299,140.0038],
    [4049,1525542214,57.351,-111.7461,609.2,322.2,260.8,1.0,3.8,11.62,50.11,701.8387,140.0074],
    [4050,1525542215,57.3509,-111.7471,608.4,320.3,259.3,0.4,5.0,11.3,50.38,701.5421,139.9921],
    [4051,1525542216,57.3509,-111.748,607.1,318.1,259.3,0.8,5.1,11.79,50.44,701.5579,139.9974],
    [4052,1525542217,57.3508,-111.7491,606.1,316.0,261.3,0.8,3.7,10.94,50.28,701.5899,140.0006],
    [4053,1525542218,57.3508,-111.7501,605.5,314.5,263.2,0.3,2.4,11.32,50.62,701.7019,139.9931],
    [4054,1525542219,57.3507,-111.7512,607.0,314.8,263.3,0.2,3.3,11.28,51.26,701.659,140.0005],
    [4055,1525542220,57.3507,-111.7522,609.2,316.1,263.4,0.3,3.7,10.79,50.94,701.5958,140.001],
    [4056,1525542221,57.3507,-111.7532,610.0,316.0,265.0,-0.2,3.0,11.32,50.6,701.4183,139.9892],
    [4057,1525542222,57.3506,-111.7542,609.7,314.7,265.1,-0.5,3.5,11.79,50.49,701.2693,139.9976],
    [4058,1525542223,57.3506,-111.7553,608.9,312.9,266.5,0.0,2.9,11.77,50.89,701.1553,140.0023],
    [4059,1525542224,57.3506,-111.7563,608.8,312.8,266.8,0.2,3.3,11.93,50.57,701.1694,139.9951],
    [4060,1525542225,57.3506,-111.7574,609.3,314.3,266.3,0.2,3.9,11.67,51.46,701.1042,140.0091],
    [4061,1525542226,57.3506,-111.7584,611.1,316.1,266.8,0.7,3.6,11.31,51.51,701.0554,140.0024],
    [4062,1525542227,57.3506,-111.7594,612.9,317.9,266.6,1.3,4.0,11.41,51.47,700.954,139.994],
    [4063,1525542228,57.3506,-111.7604,614.2,319.2,265.6,1.2,4.5,11.29,51.69,700.863,140.0049],
    [4064,1525542229,57.3506,-111.7614,614.6,319.7,266.5,1.3,3.4,11.01,51.08,700.8551,139.9961],
    [4065,1525542230,57.3506,-111.7624,614.5,318.8,266.6,1.2,3.5,11.42,50.98,700.8752,139.9951],
    [4066,1525542231,57.3506,-111.7635,615.3,319.6,265.2,1.7,4.5,11.34,50.16,701.0361,139.9979],
    [4067,1525542232,57.3506,-111.7646,616.7,322.0,266.1,2.5,3.6,10.98,50.13,701.23,139.9969],
    [4068,1525542233,57.3506,-111.7656,617.6,325.2,264.3,2.3,5.2,11.29,49.85,701.4729,140.006],
    [4069,1525542234,57.3506,-111.7666,618.0,327.1,264.1,2.0,5.2,11.07,49.94,701.633,140.0037],
    [4070,1525542235,57.3506,-111.7677,617.8,327.9,265.3,1.8,4.2,11.34,49.81,701.652,140.0029],
    [4071,1525542236,57.3506,-111.7687,616.7,324.7,266.4,1.5,3.6,10.92,49.98,701.6766,140.0],
    [4072,1525542237,57.3506,-111.7698,614.2,320.0,266.6,1.8,3.8,11.26,49.95,701.7961,139.9993],
    [4073,1525542238,57.3506,-111.7708,611.8,316.8,265.9,1.9,4.4,11.64,49.52,701.8395,139.9972],
    [4074,1525542239,57.3506,-111.7718,609.8,313.0,265.4,1.4,4.4,11.01,49.79,701.8735,139.9997],
    [4075,1525542240,57.3506,-111.7728,608.7,311.7,265.4,1.0,4.0,11.41,49.66,701.8221,140.0083],
    [4076,1525542241,57.3505,-111.7739,608.3,310.3,265.1,0.7,4.2,11.54,49.64,701.8293,139.9935],
    [4077,1525542242,57.3505,-111.7749,607.8,308.8,264.9,0.7,4.5,11.29,50.32,701.7837,139.999],
    [4078,1525542243,57.3505,-111.776,606.7,307.0,264.8,1.1,4.3,10.79,49.82,701.7924,140.0049],
    [4079,1525542244,57.3505,-111.777,606.0,306.0,265.1,1.2,3.9,11.41,50.4,701.7437,140.0023],
    [4080,1525542245,57.3505,-111.7781,606.0,305.0,264.2,0.9,4.8,11.28,49.83,701.6487,140.004],
    [4081,1525542246,57.3505,-111.7792,606.3,304.3,264.2,1.3,4.3,12.08,49.31,701.6434,140.0068],
    [4082,1525542247,57.3504,-111.7802,606.7,303.6,265.1,1.5,3.2,11.92,49.29,701.5353,140.0051],
    [4083,1525542248,57.3504,-111.7813,606.7,302.7,264.4,1.4,2.8,11.34,50.06,701.396,140.0012],
    [4084,1525542249,57.3504,-111.7823,607.0,302.0,262.5,1.5,2.5,11.36,49.31,701.2841,140.0023],
    [4085,1525542250,57.3503,-111.7834,608.2,302.5,257.7,1.6,2.7,11.02,49.42,701.2725,139.9996],
    [4086,1525542251,57.3502,-111.7844,609.4,303.9,252.8,1.4,2.9,11.43,49.08,701.3595,139.9952],
    [4087,1525542252,57.35,-111.7853,610.5,304.8,247.4,0.9,3.0,11.0,49.02,701.4173,140.0025],
    [4088,1525542253,57.3498,-111.7862,611.8,307.4,241.4,0.4,3.8,10.98,48.77,701.5318,139.9987],
    [4089,1525542254,57.3495,-111.7872,613.1,311.1,234.2,0.3,4.5,11.18,48.78,701.5585,140.0054],
    [4090,1525542255,57.3492,-111.788,613.2,313.6,229.3,0.5,4.2,11.4,48.37,701.6137,139.9958],
    [4091,1525542256,57.3489,-111.7887,612.6,314.6,224.3,1.6,4.2,11.68,48.04,701.5829,139.9976],
    [4092,1525542257,57.3484,-111.7894,611.8,313.5,218.9,2.4,4.1,11.31,48.5,701.589,140.0033],
    [4093,1525542258,57.348,-111.79,610.9,311.9,213.2,1.6,4.0,11.58,47.93,701.6398,139.9986],
    [4094,1525542259,57.3476,-111.7905,609.8,309.7,207.2,0.6,3.9,11.16,48.98,701.6302,139.9991],
    [4095,1525542260,57.3471,-111.7909,609.1,309.1,202.1,0.1,3.8,11.51,48.46,701.5029,139.9976],
    [4096,1525542261,57.3466,-111.7913,609.4,309.4,198.6,1.5,3.7,11.21,48.84,701.5082,139.9954],
    [4097,1525542262,57.346,-111.7916,609.3,309.3,194.1,1.8,3.5,11.67,48.42,701.7692,139.9962],
    [4098,1525542263,57.3455,-111.7918,608.9,308.9,188.7,0.8,3.7,10.99,49.16,701.7814,139.9955],
    [4099,1525542264,57.3451,-111.7919,608.7,308.5,184.0,0.1,4.1,11.64,48.68,701.7608,140.0009],
    [4100,1525542265,57.3445,-111.7919,609.5,308.5,180.1,-0.4,3.8,11.17,48.69,701.7362,140.0078],
    [4101,1525542266,57.3439,-111.7919,609.5,307.5,180.7,1.3,3.6,11.04,49.31,701.6855,139.9988],
    [4102,1525542267,57.3434,-111.7919,608.5,306.2,180.4,1.1,3.5,10.96,48.79,701.3188,139.9982],
    [4103,1525542268,57.3428,-111.7919,607.3,303.3,181.7,1.8,3.2,11.83,48.51,701.2861,140.0053],
    [4104,1525542269,57.3423,-111.7919,607.0,301.3,182.0,1.5,3.5,11.38,48.89,701.1267,139.9965],
    [4105,1525542270,57.3417,-111.7919,607.0,300.0,181.9,0.9,3.8,11.51,49.19,701.1003,139.9961],
    [4106,1525542271,57.3412,-111.7919,607.8,299.8,183.3,1.5,3.6,11.52,48.76,701.1979,139.9979],
    [4107,1525542272,57.3407,-111.792,610.4,301.4,183.9,1.1,4.0,11.04,49.09,701.2231,139.9971],
    [4108,1525542273,57.3401,-111.792,612.8,303.8,184.7,1.9,4.2,11.62,48.92,701.4373,140.0009],
    [4109,1525542274,57.3395,-111.7921,614.2,305.2,185.2,2.4,3.5,11.02,48.89,701.507,139.9992],
    [4110,1525542275,57.339,-111.7921,614.5,305.5,182.3,0.1,3.9,11.67,48.76,701.6286,139.9982],
    [4111,1525542276,57.3385,-111.7922,614.1,305.1,180.6,0.1,4.4,11.35,48.75,701.5721,140.0071],
    [4112,1525542277,57.3379,-111.7921,612.8,303.8,180.7,1.2,4.2,11.36,48.85,701.6458,139.9964],
    [4113,1525542278,57.3374,-111.7921,611.4,302.4,179.4,0.7,4.3,11.15,48.73,701.589,139.9985],
    [4114,1525542279,57.3368,-111.7921,610.4,300.4,179.5,1.6,3.9,11.9,48.2,701.5608,139.9991],
    [4115,1525542280,57.3363,-111.7921,609.3,299.3,180.0,2.3,3.6,11.24,48.78,701.5346,140.0037],
    [4116,1525542281,57.3358,-111.792,608.6,298.6,178.6,0.7,4.0,11.45,48.83,701.3063,139.998],
    [4117,1525542282,57.3352,-111.792,608.3,298.3,178.9,0.7,4.5,11.67,48.68,701.3015,139.9957],
    [4118,1525542283,57.3347,-111.792,608.3,298.3,179.5,0.5,4.8,11.3,48.78,701.4487,140.0009],
    [4119,1525542284,57.3341,-111.792,608.9,300.6,179.1,-0.6,5.1,11.29,48.85,701.4964,140.0069],
    [4120,1525542285,57.3336,-111.792,609.9,303.3,180.4,0.3,4.5,11.56,48.74,701.4241,140.0029],
    [4121,1525542286,57.333,-111.792,611.8,306.8,181.0,0.2,3.9,11.67,48.79,701.4471,140.0042],
    [4122,1525542287,57.3325,-111.792,613.0,308.4,182.0,1.1,4.0,11.56,49.15,701.4514,140.0034],
    [4123,1525542288,57.3319,-111.792,612.0,305.7,182.9,2.0,4.2,11.5,48.93,701.5574,140.0024],
    [4124,1525542289,57.3314,-111.792,610.8,301.8,182.6,1.9,4.1,11.66,48.76,701.5766,140.0002],
    [4125,1525542290,57.3309,-111.792,611.0,301.0,181.6,1.1,4.0,12.12,48.21,701.6273,139.9937],
    [4126,1525542291,57.3303,-111.792,611.3,301.3,181.2,1.1,4.2,11.56,48.29,701.8263,140.0033],
    [4127,1525542292,57.3298,-111.792,610.9,300.9,180.9,0.9,4.0,11.31,48.45,701.9704,140.005],
    [4128,1525542293,57.3292,-111.792,610.3,300.3,181.3,1.6,3.3,11.69,47.47,702.2962,139.9949],
    [4129,1525542294,57.3287,-111.792,610.1,300.1,181.9,3.0,2.9,11.57,47.15,702.4259,140.003],
    [4130,1525542295,57.3282,-111.792,609.8,299.8,180.9,3.5,3.2,12.13,46.71,702.7455,139.998],
    [4131,1525542296,57.3276,-111.7919,608.6,298.6,175.1,1.3,3.5,11.58,46.96,702.8489,139.9901],
    [4132,1525542297,57.3271,-111.7918,606.0,296.0,167.2,-0.6,3.3,11.56,47.67,703.1252,139.9941],
    [4133,1525542298,57.3265,-111.7915,603.2,293.2,161.7,1.1,3.8,11.97,47.14,703.5142,139.9949],
    [4134,1525542299,57.326,-111.7911,600.9,290.9,155.3,1.3,3.4,11.48,47.61,704.189,139.9947],
    [4135,1525542300,57.3256,-111.7906,598.5,288.5,147.9,0.4,2.5,11.15,47.2,704.4487,139.9914],
    [4136,1525542301,57.3251,-111.7899,595.7,285.7,141.9,1.4,3.6,11.21,47.34,705.1442,140.0011],
    [4137,1525542302,57.3247,-111.7892,592.2,282.2,136.2,0.5,3.5,12.0,46.91,705.5439,139.9945],
    [4138,1525542303,57.3244,-111.7884,586.7,276.7,129.0,-0.4,2.3,11.83,47.61,705.9694,140.0077],
    [4139,1525542304,57.324,-111.7875,581.1,272.1,123.0,-0.2,2.1,11.71,48.28,706.1522,140.0028],
    [4140,1525542305,57.3238,-111.7867,575.9,266.9,118.5,0.2,2.5,11.42,47.69,706.3964,139.9963],
    [4141,1525542306,57.3235,-111.7857,569.8,261.8,114.1,0.5,2.3,12.14,47.35,706.4052,139.9977],
    [4142,1525542307,57.3233,-111.7845,563.7,256.7,110.0,0.7,2.1,11.31,47.67,706.4339,139.999],
    [4143,1525542308,57.3232,-111.7836,559.6,252.6,107.4,0.7,2.1,11.91,47.77,706.5096,139.9984],
    [4144,1525542309,57.323,-111.7824,555.4,249.4,105.6,0.5,3.0,11.39,47.99,706.4734,139.9902],
    [4145,1525542310,57.3229,-111.7813,553.1,248.1,103.6,-0.5,3.1,11.68,48.33,706.472,139.9984],
    [4146,1525542311,57.3228,-111.7802,551.9,247.2,101.8,-0.6,2.9,11.81,48.47,706.5047,139.9921],
    [4147,1525542312,57.3227,-111.7791,551.5,247.5,101.3,0.0,4.1,11.82,47.91,706.5115,140.0017],
    [4148,1525542313,57.3226,-111.7779,551.2,248.2,99.8,0.3,4.0,11.7,48.31,706.4372,139.9983],
    [4149,1525542314,57.3225,-111.7768,550.8,248.8,97.5,-0.8,3.4,11.81,48.57,706.4924,139.9961],
    [4150,1525542315,57.3225,-111.7757,550.7,249.2,95.6,-1.9,3.2,12.54,47.74,706.3356,139.9952],
    [4151,1525542316,57.3225,-111.7745,550.8,249.8,95.6,-1.6,4.4,11.64,47.93,706.2818,139.9949],
    [4152,1525542317,57.3225,-111.7734,550.3,250.3,95.0,-1.3,4.4,11.39,48.04,706.3198,139.9909],
    [4153,1525542318,57.3224,-111.7722,550.7,250.7,94.6,-0.9,4.5,12.1,47.53,706.0922,139.9964],
    [4154,1525542319,57.3224,-111.7711,550.9,250.9,94.8,-0.5,4.7,11.89,47.97,706.0742,139.9899],
    [4155,1525542320,57.3224,-111.7699,551.8,252.8,94.5,0.0,4.4,12.07,48.46,706.0357,140.0005],
    [4156,1525542321,57.3224,-111.7688,552.7,253.7,94.2,0.4,3.9,11.97,48.12,706.0557,139.993],
    [4157,1525542322,57.3224,-111.7677,552.7,253.7,94.2,0.4,3.2,11.94,48.57,706.3294,139.9992],
    [4158,1525542323,57.3224,-111.7665,553.8,255.8,93.5,-0.5,2.5,11.57,48.45,706.5765,140.0054],
    [4159,1525542324,57.3224,-111.7654,554.8,256.8,95.9,-1.3,5.4,12.55,48.09,706.5736,139.9954],
    [4160,1525542325,57.3224,-111.7642,555.4,257.4,96.4,-1.4,5.7,11.76,48.15,706.7066,140.0016],
    [4161,1525542326,57.3223,-111.763,554.7,255.7,96.4,-1.3,5.5,12.3,47.83,706.761,139.9986],
    [4162,1525542327,57.3223,-111.7619,552.4,252.4,96.4,-1.7,4.7,12.01,48.08,706.9213,140.0056],
    [4163,1525542328,57.3223,-111.7608,550.1,249.1,95.3,-1.7,3.8,12.56,47.54,706.9168,140.0017],
    [4164,1525542329,57.3223,-111.7596,548.8,247.4,96.0,-1.6,4.7,12.18,48.17,706.7962,139.9995],
    [4165,1525542330,57.3222,-111.7584,547.4,245.4,95.4,-2.0,4.2,11.9,47.92,706.6761,140.0045],
    [4166,1525542331,57.3222,-111.7573,546.1,244.1,95.4,-1.7,4.6,11.87,48.03,706.5035,139.9965],
    [4167,1525542332,57.3222,-111.7561,545.0,243.0,94.5,-1.5,4.3,12.67,47.74,706.5426,140.0044],
    [4168,1525542333,57.3222,-111.755,545.1,243.1,94.0,-1.2,4.7,12.44,47.54,706.671,140.0014],
    [4169,1525542334,57.3222,-111.7538,546.5,244.5,93.0,-0.7,4.6,11.94,48.28,706.6265,140.0026],
    [4170,1525542335,57.3222,-111.7527,548.4,246.4,91.1,-0.9,3.7,12.43,48.02,706.6227,139.9998],
    [4171,1525542336,57.3222,-111.7515,549.6,248.6,90.2,-0.5,3.7,12.23,47.87,706.5932,140.0006],
    [4172,1525542337,57.3223,-111.7504,549.8,249.0,89.2,0.2,3.2,12.06,48.69,706.4509,139.9955],
    [4173,1525542338,57.3223,-111.7492,549.1,249.0,88.5,0.2,3.1,11.89,48.57,706.3073,139.9978],
    [4174,1525542339,57.3224,-111.748,549.1,250.0,88.7,0.3,3.1,12.35,47.9,706.5135,140.0028],
    [4175,1525542340,57.3224,-111.747,549.5,251.6,88.1,0.3,2.2,12.03,48.02,706.5417,140.0024],
    [4176,1525542341,57.3224,-111.7459,550.7,253.9,89.6,0.1,3.2,12.05,47.86,706.7003,140.0013],
    [4177,1525542342,57.3225,-111.7447,552.5,257.5,91.2,0.7,4.2,11.88,47.91,706.7659,140.0037],
    [4178,1525542343,57.3225,-111.7437,553.1,259.0,91.7,1.4,3.7,12.29,47.5,706.7151,139.9971],
    [4179,1525542344,57.3225,-111.7424,551.8,258.8,91.2,0.9,2.4,12.32,47.12,706.6789,140.0018],
    [4180,1525542345,57.3225,-111.7413,550.6,257.6,92.7,0.7,3.7,12.32,46.87,706.8688,139.9971],
    [4181,1525542346,57.3225,-111.7402,549.6,257.6,93.5,0.5,4.3,12.35,47.07,706.9509,140.0022],
    [4182,1525542347,57.3225,-111.739,549.0,258.0,93.9,1.0,4.7,11.67,47.6,707.1122,140.0015],
    [4183,1525542348,57.3225,-111.738,548.8,258.8,93.4,1.0,3.9,12.54,46.76,707.2227,139.9971],
    [4184,1525542349,57.3225,-111.7369,549.2,260.2,91.8,0.8,3.2,11.82,47.73,707.4868,140.0047],
    [4185,1525542350,57.3225,-111.7358,548.5,260.5,91.0,0.6,4.1,11.97,47.28,707.5681,139.9994],
    [4186,1525542351,57.3226,-111.7347,546.8,258.8,86.6,0.4,3.1,12.77,46.82,707.618,139.9905],
    [4187,1525542352,57.3227,-111.7335,545.5,258.5,82.2,0.8,3.8,12.49,46.69,707.6765,139.9977],
    [4188,1525542353,57.3228,-111.7325,544.0,257.0,78.1,0.9,4.2,11.67,47.05,707.7045,139.996],
    [4189,1525542354,57.323,-111.7314,541.7,255.4,71.1,1.3,2.4,12.26,46.4,707.838,140.0003],
    [4190,1525542355,57.3232,-111.7304,540.0,254.0,65.1,1.4,2.6,11.73,46.46,708.0475,139.9967],
    [4191,1525542356,57.3235,-111.7294,539.1,253.1,59.5,0.8,2.7,12.27,45.86,708.3417,139.9996],
    [4192,1525542357,57.3239,-111.7284,539.0,253.0,53.6,0.7,2.5,12.16,46.19,708.5057,139.9988],
    [4193,1525542358,57.3242,-111.7276,538.4,252.4,49.6,0.6,3.0,11.63,46.2,708.6749,139.994],
    [4194,1525542359,57.3247,-111.7268,536.6,250.9,44.4,1.1,2.4,12.0,46.19,708.9514,139.9987],
    [4195,1525542360,57.3252,-111.726,534.5,249.5,40.9,0.6,3.7,12.56,46.4,709.0456,140.0016],
    [4196,1525542361,57.3257,-111.7253,532.6,247.6,36.3,1.7,3.4,12.48,46.91,709.1955,139.9989],
    [4197,1525542362,57.3262,-111.7247,530.1,245.1,32.1,1.9,3.4,12.16,47.39,709.2648,139.9938],
    [4198,1525542363,57.3266,-111.7242,527.7,242.7,29.2,1.1,3.4,12.15,48.21,709.348,139.9965],
    [4199,1525542364,57.3273,-111.7236,524.7,240.7,24.4,1.2,3.1,12.12,47.58,709.3928,140.0019],
    [4200,1525542365,57.3279,-111.7231,522.4,239.4,20.3,0.7,3.0,12.69,47.1,709.6478,139.9991],
    [4201,1525542366,57.3285,-111.7228,520.9,238.0,17.6,-0.2,3.3,12.22,47.42,709.7549,139.9961],
    [4202,1525542367,57.3291,-111.7225,519.8,237.8,14.0,0.3,3.2,12.38,46.53,710.0459,140.0035],
    [4203,1525542368,57.3297,-111.7222,518.8,236.8,11.1,0.4,3.0,11.57,46.83,710.2733,140.006],
    [4204,1525542369,57.3303,-111.722,517.5,236.5,8.3,0.8,2.8,12.06,46.51,710.5259,140.0017],
    [4205,1525542370,57.331,-111.7219,515.5,235.6,5.9,1.6,2.8,11.71,46.22,710.5714,140.0028],
    [4206,1525542371,57.3316,-111.7217,513.2,235.4,4.6,1.6,3.0,12.46,46.34,710.5669,140.0007],
    [4207,1525542372,57.3322,-111.7216,510.6,236.2,4.2,1.1,3.5,12.11,46.52,710.5349,140.0027],
    [4208,1525542373,57.3329,-111.7215,507.7,238.3,4.1,0.6,3.9,12.0,46.28,710.4257,140.0044],
    [4209,1525542374,57.3335,-111.7215,505.4,238.4,4.3,0.2,3.8,11.98,46.73,710.3426,140.0035],
    [4210,1525542375,57.3341,-111.7214,504.0,241.0,3.3,1.2,3.4,12.09,46.65,710.2254,139.9998],
    [4211,1525542376,57.3348,-111.7213,503.7,241.7,3.6,0.2,3.4,11.74,46.09,710.1322,140.0055],
    [4212,1525542377,57.3354,-111.7212,504.1,241.1,3.2,-0.1,3.4,12.7,45.67,709.8847,139.9976],
    [4213,1525542378,57.336,-111.7212,505.0,240.3,361.0,1.0,3.5,12.46,46.0,709.8539,140.0036],
    [4214,1525542379,57.3366,-111.7212,506.2,239.8,360.2,0.7,3.5,12.08,46.35,709.834,139.9987],
    [4215,1525542380,57.3373,-111.7211,507.8,238.7,360.0,0.3,3.5,11.95,46.25,709.8512,139.9989],
    [4216,1525542381,57.3379,-111.7211,509.6,239.6,359.1,0.7,3.8,12.22,46.72,709.8786,140.0017],
    [4217,1525542382,57.3385,-111.7212,511.3,242.0,359.1,0.3,3.9,12.2,46.06,709.7165,140.0003],
    [4218,1525542383,57.3392,-111.7212,512.4,245.4,359.7,-0.3,3.5,11.82,46.28,709.4947,139.9991],
    [4219,1525542384,57.3398,-111.7212,512.7,247.8,360.0,-0.3,3.3,11.7,46.47,709.3408,139.9982],
    [4220,1525542385,57.3404,-111.7212,512.5,247.5,360.4,-0.5,3.5,11.67,46.78,709.2784,140.0039],
    [4221,1525542386,57.341,-111.7212,512.3,246.6,361.0,-0.6,3.1,12.26,47.45,709.2588,140.0032],
    [4222,1525542387,57.3416,-111.7212,513.1,247.1,360.9,-0.1,2.7,11.79,47.08,709.211,140.0105],
    [4223,1525542388,57.3422,-111.7212,515.1,249.1,360.8,-0.3,3.2,12.29,47.01,708.9042,140.0034],
    [4224,1525542389,57.3428,-111.7211,517.6,249.6,360.6,-0.9,4.0,12.07,47.15,708.7395,140.0034],
    [4225,1525542390,57.3435,-111.7212,519.2,247.6,357.4,0.7,4.0,11.8,47.22,708.4332,140.0051],
    [4226,1525542391,57.344,-111.7212,519.8,244.2,353.8,1.4,3.4,11.95,47.14,708.2809,140.0027],
    [4227,1525542392,57.3447,-111.7214,520.6,242.6,350.4,0.9,3.8,12.12,47.03,708.0065,140.0047],
    [4228,1525542393,57.3452,-111.7216,522.2,243.3,345.0,1.7,3.8,11.93,47.16,708.0578,139.9934],
    [4229,1525542394,57.3458,-111.7218,525.2,245.0,340.0,1.6,3.2,12.19,46.96,708.0783,139.9962],
    [4230,1525542395,57.3463,-111.7222,528.8,248.8,335.3,0.7,3.4,11.54,47.08,708.2291,140.011],
    [4231,1525542396,57.3469,-111.7227,531.5,252.4,329.7,1.0,4.0,11.82,47.56,708.1246,140.0038],
    [4232,1525542397,57.3473,-111.7232,533.2,254.2,322.7,2.1,4.3,12.79,47.33,708.2967,139.9978],
    [4233,1525542398,57.3478,-111.7239,534.2,254.2,316.4,2.1,4.0,12.09,48.22,708.2085,140.0008],
    [4234,1525542399,57.3482,-111.7246,534.1,255.1,312.9,1.4,1.9,12.67,47.94,708.1845,140.0023],
    [4235,1525542400,57.3486,-111.7253,533.5,254.8,307.3,1.3,3.5,12.15,48.79,708.2308,140.0009],
    [4236,1525542401,57.3489,-111.7261,532.5,253.4,300.6,1.7,5.3,12.02,48.2,708.2485,140.003],
    [4237,1525542402,57.3492,-111.727,531.5,255.8,295.7,2.4,4.0,12.17,48.13,708.2388,140.0024],
    [4238,1525542403,57.3495,-111.728,531.8,257.8,291.7,2.2,2.8,11.69,48.29,708.061,139.9939],
    [4239,1525542404,57.3497,-111.7289,532.4,259.2,287.3,1.2,3.4,11.5,48.21,708.0078,139.9984],
    [4240,1525542405,57.3499,-111.7299,532.0,260.0,283.4,0.8,3.7,12.06,48.23,707.8899,139.9986],
    [4241,1525542406,57.35,-111.7308,531.2,260.1,278.3,1.4,4.6,12.04,48.03,707.8593,140.0009],
    [4242,1525542407,57.3502,-111.7319,530.9,258.2,273.9,1.8,4.5,11.82,48.08,707.7547,140.0005],
    [4243,1525542408,57.3502,-111.7329,532.0,257.7,271.2,1.8,4.0,12.64,47.16,707.6436,139.9935],
    [4244,1525542409,57.3502,-111.7339,533.7,257.2,270.4,1.6,3.0,11.59,47.97,707.6465,139.9981],
    [4245,1525542410,57.3503,-111.7349,534.8,256.7,269.9,1.3,2.9,12.05,47.72,707.7399,140.0012],
    [4246,1525542411,57.3503,-111.7359,535.1,257.1,267.4,1.2,4.8,12.09,48.04,707.665,139.9974],
    [4247,1525542412,57.3503,-111.7369,535.8,256.8,266.0,1.1,5.2,12.07,47.89,707.7025,139.998],
    [4248,1525542413,57.3503,-111.738,537.6,257.6,266.1,1.2,4.6,12.65,47.92,707.7434,139.9965],
    [4249,1525542414,57.3503,-111.7388,538.0,257.0,266.9,1.4,3.7,12.16,48.06,707.692,140.0087],
    [4250,1525542415,57.3503,-111.7398,537.7,254.6,267.1,1.5,3.4,12.05,48.33,707.4874,139.9944],
    [4251,1525542416,57.3503,-111.741,537.5,254.6,267.1,1.3,3.3,12.01,48.21,707.5167,139.9942],
    [4252,1525542417,57.3503,-111.742,538.0,254.0,267.3,1.1,3.3,12.08,48.07,707.5601,140.0061],
    [4253,1525542418,57.3503,-111.743,537.6,252.6,267.5,1.3,2.9,11.74,48.32,707.4964,140.0093],
    [4254,1525542419,57.3503,-111.744,537.8,251.8,266.7,0.6,3.7,12.09,48.97,707.6459,139.987],
    [4255,1525542420,57.3503,-111.7451,539.2,252.2,266.1,0.1,3.4,11.93,48.47,707.668,139.9974],
    [4256,1525542421,57.3503,-111.746,539.6,252.6,267.8,-0.2,1.4,12.08,49.04,707.8405,139.9955],
    [4257,1525542422,57.3503,-111.747,539.4,251.4,266.7,-1.4,2.7,12.03,48.38,707.9691,140.0046],
    [4258,1525542423,57.3503,-111.7481,539.1,250.1,264.3,-1.8,4.7,12.16,49.14,707.8376,140.0022],
    [4259,1525542424,57.3503,-111.7491,538.7,248.6,266.6,-1.2,2.8,12.19,48.82,707.6884,139.9994],
    [4260,1525542425,57.3503,-111.7501,537.6,246.6,267.0,-0.6,3.3,11.63,49.37,707.4709,139.9965],
    [4261,1525542426,57.3503,-111.7512,535.8,243.7,267.5,0.0,3.2,11.88,49.52,707.2531,139.999],
    [4262,1525542427,57.3503,-111.7523,535.0,241.7,269.4,-0.4,1.8,12.27,49.57,706.983,139.9981],
    [4263,1525542428,57.3503,-111.7533,535.6,241.6,268.8,-0.5,2.7,12.09,49.94,706.9712,139.9979],
    [4264,1525542429,57.3503,-111.7542,537.1,242.1,267.1,0.0,4.1,11.89,49.7,706.9381,139.9962],
    [4265,1525542430,57.3503,-111.7553,539.8,243.9,267.1,-0.1,4.0,11.85,49.63,706.8713,140.0066],
    [4266,1525542431,57.3503,-111.7564,541.6,245.6,266.7,0.0,4.7,12.28,49.29,706.7867,139.9948],
    [4267,1525542432,57.3503,-111.7575,543.7,247.7,266.2,0.2,5.2,12.29,49.31,706.7122,139.9962],
    [4268,1525542433,57.3503,-111.7585,545.5,250.5,267.6,0.3,3.9,11.76,49.69,706.7219,140.0033],
    [4269,1525542434,57.3504,-111.7596,546.4,251.4,268.4,0.4,2.9,12.01,49.69,706.5992,139.9997],
    [4270,1525542435,57.3504,-111.7606,547.1,251.1,267.6,0.0,3.4,12.47,49.08,706.5099,139.9983],
    [4271,1525542436,57.3504,-111.7615,547.5,251.5,266.6,-0.5,3.9,11.4,49.67,706.5056,139.9979],
    [4272,1525542437,57.3504,-111.7626,548.4,252.4,267.0,0.9,3.5,11.97,49.6,706.4542,139.9915],
    [4273,1525542438,57.3504,-111.7637,549.0,253.0,267.3,0.8,3.3,11.74,49.36,706.495,139.9986],
    [4274,1525542439,57.3504,-111.7648,549.6,254.9,267.9,0.3,2.7,11.66,49.28,706.5808,140.0045],
    [4275,1525542440,57.3504,-111.7658,550.9,258.0,267.3,0.2,3.4,12.14,49.26,706.6028,139.9949],
    [4276,1525542441,57.3504,-111.7668,551.6,260.7,267.1,0.0,3.5,12.09,49.36,706.6932,139.9966],
    [4277,1525542442,57.3504,-111.7679,551.8,260.8,266.8,0.5,3.7,12.06,49.44,706.6504,139.9995],
    [4278,1525542443,57.3504,-111.7689,551.4,259.4,266.6,0.8,3.8,11.79,49.09,706.7163,139.9995],
    [4279,1525542444,57.3504,-111.7699,550.8,257.5,266.4,0.1,4.0,11.69,49.02,706.8842,139.9961],
    [4280,1525542445,57.3504,-111.771,550.5,254.8,266.3,-0.2,4.0,11.86,49.17,706.8874,140.0041],
    [4281,1525542446,57.3504,-111.772,549.9,252.9,266.4,-0.1,3.7,11.46,49.43,706.8122,139.9976],
    [4282,1525542447,57.3504,-111.7731,549.5,251.4,266.2,-0.5,3.5,12.06,49.52,706.7889,140.0007],
    [4283,1525542448,57.3504,-111.7741,549.0,251.0,265.4,-0.3,4.1,11.65,49.71,706.7951,140.0023],
    [4284,1525542449,57.3504,-111.7751,547.3,248.3,265.9,0.8,3.6,11.61,49.87,707.0048,139.9968],
    [4285,1525542450,57.3504,-111.7762,546.0,246.0,265.5,1.2,4.2,12.1,49.47,706.9841,140.0029],
    [4286,1525542451,57.3503,-111.7773,546.8,245.7,266.0,1.0,3.4,11.54,49.62,706.959,140.0056],
    [4287,1525542452,57.3503,-111.7784,547.4,246.5,268.2,0.4,1.4,12.49,49.02,706.9596,140.0057],
    [4288,1525542453,57.3503,-111.7794,546.6,244.6,266.2,0.5,4.1,11.8,49.02,706.8772,140.0071],
    [4289,1525542454,57.3503,-111.7805,545.5,242.5,265.0,0.3,4.4,11.95,48.59,706.7709,139.998],
    [4290,1525542455,57.3503,-111.7816,544.9,240.9,266.3,0.0,1.8,11.81,48.43,706.559,139.9991],
    [4291,1525542456,57.3503,-111.7826,545.3,240.3,263.0,-0.1,3.1,11.97,48.46,706.5025,139.9964],
    [4292,1525542457,57.3502,-111.7837,545.8,240.9,258.4,0.2,3.4,11.78,48.35,706.514,139.9997],
    [4293,1525542458,57.3501,-111.7847,546.4,240.7,252.9,0.6,2.8,11.88,48.26,706.5738,140.0039],
    [4294,1525542459,57.3499,-111.7857,548.4,243.3,245.8,0.5,3.1,12.0,48.81,706.552,139.9991],
    [4295,1525542460,57.3497,-111.7867,550.1,247.8,239.1,0.2,3.6,11.66,48.35,706.5232,140.0028],
    [4296,1525542461,57.3494,-111.7875,550.9,250.7,232.1,-0.5,4.1,11.47,48.38,706.615,139.9945],
    [4297,1525542462,57.3491,-111.7883,551.3,252.2,226.6,-0.1,3.4,12.06,48.98,706.8367,140.0001],
    [4298,1525542463,57.3487,-111.7891,550.9,252.9,221.3,0.5,2.9,11.77,48.56,707.0585,139.9966],
    [4299,1525542464,57.3483,-111.7897,550.7,251.7,214.1,-0.2,3.8,12.09,48.39,707.3282,140.0001],
    [4300,1525542465,57.3478,-111.7903,550.6,251.6,206.4,-1.2,4.1,12.3,47.88,707.6268,140.0069],
    [4301,1525542466,57.3473,-111.7907,549.9,249.9,201.1,-0.4,3.5,12.25,47.71,707.8998,139.9965],
    [4302,1525542467,57.3468,-111.791,547.9,247.9,197.2,0.1,3.9,12.36,48.16,707.8209,140.0012],
    [4303,1525542468,57.3462,-111.7913,544.5,244.5,191.4,-0.1,4.2,11.7,48.36,707.805,140.0003],
    [4304,1525542469,57.3457,-111.7915,541.0,241.0,187.4,0.3,3.6,11.99,48.35,707.7721,139.9973],
    [4305,1525542470,57.3451,-111.7916,537.5,237.5,182.3,-1.4,3.9,12.41,47.55,707.7103,139.9954],
    [4306,1525542471,57.3446,-111.7916,534.3,233.3,179.0,-1.4,3.7,11.81,47.95,707.5173,140.006],
    [4307,1525542472,57.3441,-111.7916,534.0,233.1,178.1,-0.5,3.5,11.88,48.22,707.3944,139.9953],
    [4308,1525542473,57.3434,-111.7916,534.3,232.0,177.8,-0.5,4.1,12.38,47.54,707.2893,140.0038],
    [4309,1525542474,57.3429,-111.7915,534.9,230.9,179.3,0.2,4.2,11.94,47.63,707.0748,140.0026],
    [4310,1525542475,57.3423,-111.7915,535.8,230.1,182.0,1.7,4.0,11.93,47.74,707.0025,140.0007],
    [4311,1525542476,57.3418,-111.7916,537.5,230.5,182.6,1.2,4.0,12.01,47.81,706.8263,139.9967],
    [4312,1525542477,57.3412,-111.7916,539.2,231.2,182.5,0.5,3.8,11.74,47.13,706.5929,140.0016],
    [4313,1525542478,57.3407,-111.7916,540.2,231.4,183.2,0.7,4.1,11.59,46.76,706.4949,139.9931],
    [4314,1525542479,57.3401,-111.7917,542.4,233.4,182.4,-0.7,3.5,11.79,46.68,706.503,140.0007],
    [4315,1525542480,57.3395,-111.7917,544.7,235.7,182.1,-0.6,3.7,11.99,46.71,706.4373,140.0005],
    [4316,1525542481,57.339,-111.7918,546.3,237.3,181.7,-0.6,4.3,12.66,46.45,706.314,139.9994],
    [4317,1525542482,57.3384,-111.7918,548.4,239.7,180.6,-1.2,4.9,11.89,46.49,706.341,140.0028],
    [4318,1525542483,57.3379,-111.7919,549.9,240.9,182.4,1.2,5.0,11.85,46.36,706.5113,139.9923],
    [4319,1525542484,57.3373,-111.7919,550.7,241.7,182.6,2.0,4.4,11.84,46.46,706.4686,139.9948],
    [4320,1525542485,57.3368,-111.7919,551.4,242.2,180.2,0.5,4.3,12.43,46.56,706.5558,139.994],
    [4321,1525542486,57.3363,-111.7919,552.0,242.0,177.5,-1.3,4.4,12.73,46.2,706.6471,139.9953],
    [4322,1525542487,57.3357,-111.7918,552.2,242.2,177.3,-0.2,4.0,12.57,46.51,706.9039,140.0031],
    [4323,1525542488,57.3352,-111.7918,551.3,241.3,178.2,1.3,3.6,12.78,46.41,706.9982,140.0053],
    [4324,1525542489,57.3346,-111.7917,550.2,240.5,176.4,-0.5,4.1,12.78,46.37,707.0152,139.9972],
    [4325,1525542490,57.3341,-111.7917,549.8,241.7,175.5,-1.0,4.4,12.08,46.66,707.1183,140.0073],
    [4326,1525542491,57.3335,-111.7916,549.0,243.3,179.0,2.4,4.5,11.89,46.79,707.1648,139.9985],
    [4327,1525542492,57.333,-111.7915,546.9,243.0,179.8,2.2,4.3,12.39,46.71,707.2242,139.9969],
    [4328,1525542493,57.3324,-111.7915,545.2,240.6,178.8,0.5,4.6,11.66,46.79,707.3828,140.0051],
    [4329,1525542494,57.3319,-111.7915,544.6,237.3,179.9,1.4,4.7,11.83,46.67,707.3567,140.0019],
    [4330,1525542495,57.3313,-111.7915,544.1,235.1,180.6,1.5,4.5,12.09,46.71,707.4047,139.993],
    [4331,1525542496,57.3308,-111.7914,543.3,233.3,180.7,1.1,4.0,12.21,46.74,707.5672,139.9999],
    [4332,1525542497,57.3302,-111.7914,542.7,232.7,181.5,1.5,3.8,11.53,46.67,707.8541,140.0082],
    [4333,1525542498,57.3297,-111.7915,541.5,231.5,181.8,1.5,3.4,12.28,46.64,708.1883,139.9992],
    [4334,1525542499,57.3291,-111.7915,541.1,231.1,181.4,1.2,3.3,12.27,46.88,708.4221,139.9996],
    [4335,1525542500,57.3286,-111.7915,540.5,230.5,180.8,1.7,4.1,12.14,47.46,708.5447,139.9984],
    [4336,1525542501,57.328,-111.7914,539.0,229.0,178.9,2.1,4.7,12.29,47.61,708.6261,139.9992],
    [4337,1525542502,57.3275,-111.7913,536.1,226.1,173.6,0.5,4.3,12.46,46.96,708.683,139.9989],
    [4338,1525542503,57.327,-111.7912,532.6,222.6,166.4,-1.1,3.6,12.48,47.09,709.0596,139.9949],
    [4339,1525542504,57.3265,-111.7909,530.0,220.0,160.4,-1.2,3.8,11.66,47.79,709.4216,139.9978],
    [4340,1525542505,57.326,-111.7905,528.1,218.1,155.0,-0.9,3.7,12.46,47.59,709.7197,139.9963],
    [4341,1525542506,57.3255,-111.79,527.4,217.4,148.8,-0.7,2.9,12.34,48.27,709.8414,139.9972],
    [4342,1525542507,57.325,-111.7894,526.1,216.1,142.5,-0.7,2.1,12.5,47.55,710.43,139.997],
    [4343,1525542508,57.3246,-111.7887,523.6,213.6,136.9,-1.1,2.1,11.87,47.95,710.7166,140.0005],
    [4344,1525542509,57.3242,-111.788,519.9,210.9,131.2,-1.1,2.0,12.17,48.48,710.9932,140.0003],
    [4345,1525542510,57.3239,-111.7872,516.0,207.0,125.6,-1.1,1.7,13.02,47.71,711.3577,140.0041],
    [4346,1525542511,57.3236,-111.7863,511.2,203.2,120.3,-1.2,1.7,12.19,47.97,711.5182,139.995],
    [4347,1525542512,57.3234,-111.7854,506.8,198.8,115.2,-0.7,1.8,12.49,47.55,711.6471,139.9943],
    [4348,1525542513,57.3231,-111.7844,502.7,195.7,110.1,-0.1,1.6,12.71,47.82,711.8855,139.9951],
    [4349,1525542514,57.323,-111.7834,499.3,192.3,105.9,0.5,2.0,12.17,47.96,712.1518,140.0051],
    [4350,1525542515,57.3229,-111.7824,496.2,190.2,102.2,0.6,2.0,12.97,47.36,712.4188,140.0059],
    [4351,1525542516,57.3228,-111.7813,493.2,188.2,98.4,0.1,2.0,11.96,47.58,712.4891,140.0053],
    [4352,1525542517,57.3227,-111.7803,491.1,186.1,96.9,0.5,2.9,11.83,47.33,712.5139,140.0032],
    [4353,1525542518,57.3227,-111.7792,488.5,184.5,95.5,0.8,2.6,12.28,47.32,712.532,139.9974],
    [4354,1525542519,57.3227,-111.7782,485.3,182.3,95.0,0.6,2.8,12.32,47.4,712.4999,139.9996],
    [4355,1525542520,57.3227,-111.7771,482.6,180.6,95.4,0.4,3.6,12.43,47.18,712.472,139.9943],
    [4356,1525542521,57.3226,-111.7761,481.4,179.4,95.0,0.6,3.2,12.55,47.07,712.7012,140.0049],
    [4357,1525542522,57.3226,-111.7751,480.8,179.8,94.8,0.9,3.1,12.5,46.96,712.7837,139.9967],
    [4358,1525542523,57.3226,-111.7739,480.8,179.8,95.4,0.5,3.9,12.55,47.12,712.727,140.006],
    [4359,1525542524,57.3226,-111.7728,480.7,180.7,94.9,-0.1,3.4,12.17,46.82,712.7202,140.0011],
    [4360,1525542525,57.3226,-111.7718,480.6,180.6,94.9,-0.1,3.1,12.16,46.84,712.7093,139.9992],
    [4361,1525542526,57.3225,-111.7707,479.3,179.3,96.4,0.9,4.0,12.46,46.96,712.7383,139.9975],
    [4362,1525542527,57.3225,-111.7697,477.9,178.9,96.2,1.1,3.2,12.31,46.66,712.8218,140.0031],
    [4363,1525542528,57.3225,-111.7686,477.8,178.8,94.3,1.1,1.4,13.04,46.32,712.8111,139.9996],
    [4364,1525542529,57.3224,-111.7676,478.3,179.3,94.9,1.3,2.0,12.97,46.04,712.6701,140.0038],
    [4365,1525542530,57.3224,-111.7665,478.6,180.6,96.6,1.2,3.5,12.86,46.49,712.6149,140.0026],
    [4366,1525542531,57.3224,-111.7654,478.0,180.0,96.6,1.2,3.3,13.05,46.22,712.4328,139.9948],
    [4367,1525542532,57.3223,-111.7643,476.8,178.8,95.8,0.6,2.9,12.49,46.4,712.4777,139.9971],
    [4368,1525542533,57.3223,-111.7633,477.1,178.1,96.8,0.5,4.0,12.44,46.03,712.439,139.997],
    [4369,1525542534,57.3223,-111.7623,478.4,178.4,96.4,0.9,3.6,12.26,45.75,712.4453,139.9998],
    [4370,1525542535,57.3223,-111.7614,479.4,179.4,95.6,1.0,3.1,12.16,45.61,712.35,139.9945],
    [4371,1525542536,57.3222,-111.7603,480.6,179.6,95.8,0.4,3.4,12.76,45.5,712.4652,140.0021],
    [4372,1525542537,57.3222,-111.7591,481.4,179.3,94.7,-0.1,2.6,13.17,45.3,712.5244,139.9958],
    [4373,1525542538,57.3222,-111.7581,481.8,179.8,95.1,-0.2,3.6,12.35,45.54,712.6009,140.0088],
    [4374,1525542539,57.3222,-111.757,482.0,180.0,95.1,0.1,3.7,12.64,45.91,712.6476,139.9992],
    [4375,1525542540,57.3221,-111.7559,482.2,180.2,93.5,0.6,2.2,13.32,45.07,712.5197,140.0032],
    [4376,1525542541,57.3221,-111.755,481.7,179.7,93.5,0.0,2.6,13.35,44.97,712.422,139.9916],
    [4377,1525542542,57.3221,-111.7539,480.3,178.3,93.5,0.0,2.9,12.45,45.59,712.2888,139.998],
    [4378,1525542543,57.3221,-111.7528,479.3,177.3,93.1,0.3,3.1,12.71,46.06,712.1115,139.9996],
    [4379,1525542544,57.3221,-111.7517,478.9,177.3,94.3,0.5,4.5,12.65,46.09,712.0789,139.9957],
    [4380,1525542545,57.3221,-111.7507,479.9,179.0,93.4,0.0,3.4,13.07,45.95,712.1709,139.999],
    [4381,1525542546,57.3221,-111.7496,481.3,181.1,93.8,-0.7,4.0,13.16,45.63,712.2778,140.0105],
    [4382,1525542547,57.3221,-111.7486,483.1,184.0,92.6,-0.5,2.9,12.65,45.9,712.3465,140.0005],
    [4383,1525542548,57.3221,-111.7475,484.9,185.8,91.6,-1.0,2.6,12.78,46.36,712.2523,140.0026],
    [4384,1525542549,57.3221,-111.7464,485.3,187.3,92.4,-1.1,3.8,12.37,46.16,712.0991,140.0],
    [4385,1525542550,57.3221,-111.7454,484.6,187.7,91.7,-0.7,3.3,12.71,46.31,712.0013,140.001],
    [4386,1525542551,57.3221,-111.7444,483.5,188.5,91.4,-0.3,3.2,12.69,46.35,712.0992,140.0002],
    [4387,1525542552,57.3222,-111.7433,482.6,188.6,91.5,-0.1,3.4,12.56,46.52,712.1507,140.0029],
    [4388,1525542553,57.3222,-111.7422,483.6,190.6,91.6,0.1,3.5,12.71,46.33,712.4036,139.995],
    [4389,1525542554,57.3222,-111.7412,485.1,192.1,90.9,0.0,3.0,12.73,46.42,712.5314,140.0043],
    [4390,1525542555,57.3222,-111.7401,486.5,194.5,90.7,0.3,3.3,12.75,46.35,712.6565,140.0024],
    [4391,1525542556,57.3222,-111.739,486.2,195.2,90.7,0.7,3.7,12.77,46.33,712.7672,140.0033],
    [4392,1525542557,57.3223,-111.7379,485.2,195.2,89.9,1.3,3.2,12.94,46.4,712.8045,140.0002],
    [4393,1525542558,57.3223,-111.7368,483.5,194.5,88.7,1.5,2.3,12.74,46.31,712.8214,140.0008],
    [4394,1525542559,57.3223,-111.7358,481.5,193.3,87.3,1.5,1.8,12.95,46.02,712.7099,139.9999],
    [4395,1525542560,57.3224,-111.7346,479.7,191.7,85.6,1.4,1.7,12.75,46.14,712.644,139.9956],
    [4396,1525542561,57.3225,-111.7336,478.7,191.7,84.4,1.4,2.8,12.54,46.29,712.3592,139.9917],
    [4397,1525542562,57.3225,-111.7325,478.0,191.0,82.5,1.5,3.9,12.8,45.81,712.1832,140.0005],
    [4398,1525542563,57.3227,-111.7315,477.8,191.5,77.7,0.8,3.3,12.81,45.74,712.0413,139.9958],
    [4399,1525542564,57.3228,-111.7305,478.3,192.3,70.4,1.0,2.0,12.59,45.43,712.037,139.9978],
    [4400,1525542565,57.3231,-111.7295,480.0,194.0,64.7,1.0,2.8,13.14,45.13,712.1559,139.9968],
    [4401,1525542566,57.3234,-111.7285,482.8,196.8,59.1,1.2,3.3,13.12,44.76,712.29,140.0033],
    [4402,1525542567,57.3237,-111.7276,485.2,199.2,53.3,0.9,3.4,12.91,45.57,712.5013,139.9944],
    [4403,1525542568,57.3241,-111.7268,487.0,201.0,47.8,0.2,4.0,12.55,45.51,712.5696,139.9976],
    [4404,1525542569,57.3245,-111.7261,487.7,202.7,42.6,0.1,3.9,13.11,45.03,712.8203,139.9948],
    [4405,1525542570,57.325,-111.7254,486.8,201.8,36.7,0.8,3.3,12.97,45.88,712.9185,140.0019],
    [4406,1525542571,57.3255,-111.7248,485.0,200.0,31.0,0.9,3.4,12.78,46.08,713.1723,139.9979],
    [4407,1525542572,57.326,-111.7243,483.0,198.0,26.3,0.8,3.0,13.53,45.36,713.3043,139.9974],
    [4408,1525542573,57.3266,-111.7239,480.7,196.5,20.3,1.8,1.9,12.75,45.78,713.4615,139.9976],
    [4409,1525542574,57.3272,-111.7235,478.5,194.5,15.9,1.3,1.8,12.7,46.01,713.8125,140.0024],
    [4410,1525542575,57.3277,-111.7233,476.4,193.3,12.8,1.5,1.8,12.7,45.54,714.1476,140.0025],
    [4411,1525542576,57.3283,-111.723,474.0,191.0,10.6,1.0,1.8,12.55,45.82,714.3414,140.002],
    [4412,1525542577,57.3289,-111.7228,472.0,190.0,10.9,-0.7,2.4,12.71,45.55,714.4431,140.0014],
    [4413,1525542578,57.3296,-111.7226,469.3,187.3,9.6,-0.3,2.4,13.21,45.09,714.4492,140.0031],
    [4414,1525542579,57.3302,-111.7225,466.4,185.5,9.4,-0.6,2.9,12.72,45.33,714.3808,139.9978],
    [4415,1525542580,57.3308,-111.7223,462.8,181.7,9.9,-1.5,3.5,12.49,45.47,714.3005,139.9978],
    [4416,1525542581,57.3315,-111.7221,459.4,180.8,8.0,-0.6,3.4,12.86,45.32,714.325,140.0003],
    [4417,1525542582,57.332,-111.722,458.0,181.0,6.3,0.3,2.8,12.86,45.39,714.3333,139.9973],
    [4418,1525542583,57.3326,-111.7219,458.0,185.3,5.4,0.5,2.3,12.76,45.88,714.0986,140.0024],
    [4419,1525542584,57.3333,-111.7218,458.6,188.6,4.5,0.9,3.0,12.79,46.09,713.9937,140.0033],
    [4420,1525542585,57.3339,-111.7217,459.1,194.0,3.4,1.7,3.3,12.89,45.45,713.7126,139.9977],
    [4421,1525542586,57.3346,-111.7216,459.9,196.2,3.4,0.8,3.6,12.62,46.25,713.4474,139.9996],
    [4422,1525542587,57.3351,-111.7215,460.1,196.6,3.9,-0.1,3.9,12.74,46.39,713.2161,139.9941],
    [4423,1525542588,57.3358,-111.7214,461.4,196.7,362.4,0.6,3.7,12.8,45.67,713.2253,139.9982],
    [4424,1525542589,57.3364,-111.7214,463.6,196.5,362.2,0.3,3.8,12.1,45.52,713.2486,139.9945],
    [4425,1525542590,57.3371,-111.7214,466.3,198.3,2.6,-0.5,3.8,12.69,45.57,713.2625,139.996],
    [4426,1525542591,57.3377,-111.7213,469.1,199.4,361.6,0.2,3.6,12.68,45.51,713.3902,140.0005],
    [4427,1525542592,57.3383,-111.7213,471.7,201.6,360.7,0.5,3.6,12.78,45.38,713.5897,140.0007],
    [4428,1525542593,57.3389,-111.7213,472.7,205.1,360.0,1.0,3.8,12.84,45.57,713.6511,140.0029],
    [4429,1525542594,57.3395,-111.7213,472.8,206.8,358.4,2.1,3.9,12.74,45.83,713.6067,140.0003],
    [4430,1525542595,57.3401,-111.7213,472.3,207.3,358.5,1.4,4.0,12.49,45.66,713.5394,140.0047],
    [4431,1525542596,57.3408,-111.7213,470.8,205.9,358.4,1.3,3.9,12.96,45.02,713.4534,140.0068],
    [4432,1525542597,57.3414,-111.7213,469.0,203.0,358.1,1.2,3.6,12.23,45.22,713.3775,140.0067],
    [4433,1525542598,57.342,-111.7213,467.8,201.8,358.7,0.2,3.4,12.72,45.27,713.3236,140.0043],
    [4434,1525542599,57.3426,-111.7213,467.8,201.2,357.9,-0.1,3.1,12.75,45.12,713.157,139.9949],
    [4435,1525542600,57.3432,-111.7214,468.7,199.1,357.1,-0.9,3.2,12.52,45.14,713.1149,140.0004],
    [4436,1525542601,57.3438,-111.7215,469.9,196.9,352.3,0.6,3.5,13.03,44.91,713.1215,140.0004],
    [4437,1525542602,57.3444,-111.7217,470.8,194.5,348.1,0.6,3.5,13.28,44.55,713.1119,140.0028],
    [4438,1525542603,57.345,-111.7219,471.7,192.9,342.7,0.7,3.9,12.94,44.99,713.0063,140.0027],
    [4439,1525542604,57.3456,-111.7223,473.0,193.9,337.7,0.1,3.9,12.94,45.0,713.0631,140.0043],
    [4440,1525542605,57.3462,-111.7227,474.0,195.7,331.8,0.4,3.7,13.05,45.67,713.0873,140.005],
    [4441,1525542606,57.3467,-111.7233,474.1,196.2,325.9,0.4,3.7,12.99,45.35,713.1854,140.0032],
    [4442,1525542607,57.3472,-111.7239,474.3,196.6,320.1,0.1,3.0,12.62,46.02,713.3017,140.0022],
    [4443,1525542608,57.3476,-111.7246,474.9,197.0,313.8,0.7,2.8,12.71,46.17,713.3214,140.0021],
    [4444,1525542609,57.348,-111.7254,474.8,197.8,308.2,0.6,3.8,12.22,46.35,713.2364,140.0002],
    [4445,1525542610,57.3484,-111.7263,474.1,197.5,302.4,0.0,4.4,12.69,46.65,713.1858,140.0007],
    [4446,1525542611,57.3487,-111.7272,472.8,198.8,297.6,0.3,4.7,12.81,47.07,713.1685,140.0027],
    [4447,1525542612,57.349,-111.7282,471.7,199.9,293.7,0.5,4.2,12.62,47.11,713.1772,140.0023],
    [4448,1525542613,57.3492,-111.7292,471.3,199.3,290.2,0.5,4.1,12.73,47.21,713.2365,139.9945],
    [4449,1525542614,57.3495,-111.7302,471.8,199.8,286.1,0.4,4.6,12.7,46.71,713.3939,140.0],
    [4450,1525542615,57.3496,-111.7312,472.8,200.8,282.7,0.3,4.3,12.51,46.73,713.5883,139.9957],
    [4451,1525542616,57.3498,-111.7323,473.3,199.2,279.2,0.2,4.7,12.94,46.39,713.7252,140.0002],
    [4452,1525542617,57.3499,-111.7333,473.2,197.4,276.4,-0.2,4.6,12.18,46.67,713.9221,140.0021],
    [4453,1525542618,57.35,-111.7344,472.3,194.9,273.7,-0.1,4.3,12.94,46.25,714.0097,140.0062],
    [4454,1525542619,57.3501,-111.7354,470.4,192.1,271.1,0.4,4.6,12.65,46.0,714.0124,140.0],
    [4455,1525542620,57.3501,-111.7365,468.0,188.7,269.6,0.5,4.2,12.71,46.23,713.959,139.9974],
    [4456,1525542621,57.3501,-111.7375,465.7,184.8,268.6,-0.1,3.9,12.99,46.05,713.9187,139.9961],
    [4457,1525542622,57.3502,-111.7386,463.9,181.8,266.7,-0.3,4.7,12.55,46.34,713.8904,139.9978],
    [4458,1525542623,57.3502,-111.7397,462.8,179.8,266.2,-0.1,4.7,13.01,46.15,713.8828,140.0045],
    [4459,1525542624,57.3502,-111.7408,462.5,179.6,265.7,0.2,5.3,12.31,46.29,713.7977,140.0038],
    [4460,1525542625,57.3502,-111.7419,463.0,179.0,265.3,0.7,5.6,12.84,46.27,713.6717,139.9964],
    [4461,1525542626,57.3502,-111.7429,463.6,178.6,266.3,0.4,4.3,12.68,46.91,713.5015,139.9949],
    [4462,1525542627,57.3502,-111.744,464.0,178.0,267.0,0.3,3.5,13.22,46.59,713.0785,139.9987],
    [4463,1525542628,57.3502,-111.7451,464.1,177.1,265.9,0.2,4.3,12.86,46.54,712.8858,139.9925],
    [4464,1525542629,57.3502,-111.7461,464.7,176.8,265.7,0.3,4.5,12.94,46.6,712.594,139.9988],
    [4465,1525542630,57.3502,-111.7472,466.6,177.7,266.6,0.7,3.9,12.7,46.54,712.4212,139.9994],
    [4466,1525542631,57.3502,-111.7483,468.9,179.9,267.2,0.2,4.0,12.83,46.46,712.1075,139.9994],
    [4467,1525542632,57.3502,-111.7494,472.4,182.2,266.6,-0.2,5.0,12.47,46.95,711.6839,140.003],
    [4468,1525542633,57.3502,-111.7504,475.3,183.0,267.7,0.3,4.1,12.53,47.1,711.7479,139.995],
    [4469,1525542634,57.3502,-111.7515,478.4,185.4,268.7,1.0,3.4,12.5,47.31,711.6653,140.006],
    [4470,1525542635,57.3502,-111.7526,481.4,187.4,270.4,1.1,1.8,12.31,47.57,711.489,140.0005],
    [4471,1525542636,57.3502,-111.7537,484.2,189.2,270.7,0.3,2.0,12.53,47.63,711.4109,139.9939],
    [4472,1525542637,57.3503,-111.7547,487.6,191.5,269.4,1.0,3.2,12.69,47.88,711.3278,140.0035],
    [4473,1525542638,57.3503,-111.7557,489.5,193.5,271.1,1.4,1.0,12.65,47.62,711.1903,140.0013],
    [4474,1525542639,57.3503,-111.7568,490.2,194.2,269.8,0.9,2.1,12.75,47.82,711.1712,139.9995],
    [4475,1525542640,57.3503,-111.7579,491.8,196.8,267.2,0.7,3.4,13.48,46.6,711.1116,139.9977],
    [4476,1525542641,57.3503,-111.7589,493.6,198.6,267.6,0.6,1.7,12.81,46.42,711.3298,139.9927],
    [4477,1525542642,57.3503,-111.7599,494.8,199.8,265.6,0.9,3.0,13.03,46.5,711.3223,140.0057],
    [4478,1525542643,57.3503,-111.761,496.0,200.0,261.8,0.1,5.6,12.72,46.64,711.3661,140.0005],
    [4479,1525542644,57.3502,-111.7618,496.3,200.3,261.6,-0.4,5.1,12.64,47.02,711.4215,139.9958],
    [4480,1525542645,57.3502,-111.7629,496.6,200.6,261.9,0.2,4.4,12.64,47.16,711.4301,140.0018],
    [4481,1525542646,57.3502,-111.764,495.4,199.4,262.5,0.3,3.3,12.76,47.01,711.4349,139.9952],
    [4482,1525542647,57.3501,-111.765,494.5,199.3,263.1,-0.2,3.0,12.92,46.71,711.2952,140.0053],
    [4483,1525542648,57.3501,-111.7661,493.9,201.6,261.0,-0.2,5.0,12.72,47.78,711.18,140.0057],
    [4484,1525542649,57.35,-111.7672,492.9,202.2,262.7,0.3,3.4,12.47,47.34,710.9725,139.9952],
    [4485,1525542650,57.35,-111.7682,492.0,201.4,262.6,0.7,4.2,12.57,47.57,710.7791,140.0053],
    [4486,1525542651,57.35,-111.7693,492.6,200.7,263.4,0.8,3.9,12.71,47.77,710.6622,139.9941],
    [4487,1525542652,57.3499,-111.7704,493.7,199.7,264.5,0.6,3.7,12.38,47.08,710.5708,139.9973],
    [4488,1525542653,57.3499,-111.7714,495.3,199.3,263.8,0.6,4.5,12.59,46.71,710.6059,139.9943],
    [4489,1525542654,57.3499,-111.7724,497.6,200.6,265.8,0.5,2.7,12.88,46.81,710.7797,139.9947],
    [4490,1525542655,57.3499,-111.7735,500.2,202.2,266.4,-0.1,2.6,13.24,46.5,711.0627,140.0039],
    [4491,1525542656,57.3499,-111.7745,501.8,203.8,267.0,-0.6,2.8,12.5,47.2,711.2296,140.0012],
    [4492,1525542657,57.3499,-111.7756,502.8,203.8,267.8,-0.5,2.9,13.13,47.04,711.3374,139.99],
    [4493,1525542658,57.3499,-111.7767,502.9,202.9,268.5,-0.1,2.7,12.07,47.36,711.4072,139.9969],
    [4494,1525542659,57.3499,-111.7777,501.1,200.0,269.4,-0.1,2.1,12.62,47.54,711.6308,139.9987],
    [4495,1525542660,57.3499,-111.7788,498.1,197.2,268.5,-0.3,2.9,12.61,47.45,711.7534,140.007],
    [4496,1525542661,57.3499,-111.7799,495.7,193.7,267.4,-0.1,3.5,12.34,47.56,711.7794,140.0043],
    [4497,1525542662,57.3499,-111.781,494.0,191.0,267.6,0.4,2.7,12.37,48.1,711.7504,140.0089],
    [4498,1525542663,57.3499,-111.782,492.8,188.8,266.9,0.7,2.2,12.7,48.08,711.5615,140.0063],
    [4499,1525542664,57.3499,-111.7831,490.8,186.5,265.2,0.8,1.8,12.65,47.7,711.441,140.0018],
    [4500,1525542665,57.3498,-111.7842,488.9,184.6,260.1,1.0,3.0,13.06,47.28,711.3119,140.0031],
    [4501,1525542666,57.3497,-111.7852,488.3,184.3,254.1,1.2,3.2,12.91,47.16,711.251,140.0007],
    [4502,1525542667,57.3496,-111.7862,488.9,185.9,248.3,1.2,3.1,12.85,46.59,711.3213,139.9936],
    [4503,1525542668,57.3493,-111.7872,490.4,189.8,240.6,0.6,4.4,12.7,46.7,711.3297,139.9956],
    [4504,1525542669,57.349,-111.7882,492.6,193.6,233.5,0.5,4.3,12.66,47.23,711.4671,139.9993],
    [4505,1525542670,57.3487,-111.789,494.3,196.3,227.9,0.2,3.8,12.53,46.61,711.5446,140.0013],
    [4506,1525542671,57.3483,-111.7897,495.0,196.0,221.0,-0.3,3.6,13.22,45.96,711.6711,140.0024],
    [4507,1525542672,57.3479,-111.7904,495.0,196.0,214.5,-0.1,3.5,12.8,45.9,711.7871,139.9993],
    [4508,1525542673,57.3474,-111.7909,494.3,194.3,208.4,-0.1,3.8,12.85,45.75,711.8471,139.9919],
    [4509,1525542674,57.347,-111.7914,492.9,191.8,202.5,-0.2,4.5,13.33,45.44,711.9384,139.996],
    [4510,1525542675,57.3465,-111.7918,491.5,190.6,196.7,-0.6,4.7,12.73,45.55,712.1289,140.0056],
    [4511,1525542676,57.3459,-111.792,490.3,190.4,192.0,-0.2,4.0,11.97,45.68,712.2359,140.0012],
    [4512,1525542677,57.3454,-111.7922,489.1,188.1,187.7,-0.2,3.7,12.43,45.65,712.5813,140.0038],
    [4513,1525542678,57.3448,-111.7923,487.9,187.0,183.3,-0.5,4.4,12.1,45.97,712.5844,140.0095],
    [4514,1525542679,57.3443,-111.7924,486.8,185.7,180.6,-0.2,4.5,12.78,45.71,712.407,139.9964],
    [4515,1525542680,57.3437,-111.7924,484.8,182.8,177.4,-1.9,4.5,12.7,46.45,712.2337,140.004],
    [4516,1525542681,57.3432,-111.7923,482.2,179.3,175.8,-2.8,4.7,12.65,46.53,712.0179,140.0008],
    [4517,1525542682,57.3427,-111.7923,479.8,175.6,177.9,-0.8,4.3,12.88,45.85,711.9015,139.9906],
    [4518,1525542683,57.342,-111.7923,478.6,172.6,178.6,-1.0,4.3,12.22,45.88,711.7663,139.9968],
    [4519,1525542684,57.3415,-111.7923,479.9,172.2,179.0,-1.0,4.7,12.62,45.85,711.6638,140.0045],
    [4520,1525542685,57.3409,-111.7923,482.7,174.4,179.8,-0.5,4.0,12.79,46.62,711.6531,139.9982],
    [4521,1525542686,57.3404,-111.7923,484.9,175.9,180.2,-0.3,3.6,12.89,45.47,711.6076,140.0018],
    [4522,1525542687,57.3398,-111.7923,486.8,177.8,180.9,0.3,3.8,12.86,45.58,711.5525,140.0014],
    [4523,1525542688,57.3393,-111.7923,488.0,179.0,181.3,0.5,4.2,12.89,46.08,711.5767,139.9975],
    [4524,1525542689,57.3387,-111.7923,489.4,180.4,181.1,0.3,4.1,12.82,45.81,711.6767,139.9965],
    [4525,1525542690,57.3381,-111.7923,490.2,181.2,181.7,0.9,4.1,12.94,45.51,711.7749,140.0006],
    [4526,1525542691,57.3376,-111.7924,490.9,181.9,181.6,0.9,3.7,12.86,44.95,711.8324,140.0032],
    [4527,1525542692,57.337,-111.7924,491.3,181.3,180.9,0.6,3.9,12.27,45.01,711.8464,140.0068],
    [4528,1525542693,57.3365,-111.7924,490.8,180.8,181.2,1.3,4.3,13.0,45.3,711.6753,139.9955],
    [4529,1525542694,57.3359,-111.7924,490.0,180.0,181.0,1.6,4.0,13.17,44.78,711.6206,139.9996],
    [4530,1525542695,57.3354,-111.7924,489.1,179.1,179.7,0.6,3.4,12.85,45.45,711.3846,139.9958],
    [4531,1525542696,57.3348,-111.7923,488.7,178.7,179.0,0.2,3.0,13.36,44.7,711.3156,139.998],
    [4532,1525542697,57.3343,-111.7923,488.1,178.3,179.0,0.2,2.8,12.86,44.82,711.1245,139.9989],
    [4533,1525542698,57.3337,-111.7923,488.4,180.4,178.7,-0.2,3.1,12.75,45.39,711.0783,140.0026],
    [4534,1525542699,57.3332,-111.7923,490.0,183.9,178.4,-0.2,3.8,13.0,44.58,711.1475,139.9934],
    [4535,1525542700,57.3326,-111.7923,492.2,187.4,178.9,0.1,4.1,12.68,44.78,711.1793,140.0011],
    [4536,1525542701,57.3321,-111.7922,494.0,189.1,179.0,0.1,4.1,13.14,44.58,711.2515,139.9996],
    [4537,1525542702,57.3316,-111.7922,495.3,187.7,178.9,-0.2,3.4,12.84,45.04,711.2934,139.9925],
    [4538,1525542703,57.331,-111.7922,496.9,186.9,177.8,-1.2,3.6,12.45,45.46,711.4951,140.002],
    [4539,1525542704,57.3305,-111.7922,497.4,187.4,178.1,-0.7,4.0,12.82,46.05,711.5806,139.9992],
    [4540,1525542705,57.3299,-111.7921,496.2,186.2,178.0,-0.8,4.0,12.64,45.72,711.9256,140.0108],
    [4541,1525542706,57.3294,-111.7921,495.1,185.1,177.0,-1.5,3.6,12.61,45.87,711.9023,140.0105],
    [4542,1525542707,57.3288,-111.7921,493.6,183.6,177.2,-1.1,4.3,12.68,46.47,711.9478,140.0044],
    [4543,1525542708,57.3283,-111.7921,492.2,182.2,177.3,-0.3,4.8,12.82,46.36,711.8155,140.0],
    [4544,1525542709,57.3278,-111.792,490.5,180.5,178.3,2.7,4.3,12.71,46.19,711.6841,139.9932],
    [4545,1525542710,57.3272,-111.7919,488.1,178.1,176.0,3.1,3.1,12.87,46.2,711.5895,139.9936],
    [4546,1525542711,57.3267,-111.7917,486.4,176.4,167.1,0.1,2.8,13.09,46.21,711.7311,139.9863],
    [4547,1525542712,57.3262,-111.7914,487.0,177.0,161.1,0.9,3.0,12.31,46.19,711.9294,139.9931],
    [4548,1525542713,57.3256,-111.791,488.2,178.2,154.5,1.6,2.5,13.03,46.55,712.4035,139.9833],
    [4549,1525542714,57.3252,-111.7905,489.6,179.6,147.0,0.4,1.9,13.15,46.06,712.7144,139.9858],
    [4550,1525542715,57.3248,-111.7899,490.9,180.9,141.4,0.3,2.5,12.54,46.09,713.3111,139.9996],
    [4551,1525542716,57.3243,-111.7891,491.0,181.0,136.8,0.8,3.5,13.01,46.26,713.6737,139.9961],
    [4552,1525542717,57.3239,-111.7883,487.2,178.0,131.6,-0.1,4.1,12.89,45.84,714.2754,139.9972],
    [4553,1525542718,57.3236,-111.7875,482.2,173.2,125.2,-1.1,4.0,13.11,45.73,714.5399,139.9983],
    [4554,1525542719,57.3233,-111.7865,476.7,167.7,119.1,-1.4,3.7,13.63,45.16,715.0857,140.0023],
    [4555,1525542720,57.3231,-111.7855,471.4,163.4,114.4,-1.3,3.8,12.98,45.62,715.3383,140.0022],
    [4556,1525542721,57.3229,-111.7845,465.9,158.9,109.2,-1.3,3.6,12.7,45.55,715.5489,140.0149],
    [4557,1525542722,57.3227,-111.7834,460.7,153.7,105.7,-1.8,4.0,13.12,46.13,715.7593,139.9962],
    [4558,1525542723,57.3226,-111.7823,455.4,149.4,100.9,-2.2,2.6,13.36,45.54,716.1507,140.0065],
    [4559,1525542724,57.3225,-111.7812,450.6,145.6,97.2,-2.0,2.3,13.21,45.52,716.1557,139.9961],
    [4560,1525542725,57.3225,-111.7801,447.1,142.4,94.5,-1.3,2.9,13.09,46.08,716.1615,140.0003],
    [4561,1525542726,57.3225,-111.779,444.5,140.5,92.9,-1.4,3.4,13.82,45.08,716.1339,139.9989],
    [4562,1525542727,57.3225,-111.7779,441.2,138.2,92.6,-1.5,4.4,12.87,45.33,716.1852,140.0012],
    [4563,1525542728,57.3225,-111.7767,438.0,136.0,92.3,-1.3,4.5,12.54,45.03,716.3896,140.0004],
    [4564,1525542729,57.3225,-111.7756,436.5,134.9,90.7,-0.5,3.4,13.2,44.96,716.3807,139.9944],
    [4565,1525542730,57.3225,-111.7745,436.4,135.4,91.1,-0.8,4.2,12.96,44.71,716.5225,139.9996],
    [4566,1525542731,57.3226,-111.7733,436.5,136.5,90.8,-1.0,4.4,13.31,44.59,716.8018,139.9985],
    [4567,1525542732,57.3226,-111.7722,436.0,136.0,89.7,-1.1,3.7,12.92,44.67,716.9534,140.0029],
    [4568,1525542733,57.3227,-111.7711,434.5,134.5,88.3,-0.2,2.6,13.33,45.12,716.9405,140.0043],
    [4569,1525542734,57.3227,-111.7699,433.8,134.8,88.1,0.2,2.4,13.29,45.06,716.9705,140.0111],
    [4570,1525542735,57.3227,-111.7688,432.4,133.4,90.1,-0.4,4.3,13.27,44.76,716.8378,140.0042],
    [4571,1525542736,57.3228,-111.7677,430.2,131.2,91.6,0.6,5.2,13.2,44.83,716.7848,140.0016],
    [4572,1525542737,57.3228,-111.7665,428.3,130.3,91.2,0.6,4.4,14.02,44.28,716.5573,139.9974],
    [4573,1525542738,57.3228,-111.7654,427.5,129.5,91.3,0.3,4.5,13.42,44.45,716.2667,139.9998],
    [4574,1525542739,57.3229,-111.7642,427.5,129.5,92.5,0.7,5.8,13.15,44.29,716.1393,139.996],
    [4575,1525542740,57.3229,-111.7632,427.4,128.4,92.0,0.6,4.6,14.12,44.06,716.0261,140.0004],
    [4576,1525542741,57.3229,-111.762,429.4,129.4,89.3,-0.6,1.8,13.66,44.09,715.9604,140.0006],
    [4577,1525542742,57.3229,-111.7609,431.9,130.9,91.0,-0.8,3.1,13.93,43.4,715.9821,139.9965],
    [4578,1525542743,57.3229,-111.7598,434.8,133.1,91.9,-1.3,3.4,13.64,43.78,716.1751,139.9995],
    [4579,1525542744,57.3229,-111.7586,437.0,135.0,92.3,-1.3,3.5,13.33,44.07,716.2849,140.0014],
    [4580,1525542745,57.3229,-111.7576,438.4,136.4,92.0,-1.7,3.0,13.36,44.1,716.3091,139.9945],
    [4581,1525542746,57.3229,-111.7565,439.1,137.1,92.7,-0.9,3.3,13.47,44.03,716.3162,140.0034],
    [4582,1525542747,57.3229,-111.7554,438.9,136.9,92.5,-0.6,2.5,12.99,44.06,716.1473,140.0093],
    [4583,1525542748,57.3229,-111.7542,437.3,135.3,93.6,-0.9,3.2,13.59,44.29,716.1652,139.9921],
    [4584,1525542749,57.3229,-111.7531,435.4,133.4,94.0,-1.0,3.0,13.51,44.28,716.2061,140.0004],
    [4585,1525542750,57.3229,-111.752,435.1,133.2,94.6,-1.2,3.3,13.52,44.5,716.3041,139.9958],
    [4586,1525542751,57.3229,-111.751,435.9,134.9,96.0,-0.2,3.9,13.56,44.94,716.3602,140.0057],
    [4587,1525542752,57.3229,-111.7498,437.2,137.1,96.4,0.2,3.9,14.0,44.02,716.3834,140.0014],
    [4588,1525542753,57.3228,-111.7487,437.4,138.3,97.5,0.3,4.9,13.17,44.22,716.3687,139.998],
    [4589,1525542754,57.3228,-111.7476,437.2,139.1,95.6,0.2,3.4,13.34,44.72,716.3605,139.9982],
    [4590,1525542755,57.3228,-111.7465,435.8,138.2,95.6,-0.2,4.1,13.22,44.36,716.3698,139.9941],
    [4591,1525542756,57.3227,-111.7454,434.8,138.9,95.4,-0.2,3.9,13.78,44.0,716.3436,139.9979],
    [4592,1525542757,57.3227,-111.7443,435.0,140.2,94.4,-0.1,3.4,13.8,43.91,716.3408,139.9971],
    [4593,1525542758,57.3227,-111.7433,435.1,142.0,95.2,-0.3,4.7,14.2,43.99,716.2861,140.0012],
    [4594,1525542759,57.3227,-111.7421,435.2,142.2,94.7,-0.3,4.5,13.52,44.55,716.2305,140.0075],
    [4595,1525542760,57.3227,-111.741,435.1,143.1,94.6,-0.1,4.8,13.46,44.27,716.2186,139.9975],
    [4596,1525542761,57.3227,-111.7399,435.4,144.1,93.8,-0.4,4.6,13.39,44.38,716.2274,139.9996],
    [4597,1525542762,57.3227,-111.7388,435.5,144.5,93.8,-0.9,5.1,13.58,44.24,716.3422,140.0],
    [4598,1525542763,57.3227,-111.7377,435.9,145.9,93.3,-1.2,4.7,13.59,44.26,716.5542,140.0022],
    [4599,1525542764,57.3227,-111.7367,436.6,147.6,92.6,-1.2,4.2,13.64,44.65,716.5751,140.0025],
    [4600,1525542765,57.3227,-111.7356,436.6,148.6,93.2,-1.0,5.4,13.35,43.98,716.4771,139.9995],
    [4601,1525542766,57.3227,-111.7345,436.3,148.3,93.0,-1.0,6.1,13.27,44.07,716.374,139.9989],
    [4602,1525542767,57.3228,-111.7334,435.4,148.4,90.7,-0.5,5.7,13.52,44.15,716.208,139.9973],
    [4603,1525542768,57.3228,-111.7323,434.3,147.3,86.3,-0.1,4.7,13.52,44.65,716.0708,139.9927],
    [4604,1525542769,57.3229,-111.7312,433.8,147.8,81.1,-0.1,4.2,13.44,43.87,715.9827,139.996],
    [4605,1525542770,57.3231,-111.7301,434.2,148.2,75.8,0.0,4.3,13.35,43.97,715.8984,140.0009],
    [4606,1525542771,57.3233,-111.7291,435.5,149.5,69.9,0.1,3.8,13.88,43.43,715.7414,139.9966],
    [4607,1525542772,57.3236,-111.7281,437.5,151.5,64.0,0.4,3.7,13.6,43.33,715.6602,140.0008],
    [4608,1525542773,57.3239,-111.7272,439.3,153.3,58.2,0.6,2.9,13.39,43.28,715.5822,139.9933],
    [4609,1525542774,57.3242,-111.7263,440.6,155.6,52.5,0.9,2.1,13.56,42.85,715.7012,139.9984],
    [4610,1525542775,57.3246,-111.7255,441.7,156.7,46.2,0.9,2.0,13.8,42.77,715.8408,139.9958],
    [4611,1525542776,57.325,-111.7248,443.2,158.2,41.5,0.6,2.7,13.47,43.06,716.0391,140.0089],
    [4612,1525542777,57.3255,-111.7241,444.8,159.8,36.4,0.1,3.0,13.56,42.74,716.1675,139.9995],
    [4613,1525542778,57.326,-111.7235,445.5,160.7,31.8,-0.6,3.2,13.47,43.01,716.2279,140.0023],
    [4614,1525542779,57.3265,-111.723,444.9,160.9,26.7,0.0,3.1,13.37,42.8,716.2837,140.0014],
    [4615,1525542780,57.3271,-111.7226,443.1,160.1,20.4,0.9,3.0,13.34,42.59,716.2961,139.9991],
    [4616,1525542781,57.3277,-111.7222,440.7,157.7,16.0,0.3,3.1,13.44,42.92,716.3812,139.9918],
    [4617,1525542782,57.3282,-111.722,439.2,157.2,11.5,0.0,3.4,13.25,43.43,716.3744,140.0],
    [4618,1525542783,57.3288,-111.7218,438.5,156.5,6.7,0.8,3.6,13.25,43.8,716.4779,139.9904],
    [4619,1525542784,57.3294,-111.7217,438.0,156.8,3.4,0.8,3.7,13.77,44.15,716.5239,139.9956],
    [4620,1525542785,57.33,-111.7217,437.4,156.4,360.5,0.8,3.6,12.9,44.38,716.72,139.9941],
    [4621,1525542786,57.3306,-111.7217,436.7,156.8,358.1,1.1,3.7,13.38,44.44,716.8749,140.0011],
    [4622,1525542787,57.3312,-111.7217,436.0,157.0,356.5,0.8,3.0,13.68,44.13,717.0146,140.0009],
    [4623,1525542788,57.3318,-111.7218,435.1,158.1,355.9,0.2,2.2,13.35,44.68,717.1261,139.9998],
    [4624,1525542789,57.3324,-111.7219,433.9,160.0,355.0,0.3,2.1,13.54,44.4,717.3839,139.9894],
    [4625,1525542790,57.333,-111.7219,432.5,159.5,354.7,0.3,1.9,13.25,44.74,717.4974,140.0106],
    [4626,1525542791,57.3336,-111.722,430.7,159.3,355.6,-0.4,1.9,13.45,45.04,717.7825,140.0015],
    [4627,1525542792,57.3342,-111.7221,428.8,160.6,356.2,-0.6,2.3,13.32,45.35,717.7902,140.0037],
    [4628,1525542793,57.3349,-111.7222,426.8,159.9,357.3,-0.7,2.3,13.36,45.3,717.834,139.9995],
    [4629,1525542794,57.3355,-111.7223,424.5,156.1,358.6,-1.1,2.4,13.59,44.69,717.6907,139.9932],
    [4630,1525542795,57.336,-111.7223,422.2,152.9,359.4,-0.6,3.2,13.33,45.56,717.7423,140.0008],
    [4631,1525542796,57.3367,-111.7223,419.9,149.1,361.2,-0.5,3.9,13.7,44.92,717.7457,139.9885],
    [4632,1525542797,57.3373,-111.7223,418.8,146.7,3.8,-1.2,3.8,13.34,46.08,717.619,140.0031],
    [4633,1525542798,57.3379,-111.7222,418.7,146.7,5.2,-0.9,3.9,13.24,45.69,717.376,140.0009],
    [4634,1525542799,57.3385,-111.7221,419.1,148.0,6.2,-0.2,4.2,13.29,45.34,717.1489,139.9959],
    [4635,1525542800,57.3391,-111.722,419.6,149.9,6.5,-0.1,3.3,12.9,45.6,717.0567,140.0039],
    [4636,1525542801,57.3397,-111.7219,419.4,151.8,7.8,-1.2,2.9,13.3,45.56,716.9322,140.01],
    [4637,1525542802,57.3403,-111.7217,420.2,152.6,7.5,-0.7,2.3,13.47,44.87,716.8593,140.0088],
    [4638,1525542803,57.3409,-111.7216,422.9,156.6,5.7,0.4,2.3,13.18,44.85,716.6347,140.0074],
    [4639,1525542804,57.3415,-111.7215,425.4,159.1,5.9,-1.3,2.2,13.28,45.12,716.5475,140.0031],
    [4640,1525542805,57.3422,-111.7214,427.3,161.0,3.7,-1.1,2.1,13.24,44.72,716.433,140.0009],
    [4641,1525542806,57.3427,-111.7214,428.9,162.5,359.7,-0.4,2.2,13.39,44.95,716.363,140.0025],
    [4642,1525542807,57.3434,-111.7215,430.9,159.8,354.7,-0.3,2.6,13.01,44.98,716.2781,140.0024],
    [4643,1525542808,57.3439,-111.7216,432.9,157.7,350.5,-0.2,2.9,13.05,44.75,716.1829,139.9978],
    [4644,1525542809,57.3445,-111.7218,434.4,157.3,344.8,-0.1,3.1,12.89,44.75,716.1265,140.0064],
    [4645,1525542810,57.3451,-111.7222,435.7,157.0,338.4,0.5,3.4,13.33,45.27,716.0234,140.0029],
    [4646,1525542811,57.3456,-111.7226,436.7,158.3,332.8,0.7,3.8,13.47,44.09,715.9535,139.9997],
    [4647,1525542812,57.3461,-111.7231,437.5,160.9,326.9,1.1,4.2,13.37,44.28,716.0354,140.0022],
    [4648,1525542813,57.3466,-111.7237,438.3,163.1,321.2,1.3,3.8,12.78,44.32,716.2629,140.0063],
    [4649,1525542814,57.3471,-111.7243,439.4,162.4,316.1,1.3,3.3,12.9,44.35,716.3314,140.0044],
    [4650,1525542815,57.3475,-111.725,440.4,163.6,311.0,1.0,3.5,13.37,44.19,716.6478,139.9969],
    [4651,1525542816,57.3478,-111.7258,441.5,164.8,306.6,0.4,3.2,13.12,44.91,716.8419,139.9992],
    [4652,1525542817,57.3482,-111.7267,440.8,167.1,302.1,0.3,3.1,13.55,44.21,717.2681,140.0016],
    [4653,1525542818,57.3485,-111.7275,439.0,167.1,297.8,0.1,2.9,13.27,44.81,717.424,140.0089],
    [4654,1525542819,57.3487,-111.7284,436.7,165.7,292.7,-0.4,3.1,13.1,44.66,717.6426,140.0068],
    [4655,1525542820,57.3489,-111.7294,434.6,163.3,287.6,-0.1,3.1,13.5,44.39,717.6704,140.0022],
    [4656,1525542821,57.3491,-111.7304,431.4,159.4,282.9,0.2,3.1,13.23,44.96,717.6103,139.9974],
    [4657,1525542822,57.3493,-111.7314,427.9,154.8,277.8,0.3,4.2,13.96,44.58,717.5768,140.0021],
    [4658,1525542823,57.3494,-111.7325,424.2,149.1,273.1,-0.2,5.1,13.57,44.94,717.5143,140.0014],
    [4659,1525542824,57.3494,-111.7336,421.1,144.0,269.4,-0.2,5.5,13.23,45.31,717.5071,140.0018],
    [4660,1525542825,57.3494,-111.7346,419.8,140.5,267.2,0.0,5.4,13.04,45.11,717.4739,140.0028],
    [4661,1525542826,57.3495,-111.7356,420.8,140.8,266.1,-0.1,5.2,13.12,44.84,717.4088,139.9987],
    [4662,1525542827,57.3495,-111.7366,421.6,140.6,266.5,-0.1,4.4,13.61,44.37,717.3859,139.9964],
    [4663,1525542828,57.3495,-111.7377,422.0,140.0,266.8,-0.1,4.2,12.94,45.15,717.4529,140.0031],
    [4664,1525542829,57.3495,-111.7388,422.4,140.4,266.8,-0.2,5.0,13.19,45.55,717.3377,140.0012],
    [4665,1525542830,57.3495,-111.7399,422.8,139.8,268.0,-0.2,4.6,13.05,45.41,717.3956,140.0011],
    [4666,1525542831,57.3495,-111.7409,423.4,139.4,269.6,0.0,3.9,13.14,45.35,717.3365,140.0002],
    [4667,1525542832,57.3495,-111.742,423.7,138.7,270.8,-0.1,3.3,13.31,45.94,717.2186,140.0016],
    [4668,1525542833,57.3496,-111.743,423.6,138.6,271.4,-0.4,3.4,12.84,45.65,717.1048,139.9999],
    [4669,1525542834,57.3496,-111.7441,423.8,137.8,269.8,-0.6,5.3,13.13,45.73,717.0201,139.9992],
    [4670,1525542835,57.3497,-111.7452,423.7,136.7,270.7,-0.6,4.4,13.06,46.34,716.9376,139.9946],
    [4671,1525542836,57.3497,-111.7461,423.9,135.9,271.5,-0.8,3.4,13.18,46.18,716.8683,140.0071],
    [4672,1525542837,57.3498,-111.7473,425.3,136.4,270.8,-0.9,3.6,13.16,45.75,716.729,139.9986],
    [4673,1525542838,57.3498,-111.7483,426.6,136.7,270.1,-1.1,3.6,13.11,46.14,716.6926,139.9991],
    [4674,1525542839,57.3498,-111.7494,427.5,136.7,268.8,-0.5,4.0,13.22,46.27,716.6501,139.9984],
    [4675,1525542840,57.3499,-111.7504,428.3,136.0,269.3,0.2,3.2,13.22,46.72,716.3943,139.9951],
    [4676,1525542841,57.3499,-111.7515,429.6,136.6,269.7,-0.5,2.6,13.21,46.31,716.1862,139.9991],
    [4677,1525542842,57.3499,-111.7525,431.0,137.0,269.5,-1.4,2.4,13.14,46.63,715.9289,140.0016],
    [4678,1525542843,57.3499,-111.7536,431.6,136.6,269.5,-1.2,2.4,13.35,46.05,715.7552,139.9962],
    [4679,1525542844,57.3499,-111.7546,432.6,136.6,268.6,-0.8,3.4,13.05,46.31,715.5994,140.0058],
    [4680,1525542845,57.3499,-111.7557,434.3,138.3,268.8,-0.1,3.3,13.7,46.13,715.5152,140.0022],
    [4681,1525542846,57.35,-111.7567,436.7,140.7,270.0,-0.1,2.3,12.81,46.44,715.5165,139.9997],
    [4682,1525542847,57.35,-111.7578,439.8,143.8,268.7,-0.3,3.4,13.2,46.86,715.1998,140.0036],
    [4683,1525542848,57.35,-111.7588,442.5,146.5,268.3,-0.6,3.4,13.06,46.42,715.147,140.0003],
    [4684,1525542849,57.35,-111.7599,444.3,148.3,267.9,-0.9,3.9,13.26,46.66,714.9715,139.9936],
    [4685,1525542850,57.35,-111.7609,445.5,149.5,267.5,-0.9,4.2,13.26,46.27,714.8159,140.0024],
    [4686,1525542851,57.35,-111.7619,446.5,150.5,269.0,-1.4,2.7,12.78,46.55,714.8471,139.9979],
    [4687,1525542852,57.3501,-111.763,448.2,152.2,268.9,-1.7,3.3,12.76,46.72,714.809,139.9969],
    [4688,1525542853,57.3501,-111.764,450.1,154.1,268.1,-1.2,3.5,13.06,46.55,714.8199,139.9945],
    [4689,1525542854,57.3501,-111.765,451.9,156.8,268.8,-0.5,2.7,13.43,46.26,714.9757,139.989],
    [4690,1525542855,57.3501,-111.766,453.3,160.1,266.5,-0.8,4.9,12.9,47.12,715.3341,139.9975],
    [4691,1525542856,57.3501,-111.7671,453.9,162.9,266.0,-0.9,5.0,13.73,46.4,715.4495,140.002],
    [4692,1525542857,57.3501,-111.7681,454.2,163.1,266.4,-1.2,4.4,12.71,47.23,715.7198,139.9953],
    [4693,1525542858,57.3501,-111.7691,453.9,161.9,265.7,-0.4,4.9,13.46,46.85,715.7944,140.0002],
    [4694,1525542859,57.3501,-111.7702,451.9,157.9,266.0,0.2,4.3,12.94,47.41,715.9882,139.998],
    [4695,1525542860,57.3501,-111.7712,448.9,152.8,265.4,0.4,4.5,13.68,46.36,716.1567,139.999],
    [4696,1525542861,57.3501,-111.7722,445.5,148.4,264.9,0.2,3.9,13.11,46.62,716.2295,140.0053],
    [4697,1525542862,57.3501,-111.7732,443.4,145.6,264.9,-0.5,3.1,12.61,46.66,716.186,140.0067],
    [4698,1525542863,57.3501,-111.7743,442.2,144.2,263.6,-0.8,4.2,12.46,46.56,716.0741,139.9952],
    [4699,1525542864,57.35,-111.7754,440.2,141.2,262.3,-0.7,5.2,13.0,46.67,716.1063,139.9943],
    [4700,1525542865,57.35,-111.7765,438.3,138.3,263.1,-0.5,3.9,13.03,46.58,715.9973,139.9944],
    [4701,1525542866,57.35,-111.7775,437.3,136.3,264.7,-0.8,2.5,12.71,46.61,715.839,140.0008],
    [4702,1525542867,57.3499,-111.7786,437.6,136.6,264.0,-1.4,3.5,13.2,47.01,715.8784,140.0096],
    [4703,1525542868,57.3499,-111.7797,438.2,136.2,263.1,-1.3,4.1,13.13,46.54,715.7333,140.0102],
    [4704,1525542869,57.3499,-111.7808,438.4,135.4,263.7,-0.9,3.1,13.02,46.86,715.5863,139.9981],
    [4705,1525542870,57.3498,-111.7819,438.6,134.5,263.8,-0.1,2.2,13.27,46.0,715.419,140.0027],
    [4706,1525542871,57.3498,-111.783,440.0,135.7,263.9,0.2,0.2,13.03,46.81,715.2895,139.9956],
    [4707,1525542872,57.3497,-111.7839,441.0,137.0,261.3,-0.6,0.7,12.58,46.72,715.2533,140.0007],
    [4708,1525542873,57.3496,-111.7851,441.5,137.5,252.8,-1.0,3.3,13.46,46.09,715.2233,139.9943],
    [4709,1525542874,57.3494,-111.7861,443.5,141.1,246.2,-0.7,3.6,13.16,46.61,715.2498,139.9997],
    [4710,1525542875,57.3492,-111.7871,445.9,145.3,241.5,-0.7,2.3,13.07,46.37,715.3269,139.9984],
    [4711,1525542876,57.3489,-111.788,447.4,148.3,235.3,-1.0,2.5,13.14,46.22,715.3881,140.0017],
    [4712,1525542877,57.3486,-111.7888,448.3,150.0,227.7,-1.2,4.0,12.79,46.13,715.5618,139.9956],
    [4713,1525542878,57.3482,-111.7896,448.5,149.4,220.6,-0.7,4.6,13.53,45.75,715.6808,139.998],
    [4714,1525542879,57.3478,-111.7903,448.4,149.4,214.8,-0.1,4.2,12.93,45.95,716.0293,139.9927],
    [4715,1525542880,57.3473,-111.7908,447.5,147.5,208.4,-0.4,4.2,13.49,45.92,716.1881,139.9952],
    [4716,1525542881,57.3469,-111.7913,445.9,145.9,201.6,-0.5,4.5,13.34,45.64,716.4274,139.9987],
    [4717,1525542882,57.3463,-111.7916,444.3,144.3,194.5,-0.7,4.7,13.12,45.67,716.857,139.9969],
    [4718,1525542883,57.3458,-111.7919,442.7,142.7,189.5,-0.3,4.4,13.0,45.33,717.2047,139.9989],
    [4719,1525542884,57.3453,-111.792,440.2,139.1,186.3,0.2,4.2,13.11,45.26,717.4151,139.9998],
    [4720,1525542885,57.3447,-111.7921,436.9,135.9,182.6,0.0,4.3,13.36,44.94,717.754,139.9988],
    [4721,1525542886,57.3442,-111.7921,433.7,132.0,179.4,-0.9,3.8,13.04,45.24,717.8863,140.008],
    [4722,1525542887,57.3436,-111.7921,429.7,127.4,178.8,-0.4,3.8,13.63,44.67,717.9813,140.0015],
    [4723,1525542888,57.343,-111.7921,425.6,121.6,179.8,0.6,3.9,12.88,45.16,717.9185,140.0031],
    [4724,1525542889,57.3424,-111.7921,421.7,116.0,179.5,0.1,4.1,13.28,44.63,717.7814,140.0003],
    [4725,1525542890,57.3418,-111.7921,418.7,111.7,179.9,0.6,4.2,13.68,44.14,717.6179,140.0082],
    [4726,1525542891,57.3412,-111.792,416.2,108.2,179.9,0.6,3.8,13.13,44.4,717.3485,140.0045],
    [4727,1525542892,57.3407,-111.792,414.8,105.8,179.9,0.6,3.6,13.41,44.83,717.2003,139.9988],
    [4728,1525542893,57.3401,-111.792,415.2,106.2,180.4,0.6,3.8,13.77,43.67,717.0518,139.9946],
    [4729,1525542894,57.3395,-111.792,416.7,107.7,180.7,0.7,3.5,13.22,43.85,716.8326,140.0066],
    [4730,1525542895,57.3389,-111.792,418.6,109.6,180.9,0.7,2.8,13.52,43.94,716.7542,139.9963],
    [4731,1525542896,57.3383,-111.792,421.4,112.4,179.9,0.0,2.6,13.53,43.72,716.6855,139.9985],
    [4732,1525542897,57.3377,-111.792,424.0,115.0,179.9,0.2,3.0,13.76,43.08,716.473,140.0022],
    [4733,1525542898,57.3372,-111.792,426.0,117.0,179.6,-0.1,3.2,13.47,43.97,716.2717,139.9969],
    [4734,1525542899,57.3366,-111.792,427.8,117.8,179.3,-0.5,3.4,13.67,43.62,716.084,140.004],
    [4735,1525542900,57.336,-111.792,429.1,119.1,180.3,0.3,3.5,13.36,44.02,716.0441,139.9969],
    [4736,1525542901,57.3355,-111.792,430.5,120.5,180.4,-0.1,3.5,13.13,44.34,716.0014,139.9985],
    [4737,1525542902,57.3349,-111.792,432.8,122.8,179.7,-0.6,3.1,13.85,44.16,715.8908,139.9995],
    [4738,1525542903,57.3343,-111.792,435.0,126.1,180.1,0.1,3.0,13.53,44.29,715.9214,139.9919],
    [4739,1525542904,57.3338,-111.792,436.6,128.6,178.7,-1.4,3.2,13.45,44.46,715.9735,139.9968],
    [4740,1525542905,57.3333,-111.792,437.5,132.2,178.5,-0.9,3.5,13.43,44.58,715.948,140.0016],
    [4741,1525542906,57.3326,-111.792,438.9,135.0,180.8,1.4,3.0,13.58,44.89,716.0004,140.0038],
    [4742,1525542907,57.3321,-111.792,439.4,133.4,179.0,-0.6,3.3,13.6,45.37,716.0832,139.9968],
    [4743,1525542908,57.3315,-111.792,439.7,132.0,178.7,-0.7,3.3,13.15,44.63,716.1107,139.997],
    [4744,1525542909,57.331,-111.792,439.3,129.3,180.5,1.3,3.0,13.72,44.54,716.0906,140.0013],
    [4745,1525542910,57.3304,-111.792,438.9,128.9,179.7,0.6,3.0,13.12,44.56,716.074,140.0033],
    [4746,1525542911,57.3298,-111.7919,438.8,128.8,178.8,0.7,2.5,13.46,44.47,715.97,140.0007],
    [4747,1525542912,57.3292,-111.7919,437.9,127.9,179.1,1.9,2.1,13.87,43.83,715.8496,140.0011],
    [4748,1525542913,57.3286,-111.7918,437.3,127.3,176.9,1.8,2.6,12.97,43.86,715.6602,139.9969],
    [4749,1525542914,57.3281,-111.7917,437.4,127.4,174.1,2.1,2.6,13.35,43.66,715.4703,140.0024],
    [4750,1525542915,57.3275,-111.7915,437.8,127.8,169.6,1.7,2.7,13.09,43.47,715.4525,139.997],
    [4751,1525542916,57.327,-111.7912,438.5,128.5,163.7,1.1,2.5,13.34,43.58,715.5547,139.9936],
    [4752,1525542917,57.3264,-111.7909,440.4,130.4,157.5,1.1,2.0,13.59,43.16,715.7354,139.9968],
    [4753,1525542918,57.3259,-111.7904,442.4,132.4,151.6,0.9,1.3,13.51,43.09,715.6996,139.994],
    [4754,1525542919,57.3254,-111.7898,444.2,134.2,145.4,0.0,1.0,13.64,42.89,715.7687,139.9857],
    [4755,1525542920,57.3249,-111.7891,445.2,135.2,141.7,1.1,2.2,13.62,42.79,715.7993,139.9984],
    [4756,1525542921,57.3245,-111.7884,444.6,134.9,138.6,2.3,3.3,13.67,43.47,715.9284,139.9937],
    [4757,1525542922,57.3241,-111.7877,443.1,134.1,132.7,1.9,2.5,13.64,42.96,716.0952,139.9945],
    [4758,1525542923,57.3238,-111.7869,441.7,132.7,127.2,0.9,2.0,13.93,42.6,716.2138,139.9952],
    [4759,1525542924,57.3235,-111.7859,440.8,132.8,119.6,-0.7,2.3,13.41,42.75,716.1599,139.9917],
    [4760,1525542925,57.3232,-111.7848,440.8,132.9,115.2,0.1,3.6,13.71,42.99,716.1553,139.9989],
    [4761,1525542926,57.323,-111.7838,440.0,133.0,111.5,1.0,3.8,13.71,43.31,716.2147,139.9885],
    [4762,1525542927,57.3228,-111.7827,437.7,131.7,106.8,0.6,2.9,13.58,42.75,716.3091,139.9967],
    [4763,1525542928,57.3227,-111.7816,435.6,130.5,102.5,0.4,2.8,13.54,42.88,716.3477,139.9933],
    [4764,1525542929,57.3226,-111.7804,435.6,130.6,100.0,0.1,3.8,13.61,42.78,716.49,140.0018],
    [4765,1525542930,57.3226,-111.7793,436.0,132.0,98.4,0.0,4.6,13.69,42.95,716.6435,139.9972],
    [4766,1525542931,57.3225,-111.7782,435.1,132.1,96.3,-0.1,4.2,13.7,43.58,716.8895,139.9996],
    [4767,1525542932,57.3225,-111.777,434.2,132.3,94.8,-0.5,4.1,13.66,42.84,716.9715,139.9981],
    [4768,1525542933,57.3225,-111.7759,433.3,131.3,94.2,-0.5,4.0,13.84,42.92,717.2134,140.0044],
    [4769,1525542934,57.3225,-111.7747,432.0,131.0,93.2,-0.6,2.9,13.27,42.8,717.2181,140.0061],
    [4770,1525542935,57.3225,-111.7735,430.1,130.1,93.6,-0.3,3.5,13.83,43.11,716.9682,139.9989],
    [4771,1525542936,57.3225,-111.7724,428.0,128.0,93.5,-0.5,3.5,14.01,42.61,716.8127,139.999],
    [4772,1525542937,57.3225,-111.7712,425.3,125.3,93.7,-0.9,4.0,13.57,42.4,716.7679,140.001],
    [4773,1525542938,57.3225,-111.77,423.0,124.0,94.0,-0.8,4.1,13.79,42.46,716.7714,140.0012],
    [4774,1525542939,57.3225,-111.7688,422.9,123.9,93.0,-0.5,2.9,14.31,41.94,716.7766,140.0028],
    [4775,1525542940,57.3224,-111.7677,424.8,125.8,93.5,-1.0,2.9,13.84,42.33,716.85,139.9989],
    [4776,1525542941,57.3224,-111.7665,427.1,129.1,94.2,-1.1,3.2,13.82,43.15,716.8649,140.002],
    [4777,1525542942,57.3224,-111.7653,428.3,130.3,96.1,-0.5,4.9,13.66,42.56,716.9013,139.9997],
    [4778,1525542943,57.3224,-111.7641,428.4,130.4,95.8,-0.8,4.4,13.84,42.72,716.9583,140.001],
    [4779,1525542944,57.3224,-111.7632,428.3,129.3,95.2,-0.6,3.8,13.27,42.68,717.0025,139.9896],
    [4780,1525542945,57.3223,-111.7619,427.6,127.6,95.0,-0.6,3.7,13.82,42.8,716.9113,140.0019],
    [4781,1525542946,57.3223,-111.7607,427.2,126.2,95.3,-0.4,4.3,14.04,42.47,716.896,139.9958],
    [4782,1525542947,57.3223,-111.7595,427.0,125.7,94.9,0.0,4.1,13.77,42.79,716.9116,139.9933],
    [4783,1525542948,57.3223,-111.7584,426.6,124.6,94.0,0.1,3.8,13.98,42.61,716.9421,139.9977],
    [4784,1525542949,57.3223,-111.7572,426.0,124.0,94.2,-0.1,4.7,14.09,42.67,716.9614,139.9989],
    [4785,1525542950,57.3223,-111.756,426.2,124.2,92.3,-0.6,3.3,14.41,42.51,717.0449,139.9996],
    [4786,1525542951,57.3223,-111.7548,426.6,124.6,91.2,-1.2,3.0,13.91,42.74,716.9668,140.001],
    [4787,1525542952,57.3223,-111.7537,426.4,124.4,91.6,-2.0,4.0,13.53,42.58,716.8867,140.0042],
    [4788,1525542953,57.3223,-111.7525,426.2,124.3,90.7,-1.8,3.5,13.81,42.76,716.7211,140.0033],
    [4789,1525542954,57.3223,-111.7513,425.8,124.8,89.8,-1.9,2.9,13.94,43.23,716.643,139.9944],
    [4790,1525542955,57.3224,-111.7501,425.0,124.7,90.1,-2.0,3.6,13.33,42.9,716.3652,139.9996],
    [4791,1525542956,57.3224,-111.749,425.2,125.8,90.3,-1.5,3.7,13.98,43.17,716.244,140.0029],
    [4792,1525542957,57.3224,-111.7478,426.5,127.5,90.6,-1.3,4.0,13.83,42.95,716.1275,140.002],
    [4793,1525542958,57.3225,-111.7466,428.3,130.3,91.6,-1.6,4.7,14.45,42.92,716.0124,140.002],
    [4794,1525542959,57.3225,-111.7454,430.1,133.4,91.1,-1.5,3.8,13.77,43.04,716.0849,139.9942],
    [4795,1525542960,57.3225,-111.7443,432.3,137.6,91.1,-1.6,4.0,14.02,42.74,716.0718,140.0016],
    [4796,1525542961,57.3225,-111.7432,434.7,141.6,90.7,-0.8,3.7,13.9,42.97,716.0177,140.0009],
    [4797,1525542962,57.3226,-111.742,436.3,143.3,89.7,-0.4,3.0,13.32,43.15,716.0217,140.0035],
    [4798,1525542963,57.3226,-111.7409,437.4,145.4,89.4,-0.4,3.5,13.89,43.73,715.9953,139.9995],
    [4799,1525542964,57.3226,-111.7397,437.3,146.3,90.3,-0.5,4.5,13.41,42.98,715.9279,140.0031],
    [4800,1525542965,57.3227,-111.7386,437.4,147.6,89.7,0.2,3.5,14.09,42.64,715.961,140.0],
    [4801,1525542966,57.3227,-111.7374,437.8,147.8,89.9,0.0,2.9,13.85,43.01,715.9645,140.0011],
    [4802,1525542967,57.3227,-111.7363,438.0,149.0,91.2,-0.6,3.7,13.93,42.85,715.9286,140.0053],
    [4803,1525542968,57.3227,-111.7352,437.6,149.6,91.9,-1.3,3.7,14.25,42.45,715.8573,139.9986],
    [4804,1525542969,57.3228,-111.734,438.1,151.1,92.5,-1.6,4.7,13.64,42.99,715.678,140.0033],
    [4805,1525542970,57.3228,-111.7329,438.2,151.2,90.6,-1.4,4.6,14.24,43.0,715.6701,139.995],
    [4806,1525542971,57.3228,-111.7317,438.3,151.3,85.9,-1.3,3.9,13.85,43.86,715.5749,140.0017],
    [4807,1525542972,57.3229,-111.7306,438.9,152.9,80.6,-0.8,3.8,13.73,43.84,715.3381,140.0019],
    [4808,1525542973,57.3231,-111.7295,440.0,154.0,74.9,-0.3,3.5,13.6,43.61,715.2796,139.9901],
    [4809,1525542974,57.3233,-111.7285,441.0,155.0,68.8,-0.3,2.4,13.63,43.77,715.3752,139.9956],
    [4810,1525542975,57.3236,-111.7274,442.5,156.5,62.7,-0.3,2.9,13.89,44.36,715.483,139.9847],
    [4811,1525542976,57.3239,-111.7265,443.9,158.0,57.4,0.1,3.0,13.87,43.12,715.5724,139.993],
    [4812,1525542977,57.3243,-111.7255,446.0,161.0,51.1,-0.2,2.1,13.94,42.57,715.8126,140.0019],
    [4813,1525542978,57.3247,-111.7247,447.2,162.2,47.1,-0.4,2.3,14.07,42.57,715.9309,139.9951],
    [4814,1525542979,57.3252,-111.7239,446.7,161.7,42.6,-0.7,2.7,14.56,42.31,716.1139,139.9941],
    [4815,1525542980,57.3257,-111.7232,445.3,160.5,37.3,-0.6,2.5,13.82,42.71,716.1736,139.9971],
    [4816,1525542981,57.3262,-111.7226,443.9,159.9,31.6,-0.1,2.4,13.39,42.45,716.5715,140.0018],
    [4817,1525542982,57.3267,-111.7221,442.3,159.3,25.5,1.5,2.6,13.8,43.21,716.888,139.9959],
    [4818,1525542983,57.3273,-111.7216,440.3,157.3,21.2,0.3,2.9,13.44,42.85,717.3249,139.9989],
    [4819,1525542984,57.3279,-111.7212,438.6,156.6,16.9,-0.3,2.7,13.42,42.92,717.5897,139.9969],
    [4820,1525542985,57.3285,-111.721,437.0,155.0,13.6,-0.9,2.5,13.8,42.66,718.2004,139.999],
    [4821,1525542986,57.3292,-111.7207,433.8,153.3,9.2,-0.4,3.2,13.55,43.26,718.3671,140.0023],
    [4822,1525542987,57.3298,-111.7206,430.0,150.7,5.0,0.6,3.5,14.36,42.97,718.6244,139.9983],
    [4823,1525542988,57.3304,-111.7205,425.7,148.7,362.1,0.5,3.2,13.94,43.0,718.7102,140.0044],
    [4824,1525542989,57.3311,-111.7205,421.0,145.6,360.7,-0.1,2.9,13.55,43.4,718.6805,140.0004],
    [4825,1525542990,57.3317,-111.7205,415.9,146.2,359.9,-0.5,3.0,13.82,43.96,718.7165,140.0],
    [4826,1525542991,57.3324,-111.7205,411.2,145.6,359.3,-0.3,3.3,13.83,43.44,718.7812,139.9943],
    [4827,1525542992,57.3331,-111.7205,408.1,146.5,359.0,-0.5,3.4,13.56,43.83,718.8416,140.0041],
    [4828,1525542993,57.3337,-111.7206,406.7,145.7,358.8,-0.6,3.3,14.14,43.25,718.9063,139.998],
    [4829,1525542994,57.3344,-111.7206,406.6,146.5,359.2,-1.2,3.4,13.59,44.11,718.9464,140.0006],
    [4830,1525542995,57.3351,-111.7207,406.4,145.5,359.5,-1.2,3.4,13.8,43.58,718.8434,140.0035],
    [4831,1525542996,57.3358,-111.7207,405.9,143.7,359.5,-1.1,3.3,13.72,43.64,718.692,139.9993],
    [4832,1525542997,57.3364,-111.7207,405.1,140.0,359.2,-0.7,3.1,13.76,43.76,718.3325,140.0035],
    [4833,1525542998,57.3371,-111.7207,404.4,138.0,358.7,-0.4,2.8,13.64,43.76,718.2502,139.9949],
    [4834,1525542999,57.3377,-111.7208,403.7,135.8,359.0,-0.8,2.8,13.22,43.91,717.8975,139.9946],
    [4835,1525543000,57.3384,-111.7208,404.3,135.7,358.4,-0.1,2.8,13.54,43.93,717.8042,140.0029],
    [4836,1525543001,57.339,-111.7208,406.3,138.6,359.3,-1.2,3.1,13.45,44.12,717.6887,140.0044],
    [4837,1525543002,57.3397,-111.7209,409.3,143.3,360.2,-1.8,3.1,13.65,43.99,717.6403,139.9986],
    [4838,1525543003,57.3404,-111.7209,412.0,147.0,359.6,-0.8,2.4,13.5,43.86,717.7187,140.0075],
    [4839,1525543004,57.341,-111.7209,414.5,149.6,359.3,-0.6,2.5,14.33,43.57,717.7281,140.0059],
    [4840,1525543005,57.3417,-111.7209,416.9,150.8,359.9,-1.3,3.0,13.73,44.2,717.6788,140.0049],
    [4841,1525543006,57.3423,-111.721,418.5,152.0,360.0,-1.6,3.3,14.17,43.7,717.654,140.0072],
    [4842,1525543007,57.3429,-111.721,419.1,150.1,359.1,-1.9,3.1,13.85,43.9,717.543,139.9989],
    [4843,1525543008,57.3436,-111.7211,419.3,146.4,356.1,-1.9,3.5,13.41,43.76,717.3074,140.0024],
    [4844,1525543009,57.3442,-111.7212,419.2,143.5,351.0,-0.7,4.5,13.69,43.84,717.0833,140.0029],
    [4845,1525543010,57.3448,-111.7215,419.1,140.2,344.0,0.6,4.5,13.64,43.71,716.9895,140.0011],
    [4846,1525543011,57.3454,-111.7218,419.8,140.9,339.0,-0.6,4.0,13.47,44.03,716.8703,139.9936],
    [4847,1525543012,57.346,-111.7223,421.6,142.6,333.5,-0.8,3.4,13.91,43.35,716.8162,139.9963],
    [4848,1525543013,57.3465,-111.7228,423.5,145.5,327.3,-0.2,2.8,13.48,43.37,716.8141,140.005],
    [4849,1525543014,57.3471,-111.7235,425.6,147.6,320.9,-0.1,3.2,13.73,43.96,716.8485,139.9928],
    [4850,1525543015,57.3475,-111.7242,427.3,149.0,314.8,-0.5,3.8,13.29,43.34,716.9753,139.9975],
    [4851,1525543016,57.3479,-111.725,428.8,150.7,309.5,-0.7,3.0,13.67,43.25,717.224,139.9978],
    [4852,1525543017,57.3483,-111.7259,429.5,152.9,304.3,-0.1,2.9,13.1,43.59,717.4564,140.0064],
    [4853,1525543018,57.3487,-111.7268,429.6,154.3,299.7,-0.2,3.7,13.58,43.73,717.5774,140.001],
    [4854,1525543019,57.349,-111.7278,429.2,157.1,295.5,0.2,3.8,13.7,43.64,717.6405,140.0009],
    [4855,1525543020,57.3492,-111.7288,428.0,156.1,293.1,0.4,2.9,13.64,44.17,717.7449,140.0049],
    [4856,1525543021,57.3495,-111.7298,425.2,153.2,291.1,-0.2,2.5,13.08,44.07,717.7179,139.999],
    [4857,1525543022,57.3497,-111.7309,422.3,150.3,287.4,-0.2,3.3,13.63,44.0,717.6283,140.0033],
    [4858,1525543023,57.3499,-111.7319,420.7,148.0,284.2,-0.1,3.6,14.1,44.18,717.4672,140.0065],
    [4859,1525543024,57.3501,-111.733,419.6,145.3,281.9,-0.3,3.1,13.48,44.22,717.3441,139.9997],
    [4860,1525543025,57.3502,-111.7342,418.8,142.3,278.9,-0.7,3.7,13.73,43.84,717.2842,139.9982],
    [4861,1525543026,57.3503,-111.7353,418.8,141.9,276.1,-0.6,3.9,12.86,44.15,717.2371,139.9959],
    [4862,1525543027,57.3504,-111.7363,419.6,141.6,273.8,-0.4,3.8,13.4,44.1,717.1506,140.0021],
    [4863,1525543028,57.3505,-111.7375,421.2,141.1,271.0,-0.5,4.5,13.45,44.25,717.033,139.998],
    [4864,1525543029,57.3505,-111.7386,422.8,141.8,269.6,-0.8,4.2,14.02,43.69,716.9092,140.0045],
    [4865,1525543030,57.3505,-111.7396,424.1,142.1,268.6,-1.0,4.2,13.84,43.96,716.866,139.9996],
    [4866,1525543031,57.3505,-111.7407,424.7,141.7,267.9,-0.6,4.1,14.02,43.86,716.8639,139.9961],
    [4867,1525543032,57.3506,-111.7418,425.4,141.4,267.6,0.0,4.0,13.62,45.01,716.9126,140.0002],
    [4868,1525543033,57.3506,-111.7429,426.5,141.5,267.6,-0.4,3.5,14.15,44.33,716.9182,139.9994],
    [4869,1525543034,57.3506,-111.7439,427.9,141.9,266.7,-0.5,4.3,13.49,44.6,716.876,140.001],
    [4870,1525543035,57.3506,-111.7451,428.9,142.0,265.4,-0.6,5.1,13.46,44.74,716.8234,140.0024],
    [4871,1525543036,57.3506,-111.7462,429.1,141.1,265.8,-0.8,4.3,13.31,44.96,716.697,140.002],
    [4872,1525543037,57.3506,-111.7472,428.7,139.9,265.5,-0.9,4.2,13.59,44.76,716.572,139.9997],
    [4873,1525543038,57.3506,-111.7483,428.7,139.7,264.5,-1.2,4.3,13.44,45.47,716.2473,140.0019],
    [4874,1525543039,57.3505,-111.7494,428.9,138.9,264.3,-0.8,4.0,13.3,45.13,716.1896,140.0014],
    [4875,1525543040,57.3505,-111.7505,429.7,138.5,263.7,-0.1,4.1,13.24,45.57,715.9138,139.997],
    [4876,1525543041,57.3505,-111.7515,431.3,138.3,262.7,-0.3,4.4,13.52,45.06,715.7759,140.0018],
    [4877,1525543042,57.3504,-111.7525,433.1,139.2,262.9,-0.4,3.2,13.54,44.93,715.6761,140.0042],
    [4878,1525543043,57.3504,-111.7536,435.9,140.9,263.2,-0.6,2.5,13.59,45.32,715.6081,139.9952],
    [4879,1525543044,57.3504,-111.7547,438.5,143.5,263.0,-0.9,2.6,13.72,44.93,715.4883,140.0014],
    [4880,1525543045,57.3503,-111.7557,440.6,144.6,263.9,-1.0,1.9,13.5,45.24,715.2603,140.0025],
    [4881,1525543046,57.3503,-111.7568,442.0,146.0,263.8,-0.4,2.4,13.49,45.83,715.1979,140.0008],
    [4882,1525543047,57.3502,-111.7579,443.1,147.1,262.8,-0.5,3.5,13.78,45.09,714.9579,139.9919],
    [4883,1525543048,57.3502,-111.7589,444.3,148.3,263.7,-0.5,2.6,13.68,45.37,715.0043,139.993],
    [4884,1525543049,57.3502,-111.7599,445.6,149.6,263.3,-0.6,3.1,13.34,45.81,715.2472,140.0014],
    [4885,1525543050,57.3501,-111.7609,447.2,151.2,262.5,-0.4,4.0,13.23,45.74,715.6469,139.9914],
    [4886,1525543051,57.3501,-111.762,449.2,153.2,262.6,-0.3,3.7,13.59,45.79,716.1447,140.0103],
    [4887,1525543052,57.35,-111.7631,450.9,154.9,264.5,-0.1,1.9,13.23,45.74,716.3149,139.9985],
    [4888,1525543053,57.35,-111.7641,451.2,155.2,264.3,-0.9,1.7,13.29,46.19,716.5116,140.0018],
    [4889,1525543054,57.35,-111.7652,448.9,153.8,262.2,-0.9,3.4,13.45,46.23,716.6547,140.0008],
    [4890,1525543055,57.3499,-111.7662,444.6,151.7,261.0,-0.1,3.8,13.36,46.9,716.8206,139.9963],
    [4891,1525543056,57.3498,-111.7673,439.7,149.0,261.3,0.3,3.2,13.89,45.88,716.8615,140.0032],
    [4892,1525543057,57.3498,-111.7684,435.5,144.5,261.7,-0.5,2.9,13.58,46.29,716.897,139.9965],
    [4893,1525543058,57.3497,-111.7694,433.8,141.9,261.9,-0.8,3.2,14.06,45.8,716.8952,140.0034],
    [4894,1525543059,57.3497,-111.7706,432.0,138.0,261.2,-0.7,3.9,13.44,46.3,716.7934,139.9939],
    [4895,1525543060,57.3496,-111.7714,430.2,134.1,261.1,-0.8,3.8,13.5,45.86,716.846,139.9944],
    [4896,1525543061,57.3496,-111.7727,428.8,131.8,261.5,-0.5,3.3,13.36,46.16,716.9372,140.0048],
    [4897,1525543062,57.3495,-111.7737,428.3,130.3,262.5,0.1,2.4,13.26,46.18,716.964,139.9953],
    [4898,1525543063,57.3495,-111.7749,428.3,129.2,263.3,-0.3,1.7,13.41,46.13,716.9773,139.9987],
    [4899,1525543064,57.3494,-111.776,429.1,130.1,263.1,-1.1,1.9,13.95,45.77,716.9746,140.0009],
    [4900,1525543065,57.3493,-111.7771,428.9,128.9,262.3,-0.2,2.9,13.22,45.83,716.9922,139.993],
    [4901,1525543066,57.3493,-111.7781,428.2,127.2,260.7,-0.2,4.5,13.75,45.86,717.0306,140.0007],
    [4902,1525543067,57.3492,-111.7793,427.8,125.7,261.1,-0.3,3.4,13.36,46.1,717.0318,140.0042],
    [4903,1525543068,57.3492,-111.7804,427.7,125.4,262.0,-0.7,2.1,13.67,45.81,716.9268,140.007],
    [4904,1525543069,57.3491,-111.7815,427.5,125.5,261.5,-0.9,2.8,13.59,45.74,716.7726,140.0086],
    [4905,1525543070,57.349,-111.7826,427.1,125.8,260.7,-0.6,3.1,13.19,46.1,716.5483,140.0034],
    [4906,1525543071,57.349,-111.7836,426.7,126.4,261.1,-0.1,1.3,13.44,46.54,716.2306,140.0077],
    [4907,1525543072,57.3489,-111.7848,426.5,127.5,257.2,0.0,1.5,13.15,45.77,716.0071,139.9984],
    [4908,1525543073,57.3487,-111.7859,427.4,128.4,251.2,0.1,1.9,13.36,45.9,715.8432,139.9957],
    [4909,1525543074,57.3485,-111.7869,429.3,130.6,244.6,-0.5,2.1,13.23,45.19,715.9015,139.9999],
    [4910,1525543075,57.3482,-111.7879,432.2,133.5,236.6,-0.2,2.5,12.96,45.37,715.937,140.0007],
    [4911,1525543076,57.3479,-111.7887,435.2,136.2,229.6,0.1,2.5,13.4,45.56,715.9434,139.9988],
    [4912,1525543077,57.3475,-111.7895,438.3,138.2,222.3,1.1,2.4,13.07,45.58,716.2578,139.9927],
    [4913,1525543078,57.3471,-111.7901,440.4,140.4,215.6,1.5,2.7,13.47,45.55,716.53,139.9943],
    [4914,1525543079,57.3466,-111.7907,440.8,140.8,206.8,1.2,3.2,13.34,45.12,716.9638,140.0014],
    [4915,1525543080,57.3461,-111.7911,440.2,140.2,199.4,0.8,2.2,13.72,44.62,717.2819,140.0038],
    [4916,1525543081,57.3456,-111.7913,438.8,138.8,191.6,-0.8,2.7,13.38,44.48,717.6609,140.0025],
    [4917,1525543082,57.345,-111.7915,436.7,136.8,186.0,-0.6,3.2,13.09,44.72,717.679,140.0021],
    [4918,1525543083,57.3445,-111.7916,434.4,133.4,183.8,0.4,3.6,13.44,44.29,717.5375,140.0037],
    [4919,1525543084,57.3439,-111.7916,429.1,128.3,180.6,0.0,3.3,13.52,44.49,717.4736,139.9996],
    [4920,1525543085,57.3433,-111.7916,423.8,120.9,177.6,-1.5,2.6,13.5,44.46,717.5151,139.9944],
    [4921,1525543086,57.3427,-111.7916,420.4,115.6,177.4,-1.0,2.5,13.49,44.05,717.5005,140.0042],
    [4922,1525543087,57.3422,-111.7916,419.0,113.0,178.7,-0.1,2.6,14.16,43.55,717.4852,139.9975],
    [4923,1525543088,57.3416,-111.7916,419.6,111.9,179.3,-0.4,2.6,13.73,43.39,717.4241,139.9987],
    [4924,1525543089,57.3409,-111.7916,420.6,112.6,181.6,1.2,3.0,13.65,44.33,717.317,140.0049],
    [4925,1525543090,57.3404,-111.7916,420.7,111.7,181.8,0.7,2.8,13.51,44.04,717.2628,139.9995],
    [4926,1525543091,57.3398,-111.7916,420.9,111.9,180.7,-0.5,3.0,13.83,43.87,717.1841,140.0029],
    [4927,1525543092,57.3392,-111.7916,421.0,112.0,181.6,0.5,3.4,13.93,43.81,717.1424,139.9996],
    [4928,1525543093,57.3386,-111.7916,421.4,113.4,181.7,0.3,3.7,13.22,44.24,717.1468,140.0001],
    [4929,1525543094,57.338,-111.7917,422.2,113.2,181.9,0.5,3.6,13.64,44.49,717.1834,140.0033],
    [4930,1525543095,57.3375,-111.7917,423.3,114.3,182.7,1.2,3.2,13.81,43.76,717.1783,139.9961],
    [4931,1525543096,57.3369,-111.7917,424.4,115.2,182.2,0.6,3.1,13.09,43.6,717.1875,140.0026],
    [4932,1525543097,57.3363,-111.7918,425.0,115.0,182.7,0.9,2.9,13.0,43.56,717.1752,139.9989],
    [4933,1525543098,57.3357,-111.7918,425.2,115.2,182.8,0.9,2.8,13.93,42.84,717.1651,140.0032],
    [4934,1525543099,57.3351,-111.7919,425.0,115.0,182.8,0.7,3.0,14.39,42.62,717.1296,139.9997],
    [4935,1525543100,57.3346,-111.7919,424.7,115.0,182.9,0.7,2.6,13.7,42.72,717.1076,140.0004],
    [4936,1525543101,57.334,-111.7919,424.7,116.3,182.9,0.9,2.8,13.26,42.86,717.0281,140.0065],
    [4937,1525543102,57.3334,-111.792,424.7,118.0,183.0,1.1,3.0,13.8,42.82,716.8951,140.0026],
    [4938,1525543103,57.3329,-111.792,424.9,119.9,182.5,0.8,3.0,13.1,42.51,716.7447,140.001],
    [4939,1525543104,57.3323,-111.7921,425.3,120.7,182.3,0.6,2.9,13.58,42.74,716.7075,139.9991],
    [4940,1525543105,57.3317,-111.7921,425.6,119.4,182.5,0.9,2.9,13.64,42.37,716.6923,139.9963],
    [4941,1525543106,57.3311,-111.7921,426.6,117.6,182.0,0.5,2.7,14.17,41.92,716.7318,139.9983],
    [4942,1525543107,57.3306,-111.7921,428.0,118.0,181.4,0.0,2.2,13.49,42.03,716.7358,140.0017],
    [4943,1525543108,57.3301,-111.7922,429.4,119.4,181.2,0.0,1.9,13.76,42.7,716.6287,139.9992],
    [4944,1525543109,57.3294,-111.7922,430.6,120.6,181.7,0.3,1.4,14.21,42.16,716.5179,139.9911],
    [4945,1525543110,57.3289,-111.7922,430.8,120.8,181.7,-0.1,1.7,13.53,42.27,716.4187,140.0013],
    [4946,1525543111,57.3283,-111.7923,430.5,120.5,181.8,-0.1,1.8,13.36,42.31,716.4219,140.001],
    [4947,1525543112,57.3277,-111.7923,430.3,120.3,182.3,0.5,1.3,13.65,42.25,716.3926,139.9975],
    [4948,1525543113,57.3272,-111.7923,431.1,121.1,182.3,0.6,1.5,13.44,42.27,716.4345,139.9983],
    [4949,1525543114,57.3266,-111.7924,432.3,122.3,181.8,0.2,2.0,13.74,42.11,716.5128,140.0028],
    [4950,1525543115,57.3261,-111.7924,433.5,123.5,181.8,0.1,2.4,13.89,42.17,716.5095,139.9996],
    [4951,1525543116,57.3255,-111.7924,433.9,123.9,182.4,0.7,2.4,13.99,41.66,716.4547,140.0001],
    [4952,1525543117,57.3249,-111.7925,434.0,123.0,184.0,2.2,2.1,13.34,42.26,716.3151,140.016],
    [4953,1525543118,57.3243,-111.7925,433.5,122.5,185.0,3.2,2.9,13.3,42.22,716.1942,140.0043],
    [4954,1525543119,57.3238,-111.7925,433.0,122.0,184.1,2.3,2.3,13.47,42.38,716.1167,140.0014],
    [4955,1525543120,57.3232,-111.7926,433.1,122.1,183.3,1.7,1.9,13.73,41.91,716.0075,140.0005],
    [4956,1525543121,57.3226,-111.7926,433.6,122.6,183.1,1.6,2.2,13.64,41.57,715.7709,139.9998],
    [4957,1525543122,57.3221,-111.7926,434.7,123.7,182.8,1.5,3.1,13.54,41.6,715.8057,139.9929],
    [4958,1525543123,57.3215,-111.7927,435.8,124.8,182.5,1.2,3.1,14.03,41.26,715.6958,140.0],
    [4959,1525543124,57.321,-111.7927,436.9,125.7,182.1,1.0,3.1,13.76,41.85,715.5244,139.9922],
    [4960,1525543125,57.3204,-111.7927,438.5,126.5,181.8,0.9,2.9,14.53,40.98,715.4707,139.9944],
    [4961,1525543126,57.3198,-111.7927,440.1,128.1,180.6,0.1,2.2,14.27,40.99,715.4347,140.0038],
    [4962,1525543127,57.3192,-111.7927,440.9,128.9,180.3,0.1,2.7,14.0,41.24,715.2877,140.0019],
    [4963,1525543128,57.3186,-111.7928,441.5,129.5,180.6,0.0,2.6,14.05,41.97,715.1227,139.9999],
    [4964,1525543129,57.3181,-111.7928,442.8,130.8,180.8,-0.1,2.8,14.16,41.17,714.9507,139.9944],
    [4965,1525543130,57.3175,-111.7928,443.8,131.8,182.0,0.7,4.2,13.87,41.97,714.782,139.9965],
    [4966,1525543131,57.3169,-111.7928,444.7,132.7,181.8,0.1,3.9,14.16,41.07,714.6561,140.0023],
    [4967,1525543132,57.3163,-111.7929,446.1,134.1,183.5,1.5,3.0,14.16,41.11,714.6007,139.9941],
    [4968,1525543133,57.3157,-111.7929,447.6,135.6,184.0,0.7,2.7,13.81,41.34,714.4441,140.0035],
    [4969,1525543134,57.3152,-111.793,449.5,137.5,183.8,-0.5,3.0,13.88,41.45,714.404,139.9905],
    [4970,1525543135,57.3146,-111.7931,451.6,139.6,185.5,-0.4,2.8,14.07,41.82,714.1033,140.0065],
    [4971,1525543136,57.314,-111.7932,453.2,141.2,187.6,0.3,2.9,13.88,41.72,713.9868,140.0002],
    [4972,1525543137,57.3134,-111.7934,454.1,142.1,190.7,1.5,3.1,13.85,41.82,713.7702,139.9985],
    [4973,1525543138,57.3129,-111.7936,455.3,143.3,192.1,0.8,3.4,13.53,41.68,713.5159,140.0038],
    [4974,1525543139,57.3123,-111.7938,456.7,144.7,194.6,1.4,3.3,13.81,41.83,713.3747,139.9978],
    [4975,1525543140,57.3117,-111.7941,458.8,146.8,196.6,0.8,3.5,13.87,41.56,713.2675,139.9977],
    [4976,1525543141,57.3112,-111.7945,461.0,148.0,198.7,0.7,3.6,14.04,42.19,713.1223,140.0105],
    [4977,1525543142,57.3106,-111.7948,463.0,150.0,203.0,2.0,2.4,13.92,42.12,712.8827,139.9975],
    [4978,1525543143,57.3101,-111.7953,465.7,152.7,205.1,0.8,3.5,13.98,41.51,712.6651,139.9959],
    [4979,1525543144,57.3096,-111.7958,468.6,155.6,208.5,1.4,4.1,14.12,41.21,712.4541,139.9991],
    [4980,1525543145,57.309,-111.7964,470.1,157.1,213.7,3.1,3.6,14.02,41.39,711.9868,139.9996],
    [4981,1525543146,57.3086,-111.797,471.7,159.7,216.5,0.6,4.1,13.87,41.37,711.7878,139.9919],
    [4982,1525543147,57.3082,-111.7976,474.1,161.9,220.4,0.4,3.8,14.4,41.41,711.4801,140.0005],
    [4983,1525543148,57.3077,-111.7984,476.4,164.4,225.2,1.6,3.6,14.03,41.55,711.2228,140.0091],
    [4984,1525543149,57.3073,-111.7992,479.4,167.4,228.2,1.3,5.2,13.97,41.93,710.7022,139.9991],
    [4985,1525543150,57.307,-111.8001,483.2,171.2,232.1,0.9,4.6,14.1,42.19,710.5849,139.9866],
    [4986,1525543151,57.3067,-111.8009,486.8,174.9,236.8,1.1,3.9,13.95,42.05,710.2807,140.0027],
    [4987,1525543152,57.3064,-111.8019,490.4,178.1,241.6,1.1,3.5,14.36,41.53,710.2087,140.0109],
    [4988,1525543153,57.3062,-111.8029,493.9,181.9,244.8,0.3,4.4,13.38,41.7,710.1002,139.9892],
    [4989,1525543154,57.306,-111.804,498.1,186.1,247.4,1.6,6.4,14.02,41.63,710.1614,140.0018],
    [4990,1525543155,57.3058,-111.805,501.6,189.6,252.2,2.1,4.9,13.89,41.76,710.2855,139.9961],
    [4991,1525543156,57.3057,-111.806,504.5,191.6,255.3,1.1,5.7,14.33,41.16,710.2229,139.9974],
    [4992,1525543157,57.3056,-111.8071,506.8,193.8,258.2,0.6,6.1,14.06,42.18,710.1271,139.9917],
    [4993,1525543158,57.3056,-111.8082,507.6,194.6,263.6,0.1,4.7,14.32,41.6,710.1369,139.9935],
    [4994,1525543159,57.3056,-111.8093,507.6,194.6,268.1,0.2,4.4,13.48,41.75,710.0681,140.004],
    [4995,1525543160,57.3056,-111.8103,506.8,193.8,273.5,-0.5,2.7,14.13,41.33,710.0129,140.0022],
    [4996,1525543161,57.3057,-111.8115,506.3,193.3,277.6,-0.8,3.2,14.0,41.58,710.0531,139.9904],
    [4997,1525543162,57.3058,-111.8125,506.9,193.0,280.8,0.4,3.9,13.81,41.71,710.057,139.9919],
    [4998,1525543163,57.306,-111.8136,507.6,193.6,285.5,-0.1,2.7,13.9,41.83,709.9611,140.0064],
    [4999,1525543164,57.3062,-111.8146,507.9,192.9,288.7,0.0,3.4,13.95,42.3,709.9217,139.9898],
    [5000,1525543165,57.3064,-111.8157,508.3,192.8,291.2,1.2,4.4,13.6,41.9,709.7318,139.9989],
    [5001,1525543166,57.3067,-111.8166,508.2,192.2,295.0,2.1,3.1,14.58,41.19,709.6605,139.9932],
    [5002,1525543167,57.307,-111.8176,508.0,191.0,299.9,1.7,3.3,14.2,41.8,709.6563,139.9992],
    [5003,1525543168,57.3074,-111.8186,508.8,190.8,302.8,2.3,4.1,14.26,40.91,709.767,139.9889],
    [5004,1525543169,57.3077,-111.8195,509.7,190.7,307.3,1.2,3.0,13.74,41.65,709.9413,139.9939],
    [5005,1525543170,57.3081,-111.8203,511.0,192.0,311.1,1.3,2.8,13.72,41.57,710.0421,139.9974],
    [5006,1525543171,57.3086,-111.8211,512.3,193.3,314.5,1.6,2.6,13.85,42.23,710.0617,140.0081],
    [5007,1525543172,57.3091,-111.8219,512.7,194.7,318.5,1.2,2.6,13.64,41.82,709.9756,140.0045],
    [5008,1525543173,57.3096,-111.8226,510.9,193.9,322.9,1.6,1.9,13.51,42.14,709.5975,139.9956],
    [5009,1525543174,57.3101,-111.8232,509.2,191.9,326.9,2.2,1.3,14.09,41.59,709.3758,140.0053],
    [5010,1525543175,57.3106,-111.8238,508.0,190.0,331.7,0.9,1.3,13.8,42.19,709.1106,140.0113],
    [5011,1525543176,57.3112,-111.8243,507.8,189.8,336.7,-0.4,1.2,13.83,41.75,708.8188,139.9908],
    [5012,1525543177,57.3118,-111.8247,508.7,189.7,340.5,-0.4,2.0,13.82,42.41,708.558,139.9919],
    [5013,1525543178,57.3125,-111.8251,512.0,193.0,343.0,0.5,1.9,13.72,41.74,708.4707,139.9914],
    [5014,1525543179,57.3131,-111.8254,515.4,196.4,346.2,-0.4,2.0,13.93,41.26,708.5174,139.9986],
    [5015,1525543180,57.3136,-111.8256,518.2,199.2,346.6,1.6,3.1,13.81,41.4,708.4832,140.0035],
    [5016,1525543181,57.3143,-111.8258,521.9,202.9,347.5,3.0,3.0,13.89,41.75,708.2904,140.0028],
    [5017,1525543182,57.3149,-111.826,524.7,205.8,350.6,1.5,2.0,14.14,41.52,708.1489,139.9909],
    [5018,1525543183,57.3155,-111.8262,525.6,207.6,351.5,2.1,1.5,13.89,41.97,707.9998,140.0144],
    [5019,1525543184,57.3162,-111.8263,526.1,208.1,352.3,2.1,1.7,13.85,42.7,708.1468,140.0108],
    [5020,1525543185,57.3168,-111.8264,526.3,208.3,354.5,0.8,2.1,13.75,42.57,708.2913,139.9985],
    [5021,1525543186,57.3175,-111.8265,527.3,209.3,353.6,2.7,2.1,13.71,42.45,708.2553,140.0039],
    [5022,1525543187,57.3181,-111.8266,529.4,211.4,355.0,0.9,1.2,13.69,42.27,708.2509,140.0039],
    [5023,1525543188,57.3187,-111.8266,530.7,212.7,355.5,0.8,2.6,13.61,42.42,708.381,139.9987],
    [5024,1525543189,57.3193,-111.8267,530.5,212.5,351.7,3.9,3.9,13.65,42.7,708.5127,139.9967],
    [5025,1525543190,57.3199,-111.8268,529.7,211.7,351.3,3.5,3.6,13.81,42.13,708.6425,140.0035],
    [5026,1525543191,57.3206,-111.8269,529.3,212.3,350.0,3.8,4.2,13.57,43.01,708.5619,139.9993],
    [5027,1525543192,57.3213,-111.8271,529.6,212.6,349.5,3.5,5.0,13.67,42.12,708.3921,140.0007],
    [5028,1525543193,57.3219,-111.8272,528.7,210.0,350.2,2.3,4.9,13.96,41.83,708.2029,139.9935],
    [5029,1525543194,57.3225,-111.8274,527.1,207.2,350.7,1.5,3.9,13.45,42.36,708.0864,139.9967],
    [5030,1525543195,57.3232,-111.8276,525.5,204.5,351.3,0.4,4.6,13.72,42.27,707.85,139.9987],
    [5031,1525543196,57.3238,-111.8277,525.2,205.3,351.3,0.4,5.2,14.12,41.71,707.7543,139.9975],
    [5032,1525543197,57.3244,-111.8279,526.3,206.3,349.6,2.3,4.0,13.51,42.45,707.5465,139.9967],
    [5033,1525543198,57.3251,-111.8281,529.0,209.0,350.5,1.1,3.3,13.55,42.29,707.4184,139.9939],
    [5034,1525543199,57.3258,-111.8282,531.1,211.9,350.6,1.1,3.3,14.1,42.33,707.2315,140.0021],
    [5035,1525543200,57.3264,-111.8284,533.0,214.0,349.6,1.9,3.4,13.52,42.22,707.1249,140.0013],
    [5036,1525543201,57.327,-111.8286,535.0,216.0,350.2,1.4,3.4,13.39,42.36,706.9821,140.0032],
    [5037,1525543202,57.3277,-111.8287,536.9,217.9,350.1,1.7,3.4,13.62,42.31,706.7888,139.9974],
    [5038,1525543203,57.3283,-111.8289,538.9,218.9,351.4,0.4,3.2,13.62,42.24,706.6561,140.0002],
    [5039,1525543204,57.329,-111.8291,540.7,220.7,352.2,-0.2,3.2,13.47,42.08,706.5133,139.9967],
    [5040,1525543205,57.3296,-111.8292,542.4,222.4,351.4,0.5,3.3,13.31,42.32,706.317,139.9975],
    [5041,1525543206,57.3302,-111.8294,544.3,224.3,351.7,-0.1,3.3,13.82,42.15,706.0726,139.9977],
    [5042,1525543207,57.3308,-111.8295,545.8,225.8,350.9,0.8,3.3,13.05,42.53,705.6448,140.0011],
    [5043,1525543208,57.3315,-111.8297,547.6,227.6,350.2,1.9,2.2,13.55,42.78,705.5789,139.9964],
    [5044,1525543209,57.3321,-111.8299,549.9,228.9,351.1,1.5,1.8,13.73,42.49,705.4806,139.9939],
    [5045,1525543210,57.3327,-111.83,552.2,231.2,351.6,1.3,1.7,13.49,42.54,705.4551,139.9906],
    [5046,1525543211,57.3333,-111.8302,555.0,233.7,352.2,1.1,2.0,13.0,42.98,705.3655,140.0021],
    [5047,1525543212,57.334,-111.8303,558.0,236.0,352.0,1.6,2.8,13.81,42.13,705.3314,140.0019],
    [5048,1525543213,57.3346,-111.8304,560.5,238.5,352.0,1.2,2.9,13.17,42.68,705.1906,139.9993],
    [5049,1525543214,57.3352,-111.8305,561.9,238.9,353.7,-0.6,1.7,13.11,42.88,705.0271,139.995],
    [5050,1525543215,57.3358,-111.8307,562.4,239.4,354.0,-0.7,1.7,13.44,42.97,704.9199,140.0027],
    [5051,1525543216,57.3364,-111.8308,563.1,240.9,352.5,0.8,1.6,13.53,43.54,704.8379,139.9981],
    [5052,1525543217,57.337,-111.8309,564.0,242.0,352.2,0.7,2.1,13.54,43.19,704.787,140.0001],
    [5053,1525543218,57.3376,-111.8311,565.1,243.1,351.8,0.7,2.5,13.24,43.25,704.7996,140.0012],
    [5054,1525543219,57.3382,-111.8312,566.6,244.6,351.1,1.0,1.6,13.45,43.21,704.7243,140.0017],
    [5055,1525543220,57.3389,-111.8314,568.0,246.0,351.0,0.8,1.6,13.55,43.68,704.6106,139.9933],
    [5056,1525543221,57.3395,-111.8316,569.1,248.1,350.3,1.4,1.7,13.27,43.56,704.6382,140.0019],
    [5057,1525543222,57.3401,-111.8317,569.8,249.8,349.5,2.2,1.6,12.77,43.65,704.5657,140.0015],
    [5058,1525543223,57.3407,-111.8319,570.2,251.2,349.2,2.3,1.5,13.29,43.61,704.5792,140.0018],
    [5059,1525543224,57.3414,-111.8321,570.3,252.3,349.1,2.3,1.8,13.19,43.63,704.4294,140.002],
    [5060,1525543225,57.3419,-111.8322,571.2,253.2,349.0,1.9,2.7,13.03,43.69,704.3384,140.0052],
    [5061,1525543226,57.3426,-111.8324,571.9,252.1,349.2,2.0,2.6,13.23,43.53,704.2635,140.0025],
    [5062,1525543227,57.3432,-111.8326,572.3,250.9,348.1,3.1,2.5,13.33,43.5,704.0534,139.9999],
    [5063,1525543228,57.3438,-111.8328,572.4,249.4,348.9,2.0,2.2,12.73,43.51,703.7975,140.0001],
    [5064,1525543229,57.3445,-111.833,573.5,249.5,349.9,0.8,2.0,13.64,43.28,703.6883,139.998],
    [5065,1525543230,57.345,-111.8331,575.0,250.0,348.9,1.5,2.3,13.11,43.74,703.3863,139.9963],
    [5066,1525543231,57.3456,-111.8333,576.6,251.2,347.6,2.6,2.9,13.14,44.31,703.2441,140.0005],
    [5067,1525543232,57.3462,-111.8335,578.3,252.3,347.1,2.7,3.2,13.29,43.9,702.9962,140.0061],
    [5068,1525543233,57.3469,-111.8338,580.4,254.4,348.0,1.8,3.0,12.97,44.13,702.8687,140.0027],
    [5069,1525543234,57.3475,-111.834,582.8,256.8,347.7,2.3,2.6,13.34,43.76,702.7758,139.9879],
    [5070,1525543235,57.3481,-111.8342,585.6,259.6,348.6,1.5,1.7,13.4,44.02,702.6039,139.9966],
    [5071,1525543236,57.3487,-111.8343,588.1,262.1,349.7,0.4,2.2,13.35,44.13,702.5236,139.9958],
    [5072,1525543237,57.3493,-111.8345,590.4,264.4,348.6,1.6,3.4,13.08,44.82,702.4091,140.0046],
    [5073,1525543238,57.3499,-111.8347,592.5,266.5,347.6,2.0,3.1,13.11,44.27,702.281,140.0034],
    [5074,1525543239,57.3505,-111.8349,594.1,268.1,348.4,1.2,2.5,12.96,45.0,702.218,140.0078],
    [5075,1525543240,57.3511,-111.8351,595.7,270.7,347.3,2.3,2.6,13.0,44.97,702.1623,139.9949],
    [5076,1525543241,57.3517,-111.8353,596.8,271.8,347.7,2.3,1.8,13.42,44.37,702.182,139.9934],
    [5077,1525543242,57.3523,-111.8355,597.8,272.8,347.9,2.3,2.1,12.3,44.62,702.1099,140.0027],
    [5078,1525543243,57.3529,-111.8357,599.3,274.3,347.3,3.1,3.0,13.75,44.04,702.0999,140.0003],
    [5079,1525543244,57.3535,-111.8359,600.4,275.6,347.7,2.8,4.2,13.26,43.8,701.9084,139.9981],
    [5080,1525543245,57.3541,-111.8361,600.7,276.7,348.6,2.1,3.9,13.15,43.83,701.7825,140.0008],
    [5081,1525543246,57.3547,-111.8363,601.1,278.1,350.9,0.0,2.6,13.18,43.22,701.6086,139.9906],
    [5082,1525543247,57.3553,-111.8364,601.5,279.5,350.2,0.8,2.8,12.92,44.02,701.662,139.996],
    [5083,1525543248,57.3559,-111.8366,602.5,281.5,349.1,1.3,2.7,12.97,43.81,701.6119,140.0048],
    [5084,1525543249,57.3565,-111.8368,603.6,282.6,349.0,1.3,2.4,13.08,43.73,701.6115,139.9994],
    [5085,1525543250,57.3572,-111.837,605.0,284.0,348.5,1.6,2.3,12.83,44.66,701.5623,139.9975],
    [5086,1525543251,57.3577,-111.8372,606.4,284.3,349.9,-0.2,2.1,12.89,44.87,701.5599,140.0018],
    [5087,1525543252,57.3584,-111.8374,606.7,284.7,349.8,0.2,1.5,12.8,45.25,701.5126,139.995],
    [5088,1525543253,57.3589,-111.8376,607.4,284.3,347.6,1.9,2.5,13.45,44.42,701.5137,140.002],
    [5089,1525543254,57.3595,-111.8378,607.8,282.8,347.1,1.9,2.9,13.32,44.44,701.649,140.0005],
    [5090,1525543255,57.3602,-111.838,608.0,281.3,346.0,2.4,2.8,12.62,45.08,701.6281,140.0036],
    [5091,1525543256,57.3608,-111.8382,608.2,280.2,345.0,2.6,2.8,12.32,44.61,701.5611,139.9994],
    [5092,1525543257,57.3614,-111.8385,608.4,280.4,345.0,1.7,2.9,13.1,44.19,701.4029,139.9963],
    [5093,1525543258,57.362,-111.8388,608.2,279.2,343.7,2.2,3.3,12.67,45.21,701.4115,139.9912],
    [5094,1525543259,57.3626,-111.839,607.5,278.5,342.9,2.3,3.1,12.38,44.38,701.4666,140.0006],
    [5095,1525543260,57.3632,-111.8393,607.0,278.0,341.6,2.9,3.3,12.81,45.0,701.265,139.9967],
    [5096,1525543261,57.3638,-111.8397,608.0,279.0,340.8,2.8,3.6,12.98,44.34,701.1842,139.9878],
    [5097,1525543262,57.3644,-111.84,609.1,280.1,341.5,1.6,3.3,12.33,44.6,701.0779,139.991],
    [5098,1525543263,57.365,-111.8403,609.2,280.2,341.4,1.3,2.2,13.1,43.98,700.9801,139.9997],
    [5099,1525543264,57.3656,-111.8407,609.0,281.0,342.3,-0.2,1.9,12.38,44.6,700.9929,139.9909],
    [5100,1525543265,57.3662,-111.841,609.4,281.4,340.3,1.4,3.5,13.28,44.72,700.9136,140.0073],
    [5101,1525543266,57.3668,-111.8414,611.1,283.1,339.1,1.9,3.3,12.62,45.03,700.7065,139.9967],
    [5102,1525543267,57.3674,-111.8418,612.2,284.2,341.2,-0.2,1.8,12.64,45.4,700.5118,140.005],
    [5103,1525543268,57.368,-111.8421,613.3,285.3,339.2,2.7,1.8,12.47,45.43,700.2074,140.0042],
    [5104,1525543269,57.3686,-111.8425,614.3,286.3,339.0,2.2,2.6,12.63,45.02,700.067,140.0011],
    [5105,1525543270,57.3691,-111.8428,614.6,286.6,340.8,1.1,3.0,12.87,44.77,699.5715,139.9961],
    [5106,1525543271,57.3698,-111.8432,616.0,287.0,338.6,4.3,2.5,12.84,44.75,699.5772,140.0021],
    [5107,1525543272,57.3704,-111.8435,618.6,289.6,340.6,1.9,2.1,12.76,44.0,699.6352,140.0004],
    [5108,1525543273,57.371,-111.8439,622.0,292.0,339.9,1.7,3.0,12.34,44.56,699.6594,140.001],
    [5109,1525543274,57.3716,-111.8443,626.1,296.1,339.0,1.6,3.0,12.56,44.45,699.7203,139.9897],
    [5110,1525543275,57.3721,-111.8446,629.3,299.3,338.8,1.1,3.2,12.71,44.62,699.7026,139.9974],
    [5111,1525543276,57.3728,-111.845,631.1,301.1,337.8,1.6,3.7,12.47,44.36,699.6547,139.9969],
    [5112,1525543277,57.3734,-111.8454,631.0,301.0,336.6,1.9,4.0,12.79,44.19,699.6151,139.9941],
    [5113,1525543278,57.3739,-111.8458,630.4,300.4,335.4,1.6,4.4,12.61,44.54,699.4436,140.0],
    [5114,1525543279,57.3745,-111.8463,629.6,299.6,335.7,0.4,3.0,13.18,43.79,699.3867,139.9994],
    [5115,1525543280,57.3751,-111.8468,628.9,298.9,332.9,2.5,2.9,12.32,43.99,699.3592,139.9933],
    [5116,1525543281,57.3757,-111.8472,629.1,299.1,330.8,3.4,3.5,12.11,44.32,699.4082,139.9902],
    [5117,1525543282,57.3762,-111.8478,630.7,300.7,330.6,2.5,3.2,12.9,44.26,699.4127,140.0038],
    [5118,1525543283,57.3768,-111.8483,632.1,302.1,329.9,2.1,3.8,12.78,43.9,699.3703,139.9987],
    [5119,1525543284,57.3773,-111.8488,633.2,303.2,328.2,2.5,4.3,12.64,44.29,699.3555,139.9985],
    [5120,1525543285,57.3779,-111.8494,633.5,303.5,327.7,1.6,3.6,12.59,44.17,699.2391,139.9959],
    [5121,1525543286,57.3785,-111.85,632.7,302.7,328.2,0.4,2.1,11.92,44.48,699.1798,139.9962],
    [5122,1525543287,57.379,-111.8506,632.4,302.4,326.3,1.7,2.2,12.49,44.37,699.1358,140.0042],
    [5123,1525543288,57.3795,-111.8512,632.5,302.5,324.1,2.8,3.1,12.61,44.28,698.9424,140.0059],
    [5124,1525543289,57.3801,-111.8519,633.0,303.0,323.5,2.4,3.4,12.39,44.58,698.6363,139.9913],
    [5125,1525543290,57.3806,-111.8525,633.9,303.9,322.6,2.7,3.3,12.4,45.16,698.4604,139.9931],
    [5126,1525543291,57.3811,-111.8532,634.9,303.9,322.2,2.8,3.1,12.43,44.64,698.1708,139.9932],
    [5127,1525543292,57.3817,-111.8539,635.7,304.7,321.5,2.7,3.7,12.39,43.89,698.0836,139.9991],
    [5128,1525543293,57.3822,-111.8545,637.5,306.5,320.3,2.4,4.3,12.53,43.31,697.9244,140.0046],
    [5129,1525543294,57.3827,-111.8552,640.0,309.0,319.0,2.4,3.8,12.79,42.89,697.5577,139.9951],
    [5130,1525543295,57.3831,-111.8559,642.5,310.6,317.6,2.5,2.9,12.59,42.8,697.4232,139.9942],
    [5131,1525543296,57.3837,-111.8567,645.0,311.0,314.7,4.2,2.2,12.68,42.29,697.1792,140.0025],
    [5132,1525543297,57.3841,-111.8575,647.3,311.6,312.7,4.7,1.6,12.36,42.89,697.0912,140.0],
    [5133,1525543298,57.3845,-111.8583,650.0,313.7,309.8,5.0,2.5,12.74,42.11,697.0766,140.0001],
    [5134,1525543299,57.385,-111.8592,653.4,316.4,307.6,5.1,2.3,12.82,41.89,697.0638,140.0002],
    [5135,1525543300,57.3853,-111.8599,655.6,318.3,306.0,5.1,2.1,12.47,41.43,697.0342,140.0096],
    [5136,1525543301,57.3857,-111.8608,657.5,319.5,304.0,5.4,2.4,12.67,41.68,697.0382,139.9992],
    [5137,1525543302,57.3861,-111.8617,659.0,320.0,301.8,5.2,3.0,12.14,40.78,697.0893,140.0005],
    [5138,1525543303,57.3865,-111.8627,659.9,320.9,300.4,5.0,2.3,12.88,40.34,697.0909,140.0106],
    [5139,1525543304,57.3868,-111.8637,660.3,320.3,298.8,4.7,1.9,12.84,40.99,697.0388,140.0022],
    [5140,1525543305,57.3871,-111.8646,660.5,320.5,297.0,4.0,2.3,12.58,40.61,696.9693,139.9996],
    [5141,1525543306,57.3874,-111.8656,660.4,319.4,294.8,3.1,2.7,13.4,39.64,696.841,140.0062],
    [5142,1525543307,57.3877,-111.8665,660.0,318.4,294.2,2.5,2.0,12.78,39.94,696.884,140.0035],
    [5143,1525543308,57.3879,-111.8675,659.5,317.6,291.5,3.0,3.5,12.69,40.28,696.8647,139.9919],
    [5144,1525543309,57.3882,-111.8686,659.8,316.8,290.3,3.0,3.1,12.67,40.33,696.7855,140.0028],
    [5145,1525543310,57.3884,-111.8696,660.8,316.8,288.4,3.8,3.5,13.29,40.37,696.8001,139.9967],
    [5146,1525543311,57.3886,-111.8706,661.8,316.8,287.0,5.2,3.6,12.77,40.91,696.8203,140.0078],
    [5147,1525543312,57.3888,-111.8716,661.9,315.9,286.6,4.6,3.0,12.31,41.03,696.8087,140.0042],
    [5148,1525543313,57.3891,-111.8727,661.9,314.8,287.2,4.5,1.7,13.23,40.33,696.8021,140.0047],
    [5149,1525543314,57.3893,-111.8738,662.3,314.6,284.4,5.5,3.5,12.87,40.89,696.7445,140.0031],
    [5150,1525543315,57.3894,-111.8749,662.8,315.1,284.2,4.3,2.2,12.78,41.37,696.613,140.0027],
    [5151,1525543316,57.3896,-111.8759,662.8,314.8,282.5,4.3,2.2,12.55,40.86,696.5277,139.9986],
    [5152,1525543317,57.3897,-111.877,662.3,314.2,279.7,4.6,3.3,12.7,40.78,696.4517,140.0007],
    [5153,1525543318,57.3899,-111.8781,662.5,315.2,277.2,4.1,3.8,12.44,40.47,696.4825,139.9969],
    [5154,1525543319,57.39,-111.8792,663.5,316.5,276.6,3.3,3.3,13.43,40.07,696.513,139.9915],
    [5155,1525543320,57.3901,-111.8803,665.0,318.0,274.9,2.8,4.7,12.91,40.25,696.7047,139.9962],
    [5156,1525543321,57.3902,-111.8813,665.9,319.0,274.3,3.7,4.7,12.82,40.16,696.8496,140.001],
    [5157,1525543322,57.3903,-111.8825,666.8,318.9,274.6,3.6,4.3,12.55,40.18,697.0127,140.0004],
    [5158,1525543323,57.3904,-111.8836,666.9,317.9,274.3,3.7,4.8,12.45,40.23,697.1843,139.9951],
    [5159,1525543324,57.3904,-111.8846,666.2,316.2,275.3,3.8,4.0,12.47,40.83,697.3581,140.0021],
    [5160,1525543325,57.3905,-111.8858,664.5,313.5,276.2,4.0,3.2,12.8,41.33,697.4312,140.0029],
    [5161,1525543326,57.3906,-111.8869,662.5,310.6,275.5,3.6,4.2,12.5,41.32,697.384,140.0053],
    [5162,1525543327,57.3907,-111.888,660.3,307.3,275.4,3.2,4.3,12.49,41.81,697.4475,139.9901],
    [5163,1525543328,57.3908,-111.8891,658.2,304.1,275.5,3.6,3.8,13.18,41.55,697.3845,140.0006],
    [5164,1525543329,57.3909,-111.8903,656.5,301.5,275.0,4.2,3.9,13.01,41.65,697.3132,140.0017],
    [5165,1525543330,57.391,-111.8914,655.0,299.1,274.8,3.6,3.7,12.72,42.64,697.3171,140.0035],
    [5166,1525543331,57.3911,-111.8925,654.2,297.3,273.9,3.9,4.3,12.67,42.01,697.2798,140.0014],
    [5167,1525543332,57.3912,-111.8937,654.4,294.4,274.0,4.2,3.4,12.77,42.83,697.0362,140.0072],
    [5168,1525543333,57.3913,-111.8948,654.8,293.5,274.5,4.3,2.6,12.54,42.47,697.2414,139.9855],
    [5169,1525543334,57.3913,-111.8958,655.2,291.5,273.8,4.8,3.0,12.3,42.63,697.4388,139.9998],
    [5170,1525543335,57.3914,-111.8971,655.5,289.8,274.1,3.3,2.4,12.47,42.86,697.5577,139.9987],
    [5171,1525543336,57.3915,-111.8981,656.6,288.7,273.9,2.6,2.4,12.76,42.87,697.8552,139.9955],
    [5172,1525543337,57.3915,-111.8993,657.8,287.9,272.6,3.0,3.9,12.83,43.25,698.0477,140.0125],
    [5173,1525543338,57.3916,-111.9006,657.3,285.1,273.1,4.1,2.5,12.95,43.52,698.3172,139.9959],
    [5174,1525543339,57.3916,-111.9016,655.8,281.6,274.3,3.7,1.4,13.28,43.82,698.4585,139.9967],
    [5175,1525543340,57.3917,-111.9028,653.6,276.5,273.3,3.9,2.3,13.11,43.9,698.761,140.0021],
    [5176,1525543341,57.3918,-111.904,651.0,272.5,274.3,3.8,1.1,13.04,43.5,698.8906,139.9999],
    [5177,1525543342,57.3918,-111.9051,648.3,267.6,274.0,4.0,1.9,12.39,43.41,699.172,140.0009],
    [5178,1525543343,57.3919,-111.9063,645.3,264.0,273.7,3.6,2.3,12.48,43.07,699.2215,139.9977],
    [5179,1525543344,57.392,-111.9074,642.8,261.8,274.9,3.4,1.0,12.54,42.84,699.4564,139.9977],
    [5180,1525543345,57.392,-111.9084,640.5,257.9,273.5,3.2,2.1,12.83,42.37,699.6005,140.0004],
    [5181,1525543346,57.3921,-111.9097,638.1,251.1,273.0,3.0,1.9,12.71,42.88,699.6924,139.997],
    [5182,1525543347,57.3921,-111.9108,635.8,245.5,272.3,3.0,2.5,12.72,42.83,699.9427,139.9999],
    [5183,1525543348,57.3922,-111.912,633.4,239.4,271.3,2.9,2.8,12.32,42.25,700.0803,139.9989],
    [5184,1525543349,57.3922,-111.9131,631.3,235.2,271.1,2.6,2.4,12.66,42.22,700.1923,139.9992],
    [5185,1525543350,57.3922,-111.9143,629.4,231.6,269.8,2.6,3.2,12.75,42.26,700.4332,140.0033],
    [5186,1525543351,57.3923,-111.9154,627.8,228.8,269.5,2.3,2.6,12.97,41.58,700.5352,139.9958],
    [5187,1525543352,57.3923,-111.9166,626.0,226.1,269.1,2.6,2.6,12.65,42.0,700.7686,139.9991],
    [5188,1525543353,57.3923,-111.9178,623.9,221.8,268.6,2.4,2.4,12.49,42.28,700.8414,140.0048],
    [5189,1525543354,57.3923,-111.9189,621.8,218.7,268.5,2.4,2.2,12.99,42.1,701.0381,139.9984],
    [5190,1525543355,57.3923,-111.9201,619.7,215.7,268.1,2.3,2.7,12.57,42.32,701.2439,140.0068],
    [5191,1525543356,57.3923,-111.9213,617.8,212.8,268.5,2.5,2.2,12.75,42.95,701.4001,140.0127],
    [5192,1525543357,57.3923,-111.9224,615.8,209.2,268.4,2.5,2.5,12.89,41.93,701.4177,140.0104],
    [5193,1525543358,57.3923,-111.9237,613.8,205.8,268.1,2.1,2.9,12.81,42.59,701.2895,140.0044],
    [5194,1525543359,57.3923,-111.9248,612.0,202.7,268.8,1.5,1.2,12.65,42.9,701.2911,139.9996],
    [5195,1525543360,57.3923,-111.926,610.3,200.2,266.9,1.5,1.1,12.52,42.25,701.4719,139.9949],
    [5196,1525543361,57.3922,-111.9271,608.7,197.3,262.4,1.2,2.2,12.77,42.59,701.6161,140.0058],
    [5197,1525543362,57.3921,-111.9283,608.3,196.3,256.9,0.8,2.4,12.42,42.26,701.8673,140.0047],
    [5198,1525543363,57.392,-111.9293,609.1,196.1,252.5,0.7,2.5,12.61,42.27,702.047,140.0024],
    [5199,1525543364,57.3918,-111.9305,609.2,195.5,247.8,0.1,2.4,12.71,42.19,702.2664,140.0023],
    [5200,1525543365,57.3916,-111.9316,607.9,194.5,242.5,-0.3,3.1,12.79,42.17,702.3787,140.0006],
    [5201,1525543366,57.3913,-111.9326,606.1,193.1,237.3,-0.2,3.9,12.82,42.94,702.5442,139.9975],
    [5202,1525543367,57.391,-111.9335,603.7,191.1,232.1,-1.2,4.1,12.68,42.21,702.6767,140.0],
    [5203,1525543368,57.3906,-111.9344,601.1,189.1,226.0,-2.1,4.7,13.23,41.84,702.757,140.0045],
    [5204,1525543369,57.3902,-111.9352,598.8,188.9,222.0,-1.4,4.6,12.65,42.85,702.8748,140.0023],
    [5205,1525543370,57.3898,-111.936,596.8,186.7,218.3,-0.9,4.3,12.77,43.26,703.0666,140.0027],
    [5206,1525543371,57.3893,-111.9367,595.2,186.4,215.3,0.5,3.7,12.66,43.89,703.1105,140.0015],
    [5207,1525543372,57.3888,-111.9373,593.6,183.6,211.3,-0.2,4.0,13.01,43.6,703.231,139.9975],
    [5208,1525543373,57.3883,-111.9379,592.1,181.2,207.7,-0.6,4.2,13.26,43.37,703.2659,140.0081],
    [5209,1525543374,57.3877,-111.9384,590.6,178.6,205.7,1.0,3.9,12.85,43.43,703.3269,139.9986],
    [5210,1525543375,57.3872,-111.9389,589.0,176.0,202.2,0.5,4.1,12.84,43.02,703.239,140.0034],
    [5211,1525543376,57.3866,-111.9393,587.6,174.6,198.2,-0.3,4.9,13.13,42.35,703.2898,140.0025],
    [5212,1525543377,57.386,-111.9397,586.4,173.3,195.0,-0.7,5.5,12.93,43.27,703.3087,139.9976],
    [5213,1525543378,57.3855,-111.94,585.5,173.2,192.3,-1.2,5.3,13.07,42.21,703.4921,139.9985],
    [5214,1525543379,57.3849,-111.9402,585.1,173.1,192.3,0.0,4.6,12.91,42.26,703.5192,139.9923],
    [5215,1525543380,57.3843,-111.9405,585.6,173.9,191.8,-0.1,4.3,12.83,42.16,703.8781,140.0024],
    [5216,1525543381,57.3837,-111.9407,585.6,174.5,191.3,-0.1,4.0,12.62,41.9,704.0368,140.0079],
    [5217,1525543382,57.3831,-111.9409,585.0,175.2,191.4,0.4,4.3,12.88,41.95,704.3195,139.9978],
    [5218,1525543383,57.3826,-111.9411,584.4,176.4,189.7,-0.6,4.8,13.0,41.96,704.4902,139.9971],
    [5219,1525543384,57.382,-111.9413,582.6,176.6,190.8,1.9,3.3,13.25,41.73,704.7274,139.9991],
    [5220,1525543385,57.3814,-111.9415,580.1,179.5,188.6,0.9,3.8,12.99,41.86,704.7341,140.0002],
    [5221,1525543386,57.3808,-111.9416,577.1,180.6,186.3,0.1,3.7,12.97,41.76,705.0618,139.994],
    [5222,1525543387,57.3802,-111.9417,574.3,183.9,185.4,1.3,3.9,13.12,41.56,705.019,140.0082],
    [5223,1525543388,57.3796,-111.9418,571.8,184.8,183.9,1.5,3.0,13.11,41.95,704.9755,139.9957],
    [5224,1525543389,57.379,-111.9419,569.6,185.2,181.7,0.4,3.1,13.58,41.48,705.0274,139.9968],
    [5225,1525543390,57.3785,-111.9419,567.5,185.1,179.3,-1.2,4.5,13.28,41.28,705.1937,140.0006],
    [5226,1525543391,57.3778,-111.9419,565.3,183.6,180.0,-0.2,4.9,13.25,41.8,705.1905,139.9967],
    [5227,1525543392,57.3772,-111.9419,564.5,180.8,179.1,-1.5,4.6,12.64,41.68,705.0655,140.0118],
    [5228,1525543393,57.3766,-111.9419,564.5,178.1,179.8,-0.6,5.1,13.17,41.69,705.1707,139.9973],
    [5229,1525543394,57.376,-111.9419,564.2,174.0,181.6,1.6,5.4,13.15,41.92,705.5606,139.993],
    [5230,1525543395,57.3754,-111.9419,563.3,168.7,180.8,0.8,4.7,13.81,41.76,705.8146,139.9967],
    [5231,1525543396,57.3748,-111.9419,562.8,163.7,179.2,-0.6,4.8,13.51,41.18,705.8351,139.9949],
    [5232,1525543397,57.3742,-111.9419,563.2,160.7,179.2,0.2,4.7,13.47,41.6,706.0163,139.9989],
    [5233,1525543398,57.3736,-111.9419,562.1,156.9,180.1,1.8,5.1,13.38,42.18,706.036,139.9968],
    [5234,1525543399,57.3729,-111.9418,558.8,152.1,180.3,2.6,4.7,13.12,41.25,706.0274,140.0084],
    [5235,1525543400,57.3723,-111.9418,556.1,149.1,179.0,1.6,4.1,13.72,40.97,706.0346,139.9949],
    [5236,1525543401,57.3718,-111.9417,554.3,147.3,178.7,1.2,4.5,13.17,41.03,706.0526,140.0063],
    [5237,1525543402,57.3711,-111.9417,553.0,146.3,178.5,0.6,5.0,13.25,40.74,705.6788,139.9926],
    [5238,1525543403,57.3705,-111.9416,552.8,147.8,179.1,1.5,4.5,12.8,40.71,705.5732,139.9948],
    [5239,1525543404,57.37,-111.9416,552.8,148.8,178.9,1.5,4.0,13.37,40.33,705.4222,140.0009],
    [5240,1525543405,57.3693,-111.9415,553.0,150.0,178.4,1.5,4.5,14.02,39.98,705.3863,140.0041],
    [5241,1525543406,57.3687,-111.9415,553.7,151.7,179.1,2.4,3.3,13.31,39.97,705.3581,139.999],
    [5242,1525543407,57.3681,-111.9414,555.8,155.4,177.6,0.8,2.9,14.04,40.06,705.3812,140.0028],
    [5243,1525543408,57.3675,-111.9414,558.2,160.6,177.6,0.8,4.4,13.46,40.18,705.4637,140.003],
    [5244,1525543409,57.367,-111.9413,559.9,163.9,177.4,0.5,4.4,14.04,39.55,705.4252,140.0083],
    [5245,1525543410,57.3663,-111.9412,561.0,166.0,177.9,0.7,4.6,13.62,40.31,705.4442,139.9975],
    [5246,1525543411,57.3657,-111.9412,561.5,166.5,178.6,1.1,4.0,13.57,40.35,705.481,140.0045],
    [5247,1525543412,57.3651,-111.9412,561.3,165.2,179.6,1.5,3.8,14.18,39.32,705.5817,140.0005],
    [5248,1525543413,57.3645,-111.9411,560.8,164.8,179.1,0.2,4.2,13.93,39.49,705.5603,139.997],
    [5249,1525543414,57.364,-111.9411,560.7,165.3,177.8,-1.4,4.1,12.92,39.89,705.4642,139.9979],
    [5250,1525543415,57.3634,-111.9411,560.7,163.9,178.8,-0.3,3.1,13.54,39.89,705.418,140.0013],
    [5251,1525543416,57.3628,-111.9411,560.2,162.2,178.1,-1.1,2.5,13.21,40.08,705.3898,139.9954],
    [5252,1525543417,57.3623,-111.941,559.6,160.6,177.2,-1.7,3.8,13.58,39.96,705.6185,139.9993],
    [5253,1525543418,57.3616,-111.941,559.4,159.4,178.8,-0.1,3.4,13.83,39.54,705.7293,139.9904],
    [5254,1525543419,57.361,-111.941,560.0,159.1,179.2,-0.2,3.9,13.73,40.51,705.8658,140.0024],
    [5255,1525543420,57.3605,-111.941,560.5,159.6,179.6,0.0,4.2,13.54,40.1,705.9482,139.9963],
    [5256,1525543421,57.3598,-111.941,560.3,158.6,180.4,0.7,4.1,13.27,39.33,705.9453,140.0051],
    [5257,1525543422,57.3593,-111.941,559.3,157.4,180.2,0.2,4.5,14.12,39.03,706.0789,140.0019],
    [5258,1525543423,57.3587,-111.941,557.3,155.6,179.3,-0.7,4.9,13.44,39.28,706.0964,140.0007],
    [5259,1525543424,57.3581,-111.941,555.4,154.5,179.1,-0.9,6.0,13.68,39.23,706.1803,139.9947],
    [5260,1525543425,57.3575,-111.941,553.9,152.9,179.8,0.1,6.0,13.48,39.23,706.1005,140.009],
    [5261,1525543426,57.3569,-111.941,552.8,151.8,180.2,0.7,5.5,13.77,38.96,706.1175,140.0024],
    [5262,1525543427,57.3563,-111.941,551.9,150.9,179.7,-0.4,5.5,13.97,39.6,706.1615,140.0052],
    [5263,1525543428,57.3557,-111.941,551.5,150.5,179.4,-0.6,5.8,13.9,39.76,706.2576,139.9916],
    [5264,1525543429,57.3551,-111.941,551.0,150.0,181.4,1.9,5.1,13.35,39.78,706.5036,139.9988],
    [5265,1525543430,57.3545,-111.941,550.7,149.6,180.3,0.6,4.9,13.75,40.33,706.6191,139.9889],
    [5266,1525543431,57.3539,-111.941,550.6,149.8,178.0,-1.2,5.2,13.66,40.17,706.8158,139.999],
    [5267,1525543432,57.3533,-111.9409,550.2,150.2,179.0,0.2,5.2,14.45,39.74,706.8488,140.0088],
    [5268,1525543433,57.3527,-111.9409,549.0,150.3,179.7,1.3,5.3,14.31,39.72,706.8626,140.0003],
    [5269,1525543434,57.3521,-111.9409,547.5,150.5,179.6,1.4,5.3,13.77,39.73,707.0175,139.9961],
    [5270,1525543435,57.3516,-111.9408,545.1,151.2,179.5,1.2,5.7,13.66,39.41,706.8501,139.9989],
    [5271,1525543436,57.3509,-111.9408,542.9,152.2,178.6,0.0,6.6,13.99,39.19,707.0367,139.9905],
    [5272,1525543437,57.3503,-111.9408,541.9,152.8,178.4,-0.5,6.3,13.43,39.13,707.1308,140.0047],
    [5273,1525543438,57.3498,-111.9408,542.1,152.9,177.8,-1.1,5.9,13.8,39.21,707.1584,140.0005],
    [5274,1525543439,57.3492,-111.9407,541.7,150.7,179.7,1.2,5.5,13.74,39.17,707.2123,139.9928],
    [5275,1525543440,57.3485,-111.9407,541.5,150.5,178.7,-0.4,5.2,14.17,39.01,707.297,140.0023],
    [5276,1525543441,57.348,-111.9407,541.1,150.1,178.6,0.2,5.1,13.69,39.17,707.4572,139.9934],
    [5277,1525543442,57.3473,-111.9407,540.2,148.1,179.7,0.9,4.8,14.25,39.05,707.4157,139.9994],
    [5278,1525543443,57.3467,-111.9406,539.5,147.0,178.4,-0.6,5.1,14.04,39.54,707.6346,140.0037],
    [5279,1525543444,57.3461,-111.9406,538.8,145.8,179.1,0.1,5.4,14.24,38.72,707.7856,139.9993],
    [5280,1525543445,57.3455,-111.9406,538.1,145.1,179.0,0.2,5.4,14.69,38.74,707.8391,140.0016],
    [5281,1525543446,57.345,-111.9406,536.6,144.3,179.9,1.5,4.9,13.61,39.23,707.9143,139.994],
    [5282,1525543447,57.3444,-111.9405,535.3,144.6,179.6,0.9,4.9,13.94,39.56,708.1143,140.0022],
    [5283,1525543448,57.3438,-111.9405,533.8,144.8,178.1,-0.5,5.7,13.81,39.31,708.1944,139.9986],
    [5284,1525543449,57.3431,-111.9405,532.4,146.1,179.5,0.8,4.9,13.77,39.92,708.3289,140.0005],
    [5285,1525543450,57.3425,-111.9405,531.2,147.3,177.9,-0.8,4.9,14.1,39.05,708.437,140.0015],
    [5286,1525543451,57.342,-111.9404,530.0,147.0,178.7,0.4,5.5,14.25,38.73,708.3862,140.001],
    [5287,1525543452,57.3414,-111.9404,528.5,144.5,179.2,1.0,5.7,14.12,39.59,708.4409,140.0013],
    [5288,1525543453,57.3407,-111.9404,527.0,138.2,179.9,2.0,5.2,14.18,38.86,708.4102,139.9985],
    [5289,1525543454,57.3401,-111.9403,525.3,135.0,180.1,2.5,5.5,13.76,39.04,708.3845,139.9989],
    [5290,1525543455,57.3395,-111.9403,524.7,133.6,178.2,0.8,5.6,13.84,38.78,708.3691,140.0005],
    [5291,1525543456,57.3389,-111.9402,524.8,133.8,177.5,0.5,6.1,13.97,38.81,708.3536,140.0013],
    [5292,1525543457,57.3384,-111.9402,524.9,134.0,177.8,0.9,5.1,14.74,38.54,708.4573,139.9997],
    [5293,1525543458,57.3377,-111.9401,525.0,134.0,177.0,0.0,5.0,13.77,38.83,708.4826,139.9981],
    [5294,1525543459,57.3371,-111.94,525.3,135.3,177.4,0.2,4.8,14.11,39.41,708.6796,140.0013],
    [5295,1525543460,57.3366,-111.94,525.4,136.3,177.6,-0.3,5.4,14.12,39.58,708.8209,140.0036],
    [5296,1525543461,57.336,-111.9399,525.5,136.7,177.7,-0.4,5.0,14.23,39.07,708.8379,140.0005],
    [5297,1525543462,57.3354,-111.9399,525.1,137.1,178.3,0.2,4.5,13.7,39.25,708.7872,139.9972],
    [5298,1525543463,57.3347,-111.9399,524.4,136.2,178.3,0.2,4.2,14.12,39.57,708.5876,139.9987],
    [5299,1525543464,57.3341,-111.9398,522.7,135.7,179.0,1.1,4.4,14.52,38.95,708.4103,140.0087],
    [5300,1525543465,57.3336,-111.9398,520.9,133.8,178.5,0.7,4.3,14.12,39.69,708.4762,139.9971],
    [5301,1525543466,57.3332,-111.9398,520.6,134.3,178.4,0.8,4.2,14.17,39.7,708.6151,140.0102],
    [5302,1525543467,57.3325,-111.9397,520.6,135.3,178.4,0.3,4.6,14.76,39.07,708.6385,140.0048],
    [5303,1525543468,57.3318,-111.9397,522.4,137.4,179.5,0.4,5.2,14.76,39.01,708.6108,140.0015],
    [5304,1525543469,57.3312,-111.9397,524.5,140.5,180.8,1.1,4.5,14.49,39.05,708.529,139.9919],
    [5305,1525543470,57.3306,-111.9397,525.1,141.8,182.5,2.6,3.6,13.65,39.08,708.4733,139.9937],
    [5306,1525543471,57.33,-111.9397,524.6,142.3,182.5,1.8,3.5,14.49,39.0,708.4415,139.9929],
    [5307,1525543472,57.3294,-111.9397,524.0,142.0,181.9,0.5,2.9,14.25,39.08,708.2711,139.9993],
    [5308,1525543473,57.3288,-111.9397,524.3,142.2,182.0,0.2,2.9,13.77,38.5,708.2194,140.0044],
    [5309,1525543474,57.3282,-111.9398,525.0,144.0,182.5,0.8,3.5,14.28,38.52,708.1828,140.005],
    [5310,1525543475,57.3276,-111.9398,525.9,144.9,183.4,1.9,3.7,14.9,38.12,708.171,139.9946],
    [5311,1525543476,57.3271,-111.9398,526.3,146.3,182.2,0.7,4.3,14.02,38.43,708.2153,140.006],
    [5312,1525543477,57.3264,-111.9399,527.5,147.5,182.1,1.1,4.1,14.72,37.99,708.0466,140.0084],
    [5313,1525543478,57.3258,-111.9399,528.7,148.7,183.0,1.8,4.0,14.05,38.52,708.1363,139.9935],
    [5314,1525543479,57.3253,-111.9399,529.3,150.3,182.5,1.4,3.9,14.13,38.53,708.1791,139.998],
    [5315,1525543480,57.3247,-111.94,529.8,150.8,183.5,2.7,3.3,14.47,37.76,708.338,139.9865],
    [5316,1525543481,57.3241,-111.94,530.2,152.2,182.7,1.7,2.5,13.99,38.16,708.4261,139.9969],
    [5317,1525543482,57.3235,-111.94,531.0,153.0,181.7,0.7,1.8,14.86,37.4,708.5365,140.0026],
    [5318,1525543483,57.323,-111.94,530.8,152.8,182.4,1.6,2.0,14.07,37.92,708.6155,139.9999],
    [5319,1525543484,57.3224,-111.94,529.8,152.6,182.1,1.2,3.2,13.94,37.71,708.4843,140.002],
    [5320,1525543485,57.3218,-111.9401,528.3,151.9,181.1,0.7,4.3,14.3,37.46,708.6819,139.9914],
    [5321,1525543486,57.3212,-111.9401,526.8,151.1,181.9,2.2,4.7,14.28,37.47,708.6588,140.0027],
    [5322,1525543487,57.3207,-111.9401,525.4,150.4,181.1,2.0,4.5,14.7,37.09,708.6522,140.0008],
    [5323,1525543488,57.32,-111.94,525.0,151.1,180.9,2.6,4.7,13.85,37.83,708.7248,140.0032],
    [5324,1525543489,57.3195,-111.94,525.2,151.3,180.0,1.9,4.4,14.32,37.81,708.6736,139.9993],
    [5325,1525543490,57.3189,-111.94,524.3,151.3,179.2,1.1,5.3,14.15,38.11,708.602,139.9981],
    [5326,1525543491,57.3183,-111.9399,523.8,151.3,178.1,0.6,5.2,14.64,37.85,708.517,139.9989],
    [5327,1525543492,57.3177,-111.9399,524.0,152.2,178.4,2.6,4.6,14.83,37.51,708.4965,139.9987],
    [5328,1525543493,57.3172,-111.9398,524.0,153.0,176.4,2.8,4.3,14.56,38.03,708.5304,139.9962],
    [5329,1525543494,57.3165,-111.9396,524.2,154.9,171.5,1.7,3.2,14.05,38.2,708.4658,140.0011],
    [5330,1525543495,57.316,-111.9394,524.7,156.3,167.0,1.0,3.3,14.66,38.65,708.3789,139.9962],
    [5331,1525543496,57.3154,-111.9391,525.9,159.0,162.8,1.4,4.4,14.23,38.43,708.2748,139.9975],
    [5332,1525543497,57.3149,-111.9387,526.5,160.6,159.8,2.3,4.4,14.19,39.08,708.3035,139.9977],
    [5333,1525543498,57.3143,-111.9382,526.4,161.4,154.8,1.4,3.7,14.4,38.64,708.3417,139.9988],
    [5334,1525543499,57.3138,-111.9377,526.9,161.9,150.0,1.3,3.7,14.29,39.17,708.5215,139.993],
    [5335,1525543500,57.3134,-111.9371,528.4,164.5,146.3,1.6,3.2,14.62,38.7,708.5986,140.0009],
    [5336,1525543501,57.3129,-111.9363,529.7,165.7,142.1,1.6,3.6,14.4,38.8,708.6291,139.9961],
    [5337,1525543502,57.3125,-111.9356,529.7,166.6,138.9,2.8,3.4,14.62,38.89,708.6875,140.004],
    [5338,1525543503,57.3121,-111.9348,528.9,165.9,134.5,2.7,3.3,14.08,38.94,708.5457,139.9959],
    [5339,1525543504,57.3117,-111.934,527.3,164.3,130.1,2.1,3.3,14.12,38.78,708.5529,139.9944],
    [5340,1525543505,57.3113,-111.933,525.8,163.8,124.6,1.2,3.1,14.41,38.63,708.3572,140.0006],
    [5341,1525543506,57.311,-111.9321,525.4,163.4,120.8,1.5,3.4,14.43,39.24,708.2651,139.9958],
    [5342,1525543507,57.3108,-111.9311,525.1,163.0,116.2,1.4,2.4,14.42,39.35,708.5808,139.9971],
    [5343,1525543508,57.3106,-111.93,525.8,164.8,111.5,0.9,2.0,13.96,39.03,708.7975,139.9985],
    [5344,1525543509,57.3104,-111.9289,527.3,167.3,110.0,1.4,3.8,14.42,39.08,709.0708,139.9903],
    [5345,1525543510,57.3102,-111.9279,528.9,169.9,107.4,1.5,3.5,14.22,39.21,709.3354,139.9938],
    [5346,1525543511,57.3101,-111.9268,529.0,171.1,105.3,1.6,3.6,14.51,39.26,709.3744,139.9871],
    [5347,1525543512,57.31,-111.9258,527.2,170.3,103.2,1.9,4.3,15.15,39.11,709.4868,139.9971],
    [5348,1525543513,57.3099,-111.9246,524.3,168.0,99.1,2.2,4.1,14.75,39.14,709.4834,140.0043],
    [5349,1525543514,57.3099,-111.9235,521.3,165.2,94.4,1.4,2.5,14.44,39.27,709.4755,139.9953],
    [5350,1525543515,57.3099,-111.9223,518.4,163.4,90.6,0.7,1.5,14.48,39.06,709.463,139.9965],
    [5351,1525543516,57.3099,-111.9211,516.2,161.2,89.0,0.1,2.6,15.09,38.71,709.448,140.0006],
    [5352,1525543517,57.3099,-111.92,515.1,161.0,87.7,0.8,2.6,15.02,38.7,709.2992,139.9996],
    [5353,1525543518,57.31,-111.9188,515.2,162.2,85.2,1.4,1.1,14.86,38.79,709.3312,139.9912],
    [5354,1525543519,57.31,-111.9177,515.4,163.4,84.7,1.0,0.9,14.33,39.12,709.4006,140.0024],
    [5355,1525543520,57.3101,-111.9165,515.3,164.3,84.8,0.7,1.2,14.79,38.68,709.3938,140.0041],
    [5356,1525543521,57.3102,-111.9154,515.2,164.2,85.8,0.9,2.4,14.53,39.0,709.6241,139.9977],
    [5357,1525543522,57.3102,-111.9142,516.5,166.3,86.2,1.5,2.8,14.51,38.82,709.76,140.0024],
    [5358,1525543523,57.3103,-111.9131,516.7,166.7,86.8,0.5,3.4,14.32,39.39,709.7765,140.0008],
    [5359,1525543524,57.3104,-111.9119,516.4,167.4,86.7,0.9,3.1,14.48,39.3,709.6911,139.9981],
    [5360,1525543525,57.3104,-111.9107,516.0,168.0,86.1,2.0,2.3,14.58,39.54,709.7043,140.0001],
    [5361,1525543526,57.3105,-111.9096,514.3,166.3,86.3,1.7,2.4,14.37,39.09,710.0287,139.9949],
    [5362,1525543527,57.3106,-111.9083,512.1,165.1,86.6,2.6,2.1,15.07,38.92,710.0618,139.992],
    [5363,1525543528,57.3106,-111.9072,511.5,164.5,85.5,2.8,0.8,14.48,39.47,710.3178,140.0031],
    [5364,1525543529,57.3107,-111.906,512.0,166.0,86.4,2.3,2.2,14.35,39.54,710.3222,140.0023],
    [5365,1525543530,57.3107,-111.9049,511.7,165.7,87.1,3.1,3.0,14.57,39.28,710.2003,139.9992],
    [5366,1525543531,57.3108,-111.9037,509.3,163.3,86.7,2.9,3.0,14.81,39.11,710.1699,139.989],
    [5367,1525543532,57.3108,-111.9025,507.1,162.1,86.8,1.9,3.7,14.81,39.0,709.9683,140.0016],
    [5368,1525543533,57.3109,-111.9014,505.0,160.0,84.5,1.8,2.8,14.41,40.08,709.5444,139.9914],
    [5369,1525543534,57.311,-111.9002,504.8,159.8,81.3,1.8,4.0,14.21,39.69,709.1899,139.9966],
    [5370,1525543535,57.3112,-111.899,505.9,161.9,76.7,2.4,3.7,14.05,39.36,709.04,139.996],
    [5371,1525543536,57.3114,-111.8977,506.9,163.9,70.8,1.1,3.1,14.35,39.63,708.9289,139.9979],
    [5372,1525543537,57.3117,-111.8967,508.8,165.8,65.8,0.5,3.3,13.81,39.28,708.9379,140.0031],
    [5373,1525543538,57.312,-111.8957,512.4,170.4,59.8,0.3,3.0,14.1,39.16,708.8498,139.9976],
    [5374,1525543539,57.3123,-111.8947,516.7,175.7,55.5,-0.2,3.5,14.39,39.2,708.8241,139.9919],
    [5375,1525543540,57.3128,-111.8938,520.0,178.9,50.4,0.1,2.8,14.22,39.51,709.077,139.9937],
    [5376,1525543541,57.3132,-111.893,521.6,181.6,45.1,0.9,2.3,14.46,39.09,709.1168,139.9974],
    [5377,1525543542,57.3137,-111.8921,522.2,181.2,40.1,0.7,2.7,14.29,39.18,709.1982,139.9988],
    [5378,1525543543,57.3142,-111.8914,522.7,181.7,34.3,0.8,2.8,14.96,38.86,709.2005,139.9989],
    [5379,1525543544,57.3147,-111.8908,522.6,181.6,29.5,1.3,2.8,14.45,39.94,709.3701,139.9965],
    [5380,1525543545,57.3153,-111.8903,521.0,180.0,25.4,0.9,2.4,14.1,39.53,709.4929,140.0049],
    [5381,1525543546,57.3159,-111.8898,519.9,179.8,20.8,1.6,1.5,14.7,39.57,709.7944,139.9954],
    [5382,1525543547,57.3165,-111.8894,519.1,180.1,17.9,1.0,2.0,14.4,39.48,710.0981,140.0051],
    [5383,1525543548,57.3171,-111.8891,518.8,180.8,15.7,1.1,2.4,14.94,39.2,710.2375,140.009],
    [5384,1525543549,57.3177,-111.8888,517.6,179.6,13.1,1.8,2.0,14.56,39.53,710.4378,139.9954],
    [5385,1525543550,57.3184,-111.8885,515.1,176.1,11.4,1.8,1.9,14.2,39.74,710.5869,140.0027],
    [5386,1525543551,57.3189,-111.8883,512.1,172.0,10.0,1.5,1.7,14.35,40.41,710.5004,140.0038],
    [5387,1525543552,57.3196,-111.888,509.0,169.0,8.9,1.3,2.7,14.52,40.01,710.6368,139.9999],
    [5388,1525543553,57.3203,-111.8879,506.4,167.3,6.9,2.5,2.3,14.22,39.78,710.6774,139.9938],
    [5389,1525543554,57.3209,-111.8877,503.6,165.6,5.6,3.1,2.2,14.22,39.57,710.7529,139.9991],
    [5390,1525543555,57.3216,-111.8875,501.6,164.6,6.0,2.4,1.8,14.34,39.67,710.8153,139.9952],
    [5391,1525543556,57.3222,-111.8874,501.6,165.9,5.8,2.2,1.9,14.67,39.44,711.1265,139.9991],
    [5392,1525543557,57.3228,-111.8872,501.4,166.4,6.9,1.4,2.5,14.81,39.14,711.1678,139.9969],
    [5393,1525543558,57.3236,-111.887,500.1,166.2,6.8,1.7,1.8,14.54,39.42,711.3843,139.9956],
    [5394,1525543559,57.3242,-111.8869,499.1,165.1,7.9,0.9,2.0,14.29,39.54,711.5053,139.9977],
    [5395,1525543560,57.3248,-111.8867,498.2,164.2,7.8,1.6,2.2,14.5,39.79,711.5901,140.0052],
    [5396,1525543561,57.3255,-111.8865,496.9,162.9,7.5,2.1,2.3,14.31,39.55,711.4837,140.005],
    [5397,1525543562,57.3261,-111.8863,494.9,160.9,7.5,2.1,2.8,14.18,39.95,711.3823,139.9949],
    [5398,1525543563,57.3268,-111.8861,492.6,157.6,8.0,1.4,2.7,14.31,39.53,711.3577,140.0011],
    [5399,1525543564,57.3275,-111.8859,490.5,154.4,8.4,1.2,2.7,14.32,39.8,711.2945,140.0043],
    [5400,1525543565,57.3281,-111.8857,489.3,152.0,7.6,2.2,2.6,14.58,38.95,711.295,140.0068],
    [5401,1525543566,57.3288,-111.8855,490.2,152.2,7.7,1.7,3.0,14.35,39.44,711.2463,139.998],
    [5402,1525543567,57.3295,-111.8854,491.9,153.9,7.3,2.0,3.0,14.35,39.23,711.1978,140.0002],
    [5403,1525543568,57.3301,-111.8852,492.6,154.6,6.5,2.9,2.8,14.7,39.31,711.0878,140.0018],
    [5404,1525543569,57.3308,-111.885,493.0,155.0,8.1,1.5,3.2,14.46,40.09,710.8577,139.998],
    [5405,1525543570,57.3314,-111.8848,493.3,154.8,8.7,1.4,3.5,14.13,39.54,710.7455,139.9961],
    [5406,1525543571,57.3321,-111.8846,493.7,154.7,8.8,1.4,3.3,14.35,39.68,710.6362,139.9914],
    [5407,1525543572,57.3327,-111.8844,494.4,155.4,9.2,1.1,3.4,13.99,39.67,710.5101,140.0019],
    [5408,1525543573,57.3333,-111.8842,495.7,156.7,8.4,1.9,3.3,14.26,39.73,710.5422,140.0017],
    [5409,1525543574,57.3339,-111.884,497.5,158.5,8.1,1.7,3.1,14.18,39.8,710.5689,140.0001],
    [5410,1525543575,57.3346,-111.8838,499.4,160.4,8.3,1.5,2.5,13.82,39.56,710.5572,139.9988],
    [5411,1525543576,57.3353,-111.8836,500.4,161.4,8.0,1.8,2.7,14.32,40.08,710.5149,140.0035],
    [5412,1525543577,57.3359,-111.8834,502.0,164.0,8.8,1.3,3.0,13.97,39.84,710.5361,139.9981],
    [5413,1525543578,57.3366,-111.8832,502.3,164.3,8.8,1.4,3.0,14.12,40.04,710.6194,139.9985],
    [5414,1525543579,57.3372,-111.883,502.1,164.1,8.8,1.4,2.9,13.86,40.5,710.6599,140.0005],
    [5415,1525543580,57.3379,-111.8828,502.2,163.2,8.9,1.5,3.6,14.34,40.66,710.7011,139.998],
    [5416,1525543581,57.3385,-111.8826,502.4,163.4,8.0,2.2,3.6,14.41,40.35,710.7134,140.0],
    [5417,1525543582,57.3391,-111.8824,502.4,163.4,8.1,1.7,3.9,14.29,40.99,710.8137,139.9943],
    [5418,1525543583,57.3397,-111.8823,501.9,163.9,7.8,1.8,3.9,13.97,40.69,710.9358,140.0066],
    [5419,1525543584,57.3404,-111.8821,501.2,164.2,7.1,2.0,3.7,14.21,40.25,711.0144,139.9976],
    [5420,1525543585,57.341,-111.8819,500.6,164.3,6.8,2.0,3.6,14.25,40.52,711.0982,140.0026],
    [5421,1525543586,57.3417,-111.8817,500.1,165.1,6.4,1.9,3.6,14.13,40.14,711.2558,139.9949],
    [5422,1525543587,57.3423,-111.8816,499.2,164.2,6.5,1.4,3.3,14.47,39.82,711.3431,139.993],
    [5423,1525543588,57.343,-111.8814,497.9,161.9,5.7,2.1,3.6,14.44,39.91,711.4383,140.0005],
    [5424,1525543589,57.3436,-111.8813,496.5,159.5,4.8,2.8,3.9,13.99,40.04,711.5161,139.9997],
    [5425,1525543590,57.3443,-111.8812,495.2,157.5,5.0,2.3,3.5,14.21,39.87,711.6134,140.0019],
    [5426,1525543591,57.3449,-111.881,493.6,155.6,5.5,1.9,3.5,14.21,40.45,711.7588,140.0061],
    [5427,1525543592,57.3456,-111.8809,492.1,154.1,6.3,1.0,3.4,14.22,39.8,711.8723,139.9999],
    [5428,1525543593,57.3462,-111.8807,491.0,153.0,6.7,0.9,3.6,14.86,39.5,711.9404,140.0014],
    [5429,1525543594,57.3469,-111.8806,490.1,153.1,6.5,1.1,3.8,14.35,39.82,711.9827,139.9974],
    [5430,1525543595,57.3476,-111.8804,488.9,150.9,7.3,0.2,3.8,14.83,39.46,712.0149,139.996],
    [5431,1525543596,57.3482,-111.8803,487.5,149.6,6.9,0.8,4.5,14.19,39.93,712.0055,140.0068],
    [5432,1525543597,57.3488,-111.8801,486.3,147.6,6.9,0.9,4.3,13.96,40.01,712.0623,139.9951],
    [5433,1525543598,57.3495,-111.88,485.1,146.1,7.1,1.0,4.2,14.25,40.47,712.2281,139.9963],
    [5434,1525543599,57.3501,-111.8798,484.6,145.6,6.8,1.4,4.0,14.1,40.21,712.3666,139.9975],
    [5435,1525543600,57.3508,-111.8796,484.1,146.1,7.3,0.9,4.1,14.17,40.01,712.5959,139.9971],
    [5436,1525543601,57.3516,-111.8795,484.1,146.4,6.3,1.8,4.3,14.11,40.55,712.631,139.9979],
    [5437,1525543602,57.3522,-111.8793,483.4,146.4,6.2,1.7,4.3,14.26,39.92,712.6411,139.9994],
    [5438,1525543603,57.3529,-111.8792,481.9,145.9,6.0,1.6,4.2,14.32,39.91,712.6731,139.9975],
    [5439,1525543604,57.3535,-111.879,479.7,143.7,6.5,1.0,4.3,14.13,40.14,712.7866,140.0009],
    [5440,1525543605,57.3542,-111.8789,477.8,141.8,5.9,1.3,3.8,14.45,39.32,712.7966,139.9968],
    [5441,1525543606,57.3549,-111.8787,476.8,140.5,6.3,0.7,4.4,14.18,39.95,712.8517,140.0048],
    [5442,1525543607,57.3556,-111.8786,476.4,139.3,6.0,1.0,4.8,14.07,40.33,712.9062,139.9996],
    [5443,1525543608,57.3563,-111.8784,475.8,138.8,6.4,0.3,4.6,13.54,40.35,712.8931,139.9988],
    [5444,1525543609,57.3569,-111.8783,474.9,137.2,6.3,0.4,4.6,14.47,40.51,712.9034,140.0024],
    [5445,1525543610,57.3576,-111.8782,474.3,135.4,6.2,0.2,4.5,13.86,41.08,712.8709,139.9984],
    [5446,1525543611,57.3582,-111.8781,473.9,135.0,6.4,-0.1,4.8,14.01,41.3,712.8552,139.9994],
    [5447,1525543612,57.359,-111.8779,473.5,134.5,5.6,0.5,4.8,13.96,41.37,712.8283,140.0014],
    [5448,1525543613,57.3597,-111.8778,473.3,134.3,5.5,0.2,4.7,13.71,41.59,712.845,140.003],
    [5449,1525543614,57.3603,-111.8777,473.3,135.3,5.2,0.4,4.8,13.87,41.77,712.9294,140.002],
    [5450,1525543615,57.361,-111.8776,473.3,135.3,4.9,0.5,4.6,14.22,41.44,712.9832,140.0002],
    [5451,1525543616,57.3617,-111.8775,473.5,135.5,5.8,-0.4,5.0,14.0,41.54,713.0595,139.9997],
    [5452,1525543617,57.3624,-111.8773,473.8,134.8,5.5,0.1,4.6,13.8,41.28,713.0659,140.0014],
    [5453,1525543618,57.363,-111.8772,473.9,134.9,5.1,0.5,4.6,14.03,42.1,712.8987,140.0007],
    [5454,1525543619,57.3637,-111.8771,473.2,133.2,5.5,0.1,4.7,14.31,41.09,712.7996,140.002],
    [5455,1525543620,57.3644,-111.877,472.4,132.4,5.8,0.0,4.9,14.25,41.21,712.5437,140.0002],
    [5456,1525543621,57.365,-111.8769,471.7,132.7,6.1,-0.1,4.9,13.76,41.35,712.4007,140.0035],
    [5457,1525543622,57.3658,-111.8767,471.6,132.6,6.0,0.0,4.6,13.52,41.59,712.0812,140.0015],
    [5458,1525543623,57.3664,-111.8766,472.8,133.8,6.1,-0.3,4.0,14.06,41.94,712.0136,139.9995],
    [5459,1525543624,57.3671,-111.8765,474.5,135.5,6.4,-0.5,4.4,14.12,42.54,711.8839,139.9939],
    [5460,1525543625,57.3678,-111.8764,476.5,137.5,6.7,-0.4,4.2,14.24,41.93,711.848,140.0019],
    [5461,1525543626,57.3685,-111.8762,479.2,140.2,7.3,-0.6,4.5,14.5,41.75,711.8291,139.998],
    [5462,1525543627,57.3692,-111.8761,481.8,143.1,7.3,0.0,4.8,14.41,42.27,711.8756,140.0036],
    [5463,1525543628,57.3698,-111.8759,483.8,144.8,7.5,-0.1,4.6,14.43,42.07,711.8516,140.0041],
    [5464,1525543629,57.3705,-111.8758,485.1,146.1,8.3,-0.6,4.7,13.74,42.12,711.6928,140.0043],
    [5465,1525543630,57.3711,-111.8756,485.8,146.8,8.3,-0.3,4.9,14.11,41.78,711.3351,140.0009],
    [5466,1525543631,57.3718,-111.8755,486.0,147.0,9.2,-1.7,5.3,14.25,41.3,711.1988,139.9969],
    [5467,1525543632,57.3724,-111.8753,485.6,146.6,8.9,-2.3,5.3,14.3,41.31,710.9044,140.0091],
    [5468,1525543633,57.3731,-111.8752,485.9,146.9,4.6,-1.5,4.8,14.2,41.45,710.7543,140.0047],
    [5469,1525543634,57.3738,-111.8752,487.9,148.9,360.8,-1.9,4.6,13.8,41.59,710.2505,140.0013],
    [5470,1525543635,57.3744,-111.8753,490.9,150.9,355.8,-1.4,4.5,14.09,41.79,710.1621,140.0048],
    [5471,1525543636,57.3751,-111.8754,493.8,152.1,351.7,-1.7,4.2,13.79,41.58,709.9613,140.0014],
    [5472,1525543637,57.3757,-111.8756,495.6,153.3,347.2,-1.3,4.4,14.25,41.52,709.7879,140.0057],
    [5473,1525543638,57.3764,-111.876,498.2,155.2,340.6,-0.6,3.7,14.38,41.13,709.7221,140.003],
    [5474,1525543639,57.377,-111.8764,502.7,157.7,336.5,-1.2,2.8,14.03,41.62,709.4701,139.999],
    [5475,1525543640,57.3776,-111.8769,506.0,160.4,332.7,-1.1,3.6,14.22,41.63,709.3156,139.9972],
    [5476,1525543641,57.3781,-111.8775,508.7,161.6,326.7,-0.1,4.6,14.01,41.73,709.267,140.0011],
    [5477,1525543642,57.3787,-111.8782,511.3,163.3,322.5,-0.6,4.7,13.29,42.21,709.2607,140.0054],
    [5478,1525543643,57.3792,-111.8789,512.6,164.3,317.8,0.2,4.9,13.81,42.23,709.2245,140.008],
    [5479,1525543644,57.3796,-111.8797,514.5,164.5,312.1,0.5,5.2,13.93,42.36,709.0946,140.0011],
    [5480,1525543645,57.3801,-111.8805,516.3,165.6,309.0,-0.4,4.4,14.0,42.11,709.0982,139.9991],
    [5481,1525543646,57.3805,-111.8814,517.2,166.2,304.4,0.1,4.5,14.06,42.6,709.0004,140.0027],
    [5482,1525543647,57.3808,-111.8823,517.7,165.7,299.5,-0.2,4.9,13.91,41.81,709.0571,139.9988],
    [5483,1525543648,57.3811,-111.8833,518.3,166.3,294.9,-0.3,4.8,13.91,42.31,709.1506,140.0052],
    [5484,1525543649,57.3814,-111.8842,519.0,167.0,290.0,0.1,5.3,13.72,41.97,709.2473,140.0036],
    [5485,1525543650,57.3816,-111.8853,519.6,168.7,285.8,-0.2,4.9,13.7,42.44,709.375,140.003],
    [5486,1525543651,57.3818,-111.8864,520.0,169.7,281.9,-0.5,5.2,13.83,42.18,709.406,140.0028],
    [5487,1525543652,57.382,-111.8875,519.7,169.7,279.4,-0.3,4.7,14.23,41.97,709.3781,139.9994],
    [5488,1525543653,57.3821,-111.8885,518.7,168.7,277.6,-0.5,4.4,13.71,42.58,709.2894,139.9961],
    [5489,1525543654,57.3822,-111.8896,517.7,167.7,274.5,-0.1,4.8,13.9,42.71,709.3341,139.9975],
    [5490,1525543655,57.3823,-111.8908,516.4,165.4,273.0,-0.1,4.3,14.05,42.47,709.4468,140.0026],
    [5491,1525543656,57.3823,-111.8919,515.3,163.3,271.1,-0.5,4.5,13.75,43.39,709.5562,140.0042],
    [5492,1525543657,57.3824,-111.893,515.2,162.2,269.3,-0.4,5.0,14.16,43.1,709.5492,139.9934],
    [5493,1525543658,57.3824,-111.8941,515.8,160.8,268.7,0.1,4.5,13.53,43.41,709.7118,140.0049],
    [5494,1525543659,57.3824,-111.8952,515.9,159.0,268.2,0.0,3.9,13.36,44.07,709.6887,140.0019],
    [5495,1525543660,57.3824,-111.8963,515.0,156.0,266.6,0.2,4.0,13.08,44.2,709.5638,139.9987],
    [5496,1525543661,57.3824,-111.8974,513.7,152.6,264.1,-0.4,4.4,13.7,43.99,709.5638,139.9964],
    [5497,1525543662,57.3824,-111.8985,513.1,149.3,262.0,-0.2,4.5,13.89,43.58,709.4965,140.0007],
    [5498,1525543663,57.3823,-111.8997,512.0,146.0,260.4,-0.1,3.8,13.28,44.19,709.4654,140.0014],
    [5499,1525543664,57.3822,-111.9008,511.7,142.3,258.3,-0.5,3.7,13.65,44.39,709.1745,140.0042],
    [5500,1525543665,57.3821,-111.9019,512.6,139.9,256.1,-0.7,4.3,13.76,43.64,709.1034,139.9967],
    [5501,1525543666,57.382,-111.903,513.1,137.1,254.8,-0.2,4.9,13.53,44.12,709.0446,139.9981],
    [5502,1525543667,57.3819,-111.904,513.0,133.7,254.7,0.1,4.7,13.1,43.31,709.0024,140.0005],
    [5503,1525543668,57.3818,-111.9051,514.3,131.7,254.7,-0.2,4.6,13.68,43.02,708.7984,139.9934],
    [5504,1525543669,57.3817,-111.9062,516.4,130.5,255.0,-0.4,4.0,13.51,42.94,708.7824,139.9976],
    [5505,1525543670,57.3815,-111.9073,518.3,129.0,254.8,-0.6,4.1,12.94,43.13,708.527,140.0014],
    [5506,1525543671,57.3814,-111.9084,519.3,126.6,254.2,-1.0,4.7,13.05,43.06,708.3544,139.9946],
    [5507,1525543672,57.3813,-111.9095,520.1,124.1,254.3,-0.4,4.7,13.63,43.11,708.1591,139.9962],
    [5508,1525543673,57.3812,-111.9106,520.9,124.9,255.4,2.1,4.3,13.56,43.0,707.9448,140.0039],
    [5509,1525543674,57.3811,-111.9116,521.8,125.8,255.5,0.8,4.5,13.37,43.09,707.6795,140.0014],
    [5510,1525543675,57.381,-111.9127,524.1,128.1,254.6,-0.2,5.4,13.4,43.07,707.4282,140.0018],
    [5511,1525543676,57.3809,-111.9138,526.4,131.5,256.4,1.7,3.5,13.15,42.96,707.3049,140.0044],
    [5512,1525543677,57.3807,-111.9148,528.5,133.5,257.7,2.5,2.4,13.22,43.04,707.2194,139.9974],
    [5513,1525543678,57.3806,-111.9159,531.1,136.1,256.0,2.2,4.5,13.46,43.03,707.0587,140.0035],
    [5514,1525543679,57.3805,-111.917,534.5,139.5,256.4,1.2,3.8,13.64,42.93,707.0575,139.997],
    [5515,1525543680,57.3804,-111.9181,537.7,142.7,257.2,0.6,3.0,13.54,42.38,706.8241,139.9999],
    [5516,1525543681,57.3803,-111.9191,539.7,143.7,256.9,0.6,3.6,13.34,42.4,706.7229,139.9991],
    [5517,1525543682,57.3802,-111.9202,540.6,144.6,257.5,1.9,3.3,13.41,42.0,706.5225,139.9982],
    [5518,1525543683,57.3801,-111.9213,541.0,145.0,258.1,1.4,2.7,13.17,41.73,706.5477,139.9942],
    [5519,1525543684,57.38,-111.9223,542.4,145.7,258.3,1.3,2.7,13.42,41.42,706.6531,140.0056],
    [5520,1525543685,57.3799,-111.9234,544.4,147.4,257.6,1.1,3.5,14.03,40.64,706.6511,140.0057],
    [5521,1525543686,57.3798,-111.9244,546.3,149.4,257.2,1.3,3.8,13.78,40.77,706.5734,140.0054],
    [5522,1525543687,57.3797,-111.9254,547.7,149.7,257.8,1.9,3.1,13.64,40.88,706.5477,140.0044],
    [5523,1525543688,57.3796,-111.9266,548.1,150.1,258.3,2.6,2.5,13.6,40.83,706.4433,139.9991],
    [5524,1525543689,57.3795,-111.9276,547.4,149.4,257.2,1.8,3.0,13.29,40.56,706.2202,140.0002],
    [5525,1525543690,57.3794,-111.9287,546.8,148.1,256.1,1.3,3.6,13.5,40.66,706.3248,140.0089],
    [5526,1525543691,57.3793,-111.9297,547.2,149.2,255.1,0.9,4.1,14.37,39.84,706.2704,140.009],
    [5527,1525543692,57.3792,-111.9306,547.7,151.9,254.7,0.5,4.4,13.76,40.53,706.1863,140.0004],
    [5528,1525543693,57.3791,-111.9317,549.4,156.3,253.9,0.4,4.2,14.0,39.73,705.9928,140.0009],
    [5529,1525543694,57.3789,-111.9329,551.3,156.9,252.2,1.1,3.6,13.64,40.02,705.7301,139.9977],
    [5530,1525543695,57.3787,-111.9339,551.4,156.4,248.2,0.3,3.9,13.47,40.07,705.493,139.9958],
    [5531,1525543696,57.3785,-111.9349,551.4,159.2,241.1,-1.2,5.2,13.71,40.17,705.3247,139.9961],
    [5532,1525543697,57.3783,-111.9358,551.9,166.6,234.7,-0.1,5.9,13.64,40.22,705.2441,139.9993],
    [5533,1525543698,57.378,-111.9367,553.7,173.7,228.8,0.2,5.5,13.19,40.2,705.1127,139.9961],
    [5534,1525543699,57.3776,-111.9374,556.6,178.1,222.9,0.2,6.1,13.41,40.12,705.0185,140.0025],
    [5535,1525543700,57.3772,-111.9382,559.4,181.1,217.3,0.1,6.5,13.85,40.63,704.9297,139.9977],
    [5536,1525543701,57.3768,-111.9387,561.4,181.3,213.4,0.2,6.2,13.42,40.15,704.747,139.9927],
    [5537,1525543702,57.3764,-111.9393,563.3,180.6,209.5,1.2,5.3,14.23,39.4,704.7288,139.9923],
    [5538,1525543703,57.3759,-111.9398,564.7,180.1,204.8,0.3,5.3,13.68,40.25,704.7726,139.9942],
    [5539,1525543704,57.3753,-111.9402,566.0,176.3,200.1,0.2,5.6,14.36,39.77,704.8244,139.9968],
    [5540,1525543705,57.3748,-111.9405,567.3,173.1,196.2,0.2,4.7,13.72,39.82,705.0094,140.0002],
    [5541,1525543706,57.3744,-111.9408,568.4,168.9,191.5,-0.4,5.2,13.79,40.17,705.1927,139.9961],
    [5542,1525543707,57.3738,-111.941,569.3,166.4,187.1,-0.3,7.0,13.76,40.24,705.3654,139.9968],
    [5543,1525543708,57.3733,-111.9411,569.2,164.3,185.1,0.6,6.4,14.09,39.68,705.5412,139.9935],
    [5544,1525543709,57.3728,-111.9411,568.4,162.4,181.5,-0.5,5.8,14.32,39.45,705.567,139.9969],
    [5545,1525543710,57.3722,-111.9411,566.5,160.5,179.4,-0.9,5.0,13.74,40.16,705.8232,139.9947],
    [5546,1525543711,57.3717,-111.9411,564.7,158.7,177.9,-1.2,4.8,13.76,40.16,706.0075,140.002],
    [5547,1525543712,57.3711,-111.9411,562.6,156.9,178.6,0.1,4.9,13.78,40.21,706.1685,139.9991],
    [5548,1525543713,57.3706,-111.9411,560.5,155.4,178.0,-0.2,4.8,13.52,40.08,706.2938,139.9987],
    [5549,1525543714,57.37,-111.941,559.0,155.1,176.8,-1.3,5.5,13.55,40.31,706.3,139.9979],
    [5550,1525543715,57.3695,-111.941,557.1,154.2,177.6,-0.4,5.3,13.74,39.8,706.374,139.9908],
    [5551,1525543716,57.3689,-111.941,555.1,152.9,178.4,0.2,4.4,13.59,39.88,706.4653,140.0003],
    [5552,1525543717,57.3684,-111.9409,553.3,152.8,179.4,1.1,3.5,14.29,39.33,706.6277,140.0006],
    [5553,1525543718,57.3678,-111.9409,551.6,152.6,180.5,1.7,3.8,13.37,39.74,706.7351,140.0],
    [5554,1525543719,57.3672,-111.9409,550.9,154.0,178.5,-0.7,4.4,13.86,40.23,706.8037,139.9982],
    [5555,1525543720,57.3667,-111.9409,550.2,155.3,178.6,-0.4,4.9,14.13,39.15,707.0525,139.9988],
    [5556,1525543721,57.3661,-111.9408,548.7,154.8,179.3,0.0,5.0,13.82,39.87,707.1933,140.0051],
    [5557,1525543722,57.3655,-111.9408,547.4,154.1,178.3,-1.4,5.3,13.63,39.91,707.3019,140.0058],
    [5558,1525543723,57.3649,-111.9408,546.2,152.1,178.9,-0.9,4.7,13.97,39.95,707.4556,139.9993],
    [5559,1525543724,57.3644,-111.9408,544.8,150.2,179.8,-0.4,4.6,13.32,39.8,707.6015,140.0027],
    [5560,1525543725,57.3638,-111.9408,542.6,146.6,180.8,0.6,4.3,13.84,40.09,707.5952,139.9961],
    [5561,1525543726,57.3632,-111.9408,540.7,143.5,181.7,1.4,4.1,13.5,39.86,707.5692,139.994],
    [5562,1525543727,57.3626,-111.9408,539.1,140.2,180.7,0.4,4.2,13.86,39.93,707.5714,139.9947],
    [5563,1525543728,57.362,-111.9408,537.6,138.7,180.7,0.9,3.8,13.56,40.19,707.479,139.9948],
    [5564,1525543729,57.3615,-111.9408,536.2,136.2,181.2,1.8,3.2,13.83,39.86,707.4073,140.0004],
    [5565,1525543730,57.3608,-111.9408,535.4,134.6,180.1,0.4,2.8,13.84,40.19,707.2115,139.9958],
    [5566,1525543731,57.3602,-111.9408,535.3,134.3,178.7,-1.4,3.4,13.34,40.03,707.0829,140.0011],
    [5567,1525543732,57.3597,-111.9408,535.1,133.8,179.0,-0.9,4.7,13.75,40.13,706.8643,139.9945],
    [5568,1525543733,57.359,-111.9408,535.5,134.5,179.8,0.1,5.5,14.44,39.67,706.5406,139.999],
    [5569,1525543734,57.3584,-111.9408,536.6,135.6,180.3,0.8,5.6,14.6,39.79,706.3879,139.9973],
    [5570,1525543735,57.3578,-111.9408,538.1,137.1,180.3,0.6,6.1,14.26,39.98,706.3075,140.0064],
    [5571,1525543736,57.3572,-111.9408,539.9,138.9,179.5,-0.6,6.2,13.79,40.29,706.3328,140.0008],
    [5572,1525543737,57.3566,-111.9408,542.5,141.5,179.6,-0.9,6.7,13.99,40.32,706.3229,140.0003],
    [5573,1525543738,57.356,-111.9408,545.7,144.7,179.7,-0.4,6.3,14.6,39.48,706.1451,140.001],
    [5574,1525543739,57.3555,-111.9408,548.1,147.0,180.3,0.6,6.3,13.66,39.83,706.3426,139.9965],
    [5575,1525543740,57.3549,-111.9408,549.6,149.3,179.5,0.0,5.9,13.9,39.86,706.4105,140.0023],
    [5576,1525543741,57.3543,-111.9408,550.1,150.2,180.2,0.9,5.0,14.06,39.72,706.4416,140.0033],
    [5577,1525543742,57.3537,-111.9408,550.3,150.2,179.2,-0.4,4.4,13.84,39.33,706.6574,139.9935],
    [5578,1525543743,57.3531,-111.9408,550.9,151.8,178.5,-0.9,5.6,14.09,39.35,706.7697,139.9987],
    [5579,1525543744,57.3525,-111.9408,550.5,151.7,180.5,1.6,6.3,14.29,39.58,706.8478,139.9961],
    [5580,1525543745,57.3519,-111.9407,549.4,152.4,180.7,1.5,5.5,13.52,39.36,707.0367,139.9958],
    [5581,1525543746,57.3514,-111.9407,548.4,156.4,179.4,0.0,4.4,14.64,38.78,707.1154,140.0016],
    [5582,1525543747,57.3508,-111.9407,546.9,157.4,179.8,-0.1,3.9,14.12,39.73,707.1912,140.0057],
    [5583,1525543748,57.3502,-111.9407,545.2,156.1,178.3,-1.9,4.0,14.1,39.09,707.2877,139.9962],
    [5584,1525543749,57.3496,-111.9407,543.1,153.1,179.1,-0.9,4.6,13.99,39.34,707.3157,140.0029],
    [5585,1525543750,57.349,-111.9407,540.8,149.8,179.0,-1.0,5.4,14.14,39.36,707.3992,140.0056],
    [5586,1525543751,57.3484,-111.9407,539.5,148.5,178.9,-0.8,5.7,14.24,40.09,707.4906,140.0044],
    [5587,1525543752,57.3478,-111.9407,538.6,147.6,180.1,0.9,5.2,14.27,40.18,707.4997,140.0047],
    [5588,1525543753,57.3472,-111.9407,537.2,145.3,180.7,1.3,5.3,14.29,39.33,707.4762,140.002],
    [5589,1525543754,57.3465,-111.9407,536.7,143.6,178.8,-0.7,5.5,14.07,39.47,707.3822,140.0012],
    [5590,1525543755,57.3459,-111.9407,536.0,143.0,180.0,1.0,5.2,14.28,39.2,707.3257,139.9862],
    [5591,1525543756,57.3453,-111.9406,535.3,142.3,180.8,1.9,4.1,14.18,39.54,707.2156,140.0013],
    [5592,1525543757,57.3447,-111.9406,535.5,143.5,180.1,0.6,4.8,13.84,38.88,707.2532,139.9968],
    [5593,1525543758,57.3441,-111.9406,535.9,146.7,178.9,-1.0,4.2,13.72,38.56,707.2677,140.0006],
    [5594,1525543759,57.3435,-111.9406,537.1,149.7,179.4,-0.4,3.5,14.39,38.14,707.2109,140.0001],
    [5595,1525543760,57.3428,-111.9406,538.0,153.0,179.9,0.2,3.8,14.09,38.22,707.0831,139.9962],
    [5596,1525543761,57.3422,-111.9406,538.8,155.5,179.0,-0.6,4.5,14.21,38.08,706.819,140.0016],
    [5597,1525543762,57.3416,-111.9406,538.8,154.1,179.0,-0.2,4.2,13.95,38.36,706.6976,140.0081],
    [5598,1525543763,57.341,-111.9406,538.3,151.0,179.2,-0.2,4.9,15.05,37.87,706.5224,139.997],
    [5599,1525543764,57.3404,-111.9406,538.6,148.5,178.0,-1.2,5.4,14.54,38.15,706.4714,140.0],
    [5600,1525543765,57.3398,-111.9405,539.9,148.9,178.9,0.3,5.9,14.36,38.7,706.4933,139.9964],
    [5601,1525543766,57.3392,-111.9405,542.3,151.3,178.8,0.4,5.9,14.17,38.4,706.5741,139.9994],
    [5602,1525543767,57.3386,-111.9405,545.0,153.0,178.2,0.0,5.8,14.7,38.24,706.6391,140.0044],
    [5603,1525543768,57.338,-111.9404,546.8,155.8,178.8,0.9,5.4,14.37,38.17,706.8654,140.0024],
    [5604,1525543769,57.3374,-111.9404,547.8,156.7,178.7,0.6,5.1,14.69,37.77,706.8285,140.0059],
    [5605,1525543770,57.3368,-111.9404,547.8,157.8,178.5,0.3,5.2,14.36,38.04,706.7611,139.9911],
    [5606,1525543771,57.3362,-111.9403,547.2,158.2,179.2,1.2,5.0,14.28,38.29,706.7437,140.0009],
    [5607,1525543772,57.3356,-111.9403,545.9,156.9,178.8,0.9,5.1,14.3,37.86,706.7892,139.9976],
    [5608,1525543773,57.335,-111.9402,544.4,156.4,179.1,1.3,5.0,14.24,38.11,706.9543,139.9925],
    [5609,1525543774,57.3344,-111.9402,544.1,156.6,177.8,-0.4,3.7,14.38,37.65,707.0898,140.0089],
    [5610,1525543775,57.3338,-111.9402,544.5,157.5,178.2,0.1,4.8,14.39,37.79,707.1196,139.9997],
    [5611,1525543776,57.3331,-111.9401,544.9,158.1,178.6,0.5,4.8,14.91,37.46,707.3261,139.9988],
    [5612,1525543777,57.3325,-111.9401,544.3,158.3,178.9,0.9,5.7,14.18,37.62,707.3548,139.9992],
    [5613,1525543778,57.332,-111.9401,543.0,158.0,179.9,2.0,5.6,14.3,37.56,707.4388,139.9866],
    [5614,1525543779,57.3313,-111.94,541.7,157.8,178.6,0.2,4.9,14.31,37.69,707.5151,139.9984],
    [5615,1525543780,57.3307,-111.94,540.5,156.9,179.9,1.7,3.6,14.09,37.69,707.6004,139.9974],
    [5616,1525543781,57.3301,-111.94,538.8,155.8,180.5,2.0,3.7,14.64,38.04,707.6527,139.9954],
    [5617,1525543782,57.3295,-111.9399,537.6,155.3,179.3,0.7,3.9,14.73,37.42,707.5534,140.022],
    [5618,1525543783,57.3289,-111.9399,536.8,154.7,178.9,0.7,4.3,14.93,37.13,707.6482,140.0027],
    [5619,1525543784,57.3282,-111.9399,535.5,154.5,178.7,0.7,4.8,14.53,37.51,707.544,140.0087],
    [5620,1525543785,57.3276,-111.9398,534.2,153.2,178.7,1.2,5.1,14.46,38.58,707.5199,140.0092],
    [5621,1525543786,57.327,-111.9398,533.6,153.6,180.1,3.1,5.0,14.46,38.23,707.6045,139.9965],
    [5622,1525543787,57.3264,-111.9397,534.1,154.1,179.5,2.9,4.8,14.49,38.21,707.5021,139.9911],
    [5623,1525543788,57.3258,-111.9397,534.4,154.4,180.8,5.1,3.7,15.2,37.65,707.1481,139.9851],
    [5624,1525543789,57.3251,-111.9396,534.8,155.8,180.9,4.7,1.3,14.24,37.92,707.0087,139.9996],
    [5625,1525543790,57.3245,-111.9395,535.8,156.8,179.3,3.1,0.4,14.24,37.51,706.8788,139.9932],
    [5626,1525543791,57.3239,-111.9395,535.6,157.6,180.8,4.5,0.7,14.68,36.95,706.8721,139.9919],
    [5627,1525543792,57.3232,-111.9394,536.3,159.1,179.6,2.4,1.6,14.57,36.93,706.8033,139.9945],
    [5628,1525543793,57.3226,-111.9394,538.6,161.6,178.2,0.4,4.1,14.83,36.24,706.7108,139.9928],
    [5629,1525543794,57.322,-111.9393,541.5,165.4,178.7,1.0,4.5,14.06,36.63,706.6382,140.0053],
    [5630,1525543795,57.3214,-111.9393,543.1,169.2,179.4,2.4,4.9,14.94,35.97,706.6283,139.9963],
    [5631,1525543796,57.3207,-111.9392,544.0,170.3,179.1,2.5,4.4,14.47,37.08,706.7174,139.9958],
    [5632,1525543797,57.3202,-111.9392,544.7,171.9,177.2,1.0,4.6,14.5,36.56,706.689,140.0062],
    [5633,1525543798,57.3195,-111.9391,545.3,173.0,177.1,1.4,4.5,14.65,36.53,706.5455,139.9992],
    [5634,1525543799,57.3189,-111.939,546.2,174.0,176.7,1.2,4.3,14.63,36.81,706.2865,140.0073],
    [5635,1525543800,57.3183,-111.9389,546.5,175.3,176.8,1.9,4.2,14.51,36.73,705.9426,140.0018],
    [5636,1525543801,57.3177,-111.9388,546.2,176.5,176.1,2.2,3.4,14.62,36.78,705.5997,140.0044],
    [5637,1525543802,57.3171,-111.9386,546.2,177.2,173.1,1.2,3.4,15.1,35.9,705.3214,140.0034],
    [5638,1525543803,57.3166,-111.9385,546.9,179.1,171.2,1.7,4.2,14.19,36.58,704.9872,139.9947],
    [5639,1525543804,57.3159,-111.9382,550.0,183.0,166.3,0.4,4.3,14.69,37.17,704.5743,139.994],
    [5640,1525543805,57.3153,-111.9379,554.8,188.8,162.9,0.9,4.2,14.67,36.91,704.2908,139.997],
    [5641,1525543806,57.3148,-111.9375,559.3,193.5,160.0,1.6,2.8,14.47,36.43,703.9404,139.996],
    [5642,1525543807,57.3142,-111.937,563.5,198.5,155.0,0.9,2.2,15.09,35.83,703.6915,139.9985],
    [5643,1525543808,57.3137,-111.9365,567.7,202.7,151.3,1.4,3.5,14.45,36.43,703.5925,139.997],
    [5644,1525543809,57.3132,-111.9359,571.7,207.6,145.6,0.5,3.2,14.84,36.0,703.5176,140.0002],
    [5645,1525543810,57.3128,-111.9352,575.5,211.8,141.0,0.8,3.4,14.52,36.21,703.516,139.9981],
    [5646,1525543811,57.3123,-111.9344,579.5,216.2,135.5,0.5,3.4,14.58,36.36,703.3478,139.9983],
    [5647,1525543812,57.3119,-111.9336,582.7,219.7,129.6,0.1,2.1,14.47,36.52,703.2289,139.9956],
    [5648,1525543813,57.3116,-111.9328,584.5,221.5,125.1,0.3,2.1,14.37,37.11,703.1547,139.994],
    [5649,1525543814,57.3113,-111.932,585.6,223.6,120.8,0.4,1.8,14.17,37.52,702.9674,140.0063],
    [5650,1525543815,57.3111,-111.9309,585.9,224.0,115.0,0.1,1.3,14.63,37.62,702.953,139.9948],
    [5651,1525543816,57.3108,-111.9298,587.0,226.1,109.8,-0.7,1.4,14.65,37.7,702.7539,139.9945],
    [5652,1525543817,57.3107,-111.9288,589.1,229.1,106.1,0.3,1.7,14.59,37.99,702.6757,139.9973],
    [5653,1525543818,57.3105,-111.9278,590.6,231.6,103.8,0.5,2.8,14.47,38.4,702.6809,139.9921],
    [5654,1525543819,57.3105,-111.9267,592.0,233.0,100.2,1.0,2.7,14.64,38.1,702.6319,139.9945],
    [5655,1525543820,57.3104,-111.9256,593.5,235.5,97.1,1.7,2.5,14.52,39.08,702.7836,139.9821],
    [5656,1525543821,57.3104,-111.9246,595.2,238.2,94.4,1.9,2.3,14.43,38.86,703.1723,139.999],
    [5657,1525543822,57.3103,-111.9235,596.2,240.3,91.7,1.2,1.6,14.9,38.69,703.1977,139.9994],
    [5658,1525543823,57.3104,-111.9224,596.2,240.1,90.9,1.5,2.3,14.44,38.8,703.5071,139.9933],
    [5659,1525543824,57.3104,-111.9213,595.7,240.7,88.8,1.1,1.3,14.67,38.79,703.5792,140.0007],
    [5660,1525543825,57.3104,-111.9201,594.0,240.0,89.0,1.0,2.5,14.38,39.84,703.6005,139.9936],
    [5661,1525543826,57.3104,-111.919,590.9,237.9,88.7,0.2,2.5,14.42,39.46,703.6879,139.9995],
    [5662,1525543827,57.3105,-111.9179,588.2,236.2,88.3,0.3,2.3,14.97,38.73,703.8131,139.9935],
    [5663,1525543828,57.3105,-111.9168,586.0,234.3,89.0,-0.1,2.9,14.51,39.5,703.9133,140.0024],
    [5664,1525543829,57.3105,-111.9157,584.3,233.3,88.3,-0.7,2.0,14.54,39.21,703.8582,139.9976],
    [5665,1525543830,57.3106,-111.9145,583.5,233.5,88.3,-0.2,2.2,14.08,39.17,703.7709,139.9985],
    [5666,1525543831,57.3106,-111.9133,582.9,232.9,89.3,-0.3,3.1,14.6,39.05,703.7994,139.9951],
    [5667,1525543832,57.3107,-111.9123,581.9,232.9,89.9,-0.1,3.6,14.09,39.36,703.7884,139.9972],
    [5668,1525543833,57.3107,-111.911,580.2,231.5,90.5,-0.7,4.0,14.31,39.58,703.8015,139.9998],
    [5669,1525543834,57.3107,-111.9099,580.0,232.0,89.2,0.4,2.9,14.4,39.05,703.8133,140.0031],
    [5670,1525543835,57.3108,-111.9087,581.2,234.2,88.2,-0.4,2.5,14.11,39.53,703.8591,139.9978],
    [5671,1525543836,57.3108,-111.9076,581.6,234.6,88.6,-0.3,3.0,14.69,38.87,703.8762,140.002],
    [5672,1525543837,57.3108,-111.9064,581.6,235.6,87.6,0.0,2.1,14.63,39.35,703.7925,140.002],
    [5673,1525543838,57.3109,-111.9052,581.5,235.5,87.7,-0.1,2.4,14.28,40.22,703.774,140.0063],
    [5674,1525543839,57.3109,-111.904,581.6,235.6,87.4,-0.2,2.8,14.28,40.35,703.7597,140.0011],
    [5675,1525543840,57.311,-111.9028,581.5,235.5,87.1,0.8,3.4,14.19,39.52,703.8828,139.9962],
    [5676,1525543841,57.3111,-111.9016,581.1,236.1,85.0,0.7,2.5,14.29,39.65,703.8906,140.007],
    [5677,1525543842,57.3112,-111.9005,581.1,236.1,83.9,0.1,4.2,14.6,39.4,703.9322,139.996],
    [5678,1525543843,57.3113,-111.8993,581.8,237.8,81.3,1.0,5.1,13.67,39.77,703.8615,139.9931],
    [5679,1525543844,57.3114,-111.8982,582.1,238.1,75.2,1.9,3.3,13.95,39.96,703.9874,139.9958],
    [5680,1525543845,57.3117,-111.897,581.8,238.8,70.4,2.0,4.0,14.24,39.6,704.1309,139.9913],
    [5681,1525543846,57.3119,-111.896,580.8,238.8,64.2,2.4,2.7,13.75,39.63,704.3505,139.9971],
    [5682,1525543847,57.3122,-111.895,580.3,239.3,57.4,2.0,1.4,14.44,39.67,704.6071,140.006],
    [5683,1525543848,57.3126,-111.894,581.2,240.2,53.3,1.4,2.8,14.47,39.42,704.6053,139.9922],
    [5684,1525543849,57.3131,-111.893,581.4,241.4,50.1,1.9,3.9,13.99,39.96,704.5884,139.998],
    [5685,1525543850,57.3135,-111.8921,579.0,238.0,45.5,2.3,3.4,13.98,39.93,704.6451,139.996],
    [5686,1525543851,57.314,-111.8913,576.0,235.0,40.9,2.9,3.0,14.17,40.39,704.6771,139.9958],
    [5687,1525543852,57.3145,-111.8906,572.9,230.9,36.2,3.1,2.2,14.08,39.85,704.7097,140.0004],
    [5688,1525543853,57.315,-111.8899,571.7,230.5,31.7,3.1,2.6,13.95,40.03,704.8027,139.992],
    [5689,1525543854,57.3156,-111.8892,572.3,231.6,28.5,2.5,2.8,13.81,40.07,704.9311,140.0011],
    [5690,1525543855,57.3162,-111.8886,572.1,232.1,25.4,2.2,2.8,14.32,39.71,705.0397,139.9986],
    [5691,1525543856,57.3168,-111.8881,571.2,232.2,22.3,2.0,3.1,13.82,40.1,705.2294,139.9936],
    [5692,1525543857,57.3175,-111.8877,570.4,232.4,18.4,2.5,1.4,14.02,40.28,705.3956,139.9972],
    [5693,1525543858,57.3181,-111.8873,569.3,230.2,15.9,2.6,0.7,14.01,39.84,705.6514,140.0026],
    [5694,1525543859,57.3187,-111.8869,568.3,229.3,15.4,1.9,2.2,14.19,39.58,705.8508,139.9992],
    [5695,1525543860,57.3194,-111.8866,566.7,226.6,13.9,2.6,2.8,13.5,39.76,706.0641,139.9982],
    [5696,1525543861,57.32,-111.8863,564.3,225.3,12.6,2.5,2.1,13.9,39.76,706.0776,139.9981],
    [5697,1525543862,57.3207,-111.886,561.8,223.1,12.8,1.1,3.0,13.52,39.8,706.1727,139.9987],
    [5698,1525543863,57.3213,-111.8857,559.3,221.3,11.7,2.0,2.9,14.44,39.55,706.3007,139.9948],
    [5699,1525543864,57.322,-111.8854,556.7,219.7,10.0,2.6,2.7,14.52,39.55,706.2004,140.0005],
    [5700,1525543865,57.3227,-111.8852,554.6,218.3,9.9,1.0,3.5,14.05,40.46,706.2285,139.9948],
    [5701,1525543866,57.3234,-111.885,553.1,217.8,7.2,1.9,2.7,14.02,39.93,706.2981,140.0073],
    [5702,1525543867,57.324,-111.8848,552.2,217.3,5.8,1.4,2.1,13.79,39.73,706.3338,139.9922],
    [5703,1525543868,57.3248,-111.8847,550.8,216.8,5.2,1.1,2.3,13.66,39.73,706.3329,139.9963],
    [5704,1525543869,57.3254,-111.8846,551.1,217.1,3.0,2.7,2.0,14.02,40.11,706.3354,140.0126],
    [5705,1525543870,57.3261,-111.8845,551.3,217.3,4.2,1.1,2.5,14.06,40.06,706.2858,139.9932],
    [5706,1525543871,57.3268,-111.8844,550.7,215.0,2.8,3.1,3.8,14.65,39.4,706.25,140.0031],
    [5707,1525543872,57.3275,-111.8842,550.1,213.2,362.1,3.6,3.4,14.59,39.31,706.2381,139.998],
    [5708,1525543873,57.3282,-111.8841,549.8,211.8,3.6,2.3,3.1,13.67,39.68,706.2305,139.9995],
    [5709,1525543874,57.3289,-111.884,550.0,210.9,2.8,3.4,3.2,13.93,39.38,706.1773,140.0033],
    [5710,1525543875,57.3296,-111.8839,550.7,212.7,4.8,1.4,4.1,14.07,39.08,706.1281,139.9942],
    [5711,1525543876,57.3303,-111.8838,551.2,213.2,4.4,2.2,3.5,13.94,38.66,706.081,140.0014],
    [5712,1525543877,57.331,-111.8836,551.6,213.6,4.7,2.0,3.7,14.56,38.31,705.9403,139.9976],
    [5713,1525543878,57.3317,-111.8835,551.7,213.7,5.5,1.6,4.1,14.1,38.62,705.7499,140.0028],
    [5714,1525543879,57.3323,-111.8834,551.8,213.8,4.8,2.3,3.0,14.19,38.58,705.7927,140.0045],
    [5715,1525543880,57.333,-111.8832,552.0,214.0,5.5,1.9,2.7,13.95,38.66,705.7639,139.9967],
    [5716,1525543881,57.3337,-111.8831,552.7,213.7,4.3,3.6,2.1,14.17,38.66,705.742,139.999],
    [5717,1525543882,57.3344,-111.8829,554.0,215.0,5.0,2.6,1.9,13.74,38.16,705.7467,140.001],
    [5718,1525543883,57.3351,-111.8828,555.4,216.4,5.8,1.5,2.3,14.24,37.74,705.8124,139.995],
    [5719,1525543884,57.3358,-111.8826,556.7,218.7,5.4,2.0,3.2,14.48,37.14,705.8693,140.0048],
    [5720,1525543885,57.3364,-111.8825,557.1,219.1,4.3,3.1,2.8,14.4,37.05,705.8872,140.0008],
    [5721,1525543886,57.3372,-111.8823,557.2,219.2,3.9,3.6,2.6,13.97,37.48,705.8948,140.0017],
    [5722,1525543887,57.3378,-111.8822,557.1,218.1,4.5,2.9,2.9,14.35,37.25,705.9637,139.9947],
    [5723,1525543888,57.3385,-111.8821,556.6,217.6,4.6,2.6,2.6,14.2,37.28,706.0034,139.9966],
    [5724,1525543889,57.3392,-111.8819,555.4,216.4,3.8,3.5,2.9,13.72,37.08,706.1211,139.9947],
    [5725,1525543890,57.3399,-111.8818,555.1,217.1,4.8,2.1,2.9,14.56,36.71,706.2778,139.9987],
    [5726,1525543891,57.3406,-111.8816,554.9,217.9,4.9,2.4,3.5,14.13,36.9,706.3789,139.9957],
    [5727,1525543892,57.3413,-111.8815,554.6,218.6,4.2,3.0,3.4,14.41,36.39,706.6171,139.9994],
    [5728,1525543893,57.342,-111.8813,553.9,218.9,5.1,2.1,3.5,14.2,36.81,706.7005,140.0002],
    [5729,1525543894,57.3426,-111.8812,552.9,217.9,4.9,2.6,4.2,14.74,36.55,706.8298,140.0014],
    [5730,1525543895,57.3433,-111.8811,551.2,215.2,4.5,2.9,3.5,14.27,36.67,706.8582,139.9999],
    [5731,1525543896,57.3441,-111.8809,549.4,212.4,4.8,2.0,3.3,14.27,36.86,706.9684,139.9968],
    [5732,1525543897,57.3447,-111.8808,547.3,209.3,5.1,1.7,4.0,14.7,36.71,706.9683,139.998],
    [5733,1525543898,57.3454,-111.8806,545.8,207.8,5.0,1.9,4.1,14.74,37.04,707.0126,139.9936],
    [5734,1525543899,57.3461,-111.8805,544.4,206.4,4.3,2.9,4.5,14.28,38.12,707.0901,140.0],
    [5735,1525543900,57.3469,-111.8804,543.3,206.3,4.6,2.0,3.8,14.03,37.77,707.1671,139.9984],
    [5736,1525543901,57.3476,-111.8802,542.4,205.0,4.9,1.7,3.8,14.45,37.75,707.1944,139.9992],
    [5737,1525543902,57.3483,-111.8801,542.1,204.2,4.0,2.6,3.8,14.07,37.8,707.0672,140.0072],
    [5738,1525543903,57.3489,-111.88,541.7,203.1,4.5,1.9,3.5,14.37,38.25,706.8977,139.9962],
    [5739,1525543904,57.3496,-111.8798,540.9,201.9,4.2,2.2,3.6,14.37,37.77,706.7055,140.0004],
    [5740,1525543905,57.3504,-111.8797,539.9,201.9,3.7,2.9,3.2,14.15,37.97,706.6267,139.9908],
    [5741,1525543906,57.351,-111.8796,539.4,201.4,3.2,3.5,3.5,14.08,37.91,706.5143,139.9996],
    [5742,1525543907,57.3518,-111.8795,540.3,203.3,3.0,3.9,4.0,13.91,37.64,706.3824,139.9931],
    [5743,1525543908,57.3525,-111.8793,542.5,205.8,4.0,3.0,4.3,14.31,37.43,706.291,139.9988],
    [5744,1525543909,57.3532,-111.8792,544.5,208.5,4.2,3.0,4.2,14.45,37.4,706.0704,139.9994],
    [5745,1525543910,57.3538,-111.8791,545.8,209.8,5.2,1.9,4.5,14.15,37.74,705.7708,139.9999],
    [5746,1525543911,57.3546,-111.8789,547.1,210.8,5.6,2.0,5.1,13.93,38.24,705.6625,139.9964],
    [5747,1525543912,57.3553,-111.8787,548.3,211.3,4.9,3.1,4.2,14.29,38.08,705.7224,139.9979],
    [5748,1525543913,57.356,-111.8786,550.1,213.1,5.7,2.9,3.8,13.67,38.2,705.6155,140.0013],
    [5749,1525543914,57.3566,-111.8784,552.1,214.9,5.3,3.9,4.0,14.63,38.38,705.3325,139.9896],
    [5750,1525543915,57.3573,-111.8782,555.4,217.4,6.0,3.3,4.4,14.81,37.31,705.2171,140.0007],
    [5751,1525543916,57.358,-111.878,557.3,218.3,8.0,0.9,4.1,14.42,37.4,705.1324,139.9981],
    [5752,1525543917,57.3587,-111.8779,557.5,218.5,9.6,-0.4,4.6,14.25,37.68,705.0001,140.0057],
    [5753,1525543918,57.3594,-111.8777,557.9,218.9,8.6,1.1,4.1,14.21,37.82,704.9443,140.005],
    [5754,1525543919,57.3601,-111.8775,559.9,220.9,8.6,1.2,3.4,14.55,37.61,704.9921,139.9877],
    [5755,1525543920,57.3608,-111.8772,561.7,223.7,7.7,2.4,2.2,14.24,37.88,704.9207,139.9872],
    [5756,1525543921,57.3615,-111.877,563.1,225.1,7.0,2.9,2.1,14.05,38.19,705.002,139.9919],
    [5757,1525543922,57.3621,-111.8769,564.3,226.3,7.4,2.4,3.1,14.23,37.52,705.2296,140.0038],
    [5758,1525543923,57.3628,-111.8767,565.6,226.6,8.5,0.6,3.7,14.12,37.77,705.2959,140.001],
    [5759,1525543924,57.3635,-111.8765,565.8,226.8,9.7,-0.3,3.2,14.34,37.34,705.4054,140.0025],
    [5760,1525543925,57.3642,-111.8763,565.6,226.6,7.8,1.7,2.0,14.1,37.94,705.4504,140.004],
    [5761,1525543926,57.3648,-111.8761,564.9,225.9,8.7,0.6,1.5,14.02,37.56,705.5359,139.9948],
    [5762,1525543927,57.3655,-111.8759,562.9,223.9,7.7,2.0,0.8,14.2,37.57,705.7272,139.9918],
    [5763,1525543928,57.3662,-111.8757,561.5,222.5,7.2,2.5,2.0,14.13,37.47,705.8141,140.0025],
    [5764,1525543929,57.3669,-111.8755,560.6,221.6,7.6,2.3,2.1,13.75,37.52,705.7619,140.0035],
    [5765,1525543930,57.3675,-111.8753,559.8,221.8,7.4,2.2,1.8,14.29,37.36,705.8655,140.0044],
    [5766,1525543931,57.3682,-111.8751,558.9,220.9,10.1,-0.9,3.3,14.28,37.55,705.838,139.9984],
    [5767,1525543932,57.369,-111.8749,556.8,218.8,10.0,-0.3,2.4,13.91,37.65,705.7035,140.0099],
    [5768,1525543933,57.3696,-111.8746,555.6,217.6,8.9,0.9,2.2,13.77,38.21,705.5714,140.0031],
    [5769,1525543934,57.3703,-111.8744,555.8,216.8,8.8,0.1,3.3,14.57,38.21,705.3641,139.9999],
    [5770,1525543935,57.3709,-111.8743,555.6,216.6,7.9,-0.8,3.5,14.23,38.56,705.2961,140.001],
    [5771,1525543936,57.3717,-111.8742,555.4,216.4,3.0,0.4,2.8,14.1,38.7,705.2052,139.9971],
    [5772,1525543937,57.3724,-111.8741,556.4,218.2,357.6,1.7,2.6,14.48,38.56,705.108,140.0019],
    [5773,1525543938,57.3731,-111.8742,558.9,221.1,352.6,1.9,3.0,13.98,38.59,704.9103,140.0057],
    [5774,1525543939,57.3738,-111.8744,561.4,222.3,348.7,1.4,3.2,14.12,38.5,704.8042,139.9972],
    [5775,1525543940,57.3745,-111.8747,562.3,222.3,343.6,1.1,3.9,14.72,37.85,704.6724,140.0075],
    [5776,1525543941,57.3751,-111.875,563.2,221.5,339.0,0.3,3.0,14.36,37.71,704.5817,140.0014],
    [5777,1525543942,57.3757,-111.8755,564.8,222.5,334.4,0.5,3.0,14.32,38.46,704.5353,140.0038],
    [5778,1525543943,57.3763,-111.8761,566.7,223.7,329.0,1.0,2.5,13.91,38.37,704.4906,140.0006],
    [5779,1525543944,57.3769,-111.8767,568.4,224.6,324.5,0.7,2.6,14.28,38.29,704.5336,140.0069],
    [5780,1525543945,57.3774,-111.8774,569.7,224.4,318.8,2.3,3.1,14.27,38.98,704.4437,140.0005],
    [5781,1525543946,57.3779,-111.8782,570.8,223.8,313.9,1.8,3.2,14.31,38.14,704.4832,140.0005],
    [5782,1525543947,57.3783,-111.8791,571.9,223.9,309.2,1.2,2.8,14.07,38.62,704.5371,139.9949],
    [5783,1525543948,57.3787,-111.88,572.7,223.7,304.2,1.2,2.4,13.78,38.99,704.6954,140.0022],
    [5784,1525543949,57.3791,-111.881,572.8,222.6,298.9,1.1,3.7,13.56,39.14,705.0195,140.0011],
    [5785,1525543950,57.3794,-111.882,572.8,221.8,293.4,1.8,4.5,13.87,39.37,705.167,140.0032],
    [5786,1525543951,57.3797,-111.883,572.8,220.8,290.6,0.5,3.3,14.15,40.29,705.5229,139.999],
    [5787,1525543952,57.3799,-111.8842,571.9,219.1,286.1,1.6,2.8,13.85,40.17,705.9381,139.9962],
    [5788,1525543953,57.3801,-111.8853,569.9,216.9,281.5,1.1,3.0,13.66,40.86,706.2424,140.0018],
    [5789,1525543954,57.3802,-111.8864,567.2,214.2,276.8,1.0,4.0,13.74,40.71,706.4578,139.9992],
    [5790,1525543955,57.3803,-111.8876,563.6,210.6,272.1,0.5,4.2,14.36,40.78,706.9846,140.0025],
    [5791,1525543956,57.3803,-111.8888,559.2,207.2,268.1,1.5,4.1,13.71,41.03,707.4765,140.0077],
    [5792,1525543957,57.3803,-111.89,555.0,203.0,264.8,2.6,3.9,13.95,41.0,707.6086,140.0067],
    [5793,1525543958,57.3803,-111.8911,551.3,199.3,263.2,2.5,3.2,13.52,41.61,707.7569,139.9986],
    [5794,1525543959,57.3802,-111.8922,546.9,193.9,262.4,2.4,2.6,13.97,41.45,707.7552,140.0062],
    [5795,1525543960,57.3802,-111.8936,540.9,187.2,260.8,1.8,3.3,13.25,41.02,707.6605,140.0049],
    [5796,1525543961,57.3801,-111.8948,537.0,180.9,260.0,1.4,3.9,14.09,40.55,707.529,139.9895],
    [5797,1525543962,57.38,-111.896,534.0,176.1,259.6,1.1,4.6,14.03,40.3,707.5579,139.9968],
    [5798,1525543963,57.3799,-111.8972,531.9,170.8,261.3,1.3,3.5,14.65,39.93,707.6178,139.9952],
    [5799,1525543964,57.3798,-111.8985,532.0,169.0,262.9,0.2,3.0,13.63,40.24,707.762,139.9999],
    [5800,1525543965,57.3798,-111.8997,533.4,168.4,263.0,0.4,3.7,13.75,40.2,707.8355,139.9974],
    [5801,1525543966,57.3797,-111.9009,534.4,167.4,264.1,1.4,3.0,13.86,40.3,707.8821,139.9982],
    [5802,1525543967,57.3797,-111.9021,534.5,166.5,264.1,0.8,3.3,13.92,40.62,707.8382,140.0005],
    [5803,1525543968,57.3797,-111.9034,533.8,162.1,265.1,0.4,2.4,13.88,40.32,707.74,140.0047],
    [5804,1525543969,57.3796,-111.9046,532.8,157.8,265.4,0.1,2.9,13.47,39.73,707.6773,139.9968],
    [5805,1525543970,57.3796,-111.9059,531.4,151.4,264.7,0.0,4.1,13.77,39.82,707.5721,140.0068],
    [5806,1525543971,57.3796,-111.9071,530.7,146.7,264.7,-0.2,4.0,14.16,39.48,707.2289,140.0061],
    [5807,1525543972,57.3796,-111.9083,530.9,141.9,264.1,0.3,4.4,13.98,39.64,706.8782,140.0072],
    [5808,1525543973,57.3795,-111.9095,531.7,138.7,263.7,0.3,4.4,13.73,39.53,706.5829,139.9993],
    [5809,1525543974,57.3795,-111.9107,532.5,137.4,264.6,1.0,3.1,13.44,39.3,706.2061,140.0104],
    [5810,1525543975,57.3794,-111.9121,533.8,138.8,264.9,0.8,2.7,14.03,39.1,705.9174,140.001],
    [5811,1525543976,57.3794,-111.9133,537.0,142.0,264.2,0.7,3.2,13.79,39.52,705.3803,139.9957],
    [5812,1525543977,57.3794,-111.9144,541.3,146.3,263.9,0.6,3.0,14.27,39.1,705.1301,139.9992],
    [5813,1525543978,57.3793,-111.9156,544.7,150.1,262.8,0.1,3.7,13.89,39.43,704.736,139.9931],
    [5814,1525543979,57.3793,-111.9168,548.7,154.3,262.7,0.3,3.5,13.87,39.35,704.6236,139.9936],
    [5815,1525543980,57.3792,-111.918,553.4,158.4,262.1,-0.1,4.2,13.65,39.01,704.2158,140.0022],
    [5816,1525543981,57.3792,-111.919,557.2,162.2,261.9,1.0,4.7,13.84,39.04,703.9716,139.9967],
    [5817,1525543982,57.3791,-111.9204,562.4,167.4,262.4,1.2,4.4,14.38,38.89,703.8557,139.9912],
    [5818,1525543983,57.3791,-111.9216,566.3,171.3,263.6,2.3,3.1,13.8,38.91,703.5327,140.0043],
    [5819,1525543984,57.379,-111.9226,569.7,173.7,265.2,2.1,1.7,13.88,38.69,703.4389,140.0025],
    [5820,1525543985,57.379,-111.9239,573.4,177.4,265.2,2.0,2.5,13.99,38.77,703.3324,140.009],
    [5821,1525543986,57.379,-111.9251,576.3,179.2,265.0,2.7,3.3,13.89,38.57,703.091,140.0003],
    [5822,1525543987,57.3789,-111.9262,578.7,181.7,265.3,3.6,3.7,14.04,38.76,703.0217,139.9888],
    [5823,1525543988,57.3789,-111.9273,581.3,183.2,264.8,3.3,4.2,14.11,39.27,703.0807,140.0067],
    [5824,1525543989,57.3789,-111.9285,583.2,185.2,265.9,2.7,3.0,14.21,38.5,702.9438,140.0025],
    [5825,1525543990,57.3789,-111.9296,585.5,187.5,264.4,1.1,4.5,14.07,38.58,702.7639,140.0055],
    [5826,1525543991,57.3789,-111.9307,587.6,192.9,263.9,0.7,4.3,13.75,38.86,702.6737,140.0012],
    [5827,1525543992,57.3788,-111.9319,588.3,195.3,264.2,2.4,2.4,13.99,38.62,702.6489,140.0045],
    [5828,1525543993,57.3788,-111.9329,588.3,195.3,262.1,0.8,2.2,13.63,38.87,702.6349,140.0029],
    [5829,1525543994,57.3787,-111.9341,589.4,194.3,257.6,0.5,3.5,14.11,38.44,702.4328,140.007],
    [5830,1525543995,57.3786,-111.9352,591.0,199.6,252.7,1.1,4.6,14.46,38.43,702.3538,139.9971],
    [5831,1525543996,57.3784,-111.9363,592.2,206.0,247.4,1.1,5.1,13.98,38.64,702.278,140.0002],
    [5832,1525543997,57.3782,-111.9373,593.0,211.8,242.3,1.0,5.7,14.51,37.76,701.9749,139.9911],
    [5833,1525543998,57.3779,-111.9382,593.5,214.5,236.7,-0.1,5.5,14.07,38.3,701.9058,139.9914],
    [5834,1525543999,57.3776,-111.9392,594.8,215.6,229.6,-0.5,6.3,13.68,38.63,701.7634,140.0038],
    [5835,1525544000,57.3772,-111.94,596.4,216.0,224.8,-0.1,5.2,14.09,38.48,701.6682,140.0024],
    [5836,1525544001,57.3769,-111.9408,597.5,215.2,221.8,0.9,4.1,13.91,38.38,701.6527,139.9975],
    [5837,1525544002,57.3764,-111.9414,598.6,212.7,216.2,1.8,6.2,14.6,37.99,701.5279,140.0038],
    [5838,1525544003,57.3759,-111.9421,600.3,208.6,212.5,3.1,5.8,13.87,38.39,701.304,139.9962],
    [5839,1525544004,57.3754,-111.9426,602.3,204.4,209.4,3.9,4.3,14.01,38.36,701.0665,139.9957],
    [5840,1525544005,57.3749,-111.9431,603.8,201.1,204.6,2.5,5.4,14.06,38.36,700.9927,139.9964],
    [5841,1525544006,57.3744,-111.9435,604.5,199.2,199.0,1.1,5.9,14.14,38.41,700.9143,139.9962],
    [5842,1525544007,57.3739,-111.9438,605.7,198.7,194.9,1.1,5.7,13.97,38.61,700.8411,139.9971],
    [5843,1525544008,57.3733,-111.9441,608.7,199.8,189.7,0.1,5.5,14.67,38.35,700.8707,139.9933],
    [5844,1525544009,57.3727,-111.9442,611.4,202.3,186.8,-0.1,6.0,14.68,38.78,700.9652,139.9988],
    [5845,1525544010,57.3722,-111.9443,612.9,203.2,184.4,-0.2,6.3,13.96,39.22,701.1964,139.9981],
    [5846,1525544011,57.3716,-111.9444,613.8,204.9,182.1,-0.2,6.5,14.12,39.32,701.2747,140.0033],
    [5847,1525544012,57.371,-111.9444,614.3,205.9,179.1,-1.2,6.9,13.75,39.66,701.5828,139.9956],
    [5848,1525544013,57.3704,-111.9444,614.4,207.5,177.1,-0.9,6.7,14.36,39.3,701.6634,140.0],
    [5849,1525544014,57.3699,-111.9443,613.4,207.4,176.4,0.1,6.5,14.22,39.63,701.724,139.9976],
    [5850,1525544015,57.3693,-111.9442,611.4,207.4,174.8,0.3,6.5,13.98,39.76,701.8233,140.003],
    [5851,1525544016,57.3687,-111.9441,609.4,207.4,172.2,-0.5,6.0,13.64,39.69,701.8206,140.0009],
    [5852,1525544017,57.3681,-111.9439,606.4,207.2,171.6,0.5,6.3,13.92,39.85,701.9345,139.9979],
    [5853,1525544018,57.3676,-111.9437,604.5,206.6,170.4,0.7,6.2,13.82,39.77,701.9582,140.0023],
    [5854,1525544019,57.367,-111.9435,603.3,205.6,169.7,0.4,6.7,13.91,39.67,702.1699,139.9923],
    [5855,1525544020,57.3664,-111.9433,602.1,204.1,170.0,1.3,6.2,14.26,39.69,702.1737,140.0081],
    [5856,1525544021,57.3658,-111.9431,600.7,201.8,170.1,1.0,6.7,13.93,40.0,702.2123,139.9893],
    [5857,1525544022,57.3652,-111.9428,599.9,199.9,167.7,-2.1,7.6,13.91,39.89,702.1574,140.0166],
    [5858,1525544023,57.3646,-111.9426,599.1,200.1,168.6,-0.4,7.3,13.92,40.1,702.3967,139.997],
    [5859,1525544024,57.3641,-111.9424,597.8,199.7,170.5,1.7,7.3,13.98,39.84,702.4761,139.9864],
    [5860,1525544025,57.3635,-111.9421,597.0,199.1,168.8,-0.4,6.3,13.77,39.89,702.347,140.0182],
    [5861,1525544026,57.3629,-111.9419,596.8,197.8,168.8,-0.4,6.7,14.5,39.27,702.3909,139.993],
    [5862,1525544027,57.3623,-111.9417,596.6,196.6,170.1,0.0,6.1,13.58,39.77,702.5056,140.0106],
    [5863,1525544028,57.3617,-111.9415,594.5,193.6,171.1,0.7,6.2,13.86,39.81,702.3674,140.0084],
    [5864,1525544029,57.3611,-111.9413,592.3,191.3,173.9,2.0,7.2,14.5,39.44,702.5154,139.991],
    [5865,1525544030,57.3605,-111.9411,593.4,191.4,172.4,-1.1,7.6,13.78,39.85,702.4907,139.9921],
    [5866,1525544031,57.3598,-111.941,594.2,192.5,174.8,1.6,7.3,14.15,39.69,702.3794,140.007],
    [5867,1525544032,57.3593,-111.9409,594.1,192.2,176.0,1.8,4.3,14.37,39.52,702.3809,140.0002],
    [5868,1525544033,57.3586,-111.9408,594.5,193.5,173.9,-2.0,3.7,13.94,39.78,702.386,140.0023],
    [5869,1525544034,57.358,-111.9407,594.2,193.2,176.0,-0.2,4.0,13.95,39.53,702.3861,140.0036],
    [5870,1525544035,57.3574,-111.9406,593.4,192.4,177.4,0.4,6.2,14.29,39.86,702.3103,140.0065],
    [5871,1525544036,57.3568,-111.9405,593.7,192.7,177.4,-0.3,7.6,14.14,39.68,702.3568,140.0045],
    [5872,1525544037,57.3562,-111.9405,594.5,193.5,178.4,0.9,7.0,13.97,39.69,702.3458,139.9986],
    [5873,1525544038,57.3556,-111.9404,594.6,194.6,179.2,1.8,6.5,13.61,39.3,702.3102,140.008],
    [5874,1525544039,57.355,-111.9404,594.4,194.4,179.3,1.6,6.5,14.04,38.98,702.268,139.997],
    [5875,1525544040,57.3543,-111.9404,595.0,195.0,179.0,0.8,6.3,14.07,39.25,702.1613,139.9975],
    [5876,1525544041,57.3538,-111.9403,595.6,196.6,179.6,1.0,5.4,14.17,39.07,701.9351,139.9997],
    [5877,1525544042,57.3531,-111.9403,595.9,196.9,179.1,0.4,5.7,13.75,39.27,701.8088,139.9991],
    [5878,1525544043,57.3524,-111.9403,596.3,199.0,178.2,-0.4,5.7,13.88,39.18,701.5629,139.998],
    [5879,1525544044,57.3519,-111.9402,596.8,201.4,179.3,1.2,4.4,13.73,39.18,701.5255,139.996],
    [5880,1525544045,57.3512,-111.9402,598.1,206.1,178.1,-0.5,5.0,14.1,39.03,701.282,140.0037],
    [5881,1525544046,57.3506,-111.9402,600.2,210.9,178.2,0.1,6.2,14.39,39.4,701.1057,139.9967],
    [5882,1525544047,57.35,-111.9401,602.0,213.5,179.7,1.9,5.0,13.9,39.12,701.0308,139.9948],
    [5883,1525544048,57.3494,-111.9401,604.2,213.1,179.7,2.2,5.7,14.03,39.15,700.8976,139.9977],
    [5884,1525544049,57.3488,-111.94,606.3,215.0,180.6,2.8,5.5,14.16,38.87,700.8407,139.9984],
    [5885,1525544050,57.3482,-111.94,608.4,217.4,180.0,1.8,4.2,13.97,39.11,700.7333,139.9992],
    [5886,1525544051,57.3476,-111.94,610.7,219.7,180.4,1.9,4.4,14.2,38.66,700.4573,140.0031],
    [5887,1525544052,57.347,-111.94,612.0,221.0,179.3,0.3,5.4,13.86,39.41,700.2343,139.9989],
    [5888,1525544053,57.3464,-111.9399,612.9,222.2,178.8,-0.2,5.1,14.16,39.59,700.084,139.9947],
    [5889,1525544054,57.3458,-111.9399,614.3,223.1,179.5,0.8,5.1,14.25,38.69,699.9164,140.0053],
    [5890,1525544055,57.3451,-111.9399,615.6,223.8,179.7,0.9,5.0,14.04,39.41,699.8677,139.9984],
    [5891,1525544056,57.3446,-111.9399,617.2,226.2,179.7,0.5,5.5,14.17,38.74,699.942,139.9946],
    [5892,1525544057,57.344,-111.9399,619.7,229.6,179.5,0.4,6.0,14.29,38.45,700.0961,140.0026],
    [5893,1525544058,57.3434,-111.9398,622.1,234.1,181.0,2.5,5.8,13.83,39.28,700.1642,139.9953],
    [5894,1525544059,57.3427,-111.9398,624.4,239.8,181.6,3.2,5.7,14.06,39.35,700.2824,139.9958],
    [5895,1525544060,57.3421,-111.9398,625.9,242.9,181.0,2.6,5.2,14.08,39.75,700.3552,139.9955],
    [5896,1525544061,57.3415,-111.9398,626.2,242.6,181.4,2.9,4.7,14.83,38.69,700.5328,139.9946],
    [5897,1525544062,57.341,-111.9398,625.2,239.6,180.5,1.5,4.2,13.5,38.94,700.6176,139.9973],
    [5898,1525544063,57.3404,-111.9397,623.7,235.4,179.2,0.4,4.2,13.8,39.54,700.7231,140.0101],
    [5899,1525544064,57.3398,-111.9397,622.4,232.7,179.3,1.0,4.1,14.03,39.01,701.0285,139.9976],
    [5900,1525544065,57.3391,-111.9397,620.9,231.0,178.0,-0.1,4.4,14.23,39.62,701.1337,140.0053],
    [5901,1525544066,57.3385,-111.9396,619.0,228.0,177.8,0.3,4.7,14.19,39.12,701.1286,140.0041],
    [5902,1525544067,57.3379,-111.9396,617.3,226.3,178.4,1.7,5.3,13.91,39.23,701.2145,139.9841],
    [5903,1525544068,57.3373,-111.9395,616.1,226.1,178.7,2.4,4.4,13.58,39.29,701.2238,139.9878],
    [5904,1525544069,57.3366,-111.9394,613.5,224.5,179.5,3.6,4.3,14.25,39.57,701.3694,139.9905],
    [5905,1525544070,57.336,-111.9394,611.3,223.5,180.2,4.5,4.5,14.12,39.45,701.5346,139.9935],
    [5906,1525544071,57.3354,-111.9393,610.1,222.1,178.9,2.8,3.6,13.8,39.26,701.5398,140.0055],
    [5907,1525544072,57.3348,-111.9392,609.7,222.8,178.9,3.9,3.3,13.92,39.1,701.5021,139.9974],
    [5908,1525544073,57.3341,-111.9391,608.8,221.7,178.9,3.9,3.1,13.93,39.14,701.312,139.9934],
    [5909,1525544074,57.3335,-111.939,608.0,222.1,177.2,2.0,3.4,14.67,38.37,701.1724,140.0021],
    [5910,1525544075,57.3329,-111.939,606.8,220.8,180.6,4.7,3.3,14.07,38.9,701.2081,139.9872],
    [5911,1525544076,57.3322,-111.9389,605.9,220.9,182.1,4.1,2.5,13.89,38.28,701.2626,139.9846],
    [5912,1525544077,57.3316,-111.9389,606.7,222.7,183.5,3.9,2.3,13.98,38.33,701.294,139.9907],
    [5913,1525544078,57.331,-111.9389,608.4,225.5,183.4,1.6,3.0,14.07,38.72,701.3177,139.9968],
    [5914,1525544079,57.3303,-111.939,610.0,226.9,183.1,-0.2,3.7,14.1,38.01,701.4645,140.0044],
    [5915,1525544080,57.3297,-111.9391,610.0,228.0,185.4,1.6,3.9,14.07,38.12,701.5537,140.0086],
    [5916,1525544081,57.329,-111.9392,609.2,228.0,187.5,2.8,4.2,13.79,38.01,701.55,139.9971],
    [5917,1525544082,57.3284,-111.9393,608.3,227.3,188.1,3.3,5.0,14.16,38.53,701.563,140.0137],
    [5918,1525544083,57.3278,-111.9394,607.8,226.8,189.1,4.7,5.2,14.07,38.0,701.7203,139.9919],
    [5919,1525544084,57.3272,-111.9395,607.0,227.0,189.2,5.8,4.4,14.05,38.13,701.9224,139.9968],
    [5920,1525544085,57.3265,-111.9396,606.0,226.0,188.7,6.7,4.0,14.3,38.41,701.9701,139.9929],
    [5921,1525544086,57.3259,-111.9397,605.9,225.9,187.5,6.3,2.2,14.09,37.89,702.1393,139.9934],
    [5922,1525544087,57.3253,-111.9398,606.0,227.0,185.5,5.1,2.7,13.68,37.97,702.195,140.0068],
    [5923,1525544088,57.3246,-111.9398,604.7,225.7,185.3,6.3,3.0,13.84,37.79,702.324,139.9998],
    [5924,1525544089,57.324,-111.9398,602.8,224.8,183.7,4.5,2.2,13.61,37.93,702.5819,140.0052],
    [5925,1525544090,57.3233,-111.9398,601.2,223.2,180.4,1.7,4.0,13.82,37.75,702.6408,139.9903],
    [5926,1525544091,57.3227,-111.9398,599.1,222.0,180.2,1.9,4.8,14.25,37.92,702.849,140.0023],
    [5927,1525544092,57.3221,-111.9397,597.9,221.9,178.9,1.0,5.4,14.19,37.52,702.9582,140.0069],
    [5928,1525544093,57.3214,-111.9397,596.7,221.4,179.9,2.7,4.5,14.22,38.2,703.2181,140.0025],
    [5929,1525544094,57.3208,-111.9396,594.9,220.9,180.0,2.8,4.1,14.08,37.93,703.4034,140.0031],
    [5930,1525544095,57.3201,-111.9396,593.0,219.3,179.2,2.3,4.1,14.1,38.13,703.3336,139.9952],
    [5931,1525544096,57.3194,-111.9395,590.9,217.9,178.8,2.1,4.0,13.56,38.13,703.2434,139.9994],
    [5932,1525544097,57.3188,-111.9394,588.7,216.8,177.7,2.4,3.3,14.59,37.39,703.0978,140.0063],
    [5933,1525544098,57.3182,-111.9393,586.5,214.7,176.6,3.1,3.3,13.74,38.12,702.9737,139.9994],
    [5934,1525544099,57.3175,-111.9392,583.7,214.1,171.0,0.9,3.7,14.21,38.09,702.9311,139.9964],
    [5935,1525544100,57.3168,-111.9389,583.2,215.3,166.6,1.9,4.5,14.71,37.85,702.8278,139.9945],
    [5936,1525544101,57.3163,-111.9385,584.3,217.3,163.2,2.9,5.4,14.04,37.95,702.8232,140.0],
    [5937,1525544102,57.3156,-111.938,586.3,220.4,156.9,1.7,4.6,13.77,37.87,702.8229,139.9944],
    [5938,1525544103,57.315,-111.9374,588.8,222.9,152.0,2.3,3.4,14.2,38.25,702.8067,140.0011],
    [5939,1525544104,57.3145,-111.9368,590.4,225.4,147.7,1.9,3.5,14.83,37.76,702.8969,139.9968],
    [5940,1525544105,57.314,-111.9361,591.2,226.2,142.5,1.4,3.8,14.0,38.23,703.0018,139.9994],
    [5941,1525544106,57.3135,-111.9353,591.6,226.5,139.1,2.5,3.9,13.9,37.9,703.0605,139.9971],
    [5942,1525544107,57.3131,-111.9346,591.7,227.7,135.6,2.1,4.1,13.64,38.03,703.2719,139.9887],
    [5943,1525544108,57.3127,-111.9336,591.9,227.9,131.8,2.4,4.8,14.6,37.46,703.6535,139.9916],
    [5944,1525544109,57.3123,-111.9325,591.2,227.2,126.8,1.8,4.1,14.44,37.3,704.2896,140.0029],
    [5945,1525544110,57.3119,-111.9314,590.1,227.1,123.2,2.7,4.4,14.47,37.67,704.9673,139.9968],
    [5946,1525544111,57.3116,-111.9303,588.5,226.5,119.3,2.6,4.2,14.1,37.17,705.3726,140.0016],
    [5947,1525544112,57.3114,-111.9292,586.2,225.2,115.6,2.1,4.3,14.2,37.03,705.5953,139.9937],
    [5948,1525544113,57.3111,-111.9281,582.6,222.3,111.6,1.8,2.8,14.05,36.91,705.5945,140.0071],
    [5949,1525544114,57.3109,-111.927,577.4,217.7,108.5,0.5,3.0,14.33,37.33,705.5748,140.0063],
    [5950,1525544115,57.3108,-111.9257,569.2,211.2,104.6,1.8,2.3,14.19,37.26,705.498,140.0002],
    [5951,1525544116,57.3107,-111.9246,563.5,206.1,102.6,1.3,4.1,14.3,36.91,705.3013,139.9967],
    [5952,1525544117,57.3106,-111.9233,558.9,202.3,98.6,-0.1,3.7,14.82,36.7,705.2994,139.9933],
    [5953,1525544118,57.3105,-111.9219,557.7,202.7,95.9,0.3,4.4,14.29,38.03,705.3335,139.997],
    [5954,1525544119,57.3105,-111.9206,558.0,202.9,93.9,1.2,5.2,14.26,38.08,705.4424,140.0077],
    [5955,1525544120,57.3105,-111.9193,559.1,206.2,90.8,1.3,4.7,14.25,37.71,705.3906,140.0043],
    [5956,1525544121,57.3106,-111.9181,560.9,208.6,87.9,1.3,3.7,14.62,37.67,705.244,139.9887],
    [5957,1525544122,57.3106,-111.9168,561.7,210.0,86.1,0.6,3.2,14.66,37.92,705.2722,140.0017],
    [5958,1525544123,57.3107,-111.9155,561.6,210.6,84.6,1.9,2.9,14.24,38.18,705.3706,139.993],
    [5959,1525544124,57.3108,-111.9143,561.2,211.2,84.0,2.4,2.7,14.49,38.77,705.4251,139.9955],
    [5960,1525544125,57.3109,-111.913,561.6,211.6,83.5,1.5,2.4,14.47,38.6,705.5106,139.9971],
    [5961,1525544126,57.311,-111.9118,562.4,213.4,85.1,1.3,4.2,14.86,37.94,705.63,139.9981],
    [5962,1525544127,57.3111,-111.9106,562.4,214.4,85.1,0.7,3.4,14.57,38.08,705.7585,140.0],
    [5963,1525544128,57.3112,-111.9093,561.6,213.6,85.3,1.3,2.8,14.27,38.38,705.9339,140.0],
    [5964,1525544129,57.3112,-111.9081,559.9,212.9,85.4,-0.6,2.1,13.77,38.31,705.9466,140.0064],
    [5965,1525544130,57.3113,-111.9068,558.9,211.9,86.8,0.0,3.6,14.05,38.34,705.9379,140.0038],
    [5966,1525544131,57.3114,-111.9055,557.2,211.2,87.3,-0.2,4.1,14.22,38.43,705.8089,139.9983],
    [5967,1525544132,57.3115,-111.9043,555.7,209.7,86.2,-0.2,3.8,14.43,39.0,705.6074,139.9933],
    [5968,1525544133,57.3115,-111.903,554.4,208.4,84.8,-0.1,3.8,14.52,38.5,705.3954,140.003],
    [5969,1525544134,57.3117,-111.9018,553.9,208.9,81.4,0.5,3.5,14.25,38.32,705.2831,140.0036],
    [5970,1525544135,57.3118,-111.9005,554.3,209.3,77.7,0.4,3.8,14.86,38.05,705.177,140.0018],
    [5971,1525544136,57.312,-111.8994,555.1,211.1,73.8,0.4,3.5,14.08,38.24,705.2698,139.9984],
    [5972,1525544137,57.3123,-111.8981,557.2,214.2,68.8,-0.6,3.4,14.44,38.26,705.2499,139.9961],
    [5973,1525544138,57.3125,-111.897,559.8,216.7,65.0,-0.5,3.8,14.43,38.31,705.0897,140.001],
    [5974,1525544139,57.3129,-111.896,561.8,219.8,61.6,-0.2,4.1,14.41,38.69,705.0531,140.0055],
    [5975,1525544140,57.3133,-111.8949,563.4,222.4,56.9,0.7,3.9,15.1,38.09,705.1637,139.9891],
    [5976,1525544141,57.3137,-111.8938,563.2,223.2,53.2,0.7,3.2,14.74,37.89,705.2355,139.9939],
    [5977,1525544142,57.3141,-111.8928,563.3,223.3,49.1,1.3,3.2,14.43,38.91,705.3719,140.0029],
    [5978,1525544143,57.3146,-111.8919,564.7,223.7,46.4,1.0,3.7,14.55,38.14,705.4284,139.9972],
    [5979,1525544144,57.3151,-111.8911,565.5,224.5,43.8,1.4,3.5,14.48,38.5,705.4707,139.9988],
    [5980,1525544145,57.3156,-111.8903,564.9,224.9,41.5,1.7,4.0,14.4,38.5,705.5491,139.9984],
    [5981,1525544146,57.3161,-111.8895,563.7,224.7,39.9,0.2,3.8,14.66,38.43,705.6313,140.0002],
    [5982,1525544147,57.3167,-111.8887,562.7,223.6,36.6,-0.4,3.5,14.58,38.48,705.7818,139.9974],
    [5983,1525544148,57.3172,-111.888,561.6,223.6,32.7,-0.1,3.7,14.91,38.53,705.8507,139.9921],
    [5984,1525544149,57.3178,-111.8874,560.9,222.9,28.0,0.1,3.7,14.21,38.79,705.949,139.9974],
    [5985,1525544150,57.3185,-111.8869,560.3,221.3,24.1,-0.8,3.5,14.53,38.76,706.18,139.9933],
    [5986,1525544151,57.3191,-111.8864,558.9,219.6,20.5,-0.2,4.7,14.57,39.18,706.3923,139.9854],
    [5987,1525544152,57.3197,-111.8861,557.2,217.7,15.3,1.1,2.9,14.45,39.2,706.4937,139.993],
    [5988,1525544153,57.3205,-111.8858,555.8,216.8,11.3,1.3,2.8,14.34,38.58,706.9167,140.0039],
    [5989,1525544154,57.3211,-111.8855,555.0,217.0,8.3,1.9,3.0,14.46,39.05,707.0575,140.0023],
    [5990,1525544155,57.3218,-111.8853,553.1,216.1,5.7,2.2,2.4,14.22,38.87,707.1654,140.0012],
    [5991,1525544156,57.3225,-111.8852,550.2,213.2,4.8,0.9,1.9,14.52,38.24,707.2133,140.0028],
    [5992,1525544157,57.3232,-111.8851,546.6,210.8,3.1,1.0,1.1,14.36,38.72,707.316,140.0009],
    [5993,1525544158,57.3239,-111.885,543.2,208.2,360.7,2.1,0.8,14.22,38.78,707.2418,140.0032],
    [5994,1525544159,57.3246,-111.885,541.1,207.1,361.0,1.2,1.1,14.39,38.46,707.2211,139.9946],
    [5995,1525544160,57.3253,-111.885,539.5,205.5,360.5,1.6,1.0,14.23,38.14,707.1832,139.9995],
    [5996,1525544161,57.326,-111.8849,538.5,204.5,360.9,1.1,1.7,14.57,37.71,706.8569,139.9962],
    [5997,1525544162,57.3267,-111.8849,537.7,202.9,361.2,0.6,2.1,14.1,37.89,706.6793,140.005],
    [5998,1525544163,57.3273,-111.8849,538.6,202.2,361.0,0.9,2.2,14.45,38.35,706.7523,140.0035],
    [5999,1525544164,57.328,-111.8848,539.2,202.2,361.5,0.4,2.3,14.47,37.93,706.7835,140.002],
    [6000,1525544165,57.3287,-111.8848,540.0,202.0,361.4,0.9,2.2,14.84,37.67,706.8734,140.0035],
    [6001,1525544166,57.3294,-111.8847,542.3,204.1,361.2,1.6,2.2,14.95,37.91,706.9346,140.0047],
    [6002,1525544167,57.3301,-111.8847,544.4,206.4,361.4,2.2,1.9,14.48,38.49,706.891,140.0053],
    [6003,1525544168,57.3308,-111.8846,545.4,207.4,361.4,2.9,2.7,14.22,38.1,706.7306,140.0039],
    [6004,1525544169,57.3315,-111.8845,545.1,207.1,2.8,1.9,3.3,14.61,37.83,706.5674,140.0019],
    [6005,1525544170,57.3322,-111.8844,544.4,205.7,5.0,-0.1,3.4,14.37,37.78,706.4766,140.0002],
    [6006,1525544171,57.3328,-111.8843,543.7,204.7,5.2,0.5,4.7,14.87,37.37,706.3409,140.0026],
    [6007,1525544172,57.3335,-111.8842,543.9,204.9,3.9,2.7,3.7,14.7,38.09,706.2129,140.0014],
    [6008,1525544173,57.3342,-111.8841,545.4,206.4,4.1,3.2,3.1,14.14,37.83,706.1012,139.9953],
    [6009,1525544174,57.3349,-111.8839,547.0,208.0,4.9,2.9,3.5,15.08,37.18,705.9958,139.9989],
    [6010,1525544175,57.3356,-111.8838,548.9,209.9,5.4,2.9,3.4,14.31,37.02,705.8866,139.9994],
    [6011,1525544176,57.3362,-111.8836,550.3,212.3,6.1,2.5,3.1,14.77,36.36,705.8489,140.0067],
    [6012,1525544177,57.3368,-111.8834,551.4,213.4,6.9,2.2,3.6,14.53,36.29,705.8544,140.0007],
    [6013,1525544178,57.3375,-111.8832,552.8,213.8,7.2,2.2,3.1,14.14,36.02,705.9659,139.9988],
    [6014,1525544179,57.3381,-111.8831,554.2,215.2,7.9,1.5,3.1,14.73,35.86,706.1021,139.998],
    [6015,1525544180,57.3389,-111.8829,555.7,216.7,7.1,1.9,3.0,14.71,35.56,706.1821,139.9982],
    [6016,1525544181,57.3395,-111.8827,556.3,218.3,6.2,1.9,2.8,14.78,35.35,706.2925,140.0016],
    [6017,1525544182,57.3402,-111.8825,556.1,218.1,5.9,1.5,3.5,14.56,35.86,706.3432,139.9998],
    [6018,1525544183,57.3409,-111.8824,555.1,218.8,4.2,2.5,2.7,14.1,35.82,706.284,139.9963],
    [6019,1525544184,57.3415,-111.8823,553.5,217.8,3.4,2.7,2.7,14.38,36.15,706.3269,140.0013],
    [6020,1525544185,57.3422,-111.8822,552.1,217.1,3.4,2.5,3.3,15.28,35.17,706.3517,139.9957],
    [6021,1525544186,57.3428,-111.8821,551.2,215.2,2.8,3.3,3.5,15.11,35.37,706.4295,140.0041],
    [6022,1525544187,57.3435,-111.882,550.7,213.6,3.5,2.4,3.1,14.91,35.5,706.2381,139.999],
    [6023,1525544188,57.3442,-111.8818,550.3,212.3,3.9,2.6,3.8,14.49,35.54,706.2025,139.9938],
    [6024,1525544189,57.3448,-111.8817,550.2,211.4,4.5,2.0,3.1,15.37,35.38,706.0281,139.9954],
    [6025,1525544190,57.3455,-111.8816,549.8,211.8,6.5,0.3,3.5,14.44,36.34,705.9906,139.9985],
    [6026,1525544191,57.3461,-111.8815,549.6,211.6,5.7,1.5,3.3,14.38,36.11,705.8612,140.0011],
    [6027,1525544192,57.3468,-111.8813,550.6,212.6,4.7,2.6,3.7,14.51,35.91,705.8966,139.9852],
    [6028,1525544193,57.3475,-111.8812,552.0,213.3,4.9,2.3,2.9,15.11,35.84,705.9406,139.9997],
    [6029,1525544194,57.3482,-111.881,553.2,214.2,5.3,1.8,3.2,15.31,36.01,706.0671,139.9926],
    [6030,1525544195,57.3489,-111.8809,554.5,214.8,5.2,2.3,3.4,14.19,36.29,706.2274,140.0004],
    [6031,1525544196,57.3495,-111.8807,555.3,215.3,4.2,3.5,3.2,14.87,36.08,706.2155,139.9971],
    [6032,1525544197,57.3502,-111.8806,555.1,215.1,5.9,1.7,2.1,14.67,36.52,706.2625,139.9987],
    [6033,1525544198,57.3508,-111.8804,554.3,215.3,5.6,2.7,1.0,15.14,36.38,706.2678,139.9943],
    [6034,1525544199,57.3515,-111.8803,553.3,215.3,5.8,2.8,1.6,14.37,36.79,706.3826,140.0089],
    [6035,1525544200,57.3522,-111.8801,552.0,214.3,5.7,3.4,2.0,14.62,37.41,706.5169,139.9992],
    [6036,1525544201,57.3528,-111.8799,551.1,214.1,4.5,4.5,2.3,14.57,36.84,706.5317,139.9997],
    [6037,1525544202,57.3535,-111.8798,550.9,213.9,4.2,4.4,2.8,14.56,36.91,706.5064,139.999],
    [6038,1525544203,57.3542,-111.8796,550.6,213.6,4.9,3.2,2.6,14.33,36.73,706.3458,139.9974],
    [6039,1525544204,57.3548,-111.8794,549.8,212.8,4.4,3.5,3.0,14.57,36.67,706.361,140.0062],
    [6040,1525544205,57.3555,-111.8793,548.6,211.6,4.8,2.5,4.1,14.7,36.45,706.4911,139.9969],
    [6041,1525544206,57.3562,-111.8792,548.0,209.9,5.3,1.6,3.7,14.12,37.31,706.5128,139.9963],
    [6042,1525544207,57.3569,-111.879,548.3,210.3,5.8,1.0,3.5,14.55,37.91,706.5265,139.997],
    [6043,1525544208,57.3575,-111.8789,549.2,210.3,6.1,0.7,3.3,14.47,37.77,706.3563,140.0025],
    [6044,1525544209,57.3582,-111.8787,549.5,209.5,6.1,0.9,3.9,14.63,37.81,706.3687,140.002],
    [6045,1525544210,57.3588,-111.8786,548.8,208.8,7.9,-0.6,4.3,14.65,38.67,706.4191,139.9969],
    [6046,1525544211,57.3596,-111.8784,547.8,208.8,8.1,0.2,4.2,14.28,38.38,706.6177,140.002],
    [6047,1525544212,57.3602,-111.8783,547.6,209.6,7.1,2.4,4.7,14.67,38.23,706.5624,139.9971],
    [6048,1525544213,57.3609,-111.8781,548.5,210.5,7.8,2.1,1.7,14.41,38.63,706.5448,139.9962],
    [6049,1525544214,57.3616,-111.8778,549.0,211.0,8.1,2.9,1.7,14.43,38.48,706.4577,140.0108],
    [6050,1525544215,57.3622,-111.8776,548.5,209.5,9.0,2.5,2.4,14.58,38.43,706.4651,140.0038],
    [6051,1525544216,57.3629,-111.8774,546.9,207.9,9.4,2.1,2.0,14.06,38.27,706.4596,139.9982],
    [6052,1525544217,57.3636,-111.8771,546.5,207.5,9.0,2.4,2.7,14.49,38.02,706.3956,140.0087],
    [6053,1525544218,57.3643,-111.8769,546.7,207.0,8.9,1.9,2.3,14.38,37.98,706.323,139.9942],
    [6054,1525544219,57.3649,-111.8767,547.7,208.2,7.8,2.6,2.1,14.73,37.23,706.0366,140.0055],
    [6055,1525544220,57.3656,-111.8765,548.1,209.1,7.6,2.1,2.4,15.1,37.44,705.9497,139.9946],
    [6056,1525544221,57.3663,-111.8763,548.1,209.1,8.0,0.1,3.2,14.49,38.27,705.8198,140.0011],
    [6057,1525544222,57.3669,-111.8762,549.0,210.0,6.7,0.3,3.7,14.96,37.49,705.7258,140.0046],
    [6058,1525544223,57.3676,-111.8761,550.1,211.3,4.0,0.8,3.1,14.08,37.87,705.5385,140.0042],
    [6059,1525544224,57.3683,-111.876,552.1,214.1,362.1,1.4,3.4,14.26,38.2,705.2334,140.0019],
    [6060,1525544225,57.3689,-111.8759,554.3,215.6,360.6,1.2,2.9,14.59,38.04,705.0756,140.0016],
    [6061,1525544226,57.3696,-111.8759,556.1,217.1,359.5,-0.3,3.5,14.51,38.54,704.8613,140.0029],
    [6062,1525544227,57.3703,-111.876,557.4,218.4,355.0,0.6,3.0,13.99,38.64,704.5515,140.0008],
    [6063,1525544228,57.3709,-111.8761,559.6,220.6,350.3,0.3,2.9,14.11,38.63,704.4047,139.9971],
    [6064,1525544229,57.3715,-111.8763,562.9,223.9,346.2,-0.7,3.2,14.69,38.61,704.3021,139.9994],
    [6065,1525544230,57.3722,-111.8767,566.1,226.1,341.4,-0.3,3.5,14.52,38.54,704.2569,140.0069],
    [6066,1525544231,57.3728,-111.8771,568.8,227.8,336.2,0.6,3.8,14.49,38.65,704.2732,140.0006],
    [6067,1525544232,57.3734,-111.8776,571.1,228.4,333.0,0.9,2.7,13.78,39.0,704.2869,140.0017],
    [6068,1525544233,57.3739,-111.8781,573.3,229.2,329.1,0.7,3.0,14.22,39.3,704.2715,140.0019],
    [6069,1525544234,57.3745,-111.8787,574.6,229.6,326.2,0.9,2.5,14.99,38.71,704.2348,140.0006],
    [6070,1525544235,57.375,-111.8794,575.4,229.5,322.4,1.4,3.3,14.16,38.87,704.173,139.9966],
    [6071,1525544236,57.3755,-111.88,575.6,228.7,319.3,1.4,3.5,14.32,39.47,704.2442,139.9996],
    [6072,1525544237,57.376,-111.8808,575.4,227.4,315.7,1.4,4.0,14.09,38.86,704.3954,140.0007],
    [6073,1525544238,57.3765,-111.8816,575.5,226.5,311.4,1.5,4.4,14.08,38.75,704.4851,139.9993],
    [6074,1525544239,57.3769,-111.8824,575.8,225.8,308.5,1.3,3.7,13.74,38.66,704.661,140.0058],
    [6075,1525544240,57.3773,-111.8833,576.1,225.5,305.3,1.3,3.8,14.63,38.03,704.7433,140.0022],
    [6076,1525544241,57.3776,-111.8842,575.4,224.4,302.5,1.3,3.6,14.0,38.63,704.798,139.9912],
    [6077,1525544242,57.378,-111.8852,574.2,222.2,299.2,1.1,4.1,14.21,38.52,704.8519,140.0053],
    [6078,1525544243,57.3783,-111.8861,573.0,221.0,296.4,1.1,3.6,14.2,38.65,704.8391,140.0025],
    [6079,1525544244,57.3786,-111.8871,571.4,218.4,293.3,0.5,4.0,14.16,39.12,704.822,140.0001],
    [6080,1525544245,57.3788,-111.8882,569.8,216.8,289.0,0.7,4.6,14.14,38.99,704.7972,139.9991],
    [6081,1525544246,57.3791,-111.8892,568.9,215.9,286.4,0.8,3.2,14.81,38.81,704.7892,140.0027],
    [6082,1525544247,57.3792,-111.8903,568.1,215.1,283.6,1.2,2.2,14.01,39.72,704.8915,139.9988],
    [6083,1525544248,57.3794,-111.8914,567.9,214.9,278.8,1.1,3.2,14.01,40.34,705.1096,140.0007],
    [6084,1525544249,57.3795,-111.8925,568.1,215.1,275.2,1.2,2.6,14.2,39.65,705.4495,139.9995],
    [6085,1525544250,57.3795,-111.8937,568.5,214.5,270.9,0.8,3.0,14.15,39.24,705.5971,139.9976],
    [6086,1525544251,57.3796,-111.8948,568.4,212.3,267.2,0.5,3.4,14.38,39.31,705.7046,139.9936],
    [6087,1525544252,57.3795,-111.8959,567.1,209.2,264.7,1.2,3.7,13.87,39.3,705.7012,140.0007],
    [6088,1525544253,57.3795,-111.8971,564.3,204.3,262.5,0.8,4.2,14.37,38.73,705.7833,140.0006],
    [6089,1525544254,57.3795,-111.8981,561.4,199.1,261.2,0.3,4.1,14.25,38.92,705.7183,139.9991],
    [6090,1525544255,57.3794,-111.8993,559.0,194.3,260.8,0.7,3.6,14.05,39.24,705.4718,140.0064],
    [6091,1525544256,57.3793,-111.9005,557.7,191.7,261.3,0.4,2.8,14.36,38.65,705.2907,140.0008],
    [6092,1525544257,57.3793,-111.9016,557.3,190.3,261.2,0.3,3.0,14.0,39.07,705.0378,139.9996],
    [6093,1525544258,57.3792,-111.9027,556.7,188.0,261.5,0.3,2.8,13.81,38.83,704.8746,140.0003],
    [6094,1525544259,57.3791,-111.9038,556.8,186.6,262.0,0.6,3.0,13.61,38.99,704.6104,139.9998],
    [6095,1525544260,57.3791,-111.905,559.2,185.6,262.1,0.5,3.8,14.32,38.54,704.4806,139.9994],
    [6096,1525544261,57.379,-111.9061,562.4,183.0,262.8,0.2,3.4,13.72,38.86,704.1616,140.0028],
    [6097,1525544262,57.379,-111.9073,564.9,181.7,263.8,0.1,3.1,14.04,38.92,703.9357,140.0],
    [6098,1525544263,57.3789,-111.9084,567.2,180.3,264.4,0.7,3.5,14.1,39.37,703.7915,140.0007],
    [6099,1525544264,57.3789,-111.9095,569.8,178.8,265.9,0.1,2.6,14.06,38.8,703.5364,139.9943],
    [6100,1525544265,57.3789,-111.9107,572.6,179.0,266.4,-0.1,3.0,13.93,39.21,703.2006,139.9954],
    [6101,1525544266,57.3789,-111.9117,575.0,181.1,266.7,0.3,3.2,14.05,38.84,702.9473,140.0055],
    [6102,1525544267,57.3789,-111.9129,577.7,182.7,267.3,-0.3,2.9,14.1,38.88,702.7586,140.0034],
    [6103,1525544268,57.3789,-111.914,580.1,185.1,267.7,-0.6,2.7,14.02,39.22,702.4178,139.9991],
    [6104,1525544269,57.3789,-111.9152,583.1,189.1,268.3,0.5,1.9,14.01,38.84,702.2712,139.9995],
    [6105,1525544270,57.3789,-111.9163,586.3,192.3,269.5,-0.6,0.6,14.16,38.49,702.1991,140.0033],
    [6106,1525544271,57.3789,-111.9173,589.4,195.4,268.4,0.3,1.9,14.26,38.25,702.2428,139.996],
    [6107,1525544272,57.3789,-111.9184,592.4,198.4,267.1,-0.5,3.2,14.29,38.33,702.1689,139.997],
    [6108,1525544273,57.3789,-111.9195,595.7,200.7,265.5,0.0,5.1,14.42,38.14,702.2119,140.0051],
    [6109,1525544274,57.3789,-111.9206,597.9,202.9,264.8,0.3,5.3,14.49,38.45,702.1583,140.001],
    [6110,1525544275,57.3789,-111.9218,598.6,203.6,264.8,0.0,5.0,14.61,38.42,702.0044,139.9974],
    [6111,1525544276,57.3789,-111.9229,598.8,202.8,264.3,0.3,4.4,14.36,38.83,701.5604,140.0008],
    [6112,1525544277,57.3788,-111.9238,599.1,203.1,264.5,0.6,3.8,13.85,38.98,701.4045,139.9901],
    [6113,1525544278,57.3788,-111.925,599.0,203.0,263.0,0.5,4.8,14.11,39.43,701.403,140.0023],
    [6114,1525544279,57.3788,-111.9261,599.3,202.3,261.8,0.0,5.2,13.93,39.13,701.2402,139.9994],
    [6115,1525544280,57.3787,-111.9272,601.0,204.0,260.6,0.7,6.2,14.13,39.71,701.179,139.9956],
    [6116,1525544281,57.3787,-111.9284,604.3,206.3,259.7,0.2,6.7,13.75,39.3,701.0609,140.0014],
    [6117,1525544282,57.3786,-111.9294,607.0,209.0,261.0,1.4,4.4,14.09,39.94,701.0006,140.0052],
    [6118,1525544283,57.3786,-111.9305,608.1,213.1,260.3,1.0,3.2,14.2,39.23,700.9645,139.9993],
    [6119,1525544284,57.3785,-111.9316,609.2,217.3,254.6,1.4,5.2,14.11,39.89,700.9288,140.0019],
    [6120,1525544285,57.3783,-111.9327,610.8,219.4,250.7,1.9,5.2,13.65,39.31,700.873,139.9986],
    [6121,1525544286,57.3782,-111.9337,612.1,223.4,246.3,2.0,5.3,14.04,39.52,700.767,140.0027],
    [6122,1525544287,57.3779,-111.9347,613.2,227.2,240.5,0.8,6.2,13.92,39.6,700.6605,140.0014],
    [6123,1525544288,57.3777,-111.9356,613.8,233.6,235.3,0.1,5.9,13.92,39.61,700.8539,139.9993],
    [6124,1525544289,57.3774,-111.9365,614.0,235.9,230.7,0.0,6.0,14.0,39.54,700.9494,139.9982],
    [6125,1525544290,57.377,-111.9373,614.3,236.3,225.7,0.2,6.5,13.76,39.67,701.0547,140.0044],
    [6126,1525544291,57.3767,-111.938,615.5,236.5,221.1,-0.7,6.7,13.86,39.73,701.2384,139.9985],
    [6127,1525544292,57.3762,-111.9388,616.4,235.4,217.5,-1.3,6.7,14.14,39.7,701.1693,139.9963],
    [6128,1525544293,57.3758,-111.9395,615.6,230.0,215.9,0.5,6.5,13.68,39.75,701.2243,139.9994],
    [6129,1525544294,57.3754,-111.9401,614.0,224.3,213.8,1.3,5.1,13.87,39.92,701.2983,139.9968],
    [6130,1525544295,57.3749,-111.9407,612.1,216.4,208.7,0.9,5.9,13.88,39.94,701.5532,140.0008],
    [6131,1525544296,57.3744,-111.9411,610.6,209.1,204.0,0.8,5.0,13.85,39.89,701.4954,139.9932],
    [6132,1525544297,57.3739,-111.9415,610.0,207.1,199.5,1.2,6.0,13.76,40.04,701.5543,139.9946],
    [6133,1525544298,57.3734,-111.9419,609.8,204.6,195.2,1.1,6.7,13.97,40.82,701.5588,139.9895],
    [6134,1525544299,57.3728,-111.9421,609.0,202.0,192.6,1.2,5.3,13.99,40.56,701.5602,139.9903],
    [6135,1525544300,57.3723,-111.9423,607.0,199.7,189.6,0.8,4.9,13.45,40.19,701.5748,139.9907],
    [6136,1525544301,57.3717,-111.9425,606.3,199.0,184.8,-1.2,5.5,13.72,40.19,701.602,140.001],
    [6137,1525544302,57.3712,-111.9425,606.0,199.1,182.1,-1.2,5.6,14.5,40.18,701.7104,140.0038],
    [6138,1525544303,57.3707,-111.9426,605.7,199.5,180.7,-0.3,5.9,14.08,40.34,701.7274,140.005],
    [6139,1525544304,57.37,-111.9426,605.3,199.6,177.7,-1.1,6.8,13.63,40.48,701.7038,140.0008],
    [6140,1525544305,57.3694,-111.9425,604.6,200.7,176.7,0.1,8.1,13.54,40.25,701.5535,140.0075],
    [6141,1525544306,57.3689,-111.9424,604.0,202.0,174.5,-0.6,8.4,13.6,40.18,701.5188,139.998],
    [6142,1525544307,57.3683,-111.9423,603.5,203.5,174.1,0.1,7.3,14.71,39.8,701.4816,139.9979],
    [6143,1525544308,57.3677,-111.9422,603.2,205.6,173.8,0.3,6.3,13.58,40.1,701.6429,140.0002],
    [6144,1525544309,57.3671,-111.942,603.6,207.6,175.0,2.7,5.7,13.37,40.05,701.6837,140.0049],
    [6145,1525544310,57.3666,-111.9419,604.6,208.6,175.3,2.9,4.5,13.83,40.18,701.7615,139.9958],
    [6146,1525544311,57.366,-111.9417,605.3,209.2,174.6,2.5,5.6,13.88,40.76,701.8064,139.9982],
    [6147,1525544312,57.3654,-111.9416,605.0,208.6,175.1,2.4,6.2,13.8,40.71,701.8201,139.9935],
    [6148,1525544313,57.3649,-111.9415,604.8,208.5,174.5,1.9,5.4,13.91,40.69,701.8204,139.9968],
    [6149,1525544314,57.3643,-111.9413,604.3,208.3,175.8,2.4,4.3,13.45,40.28,701.8274,139.9966],
    [6150,1525544315,57.3637,-111.9412,603.5,207.5,175.3,0.7,5.4,14.39,39.62,702.077,139.9992],
    [6151,1525544316,57.3631,-111.9411,602.4,204.7,177.1,2.0,6.0,14.36,39.41,702.0468,139.998],
    [6152,1525544317,57.3625,-111.941,602.0,203.2,178.3,1.9,6.1,13.8,40.11,702.2336,140.0059],
    [6153,1525544318,57.3619,-111.941,601.8,201.9,177.2,-0.2,6.2,14.03,39.76,702.2636,139.9966],
    [6154,1525544319,57.3613,-111.9409,600.8,200.9,179.3,1.5,6.1,13.61,40.04,702.1802,139.997],
    [6155,1525544320,57.3607,-111.9409,599.1,198.1,179.3,1.1,6.0,14.19,39.34,702.2099,139.9905],
    [6156,1525544321,57.3601,-111.9408,598.0,197.1,178.7,0.5,6.4,13.88,39.79,702.2691,140.0106],
    [6157,1525544322,57.3596,-111.9408,597.0,195.6,177.7,-0.8,5.6,13.96,39.76,702.355,140.0092],
    [6158,1525544323,57.359,-111.9408,596.5,195.5,176.4,-2.2,5.4,13.96,39.68,702.5209,140.0063],
    [6159,1525544324,57.3584,-111.9407,596.8,195.8,176.3,-2.4,6.8,14.54,39.35,702.4569,139.9936],
    [6160,1525544325,57.3578,-111.9407,596.7,195.7,179.0,0.8,6.8,13.35,39.72,702.4406,139.9962],
    [6161,1525544326,57.3573,-111.9407,596.3,195.3,180.2,1.3,6.2,14.08,39.48,702.5387,139.9962],
    [6162,1525544327,57.3566,-111.9406,595.4,194.4,180.2,1.1,5.2,14.59,39.33,702.4546,140.0005],
    [6163,1525544328,57.356,-111.9406,594.0,193.0,182.5,2.5,5.3,14.15,39.29,702.3187,139.9993],
    [6164,1525544329,57.3554,-111.9407,593.8,192.7,181.3,0.6,5.6,13.82,39.48,702.3337,139.9964],
    [6165,1525544330,57.3548,-111.9407,594.2,193.9,181.6,0.5,5.5,13.92,39.89,702.2869,139.9988],
    [6166,1525544331,57.3542,-111.9407,594.0,194.0,181.9,1.4,5.0,13.86,39.29,702.2972,139.9887],
    [6167,1525544332,57.3536,-111.9407,594.3,194.2,183.2,3.0,4.9,14.29,39.06,702.2377,140.0054],
    [6168,1525544333,57.353,-111.9407,595.5,196.5,181.1,1.1,5.0,14.13,39.33,701.9894,140.0024],
    [6169,1525544334,57.3524,-111.9407,596.5,198.4,180.8,1.7,4.1,13.63,39.41,701.8489,139.9951],
    [6170,1525544335,57.3518,-111.9407,596.3,200.7,180.9,2.2,3.5,14.02,39.79,701.6098,140.001],
    [6171,1525544336,57.3512,-111.9407,596.7,204.7,179.9,1.9,4.3,13.78,39.42,701.6477,140.0051],
    [6172,1525544337,57.3506,-111.9407,597.5,208.0,180.8,2.9,4.3,14.07,39.42,701.6647,139.9977],
    [6173,1525544338,57.35,-111.9406,599.3,210.3,179.6,1.3,4.2,13.8,39.23,701.6257,140.0005],
    [6174,1525544339,57.3494,-111.9406,601.7,210.6,179.0,0.8,4.7,14.03,39.43,701.7197,139.9996],
    [6175,1525544340,57.3488,-111.9406,603.9,212.9,179.9,1.6,4.6,14.52,39.26,701.6342,140.0116],
    [6176,1525544341,57.3482,-111.9405,604.9,213.9,179.6,1.0,3.7,14.18,39.28,701.4725,139.9841],
    [6177,1525544342,57.3476,-111.9405,604.8,213.8,180.1,1.0,2.6,14.14,39.07,701.3041,139.9886],
    [6178,1525544343,57.347,-111.9405,605.0,213.0,180.9,1.7,2.6,14.21,39.11,701.1652,140.0007],
    [6179,1525544344,57.3464,-111.9405,604.5,212.5,181.3,2.5,3.5,14.28,39.09,701.0207,139.9974],
    [6180,1525544345,57.3458,-111.9405,604.3,211.3,181.0,2.2,2.5,14.9,38.68,700.9737,140.0004],
    [6181,1525544346,57.3452,-111.9404,605.6,212.9,178.9,0.7,3.6,14.75,38.49,700.8674,140.0024],
    [6182,1525544347,57.3446,-111.9404,607.6,216.6,179.8,1.8,5.9,13.94,39.21,700.9272,139.9964],
    [6183,1525544348,57.344,-111.9404,609.5,219.4,178.2,0.1,5.1,14.29,39.17,701.0441,139.9985],
    [6184,1525544349,57.3435,-111.9403,611.0,223.3,179.4,1.5,4.8,14.03,38.89,701.2707,139.9954],
    [6185,1525544350,57.3428,-111.9403,612.8,227.8,179.6,1.4,5.1,14.27,39.25,701.4763,140.0016],
    [6186,1525544351,57.3423,-111.9403,613.4,230.1,179.2,1.4,6.1,14.44,38.58,701.5553,140.0049],
    [6187,1525544352,57.3416,-111.9402,613.1,229.5,180.9,3.8,5.9,13.59,38.48,701.6208,139.9961],
    [6188,1525544353,57.3411,-111.9402,612.0,225.7,180.6,3.2,4.9,14.03,38.55,701.6526,140.0155],
    [6189,1525544354,57.3404,-111.9401,610.0,221.0,179.8,2.8,4.2,13.6,38.62,701.6808,140.0009],
    [6190,1525544355,57.3399,-111.9401,608.0,217.6,181.3,4.8,4.7,13.66,38.42,701.7267,140.0022],
    [6191,1525544356,57.3393,-111.94,606.6,215.6,180.4,3.8,4.6,14.13,38.38,701.7303,140.0008],
    [6192,1525544357,57.3386,-111.94,605.3,214.3,180.8,3.9,4.9,15.06,38.03,701.8525,139.9955],
    [6193,1525544358,57.338,-111.9399,605.0,214.0,181.0,3.4,4.5,15.01,38.15,702.0183,140.0003],
    [6194,1525544359,57.3374,-111.9399,604.7,214.7,181.6,3.6,3.6,14.2,38.3,702.1002,140.0045],
    [6195,1525544360,57.3368,-111.9399,604.3,214.5,181.8,3.5,4.9,14.76,37.77,702.1645,139.9986],
    [6196,1525544361,57.3362,-111.9399,603.6,214.6,181.9,3.8,4.7,14.1,38.9,702.1196,140.0035],
    [6197,1525544362,57.3356,-111.9398,602.7,214.6,183.4,5.4,4.1,14.25,38.48,702.2074,139.9934],
    [6198,1525544363,57.335,-111.9398,601.0,212.8,184.2,5.3,3.4,14.9,37.68,702.1785,139.996],
    [6199,1525544364,57.3344,-111.9398,600.0,213.0,182.5,2.6,4.0,13.99,38.63,702.2071,139.9971],
    [6200,1525544365,57.3338,-111.9398,599.2,212.2,182.4,1.9,4.4,13.92,38.1,702.2195,140.0015],
    [6201,1525544366,57.3332,-111.9399,598.8,212.5,183.0,2.0,3.8,13.72,37.97,702.3088,139.9919],
    [6202,1525544367,57.3326,-111.9399,598.3,212.3,182.3,1.1,4.4,14.31,38.3,702.4025,140.0096],
    [6203,1525544368,57.332,-111.9399,598.2,213.2,181.8,0.5,5.2,14.22,37.99,702.6028,139.9955],
    [6204,1525544369,57.3314,-111.94,598.2,214.2,183.0,2.0,4.8,13.99,38.06,702.9545,139.9941],
    [6205,1525544370,57.3308,-111.94,598.0,214.5,182.3,1.5,5.4,13.93,38.48,703.1232,140.0058],
    [6206,1525544371,57.3301,-111.94,597.3,214.4,182.2,1.7,5.2,14.35,38.33,703.331,140.0041],
    [6207,1525544372,57.3295,-111.94,596.0,213.0,182.2,1.7,4.5,14.41,38.08,703.4508,139.9982],
    [6208,1525544373,57.3289,-111.94,593.6,211.6,181.8,1.8,3.8,14.19,38.59,703.6706,139.9983],
    [6209,1525544374,57.3283,-111.9401,590.1,209.1,184.4,4.8,4.2,14.1,38.46,703.8232,140.0021],
    [6210,1525544375,57.3276,-111.9401,587.5,206.5,183.0,3.0,4.6,14.2,38.38,703.7924,139.9982],
    [6211,1525544376,57.327,-111.9401,585.8,205.1,182.5,2.3,4.0,14.59,37.77,703.8007,140.0044],
    [6212,1525544377,57.3264,-111.9401,583.8,203.8,182.1,1.6,3.0,14.17,38.38,703.7144,140.0105],
    [6213,1525544378,57.3257,-111.9401,581.3,201.3,182.3,1.9,2.9,14.03,38.14,703.8676,139.9919],
    [6214,1525544379,57.3251,-111.9401,579.8,200.8,182.9,2.6,1.7,14.53,38.1,703.8691,139.9993],
    [6215,1525544380,57.3245,-111.9402,579.1,200.1,182.4,2.3,2.9,14.54,37.73,703.8952,140.0075],
    [6216,1525544381,57.3238,-111.9402,579.2,201.2,182.2,2.1,3.0,13.86,38.29,703.8314,139.9992],
    [6217,1525544382,57.3232,-111.9402,579.4,201.4,182.0,2.1,2.2,14.28,38.17,703.67,140.0016],
    [6218,1525544383,57.3225,-111.9402,578.6,201.4,182.2,2.7,2.8,14.36,38.76,703.5507,140.005],
    [6219,1525544384,57.3219,-111.9402,578.0,201.6,181.9,2.4,2.4,14.73,38.09,702.9317,139.9972],
    [6220,1525544385,57.3212,-111.9402,578.0,202.3,180.4,0.7,3.4,14.13,38.18,702.4659,139.9997],
    [6221,1525544386,57.3206,-111.9402,578.3,203.6,179.5,0.3,4.1,14.02,38.14,701.9294,140.0029],
    [6222,1525544387,57.32,-111.9401,579.3,205.4,179.1,0.8,3.7,14.43,38.34,701.2904,140.0047],
    [6223,1525544388,57.3193,-111.9401,582.4,208.4,176.4,-0.2,4.1,14.6,37.69,700.7149,140.0001],
    [6224,1525544389,57.3187,-111.94,587.5,214.5,174.1,0.4,4.6,15.18,37.51,700.0726,139.9987],
    [6225,1525544390,57.3181,-111.9398,593.4,220.8,172.3,1.2,5.4,14.59,37.75,699.4331,139.9967],
    [6226,1525544391,57.3174,-111.9396,600.1,229.0,168.4,0.6,5.4,14.48,38.45,698.968,140.005],
    [6227,1525544392,57.3168,-111.9393,607.0,237.6,165.1,0.7,4.4,14.09,37.85,698.832,139.9956],
    [6228,1525544393,57.3163,-111.939,614.4,246.4,161.6,0.5,4.3,14.17,37.96,698.6072,139.989],
    [6229,1525544394,57.3157,-111.9386,622.1,255.1,160.5,2.7,5.0,14.46,38.68,698.6219,139.9948],
    [6230,1525544395,57.3152,-111.9381,630.0,264.1,156.9,3.1,4.8,15.03,37.82,698.6375,139.996],
    [6231,1525544396,57.3147,-111.9376,636.5,271.5,153.4,3.3,4.9,13.99,38.02,698.7333,139.9996],
    [6232,1525544397,57.3142,-111.937,640.5,275.5,148.5,2.2,4.4,14.27,38.16,698.8803,140.0016],
    [6233,1525544398,57.3137,-111.9363,642.6,277.6,142.7,1.2,3.7,14.52,38.31,698.7662,140.0071],
    [6234,1525544399,57.3133,-111.9356,643.5,279.2,137.5,0.9,3.5,14.41,38.27,698.7169,139.9983],
    [6235,1525544400,57.3129,-111.9348,642.8,278.8,132.4,0.1,3.6,14.28,38.31,698.6833,139.9921],
    [6236,1525544401,57.3125,-111.9339,641.7,277.7,126.3,-0.3,2.8,14.61,37.93,698.6001,139.9915],
    [6237,1525544402,57.3122,-111.9329,640.8,277.8,121.9,0.5,2.6,14.01,37.96,698.6774,139.9942],
    [6238,1525544403,57.312,-111.9321,640.9,277.9,118.1,1.5,2.1,14.22,37.95,698.8722,139.9928],
    [6239,1525544404,57.3117,-111.9309,642.5,279.5,114.0,1.0,2.5,14.79,37.64,699.158,139.9923],
    [6240,1525544405,57.3115,-111.9299,643.0,280.9,111.6,1.5,3.4,14.33,38.29,699.5236,139.9991],
    [6241,1525544406,57.3113,-111.9288,643.5,282.5,108.1,1.3,3.2,14.37,37.78,699.6858,140.0047],
    [6242,1525544407,57.3112,-111.9277,642.9,282.9,105.7,1.4,3.4,14.33,37.73,699.7567,140.008],
    [6243,1525544408,57.311,-111.9265,640.7,281.7,103.4,1.9,3.9,14.36,37.52,699.5681,139.9996],
    [6244,1525544409,57.3109,-111.9254,637.8,279.9,100.5,2.1,3.6,14.56,37.47,699.3138,139.9842],
    [6245,1525544410,57.3109,-111.9243,634.3,276.6,96.4,1.8,2.3,14.23,38.45,699.1894,139.9948],
    [6246,1525544411,57.3108,-111.9231,630.7,273.6,92.3,2.0,1.0,13.89,37.61,699.2013,139.9954],
    [6247,1525544412,57.3108,-111.9219,628.7,272.6,89.0,2.1,0.2,14.42,37.15,699.1775,139.9969],
    [6248,1525544413,57.3109,-111.9207,630.3,275.3,87.4,1.3,0.5,14.17,37.36,699.3075,139.9964],
    [6249,1525544414,57.3109,-111.9195,633.3,279.3,86.9,0.9,0.7,13.99,36.95,699.4563,140.0029],
    [6250,1525544415,57.3109,-111.9184,635.1,282.1,86.5,1.8,0.2,14.15,36.75,699.4628,140.0028],
    [6251,1525544416,57.311,-111.9172,635.8,283.8,85.7,1.1,-0.7,14.21,36.76,699.5008,140.0049],
    [6252,1525544417,57.311,-111.9161,635.8,284.8,88.0,0.6,1.8,14.04,36.82,699.7678,139.9946],
    [6253,1525544418,57.3111,-111.9148,634.6,284.3,89.8,1.4,3.4,14.61,36.36,699.8878,140.0071],
    [6254,1525544419,57.3111,-111.9136,633.1,283.1,88.9,1.2,2.3,14.49,36.45,699.8908,140.0025],
    [6255,1525544420,57.3111,-111.9125,632.2,283.2,88.0,1.4,1.6,14.24,37.28,699.8475,140.0016],
    [6256,1525544421,57.3112,-111.9113,631.8,282.8,88.0,1.4,2.1,14.99,37.56,699.7047,140.0001],
    [6257,1525544422,57.3112,-111.91,629.8,281.8,89.5,2.0,3.8,14.61,37.97,699.4842,140.0048],
    [6258,1525544423,57.3113,-111.9089,628.3,280.3,88.5,2.3,2.7,14.21,38.13,699.223,140.0008],
    [6259,1525544424,57.3113,-111.9077,627.6,280.6,87.3,2.2,1.8,14.3,38.24,698.9748,139.9957],
    [6260,1525544425,57.3114,-111.9064,628.2,281.9,87.2,2.7,2.8,14.06,38.14,698.7968,139.9988],
    [6261,1525544426,57.3114,-111.9052,629.6,283.6,86.4,3.0,3.4,14.52,37.84,698.5841,139.9982],
    [6262,1525544427,57.3115,-111.904,632.0,286.0,83.4,2.3,2.6,14.18,38.32,698.5622,140.0003],
    [6263,1525544428,57.3116,-111.9028,635.1,289.1,80.4,2.9,2.8,14.06,37.6,698.4474,140.0004],
    [6264,1525544429,57.3118,-111.9017,638.1,293.1,76.8,2.7,2.4,14.07,37.79,698.2606,139.989],
    [6265,1525544430,57.3119,-111.9006,641.2,296.2,72.5,3.1,1.9,14.72,37.47,698.3659,139.9944],
    [6266,1525544431,57.3122,-111.8994,643.6,299.6,67.8,3.8,1.3,14.06,37.52,698.4647,139.9927],
    [6267,1525544432,57.3124,-111.8983,644.7,301.7,63.3,4.0,0.7,14.12,37.86,698.8466,139.9933],
    [6268,1525544433,57.3127,-111.8973,645.8,302.8,58.5,4.2,0.3,14.18,36.96,699.2767,139.9958],
    [6269,1525544434,57.313,-111.8963,647.3,305.3,55.2,3.8,0.3,14.46,36.62,699.7253,139.9987],
    [6270,1525544435,57.3134,-111.8954,647.2,306.2,53.0,4.2,1.4,14.2,37.62,700.1598,139.9998],
    [6271,1525544436,57.3138,-111.8945,645.3,305.3,50.5,3.2,1.1,14.6,36.64,700.3537,140.0027],
    [6272,1525544437,57.3142,-111.8935,641.3,301.3,48.5,2.0,2.5,14.12,37.9,700.8992,139.997],
    [6273,1525544438,57.3147,-111.8927,636.7,296.7,44.5,2.1,2.2,14.0,37.31,701.1654,139.9948],
    [6274,1525544439,57.3151,-111.8918,632.0,291.5,41.4,1.4,2.6,14.24,37.16,701.5018,139.9989],
    [6275,1525544440,57.3157,-111.8911,627.3,287.3,38.5,1.9,3.7,14.04,37.43,701.7406,140.004],
    [6276,1525544441,57.3162,-111.8903,622.9,283.9,34.0,3.7,3.5,14.05,37.72,702.0295,139.9988],
    [6277,1525544442,57.3168,-111.8896,618.2,279.9,31.4,3.0,3.0,14.67,37.75,702.1523,139.9988],
    [6278,1525544443,57.3174,-111.889,613.0,275.0,28.9,2.4,2.9,14.16,37.99,702.2511,140.003],
    [6279,1525544444,57.3179,-111.8885,609.1,271.2,26.9,1.4,3.3,13.98,38.25,702.4374,140.0045],
    [6280,1525544445,57.3186,-111.8879,605.3,266.3,23.3,0.9,3.7,14.44,38.58,702.4019,139.9942],
    [6281,1525544446,57.3192,-111.8874,601.8,261.8,19.3,0.9,3.2,13.89,38.67,702.4599,140.0011],
    [6282,1525544447,57.3199,-111.887,599.8,260.1,15.4,1.4,3.0,14.41,38.63,702.4344,140.0066],
    [6283,1525544448,57.3206,-111.8867,598.3,260.5,12.1,1.5,3.6,13.97,39.51,702.3611,140.0032],
    [6284,1525544449,57.3212,-111.8865,596.9,259.9,9.6,1.8,4.3,14.04,39.25,702.2957,140.0009],
    [6285,1525544450,57.322,-111.8863,595.5,259.5,7.0,1.2,3.7,13.79,39.98,702.1306,139.9963],
    [6286,1525544451,57.3226,-111.8861,595.2,259.9,5.8,1.0,3.4,13.87,39.66,702.0425,139.998],
    [6287,1525544452,57.3234,-111.886,595.1,259.9,3.5,2.5,3.2,14.31,39.82,701.9597,140.0015],
    [6288,1525544453,57.324,-111.8859,596.0,262.0,3.7,1.9,3.2,14.61,39.3,701.9256,140.0014],
    [6289,1525544454,57.3248,-111.8858,597.2,263.1,3.3,2.4,2.1,14.47,39.23,701.8409,139.9956],
    [6290,1525544455,57.3254,-111.8856,598.2,264.9,4.5,1.6,2.1,14.07,39.4,701.8448,140.0061],
    [6291,1525544456,57.3262,-111.8855,599.6,265.6,5.2,1.7,2.3,14.09,39.25,701.829,139.9971],
    [6292,1525544457,57.3269,-111.8854,600.9,265.9,5.7,2.0,2.0,14.12,38.59,701.7394,140.0079],
    [6293,1525544458,57.3276,-111.8852,601.8,264.8,7.0,1.5,2.8,13.9,38.79,701.5454,139.9954],
    [6294,1525544459,57.3283,-111.885,602.4,264.3,8.2,0.9,3.0,14.0,38.47,701.4029,140.0064],
    [6295,1525544460,57.3289,-111.8848,602.5,264.2,7.9,1.9,2.8,14.09,39.2,701.3004,140.0038],
    [6296,1525544461,57.3296,-111.8846,602.6,264.6,8.3,1.5,2.6,14.14,38.53,701.184,139.9967],
    [6297,1525544462,57.3303,-111.8844,603.5,265.5,9.6,0.9,3.5,14.27,38.06,701.1099,140.0033],
    [6298,1525544463,57.3309,-111.8842,604.8,266.8,9.1,1.4,3.1,14.18,38.59,700.9717,139.9983],
    [6299,1525544464,57.3316,-111.884,606.9,268.9,9.1,1.6,3.1,14.22,38.52,700.9246,139.9955],
    [6300,1525544465,57.3324,-111.8837,608.1,270.1,6.6,3.6,2.4,14.11,38.61,700.6883,140.0058],
    [6301,1525544466,57.333,-111.8836,609.7,271.0,7.3,1.7,3.0,13.56,38.65,700.6618,140.004],
    [6302,1525544467,57.3335,-111.8834,610.7,271.7,7.2,1.6,3.1,14.09,38.61,700.5414,139.9979],
    [6303,1525544468,57.3342,-111.8833,612.1,273.1,4.2,3.9,1.1,13.85,37.98,700.722,139.9983],
    [6304,1525544469,57.335,-111.8831,613.4,274.4,5.1,1.7,1.2,14.59,37.52,700.9417,139.996],
    [6305,1525544470,57.3357,-111.8829,615.4,277.4,4.0,2.8,1.1,13.85,37.67,701.0746,139.9998],
    [6306,1525544471,57.3364,-111.8828,617.1,279.1,2.9,3.4,1.9,13.71,37.45,701.1726,139.9995],
    [6307,1525544472,57.3371,-111.8827,618.2,280.2,4.2,1.7,3.6,14.05,37.46,701.2593,139.9965],
    [6308,1525544473,57.3378,-111.8826,616.9,277.9,3.3,2.6,3.1,13.46,37.6,701.2975,139.9931],
    [6309,1525544474,57.3385,-111.8825,614.6,275.6,3.4,2.5,2.8,13.99,37.85,701.3636,140.0034],
    [6310,1525544475,57.3392,-111.8823,612.6,273.6,2.9,3.3,3.0,13.79,38.35,701.319,139.9922],
    [6311,1525544476,57.3399,-111.8822,610.7,272.7,2.8,3.9,2.7,14.13,38.49,701.281,140.0018],
    [6312,1525544477,57.3405,-111.8821,609.4,272.4,2.8,4.4,2.0,13.73,38.15,701.2626,140.0048],
    [6313,1525544478,57.3412,-111.882,609.0,273.0,4.6,2.6,2.7,14.0,38.28,701.2462,139.9978],
    [6314,1525544479,57.3419,-111.8818,608.2,273.2,5.4,2.5,3.0,14.2,37.25,701.1999,140.0075],
    [6315,1525544480,57.3426,-111.8816,608.0,272.2,5.5,2.6,2.0,14.21,37.42,701.1699,139.9999],
    [6316,1525544481,57.3433,-111.8815,608.6,272.6,6.7,2.0,2.5,14.13,36.74,701.1012,140.0015],
    [6317,1525544482,57.344,-111.8813,609.2,272.2,6.3,3.0,2.6,14.4,37.02,700.9453,139.9932],
    [6318,1525544483,57.3447,-111.8811,609.5,271.5,7.6,2.0,2.9,14.74,36.13,700.7899,139.9956],
    [6319,1525544484,57.3454,-111.8809,609.7,271.7,7.7,2.5,3.1,14.34,36.84,700.8268,140.0128],
    [6320,1525544485,57.346,-111.8807,609.8,271.8,7.7,2.9,2.4,13.73,36.28,700.7734,139.9982],
    [6321,1525544486,57.3467,-111.8805,610.5,273.5,7.9,2.6,1.6,14.35,36.66,700.7689,140.0013],
    [6322,1525544487,57.3474,-111.8803,612.1,274.8,8.5,1.2,1.1,14.15,36.16,700.7406,140.0044],
    [6323,1525544488,57.3481,-111.8801,614.2,276.3,7.4,1.7,1.0,14.46,35.43,700.6247,140.0033],
    [6324,1525544489,57.3488,-111.8799,614.7,276.7,5.4,3.4,1.7,14.31,35.68,700.6033,139.9968],
    [6325,1525544490,57.3495,-111.8797,614.8,275.8,4.9,3.2,1.9,14.61,35.91,700.5479,139.9973],
    [6326,1525544491,57.3501,-111.8796,614.8,276.5,4.0,3.9,1.2,14.29,36.42,700.6341,140.0016],
    [6327,1525544492,57.3508,-111.8794,615.7,277.6,3.1,4.0,1.3,14.03,36.58,700.6813,140.0012],
    [6328,1525544493,57.3515,-111.8793,616.9,280.0,3.2,3.4,2.8,14.3,36.83,700.7063,139.9947],
    [6329,1525544494,57.3522,-111.8792,617.4,280.3,3.0,3.3,2.7,14.4,36.35,700.7089,139.9999],
    [6330,1525544495,57.3529,-111.8791,617.4,281.4,3.0,3.2,2.0,14.49,36.21,700.6773,139.9977],
    [6331,1525544496,57.3535,-111.8789,616.8,280.8,3.1,3.1,2.1,13.97,36.7,700.7354,140.0046],
    [6332,1525544497,57.3542,-111.8788,616.7,280.7,3.2,2.8,2.9,14.4,36.66,700.7844,139.9976],
    [6333,1525544498,57.3549,-111.8787,616.8,280.4,3.6,2.2,3.8,14.3,36.46,700.8805,139.9944],
    [6334,1525544499,57.3556,-111.8786,616.3,279.3,3.6,2.5,3.5,14.16,36.72,700.9118,140.0027],
    [6335,1525544500,57.3563,-111.8785,615.9,278.9,4.2,2.6,2.6,14.0,37.01,700.8825,140.003],
    [6336,1525544501,57.357,-111.8783,615.4,277.4,5.1,2.8,2.3,14.11,36.77,700.7767,140.0007],
    [6337,1525544502,57.3576,-111.8782,614.8,276.0,5.7,3.0,3.1,13.68,36.77,700.7542,139.9985],
    [6338,1525544503,57.3583,-111.878,613.8,274.8,6.8,2.2,2.4,14.09,36.91,700.7507,139.9993],
    [6339,1525544504,57.359,-111.8778,613.2,274.2,7.1,2.0,1.9,15.01,36.53,700.7216,139.983],
    [6340,1525544505,57.3597,-111.8776,613.3,274.3,7.2,1.9,2.9,14.24,37.27,700.6933,140.0023],
    [6341,1525544506,57.3603,-111.8775,614.2,276.3,6.9,2.0,3.2,13.72,37.0,700.6235,140.0082],
    [6342,1525544507,57.3611,-111.8773,615.0,277.0,6.3,2.4,3.3,14.86,36.57,700.6018,140.0024],
    [6343,1525544508,57.3617,-111.8771,615.0,277.0,6.5,1.8,3.6,14.13,36.96,700.5388,140.0],
    [6344,1525544509,57.3624,-111.8769,615.0,276.0,6.0,1.9,2.7,14.02,37.09,700.599,139.9954],
    [6345,1525544510,57.3631,-111.8768,615.6,276.6,5.6,1.9,2.6,14.98,36.75,700.6478,139.9948],
    [6346,1525544511,57.3638,-111.8766,616.6,277.6,5.9,1.5,3.7,14.41,36.92,700.7282,140.0027],
    [6347,1525544512,57.3644,-111.8765,617.5,278.5,5.8,1.5,4.3,14.27,36.78,700.8477,140.0053],
    [6348,1525544513,57.3652,-111.8763,617.6,278.6,6.0,1.2,3.9,14.41,36.83,700.8443,140.0002],
    [6349,1525544514,57.3658,-111.8762,617.3,278.3,6.2,0.8,3.8,14.3,36.77,700.8423,140.0054],
    [6350,1525544515,57.3665,-111.876,616.4,277.4,6.6,0.2,3.3,14.36,37.32,700.7935,140.0049],
    [6351,1525544516,57.3672,-111.8759,615.2,276.2,6.5,-0.2,3.2,14.21,36.91,700.6099,140.0047],
    [6352,1525544517,57.3679,-111.8758,614.1,276.1,5.8,-0.6,4.1,14.24,37.09,700.3696,140.0031],
    [6353,1525544518,57.3686,-111.8757,613.7,275.7,2.8,-0.1,3.9,14.52,36.44,700.2599,139.9964],
    [6354,1525544519,57.3693,-111.8757,614.0,275.2,358.5,0.3,3.0,14.23,36.9,700.2514,140.0027],
    [6355,1525544520,57.37,-111.8757,614.9,275.9,354.2,0.6,3.8,14.02,36.98,700.066,139.9973],
    [6356,1525544521,57.3707,-111.8759,616.8,277.8,349.3,0.5,3.4,14.03,37.02,699.8282,140.0107],
    [6357,1525544522,57.3714,-111.8762,619.5,280.5,345.6,-0.9,4.2,14.01,37.08,699.8078,140.0028],
    [6358,1525544523,57.372,-111.8765,621.0,281.0,341.2,0.4,3.8,14.65,37.13,699.7617,140.0019],
    [6359,1525544524,57.3726,-111.8769,621.6,281.6,337.3,1.3,4.5,14.26,37.17,699.5413,140.0037],
    [6360,1525544525,57.3733,-111.8775,623.6,281.4,334.2,-0.1,4.1,14.17,37.48,699.3831,139.999],
    [6361,1525544526,57.3739,-111.878,625.7,282.4,331.3,-0.3,3.5,14.22,38.2,699.3557,139.9999],
    [6362,1525544527,57.3745,-111.8786,626.8,282.1,326.5,1.1,4.3,14.36,37.17,699.1216,140.0005],
    [6363,1525544528,57.3751,-111.8793,628.2,282.3,321.7,1.2,4.5,14.19,38.33,699.0104,139.9995],
    [6364,1525544529,57.3756,-111.8801,629.6,282.7,318.1,1.6,3.3,14.23,38.16,698.935,140.0081],
    [6365,1525544530,57.3761,-111.8809,631.1,282.4,314.6,1.3,3.2,13.71,38.41,698.8635,140.002],
    [6366,1525544531,57.3766,-111.8817,632.7,283.0,311.3,1.1,3.1,14.33,38.4,698.814,140.0007],
    [6367,1525544532,57.377,-111.8826,634.6,284.6,308.1,1.3,2.5,14.14,38.45,698.7955,140.0049],
    [6368,1525544533,57.3774,-111.8836,636.0,285.0,303.9,1.4,3.2,14.49,38.33,698.8221,140.0042],
    [6369,1525544534,57.3778,-111.8846,637.0,286.0,300.4,1.0,3.4,13.91,38.92,698.7932,140.0],
    [6370,1525544535,57.3781,-111.8856,637.9,285.9,295.9,0.9,4.1,14.32,39.04,698.8728,139.9932],
    [6371,1525544536,57.3784,-111.8867,638.7,286.0,292.2,0.6,3.7,14.02,39.41,699.0062,139.9948],
    [6372,1525544537,57.3787,-111.8878,638.9,285.9,287.8,0.1,4.0,13.46,39.59,699.1945,139.9989],
    [6373,1525544538,57.3789,-111.8889,639.0,286.0,282.9,0.5,4.4,14.28,39.41,699.3873,140.0049],
    [6374,1525544539,57.379,-111.8901,639.0,286.0,278.6,0.6,4.4,13.95,39.75,699.5474,140.0119],
    [6375,1525544540,57.3792,-111.8912,638.6,285.6,276.2,0.5,3.7,13.87,40.4,699.5809,140.0063],
    [6376,1525544541,57.3793,-111.8924,636.4,283.4,272.7,1.6,4.3,14.09,40.36,699.4979,139.9991],
    [6377,1525544542,57.3793,-111.8936,633.6,279.9,269.8,1.6,4.1,13.64,41.19,699.4883,139.9855],
    [6378,1525544543,57.3793,-111.8948,631.1,275.0,266.9,1.1,4.1,13.31,40.87,699.5413,139.9967],
    [6379,1525544544,57.3793,-111.896,629.6,271.7,265.4,0.7,4.0,13.61,40.74,699.4704,139.9994],
    [6380,1525544545,57.3793,-111.8972,629.5,268.5,264.4,0.1,4.2,13.73,41.24,699.3499,140.0023],
    [6381,1525544546,57.3793,-111.8983,630.1,267.2,263.2,0.1,4.9,14.16,40.28,699.1385,140.0055],
    [6382,1525544547,57.3792,-111.8996,630.3,265.3,263.9,0.2,3.9,13.8,40.6,698.5868,139.9965],
    [6383,1525544548,57.3792,-111.9008,629.7,263.7,263.7,1.1,4.3,13.84,41.06,698.0261,140.0021],
    [6384,1525544549,57.3792,-111.902,629.9,261.8,263.9,1.3,4.4,13.65,40.58,697.8478,140.0011],
    [6385,1525544550,57.3791,-111.9032,631.1,262.0,265.3,1.2,3.5,13.73,40.68,697.3115,139.9936],
    [6386,1525544551,57.3791,-111.9043,633.4,261.5,265.8,1.5,3.8,13.51,40.32,697.1378,139.9959],
    [6387,1525544552,57.3791,-111.9056,639.0,262.5,266.2,2.2,4.1,13.96,39.81,696.9929,139.9954],
    [6388,1525544553,57.3791,-111.9067,645.5,264.6,266.6,2.1,3.7,13.29,39.8,696.9774,139.9968],
    [6389,1525544554,57.3791,-111.908,652.0,266.6,266.2,2.1,4.0,13.78,39.88,696.895,140.005],
    [6390,1525544555,57.3791,-111.909,656.0,266.9,265.3,2.3,4.9,13.76,40.12,696.738,139.9933],
    [6391,1525544556,57.3791,-111.9102,658.8,266.5,264.5,2.2,5.4,13.36,39.61,696.653,140.0019],
    [6392,1525544557,57.379,-111.9114,660.4,266.1,264.5,2.1,4.7,13.28,39.42,696.4761,140.0009],
    [6393,1525544558,57.379,-111.9125,661.1,266.1,264.8,2.0,4.1,13.71,39.39,696.4456,140.0042],
    [6394,1525544559,57.379,-111.9136,661.7,266.7,263.6,1.2,5.2,13.86,39.55,696.5311,139.9857],
    [6395,1525544560,57.379,-111.9148,662.9,267.9,263.7,1.7,4.7,13.69,39.4,696.723,140.0034],
    [6396,1525544561,57.379,-111.9159,664.6,270.6,264.4,1.6,3.8,13.69,39.48,696.9367,139.9944],
    [6397,1525544562,57.3789,-111.9171,666.2,272.2,263.5,1.2,4.6,13.3,39.73,697.0691,140.0055],
    [6398,1525544563,57.3789,-111.9181,667.0,272.0,262.8,2.2,4.9,13.7,39.37,697.0812,139.9942],
    [6399,1525544564,57.3789,-111.9193,666.0,271.0,265.2,2.0,2.1,14.33,38.87,697.0791,139.9983],
    [6400,1525544565,57.3788,-111.9204,663.8,268.8,264.3,1.4,3.0,14.25,38.87,697.0882,139.9999],
    [6401,1525544566,57.3788,-111.9216,661.5,266.5,263.2,1.6,3.7,13.74,39.44,697.0376,139.9913],
    [6402,1525544567,57.3787,-111.9227,660.2,264.5,262.4,1.5,4.1,14.11,39.36,697.0482,139.9969],
    [6403,1525544568,57.3787,-111.9238,659.3,263.3,262.4,1.6,3.5,13.6,39.67,697.0105,140.0036],
    [6404,1525544569,57.3786,-111.925,659.1,263.1,262.2,1.3,3.2,13.73,39.95,696.8651,140.0054],
    [6405,1525544570,57.3786,-111.9262,658.6,261.9,259.1,3.2,4.6,13.68,39.67,696.8069,140.0062],
    [6406,1525544571,57.3785,-111.9273,658.6,261.6,256.7,4.1,2.9,13.75,39.93,696.7081,140.0153],
    [6407,1525544572,57.3783,-111.9284,658.8,261.7,251.6,4.7,4.6,13.68,39.83,696.445,139.9977],
    [6408,1525544573,57.3781,-111.9295,658.9,261.9,246.2,5.0,5.1,13.71,39.75,696.3309,140.0002],
    [6409,1525544574,57.3778,-111.9305,660.0,265.0,239.6,3.8,5.3,13.44,39.72,696.3002,139.9933],
    [6410,1525544575,57.3775,-111.9315,661.5,270.8,233.6,3.6,5.9,13.74,39.52,696.2464,140.008],
    [6411,1525544576,57.3772,-111.9324,663.5,277.9,227.8,1.6,5.3,13.65,39.41,696.2678,139.9985],
    [6412,1525544577,57.3768,-111.9332,665.7,284.4,223.9,3.1,5.7,13.13,39.72,696.2734,140.0005],
    [6413,1525544578,57.3763,-111.9339,667.5,290.8,219.9,2.9,5.3,13.76,39.75,696.4304,139.9987],
    [6414,1525544579,57.3759,-111.9346,668.4,293.5,216.9,2.8,4.8,13.75,40.4,696.5734,139.9996],
    [6415,1525544580,57.3754,-111.9353,668.8,292.9,213.7,2.7,5.4,13.92,39.85,696.7064,140.0012],
    [6416,1525544581,57.3749,-111.9358,668.7,290.0,211.6,2.8,4.8,13.7,39.74,696.7268,139.9985],
    [6417,1525544582,57.3744,-111.9364,668.3,284.7,208.8,2.4,5.1,14.26,39.5,696.6013,139.9956],
    [6418,1525544583,57.3739,-111.9369,667.0,276.1,206.0,2.3,5.1,13.74,40.43,696.5212,140.0008],
    [6419,1525544584,57.3734,-111.9374,664.8,269.3,203.2,2.2,4.7,13.7,40.05,696.4103,140.0077],
    [6420,1525544585,57.3729,-111.9377,663.0,263.3,199.0,0.9,5.4,13.48,40.07,696.2139,139.9984],
    [6421,1525544586,57.3722,-111.9381,662.5,260.4,194.2,0.1,6.6,13.81,40.05,696.0975,139.9993],
    [6422,1525544587,57.3717,-111.9383,663.1,260.4,191.9,1.0,6.8,13.91,40.05,695.8943,139.9964],
    [6423,1525544588,57.371,-111.9385,664.1,261.7,190.6,2.9,6.5,13.19,40.18,695.9656,139.9842],
    [6424,1525544589,57.3705,-111.9387,666.0,264.0,188.2,2.5,5.5,13.67,40.41,696.1602,139.999],
    [6425,1525544590,57.3699,-111.9388,667.8,265.8,185.4,1.5,6.3,13.66,40.51,696.2829,140.0076],
    [6426,1525544591,57.3693,-111.9389,669.1,268.4,185.5,2.6,6.1,13.22,40.14,696.4931,140.004],
    [6427,1525544592,57.3687,-111.9389,670.5,270.5,184.5,2.0,6.0,13.72,40.05,696.6922,139.9954],
    [6428,1525544593,57.3681,-111.939,671.0,272.5,185.4,3.2,7.6,13.54,40.29,696.9308,140.0048],
    [6429,1525544594,57.3675,-111.9391,669.5,273.1,186.0,3.3,7.3,13.78,40.85,696.9352,139.9986],
    [6430,1525544595,57.3669,-111.9391,667.9,275.4,184.9,1.4,6.7,13.81,40.48,696.8879,139.9938],
    [6431,1525544596,57.3663,-111.9392,665.8,275.1,185.0,1.8,5.4,13.69,40.5,696.7775,140.0049],
    [6432,1525544597,57.3657,-111.9393,662.6,272.6,186.6,3.3,3.6,13.46,40.18,696.9816,139.987],
    [6433,1525544598,57.3651,-111.9394,660.7,270.5,183.3,-0.1,4.0,13.77,39.68,697.0151,140.0049],
    [6434,1525544599,57.3645,-111.9394,660.7,268.7,181.4,-0.8,3.9,13.69,40.0,697.2838,139.9973],
    [6435,1525544600,57.3639,-111.9395,660.9,264.9,182.3,1.3,3.9,13.64,40.63,697.4358,139.9995],
    [6436,1525544601,57.3633,-111.9395,661.0,263.4,181.0,0.5,3.5,13.49,39.94,697.6366,140.0044],
    [6437,1525544602,57.3626,-111.9395,660.0,262.0,182.0,3.0,3.8,13.81,40.63,697.7827,139.9995],
    [6438,1525544603,57.362,-111.9395,659.0,261.0,182.5,3.8,3.4,13.57,40.06,697.8139,139.9985],
    [6439,1525544604,57.3614,-111.9395,657.6,258.6,180.8,2.4,4.3,13.46,40.57,697.8332,139.9884],
    [6440,1525544605,57.3608,-111.9394,655.4,256.4,181.3,3.2,3.7,13.25,40.18,697.8196,140.0037],
    [6441,1525544606,57.3602,-111.9394,653.3,254.4,181.9,3.7,4.0,13.32,40.38,697.9041,140.0078],
    [6442,1525544607,57.3595,-111.9394,651.2,252.3,183.2,4.3,3.1,13.62,39.95,697.7812,140.0096],
    [6443,1525544608,57.3589,-111.9394,650.1,250.4,183.1,3.4,3.2,13.71,40.08,697.7224,140.0073],
    [6444,1525544609,57.3582,-111.9394,649.7,250.5,183.4,2.8,3.8,13.46,39.88,697.6242,139.9984],
    [6445,1525544610,57.3576,-111.9395,649.4,249.4,182.6,1.1,4.2,14.17,39.82,697.6001,139.9953],
    [6446,1525544611,57.357,-111.9395,648.5,248.5,182.6,1.5,5.0,13.71,39.97,697.5777,139.9955],
    [6447,1525544612,57.3564,-111.9395,648.6,249.6,185.1,4.1,4.5,13.59,40.29,697.4862,140.0086],
    [6448,1525544613,57.3557,-111.9396,650.3,251.3,183.7,2.3,4.8,13.83,40.71,697.3279,140.0063],
    [6449,1525544614,57.3551,-111.9396,651.9,252.9,184.0,2.8,3.5,13.76,39.99,697.1837,139.9914],
    [6450,1525544615,57.3545,-111.9397,652.6,254.6,183.1,2.0,4.5,13.79,40.05,696.9598,140.0008],
    [6451,1525544616,57.3539,-111.9397,653.1,255.1,182.4,1.8,4.6,13.35,39.78,696.8578,139.9919],
    [6452,1525544617,57.3532,-111.9397,654.0,256.7,182.2,2.3,3.6,13.45,39.95,696.848,140.0079],
    [6453,1525544618,57.3526,-111.9397,656.1,259.4,181.5,1.9,2.3,13.85,40.07,696.7615,139.9998],
    [6454,1525544619,57.352,-111.9397,658.1,263.1,182.3,2.8,2.4,13.81,39.44,696.662,140.0018],
    [6455,1525544620,57.3513,-111.9397,659.5,268.5,181.9,1.4,3.0,14.47,39.03,696.7681,139.996],
    [6456,1525544621,57.3507,-111.9397,661.1,272.1,181.9,1.5,4.0,13.5,39.41,696.7024,139.9995],
    [6457,1525544622,57.3502,-111.9397,662.3,274.4,184.0,3.6,2.9,13.66,39.44,696.429,139.9906],
    [6458,1525544623,57.3495,-111.9398,663.4,273.4,184.2,3.3,1.1,13.77,39.87,696.3053,140.005],
    [6459,1525544624,57.3489,-111.9398,664.1,272.1,184.9,3.9,1.3,14.5,38.92,696.1706,139.9882],
    [6460,1525544625,57.3482,-111.9398,663.8,272.0,184.8,3.9,1.5,13.72,39.34,696.0914,139.9979],
    [6461,1525544626,57.3477,-111.9399,664.0,273.0,183.3,2.9,2.1,13.79,39.24,696.0513,139.9957],
    [6462,1525544627,57.3471,-111.9399,665.8,274.8,183.6,3.6,2.7,14.13,39.7,695.916,140.001],
    [6463,1525544628,57.3464,-111.9399,667.9,276.9,182.7,2.7,2.9,13.94,39.39,695.8344,139.9894],
    [6464,1525544629,57.3458,-111.9399,668.9,277.7,183.0,3.2,4.6,13.76,39.15,695.774,140.0023],
    [6465,1525544630,57.3451,-111.9399,669.8,278.0,184.2,5.1,4.2,13.68,39.17,695.7572,140.0031],
    [6466,1525544631,57.3445,-111.9399,670.6,279.5,185.5,6.5,3.7,14.62,38.45,695.6971,139.9981],
    [6467,1525544632,57.3439,-111.9399,672.0,283.0,182.5,3.1,4.1,13.81,39.09,695.8102,139.9868],
    [6468,1525544633,57.3433,-111.9399,673.6,286.2,181.8,2.8,5.3,14.16,38.31,695.938,140.0087],
    [6469,1525544634,57.3427,-111.9399,674.9,290.2,181.5,3.1,4.5,14.11,39.1,695.8635,139.9983],
    [6470,1525544635,57.342,-111.9399,675.5,292.5,181.2,2.8,3.7,13.75,38.59,695.8553,140.0002],
    [6471,1525544636,57.3414,-111.9399,675.3,290.2,180.2,2.0,4.5,14.23,38.4,695.8986,139.9851],
    [6472,1525544637,57.3408,-111.9398,674.1,287.1,181.9,4.4,4.6,13.35,38.64,696.1885,140.0066],
    [6473,1525544638,57.3401,-111.9398,672.6,283.3,181.6,4.2,3.4,13.37,38.63,696.5093,139.9934],
    [6474,1525544639,57.3395,-111.9398,671.8,281.5,179.0,1.5,4.9,14.48,37.97,696.4952,140.0195],
    [6475,1525544640,57.3389,-111.9397,672.3,282.4,178.5,1.9,6.0,14.22,38.17,696.7071,139.9934],
    [6476,1525544641,57.3382,-111.9396,671.0,280.0,180.5,4.4,5.8,13.78,39.12,696.9907,140.0069],
    [6477,1525544642,57.3376,-111.9396,668.3,278.4,180.5,4.6,6.6,13.61,38.96,697.0382,139.9986],
    [6478,1525544643,57.337,-111.9395,665.7,275.7,182.2,6.7,5.5,13.99,38.24,697.0343,140.0059],
    [6479,1525544644,57.3363,-111.9394,664.3,275.3,181.5,5.2,4.0,14.34,38.29,696.6907,139.9906],
    [6480,1525544645,57.3357,-111.9394,662.8,274.8,181.4,4.9,5.3,13.71,38.37,696.5942,139.9854],
    [6481,1525544646,57.3351,-111.9394,660.7,273.0,183.0,6.0,4.2,13.96,38.9,696.4593,139.9956],
    [6482,1525544647,57.3345,-111.9393,659.5,272.5,182.7,4.2,3.8,13.77,38.27,696.4014,139.9953],
    [6483,1525544648,57.3338,-111.9393,660.6,273.6,182.9,2.5,2.2,14.29,38.13,696.3448,140.0007],
    [6484,1525544649,57.3332,-111.9394,662.3,276.3,184.6,3.9,3.2,13.88,38.31,696.3701,140.0004],
    [6485,1525544650,57.3325,-111.9394,663.8,278.1,186.5,5.0,5.1,14.02,38.19,696.4039,140.0],
    [6486,1525544651,57.3319,-111.9395,665.3,280.3,185.5,3.6,5.6,14.47,37.85,696.5308,140.0015],
    [6487,1525544652,57.3312,-111.9395,666.6,282.6,185.7,3.9,4.8,14.43,38.17,696.6482,139.9955],
    [6488,1525544653,57.3306,-111.9396,667.3,284.0,184.4,2.9,4.8,14.46,38.04,696.7252,139.9967],
    [6489,1525544654,57.33,-111.9396,667.4,284.3,183.2,2.4,4.5,14.0,38.6,696.9206,140.0088],
    [6490,1525544655,57.3294,-111.9397,666.8,284.8,182.6,2.8,4.6,14.02,38.38,697.0484,140.0085],
    [6491,1525544656,57.3287,-111.9397,665.1,284.1,181.8,2.8,4.4,14.1,38.5,697.2095,139.9975],
    [6492,1525544657,57.3281,-111.9396,663.6,282.6,180.7,2.0,4.3,14.1,38.81,697.3905,140.0033],
    [6493,1525544658,57.3275,-111.9396,662.5,282.2,179.0,0.8,5.7,13.93,38.71,697.4551,139.9901],
    [6494,1525544659,57.3268,-111.9396,660.8,280.8,178.9,1.0,4.1,13.55,38.64,697.4582,139.9958],
    [6495,1525544660,57.3262,-111.9395,659.1,279.1,178.2,0.4,3.6,13.68,38.61,697.3741,140.0007],
    [6496,1525544661,57.3255,-111.9395,657.1,278.1,179.7,2.0,2.7,13.88,38.81,697.38,139.9944],
    [6497,1525544662,57.3249,-111.9395,655.2,276.2,180.6,3.1,3.6,14.14,38.69,697.4003,140.0085],
    [6498,1525544663,57.3242,-111.9394,653.4,275.5,181.1,3.4,4.7,13.76,39.05,697.4212,139.9977],
    [6499,1525544664,57.3236,-111.9394,653.4,275.4,180.2,2.3,6.0,14.38,38.25,697.378,140.0138],
    [6500,1525544665,57.3229,-111.9394,654.3,277.3,180.3,2.3,5.8,13.9,38.59,697.3275,140.0004],
    [6501,1525544666,57.3223,-111.9393,654.2,278.1,180.4,2.2,5.8,13.39,38.74,697.1144,140.0007],
    [6502,1525544667,57.3217,-111.9393,654.3,279.2,180.9,2.5,5.8,14.41,38.29,697.0048,139.9996],
    [6503,1525544668,57.321,-111.9393,654.4,280.5,181.5,3.4,5.0,13.69,38.63,696.4567,140.0083],
    [6504,1525544669,57.3204,-111.9393,655.3,282.4,181.6,3.5,3.6,13.63,38.69,696.1631,140.003],
    [6505,1525544670,57.3198,-111.9392,656.2,283.2,181.1,3.2,3.8,13.94,38.57,695.4819,140.0014],
    [6506,1525544671,57.3191,-111.9392,657.7,284.9,179.7,2.7,3.5,13.87,38.43,694.928,140.002],
    [6507,1525544672,57.3185,-111.9391,660.3,289.1,178.3,3.2,3.3,14.01,39.05,694.1402,139.9955],
    [6508,1525544673,57.3179,-111.939,664.6,294.3,174.1,2.1,3.8,14.58,37.92,693.8743,139.991],
    [6509,1525544674,57.3173,-111.9388,670.1,301.1,170.5,2.5,3.0,13.6,38.18,693.8742,139.9905],
    [6510,1525544675,57.3166,-111.9385,677.5,309.6,166.0,2.3,3.0,13.38,38.1,693.7668,140.0015],
    [6511,1525544676,57.3161,-111.9381,684.7,317.7,162.1,2.2,3.4,13.8,38.06,693.6151,139.9962],
    [6512,1525544677,57.3155,-111.9377,691.5,325.5,158.0,2.3,2.4,13.56,38.09,693.371,139.998],
    [6513,1525544678,57.315,-111.9373,696.4,331.3,154.0,1.4,2.6,13.95,38.52,693.1943,139.9946],
    [6514,1525544679,57.3144,-111.9367,699.1,334.1,150.6,1.6,3.6,13.69,38.46,693.1752,139.9997],
    [6515,1525544680,57.3139,-111.936,700.3,335.3,144.8,1.1,2.4,14.07,37.67,693.2306,139.9987],
    [6516,1525544681,57.3135,-111.9353,701.9,336.9,139.2,1.3,1.6,14.04,37.76,693.3031,139.9956],
    [6517,1525544682,57.3131,-111.9345,704.5,340.5,134.9,2.2,2.0,13.73,38.06,693.5388,139.9966],
    [6518,1525544683,57.3127,-111.9337,707.2,343.1,130.8,2.3,2.2,13.37,38.04,693.7323,140.0058],
    [6519,1525544684,57.3123,-111.9328,708.2,344.1,128.8,2.8,3.4,13.76,38.11,693.6961,140.006],
    [6520,1525544685,57.312,-111.9319,707.9,344.9,124.8,2.8,2.8,13.78,37.97,693.7017,139.9968],
    [6521,1525544686,57.3117,-111.9309,707.1,344.0,120.3,3.0,2.4,13.79,38.01,693.6083,140.0006],
    [6522,1525544687,57.3114,-111.9299,704.9,342.8,117.3,2.9,2.9,13.9,37.66,693.5844,139.9981],
    [6523,1525544688,57.3112,-111.9288,702.1,341.1,111.4,2.1,2.1,13.47,37.98,693.5449,139.9984],
    [6524,1525544689,57.311,-111.9277,701.5,341.5,106.5,3.3,1.3,14.15,37.78,693.6023,139.9981],
    [6525,1525544690,57.3109,-111.9266,702.4,343.4,103.4,4.1,1.5,13.76,38.23,693.7293,139.9992],
    [6526,1525544691,57.3108,-111.9255,703.2,345.2,101.2,4.2,1.7,13.68,38.03,693.7596,139.9939],
    [6527,1525544692,57.3107,-111.9243,704.0,347.1,99.0,4.5,1.9,13.7,38.09,693.7962,139.9956],
    [6528,1525544693,57.3106,-111.9232,704.7,348.1,96.9,3.9,2.2,13.93,38.44,693.8713,140.0009],
    [6529,1525544694,57.3106,-111.922,704.2,348.1,94.8,4.6,2.3,13.77,38.21,693.7312,139.9958],
    [6530,1525544695,57.3106,-111.9208,702.8,347.8,92.1,4.5,1.9,13.77,38.52,693.6607,139.9855],
    [6531,1525544696,57.3106,-111.9196,701.3,347.3,88.8,3.9,1.5,13.59,38.49,693.4747,140.003],
    [6532,1525544697,57.3106,-111.9185,701.0,348.0,86.7,3.2,2.1,14.4,37.63,693.5261,139.9937],
    [6533,1525544698,57.3107,-111.9173,700.4,348.4,85.0,4.1,2.3,13.42,38.38,693.644,140.0031],
    [6534,1525544699,57.3108,-111.9161,700.6,349.6,81.9,3.4,0.6,13.32,37.95,693.7385,140.0025],
    [6535,1525544700,57.3109,-111.9149,701.8,351.5,82.4,2.4,2.0,13.78,37.86,693.8876,139.9969],
    [6536,1525544701,57.311,-111.9137,703.3,353.3,82.7,3.1,2.1,13.76,37.82,693.873,140.0096],
    [6537,1525544702,57.3111,-111.9125,703.2,354.2,83.4,2.2,2.3,14.3,37.36,693.8426,139.9922],
    [6538,1525544703,57.3112,-111.9113,702.2,353.2,84.8,2.7,2.7,13.52,38.22,693.7886,140.0046],
    [6539,1525544704,57.3112,-111.9101,700.8,352.8,85.5,1.9,2.4,13.74,38.64,693.8304,140.0007],
    [6540,1525544705,57.3113,-111.9089,699.2,351.2,87.1,1.9,3.1,13.8,37.82,693.8771,139.9976],
    [6541,1525544706,57.3114,-111.9077,698.7,351.7,86.6,2.3,2.0,13.73,37.97,693.7259,139.9875],
    [6542,1525544707,57.3114,-111.9065,699.1,352.1,86.4,2.0,1.7,13.69,38.05,693.652,139.991],
    [6543,1525544708,57.3115,-111.9053,699.7,353.7,85.7,2.6,1.2,13.83,37.83,693.7478,139.9941],
    [6544,1525544709,57.3115,-111.9042,699.7,353.7,85.8,3.0,2.7,13.67,38.31,693.9213,139.9967],
    [6545,1525544710,57.3116,-111.9029,699.0,353.0,82.4,2.5,1.9,13.61,38.04,694.1027,140.001],
    [6546,1525544711,57.3117,-111.9018,699.3,354.3,77.4,0.9,1.0,13.2,38.21,694.29,139.9976],
    [6547,1525544712,57.3119,-111.9005,701.0,356.0,74.5,0.9,3.0,13.95,37.86,694.5214,140.0019],
    [6548,1525544713,57.3121,-111.8993,700.9,356.9,69.7,2.2,1.7,14.12,37.9,694.6699,140.0009],
    [6549,1525544714,57.3124,-111.8982,699.2,356.2,64.3,2.4,1.0,13.57,38.49,694.7483,140.0076],
    [6550,1525544715,57.3127,-111.8973,697.1,354.1,60.3,3.1,1.5,13.67,38.65,694.8577,139.9956],
    [6551,1525544716,57.3131,-111.8961,694.2,352.2,54.2,3.2,0.9,13.18,38.55,695.044,140.0031],
    [6552,1525544717,57.3135,-111.8951,691.7,350.7,48.6,4.0,0.8,13.66,38.26,695.0904,140.0042],
    [6553,1525544718,57.3139,-111.8943,690.1,350.1,42.8,5.1,1.0,13.6,38.41,695.3643,140.0063],
    [6554,1525544719,57.3144,-111.8934,688.6,348.6,38.3,5.0,1.5,13.65,38.04,695.3643,140.0033],
    [6555,1525544720,57.3149,-111.8926,687.5,347.5,34.5,4.9,1.3,13.91,37.29,695.4034,139.999],
    [6556,1525544721,57.3155,-111.8919,686.0,346.0,30.6,5.3,0.3,13.7,38.46,695.4119,139.9981],
    [6557,1525544722,57.3161,-111.8912,684.0,344.7,26.5,6.2,-0.8,14.07,37.35,695.4195,139.9969],
    [6558,1525544723,57.3166,-111.8906,682.1,343.4,24.9,5.3,1.9,13.72,37.49,695.4253,140.005],
    [6559,1525544724,57.3172,-111.8901,680.5,342.5,20.9,5.7,0.8,13.4,37.54,695.4471,139.9997],
    [6560,1525544725,57.3178,-111.8896,680.5,341.5,17.5,6.4,1.1,13.59,37.7,695.312,140.0018],
    [6561,1525544726,57.3184,-111.8892,680.9,341.9,17.3,5.0,1.9,14.3,37.31,695.2147,140.0006],
    [6562,1525544727,57.3191,-111.8888,680.9,340.8,16.7,4.9,2.3,13.4,37.6,695.0998,139.9938],
    [6563,1525544728,57.3197,-111.8884,680.7,341.7,15.8,5.2,2.1,13.74,38.13,694.9022,140.0004],
    [6564,1525544729,57.3203,-111.888,680.7,342.7,16.4,4.0,2.8,13.59,37.55,694.8777,139.9922],
    [6565,1525544730,57.3209,-111.8876,681.5,343.4,15.2,4.5,2.3,13.56,37.64,694.854,140.0029],
    [6566,1525544731,57.3216,-111.8872,682.8,345.8,13.5,5.1,2.6,13.68,38.01,694.8702,139.9985],
    [6567,1525544732,57.3222,-111.8869,684.1,348.1,12.4,4.7,2.3,13.53,37.77,694.7458,140.0031],
    [6568,1525544733,57.3229,-111.8865,685.6,350.6,10.8,4.0,1.0,13.77,38.13,694.7451,140.0001],
    [6569,1525544734,57.3235,-111.8863,686.7,352.4,10.3,2.1,1.9,13.3,37.93,694.7074,140.0092],
    [6570,1525544735,57.3241,-111.8861,687.2,353.2,9.3,1.6,2.7,13.52,37.64,694.7235,139.9999],
    [6571,1525544736,57.3248,-111.8858,687.1,353.1,5.3,3.3,2.6,13.81,37.41,694.9373,139.9858],
    [6572,1525544737,57.3255,-111.8857,687.7,354.4,4.3,1.9,3.3,13.72,38.34,695.0602,139.9907],
    [6573,1525544738,57.3262,-111.8856,688.4,354.4,4.0,1.1,3.1,13.64,38.44,695.1435,140.0026],
    [6574,1525544739,57.3268,-111.8855,688.7,353.8,362.0,2.7,4.2,13.49,38.62,695.207,139.9936],
    [6575,1525544740,57.3274,-111.8854,688.1,352.1,361.3,3.3,3.6,13.61,39.02,695.1577,140.0089],
    [6576,1525544741,57.3282,-111.8853,685.7,347.6,361.0,3.4,2.3,13.51,39.35,695.2117,140.0124],
    [6577,1525544742,57.3288,-111.8853,683.5,345.5,362.2,2.7,2.2,13.46,39.82,695.3038,139.9988],
    [6578,1525544743,57.3295,-111.8852,682.1,344.1,362.2,3.7,1.0,14.02,38.91,695.3407,139.9924],
    [6579,1525544744,57.3302,-111.8851,681.2,343.2,5.4,0.7,1.6,13.6,39.29,695.2915,140.002],
    [6580,1525544745,57.3308,-111.8849,680.8,342.8,6.7,0.7,3.0,13.62,38.92,695.295,139.9951],
    [6581,1525544746,57.3315,-111.8848,681.0,342.4,5.1,2.8,1.7,13.32,39.05,695.3285,140.0021],
    [6582,1525544747,57.3322,-111.8846,680.3,341.3,6.9,0.6,1.4,14.24,38.86,695.3439,139.9976],
    [6583,1525544748,57.3329,-111.8844,679.7,340.7,7.1,0.9,1.3,13.86,39.03,695.2532,139.9985],
    [6584,1525544749,57.3335,-111.8843,680.1,341.1,5.0,3.5,1.5,13.79,38.99,695.2728,140.0064],
    [6585,1525544750,57.3342,-111.8841,680.3,341.3,4.3,4.4,1.0,13.92,39.01,695.1094,139.9948],
    [6586,1525544751,57.3349,-111.8839,679.6,340.6,4.6,3.8,0.6,13.1,39.2,695.158,140.006],
    [6587,1525544752,57.3356,-111.8838,680.0,341.3,6.3,1.6,1.6,13.64,39.49,695.1256,139.9967],
    [6588,1525544753,57.3363,-111.8836,680.9,342.9,7.0,1.1,2.1,13.53,39.32,695.0825,140.0109],
    [6589,1525544754,57.3369,-111.8834,681.7,343.7,4.8,3.7,2.6,13.36,39.21,695.1132,140.0003],
    [6590,1525544755,57.3376,-111.8833,682.4,343.4,3.8,4.3,2.6,14.13,38.66,695.0763,139.9967],
    [6591,1525544756,57.3383,-111.8831,682.6,343.6,5.0,2.7,2.2,13.65,39.8,695.0964,139.9959],
    [6592,1525544757,57.339,-111.883,682.8,343.8,5.3,2.4,2.4,13.56,39.95,695.056,139.993],
    [6593,1525544758,57.3397,-111.8828,683.7,345.7,5.0,2.9,2.5,13.55,39.63,695.162,139.9938],
    [6594,1525544759,57.3403,-111.8827,683.7,346.7,5.2,2.8,3.9,13.81,38.94,695.2867,139.9931],
    [6595,1525544760,57.341,-111.8825,683.9,347.6,5.6,2.5,3.3,13.69,39.69,695.3918,140.0041],
    [6596,1525544761,57.3417,-111.8824,683.7,348.0,5.6,2.6,3.6,13.17,39.06,695.4184,139.9967],
    [6597,1525544762,57.3424,-111.8822,683.5,348.2,6.9,1.2,3.2,13.43,39.0,695.3705,139.9982],
    [6598,1525544763,57.3431,-111.882,683.0,346.7,7.1,1.2,2.4,13.36,38.91,695.4899,139.998],
    [6599,1525544764,57.3437,-111.8818,681.2,344.2,6.9,2.0,1.6,13.82,38.72,695.6306,139.9988],
    [6600,1525544765,57.3444,-111.8817,680.1,342.0,6.2,2.7,1.4,13.62,38.79,695.6524,140.0013],
    [6601,1525544766,57.3451,-111.8815,679.2,340.9,6.5,2.0,2.1,14.12,38.03,695.8947,140.001],
    [6602,1525544767,57.3458,-111.8813,679.1,341.1,4.8,3.3,2.9,13.48,38.58,696.0848,139.9926],
    [6603,1525544768,57.3465,-111.8812,678.6,340.6,4.2,2.7,1.2,14.26,37.79,696.1594,139.9957],
    [6604,1525544769,57.3472,-111.881,677.3,339.3,4.0,1.9,2.4,13.7,38.17,696.3154,140.0073],
    [6605,1525544770,57.3478,-111.8809,676.3,337.3,2.6,2.6,2.4,13.72,38.09,696.4742,139.9965],
    [6606,1525544771,57.3486,-111.8808,674.2,335.3,361.9,2.5,3.0,13.73,37.94,696.5669,140.0053],
    [6607,1525544772,57.3493,-111.8808,671.5,331.7,361.7,2.2,2.5,13.86,37.62,696.536,140.0015],
    [6608,1525544773,57.3499,-111.8807,669.5,329.5,361.5,2.5,1.2,14.15,37.41,696.4851,140.0016],
    [6609,1525544774,57.3506,-111.8806,667.9,328.7,361.1,3.8,1.9,14.14,37.62,696.429,139.9989],
    [6610,1525544775,57.3513,-111.8805,666.1,327.1,362.4,2.7,1.6,13.59,38.35,696.4567,139.9991],
    [6611,1525544776,57.352,-111.8804,665.0,327.0,3.5,1.8,2.5,13.72,37.86,696.5621,139.9985],
    [6612,1525544777,57.3528,-111.8803,665.0,327.7,3.2,2.2,2.5,13.8,38.11,696.6247,140.003],
    [6613,1525544778,57.3534,-111.8802,665.8,328.8,3.1,2.7,2.8,13.71,37.4,696.6228,140.0007],
    [6614,1525544779,57.3542,-111.8801,666.6,329.6,3.9,2.1,3.0,13.85,37.36,696.5134,139.9937],
    [6615,1525544780,57.3549,-111.88,666.1,329.1,4.9,1.7,3.4,13.65,37.23,696.4471,140.0035],
    [6616,1525544781,57.3556,-111.8798,665.0,326.9,6.0,1.4,3.2,13.71,37.61,696.3703,140.0078],
    [6617,1525544782,57.3563,-111.8796,664.1,326.1,6.6,1.9,3.3,14.12,36.68,696.2691,139.9982],
    [6618,1525544783,57.357,-111.8795,664.3,325.3,7.1,2.2,3.4,13.46,37.17,696.1821,139.9966],
    [6619,1525544784,57.3576,-111.8793,665.0,325.1,8.1,1.5,2.3,14.13,36.42,696.1818,139.9991],
    [6620,1525544785,57.3583,-111.8791,665.9,326.0,7.8,2.4,2.4,13.48,37.34,696.0645,140.0036],
    [6621,1525544786,57.359,-111.8789,666.9,327.2,7.5,2.4,2.0,13.53,36.97,695.8903,139.9988],
    [6622,1525544787,57.3597,-111.8787,667.7,328.7,8.4,2.3,2.6,13.96,37.24,695.7827,139.9984],
    [6623,1525544788,57.3604,-111.8784,669.0,331.0,7.8,3.0,2.6,13.81,36.91,695.6573,140.0003],
    [6624,1525544789,57.3611,-111.8782,669.6,331.6,7.9,3.0,2.9,13.78,36.96,695.6235,139.9945],
    [6625,1525544790,57.3618,-111.878,670.4,332.4,7.0,3.3,2.8,14.02,36.89,695.511,140.0008],
    [6626,1525544791,57.3625,-111.8778,672.4,333.5,7.6,2.0,3.6,13.6,37.12,695.3957,140.0007],
    [6627,1525544792,57.3632,-111.8776,674.3,334.3,7.1,1.8,3.0,13.89,36.92,695.2106,139.9933],
    [6628,1525544793,57.3639,-111.8774,675.6,335.6,6.7,2.0,3.3,14.16,36.77,695.0786,140.0008],
    [6629,1525544794,57.3646,-111.8772,676.4,336.4,6.3,2.2,3.2,13.82,37.59,694.9394,139.9969],
    [6630,1525544795,57.3653,-111.8771,677.6,338.6,6.2,1.9,2.4,13.75,37.09,694.8272,139.9967],
    [6631,1525544796,57.366,-111.8769,678.9,339.9,6.8,1.3,3.2,13.9,37.21,694.7886,139.9949],
    [6632,1525544797,57.3667,-111.8767,680.5,341.5,6.4,1.6,1.7,13.61,37.59,694.699,139.998],
    [6633,1525544798,57.3674,-111.8766,682.8,343.8,6.6,1.6,2.9,13.9,36.83,694.5282,140.0061],
    [6634,1525544799,57.368,-111.8764,684.6,345.6,5.9,2.4,2.6,13.61,37.27,694.443,140.0026],
    [6635,1525544800,57.3687,-111.8762,685.6,346.6,6.3,1.6,2.4,13.4,37.51,694.1093,140.0078],
    [6636,1525544801,57.3694,-111.8761,686.5,347.6,6.3,1.1,2.0,13.52,37.3,693.8929,139.9989],
    [6637,1525544802,57.37,-111.8759,687.4,348.4,5.5,0.8,2.0,13.81,37.77,693.5109,139.9959],
    [6638,1525544803,57.3707,-111.8758,688.7,349.7,2.6,0.8,2.2,13.7,37.6,693.0224,139.9954],
    [6639,1525544804,57.3715,-111.8758,690.5,351.5,358.0,1.4,1.6,13.62,37.27,692.884,139.9964],
    [6640,1525544805,57.3721,-111.8759,692.7,353.7,352.0,2.6,2.2,14.39,36.77,692.4491,140.0034],
    [6641,1525544806,57.3728,-111.8761,696.8,357.8,346.1,1.8,2.2,13.94,37.18,692.3105,139.9983],
    [6642,1525544807,57.3734,-111.8764,701.4,361.2,340.4,2.6,1.3,14.19,36.87,692.0515,139.9953],
    [6643,1525544808,57.374,-111.8768,707.0,365.8,334.2,3.4,1.5,13.66,37.62,691.8525,140.0034],
    [6644,1525544809,57.3746,-111.8773,712.1,369.1,329.9,3.4,2.0,13.28,37.53,691.7399,139.9987],
    [6645,1525544810,57.3752,-111.8779,715.7,371.7,325.2,4.0,2.7,13.7,38.0,691.6426,139.9994],
    [6646,1525544811,57.3757,-111.8786,718.2,373.5,321.1,2.9,1.8,13.37,37.77,691.6675,140.0024],
    [6647,1525544812,57.3762,-111.8793,720.4,374.4,316.6,3.2,1.2,13.42,37.58,691.7963,140.0016],
    [6648,1525544813,57.3767,-111.8801,722.6,375.7,311.5,3.5,1.2,14.41,37.36,691.9192,139.9952],
    [6649,1525544814,57.377,-111.8808,724.3,376.0,307.4,3.7,1.5,14.3,37.16,692.0947,140.0036],
    [6650,1525544815,57.3774,-111.8816,725.5,376.2,303.5,2.9,2.1,13.73,37.89,692.115,140.0049],
    [6651,1525544816,57.3777,-111.8827,725.8,375.8,298.5,4.0,2.3,14.25,37.73,692.1418,139.9981],
    [6652,1525544817,57.3781,-111.8838,724.9,373.9,294.5,3.5,2.7,13.51,37.91,692.1604,140.0082],
    [6653,1525544818,57.3784,-111.8848,722.9,370.9,290.2,3.4,2.8,13.42,37.94,692.4561,139.9918],
    [6654,1525544819,57.3786,-111.8859,721.3,369.3,286.0,3.0,2.1,13.3,38.01,692.5278,140.0033],
    [6655,1525544820,57.3787,-111.887,720.3,367.3,281.7,2.4,2.2,13.26,38.1,692.7071,140.0054],
    [6656,1525544821,57.3789,-111.8882,719.9,366.9,277.5,1.7,2.8,14.13,38.08,692.8838,139.9975],
    [6657,1525544822,57.379,-111.8892,719.4,366.4,273.5,2.0,4.2,14.39,38.0,692.8418,140.0113],
    [6658,1525544823,57.379,-111.8903,717.8,364.8,271.2,1.8,3.2,13.9,38.45,692.806,139.9924],
    [6659,1525544824,57.379,-111.8915,715.4,362.4,267.9,1.5,3.8,13.65,38.56,692.8606,139.9927],
    [6660,1525544825,57.379,-111.8925,713.6,360.6,264.3,2.3,5.4,13.34,39.35,692.9378,140.0016],
    [6661,1525544826,57.379,-111.8938,711.7,357.7,264.0,2.4,3.8,13.7,38.9,692.9818,140.0041],
    [6662,1525544827,57.379,-111.895,710.9,354.2,263.2,2.3,3.7,12.86,39.07,692.9345,140.0073],
    [6663,1525544828,57.3789,-111.8961,711.2,352.2,263.5,2.8,3.2,13.52,39.09,692.8822,140.003],
    [6664,1525544829,57.3789,-111.8973,710.9,349.6,264.3,4.1,2.8,12.89,39.27,692.8472,140.0002],
    [6665,1525544830,57.3788,-111.8985,709.8,346.9,265.5,4.0,2.2,13.64,39.1,692.8146,139.9982],
    [6666,1525544831,57.3788,-111.8996,709.2,344.2,265.6,3.7,3.0,13.24,39.09,692.6604,139.9992],
    [6667,1525544832,57.3788,-111.9008,709.3,343.3,266.0,2.4,3.2,13.66,39.05,692.5748,139.997],
    [6668,1525544833,57.3788,-111.902,709.8,342.8,266.7,3.4,3.1,13.3,39.15,692.4919,140.0011],
    [6669,1525544834,57.3788,-111.9032,710.4,341.4,267.1,2.8,3.1,13.94,38.98,692.2652,139.9982],
    [6670,1525544835,57.3788,-111.9044,711.4,339.7,267.4,2.9,2.8,13.74,38.82,692.1662,139.9886],
    [6671,1525544836,57.3788,-111.9055,712.5,337.5,267.4,2.5,2.5,13.12,39.23,691.9819,139.9979],
    [6672,1525544837,57.3788,-111.9067,713.5,333.5,267.8,3.2,1.8,13.02,39.44,691.5215,140.0022],
    [6673,1525544838,57.3787,-111.9078,714.4,331.5,267.4,2.4,2.0,12.88,39.42,691.251,140.0084],
    [6674,1525544839,57.3787,-111.909,716.0,327.6,265.3,2.9,3.6,13.2,39.36,690.909,139.9989],
    [6675,1525544840,57.3787,-111.9101,718.5,326.8,266.3,3.5,1.8,14.15,39.21,690.6014,139.998],
    [6676,1525544841,57.3787,-111.9113,721.6,327.6,265.0,4.1,3.1,13.2,39.47,690.2704,139.999],
    [6677,1525544842,57.3786,-111.9124,725.1,330.1,264.4,3.6,3.6,13.55,40.15,689.9974,139.9976],
    [6678,1525544843,57.3786,-111.9135,728.7,333.7,265.1,2.9,3.2,13.54,40.2,689.909,139.9994],
    [6679,1525544844,57.3786,-111.9146,732.6,338.6,264.8,3.2,3.9,13.67,39.61,689.7829,139.9938],
    [6680,1525544845,57.3786,-111.9157,736.5,342.5,265.7,2.7,3.0,13.3,40.08,689.8045,140.0017],
    [6681,1525544846,57.3786,-111.9169,740.8,346.8,265.8,3.2,3.8,13.47,40.31,689.8795,139.9996],
    [6682,1525544847,57.3785,-111.9181,744.2,350.2,266.8,3.4,3.6,13.34,39.97,689.9473,140.0027],
    [6683,1525544848,57.3785,-111.9192,746.5,352.4,267.4,2.5,3.9,13.56,39.94,689.9321,140.0057],
    [6684,1525544849,57.3786,-111.9202,748.0,353.0,268.0,3.6,3.8,13.8,39.58,689.8121,140.0024],
    [6685,1525544850,57.3786,-111.9213,748.0,353.0,267.6,2.9,4.2,13.26,40.38,689.6537,140.0119],
    [6686,1525544851,57.3786,-111.9223,747.7,352.7,268.0,1.3,3.0,13.96,39.73,689.4007,140.0002],
    [6687,1525544852,57.3786,-111.9236,747.0,351.3,267.7,2.1,1.5,13.07,40.32,689.1486,139.9973],
    [6688,1525544853,57.3785,-111.9247,746.7,350.7,263.9,2.7,1.9,13.22,40.87,688.9079,139.9996],
    [6689,1525544854,57.3785,-111.9258,748.0,351.2,258.8,2.7,2.0,13.35,40.52,688.7919,139.994],
    [6690,1525544855,57.3783,-111.9269,749.8,352.9,252.8,2.6,2.7,13.78,40.36,688.9063,139.9873],
    [6691,1525544856,57.3781,-111.928,752.6,355.6,245.8,1.5,3.5,12.9,40.83,689.0893,139.9977],
    [6692,1525544857,57.3779,-111.9289,755.6,358.2,240.9,2.2,4.0,12.98,41.0,689.3497,140.0029],
    [6693,1525544858,57.3776,-111.9298,758.2,361.5,236.0,1.4,4.6,13.08,40.8,689.4443,140.0015],
    [6694,1525544859,57.3773,-111.9308,760.2,366.4,231.6,1.0,4.7,13.33,41.24,689.6864,140.0026],
    [6695,1525544860,57.3769,-111.9317,759.6,372.6,229.4,2.3,4.1,13.03,40.86,689.8018,140.0062],
    [6696,1525544861,57.3765,-111.9325,757.5,374.4,226.3,3.0,4.4,13.15,41.09,689.7518,139.9971],
    [6697,1525544862,57.3761,-111.9333,754.5,377.4,222.0,2.5,4.1,13.03,41.16,689.7368,140.0078],
    [6698,1525544863,57.3757,-111.934,752.2,376.9,218.0,2.0,4.0,13.15,41.18,689.5182,139.9973],
    [6699,1525544864,57.3752,-111.9346,750.0,374.7,214.4,1.7,3.5,12.73,41.27,689.1908,139.9973],
    [6700,1525544865,57.3746,-111.9353,748.2,369.2,211.7,1.6,2.8,13.29,41.03,689.1348,139.982],
    [6701,1525544866,57.3742,-111.9358,747.6,362.9,208.9,1.7,3.2,12.92,41.47,688.8885,140.0086],
    [6702,1525544867,57.3736,-111.9364,748.2,355.2,206.5,1.9,3.6,13.14,41.01,688.777,139.9958],
    [6703,1525544868,57.373,-111.9369,749.7,352.0,204.7,2.0,2.6,13.7,41.19,688.5696,140.0026],
    [6704,1525544869,57.3725,-111.9373,752.4,352.2,202.9,2.1,3.8,13.37,41.19,688.5298,139.9926],
    [6705,1525544870,57.3719,-111.9377,753.9,352.7,203.6,4.4,4.5,13.74,41.18,688.4104,139.995],
    [6706,1525544871,57.3713,-111.9382,756.3,354.3,201.0,3.6,5.3,12.94,41.73,688.2804,140.0013],
    [6707,1525544872,57.3707,-111.9385,758.7,356.8,201.1,5.5,3.7,13.27,41.56,688.3612,139.9933],
    [6708,1525544873,57.3701,-111.9389,760.6,358.6,199.0,4.5,3.5,13.71,41.02,688.4069,139.9992],
    [6709,1525544874,57.3696,-111.9391,761.9,360.6,196.4,3.6,4.0,12.81,41.5,688.4353,139.9954],
    [6710,1525544875,57.3689,-111.9394,763.1,362.2,194.6,3.7,4.6,12.96,41.51,688.4932,140.0104],
    [6711,1525544876,57.3684,-111.9396,764.4,364.7,191.9,2.5,4.0,13.01,41.84,688.6436,139.9952],
    [6712,1525544877,57.3677,-111.9398,764.0,366.3,191.5,3.7,4.0,13.34,40.97,688.7955,139.9934],
    [6713,1525544878,57.3671,-111.94,763.0,368.0,188.5,2.0,5.2,13.24,41.26,689.0718,140.0018],
    [6714,1525544879,57.3665,-111.9401,762.5,369.2,187.2,2.4,5.1,13.2,41.21,689.3192,140.0042],
    [6715,1525544880,57.3659,-111.9402,762.2,370.4,187.3,3.3,3.8,13.1,41.83,689.3634,140.005],
    [6716,1525544881,57.3652,-111.9403,760.8,367.8,187.3,3.8,4.1,12.9,41.48,689.3368,139.9992],
    [6717,1525544882,57.3646,-111.9404,758.8,364.8,188.7,5.3,3.2,13.71,41.15,689.2562,140.0047],
    [6718,1525544883,57.364,-111.9405,755.9,361.0,189.0,5.7,3.6,12.99,41.57,689.2565,140.0041],
    [6719,1525544884,57.3633,-111.9406,752.5,355.3,189.7,6.3,3.5,13.15,42.07,689.4597,140.0033],
    [6720,1525544885,57.3627,-111.9407,751.4,353.1,188.4,5.1,3.3,12.73,41.43,689.5549,139.9945],
    [6721,1525544886,57.362,-111.9408,751.4,352.4,186.7,4.2,4.0,13.03,41.64,689.6487,139.989],
    [6722,1525544887,57.3614,-111.9409,752.1,352.1,185.1,3.7,3.2,13.23,41.3,689.7482,140.0126],
    [6723,1525544888,57.3607,-111.9409,752.1,351.0,184.9,4.8,1.9,13.37,40.88,689.8574,139.9924],
    [6724,1525544889,57.3601,-111.9409,750.8,349.7,184.0,5.3,2.8,13.38,40.98,689.9091,139.9989],
    [6725,1525544890,57.3595,-111.9409,748.7,346.7,184.5,7.0,1.8,13.13,41.98,690.0781,140.0011],
    [6726,1525544891,57.3588,-111.9409,746.7,345.0,182.9,6.5,3.7,12.96,41.06,690.2201,140.0011],
    [6727,1525544892,57.3581,-111.9408,745.4,344.5,180.6,4.6,4.0,13.77,40.64,690.4288,140.0079],
    [6728,1525544893,57.3575,-111.9408,744.5,343.5,180.7,6.0,3.6,12.79,40.92,690.4771,140.0035],
    [6729,1525544894,57.3568,-111.9407,743.5,342.5,182.7,8.3,5.0,13.75,40.23,690.6766,139.9976],
    [6730,1525544895,57.3561,-111.9406,741.4,340.4,181.3,6.4,6.4,13.27,40.57,690.9979,140.0032],
    [6731,1525544896,57.3555,-111.9405,740.3,340.3,181.9,6.9,5.6,13.69,40.46,691.1545,139.9975],
    [6732,1525544897,57.3548,-111.9405,739.2,339.2,183.4,7.7,3.2,13.19,40.43,691.3036,140.005],
    [6733,1525544898,57.3541,-111.9404,737.7,337.6,183.1,6.2,2.6,13.26,40.67,691.3581,139.9998],
    [6734,1525544899,57.3534,-111.9404,735.0,336.0,184.1,6.8,3.1,13.13,40.24,691.446,140.0002],
    [6735,1525544900,57.3528,-111.9404,732.1,333.1,184.6,6.8,3.2,13.18,40.7,691.4838,140.016],
    [6736,1525544901,57.3521,-111.9404,729.4,332.4,184.5,6.5,2.7,13.25,40.34,691.6257,140.0079],
    [6737,1525544902,57.3514,-111.9404,727.8,333.3,183.8,4.8,1.5,13.16,40.73,691.9279,140.0041],
    [6738,1525544903,57.3508,-111.9404,726.9,337.6,183.3,3.9,2.5,13.27,40.94,692.0725,140.0098],
    [6739,1525544904,57.3501,-111.9404,726.2,337.9,184.2,4.5,2.3,12.95,40.33,692.2788,139.9939],
    [6740,1525544905,57.3494,-111.9404,725.5,334.4,184.1,4.0,1.9,13.47,40.39,692.3587,140.0065],
    [6741,1525544906,57.3488,-111.9405,723.8,332.8,184.8,4.6,1.1,13.46,40.12,692.4824,140.0101],
    [6742,1525544907,57.3481,-111.9405,721.3,330.3,185.5,4.7,-0.1,13.35,40.3,692.6705,139.9994],
    [6743,1525544908,57.3474,-111.9405,718.9,327.2,185.2,4.5,-0.7,12.8,40.28,692.6507,140.0016],
    [6744,1525544909,57.3467,-111.9406,716.6,324.0,185.5,5.1,0.6,13.26,40.46,692.4944,139.9952],
    [6745,1525544910,57.3461,-111.9406,715.0,322.0,184.0,3.7,1.3,13.63,39.82,692.3885,140.0039],
    [6746,1525544911,57.3455,-111.9406,713.7,320.7,182.6,2.6,1.6,13.55,40.28,692.1302,140.0009],
    [6747,1525544912,57.3448,-111.9406,711.9,319.6,184.2,5.0,0.3,13.88,39.92,692.1345,140.0018],
    [6748,1525544913,57.3441,-111.9406,711.2,322.0,183.1,4.3,1.8,13.23,40.22,692.0493,139.996],
    [6749,1525544914,57.3433,-111.9406,712.2,325.8,182.7,4.6,2.8,13.14,40.0,692.0962,140.0082],
    [6750,1525544915,57.3427,-111.9406,713.4,329.4,182.2,4.2,3.5,13.17,39.77,692.0977,139.9915],
    [6751,1525544916,57.342,-111.9406,715.4,332.4,181.8,4.3,4.0,12.79,39.82,692.2405,139.9984],
    [6752,1525544917,57.3413,-111.9406,716.8,331.8,181.4,4.2,4.3,13.79,39.34,692.2099,140.0042],
    [6753,1525544918,57.3406,-111.9405,717.6,328.9,181.2,4.4,3.7,14.03,39.15,692.2228,139.9897],
    [6754,1525544919,57.3399,-111.9405,717.4,326.3,180.5,3.2,3.8,13.25,39.54,692.2458,140.008],
    [6755,1525544920,57.3393,-111.9404,716.5,325.5,181.0,4.1,4.5,13.94,39.26,692.2043,140.0119],
    [6756,1525544921,57.3386,-111.9404,715.9,323.9,181.9,4.2,3.0,12.86,39.43,692.0747,140.0028],
    [6757,1525544922,57.338,-111.9404,716.2,325.2,180.5,2.4,3.7,13.43,39.29,691.7968,140.0194],
    [6758,1525544923,57.3373,-111.9403,716.2,325.1,181.6,3.6,4.9,13.57,39.17,691.8197,140.0016],
    [6759,1525544924,57.3366,-111.9403,716.2,326.1,181.1,3.0,4.6,13.23,39.61,691.7721,140.0042],
    [6760,1525544925,57.336,-111.9403,717.5,328.5,181.3,3.1,3.5,13.04,39.24,691.7684,139.9997],
    [6761,1525544926,57.3353,-111.9403,718.7,330.7,182.3,4.0,3.1,13.32,39.51,691.7106,139.9954],
    [6762,1525544927,57.3347,-111.9403,720.6,332.9,181.9,2.9,4.6,13.3,39.38,691.5225,139.9972],
    [6763,1525544928,57.334,-111.9403,722.1,335.1,183.2,4.3,3.2,13.47,39.51,691.2593,140.0035],
    [6764,1525544929,57.3334,-111.9403,723.1,336.0,185.1,5.6,2.4,13.47,39.57,691.1027,139.9931],
    [6765,1525544930,57.3327,-111.9403,723.3,337.3,183.9,4.2,1.4,13.21,39.38,691.0449,140.0008],
    [6766,1525544931,57.3321,-111.9403,723.9,338.9,182.7,3.5,2.1,13.21,39.34,690.9744,139.9994],
    [6767,1525544932,57.3315,-111.9403,725.7,340.7,181.7,2.8,3.6,13.78,39.15,691.1415,139.9929],
    [6768,1525544933,57.3308,-111.9403,727.7,343.6,182.1,3.6,3.2,13.27,39.56,691.2107,139.9947],
    [6769,1525544934,57.3303,-111.9403,729.5,346.6,181.7,3.5,4.1,13.95,39.07,691.3768,140.0036],
    [6770,1525544935,57.3296,-111.9402,731.0,347.9,181.2,3.1,4.4,13.28,39.52,691.3562,140.0114],
    [6771,1525544936,57.3289,-111.9402,731.7,349.8,181.5,3.7,4.4,12.93,39.71,691.3613,139.9995],
    [6772,1525544937,57.3282,-111.9402,731.4,350.4,182.2,4.3,3.3,13.36,39.75,691.4249,140.004],
    [6773,1525544938,57.3276,-111.9401,729.8,348.8,183.0,5.1,3.8,13.8,39.46,691.471,140.0025],
    [6774,1525544939,57.3269,-111.9401,727.9,347.9,183.5,5.0,3.5,13.46,39.74,691.6674,140.0021],
    [6775,1525544940,57.3263,-111.9401,727.2,347.2,181.7,2.5,4.4,13.5,39.98,691.7395,139.9923],
    [6776,1525544941,57.3256,-111.9401,726.8,346.8,182.3,3.5,4.2,13.33,40.48,691.7799,139.9947],
    [6777,1525544942,57.325,-111.9401,726.0,347.0,183.5,4.9,5.0,13.34,39.84,691.719,140.0123],
    [6778,1525544943,57.3243,-111.9401,725.0,346.5,184.4,5.9,4.3,13.56,39.84,691.7178,140.0021],
    [6779,1525544944,57.3237,-111.9401,723.7,345.7,184.1,5.3,4.1,13.83,39.09,691.5988,140.0013],
    [6780,1525544945,57.323,-111.9401,722.5,344.5,183.2,4.5,5.2,13.66,39.18,691.4579,140.0022],
    [6781,1525544946,57.3224,-111.9401,722.1,344.9,183.6,4.7,5.4,13.45,39.41,691.4744,139.9926],
    [6782,1525544947,57.3217,-111.9401,722.0,345.6,182.4,3.1,5.5,13.59,39.13,691.3185,139.9987],
    [6783,1525544948,57.3211,-111.9401,722.9,347.2,183.5,4.7,5.1,13.2,39.63,691.2149,139.9962],
    [6784,1525544949,57.3205,-111.9401,724.2,349.5,184.8,5.9,4.8,13.37,39.5,690.8245,140.0013],
    [6785,1525544950,57.3198,-111.9401,725.6,351.6,183.7,4.7,4.4,13.53,39.97,690.5449,140.0049],
    [6786,1525544951,57.3192,-111.9401,726.4,352.4,183.5,5.0,4.6,13.48,39.26,689.9979,140.0036],
    [6787,1525544952,57.3186,-111.9401,727.1,353.4,181.0,3.1,5.8,13.41,39.27,689.5821,139.9956],
    [6788,1525544953,57.318,-111.9401,729.0,356.4,178.4,2.6,6.2,13.22,39.49,689.0758,139.9958],
    [6789,1525544954,57.3174,-111.94,732.3,361.2,176.1,3.1,6.5,13.59,39.62,688.6197,139.9975],
    [6790,1525544955,57.3167,-111.9398,736.7,366.5,172.9,3.3,6.1,13.91,39.04,688.1578,139.9961],
    [6791,1525544956,57.3161,-111.9396,741.7,372.7,168.7,2.8,5.7,13.35,39.35,687.9214,140.0028],
    [6792,1525544957,57.3155,-111.9392,748.0,380.3,163.3,1.6,5.4,13.46,39.57,687.8872,139.9943],
    [6793,1525544958,57.315,-111.9388,754.5,388.5,159.8,2.1,6.9,13.47,40.21,687.8812,139.9917],
    [6794,1525544959,57.3144,-111.9383,760.0,395.0,157.2,3.3,6.2,13.55,39.74,687.9957,139.9879],
    [6795,1525544960,57.314,-111.9378,764.9,399.9,153.1,2.7,5.6,13.29,39.72,688.1054,139.9902],
    [6796,1525544961,57.3134,-111.9372,769.3,405.4,150.2,4.1,5.6,13.44,39.93,688.3709,140.0004],
    [6797,1525544962,57.313,-111.9365,771.6,407.6,146.8,4.8,5.4,13.39,39.68,688.5852,139.9923],
    [6798,1525544963,57.3125,-111.9357,772.6,409.5,141.1,4.9,3.7,13.45,39.76,688.609,139.9993],
    [6799,1525544964,57.3121,-111.9349,771.5,408.5,137.0,3.7,4.2,13.9,39.24,688.7479,139.9997],
    [6800,1525544965,57.3117,-111.9341,769.2,406.2,133.2,3.2,4.6,13.37,39.82,688.9243,139.9964],
    [6801,1525544966,57.3113,-111.9331,765.8,403.8,128.1,2.8,3.6,13.07,39.91,688.9638,139.9971],
    [6802,1525544967,57.311,-111.9321,763.0,401.0,123.0,1.8,4.0,13.44,40.58,689.1464,139.9963],
    [6803,1525544968,57.3107,-111.9311,762.1,400.0,119.0,2.2,4.2,13.35,40.34,689.1344,139.9984],
    [6804,1525544969,57.3104,-111.9301,760.8,399.8,116.2,3.3,4.0,12.9,40.46,689.0382,139.9856],
    [6805,1525544970,57.3102,-111.929,759.2,399.1,112.7,2.9,4.4,13.33,40.25,688.9294,139.9939],
    [6806,1525544971,57.31,-111.9278,757.6,398.6,108.9,3.4,4.5,13.06,40.17,688.8824,139.9965],
    [6807,1525544972,57.3099,-111.9266,756.0,398.0,104.7,3.0,4.5,13.17,40.55,688.8521,139.998],
    [6808,1525544973,57.3098,-111.9254,755.3,398.3,99.3,3.0,3.4,13.26,40.41,688.8959,140.0],
    [6809,1525544974,57.3097,-111.9242,755.9,400.0,96.5,1.8,4.4,13.19,40.32,689.1715,139.9975],
    [6810,1525544975,57.3097,-111.9229,757.1,402.1,93.1,2.0,3.7,13.21,40.54,689.4031,140.0018],
    [6811,1525544976,57.3097,-111.9218,757.9,402.9,89.8,1.5,3.0,13.04,40.28,689.5256,139.9993],
    [6812,1525544977,57.3098,-111.9205,758.3,404.3,87.8,1.8,3.0,13.0,40.22,689.5499,139.999],
    [6813,1525544978,57.3098,-111.9193,758.1,405.1,85.1,1.7,1.5,13.09,40.46,689.5802,140.004],
    [6814,1525544979,57.3099,-111.9181,756.2,404.2,85.8,2.2,3.2,12.99,40.32,689.9828,140.0078],
    [6815,1525544980,57.31,-111.9169,753.8,402.1,84.8,2.7,2.8,13.54,39.67,690.1031,139.9982],
    [6816,1525544981,57.3101,-111.9156,751.2,400.2,84.1,2.2,2.5,12.95,39.93,690.2729,140.0081],
    [6817,1525544982,57.3102,-111.9144,749.8,399.7,84.1,2.9,2.7,13.18,39.92,690.4577,140.0057],
    [6818,1525544983,57.3103,-111.9131,748.6,398.6,84.6,2.6,3.0,13.8,39.3,690.3414,140.005],
    [6819,1525544984,57.3103,-111.9119,745.8,396.8,84.4,3.6,2.7,13.33,39.44,690.3009,140.0022],
    [6820,1525544985,57.3104,-111.9106,743.7,395.7,84.1,3.0,2.6,12.7,39.37,690.3087,139.9986],
    [6821,1525544986,57.3105,-111.9094,741.8,393.8,84.8,3.7,3.5,13.43,38.98,690.3246,139.9988],
    [6822,1525544987,57.3106,-111.9081,739.8,392.8,84.7,4.2,3.2,13.29,38.79,690.3194,139.992],
    [6823,1525544988,57.3107,-111.9068,740.7,394.7,83.7,3.6,2.1,13.84,38.46,690.2928,139.9995],
    [6824,1525544989,57.3108,-111.9057,741.7,395.7,83.4,4.3,2.0,13.2,38.84,690.2867,140.0078],
    [6825,1525544990,57.3109,-111.9045,742.3,396.3,83.4,5.2,2.4,13.45,38.17,690.2597,139.9976],
    [6826,1525544991,57.311,-111.9032,742.6,396.6,83.1,5.3,2.2,13.55,38.05,690.2194,139.991],
    [6827,1525544992,57.3111,-111.9021,742.5,397.5,82.4,5.1,1.3,13.33,38.23,690.2926,140.0042],
    [6828,1525544993,57.3112,-111.9009,742.4,397.4,79.9,5.9,-0.1,13.25,38.08,690.4026,140.0021],
    [6829,1525544994,57.3113,-111.8995,742.8,398.8,76.3,6.2,-0.6,12.79,38.01,690.4203,139.9964],
    [6830,1525544995,57.3115,-111.8984,743.2,399.2,73.3,6.1,0.9,12.86,37.94,690.5065,140.0019],
    [6831,1525544996,57.3117,-111.8972,743.9,400.9,69.6,5.0,1.7,13.12,37.81,690.5552,139.9959],
    [6832,1525544997,57.3119,-111.8961,743.3,401.3,63.9,4.9,0.2,13.12,37.89,690.6577,139.9999],
    [6833,1525544998,57.3122,-111.895,742.2,401.2,59.3,5.2,2.3,12.8,37.4,690.7352,139.995],
    [6834,1525544999,57.3126,-111.894,741.6,400.6,53.6,5.4,2.2,13.2,38.01,690.7412,139.9868],
    [6835,1525545000,57.313,-111.893,741.1,401.1,47.1,6.1,1.6,13.37,37.45,690.9039,139.9914],
    [6836,1525545001,57.3134,-111.8921,740.5,399.5,41.3,6.5,1.8,13.41,37.8,691.0311,140.0006],
    [6837,1525545002,57.3139,-111.8913,739.6,398.6,36.7,6.2,2.4,13.23,37.53,691.346,139.9965],
    [6838,1525545003,57.3145,-111.8906,738.4,397.4,32.0,5.4,2.9,14.08,37.13,691.7553,139.9928],
    [6839,1525545004,57.315,-111.8899,737.6,396.4,27.7,4.3,2.5,13.14,37.55,691.781,139.9926],
    [6840,1525545005,57.3156,-111.8894,736.5,395.8,24.3,3.7,2.6,12.7,37.45,692.5351,139.9994],
    [6841,1525545006,57.3162,-111.8889,734.8,395.1,20.5,4.4,3.7,13.37,37.93,693.0063,139.9989],
    [6842,1525545007,57.3168,-111.8885,731.9,392.9,17.2,3.6,3.7,13.07,37.59,693.1629,139.9943],
    [6843,1525545008,57.3174,-111.8881,727.5,389.5,14.4,3.3,5.0,13.62,37.23,693.2715,140.0021],
    [6844,1525545009,57.318,-111.8878,722.5,384.5,10.1,4.4,2.7,13.55,37.46,693.2148,139.9812],
    [6845,1525545010,57.3187,-111.8875,716.4,377.4,6.9,4.9,2.8,13.37,38.2,693.0368,140.0098],
    [6846,1525545011,57.3194,-111.8873,711.2,371.2,6.6,3.7,3.6,13.88,37.45,692.6779,139.998],
    [6847,1525545012,57.3201,-111.8871,707.1,368.1,6.6,2.9,2.0,13.26,38.03,692.5769,140.0005],
    [6848,1525545013,57.3207,-111.887,704.3,366.4,5.7,3.8,2.0,13.27,38.21,692.4891,140.004],
    [6849,1525545014,57.3214,-111.8868,703.9,366.8,6.3,2.6,-0.8,12.88,37.98,692.4289,140.0065],
    [6850,1525545015,57.3221,-111.8866,705.9,369.9,5.3,4.5,-1.2,13.3,38.13,692.4166,139.9981],
    [6851,1525545016,57.3228,-111.8864,709.1,373.8,5.2,5.0,-0.6,13.81,37.45,692.3602,140.0126],
    [6852,1525545017,57.3234,-111.8862,712.7,378.4,6.4,3.8,-0.1,13.23,38.04,692.4032,140.0115],
    [6853,1525545018,57.3241,-111.886,714.3,380.3,5.0,5.9,0.5,13.32,38.19,692.3522,140.0052],
    [6854,1525545019,57.3248,-111.8858,715.5,381.4,3.5,7.1,0.9,13.34,38.53,692.317,139.9947],
    [6855,1525545020,57.3254,-111.8856,715.9,382.6,3.9,5.9,0.4,12.87,38.18,692.2122,140.01],
    [6856,1525545021,57.3261,-111.8854,716.6,382.6,362.2,6.9,0.6,13.51,38.5,692.2637,139.9966],
    [6857,1525545022,57.3266,-111.8853,716.8,382.5,361.0,7.9,3.1,14.24,37.66,692.2081,140.0036],
    [6858,1525545023,57.3274,-111.8851,717.1,380.8,359.9,8.4,4.0,13.6,38.53,692.1095,140.0083],
    [6859,1525545024,57.3281,-111.885,717.4,379.3,360.7,6.5,1.3,13.19,38.04,692.1173,140.0061],
    [6860,1525545025,57.3288,-111.8849,717.7,379.7,360.0,7.0,1.7,13.5,37.6,692.1669,140.002],
    [6861,1525545026,57.3294,-111.8848,718.0,379.8,359.4,7.2,1.0,13.73,37.54,692.1381,139.9953],
    [6862,1525545027,57.3301,-111.8847,718.6,380.6,360.5,6.0,2.1,14.12,37.56,692.1289,139.9978],
    [6863,1525545028,57.3307,-111.8846,719.4,381.4,359.3,7.3,2.4,13.79,37.93,692.0594,140.0052],
    [6864,1525545029,57.3314,-111.8845,719.7,381.7,359.1,6.9,3.4,13.93,37.27,691.9839,140.0016],
    [6865,1525545030,57.332,-111.8844,719.5,380.8,360.5,5.2,2.8,13.54,38.35,691.8716,139.9911],
    [6866,1525545031,57.3327,-111.8843,719.2,380.2,361.2,4.1,1.4,13.49,38.16,691.7656,140.0016],
    [6867,1525545032,57.3333,-111.8842,719.6,380.6,3.3,1.9,2.1,13.86,37.43,691.6181,139.9944],
    [6868,1525545033,57.334,-111.8841,720.7,381.7,4.6,1.3,3.2,13.4,37.85,691.713,140.0035],
    [6869,1525545034,57.3347,-111.8839,721.9,382.9,5.6,1.6,4.2,13.56,38.45,691.6504,140.006],
    [6870,1525545035,57.3353,-111.8838,722.9,383.9,5.9,2.0,2.0,13.63,37.97,691.5621,140.0005],
    [6871,1525545036,57.336,-111.8836,723.8,385.8,5.7,3.1,1.5,14.3,37.79,691.5686,140.0011],
    [6872,1525545037,57.3366,-111.8835,724.9,386.9,6.9,1.8,1.8,13.56,38.1,691.5134,139.9919],
    [6873,1525545038,57.3373,-111.8833,725.6,387.0,7.6,1.4,2.4,13.22,38.62,691.5082,139.9905],
    [6874,1525545039,57.3379,-111.8831,725.9,386.9,6.4,2.4,3.1,13.5,38.25,691.515,140.0059],
    [6875,1525545040,57.3386,-111.8829,726.8,387.8,6.4,1.5,3.8,13.46,38.33,691.518,139.9876],
    [6876,1525545041,57.3393,-111.8828,727.3,388.3,5.3,2.3,4.4,13.49,38.6,691.5973,139.9986],
    [6877,1525545042,57.3399,-111.8827,727.5,389.5,4.6,2.3,3.0,14.15,38.45,691.6344,140.0066],
    [6878,1525545043,57.3405,-111.8825,727.3,390.3,5.6,0.6,1.4,13.18,38.96,691.7979,139.9946],
    [6879,1525545044,57.3412,-111.8824,727.2,391.2,5.2,1.2,2.3,13.37,39.36,691.8967,140.0059],
    [6880,1525545045,57.3419,-111.8823,726.9,391.9,4.1,1.9,1.9,12.94,39.56,691.8645,139.9946],
    [6881,1525545046,57.3425,-111.8822,726.4,390.4,5.0,0.8,2.0,13.6,39.79,691.9312,139.9893],
    [6882,1525545047,57.3432,-111.882,725.5,389.2,3.0,3.7,2.7,13.5,39.96,692.0275,139.9998],
    [6883,1525545048,57.3439,-111.8819,724.3,387.3,2.6,4.5,2.0,13.17,39.7,692.0585,140.0009],
    [6884,1525545049,57.3445,-111.8818,723.2,385.2,4.1,3.6,2.2,13.38,39.55,692.0508,139.9972],
    [6885,1525545050,57.3451,-111.8816,722.6,384.2,5.4,2.7,1.8,13.4,39.86,692.076,139.9932],
    [6886,1525545051,57.3458,-111.8815,721.6,383.6,7.1,1.8,1.5,13.44,39.64,692.1983,140.0077],
    [6887,1525545052,57.3465,-111.8813,720.8,382.8,6.9,3.1,0.8,13.56,39.22,692.2358,139.9991],
    [6888,1525545053,57.3472,-111.8811,720.4,382.4,8.1,2.0,1.4,13.05,38.96,692.3422,139.9994],
    [6889,1525545054,57.3478,-111.8809,720.2,381.2,8.5,1.7,1.3,13.58,38.81,692.492,139.9978],
    [6890,1525545055,57.3485,-111.8807,719.8,380.8,8.6,1.2,2.2,13.16,39.07,692.6224,139.9943],
    [6891,1525545056,57.3491,-111.8805,719.0,380.0,7.6,2.0,1.9,13.29,39.19,692.7599,139.9973],
    [6892,1525545057,57.3498,-111.8803,718.6,379.6,6.9,2.3,1.8,12.78,38.95,692.8814,139.9965],
    [6893,1525545058,57.3504,-111.8801,717.5,378.5,6.9,1.4,1.9,13.21,39.01,692.9481,139.9934],
    [6894,1525545059,57.3511,-111.88,715.8,377.8,5.9,2.2,1.8,13.01,38.99,693.0229,140.0016],
    [6895,1525545060,57.3517,-111.8798,713.8,376.2,4.3,3.3,0.9,13.54,38.57,693.1208,140.0031],
    [6896,1525545061,57.3524,-111.8797,711.9,374.9,3.8,3.8,1.5,13.19,38.7,693.1764,140.0011],
    [6897,1525545062,57.3531,-111.8795,710.1,373.1,3.8,3.3,-0.3,13.97,38.24,693.2506,140.0047],
    [6898,1525545063,57.3538,-111.8794,708.8,372.8,4.9,2.2,1.2,13.62,38.31,693.2413,139.9988],
    [6899,1525545064,57.3544,-111.8792,708.3,371.3,5.0,2.2,0.5,13.36,38.79,693.2011,139.9976],
    [6900,1525545065,57.3551,-111.8791,707.2,370.2,4.8,3.0,1.8,13.01,38.48,692.9714,140.0077],
    [6901,1525545066,57.3558,-111.8789,706.0,369.0,4.2,4.0,1.8,13.06,38.51,692.9073,140.0022],
    [6902,1525545067,57.3565,-111.8788,704.1,366.0,3.0,5.6,0.2,13.39,38.22,692.7506,139.9964],
    [6903,1525545068,57.3571,-111.8786,703.9,365.9,3.2,5.5,0.1,13.56,38.23,692.6833,139.9882],
    [6904,1525545069,57.3578,-111.8784,706.1,367.2,3.5,5.5,0.9,13.41,38.78,692.8929,139.9967],
    [6905,1525545070,57.3584,-111.8783,708.3,369.1,361.9,7.1,1.8,13.04,38.51,692.9718,140.0048],
    [6906,1525545071,57.3592,-111.8781,709.7,370.5,2.8,5.7,3.9,13.49,39.01,692.9615,140.0018],
    [6907,1525545072,57.3598,-111.878,711.2,372.2,362.0,6.1,3.2,13.31,38.55,692.7781,140.0011],
    [6908,1525545073,57.3605,-111.8778,711.5,373.5,2.6,5.0,3.1,13.3,38.37,692.5595,139.9973],
    [6909,1525545074,57.3611,-111.8777,710.2,372.2,4.1,3.0,1.5,13.71,38.46,692.3265,140.0064],
    [6910,1525545075,57.3618,-111.8776,709.3,371.3,4.0,3.1,1.1,13.77,38.8,692.1618,139.9996],
    [6911,1525545076,57.3624,-111.8774,709.5,370.5,4.7,2.4,2.6,13.38,38.86,692.008,139.9977],
    [6912,1525545077,57.3631,-111.8773,711.1,371.6,4.3,2.6,2.1,13.4,38.25,691.8025,140.0025],
    [6913,1525545078,57.3638,-111.8772,713.6,373.6,4.3,2.4,1.1,14.13,37.87,691.7139,139.9952],
    [6914,1525545079,57.3644,-111.877,716.0,376.0,4.1,2.6,2.1,13.59,38.36,691.6389,140.0052],
    [6915,1525545080,57.365,-111.8769,718.5,379.1,3.6,3.1,1.7,13.34,38.53,691.7121,139.9999],
    [6916,1525545081,57.3657,-111.8768,721.3,382.3,4.5,2.5,1.5,13.67,38.17,691.8065,139.9992],
    [6917,1525545082,57.3663,-111.8766,723.3,384.3,5.0,2.7,1.4,13.42,38.24,691.8586,139.9988],
    [6918,1525545083,57.367,-111.8765,724.7,385.7,7.0,0.9,1.8,13.37,38.39,691.8096,140.0029],
    [6919,1525545084,57.3676,-111.8763,725.5,386.5,8.0,1.3,2.5,13.42,38.35,691.6961,140.0039],
    [6920,1525545085,57.3683,-111.8761,725.6,386.6,6.1,3.6,3.0,13.55,38.35,691.4648,139.9996],
    [6921,1525545086,57.3689,-111.876,724.9,386.2,7.4,2.2,4.2,13.68,37.94,691.3144,140.0011],
    [6922,1525545087,57.3696,-111.8758,723.7,384.7,7.1,2.2,3.3,13.42,38.3,691.0596,140.0033],
    [6923,1525545088,57.3702,-111.8756,723.1,384.1,6.3,2.4,3.0,13.4,38.26,690.9015,140.0037],
    [6924,1525545089,57.3709,-111.8754,724.4,385.4,6.8,0.2,3.4,13.42,38.49,690.5954,139.9975],
    [6925,1525545090,57.3715,-111.8753,726.7,387.7,5.8,-0.8,3.8,13.89,37.87,690.1657,139.9996],
    [6926,1525545091,57.3722,-111.8753,730.0,391.0,360.9,0.2,3.0,13.72,38.55,690.0241,140.0052],
    [6927,1525545092,57.3728,-111.8753,732.5,393.5,356.0,0.7,2.9,13.64,38.79,689.6365,139.9989],
    [6928,1525545093,57.3734,-111.8754,735.1,396.1,349.0,2.1,3.5,13.96,38.33,689.2942,139.998],
    [6929,1525545094,57.3741,-111.8757,738.1,398.0,342.7,2.4,2.5,13.88,38.53,688.8242,139.9991],
    [6930,1525545095,57.3747,-111.876,742.2,401.2,336.3,2.8,2.3,13.53,39.37,688.6463,139.9986],
    [6931,1525545096,57.3752,-111.8765,746.2,404.3,330.4,2.9,3.2,13.35,39.67,688.244,139.9945],
    [6932,1525545097,57.3758,-111.877,750.1,407.1,325.0,2.2,3.2,13.6,38.9,688.2234,139.9987],
    [6933,1525545098,57.3763,-111.8777,754.1,410.1,319.9,2.0,3.2,13.22,39.16,688.2936,140.0023],
    [6934,1525545099,57.3767,-111.8783,758.1,413.3,314.3,3.6,2.4,12.88,39.31,688.3908,140.0039],
    [6935,1525545100,57.3771,-111.8791,762.3,416.3,309.5,4.0,2.7,13.12,39.03,688.4937,140.0075],
    [6936,1525545101,57.3775,-111.8799,766.3,419.1,306.1,3.6,2.1,13.23,39.93,688.4936,140.0006],
    [6937,1525545102,57.3779,-111.8808,768.3,419.2,302.9,3.1,2.3,13.1,39.36,688.3867,139.9967],
    [6938,1525545103,57.3782,-111.8816,768.2,418.9,299.6,2.6,2.2,13.35,39.77,688.2975,139.9982],
    [6939,1525545104,57.3785,-111.8826,766.7,415.7,294.4,3.0,2.6,13.07,39.38,688.3387,139.9898],
    [6940,1525545105,57.3787,-111.8835,765.4,413.4,289.1,3.3,2.9,13.41,39.24,688.4143,140.0034],
    [6941,1525545106,57.3789,-111.8846,765.4,413.4,284.4,1.9,2.6,13.35,39.43,688.4291,140.0032],
    [6942,1525545107,57.3791,-111.8856,766.5,413.5,280.0,2.7,2.7,12.8,39.67,688.5529,139.9991],
    [6943,1525545108,57.3792,-111.8867,767.2,414.2,275.8,3.9,3.1,13.14,39.82,688.5873,140.0084],
    [6944,1525545109,57.3793,-111.8877,767.1,414.1,272.7,3.8,2.8,13.72,39.65,688.6875,139.9896],
    [6945,1525545110,57.3793,-111.8887,766.6,413.6,269.9,3.6,2.7,13.46,39.61,688.7527,139.9998],
    [6946,1525545111,57.3793,-111.8899,765.7,412.7,266.1,3.7,3.8,13.19,40.43,688.8988,139.9985],
    [6947,1525545112,57.3793,-111.8909,764.6,411.6,264.5,3.9,3.3,13.18,40.68,689.3077,140.0011],
    [6948,1525545113,57.3793,-111.892,763.4,410.4,262.5,3.3,4.2,13.12,40.23,689.3818,139.9975],
    [6949,1525545114,57.3792,-111.893,762.7,409.7,261.8,3.9,4.5,12.66,40.44,689.5277,140.0083],
    [6950,1525545115,57.3792,-111.8941,762.2,407.9,263.6,3.3,3.0,12.62,40.18,689.5156,139.9982],
    [6951,1525545116,57.3791,-111.8952,760.5,403.8,263.6,3.3,3.2,13.15,39.86,689.5311,139.9963],
    [6952,1525545117,57.3791,-111.8963,757.6,398.6,265.2,3.6,1.7,13.07,40.4,689.6193,139.9967],
    [6953,1525545118,57.379,-111.8974,754.9,393.9,265.5,3.5,2.0,13.15,40.56,689.6503,139.9983],
    [6954,1525545119,57.379,-111.8985,753.1,390.2,265.4,4.1,2.5,13.38,39.97,689.8198,140.0051],
    [6955,1525545120,57.379,-111.8996,752.3,387.3,266.2,3.0,2.2,13.06,40.92,689.8154,140.0062],
    [6956,1525545121,57.379,-111.9007,752.0,386.0,266.3,3.8,2.4,12.91,40.62,689.6202,140.0022],
    [6957,1525545122,57.379,-111.9018,751.2,384.3,266.6,4.0,2.2,13.04,40.59,689.4622,140.0042],
    [6958,1525545123,57.3789,-111.9029,749.8,380.7,266.4,4.8,2.3,13.01,40.27,689.3671,140.0024],
    [6959,1525545124,57.3789,-111.9041,748.7,377.5,266.6,4.1,2.0,13.09,40.68,689.3248,140.0039],
    [6960,1525545125,57.3789,-111.9052,748.8,373.8,266.4,4.1,2.1,13.02,40.91,689.2895,140.0027],
    [6961,1525545126,57.3789,-111.9063,750.2,372.2,265.9,5.5,2.7,12.76,40.73,689.2492,139.9993],
    [6962,1525545127,57.3788,-111.9074,751.9,369.6,265.4,4.7,3.0,13.44,40.68,689.1179,139.9961],
    [6963,1525545128,57.3788,-111.9084,753.5,367.5,265.4,4.3,3.0,13.13,40.82,688.9433,140.001],
    [6964,1525545129,57.3788,-111.9096,754.4,364.4,265.3,3.9,3.0,12.85,41.11,688.7782,139.9981],
    [6965,1525545130,57.3788,-111.9107,754.5,361.5,265.4,4.3,2.9,13.26,41.05,688.5906,140.0065],
    [6966,1525545131,57.3787,-111.9118,755.0,361.1,265.5,4.3,2.5,12.48,41.27,688.346,140.0009],
    [6967,1525545132,57.3787,-111.9128,756.6,361.6,265.6,4.1,2.3,13.21,41.55,688.2755,139.9878],
    [6968,1525545133,57.3787,-111.9139,758.5,363.5,265.2,4.5,2.5,13.07,42.17,688.1964,140.0038],
    [6969,1525545134,57.3787,-111.915,760.2,366.2,266.1,3.7,1.2,13.04,41.74,688.1429,139.9976],
    [6970,1525545135,57.3786,-111.9161,761.9,367.9,266.6,2.5,0.9,13.0,41.75,688.1148,140.0003],
    [6971,1525545136,57.3786,-111.9171,764.6,370.6,264.4,2.0,3.5,13.04,42.14,688.0613,139.9998],
    [6972,1525545137,57.3786,-111.9182,766.6,372.6,265.9,3.2,1.8,13.04,41.88,687.9923,139.9988],
    [6973,1525545138,57.3785,-111.9193,767.2,372.5,267.8,3.2,0.5,12.96,41.98,687.9068,139.9941],
    [6974,1525545139,57.3785,-111.9204,768.0,373.0,266.8,3.1,1.9,12.84,41.82,687.9427,140.004],
    [6975,1525545140,57.3785,-111.9215,769.0,374.0,267.1,1.9,2.1,13.34,41.66,687.8288,139.9976],
    [6976,1525545141,57.3785,-111.9225,769.5,374.5,267.2,2.6,2.6,12.92,42.35,687.8729,139.999],
    [6977,1525545142,57.3785,-111.9236,770.1,374.1,266.9,2.3,2.8,13.26,41.79,688.0497,139.9996],
    [6978,1525545143,57.3785,-111.9247,770.7,374.7,267.7,2.0,1.5,13.33,42.17,688.2857,139.9964],
    [6979,1525545144,57.3785,-111.9258,771.1,375.0,267.4,2.8,1.3,12.67,42.3,688.3776,139.9988],
    [6980,1525545145,57.3785,-111.9269,771.1,374.1,266.2,2.4,1.9,12.91,43.03,688.4346,140.0027],
    [6981,1525545146,57.3784,-111.928,771.6,374.7,265.8,2.1,1.4,12.94,42.51,688.3764,139.9975],
    [6982,1525545147,57.3784,-111.929,769.7,371.7,266.6,2.1,0.3,12.92,42.52,688.4111,140.004],
    [6983,1525545148,57.3784,-111.9301,767.2,370.9,263.8,2.5,2.5,12.94,42.64,688.4448,140.014],
    [6984,1525545149,57.3783,-111.9312,765.1,373.1,263.1,2.1,2.2,13.02,43.18,688.3708,140.0028],
    [6985,1525545150,57.3782,-111.9323,764.4,375.2,262.2,1.4,2.1,12.9,42.65,688.3449,139.9942],
    [6986,1525545151,57.3782,-111.9335,765.1,376.1,262.4,1.9,-0.3,13.08,42.01,688.1093,139.9963],
    [6987,1525545152,57.3781,-111.9346,765.5,376.5,259.9,2.1,-0.7,12.77,42.52,688.079,140.0],
    [6988,1525545153,57.3779,-111.9356,765.4,382.7,253.8,1.2,0.3,13.34,42.24,687.8978,140.0036],
    [6989,1525545154,57.3777,-111.9367,765.7,387.1,245.8,0.8,0.5,12.89,42.61,687.8307,139.9997],
    [6990,1525545155,57.3775,-111.9377,766.3,388.3,239.5,1.1,0.3,13.09,42.27,687.8644,139.9945],
    [6991,1525545156,57.3771,-111.9386,766.9,387.9,232.1,4.1,1.8,12.47,42.49,687.7925,139.9999],
    [6992,1525545157,57.3767,-111.9394,768.1,386.8,226.3,4.8,-1.0,13.51,41.54,687.7397,139.9893],
    [6993,1525545158,57.3762,-111.9401,769.4,385.5,220.1,3.4,-0.9,13.03,42.17,687.7087,139.9939],
    [6994,1525545159,57.3757,-111.9408,770.8,382.0,209.6,1.0,2.4,13.32,40.67,687.8086,140.0046],
    [6995,1525545160,57.3752,-111.9412,771.8,376.4,204.0,1.9,0.9,13.15,40.93,687.9344,139.9936],
    [6996,1525545161,57.3746,-111.9416,772.7,372.6,198.4,2.5,0.9,12.77,40.97,687.9347,140.0024],
    [6997,1525545162,57.374,-111.9419,773.1,369.5,191.9,2.2,1.2,12.94,40.68,687.8852,140.0002],
    [6998,1525545163,57.3734,-111.942,772.8,366.8,186.3,0.9,1.2,13.39,40.52,688.0588,140.0004],
    [6999,1525545164,57.3728,-111.9421,771.7,364.7,181.0,-0.5,0.1,12.51,41.35,688.1925,139.9979],
    [7000,1525545165,57.3722,-111.9421,770.6,363.6,179.1,0.9,0.4,12.92,41.84,688.2008,140.0023],
    [7001,1525545166,57.3716,-111.942,770.2,363.2,176.9,1.9,0.2,12.9,42.03,688.1771,140.005],
    [7002,1525545167,57.371,-111.9419,770.3,364.4,176.5,3.8,-0.7,12.94,41.8,687.7715,139.9867],
    [7003,1525545168,57.3703,-111.9418,769.1,364.2,176.2,4.8,-0.6,13.12,41.08,687.5441,139.9936],
    [7004,1525545169,57.3697,-111.9416,767.7,363.7,176.7,5.8,0.0,12.93,41.6,687.1148,140.0096],
    [7005,1525545170,57.3691,-111.9414,766.9,364.6,175.9,4.8,0.4,12.9,42.12,687.1081,139.995],
    [7006,1525545171,57.3684,-111.9413,767.9,366.9,174.1,3.0,0.9,12.93,41.26,686.9445,140.0082],
    [7007,1525545172,57.3678,-111.9411,771.0,372.0,175.0,3.7,2.8,13.05,40.7,686.815,140.0051],
    [7008,1525545173,57.3672,-111.9409,774.7,378.7,176.1,4.2,3.3,12.76,40.79,686.7088,139.9947],
    [7009,1525545174,57.3665,-111.9408,778.7,384.6,176.2,3.7,1.6,12.78,40.69,686.5781,140.0144],
    [7010,1525545175,57.3659,-111.9406,780.3,387.0,176.9,4.6,0.9,13.11,41.04,686.7258,139.9882],
    [7011,1525545176,57.3653,-111.9405,781.4,388.4,176.5,4.1,0.0,12.99,40.68,686.7474,140.0045],
    [7012,1525545177,57.3647,-111.9404,783.6,389.6,176.8,4.5,-2.2,12.55,40.84,686.7865,139.991],
    [7013,1525545178,57.3641,-111.9402,784.6,390.0,178.9,5.7,-2.3,12.87,40.62,686.7486,139.9874],
    [7014,1525545179,57.3634,-111.9401,785.4,389.1,178.8,4.6,-1.8,12.98,40.69,686.6296,139.9833],
    [7015,1525545180,57.3628,-111.94,784.9,386.9,180.3,5.5,-1.5,12.81,40.61,686.536,140.0066],
    [7016,1525545181,57.3622,-111.94,784.1,385.8,180.8,4.5,0.6,13.06,40.56,686.4156,140.0041],
    [7017,1525545182,57.3615,-111.9399,783.9,384.9,181.1,3.8,0.6,13.11,41.05,686.2963,140.0016],
    [7018,1525545183,57.3609,-111.9399,784.1,384.7,182.5,4.0,2.2,12.9,40.51,686.0418,139.9914],
    [7019,1525545184,57.3603,-111.9399,784.7,384.7,182.6,3.1,3.9,13.23,40.4,685.9107,139.9946],
    [7020,1525545185,57.3597,-111.9399,785.7,385.7,184.5,3.9,3.5,13.2,40.47,685.8828,140.0015],
    [7021,1525545186,57.359,-111.9399,787.0,387.0,183.9,2.6,2.3,13.06,40.52,685.7443,140.0181],
    [7022,1525545187,57.3584,-111.94,788.4,388.4,184.3,2.9,1.8,13.45,40.17,685.8388,139.9866],
    [7023,1525545188,57.3578,-111.94,790.3,390.4,183.7,2.5,2.3,13.27,40.48,685.7511,139.9987],
    [7024,1525545189,57.3571,-111.9401,791.8,391.8,184.7,3.9,2.3,13.22,41.19,685.4627,140.0077],
    [7025,1525545190,57.3565,-111.9401,792.6,392.7,185.0,5.1,3.3,12.62,40.79,685.3148,139.9924],
    [7026,1525545191,57.3558,-111.9401,793.0,393.1,186.2,6.8,1.6,12.6,40.41,685.1744,139.9956],
    [7027,1525545192,57.3552,-111.9401,792.8,392.8,185.1,6.4,3.3,12.52,40.41,685.1158,139.9915],
    [7028,1525545193,57.3546,-111.9401,793.8,394.1,184.7,6.6,4.6,13.33,39.65,685.1783,140.0058],
    [7029,1525545194,57.3539,-111.9401,796.2,397.2,183.1,4.8,3.4,13.43,39.53,685.2773,139.9971],
    [7030,1525545195,57.3533,-111.9401,798.7,400.0,182.9,5.1,3.7,13.77,39.23,685.3887,140.0028],
    [7031,1525545196,57.3527,-111.9401,800.2,402.2,184.8,7.2,3.4,12.71,39.52,685.4399,139.9917],
    [7032,1525545197,57.352,-111.94,801.2,405.3,184.6,7.6,4.6,13.55,38.94,685.4893,140.0021],
    [7033,1525545198,57.3514,-111.94,801.5,408.0,186.5,10.1,3.8,13.25,39.22,685.5641,139.9952],
    [7034,1525545199,57.3507,-111.94,800.9,411.8,187.1,10.2,3.5,12.83,38.54,685.7503,140.0021],
    [7035,1525545200,57.3501,-111.94,800.2,412.3,185.9,7.9,1.9,13.46,38.26,685.9402,139.9967],
    [7036,1525545201,57.3495,-111.94,799.3,409.3,185.8,8.2,1.9,13.73,37.4,686.1021,140.0116],
    [7037,1525545202,57.3488,-111.94,798.1,406.1,184.6,6.0,2.4,12.86,38.16,686.2424,139.9974],
    [7038,1525545203,57.3482,-111.94,797.7,405.9,181.5,2.8,2.5,13.03,37.71,686.3491,140.0045],
    [7039,1525545204,57.3476,-111.9399,796.2,405.2,182.2,3.6,3.1,13.22,37.63,686.4343,139.9995],
    [7040,1525545205,57.347,-111.9399,793.9,402.9,180.8,2.1,2.4,13.37,37.74,686.4044,139.9955],
    [7041,1525545206,57.3463,-111.9399,791.7,400.7,180.4,2.1,2.8,13.07,37.94,686.4044,139.9971],
    [7042,1525545207,57.3456,-111.9399,789.9,398.7,182.1,4.7,2.3,13.28,38.25,686.4888,139.997],
    [7043,1525545208,57.345,-111.9398,788.8,397.8,183.0,5.7,2.0,13.4,38.97,686.7657,140.0107],
    [7044,1525545209,57.3444,-111.9398,788.1,397.9,182.8,5.6,1.9,13.31,38.92,686.894,139.9982],
    [7045,1525545210,57.3437,-111.9398,787.2,398.2,183.1,5.8,3.0,12.94,38.37,686.98,140.0053],
    [7046,1525545211,57.3431,-111.9398,787.0,399.6,182.9,5.4,2.9,12.93,38.5,687.1091,140.0022],
    [7047,1525545212,57.3424,-111.9397,786.4,403.2,184.1,6.3,1.8,13.5,38.18,687.3106,140.0002],
    [7048,1525545213,57.3417,-111.9397,784.5,401.6,183.5,5.5,1.3,13.56,38.21,687.4769,140.0113],
    [7049,1525545214,57.3411,-111.9397,782.7,398.7,183.7,5.9,1.0,13.38,38.35,687.5521,140.0056],
    [7050,1525545215,57.3405,-111.9397,781.1,393.1,184.4,6.3,0.1,12.97,38.24,687.4359,139.9939],
    [7051,1525545216,57.3398,-111.9397,779.6,389.9,183.4,4.9,0.6,13.29,38.64,687.2857,139.9925],
    [7052,1525545217,57.3391,-111.9397,777.7,387.8,184.7,6.3,1.4,13.42,37.9,687.0827,139.9957],
    [7053,1525545218,57.3385,-111.9397,776.0,385.0,185.5,6.5,0.7,13.28,38.27,686.9981,140.0031],
    [7054,1525545219,57.3378,-111.9397,774.4,383.4,185.1,5.5,0.6,13.7,37.03,686.9487,139.9881],
    [7055,1525545220,57.3372,-111.9397,774.6,384.6,185.1,5.0,1.2,13.5,36.97,686.9368,140.0136],
    [7056,1525545221,57.3365,-111.9397,776.3,387.2,184.0,4.0,3.8,13.3,37.66,686.9673,139.9993],
    [7057,1525545222,57.336,-111.9398,777.9,389.1,185.3,6.0,4.3,13.85,37.31,687.0004,140.004],
    [7058,1525545223,57.3353,-111.9398,780.3,392.3,185.3,6.0,2.1,13.49,37.16,687.0537,140.0048],
    [7059,1525545224,57.3346,-111.9398,781.2,394.3,185.3,6.2,2.4,13.5,37.12,687.1122,140.0045],
    [7060,1525545225,57.334,-111.9398,781.5,394.5,185.1,5.7,2.5,13.55,37.23,687.1687,139.9961],
    [7061,1525545226,57.3334,-111.9398,781.3,394.2,185.1,5.6,1.5,13.33,37.59,687.1133,139.997],
    [7062,1525545227,57.3328,-111.9398,781.3,395.2,185.3,5.1,2.3,13.74,37.06,687.3698,140.003],
    [7063,1525545228,57.3321,-111.9399,780.9,395.9,183.3,2.7,2.5,12.95,37.4,687.5304,139.9831],
    [7064,1525545229,57.3315,-111.9399,780.3,395.7,185.0,4.8,1.6,13.35,37.78,687.5473,140.0141],
    [7065,1525545230,57.3309,-111.9399,779.1,395.1,187.4,7.5,1.1,13.49,38.17,687.6558,140.0122],
    [7066,1525545231,57.3303,-111.9399,778.4,395.4,187.1,6.1,1.3,12.79,37.94,687.8163,139.994],
    [7067,1525545232,57.3296,-111.94,777.0,394.7,183.0,2.9,2.6,13.19,37.95,687.9049,140.0089],
    [7068,1525545233,57.3291,-111.94,775.2,393.2,185.5,6.7,1.1,13.35,37.82,688.1207,140.0048],
    [7069,1525545234,57.3285,-111.94,773.9,392.7,184.4,5.3,4.2,13.04,38.11,688.3793,139.9994],
    [7070,1525545235,57.3279,-111.94,773.2,392.2,180.7,1.1,3.8,13.52,38.17,688.477,140.0162],
    [7071,1525545236,57.3272,-111.94,772.3,391.8,183.9,5.3,1.4,13.63,37.2,688.5766,139.9863],
    [7072,1525545237,57.3266,-111.94,770.5,390.5,184.7,5.3,2.2,13.91,37.08,688.897,140.0067],
    [7073,1525545238,57.326,-111.94,768.4,388.4,182.1,2.9,3.0,13.75,37.12,688.897,140.0067],
    [7074,1525545239,57.3254,-111.94,765.9,386.9,185.4,6.8,1.2,13.34,37.03,688.5885,139.9861],
    [7075,1525545240,57.3248,-111.94,763.9,384.9,185.6,6.7,1.1,13.16,36.83,688.5505,139.9977],
    [7076,1525545241,57.3242,-111.94,762.0,384.2,185.9,7.0,1.3,13.53,36.49,688.5285,139.9908],
    [7077,1525545242,57.3236,-111.94,759.4,381.4,188.2,9.3,2.9,13.84,36.43,688.616,139.9986],
    [7078,1525545243,57.323,-111.94,758.8,380.7,187.4,8.1,2.8,13.34,36.86,688.7535,140.0068],
    [7079,1525545244,57.3225,-111.94,760.6,383.7,185.5,5.8,2.4,13.46,37.32,688.8271,140.0111],
    [7080,1525545245,57.3219,-111.94,762.7,386.8,183.8,3.6,4.9,13.45,37.18,689.1666,140.0001],
    [7081,1525545246,57.3213,-111.94,763.1,387.4,182.9,3.0,4.5,13.53,36.94,689.2936,140.0022],
    [7082,1525545247,57.3207,-111.94,762.7,387.6,184.2,5.4,4.7,13.5,37.97,690.0316,139.9886],
    [7083,1525545248,57.3201,-111.94,762.1,388.1,181.8,3.6,4.2,13.65,37.96,690.7287,139.9984],
    [7084,1525545249,57.3196,-111.9399,760.6,386.5,177.9,1.8,4.0,13.42,38.06,691.1199,140.0119],
    [7085,1525545250,57.319,-111.9399,757.1,383.8,177.9,4.1,3.9,13.66,38.62,691.5706,140.006],
    [7086,1525545251,57.3184,-111.9397,752.2,379.1,175.4,4.1,4.7,13.0,39.14,692.0471,139.9954],
    [7087,1525545252,57.3179,-111.9396,747.3,375.3,170.8,2.8,6.5,13.42,39.63,692.2905,139.994],
    [7088,1525545253,57.3173,-111.9392,740.7,370.6,167.8,4.4,7.4,13.74,39.48,692.7562,139.9977],
    [7089,1525545254,57.3168,-111.9389,734.4,365.4,163.2,4.0,6.4,12.94,39.83,693.1113,139.9944],
    [7090,1525545255,57.3163,-111.9384,728.6,361.7,156.6,3.3,4.0,13.13,40.41,693.6632,139.9994],
    [7091,1525545256,57.3157,-111.9379,724.0,358.0,151.8,3.1,3.3,13.33,40.84,694.0915,140.007],
    [7092,1525545257,57.3153,-111.9373,719.7,353.8,148.2,2.0,3.9,13.65,40.48,694.3873,140.0048],
    [7093,1525545258,57.3148,-111.9366,713.9,348.9,143.9,1.3,4.6,13.33,40.44,694.5478,139.9996],
    [7094,1525545259,57.3143,-111.9359,708.3,343.3,141.0,2.7,4.9,13.65,39.9,694.7502,140.0019],
    [7095,1525545260,57.3139,-111.9351,702.8,337.8,136.1,1.1,4.6,13.37,40.44,695.0844,139.9982],
    [7096,1525545261,57.3135,-111.9342,697.2,333.2,131.7,0.5,5.0,13.4,40.75,695.2464,139.9966],
    [7097,1525545262,57.3131,-111.9333,693.6,329.6,128.6,1.4,6.1,13.33,40.38,695.5757,140.0009],
    [7098,1525545263,57.3128,-111.9324,691.2,327.2,125.2,1.6,5.9,13.71,40.0,695.7901,140.002],
    [7099,1525545264,57.3125,-111.9313,688.6,324.5,121.1,0.8,5.3,13.4,40.95,696.1552,139.9985],
    [7100,1525545265,57.3122,-111.9303,685.4,322.4,117.8,1.2,5.0,13.57,40.84,696.5761,139.9922],
    [7101,1525545266,57.312,-111.9291,682.4,320.4,115.3,1.4,5.7,13.61,40.2,696.7567,139.9979],
    [7102,1525545267,57.3118,-111.9281,679.7,318.7,113.0,1.1,5.5,14.0,40.09,697.1506,140.0061],
    [7103,1525545268,57.3116,-111.927,676.0,316.0,109.3,1.6,4.2,13.46,40.32,697.2395,140.0063],
    [7104,1525545269,57.3114,-111.9258,670.7,311.7,106.7,0.9,3.9,13.66,40.58,697.2734,140.0102],
    [7105,1525545270,57.3113,-111.9246,665.4,307.4,103.5,-1.6,4.5,14.05,39.72,697.2466,140.0035],
    [7106,1525545271,57.3112,-111.9234,661.7,304.7,101.3,-1.0,4.8,13.25,40.13,697.3611,140.0066],
    [7107,1525545272,57.3111,-111.9222,658.7,302.7,98.7,-0.8,4.9,13.67,39.98,697.3791,140.0042],
    [7108,1525545273,57.3111,-111.921,656.9,301.9,96.3,-1.1,4.8,13.49,40.1,697.3477,140.0023],
    [7109,1525545274,57.3111,-111.9199,656.8,302.8,94.5,-0.1,4.6,13.92,39.45,697.394,140.0071],
    [7110,1525545275,57.3111,-111.9186,656.6,303.6,93.5,-0.7,5.4,14.22,39.6,697.4078,140.0024],
    [7111,1525545276,57.3111,-111.9174,655.8,303.8,92.8,0.2,5.7,13.41,39.55,697.4415,139.9999],
    [7112,1525545277,57.3111,-111.9162,655.1,304.1,91.1,0.0,4.9,13.95,39.27,697.5629,140.0065],
    [7113,1525545278,57.3111,-111.9151,655.3,304.3,89.7,0.2,4.4,13.56,39.65,697.666,140.0011],
    [7114,1525545279,57.3112,-111.9138,655.8,305.8,88.5,0.9,3.5,13.85,39.71,697.7543,140.0019],
    [7115,1525545280,57.3112,-111.9126,655.6,306.7,88.1,1.4,3.1,13.79,39.4,697.8362,140.004],
    [7116,1525545281,57.3113,-111.9114,655.1,306.1,88.7,1.1,3.4,14.08,38.6,698.0134,139.9994],
    [7117,1525545282,57.3113,-111.9102,654.5,306.5,88.2,2.9,2.7,13.27,39.13,698.2175,139.999],
    [7118,1525545283,57.3114,-111.909,653.7,305.7,87.7,2.8,2.3,13.34,39.11,698.2749,140.0048],
    [7119,1525545284,57.3114,-111.9078,652.6,305.6,88.2,3.2,3.3,13.43,39.61,698.3985,140.0028],
    [7120,1525545285,57.3115,-111.9066,651.2,304.2,87.7,3.3,3.1,13.71,39.32,698.4537,140.0021],
    [7121,1525545286,57.3115,-111.9055,649.3,303.3,87.5,3.6,3.3,13.75,39.27,698.4458,139.9985],
    [7122,1525545287,57.3116,-111.9042,647.4,301.4,88.0,2.7,4.5,13.67,39.05,698.2228,139.9961],
    [7123,1525545288,57.3117,-111.9031,646.2,300.2,86.6,3.2,4.7,13.11,39.12,698.061,140.0028],
    [7124,1525545289,57.3117,-111.902,644.9,299.9,83.6,3.3,3.9,13.4,38.95,697.8143,139.9954],
    [7125,1525545290,57.3119,-111.9007,644.0,299.0,78.7,3.0,3.3,13.63,38.84,697.6159,140.0003],
    [7126,1525545291,57.3121,-111.8996,644.3,300.3,74.7,2.7,4.0,13.67,38.75,697.5423,139.9986],
    [7127,1525545292,57.3123,-111.8984,645.5,301.8,69.8,1.3,3.8,13.68,38.62,697.4634,139.9898],
    [7128,1525545293,57.3126,-111.8973,647.4,304.4,64.8,1.0,3.6,13.87,38.95,697.3786,139.9998],
    [7129,1525545294,57.3129,-111.8963,650.3,308.3,60.2,1.3,4.7,13.91,38.72,697.7263,140.0028],
    [7130,1525545295,57.3132,-111.8954,653.1,312.1,55.5,1.4,4.2,13.9,39.24,697.9582,140.0022],
    [7131,1525545296,57.3136,-111.8944,654.8,314.8,50.3,1.9,3.1,13.49,38.58,697.9897,139.9893],
    [7132,1525545297,57.3141,-111.8936,655.8,315.8,45.6,1.0,2.4,14.04,38.13,698.2414,139.9942],
    [7133,1525545298,57.3145,-111.8928,656.1,316.1,41.6,1.4,3.1,13.92,38.92,698.6617,139.9999],
    [7134,1525545299,57.315,-111.8921,654.3,314.0,36.1,3.0,2.5,14.39,38.24,698.9077,140.0104],
    [7135,1525545300,57.3156,-111.8914,651.4,311.4,30.1,3.9,1.5,14.04,37.8,699.1066,140.0009],
    [7136,1525545301,57.3161,-111.8908,649.5,310.2,25.8,3.3,1.4,13.73,37.92,699.5402,140.0001],
    [7137,1525545302,57.3167,-111.8903,647.1,308.4,22.3,3.4,-0.7,14.58,37.37,699.8432,140.0048],
    [7138,1525545303,57.3172,-111.8899,643.5,305.5,19.6,3.9,-0.2,14.02,37.5,700.1403,139.999],
    [7139,1525545304,57.3178,-111.8894,639.1,300.1,16.9,5.4,1.5,14.52,37.12,700.4052,139.9934],
    [7140,1525545305,57.3184,-111.889,636.0,297.0,14.1,6.1,1.2,13.87,37.48,700.6685,140.0079],
    [7141,1525545306,57.319,-111.8887,632.5,292.4,15.4,3.4,2.4,13.71,37.72,700.7244,139.9991],
    [7142,1525545307,57.3196,-111.8883,628.6,289.7,13.7,3.9,2.5,13.85,37.94,700.7066,139.9999],
    [7143,1525545308,57.3203,-111.888,624.7,286.7,12.8,2.8,2.7,14.15,37.86,700.8011,140.0027],
    [7144,1525545309,57.3209,-111.8877,620.7,282.6,13.6,0.2,1.8,14.15,37.37,700.9047,139.9982],
    [7145,1525545310,57.3216,-111.8874,617.7,280.7,11.9,0.8,1.7,14.11,37.52,700.9519,139.9985],
    [7146,1525545311,57.3222,-111.8872,616.2,280.2,10.7,1.0,1.8,14.6,36.98,700.9167,140.009],
    [7147,1525545312,57.3229,-111.8869,616.1,281.1,9.9,1.0,1.6,14.54,37.14,700.718,140.0062],
    [7148,1525545313,57.3235,-111.8867,615.4,281.5,7.8,2.6,1.3,14.06,38.27,700.2363,139.998],
    [7149,1525545314,57.3242,-111.8865,614.3,280.3,7.6,1.8,1.1,13.67,37.51,699.9489,140.0018],
    [7150,1525545315,57.3248,-111.8864,613.5,279.5,7.7,0.9,1.3,13.76,37.51,699.55,140.0011],
    [7151,1525545316,57.3255,-111.8862,613.4,279.4,7.9,0.5,2.1,14.57,36.82,699.3836,139.9971],
    [7152,1525545317,57.3261,-111.886,616.3,282.3,7.2,0.8,2.1,14.05,37.65,699.1382,139.9983],
    [7153,1525545318,57.3268,-111.8859,620.3,285.3,6.6,1.1,1.8,14.03,37.41,699.1495,139.9992],
    [7154,1525545319,57.3274,-111.8857,624.2,288.2,5.6,2.0,1.2,13.76,37.74,699.2698,140.0091],
    [7155,1525545320,57.328,-111.8856,628.8,291.8,3.9,3.6,1.6,14.11,37.36,699.4099,140.0019],
    [7156,1525545321,57.3287,-111.8854,633.4,295.4,362.1,4.9,0.7,14.22,37.47,699.5517,139.9973],
    [7157,1525545322,57.3293,-111.8853,635.8,297.5,361.6,5.3,0.6,13.76,37.74,699.5956,139.993],
    [7158,1525545323,57.3299,-111.8852,636.1,298.1,361.3,5.6,1.1,13.93,37.43,699.572,139.9907],
    [7159,1525545324,57.3305,-111.8851,634.9,296.9,361.1,5.8,1.4,14.09,37.46,699.5774,139.9937],
    [7160,1525545325,57.3311,-111.885,633.1,295.1,3.2,4.2,1.7,14.15,38.17,699.5885,140.0056],
    [7161,1525545326,57.3318,-111.8848,631.2,292.2,4.8,3.4,0.9,13.89,37.53,699.6271,140.0144],
    [7162,1525545327,57.3324,-111.8847,630.3,291.3,4.3,4.9,0.3,14.3,36.96,699.597,139.9895],
    [7163,1525545328,57.333,-111.8845,630.1,291.1,4.3,4.9,-0.9,14.17,37.67,699.6061,140.002],
    [7164,1525545329,57.3336,-111.8843,630.1,291.1,5.9,3.3,-1.1,14.42,37.2,699.5368,139.9996],
    [7165,1525545330,57.334,-111.8842,630.3,291.3,5.7,3.6,-0.9,14.54,37.26,699.5676,139.9942],
    [7166,1525545331,57.3347,-111.884,630.9,291.9,4.6,5.0,1.7,13.97,37.52,699.6438,140.0024],
    [7167,1525545332,57.3353,-111.8838,631.1,292.1,4.9,3.8,2.3,14.04,37.58,699.6618,140.0055],
    [7168,1525545333,57.336,-111.8837,631.3,293.3,6.3,2.1,4.4,13.76,37.6,699.9779,140.006],
    [7169,1525545334,57.3366,-111.8835,631.1,293.1,362.5,5.2,2.8,14.7,37.22,700.0868,140.0042],
    [7170,1525545335,57.3372,-111.8834,631.4,292.4,362.3,4.5,2.3,14.28,38.2,700.1544,139.9996],
    [7171,1525545336,57.3378,-111.8833,631.1,292.1,4.0,3.1,3.1,14.41,37.52,700.1846,139.9985],
    [7172,1525545337,57.3385,-111.8832,629.9,290.9,361.9,5.5,3.8,14.19,37.85,700.1338,140.0052],
    [7173,1525545338,57.3391,-111.883,628.1,289.1,3.0,4.6,4.4,14.02,38.01,700.0765,139.9965],
    [7174,1525545339,57.3397,-111.8829,626.1,288.1,3.8,4.3,4.5,14.28,38.42,699.9791,140.0001],
    [7175,1525545340,57.3404,-111.8827,625.3,288.3,3.4,4.5,4.4,14.05,38.19,699.9872,140.0011],
    [7176,1525545341,57.341,-111.8826,624.3,288.0,3.9,3.8,4.2,13.71,38.41,699.8676,139.9948],
    [7177,1525545342,57.3416,-111.8825,624.2,288.6,4.0,2.9,2.7,14.17,38.07,699.8528,139.9988],
    [7178,1525545343,57.3422,-111.8824,625.1,289.6,5.8,0.9,3.9,14.21,38.2,699.7358,140.0077],
    [7179,1525545344,57.3428,-111.8822,625.8,289.8,5.7,1.8,2.5,14.02,38.23,699.75,139.9972],
    [7180,1525545345,57.3435,-111.8821,626.2,289.2,4.0,4.0,2.4,14.22,38.51,699.7809,139.9959],
    [7181,1525545346,57.3441,-111.8819,627.1,289.9,5.4,2.7,2.3,14.04,38.27,699.7756,140.0003],
    [7182,1525545347,57.3447,-111.8818,628.0,289.1,6.5,1.7,2.9,14.52,37.85,699.731,139.9976],
    [7183,1525545348,57.3453,-111.8816,628.6,290.6,5.1,3.2,3.7,13.78,38.64,699.7035,139.9985],
    [7184,1525545349,57.346,-111.8815,628.7,290.7,5.7,2.5,2.3,14.21,39.05,699.5138,139.9998],
    [7185,1525545350,57.3466,-111.8813,628.7,290.7,6.6,2.1,4.1,14.86,38.36,699.4744,140.0032],
    [7186,1525545351,57.3472,-111.8812,628.4,290.4,5.8,2.9,2.8,14.03,38.87,699.3172,140.0043],
    [7187,1525545352,57.3479,-111.881,629.1,290.0,5.6,3.0,3.5,14.56,38.43,699.2416,139.9977],
    [7188,1525545353,57.3485,-111.8808,630.1,291.1,5.6,2.9,4.0,14.23,39.48,699.3871,140.0005],
    [7189,1525545354,57.3491,-111.8807,631.2,291.9,5.2,3.0,3.4,14.2,38.56,699.4049,139.9991],
    [7190,1525545355,57.3497,-111.8805,632.4,293.4,5.0,2.9,3.4,14.76,38.22,699.3049,139.9947],
    [7191,1525545356,57.3503,-111.8804,633.9,294.9,4.6,2.7,4.7,14.75,38.6,699.1124,139.9978],
    [7192,1525545357,57.351,-111.8803,634.3,295.4,5.8,0.7,4.6,14.21,39.48,699.0922,139.999],
    [7193,1525545358,57.3516,-111.8802,633.5,295.5,5.5,0.6,4.2,14.2,39.69,699.0778,139.9953],
    [7194,1525545359,57.3522,-111.88,633.1,296.2,4.0,1.5,4.2,14.56,38.7,699.1874,140.0055],
    [7195,1525545360,57.3529,-111.8799,633.7,296.7,3.1,1.9,3.5,14.1,39.27,699.2606,139.9969],
    [7196,1525545361,57.3535,-111.8799,635.3,298.3,3.0,1.7,3.6,13.73,39.36,699.5132,140.0045],
    [7197,1525545362,57.3541,-111.8798,636.3,299.3,4.0,1.3,4.3,14.32,39.13,699.7211,139.9954],
    [7198,1525545363,57.3548,-111.8797,636.4,299.4,4.6,1.9,3.9,14.15,39.02,699.7622,139.9972],
    [7199,1525545364,57.3554,-111.8795,635.8,298.8,4.6,3.5,4.3,14.81,38.86,699.6763,140.0056],
    [7200,1525545365,57.356,-111.8794,634.1,296.1,5.8,3.8,4.0,13.96,39.82,699.5556,139.9994],
    [7201,1525545366,57.3567,-111.8792,631.5,293.0,7.4,3.4,4.3,14.3,38.97,699.5427,140.0002],
    [7202,1525545367,57.3573,-111.879,629.3,290.3,8.4,2.5,3.4,13.93,39.56,699.3158,139.9976],
    [7203,1525545368,57.3579,-111.8788,628.2,288.2,11.2,-0.2,4.2,13.87,38.63,699.2883,139.9962],
    [7204,1525545369,57.3586,-111.8785,628.5,288.5,9.8,1.1,3.6,14.15,38.97,699.2085,140.0],
    [7205,1525545370,57.3592,-111.8783,629.7,290.7,8.3,1.6,3.6,14.14,38.85,699.1642,140.0005],
    [7206,1525545371,57.3598,-111.8782,630.8,292.2,8.5,0.7,3.8,13.88,38.57,699.1224,139.9954],
    [7207,1525545372,57.3605,-111.878,632.4,294.4,6.9,1.4,2.6,14.15,39.11,699.0327,140.0036],
    [7208,1525545373,57.3611,-111.8778,633.9,295.9,7.2,0.3,3.6,13.96,38.56,698.8204,139.9953],
    [7209,1525545374,57.3617,-111.8777,634.6,296.6,6.0,1.8,4.1,13.74,38.68,698.7436,140.0005],
    [7210,1525545375,57.3624,-111.8775,634.9,295.9,3.3,4.2,2.2,14.01,39.13,698.5967,140.0009],
    [7211,1525545376,57.363,-111.8774,635.9,296.9,6.3,1.2,3.1,14.36,38.39,698.4526,140.0017],
    [7212,1525545377,57.3637,-111.8773,637.4,297.4,7.8,0.5,4.1,14.23,38.53,698.3046,140.0009],
    [7213,1525545378,57.3643,-111.8771,638.9,298.9,6.6,1.7,2.5,14.38,38.21,698.2518,139.9975],
    [7214,1525545379,57.3649,-111.8769,640.3,300.9,6.9,1.3,2.4,14.68,38.05,698.1698,139.9998],
    [7215,1525545380,57.3656,-111.8768,642.3,303.3,7.0,1.3,3.3,14.14,39.16,698.0629,139.9968],
    [7216,1525545381,57.3662,-111.8766,644.3,305.3,6.6,1.6,2.8,13.89,38.65,697.9381,139.9998],
    [7217,1525545382,57.3668,-111.8765,646.0,307.0,7.6,0.7,3.1,13.66,38.78,697.897,140.0016],
    [7218,1525545383,57.3674,-111.8763,647.1,308.1,8.3,0.4,3.5,14.62,38.52,697.7153,139.9982],
    [7219,1525545384,57.368,-111.8762,647.7,308.7,6.9,2.1,2.1,13.79,39.06,697.6611,140.007],
    [7220,1525545385,57.3687,-111.876,649.0,311.0,5.9,2.6,1.7,14.06,39.31,697.5561,140.0067],
    [7221,1525545386,57.3693,-111.8758,650.1,311.4,7.2,0.9,1.7,14.56,38.54,697.3836,139.9986],
    [7222,1525545387,57.3699,-111.8757,651.2,312.2,7.0,0.4,1.6,14.79,38.43,697.1179,139.9955],
    [7223,1525545388,57.3705,-111.8755,652.6,313.6,6.7,-1.2,2.1,13.92,38.78,696.899,139.9995],
    [7224,1525545389,57.3712,-111.8754,654.0,315.0,3.5,-1.5,2.0,13.89,38.63,696.4372,139.9891],
    [7225,1525545390,57.3718,-111.8755,655.2,316.2,356.3,0.4,2.1,14.31,38.23,696.1749,139.9988],
    [7226,1525545391,57.3724,-111.8756,657.0,318.0,350.3,0.6,3.0,14.4,38.12,695.9338,140.004],
    [7227,1525545392,57.373,-111.8758,659.7,320.7,344.1,1.8,2.0,13.96,38.5,695.7461,140.0103],
    [7228,1525545393,57.3736,-111.8761,663.3,323.3,337.9,2.7,1.6,14.36,38.71,695.5151,140.0037],
    [7229,1525545394,57.3742,-111.8765,667.1,326.0,332.9,3.2,0.7,14.19,38.49,695.4239,140.0043],
    [7230,1525545395,57.3747,-111.877,670.7,328.7,327.3,5.2,-0.7,14.17,38.59,695.2759,139.9983],
    [7231,1525545396,57.3752,-111.8777,673.7,330.0,321.9,5.5,-1.1,14.44,38.13,695.3299,139.9985],
    [7232,1525545397,57.3757,-111.8783,676.5,332.6,316.4,4.8,0.6,14.05,39.09,695.5402,139.9975],
    [7233,1525545398,57.3761,-111.879,678.8,332.8,311.0,4.6,2.0,13.6,38.74,695.8691,140.0051],
    [7234,1525545399,57.3765,-111.8798,680.9,333.8,306.6,3.9,1.8,14.03,39.39,696.061,140.0126],
    [7235,1525545400,57.3768,-111.8806,682.4,334.2,302.8,2.9,1.4,13.89,38.97,696.1589,140.0098],
    [7236,1525545401,57.3771,-111.8815,682.7,333.4,299.2,2.5,1.5,13.67,38.81,696.2229,139.9964],
    [7237,1525545402,57.3774,-111.8824,681.2,331.2,294.8,2.2,2.4,14.24,39.03,696.2083,139.9961],
    [7238,1525545403,57.3776,-111.8833,678.0,327.0,291.3,2.3,2.0,13.83,39.17,696.1108,139.9977],
    [7239,1525545404,57.3778,-111.8843,674.1,323.1,287.2,2.2,2.3,13.66,39.16,696.0904,139.9977],
    [7240,1525545405,57.378,-111.8853,671.6,319.6,281.8,2.1,3.2,13.53,39.16,696.0839,140.0045],
    [7241,1525545406,57.3781,-111.8863,671.4,319.4,278.5,2.7,3.0,13.95,39.13,696.1294,140.0063],
    [7242,1525545407,57.3782,-111.8874,671.7,319.2,276.3,3.1,3.0,13.66,39.45,696.3188,139.9985],
    [7243,1525545408,57.3783,-111.8884,672.4,319.4,274.7,3.2,2.7,14.33,38.96,696.3886,139.9965],
    [7244,1525545409,57.3784,-111.8895,673.0,320.0,273.7,3.0,1.7,13.68,39.34,696.5551,139.993],
    [7245,1525545410,57.3784,-111.8905,673.1,320.1,271.3,3.8,2.8,13.78,40.22,696.7914,140.0084],
    [7246,1525545411,57.3785,-111.8916,672.3,319.3,268.4,3.3,3.8,13.87,39.81,696.986,140.0028],
    [7247,1525545412,57.3785,-111.8926,671.0,318.0,268.1,3.0,2.2,14.54,39.2,696.9984,140.0018],
    [7248,1525545413,57.3785,-111.8936,669.0,315.0,267.1,2.1,1.7,13.52,39.76,696.8392,139.9963],
    [7249,1525545414,57.3784,-111.8947,667.3,311.3,264.0,3.0,3.5,14.34,38.98,696.8636,139.9971],
    [7250,1525545415,57.3784,-111.8957,665.0,306.9,262.3,2.7,4.6,13.74,39.26,696.8167,140.0009],
    [7251,1525545416,57.3784,-111.8968,663.2,303.2,262.2,1.6,4.1,13.79,39.4,696.8638,139.9974],
    [7252,1525545417,57.3783,-111.8979,662.7,300.8,262.9,1.5,3.8,13.63,39.62,696.8919,140.0061],
    [7253,1525545418,57.3783,-111.8989,663.2,299.2,263.0,2.4,3.9,14.3,39.32,696.8706,140.0065],
    [7254,1525545419,57.3782,-111.9,663.6,298.6,264.6,3.4,2.7,13.98,39.12,696.6761,140.0046],
    [7255,1525545420,57.3782,-111.901,663.9,298.0,265.1,3.1,2.7,13.59,39.68,696.5682,140.0039],
    [7256,1525545421,57.3782,-111.9022,664.0,297.0,266.0,2.7,2.2,13.79,39.73,696.2357,139.9941],
    [7257,1525545422,57.3782,-111.9033,663.7,295.1,266.6,2.7,2.2,13.58,40.04,696.0864,139.9954],
    [7258,1525545423,57.3781,-111.9043,664.1,293.9,266.4,3.2,2.3,13.5,40.19,695.8466,139.9986],
    [7259,1525545424,57.3781,-111.9054,665.5,292.1,266.7,2.9,1.8,13.81,40.28,695.8518,139.9969],
    [7260,1525545425,57.3781,-111.9065,667.5,290.4,265.3,2.5,2.7,13.55,39.8,695.7565,139.9928],
    [7261,1525545426,57.3781,-111.9075,670.1,290.0,265.2,2.9,2.1,13.71,40.28,695.6341,140.0043],
    [7262,1525545427,57.378,-111.9086,673.1,290.1,264.9,2.2,2.4,14.07,39.72,695.3457,139.9936],
    [7263,1525545428,57.378,-111.9096,675.3,288.3,262.9,1.6,4.5,13.65,39.78,694.9862,140.0006],
    [7264,1525545429,57.378,-111.9107,676.3,286.3,263.5,2.4,4.3,13.81,39.86,694.9442,139.9992],
    [7265,1525545430,57.378,-111.9118,677.2,285.2,266.0,2.4,2.5,13.64,40.03,694.8867,139.9973],
    [7266,1525545431,57.3779,-111.9127,678.6,285.6,266.8,2.0,3.0,13.84,40.03,694.7706,140.0036],
    [7267,1525545432,57.3779,-111.9139,681.5,287.5,266.6,2.1,3.6,13.71,40.07,694.6734,139.9951],
    [7268,1525545433,57.3779,-111.9149,684.5,290.5,267.6,2.9,2.7,13.45,40.0,694.463,140.0036],
    [7269,1525545434,57.3779,-111.916,686.1,292.1,265.7,2.5,3.8,13.98,40.51,694.4181,139.9974],
    [7270,1525545435,57.3779,-111.917,687.1,293.1,264.3,3.2,4.0,13.78,40.69,694.3309,140.0018],
    [7271,1525545436,57.3779,-111.918,688.1,294.1,263.4,2.4,3.8,13.83,40.23,694.1408,139.9931],
    [7272,1525545437,57.3779,-111.9191,690.2,296.2,263.6,3.4,3.0,13.79,40.69,694.109,140.0072],
    [7273,1525545438,57.3778,-111.9201,692.0,298.0,264.1,1.8,2.1,13.4,40.22,694.1615,140.0112],
    [7274,1525545439,57.3778,-111.9212,693.6,298.9,264.0,2.0,1.1,13.65,40.32,693.8538,139.9966],
    [7275,1525545440,57.3777,-111.9222,694.0,299.0,262.2,2.3,1.6,13.72,40.69,693.8867,140.0014],
    [7276,1525545441,57.3776,-111.9232,694.6,299.6,258.7,5.5,3.5,13.62,40.2,693.8383,140.0009],
    [7277,1525545442,57.3775,-111.9242,696.4,301.4,257.0,6.1,1.9,13.73,40.11,693.5646,139.9976],
    [7278,1525545443,57.3774,-111.9251,697.6,302.6,255.7,2.6,-1.2,13.55,40.14,693.5585,140.0035],
    [7279,1525545444,57.3772,-111.9261,699.3,304.0,249.0,2.8,1.9,14.36,39.6,693.5827,139.9977],
    [7280,1525545445,57.377,-111.9271,700.0,305.0,244.5,2.9,3.3,14.05,39.5,693.5014,140.0051],
    [7281,1525545446,57.3768,-111.928,700.7,306.0,242.4,2.8,2.0,13.56,39.72,693.4024,140.0053],
    [7282,1525545447,57.3765,-111.9289,702.5,308.9,239.5,2.8,2.0,13.55,40.2,693.2993,139.9907],
    [7283,1525545448,57.3762,-111.9297,703.4,313.5,235.9,2.4,3.0,13.82,40.44,693.3006,140.0011],
    [7284,1525545449,57.3759,-111.9306,703.6,319.7,233.6,3.6,2.3,14.23,39.74,693.3738,140.0134],
    [7285,1525545450,57.3756,-111.9313,704.1,324.3,231.0,3.2,1.0,13.83,39.73,693.291,140.0019],
    [7286,1525545451,57.3752,-111.9321,705.7,332.1,225.8,2.4,2.2,13.76,40.37,693.1561,139.9962],
    [7287,1525545452,57.3748,-111.9328,706.8,333.7,223.1,3.1,2.0,14.19,39.78,692.9942,139.9912],
    [7288,1525545453,57.3744,-111.9335,706.7,331.9,219.8,2.6,1.8,13.45,40.5,692.9921,140.0001],
    [7289,1525545454,57.374,-111.9341,705.9,327.9,215.4,2.0,2.5,13.45,40.57,693.0202,140.0064],
    [7290,1525545455,57.3735,-111.9346,706.7,322.0,211.8,1.2,1.8,13.64,39.97,692.9152,139.9949],
    [7291,1525545456,57.3731,-111.9351,708.6,319.7,208.5,1.1,2.2,13.57,40.44,693.0757,140.0017],
    [7292,1525545457,57.3725,-111.9356,710.2,314.4,206.9,2.1,2.3,13.28,40.55,693.1868,140.005],
    [7293,1525545458,57.372,-111.9361,710.6,312.7,205.8,2.7,1.3,13.71,40.48,693.1929,139.9976],
    [7294,1525545459,57.3716,-111.9364,710.6,310.5,204.7,3.0,1.0,14.17,40.02,693.1086,139.9906],
    [7295,1525545460,57.371,-111.9368,711.1,311.2,203.0,2.8,0.3,13.78,40.75,693.2455,139.9965],
    [7296,1525545461,57.3704,-111.9372,710.0,310.0,202.0,3.9,0.2,13.5,40.05,693.3423,139.994],
    [7297,1525545462,57.3699,-111.9375,708.5,307.6,200.2,4.6,-0.3,13.77,40.6,693.4937,139.9996],
    [7298,1525545463,57.3694,-111.9378,707.8,308.1,197.5,4.0,0.5,13.62,39.59,693.4552,139.9973],
    [7299,1525545464,57.3688,-111.938,707.6,308.6,194.3,2.4,0.5,13.81,39.54,693.4409,139.9968],
    [7300,1525545465,57.3682,-111.9383,706.9,308.9,192.2,1.5,2.2,13.7,38.99,693.5449,140.0016],
    [7301,1525545466,57.3676,-111.9385,705.8,309.1,192.2,2.6,2.5,13.62,38.61,693.4597,140.0],
    [7302,1525545467,57.367,-111.9387,703.7,309.7,193.3,3.4,2.4,14.41,38.12,693.3885,140.0069],
    [7303,1525545468,57.3665,-111.9389,703.4,312.0,191.5,1.8,3.5,13.96,38.07,693.3896,140.0085],
    [7304,1525545469,57.3659,-111.9391,703.8,314.1,192.5,3.0,3.1,13.91,38.04,693.1509,140.0045],
    [7305,1525545470,57.3653,-111.9393,703.3,313.3,193.2,3.7,3.1,13.74,38.78,693.253,140.006],
    [7306,1525545471,57.3647,-111.9395,703.6,311.6,192.7,3.3,3.4,13.76,38.16,693.2963,139.9877],
    [7307,1525545472,57.3641,-111.9397,704.7,310.0,192.6,3.4,3.0,13.79,38.07,693.3441,139.9906],
    [7308,1525545473,57.3635,-111.9399,705.2,308.9,193.2,4.0,0.7,13.63,38.32,693.5749,139.9929],
    [7309,1525545474,57.363,-111.94,705.8,307.8,191.1,3.1,0.9,13.67,38.36,693.3355,140.0065],
    [7310,1525545475,57.3624,-111.9402,706.5,307.8,188.3,2.2,-0.3,13.82,38.44,693.3645,139.9928],
    [7311,1525545476,57.3619,-111.9403,705.5,306.5,187.6,3.8,-0.9,13.94,38.5,693.2787,139.9895],
    [7312,1525545477,57.3612,-111.9403,703.7,303.7,185.5,4.1,2.1,13.72,38.54,693.0803,139.9915],
    [7313,1525545478,57.3606,-111.9404,701.7,301.8,181.8,1.8,4.3,13.87,38.67,692.9104,139.9998],
    [7314,1525545479,57.36,-111.9404,700.4,299.4,180.6,1.3,3.6,13.82,38.68,692.412,139.9991],
    [7315,1525545480,57.3593,-111.9403,701.5,300.5,179.0,0.7,6.8,13.63,38.28,692.3132,140.0083],
    [7316,1525545481,57.3587,-111.9403,703.1,302.1,181.9,4.3,6.4,13.62,38.24,692.6262,139.9964],
    [7317,1525545482,57.3581,-111.9403,705.1,304.3,182.3,4.9,7.4,13.73,38.09,692.8044,140.004],
    [7318,1525545483,57.3575,-111.9402,708.6,308.7,182.9,5.3,5.8,13.56,38.11,692.9331,140.0013],
    [7319,1525545484,57.3569,-111.9402,712.2,312.2,183.0,4.7,4.0,14.32,37.37,692.9376,140.0056],
    [7320,1525545485,57.3564,-111.9402,714.0,314.1,183.1,4.8,4.0,14.07,37.11,693.0983,139.9953],
    [7321,1525545486,57.3557,-111.9402,712.4,312.4,185.3,6.6,3.5,13.65,37.37,693.1258,140.0054],
    [7322,1525545487,57.3551,-111.9402,710.7,310.8,185.4,6.3,2.4,14.5,36.78,692.8039,139.9998],
    [7323,1525545488,57.3545,-111.9402,709.1,309.4,185.8,6.8,2.7,14.11,36.31,692.8403,139.9925],
    [7324,1525545489,57.3539,-111.9402,708.1,309.2,186.0,7.3,2.9,14.37,35.69,693.0682,140.0017],
    [7325,1525545490,57.3533,-111.9402,706.8,308.1,186.6,8.7,3.6,14.05,36.5,693.1067,139.9957],
    [7326,1525545491,57.3527,-111.9402,707.0,309.1,188.2,10.1,2.6,14.16,35.43,693.0532,140.009],
    [7327,1525545492,57.3521,-111.9402,709.5,313.5,188.0,8.5,2.0,14.09,35.54,692.9827,140.0009],
    [7328,1525545493,57.3514,-111.9402,709.8,316.3,187.3,7.1,2.3,14.11,35.05,692.978,139.9928],
    [7329,1525545494,57.3508,-111.9403,707.8,317.2,186.6,7.0,3.9,13.69,35.1,692.994,140.0055],
    [7330,1525545495,57.3503,-111.9403,707.0,318.6,187.4,8.9,3.4,14.12,35.41,692.8941,139.9931],
    [7331,1525545496,57.3496,-111.9403,708.0,318.0,187.5,9.4,2.5,13.9,34.52,692.8347,139.991],
    [7332,1525545497,57.3491,-111.9403,709.1,318.1,187.7,9.6,1.0,13.97,34.5,693.0366,140.0102],
    [7333,1525545498,57.3485,-111.9403,709.3,318.1,188.1,10.2,2.4,14.4,33.67,693.128,140.0058],
    [7334,1525545499,57.3478,-111.9403,709.3,318.3,187.3,8.9,2.3,14.11,34.09,693.2203,140.0052],
    [7335,1525545500,57.3473,-111.9403,709.8,318.8,185.8,7.4,4.1,14.61,33.76,693.5482,139.9991],
    [7336,1525545501,57.3467,-111.9403,709.6,317.8,186.7,8.3,5.6,14.89,33.94,693.7587,139.9996],
    [7337,1525545502,57.3461,-111.9403,709.3,317.3,186.5,7.4,3.9,14.36,34.17,693.8656,139.9921],
    [7338,1525545503,57.3455,-111.9403,708.3,316.4,184.5,5.3,3.7,14.57,34.03,694.4857,140.0064],
    [7339,1525545504,57.3449,-111.9403,706.9,315.0,184.4,5.4,2.0,14.2,35.06,694.6547,139.999],
    [7340,1525545505,57.3443,-111.9403,704.4,313.7,184.6,5.5,1.0,14.41,35.79,695.2833,140.0054],
    [7341,1525545506,57.3437,-111.9403,701.8,312.8,185.2,6.3,0.6,14.21,35.61,695.4573,140.0027],
    [7342,1525545507,57.3431,-111.9403,698.5,311.3,186.6,8.1,0.5,14.68,35.9,695.9227,139.9983],
    [7343,1525545508,57.3425,-111.9403,693.9,309.2,186.5,8.2,0.4,14.02,36.04,696.1862,139.9945],
    [7344,1525545509,57.3419,-111.9402,689.5,306.5,184.1,6.5,0.4,13.92,36.32,696.5843,139.999],
    [7345,1525545510,57.3413,-111.9402,684.6,299.6,183.2,6.5,0.1,14.26,36.38,696.6717,139.9932],
    [7346,1525545511,57.3407,-111.9402,680.2,292.6,181.2,5.2,0.3,14.38,35.67,696.6233,140.001],
    [7347,1525545512,57.34,-111.9401,675.2,285.4,180.2,5.0,0.1,14.39,36.59,696.6095,140.0014],
    [7348,1525545513,57.3394,-111.94,671.3,280.3,181.1,6.2,-0.5,14.92,35.52,696.4056,139.9898],
    [7349,1525545514,57.3388,-111.9399,667.3,276.3,179.9,5.1,0.5,14.08,36.19,696.3555,140.0051],
    [7350,1525545515,57.3381,-111.9398,664.7,273.7,178.7,4.4,1.5,14.55,35.64,696.1818,140.0123],
    [7351,1525545516,57.3375,-111.9397,663.6,273.5,178.6,4.8,2.7,14.14,36.71,695.6757,140.0026],
    [7352,1525545517,57.3369,-111.9396,664.2,274.5,177.1,3.1,2.8,14.35,35.75,695.2782,139.9982],
    [7353,1525545518,57.3362,-111.9395,665.7,276.7,176.7,3.0,4.6,14.04,36.18,695.1676,139.9991],
    [7354,1525545519,57.3355,-111.9394,667.1,279.1,178.3,4.4,4.2,14.45,36.33,694.7905,139.9934],
    [7355,1525545520,57.3349,-111.9393,669.2,282.3,179.3,4.6,3.1,14.5,35.75,694.664,140.0027],
    [7356,1525545521,57.3343,-111.9392,673.9,286.9,180.1,4.0,3.4,14.14,36.4,694.3725,139.997],
    [7357,1525545522,57.3337,-111.9391,679.3,292.9,180.7,3.3,3.5,14.44,35.95,694.1663,140.0085],
    [7358,1525545523,57.3331,-111.9391,683.1,297.1,181.8,3.1,3.1,14.19,36.43,694.2195,140.0096],
    [7359,1525545524,57.3324,-111.9391,686.1,301.1,183.8,3.7,2.8,14.97,36.23,694.2309,140.0004],
    [7360,1525545525,57.3318,-111.9391,688.9,304.8,184.6,3.1,3.3,14.68,36.76,694.2716,139.9982],
    [7361,1525545526,57.3312,-111.9392,692.1,308.1,184.2,2.2,3.3,14.09,36.8,694.2684,140.0132],
    [7362,1525545527,57.3307,-111.9392,694.8,311.9,185.9,4.2,2.6,14.09,37.18,694.2004,140.0136],
    [7363,1525545528,57.3301,-111.9393,695.2,312.3,188.6,6.6,1.4,14.77,36.99,694.2782,139.9889],
    [7364,1525545529,57.3295,-111.9394,694.8,312.8,187.6,5.6,2.4,14.2,37.29,694.3516,139.9935],
    [7365,1525545530,57.3288,-111.9394,694.2,313.2,188.2,6.7,2.1,14.4,37.41,694.218,140.0127],
    [7366,1525545531,57.3282,-111.9395,693.7,312.7,189.4,8.2,1.2,13.93,37.25,694.4623,139.9913],
    [7367,1525545532,57.3277,-111.9395,693.5,312.5,187.4,6.4,2.6,14.2,37.6,694.5875,140.0051],
    [7368,1525545533,57.3271,-111.9395,692.5,312.5,185.7,5.9,4.2,13.93,37.44,694.7137,140.005],
    [7369,1525545534,57.3265,-111.9396,691.7,311.7,184.0,4.0,3.6,14.23,37.53,694.7806,139.9882],
    [7370,1525545535,57.3259,-111.9396,691.2,311.2,178.9,-1.4,4.3,14.4,38.01,694.7528,140.0041],
    [7371,1525545536,57.3253,-111.9396,690.5,311.5,180.2,1.2,4.0,14.33,37.65,694.8288,139.9934],
    [7372,1525545537,57.3248,-111.9395,689.5,310.5,181.9,3.0,2.3,13.78,37.66,694.9587,139.9896],
    [7373,1525545538,57.3241,-111.9395,687.7,309.7,179.1,0.8,3.1,14.23,37.92,695.0955,140.0005],
    [7374,1525545539,57.3235,-111.9395,686.5,308.5,181.1,3.5,4.3,14.39,38.57,695.2973,139.9979],
    [7375,1525545540,57.3229,-111.9395,686.5,309.5,180.1,2.4,4.7,13.83,38.06,695.4351,140.0017],
    [7376,1525545541,57.3223,-111.9394,685.8,309.6,180.3,3.2,4.5,14.33,38.84,695.6738,140.0032],
    [7377,1525545542,57.3216,-111.9394,684.1,309.0,181.0,3.8,5.6,14.27,38.31,695.8764,140.0062],
    [7378,1525545543,57.3211,-111.9393,681.9,308.0,179.1,1.4,5.9,14.18,38.45,696.4072,140.011],
    [7379,1525545544,57.3204,-111.9393,680.3,307.3,179.3,1.8,6.2,14.94,38.05,696.6717,140.0055],
    [7380,1525545545,57.3199,-111.9392,678.3,305.3,180.8,3.5,6.2,14.28,38.46,696.7871,140.0012],
    [7381,1525545546,57.3193,-111.9392,675.6,303.0,180.7,3.9,6.6,14.35,38.49,696.9974,140.0092],
    [7382,1525545547,57.3187,-111.9391,672.4,301.1,180.4,5.1,5.9,14.09,38.86,697.1946,139.9984],
    [7383,1525545548,57.3181,-111.939,668.3,297.2,176.7,3.4,4.9,13.66,38.74,697.4198,140.0025],
    [7384,1525545549,57.3175,-111.9389,664.8,295.9,171.8,1.9,4.5,14.02,38.72,697.8283,139.9966],
    [7385,1525545550,57.3169,-111.9386,663.2,295.3,167.1,0.9,5.5,14.29,38.63,698.1193,140.0053],
    [7386,1525545551,57.3163,-111.9383,661.7,294.7,164.8,2.9,4.8,14.37,38.82,698.3352,140.001],
    [7387,1525545552,57.3158,-111.9379,659.3,293.4,161.7,3.0,3.9,14.2,38.43,698.4207,139.9991],
    [7388,1525545553,57.3153,-111.9375,655.9,290.0,157.4,1.4,4.0,14.19,39.24,698.5265,140.0016],
    [7389,1525545554,57.3148,-111.937,652.4,287.4,155.3,2.5,4.1,14.03,38.74,698.8208,140.0013],
    [7390,1525545555,57.3142,-111.9365,648.3,283.3,152.0,2.1,4.7,14.17,38.93,699.1263,140.0053],
    [7391,1525545556,57.3137,-111.9358,645.7,280.7,148.0,2.3,4.6,14.17,39.35,699.2373,140.006],
    [7392,1525545557,57.3132,-111.9352,644.3,280.0,146.1,3.4,5.2,14.23,39.07,699.4307,139.997],
    [7393,1525545558,57.3128,-111.9345,642.0,278.0,142.9,3.3,4.4,14.31,39.02,699.5963,140.0049],
    [7394,1525545559,57.3124,-111.9337,639.3,276.0,138.9,3.0,4.4,14.09,39.25,699.8736,140.0049],
    [7395,1525545560,57.312,-111.9329,637.1,274.1,135.6,3.2,4.9,14.2,39.23,700.082,140.0047],
    [7396,1525545561,57.3116,-111.9321,634.9,271.9,129.6,2.1,3.5,14.05,39.21,700.3038,139.9957],
    [7397,1525545562,57.3113,-111.9312,633.4,271.4,124.2,0.8,3.2,14.2,39.89,700.4339,140.0],
    [7398,1525545563,57.311,-111.9301,631.0,269.6,119.9,1.5,4.3,14.38,39.06,701.0023,140.0089],
    [7399,1525545564,57.3108,-111.9293,629.0,268.2,115.8,1.5,4.7,14.22,39.39,701.1583,140.0067],
    [7400,1525545565,57.3106,-111.9281,626.3,266.3,109.2,2.2,3.4,14.47,39.05,701.2929,139.9958],
    [7401,1525545566,57.3104,-111.927,623.8,264.8,104.1,2.3,2.8,14.15,39.04,701.4371,139.9972],
    [7402,1525545567,57.3103,-111.9259,621.0,263.0,98.7,1.3,1.4,14.28,39.04,701.6201,139.9996],
    [7403,1525545568,57.3103,-111.9247,617.0,260.0,96.8,1.6,4.0,14.36,38.92,701.8742,139.9948],
    [7404,1525545569,57.3103,-111.9236,613.5,257.6,95.1,3.1,5.7,14.24,39.0,702.2593,139.9907],
    [7405,1525545570,57.3103,-111.9225,611.3,255.6,90.5,2.2,4.3,14.05,38.97,702.2956,139.9994],
    [7406,1525545571,57.3103,-111.9214,609.6,254.6,87.1,2.5,3.6,14.25,39.56,702.2579,139.9954],
    [7407,1525545572,57.3104,-111.9203,607.9,253.9,84.8,3.1,3.3,14.19,39.08,702.2071,140.0059],
    [7408,1525545573,57.3105,-111.9191,604.7,251.7,84.6,3.2,4.4,13.64,38.84,702.1717,140.0052],
    [7409,1525545574,57.3106,-111.918,600.5,248.5,84.6,2.4,4.7,13.94,38.85,702.1326,140.0063],
    [7410,1525545575,57.3107,-111.9169,598.1,246.4,83.1,1.4,3.2,14.78,38.46,702.1944,140.0014],
    [7411,1525545576,57.3108,-111.9157,598.1,247.1,83.0,0.5,3.6,14.1,38.66,702.1094,139.9979],
    [7412,1525545577,57.3109,-111.9146,599.0,249.0,84.8,1.4,5.4,14.25,38.93,702.0687,140.0091],
    [7413,1525545578,57.311,-111.9134,599.7,249.7,84.6,2.9,4.7,14.27,38.55,702.0028,140.0041],
    [7414,1525545579,57.3111,-111.9122,600.0,251.0,83.8,2.5,2.7,14.22,38.2,702.0192,139.9947],
    [7415,1525545580,57.3112,-111.9111,599.6,250.6,85.1,2.1,2.7,14.39,38.29,702.0705,140.0002],
    [7416,1525545581,57.3112,-111.91,600.4,252.4,88.8,2.4,4.5,14.35,38.33,702.1271,140.004],
    [7417,1525545582,57.3113,-111.9088,601.1,253.1,90.7,1.6,4.8,14.32,38.13,702.0812,139.9978],
    [7418,1525545583,57.3113,-111.9078,602.0,255.0,91.8,1.9,5.3,14.67,37.96,701.8909,140.0028],
    [7419,1525545584,57.3113,-111.9066,601.8,255.5,92.5,1.9,6.2,14.5,37.92,701.7884,140.0019],
    [7420,1525545585,57.3114,-111.9054,601.0,255.0,91.2,0.7,6.2,14.26,38.04,701.4169,139.9952],
    [7421,1525545586,57.3114,-111.9043,600.2,254.2,87.5,-0.3,5.1,14.86,37.86,701.2122,139.9979],
    [7422,1525545587,57.3115,-111.9032,600.6,254.6,83.7,-0.2,5.6,14.33,38.07,701.0867,139.9927],
    [7423,1525545588,57.3117,-111.9021,602.5,257.5,77.4,0.8,4.5,14.41,37.79,701.0174,139.9927],
    [7424,1525545589,57.3119,-111.9011,604.9,259.9,72.4,0.1,4.3,14.08,37.97,700.9041,139.9945],
    [7425,1525545590,57.3121,-111.9,607.9,263.9,66.7,0.0,3.5,14.77,37.75,701.004,139.9942],
    [7426,1525545591,57.3124,-111.899,611.1,267.1,61.1,1.1,2.9,14.5,37.72,701.012,140.0023],
    [7427,1525545592,57.3127,-111.8982,613.0,270.0,58.7,1.0,4.1,15.04,37.42,701.1361,140.0003],
    [7428,1525545593,57.3131,-111.8971,613.8,271.8,55.8,-0.7,5.0,14.53,38.19,701.2774,140.0024],
    [7429,1525545594,57.3135,-111.8962,614.2,272.9,48.6,1.0,2.0,14.27,37.68,701.3116,139.9997],
    [7430,1525545595,57.3139,-111.8954,614.2,273.5,43.3,2.3,1.3,14.46,37.91,701.3312,139.9991],
    [7431,1525545596,57.3144,-111.8947,613.9,273.9,40.6,2.3,1.8,14.58,37.64,701.4215,139.9966],
    [7432,1525545597,57.3148,-111.894,613.0,273.0,39.3,1.6,2.6,14.44,37.85,701.5541,140.0024],
    [7433,1525545598,57.3154,-111.8932,611.9,271.9,38.3,-0.2,3.2,14.98,37.12,701.5208,139.9972],
    [7434,1525545599,57.3159,-111.8926,611.1,271.8,36.6,0.1,4.4,14.23,38.04,701.4257,139.9972],
    [7435,1525545600,57.3164,-111.8919,610.3,271.3,30.9,2.3,1.7,14.77,38.25,701.3314,140.0017],
    [7436,1525545601,57.3169,-111.8913,609.3,271.4,28.2,2.2,1.6,14.2,37.75,701.2599,140.0059],
    [7437,1525545602,57.3175,-111.8908,608.3,270.2,26.7,1.4,1.9,14.87,37.46,701.1501,139.9972],
    [7438,1525545603,57.318,-111.8903,608.1,269.1,24.5,1.2,0.8,14.58,38.33,701.1152,140.0008],
    [7439,1525545604,57.3186,-111.8898,609.0,270.0,22.7,1.1,1.3,14.48,37.64,701.0945,140.001],
    [7440,1525545605,57.3192,-111.8894,610.6,270.6,20.6,2.1,1.9,14.54,37.67,701.0364,139.9971],
    [7441,1525545606,57.3197,-111.889,611.8,273.0,17.3,3.6,1.7,14.3,37.62,701.0125,139.9982],
    [7442,1525545607,57.3203,-111.8886,613.1,274.1,15.8,3.3,2.8,14.57,38.06,700.9086,140.0006],
    [7443,1525545608,57.3209,-111.8883,613.9,276.4,14.4,3.1,2.9,14.62,37.36,700.8737,139.9982],
    [7444,1525545609,57.3215,-111.888,614.4,277.4,13.3,3.4,3.4,14.71,37.95,700.803,140.0037],
    [7445,1525545610,57.3221,-111.8877,614.9,278.9,12.9,2.9,3.4,14.66,38.01,700.7037,140.0022],
    [7446,1525545611,57.3227,-111.8874,615.4,280.4,13.0,2.0,3.2,14.73,37.94,700.6597,140.0046],
    [7447,1525545612,57.3232,-111.8872,616.1,281.4,12.1,2.2,3.5,14.31,38.04,700.4304,139.9989],
    [7448,1525545613,57.3238,-111.8869,616.7,282.7,9.7,3.4,2.0,14.22,37.64,700.2562,140.0],
    [7449,1525545614,57.3244,-111.8867,617.3,283.3,7.9,4.2,1.3,13.91,37.49,700.2279,139.9959],
    [7450,1525545615,57.325,-111.8865,618.3,284.3,7.1,4.0,1.0,14.3,37.87,700.1224,140.0008],
    [7451,1525545616,57.3256,-111.8863,619.6,285.6,7.2,2.7,1.1,14.35,37.61,700.1276,139.9962],
    [7452,1525545617,57.3262,-111.8861,621.6,287.6,7.4,1.5,1.1,14.64,37.92,700.2081,140.0022],
    [7453,1525545618,57.3267,-111.886,623.3,288.2,5.3,2.3,0.4,14.48,37.77,700.3112,139.9943],
    [7454,1525545619,57.3273,-111.8859,624.1,288.1,4.2,2.5,-1.1,14.39,37.67,700.9698,140.0029],
    [7455,1525545620,57.3279,-111.8857,624.9,287.9,3.3,3.0,-0.7,14.79,37.81,701.1402,140.0015],
    [7456,1525545621,57.3285,-111.8856,625.6,287.5,3.7,2.2,0.5,14.52,37.77,701.9684,140.0001],
    [7457,1525545622,57.329,-111.8855,625.0,286.7,4.1,1.9,2.3,14.54,38.41,702.4984,140.0039],
    [7458,1525545623,57.3297,-111.8854,622.9,284.9,5.2,0.7,2.6,13.88,38.18,703.0177,140.0004],
    [7459,1525545624,57.3302,-111.8853,618.7,280.7,6.4,0.0,3.0,14.25,38.38,703.1657,139.9932],
    [7460,1525545625,57.3308,-111.8852,612.5,274.5,5.5,1.2,2.7,14.45,38.52,703.2954,140.0005],
    [7461,1525545626,57.3314,-111.8851,605.8,267.1,6.3,1.0,3.4,14.75,38.27,703.5477,139.9938],
    [7462,1525545627,57.332,-111.8849,598.6,259.6,6.2,1.7,4.5,14.4,38.61,703.6838,139.9951],
    [7463,1525545628,57.3327,-111.8848,592.6,253.6,5.7,1.8,3.9,14.39,38.4,703.6817,139.9946],
    [7464,1525545629,57.3333,-111.8846,588.9,249.9,5.3,2.3,3.9,14.5,38.97,703.5032,139.9922],
    [7465,1525545630,57.3339,-111.8845,586.9,247.9,3.9,3.6,3.3,14.47,38.36,703.4283,140.0082],
    [7466,1525545631,57.3345,-111.8844,584.2,245.2,4.1,3.2,2.9,14.33,38.24,703.4569,140.0033],
    [7467,1525545632,57.3351,-111.8842,582.4,243.4,4.0,3.3,3.1,14.07,38.09,703.2997,139.9962],
    [7468,1525545633,57.3358,-111.8841,581.5,242.5,4.0,3.0,1.7,14.5,38.18,703.2312,139.9981],
    [7469,1525545634,57.3364,-111.884,582.1,243.5,3.9,2.7,0.8,14.24,37.78,703.2648,139.9931],
    [7470,1525545635,57.3371,-111.8839,584.1,245.1,2.7,3.5,0.7,14.22,37.78,703.4373,139.9905],
    [7471,1525545636,57.3377,-111.8837,584.4,245.4,3.3,2.8,2.8,14.51,37.97,703.5842,140.0009],
    [7472,1525545637,57.3383,-111.8836,586.0,247.0,4.2,2.2,2.7,14.26,37.75,703.8175,140.0041],
    [7473,1525545638,57.339,-111.8835,587.1,248.1,4.3,2.8,3.1,14.61,37.88,703.8777,140.0081],
    [7474,1525545639,57.3396,-111.8834,586.2,248.2,4.5,3.3,2.3,14.47,37.73,704.056,139.9959],
    [7475,1525545640,57.3401,-111.8832,585.3,247.3,6.1,2.4,1.7,13.98,37.88,704.1336,139.9999],
    [7476,1525545641,57.3408,-111.883,582.8,245.8,7.9,1.6,2.1,14.52,38.19,704.2343,139.9973],
    [7477,1525545642,57.3415,-111.8829,580.5,244.5,6.8,3.4,1.0,13.99,37.57,704.2578,140.0022],
    [7478,1525545643,57.3421,-111.8827,578.7,243.0,5.2,5.3,1.1,14.74,37.33,704.3521,140.0009],
    [7479,1525545644,57.3427,-111.8825,577.6,241.6,6.5,3.8,1.1,14.58,37.82,704.464,139.9919],
    [7480,1525545645,57.3433,-111.8823,576.5,240.2,8.4,2.1,1.7,15.04,37.15,704.6678,140.0058],
    [7481,1525545646,57.344,-111.8821,575.3,237.2,7.5,2.7,1.1,14.56,37.46,704.7261,140.0075],
    [7482,1525545647,57.3446,-111.8819,574.7,236.7,6.8,3.0,1.4,14.58,37.55,704.9721,140.0048],
    [7483,1525545648,57.3452,-111.8817,573.9,234.8,6.1,3.3,1.5,14.53,37.75,704.9617,139.9951],
    [7484,1525545649,57.3458,-111.8815,572.4,234.4,6.6,1.9,2.0,15.11,36.86,704.9694,140.0044],
    [7485,1525545650,57.3464,-111.8814,570.8,232.8,6.1,2.0,2.1,15.01,37.07,705.0579,139.9978],
    [7486,1525545651,57.3471,-111.8812,569.3,231.3,4.0,3.6,2.4,14.21,37.22,705.1245,139.9987],
    [7487,1525545652,57.3477,-111.8811,567.7,229.9,3.8,3.5,2.5,15.01,36.96,705.0405,140.0042],
    [7488,1525545653,57.3483,-111.881,566.3,227.4,3.7,3.4,2.3,14.15,37.32,705.0278,140.006],
    [7489,1525545654,57.349,-111.8808,565.9,225.9,3.2,3.8,2.0,14.43,37.0,704.8652,140.0056],
    [7490,1525545655,57.3496,-111.8807,565.1,225.1,5.1,1.9,2.4,14.66,37.44,704.5337,139.9986],
    [7491,1525545656,57.3502,-111.8806,564.3,224.3,6.8,0.8,2.5,14.63,37.19,704.5126,139.9992],
    [7492,1525545657,57.3509,-111.8804,564.9,225.9,6.4,1.3,2.3,15.19,36.84,704.2159,140.0094],
    [7493,1525545658,57.3515,-111.8803,566.0,228.1,6.6,1.2,3.8,15.26,37.11,703.9316,140.001],
    [7494,1525545659,57.3521,-111.8801,567.4,229.7,6.3,1.6,4.3,14.79,37.66,703.7085,140.0002],
    [7495,1525545660,57.3527,-111.88,569.9,232.9,7.0,0.8,3.6,14.33,37.84,703.6868,140.007],
    [7496,1525545661,57.3534,-111.8798,572.3,235.3,8.9,-0.9,4.0,14.68,37.97,703.7446,139.9977],
    [7497,1525545662,57.354,-111.8797,574.8,237.8,8.0,0.8,3.3,15.11,38.14,703.8065,139.9973],
    [7498,1525545663,57.3546,-111.8795,577.6,240.6,7.1,1.5,2.5,14.35,38.17,703.8271,140.0],
    [7499,1525545664,57.3552,-111.8794,580.4,243.4,8.1,0.6,3.5,15.15,37.3,703.9056,140.001],
    [7500,1525545665,57.3558,-111.8792,582.1,244.1,7.1,1.6,4.5,14.83,37.69,703.9033,139.9936],
    [7501,1525545666,57.3564,-111.879,582.1,244.1,6.6,2.0,4.2,14.66,37.58,703.9012,139.9916],
    [7502,1525545667,57.357,-111.8789,580.8,242.8,6.0,2.6,2.7,14.41,37.78,703.9621,139.995],
    [7503,1525545668,57.3577,-111.8787,580.1,241.2,5.6,3.3,3.1,14.96,37.02,704.1118,139.9975],
    [7504,1525545669,57.3583,-111.8786,580.0,240.2,6.0,2.9,3.8,14.64,37.51,704.2105,140.0103],
    [7505,1525545670,57.3589,-111.8784,579.7,239.7,6.2,3.1,3.4,15.42,37.24,704.1853,140.0026],
    [7506,1525545671,57.3595,-111.8782,579.4,240.4,6.4,3.0,3.0,14.43,37.46,704.1804,140.0031],
    [7507,1525545672,57.3601,-111.878,578.5,240.2,6.3,2.9,2.6,14.6,37.41,704.1954,139.9981],
    [7508,1525545673,57.3607,-111.8779,577.1,239.1,6.8,1.8,1.1,14.33,37.29,704.1793,139.996],
    [7509,1525545674,57.3613,-111.8777,576.1,238.1,6.7,1.4,2.1,14.15,37.38,704.0843,139.9976],
    [7510,1525545675,57.362,-111.8776,576.4,237.4,7.7,-0.1,3.3,15.23,36.94,704.0202,139.997],
    [7511,1525545676,57.3626,-111.8774,576.6,237.6,7.2,0.5,5.1,14.25,37.45,703.9429,139.9963],
    [7512,1525545677,57.3632,-111.8773,576.2,236.6,6.2,1.2,4.2,14.13,37.44,703.8827,139.9949],
    [7513,1525545678,57.3638,-111.8772,576.3,236.3,7.1,0.1,3.5,14.21,37.69,703.8633,140.0003],
    [7514,1525545679,57.3644,-111.877,577.5,237.5,8.1,-0.8,4.3,14.64,38.23,703.7991,140.0003],
    [7515,1525545680,57.365,-111.8769,578.5,239.5,7.9,-0.2,4.8,14.9,37.98,703.7406,139.9944],
    [7516,1525545681,57.3656,-111.8767,578.7,239.7,6.6,1.1,3.1,14.33,38.17,703.6361,140.0015],
    [7517,1525545682,57.3663,-111.8766,579.2,240.2,6.9,0.8,1.7,14.02,38.05,703.58,139.9995],
    [7518,1525545683,57.3669,-111.8764,579.7,240.7,8.8,-0.2,2.1,14.66,38.08,703.529,139.9911],
    [7519,1525545684,57.3675,-111.8763,580.4,241.4,8.5,1.1,2.2,14.08,38.03,703.4901,140.0072],
    [7520,1525545685,57.3681,-111.8761,581.4,243.4,10.0,0.2,2.7,14.68,37.93,703.4171,140.002],
    [7521,1525545686,57.3687,-111.8759,582.4,244.4,10.0,0.6,2.9,14.0,37.87,703.2405,140.0071],
    [7522,1525545687,57.3693,-111.8757,583.0,244.3,9.3,0.4,2.6,14.54,37.86,702.9075,140.002],
    [7523,1525545688,57.3699,-111.8755,583.7,244.7,10.0,-1.6,3.8,14.47,37.65,702.7583,140.0056],
    [7524,1525545689,57.3705,-111.8754,584.6,245.6,6.7,-1.1,2.9,14.58,37.64,702.4437,139.9981],
    [7525,1525545690,57.3711,-111.8753,585.4,246.4,361.5,-0.6,2.0,14.28,37.92,702.0855,139.998],
    [7526,1525545691,57.3718,-111.8753,586.9,247.9,354.5,0.3,2.2,15.2,37.17,701.9084,140.0018],
    [7527,1525545692,57.3724,-111.8755,590.1,251.1,346.1,1.7,2.8,14.54,38.08,701.7717,140.0055],
    [7528,1525545693,57.3729,-111.8758,593.8,254.8,339.6,1.2,3.1,14.1,37.95,701.7519,140.0085],
    [7529,1525545694,57.3735,-111.8762,597.5,257.5,334.1,0.6,3.0,14.66,38.04,701.6439,139.9951],
    [7530,1525545695,57.374,-111.8767,601.5,260.4,326.5,1.4,2.6,15.21,37.83,701.5543,139.9974],
    [7531,1525545696,57.3745,-111.8773,603.8,260.7,321.3,1.1,2.1,14.65,38.46,701.5971,140.0],
    [7532,1525545697,57.3749,-111.878,605.1,261.1,315.4,1.4,2.5,14.52,39.06,701.8399,140.0025],
    [7533,1525545698,57.3754,-111.8788,606.0,261.0,308.9,1.9,3.4,15.12,38.47,702.0994,140.0004],
    [7534,1525545699,57.3757,-111.8796,607.0,259.9,304.4,1.1,2.7,14.44,38.57,702.2997,140.0073],
    [7535,1525545700,57.3761,-111.8805,608.5,260.5,300.0,0.9,2.5,15.16,38.48,702.3758,140.0067],
    [7536,1525545701,57.3763,-111.8814,608.6,259.6,296.7,0.7,2.7,14.31,38.91,702.3699,139.9983],
    [7537,1525545702,57.3766,-111.8823,605.7,255.7,292.8,1.6,2.8,14.54,39.08,702.2784,139.9989],
    [7538,1525545703,57.3768,-111.8833,602.2,252.2,289.3,1.6,2.6,14.29,38.94,702.3369,140.0024],
    [7539,1525545704,57.377,-111.8843,599.7,248.7,286.7,0.7,2.4,14.58,39.34,702.4313,140.0072],
    [7540,1525545705,57.3772,-111.8854,598.5,247.5,283.7,0.1,2.9,14.39,39.11,702.448,139.9987],
    [7541,1525545706,57.3774,-111.8865,598.2,246.2,281.0,-0.1,2.9,14.52,39.41,702.3952,139.9989],
    [7542,1525545707,57.3775,-111.8875,598.9,246.9,278.6,0.6,3.1,15.01,38.84,702.2947,140.0011],
    [7543,1525545708,57.3776,-111.8886,598.4,246.4,277.3,0.6,3.0,14.7,38.76,702.2072,140.0035],
    [7544,1525545709,57.3777,-111.8896,597.2,244.5,276.0,0.1,3.2,14.29,39.42,702.1403,140.0],
    [7545,1525545710,57.3778,-111.8907,597.2,244.2,274.4,-0.2,3.6,14.26,39.86,702.1219,140.002],
    [7546,1525545711,57.3778,-111.8917,597.8,244.8,274.4,-0.3,2.9,14.04,39.37,702.0461,140.0054],
    [7547,1525545712,57.3779,-111.8928,598.7,245.7,273.9,-0.3,2.8,14.51,40.01,701.9832,139.9948],
    [7548,1525545713,57.378,-111.894,599.7,244.7,272.8,0.4,3.5,14.22,39.43,701.9135,140.0005],
    [7549,1525545714,57.378,-111.895,600.3,243.3,272.0,0.1,3.3,14.67,38.8,701.7337,140.0048],
    [7550,1525545715,57.3781,-111.8962,600.8,241.8,272.3,0.2,2.3,14.06,39.51,701.6025,140.0101],
    [7551,1525545716,57.3781,-111.8973,601.3,240.0,270.9,0.0,3.1,14.45,39.45,701.6,140.0071],
    [7552,1525545717,57.3782,-111.8983,602.4,239.3,270.8,-0.1,2.1,14.47,40.01,701.4901,140.0005],
    [7553,1525545718,57.3782,-111.8994,603.5,239.6,270.3,0.0,1.6,14.73,38.88,701.5201,139.993],
    [7554,1525545719,57.3782,-111.9005,604.9,238.9,267.3,0.5,2.8,14.29,39.44,701.4859,139.9972],
    [7555,1525545720,57.3782,-111.9016,606.3,239.2,265.5,-0.2,2.5,14.77,39.27,701.318,140.0029],
    [7556,1525545721,57.3781,-111.9027,607.2,239.2,264.7,-0.1,1.6,14.34,39.5,701.1943,139.9987],
    [7557,1525545722,57.3781,-111.9037,607.7,238.8,263.3,-0.8,2.1,14.53,39.75,701.0014,139.9999],
    [7558,1525545723,57.378,-111.9048,607.9,236.8,261.4,-0.3,3.2,14.44,39.38,700.7537,140.001],
    [7559,1525545724,57.378,-111.9059,607.8,233.9,261.7,0.8,2.8,13.93,38.9,700.606,140.0082],
    [7560,1525545725,57.3779,-111.9069,608.8,231.9,260.6,0.6,4.1,14.64,38.64,700.3398,139.9983],
    [7561,1525545726,57.3779,-111.908,610.9,229.9,261.0,0.3,4.0,14.4,39.28,700.2092,139.9993],
    [7562,1525545727,57.3778,-111.9091,613.5,228.5,261.8,-0.2,4.0,14.05,38.85,699.5947,139.9941],
    [7563,1525545728,57.3778,-111.9101,615.8,228.4,262.6,-0.4,4.2,14.25,38.69,699.2124,139.9959],
    [7564,1525545729,57.3777,-111.9111,618.1,228.5,264.2,-0.4,3.8,14.18,38.63,698.8784,140.0095],
    [7565,1525545730,57.3777,-111.9121,621.0,229.3,265.6,-0.3,3.4,14.4,38.89,698.6839,139.9996],
    [7566,1525545731,57.3777,-111.9132,625.0,232.3,266.9,0.2,3.1,14.31,38.78,698.5727,139.9969],
    [7567,1525545732,57.3777,-111.9142,629.9,236.2,266.9,1.0,3.0,14.67,38.36,698.4625,139.9989],
    [7568,1525545733,57.3777,-111.9153,635.0,241.0,267.1,1.0,2.2,13.95,38.8,698.4601,139.992],
    [7569,1525545734,57.3777,-111.9163,638.7,244.7,265.1,-0.4,3.5,14.29,39.19,698.4367,140.0025],
    [7570,1525545735,57.3777,-111.9173,641.4,247.4,262.8,-0.2,4.7,14.72,38.52,698.4118,140.0002],
    [7571,1525545736,57.3776,-111.9183,643.2,249.2,263.1,-0.7,3.7,14.54,38.97,698.3994,139.9986],
    [7572,1525545737,57.3776,-111.9192,644.3,250.3,262.1,-0.4,4.2,14.13,39.19,698.3155,140.002],
    [7573,1525545738,57.3776,-111.9203,645.1,251.1,262.1,-0.4,3.7,14.21,39.37,698.2416,140.0013],
    [7574,1525545739,57.3775,-111.9213,645.1,250.4,262.4,-0.2,3.0,14.27,39.25,698.0171,140.0],
    [7575,1525545740,57.3775,-111.9223,645.0,250.4,262.5,0.3,2.7,13.95,39.25,697.9096,139.9975],
    [7576,1525545741,57.3774,-111.9234,645.2,250.2,262.5,0.8,2.4,14.33,39.28,697.8634,139.9949],
    [7577,1525545742,57.3774,-111.9244,645.6,250.6,262.9,0.7,2.0,14.12,39.46,697.8207,140.0032],
    [7578,1525545743,57.3773,-111.9254,646.8,251.8,262.4,0.0,2.4,14.26,39.81,697.6898,139.9929],
    [7579,1525545744,57.3773,-111.9265,648.9,252.8,261.5,-0.6,3.2,14.77,39.08,697.6533,140.006],
    [7580,1525545745,57.3772,-111.9275,650.6,255.6,261.8,0.1,3.0,14.14,39.64,697.3628,140.0061],
    [7581,1525545746,57.3772,-111.9285,651.1,255.1,263.7,0.5,1.3,14.64,39.48,697.2781,140.002],
    [7582,1525545747,57.3771,-111.9294,651.5,255.5,262.9,1.2,1.6,13.99,39.75,696.8321,139.9994],
    [7583,1525545748,57.377,-111.9305,652.6,258.6,259.8,1.1,1.9,14.31,40.12,696.785,139.9979],
    [7584,1525545749,57.3769,-111.9316,653.9,265.6,256.3,1.2,1.5,14.86,39.35,696.6647,140.0059],
    [7585,1525545750,57.3768,-111.9325,655.4,272.5,249.0,1.9,3.7,14.23,39.99,696.4825,139.999],
    [7586,1525545751,57.3766,-111.9335,658.4,279.2,241.0,1.6,3.9,14.39,39.68,696.3657,139.9984],
    [7587,1525545752,57.3763,-111.9344,661.5,285.6,235.1,1.6,3.4,14.15,39.99,696.3614,139.9973],
    [7588,1525545753,57.376,-111.9352,664.3,288.3,228.3,1.3,3.7,14.36,40.06,696.0009,139.9953],
    [7589,1525545754,57.3756,-111.9359,666.2,288.8,223.1,1.0,2.9,14.53,38.91,695.9479,139.9938],
    [7590,1525545755,57.3752,-111.9366,667.4,287.2,216.5,1.7,3.7,14.27,39.23,695.8885,139.9934],
    [7591,1525545756,57.3748,-111.9371,668.9,285.5,210.5,2.3,3.8,14.24,39.87,695.5737,140.0119],
    [7592,1525545757,57.3743,-111.9376,670.5,281.1,207.3,3.1,2.3,14.14,38.81,695.503,139.993],
    [7593,1525545758,57.3738,-111.938,672.4,277.4,201.7,1.7,3.4,14.22,38.57,695.441,139.9839],
    [7594,1525545759,57.3733,-111.9383,674.1,274.5,198.2,2.2,4.1,13.63,38.34,695.3397,139.9964],
    [7595,1525545760,57.3728,-111.9386,675.2,273.4,197.3,4.3,3.7,14.29,38.59,695.074,140.0009],
    [7596,1525545761,57.3722,-111.9388,677.8,274.8,192.9,2.3,2.8,13.76,37.51,695.0129,139.9865],
    [7597,1525545762,57.3717,-111.939,679.7,276.4,192.0,3.8,1.7,14.63,36.84,695.243,139.9889],
    [7598,1525545763,57.3711,-111.9391,680.6,277.6,192.5,6.0,1.7,14.71,35.74,695.3617,140.0053],
    [7599,1525545764,57.3705,-111.9392,681.3,278.3,188.6,4.1,3.3,14.39,36.13,695.8066,139.992],
    [7600,1525545765,57.37,-111.9393,683.6,281.7,185.6,2.3,0.1,14.59,34.98,696.0041,140.0008],
    [7601,1525545766,57.3694,-111.9394,685.2,284.3,184.4,2.5,1.5,14.41,35.29,696.1908,140.0055],
    [7602,1525545767,57.3688,-111.9394,683.3,283.3,185.8,4.1,1.3,14.74,35.17,696.283,139.9953],
    [7603,1525545768,57.3683,-111.9395,680.9,281.8,182.8,1.5,1.4,14.5,35.4,696.3829,140.0033],
    [7604,1525545769,57.3677,-111.9395,676.8,279.1,182.0,2.0,2.3,14.13,35.25,696.5742,139.9917],
    [7605,1525545770,57.3671,-111.9395,673.1,278.1,182.1,2.0,2.4,15.03,35.12,696.5885,139.9958],
    [7606,1525545771,57.3665,-111.9395,670.8,278.4,180.5,0.4,2.2,14.49,36.22,696.8362,139.9921],
    [7607,1525545772,57.3659,-111.9395,669.7,279.0,181.0,0.7,0.8,14.53,36.84,697.2388,140.003],
    [7608,1525545773,57.3653,-111.9395,668.2,278.2,179.9,-0.1,0.7,14.51,37.27,697.1105,140.0141],
    [7609,1525545774,57.3647,-111.9395,665.4,273.4,179.6,-0.2,1.4,14.39,37.18,697.6547,139.973],
    [7610,1525545775,57.3641,-111.9395,663.5,268.8,178.5,-0.3,0.4,13.9,37.2,697.6328,140.0098],
    [7611,1525545776,57.3635,-111.9394,661.5,264.5,179.7,2.2,0.6,14.19,37.15,697.67,140.0036],
    [7612,1525545777,57.3629,-111.9394,656.5,258.5,182.3,5.5,-0.4,14.94,36.91,697.8282,139.989],
    [7613,1525545778,57.3622,-111.9393,653.3,255.3,180.7,4.7,1.8,14.55,37.86,697.9501,139.9967],
    [7614,1525545779,57.3616,-111.9393,650.8,253.0,183.5,8.3,0.5,14.55,37.41,698.0483,140.0033],
    [7615,1525545780,57.3609,-111.9392,650.7,251.6,182.9,7.4,0.0,14.02,36.6,698.2202,140.0077],
    [7616,1525545781,57.3602,-111.9391,650.8,251.7,182.0,7.0,0.0,14.48,36.15,698.5627,139.9973],
    [7617,1525545782,57.3596,-111.9391,649.4,250.4,182.8,7.6,-0.2,14.52,35.9,698.7817,140.0086],
    [7618,1525545783,57.359,-111.939,647.4,248.3,182.8,6.5,0.7,14.87,35.05,698.9825,139.9964],
    [7619,1525545784,57.3583,-111.939,645.1,246.0,184.3,6.7,0.2,14.37,35.06,699.0947,139.9934],
    [7620,1525545785,57.3576,-111.939,642.7,243.6,186.4,7.2,-0.4,14.05,34.89,699.0901,139.9992],
    [7621,1525545786,57.357,-111.939,639.4,240.3,188.5,8.5,1.0,14.6,34.6,698.9136,140.0154],
    [7622,1525545787,57.3563,-111.9391,636.6,238.3,189.9,8.9,-1.3,15.33,33.93,698.5363,139.9852],
    [7623,1525545788,57.3556,-111.9391,634.8,236.8,190.3,9.0,-1.0,14.76,33.95,698.349,140.0051],
    [7624,1525545789,57.355,-111.9392,633.2,235.3,190.9,9.7,0.8,14.45,33.51,698.1451,139.9949],
    [7625,1525545790,57.3544,-111.9393,633.3,235.4,190.8,8.7,0.3,14.69,33.53,698.0474,140.0051],
    [7626,1525545791,57.3537,-111.9394,636.1,238.4,190.4,7.7,-1.3,14.98,32.42,697.9457,140.0038],
    [7627,1525545792,57.3531,-111.9395,638.6,241.6,191.1,8.9,1.1,14.98,33.09,697.8148,140.0048],
    [7628,1525545793,57.3524,-111.9396,640.4,244.4,190.0,8.1,2.5,14.98,32.61,698.0675,140.0117],
    [7629,1525545794,57.3518,-111.9396,642.7,249.0,189.3,8.4,2.1,15.14,32.04,698.2197,139.9997],
    [7630,1525545795,57.3511,-111.9397,645.1,255.5,188.9,8.8,2.3,15.02,33.38,698.4592,140.0038],
    [7631,1525545796,57.3505,-111.9397,646.5,258.5,188.8,9.2,0.9,14.83,32.86,698.588,139.9989],
    [7632,1525545797,57.3499,-111.9397,647.4,258.8,188.6,9.6,0.1,15.13,33.02,698.8396,139.9966],
    [7633,1525545798,57.3492,-111.9398,646.7,255.4,187.8,9.6,-0.6,14.6,33.02,699.0535,140.011],
    [7634,1525545799,57.3485,-111.9398,644.6,252.6,188.4,10.8,-0.7,14.77,32.92,699.1432,140.0027],
    [7635,1525545800,57.3479,-111.9397,642.5,251.6,186.7,8.6,-1.4,15.12,32.92,699.2375,139.9898],
    [7636,1525545801,57.3472,-111.9397,641.2,250.1,185.6,7.5,-0.3,14.51,32.65,699.3215,140.0037],
    [7637,1525545802,57.3467,-111.9397,638.9,248.1,186.7,8.8,0.3,15.09,32.36,699.3893,140.0101],
    [7638,1525545803,57.346,-111.9397,636.2,244.8,185.2,6.1,-0.7,15.28,31.91,699.4371,139.9979],
    [7639,1525545804,57.3453,-111.9397,635.0,242.9,182.7,3.0,-0.8,15.25,31.96,699.365,139.9881],
    [7640,1525545805,57.3447,-111.9397,633.6,242.5,183.3,3.8,0.0,15.14,32.38,699.2056,139.9842],
    [7641,1525545806,57.3441,-111.9397,632.5,242.4,183.6,3.9,0.2,15.39,31.59,699.1687,140.0071],
    [7642,1525545807,57.3434,-111.9398,632.0,244.1,182.6,2.8,-1.0,14.8,31.97,698.5754,139.9995],
    [7643,1525545808,57.3428,-111.9398,631.2,245.2,184.4,4.4,-1.6,15.46,31.45,698.2188,139.9945],
    [7644,1525545809,57.3422,-111.9398,631.4,248.4,184.1,4.2,0.6,14.9,32.08,698.1909,140.0036],
    [7645,1525545810,57.3415,-111.9398,632.4,248.8,182.8,3.0,3.2,15.38,32.35,697.8506,140.0115],
    [7646,1525545811,57.3409,-111.9398,634.6,249.0,180.9,1.7,2.5,14.82,32.92,697.8904,139.9888],
    [7647,1525545812,57.3403,-111.9398,637.9,249.6,180.5,2.2,2.7,15.8,32.85,697.8086,139.9982],
    [7648,1525545813,57.3397,-111.9397,642.7,252.4,179.2,1.5,4.5,15.28,34.1,697.8458,139.9886],
    [7649,1525545814,57.3391,-111.9397,645.1,255.1,179.6,2.1,3.4,14.78,34.26,697.82,140.0061],
    [7650,1525545815,57.3384,-111.9396,647.4,256.4,176.7,-0.9,2.7,15.2,35.05,697.7666,140.0056],
    [7651,1525545816,57.3378,-111.9396,649.4,258.4,177.6,1.3,1.8,15.19,35.25,697.4503,140.0218],
    [7652,1525545817,57.3372,-111.9395,650.0,260.0,180.8,4.9,4.7,15.4,34.46,697.7107,140.0008],
    [7653,1525545818,57.3366,-111.9395,649.9,260.9,181.9,6.2,4.7,15.25,34.7,697.8758,139.9951],
    [7654,1525545819,57.3361,-111.9394,650.3,262.4,182.9,6.7,3.3,15.1,35.09,697.8,140.0167],
    [7655,1525545820,57.3355,-111.9394,650.8,262.8,181.9,4.7,2.2,14.93,35.24,698.1949,139.9914],
    [7656,1525545821,57.3348,-111.9393,652.6,265.6,180.0,2.5,1.8,15.08,35.43,698.3976,140.0152],
    [7657,1525545822,57.3342,-111.9393,651.9,264.9,183.5,6.7,1.5,15.36,35.76,698.3709,139.9932],
    [7658,1525545823,57.3336,-111.9392,650.6,263.5,188.4,9.8,0.4,15.17,35.43,698.191,139.9973],
    [7659,1525545824,57.3331,-111.9393,649.9,263.9,185.5,5.2,0.1,15.12,35.08,698.1597,139.9795],
    [7660,1525545825,57.3324,-111.9393,648.7,263.7,188.3,7.5,0.6,15.68,34.21,698.0281,140.0025],
    [7661,1525545826,57.3318,-111.9393,645.4,260.7,190.7,8.0,-1.8,15.07,34.55,697.9387,139.9978],
    [7662,1525545827,57.3313,-111.9394,644.6,260.6,187.8,4.1,-2.5,15.17,34.33,698.1716,139.9914],
    [7663,1525545828,57.3306,-111.9395,645.8,262.5,184.4,1.6,-0.3,15.45,33.91,698.2622,139.9971],
    [7664,1525545829,57.33,-111.9395,646.4,263.4,185.5,3.6,1.8,15.41,34.16,698.4515,139.9989],
    [7665,1525545830,57.3294,-111.9396,647.1,265.1,184.2,1.7,1.8,15.33,34.49,698.5674,139.9958],
    [7666,1525545831,57.3288,-111.9397,648.0,267.0,183.2,1.8,2.7,15.72,34.4,698.7948,139.9988],
    [7667,1525545832,57.3282,-111.9397,647.4,266.4,186.7,5.8,2.0,15.24,35.71,698.8565,139.9932],
    [7668,1525545833,57.3276,-111.9397,646.1,265.1,184.7,3.7,2.1,15.14,35.78,698.9335,139.9908],
    [7669,1525545834,57.327,-111.9398,644.4,264.4,183.1,2.4,2.5,15.08,35.82,699.1961,140.0118],
    [7670,1525545835,57.3264,-111.9398,642.1,262.1,183.0,2.8,2.6,14.71,36.17,699.3674,139.9876],
    [7671,1525545836,57.3258,-111.9398,640.6,260.6,182.9,3.4,1.9,15.09,36.44,699.461,140.0014],
    [7672,1525545837,57.3251,-111.9398,637.8,258.8,184.4,5.6,1.7,14.63,36.42,699.5408,140.0038],
    [7673,1525545838,57.3245,-111.9398,635.1,256.1,182.4,3.6,3.7,14.88,36.56,699.5854,140.0096],
    [7674,1525545839,57.324,-111.9398,633.5,255.5,180.4,1.7,3.5,15.17,36.53,699.5655,140.0005],
    [7675,1525545840,57.3233,-111.9397,631.8,253.8,181.9,3.7,3.4,14.71,36.63,699.6201,140.0008],
    [7676,1525545841,57.3227,-111.9397,630.8,253.8,181.4,2.9,3.8,14.7,36.9,699.6239,139.9911],
    [7677,1525545842,57.3221,-111.9397,630.1,254.1,180.1,1.8,3.6,14.51,36.88,699.6409,139.991],
    [7678,1525545843,57.3215,-111.9397,629.7,254.4,180.8,3.0,1.3,15.03,37.31,699.678,139.9906],
    [7679,1525545844,57.3209,-111.9396,629.4,255.5,180.6,2.7,0.8,14.99,37.45,699.7288,139.9986],
    [7680,1525545845,57.3203,-111.9396,629.4,255.7,179.2,1.6,1.9,15.01,37.05,699.738,140.0024],
    [7681,1525545846,57.3196,-111.9395,629.2,256.2,179.8,2.8,1.8,14.41,37.34,699.7764,140.0014],
    [7682,1525545847,57.3191,-111.9395,628.6,255.6,179.7,3.2,2.8,15.04,37.89,699.7686,140.0032],
    [7683,1525545848,57.3184,-111.9394,628.0,256.1,179.5,3.4,3.6,14.65,37.34,699.7386,140.005],
    [7684,1525545849,57.3178,-111.9394,627.6,256.7,178.8,3.1,3.9,14.97,37.67,699.6728,140.0022],
    [7685,1525545850,57.3172,-111.9393,627.1,256.9,177.8,3.6,5.2,14.5,37.52,699.6665,140.0031],
    [7686,1525545851,57.3166,-111.9391,627.2,258.6,175.5,4.0,5.2,14.94,37.57,699.6886,140.0024],
    [7687,1525545852,57.316,-111.9389,627.5,259.5,171.3,3.7,4.7,15.14,37.65,699.6514,140.0031],
    [7688,1525545853,57.3155,-111.9387,628.3,261.3,166.8,3.6,4.9,14.96,38.05,699.6719,140.0041],
    [7689,1525545854,57.3149,-111.9383,629.1,263.0,161.7,3.2,4.5,14.83,37.47,699.8233,139.9912],
    [7690,1525545855,57.3144,-111.9378,629.1,264.1,155.4,1.6,4.3,14.91,37.54,700.2317,140.0026],
    [7691,1525545856,57.3139,-111.9373,629.2,264.2,149.7,1.6,5.9,15.08,37.82,700.506,139.99],
    [7692,1525545857,57.3134,-111.9366,629.5,264.8,145.3,2.8,5.9,15.29,37.21,701.0986,140.0007],
    [7693,1525545858,57.3129,-111.9359,629.6,265.6,139.8,2.2,5.8,14.9,37.48,701.4263,140.0035],
    [7694,1525545859,57.3126,-111.9351,628.1,264.5,135.6,2.6,6.1,14.75,37.43,702.0887,139.9904],
    [7695,1525545860,57.3122,-111.9343,625.1,262.1,130.3,2.7,5.1,14.79,37.52,702.5908,139.9913],
    [7696,1525545861,57.3119,-111.9333,620.3,257.3,125.1,2.5,5.6,15.05,37.47,703.2292,139.9971],
    [7697,1525545862,57.3116,-111.9323,615.2,252.1,118.5,2.0,4.0,14.64,37.33,703.755,140.0069],
    [7698,1525545863,57.3114,-111.9313,608.9,246.9,112.2,1.0,2.8,15.19,37.13,703.956,140.003],
    [7699,1525545864,57.3112,-111.9302,602.4,240.4,111.1,2.0,5.7,15.19,37.6,704.5303,139.9927],
    [7700,1525545865,57.311,-111.9291,595.7,234.7,106.6,-0.6,4.6,14.69,37.67,704.8659,140.0086],
    [7701,1525545866,57.3109,-111.928,588.0,228.0,102.2,-1.4,3.5,14.73,37.79,705.1239,139.9963],
    [7702,1525545867,57.3108,-111.9268,581.5,222.5,98.5,-0.3,2.8,15.27,37.15,705.1824,139.9967],
    [7703,1525545868,57.3108,-111.9256,576.7,218.8,93.8,0.1,1.3,14.78,37.93,705.5801,139.9998],
    [7704,1525545869,57.3108,-111.9245,572.9,215.6,93.1,-0.5,3.5,15.57,37.32,705.9397,140.0094],
    [7705,1525545870,57.3108,-111.9233,567.9,211.3,92.6,1.8,4.3,15.64,37.16,706.1958,140.0097],
    [7706,1525545871,57.3108,-111.9221,563.5,207.4,90.7,1.2,3.6,15.44,37.16,706.3312,139.9937],
    [7707,1525545872,57.3108,-111.9209,560.6,205.6,89.5,0.9,3.9,14.96,37.48,706.4935,140.0044],
    [7708,1525545873,57.3109,-111.9197,557.5,203.5,88.8,1.5,4.2,14.99,37.2,706.6812,140.0053],
    [7709,1525545874,57.3109,-111.9185,554.1,201.1,87.6,1.6,3.9,14.45,37.17,706.866,140.004],
    [7710,1525545875,57.311,-111.9173,551.5,199.5,87.1,1.6,4.2,14.77,37.1,707.0425,139.9973],
    [7711,1525545876,57.3111,-111.9161,549.5,198.5,87.4,0.3,4.9,14.57,37.18,707.4216,140.0028],
    [7712,1525545877,57.3111,-111.9149,547.4,197.1,87.9,0.5,5.5,15.36,36.82,707.7417,140.0032],
    [7713,1525545878,57.3112,-111.9137,545.4,195.4,87.9,0.6,5.0,14.56,36.88,707.9295,140.0037],
    [7714,1525545879,57.3113,-111.9125,543.6,194.6,88.7,0.3,5.2,14.75,36.64,708.3188,140.0017],
    [7715,1525545880,57.3113,-111.9113,540.5,191.5,90.3,0.8,5.8,14.78,36.7,708.4272,139.9917],
    [7716,1525545881,57.3114,-111.9101,537.1,189.1,90.4,0.6,5.0,14.8,36.43,708.7462,140.0097],
    [7717,1525545882,57.3114,-111.9089,533.7,185.7,91.9,1.1,5.6,15.13,36.98,708.7368,140.0027],
    [7718,1525545883,57.3114,-111.9077,530.3,183.3,92.3,1.1,5.6,15.15,36.99,708.512,140.0027],
    [7719,1525545884,57.3115,-111.9065,526.6,179.6,91.9,1.4,5.8,15.1,36.67,708.4342,139.9983],
    [7720,1525545885,57.3115,-111.9053,524.1,178.1,89.9,-0.1,6.1,14.7,36.42,708.2958,140.0051],
    [7721,1525545886,57.3116,-111.904,521.6,175.6,85.3,1.0,6.0,14.94,36.24,708.1207,140.003],
    [7722,1525545887,57.3117,-111.9028,521.3,175.3,79.4,1.0,5.8,15.64,36.22,708.0337,139.9906],
    [7723,1525545888,57.3119,-111.9017,523.0,178.0,73.0,1.3,5.0,15.22,37.0,708.0555,139.9963],
    [7724,1525545889,57.3122,-111.9006,524.6,179.6,67.9,0.9,4.3,15.11,36.19,708.1854,140.0017],
    [7725,1525545890,57.3125,-111.8995,526.7,182.7,62.0,1.3,4.0,15.28,35.75,708.3134,140.0054],
    [7726,1525545891,57.3128,-111.8985,528.6,185.6,58.3,1.9,5.2,15.57,35.52,708.4775,140.009],
    [7727,1525545892,57.3132,-111.8975,529.7,187.5,55.0,1.3,5.6,15.51,35.42,708.7283,140.0106],
    [7728,1525545893,57.3136,-111.8966,529.6,188.3,50.8,1.6,4.2,15.79,35.83,708.795,140.0019],
    [7729,1525545894,57.3141,-111.8958,528.7,187.7,47.3,1.1,3.5,15.12,35.75,708.8908,140.0084],
    [7730,1525545895,57.3145,-111.8949,527.5,187.5,45.9,0.8,5.4,15.24,35.93,709.0637,139.9978],
    [7731,1525545896,57.315,-111.8941,526.0,186.0,41.5,2.2,4.3,15.42,35.82,709.306,139.9899],
    [7732,1525545897,57.3155,-111.8934,524.2,184.2,36.9,3.1,4.3,15.71,35.8,709.7059,139.9987],
    [7733,1525545898,57.3161,-111.8927,522.2,182.9,33.3,2.2,5.7,15.34,35.94,709.8403,139.9988],
    [7734,1525545899,57.3166,-111.8921,520.6,181.6,28.2,3.9,5.4,15.36,36.01,709.9159,139.9983],
    [7735,1525545900,57.3172,-111.8915,518.5,179.5,24.7,4.4,5.7,15.27,35.99,709.9962,139.9947],
    [7736,1525545901,57.3178,-111.891,515.8,176.8,23.4,3.1,5.0,14.82,35.87,710.1033,140.0018],
    [7737,1525545902,57.3183,-111.8906,512.8,173.8,22.1,2.5,4.7,15.34,36.14,710.0527,139.9948],
    [7738,1525545903,57.319,-111.8901,509.5,169.5,19.7,2.7,4.5,15.39,36.06,710.0964,139.9977],
    [7739,1525545904,57.3196,-111.8897,507.9,167.9,18.3,1.9,5.5,15.25,36.39,709.9833,140.0018],
    [7740,1525545905,57.3202,-111.8894,507.1,168.1,16.1,1.8,5.7,15.68,35.6,710.0561,140.0024],
    [7741,1525545906,57.3209,-111.889,506.0,167.9,13.4,2.5,5.4,15.41,36.19,710.19,139.9894],
    [7742,1525545907,57.3215,-111.8888,505.1,168.0,11.4,2.3,3.8,15.73,35.35,710.2668,140.0012],
    [7743,1525545908,57.3221,-111.8885,505.1,169.1,12.1,0.1,3.7,15.46,35.73,710.1294,140.0052],
    [7744,1525545909,57.3228,-111.8883,505.4,170.4,12.0,0.3,4.3,15.33,36.27,710.0813,139.9969],
    [7745,1525545910,57.3234,-111.888,504.9,170.9,11.5,0.9,3.6,15.52,36.43,709.847,140.0013],
    [7746,1525545911,57.3241,-111.8878,503.4,169.4,12.7,-0.1,2.5,16.1,35.4,709.8366,140.0083],
    [7747,1525545912,57.3247,-111.8875,502.6,168.6,13.2,-0.3,1.9,15.03,35.86,709.7875,140.0025],
    [7748,1525545913,57.3253,-111.8872,503.1,169.1,13.4,-0.2,2.4,15.18,35.9,709.785,139.998],
    [7749,1525545914,57.326,-111.887,504.4,170.4,13.4,0.2,1.7,15.29,35.83,709.9856,139.9961],
    [7750,1525545915,57.3266,-111.8867,506.1,172.1,12.4,0.9,1.6,15.52,35.75,710.1367,140.0025],
    [7751,1525545916,57.3272,-111.8864,507.3,171.4,12.1,0.8,2.2,16.32,35.4,710.124,140.0002],
    [7752,1525545917,57.3279,-111.8862,507.7,170.7,9.6,2.3,2.3,15.33,35.58,710.0865,140.0066],
    [7753,1525545918,57.3286,-111.886,507.7,169.6,8.9,1.6,3.0,16.07,35.13,709.9046,140.0038],
    [7754,1525545919,57.3292,-111.8858,506.5,167.3,7.9,1.5,3.1,15.54,35.55,709.5563,139.9919],
    [7755,1525545920,57.3298,-111.8856,505.2,167.0,6.3,1.7,3.3,15.76,35.81,709.3952,139.9966],
    [7756,1525545921,57.3305,-111.8855,504.7,166.7,5.8,0.8,3.5,15.16,35.36,709.3786,139.9965],
    [7757,1525545922,57.3311,-111.8853,505.2,166.2,4.8,1.3,3.1,15.4,36.14,709.4493,140.0038],
    [7758,1525545923,57.3318,-111.8852,507.4,168.4,4.5,1.2,3.0,15.04,35.58,709.4687,140.0022],
    [7759,1525545924,57.3324,-111.8851,510.2,171.2,5.1,0.5,2.4,15.47,35.57,709.4957,139.9982],
    [7760,1525545925,57.333,-111.885,512.0,173.0,4.4,1.5,1.3,15.42,36.07,709.5503,140.0036],
    [7761,1525545926,57.3337,-111.8849,512.8,173.8,5.5,0.9,1.5,15.67,35.15,709.6474,140.0035],
    [7762,1525545927,57.3343,-111.8848,512.9,173.9,7.0,0.3,2.6,15.52,35.91,709.7444,139.9993],
    [7763,1525545928,57.3349,-111.8846,512.4,173.4,7.4,0.9,1.9,15.19,35.52,709.7399,140.0025],
    [7764,1525545929,57.3356,-111.8844,511.8,172.8,8.5,0.8,2.8,15.17,35.41,709.835,139.9979],
    [7765,1525545930,57.3362,-111.8843,511.2,172.2,9.2,0.9,2.6,15.29,35.76,710.0009,139.9978],
    [7766,1525545931,57.3368,-111.8841,510.4,171.4,8.4,2.5,2.6,15.62,36.25,710.0505,140.009],
    [7767,1525545932,57.3374,-111.8838,509.9,170.9,9.1,1.8,2.3,16.05,35.21,710.0231,140.0039],
    [7768,1525545933,57.3381,-111.8836,509.3,170.3,10.2,0.9,3.5,15.56,36.17,709.9245,140.0035],
    [7769,1525545934,57.3386,-111.8834,508.4,169.4,10.5,0.4,3.4,15.68,35.32,709.8444,140.0031],
    [7770,1525545935,57.3392,-111.8832,506.8,168.6,9.2,1.3,2.7,15.08,35.69,709.8774,140.0024],
    [7771,1525545936,57.3399,-111.883,505.5,167.5,6.2,3.4,1.8,15.41,35.76,710.0067,139.9978],
    [7772,1525545937,57.3405,-111.8829,505.8,168.8,4.8,4.4,3.1,15.14,35.7,709.9645,140.005],
    [7773,1525545938,57.3411,-111.8827,506.6,170.6,4.8,3.6,2.9,15.33,35.73,709.9926,139.9892],
    [7774,1525545939,57.3418,-111.8826,507.2,172.1,4.8,3.0,2.9,15.45,35.75,710.1122,139.9956],
    [7775,1525545940,57.3424,-111.8824,506.7,171.2,5.4,1.8,3.1,15.25,35.53,710.1102,139.9989],
    [7776,1525545941,57.343,-111.8823,506.5,170.5,5.3,1.9,3.2,15.51,35.61,710.2703,139.9976],
    [7777,1525545942,57.3436,-111.8822,506.4,169.4,4.6,2.5,3.3,15.41,35.6,710.327,140.0035],
    [7778,1525545943,57.3442,-111.882,506.1,168.1,5.9,1.3,3.3,15.75,35.44,710.4182,139.9995],
    [7779,1525545944,57.3449,-111.8819,505.4,166.6,6.3,1.4,3.1,14.92,35.8,710.4602,139.9922],
    [7780,1525545945,57.3455,-111.8817,504.6,165.9,6.5,1.6,3.1,16.06,35.54,710.4426,140.0036],
    [7781,1525545946,57.3462,-111.8816,503.4,165.4,7.7,0.9,3.6,15.37,35.91,710.482,139.9991],
    [7782,1525545947,57.3468,-111.8814,502.2,164.2,8.2,1.0,3.9,15.54,36.32,710.5328,140.0032],
    [7783,1525545948,57.3474,-111.8812,501.3,163.4,8.2,1.3,4.0,15.69,35.93,710.4601,140.0002],
    [7784,1525545949,57.348,-111.881,500.5,161.5,8.4,1.1,3.5,15.94,35.79,710.2841,139.9975],
    [7785,1525545950,57.3486,-111.8809,500.2,160.5,8.4,1.3,3.9,16.24,35.59,710.0945,139.9994],
    [7786,1525545951,57.3493,-111.8807,499.8,160.0,7.9,1.7,3.4,15.49,35.9,709.8867,140.0014],
    [7787,1525545952,57.3499,-111.8805,499.5,160.5,8.0,1.6,3.6,15.52,35.8,709.6698,139.9997],
    [7788,1525545953,57.3506,-111.8803,500.6,161.6,7.7,2.0,3.4,15.56,35.89,709.5846,140.0005],
    [7789,1525545954,57.3511,-111.8801,502.4,164.4,7.3,2.2,3.1,15.44,35.7,709.0442,139.9997],
    [7790,1525545955,57.3517,-111.88,504.0,166.5,7.6,1.6,2.1,15.63,35.81,708.8922,140.0071],
    [7791,1525545956,57.3524,-111.8798,506.4,169.4,8.1,1.4,2.4,14.99,36.02,708.818,139.9989],
    [7792,1525545957,57.3531,-111.8796,509.3,172.3,8.3,1.2,2.1,15.76,35.76,708.7562,139.9967],
    [7793,1525545958,57.3536,-111.8794,512.9,176.9,8.7,0.8,2.2,15.62,36.62,708.7587,139.9967],
    [7794,1525545959,57.3542,-111.8793,516.5,179.5,8.7,1.1,3.1,15.56,36.31,708.9503,139.9973],
    [7795,1525545960,57.3549,-111.8791,519.1,182.1,8.3,1.7,2.7,16.28,35.73,709.143,139.9962],
    [7796,1525545961,57.3555,-111.8789,520.4,183.4,7.0,3.0,2.6,15.22,36.64,709.3032,140.001],
    [7797,1525545962,57.356,-111.8787,521.3,184.3,6.5,3.3,3.4,15.81,36.07,709.3592,140.0038],
    [7798,1525545963,57.3567,-111.8785,521.2,183.3,6.2,3.0,3.6,15.55,36.25,709.3106,139.9969],
    [7799,1525545964,57.3573,-111.8784,519.4,181.1,6.1,2.6,2.9,15.48,36.01,709.3043,139.9991],
    [7800,1525545965,57.3579,-111.8782,517.4,178.4,6.6,1.8,2.4,15.68,36.26,709.2926,140.0026],
    [7801,1525545966,57.3585,-111.878,515.4,176.4,7.1,1.1,2.5,15.87,35.83,709.2172,139.9934],
    [7802,1525545967,57.3591,-111.8779,514.6,175.6,7.0,1.1,2.8,15.13,36.12,709.1166,139.9993],
    [7803,1525545968,57.3598,-111.8777,514.4,175.4,6.5,1.4,3.2,15.34,36.19,708.9285,140.0006],
    [7804,1525545969,57.3603,-111.8776,514.6,176.6,6.9,0.7,3.4,15.46,36.27,708.8266,140.0021],
    [7805,1525545970,57.361,-111.8775,514.6,176.6,5.5,2.3,2.8,15.37,36.5,708.8428,140.0016],
    [7806,1525545971,57.3616,-111.8773,515.3,177.3,5.1,2.3,3.0,15.4,36.26,708.8018,140.0013],
    [7807,1525545972,57.3622,-111.8772,516.8,177.8,6.0,1.0,2.1,14.89,36.27,708.7237,140.0035],
    [7808,1525545973,57.3628,-111.877,518.6,179.6,6.3,0.4,2.4,15.17,36.22,708.7128,140.0077],
    [7809,1525545974,57.3634,-111.8769,520.1,181.1,6.0,0.7,3.7,15.52,36.48,708.6232,139.9961],
    [7810,1525545975,57.3641,-111.8768,520.8,181.7,5.1,1.4,3.8,15.29,36.8,708.592,139.9984],
    [7811,1525545976,57.3647,-111.8767,521.2,181.5,4.6,1.7,3.3,14.93,36.91,708.4623,139.9968],
    [7812,1525545977,57.3653,-111.8766,521.8,182.8,5.0,1.5,4.4,15.2,37.17,708.3458,139.9999],
    [7813,1525545978,57.3659,-111.8764,522.3,183.3,5.4,1.8,4.7,15.27,37.84,708.2361,140.0036],
    [7814,1525545979,57.3665,-111.8763,522.8,183.8,6.1,1.9,3.9,15.36,37.23,708.0503,140.0036],
    [7815,1525545980,57.3671,-111.8762,523.8,184.8,6.9,2.1,3.2,15.5,37.07,707.6941,139.9948],
    [7816,1525545981,57.3676,-111.876,524.7,185.9,7.7,1.9,2.9,15.4,37.25,707.6285,140.0077],
    [7817,1525545982,57.3683,-111.8758,525.6,187.6,9.4,0.9,1.8,15.3,36.9,707.3545,139.9995],
    [7818,1525545983,57.3689,-111.8756,527.0,189.0,9.1,1.6,1.7,15.45,36.95,707.1746,140.0021],
    [7819,1525545984,57.3695,-111.8754,529.1,190.1,7.8,1.8,1.2,15.4,37.32,706.8993,140.0012],
    [7820,1525545985,57.3701,-111.8752,532.4,193.4,8.7,-2.0,1.3,15.52,36.86,706.8083,140.0013],
    [7821,1525545986,57.3707,-111.8751,535.1,196.1,5.3,-1.9,1.7,15.74,37.21,706.6066,140.0043],
    [7822,1525545987,57.3714,-111.8751,537.9,198.9,358.0,0.0,1.4,15.03,37.3,706.5036,139.9993],
    [7823,1525545988,57.3719,-111.8752,540.4,201.4,352.6,-0.3,0.9,15.44,37.22,706.4226,140.0073],
    [7824,1525545989,57.3725,-111.8754,543.1,204.1,347.2,-0.3,1.0,15.19,37.59,706.3308,139.9932],
    [7825,1525545990,57.3731,-111.8757,545.6,206.6,341.2,-0.4,1.1,15.38,37.71,706.3355,140.0029],
    [7826,1525545991,57.3737,-111.8761,547.5,207.5,335.0,-0.4,2.1,15.39,37.79,706.4496,140.0027],
    [7827,1525545992,57.3742,-111.8766,548.9,207.9,328.7,0.2,2.0,15.2,37.6,706.5984,140.0012],
    [7828,1525545993,57.3747,-111.8772,549.9,206.8,323.3,0.1,2.5,15.11,37.24,706.6738,140.0019],
    [7829,1525545994,57.3751,-111.8779,550.7,206.7,318.1,0.4,3.0,15.31,37.53,706.5178,139.9984],
    [7830,1525545995,57.3755,-111.8785,551.1,206.4,314.4,0.2,3.3,14.84,37.54,706.4762,139.9988],
    [7831,1525545996,57.376,-111.8794,549.9,203.9,309.7,0.2,3.8,15.07,37.39,706.4582,140.0017],
    [7832,1525545997,57.3763,-111.8802,548.0,201.1,304.5,0.6,4.3,15.74,37.21,706.3949,139.9998],
    [7833,1525545998,57.3767,-111.8811,547.1,198.2,299.5,0.9,3.9,15.62,37.07,706.4253,140.0053],
    [7834,1525545999,57.377,-111.882,547.6,197.6,295.2,1.4,3.7,14.96,37.51,706.4772,140.0029],
    [7835,1525546000,57.3772,-111.883,548.7,198.8,291.5,1.4,3.9,15.62,37.38,706.4903,140.0014],
    [7836,1525546001,57.3775,-111.884,549.4,198.4,288.9,1.2,3.3,14.9,37.64,706.5161,140.0022],
    [7837,1525546002,57.3777,-111.8849,549.7,198.7,286.4,0.9,3.3,14.54,37.64,706.5291,139.9949],
    [7838,1525546003,57.3778,-111.886,549.5,197.5,282.4,1.0,4.4,15.97,37.26,706.5386,140.0032],
    [7839,1525546004,57.378,-111.887,549.1,197.1,279.0,1.5,4.8,15.45,37.4,706.6968,140.0036],
    [7840,1525546005,57.3781,-111.888,548.8,195.8,277.1,1.3,4.3,14.99,37.76,706.8126,140.0104],
    [7841,1525546006,57.3782,-111.889,548.5,195.5,275.8,1.2,3.2,15.11,37.92,706.7904,140.0042],
    [7842,1525546007,57.3783,-111.8901,548.4,195.4,274.2,1.7,2.8,15.67,37.43,706.7147,140.0001],
    [7843,1525546008,57.3783,-111.8912,547.9,194.9,272.2,1.1,3.1,14.95,37.68,706.6772,140.0025],
    [7844,1525546009,57.3784,-111.8922,546.7,193.7,270.5,0.6,3.4,14.91,38.05,706.7048,140.0018],
    [7845,1525546010,57.3784,-111.8932,545.1,192.1,267.4,0.3,4.6,15.26,37.53,706.5809,140.0004],
    [7846,1525546011,57.3784,-111.8943,544.9,190.0,265.2,0.0,5.0,14.95,37.35,706.495,139.9941],
    [7847,1525546012,57.3784,-111.8954,545.4,188.4,264.5,0.4,4.4,15.0,38.32,706.4843,140.0],
    [7848,1525546013,57.3784,-111.8964,546.0,186.7,264.0,0.7,4.2,15.33,37.39,706.5417,140.0036],
    [7849,1525546014,57.3784,-111.8974,546.3,185.0,264.4,0.0,3.4,15.12,38.34,706.5688,140.0039],
    [7850,1525546015,57.3783,-111.8984,547.0,184.1,263.8,0.0,3.7,15.1,37.87,706.526,140.0081],
    [7851,1525546016,57.3783,-111.8996,548.2,183.2,262.8,0.2,4.2,15.08,37.8,706.2622,139.9957],
    [7852,1525546017,57.3783,-111.9006,548.6,182.6,263.5,0.2,3.4,14.84,38.55,705.9619,139.994],
    [7853,1525546018,57.3782,-111.9016,548.5,181.4,263.9,0.4,3.0,15.31,37.99,705.6361,140.0095],
    [7854,1525546019,57.3782,-111.9027,548.1,180.1,264.4,-0.1,2.8,15.02,38.2,705.5993,140.007],
    [7855,1525546020,57.3782,-111.9037,548.9,179.9,263.7,-0.6,3.9,14.75,38.13,705.144,140.0012],
    [7856,1525546021,57.3781,-111.9047,551.4,180.4,264.1,0.3,3.7,14.95,38.11,704.8115,140.0014],
    [7857,1525546022,57.3781,-111.9058,554.7,180.6,264.8,0.4,3.4,15.71,37.69,704.59,139.9954],
    [7858,1525546023,57.3781,-111.9068,557.6,179.6,263.7,0.4,4.7,15.07,38.32,704.2285,140.0007],
    [7859,1525546024,57.3781,-111.9079,560.3,177.9,264.5,-0.2,3.9,15.41,37.66,704.1187,139.9957],
    [7860,1525546025,57.3781,-111.9089,563.5,178.0,265.4,-0.1,3.5,14.88,38.52,703.901,140.0099],
    [7861,1525546026,57.3781,-111.9099,567.6,178.8,265.1,0.1,4.4,14.53,38.0,703.5672,140.0006],
    [7862,1525546027,57.3781,-111.9109,571.1,180.4,266.1,0.4,3.8,15.0,37.91,703.3956,139.9949],
    [7863,1525546028,57.3781,-111.912,574.3,182.3,267.1,-0.1,3.4,15.0,38.04,703.3354,139.995],
    [7864,1525546029,57.3781,-111.913,577.2,183.1,267.2,0.7,3.9,15.04,38.51,703.3982,139.9987],
    [7865,1525546030,57.3781,-111.914,580.0,186.0,267.5,-0.4,3.9,14.82,37.88,703.6117,140.0048],
    [7866,1525546031,57.3781,-111.915,583.1,189.1,267.8,-0.2,3.8,14.96,37.81,703.7493,140.0002],
    [7867,1525546032,57.3781,-111.916,585.2,191.2,268.3,-0.6,3.5,14.95,37.77,703.7309,139.9986],
    [7868,1525546033,57.3781,-111.917,586.2,192.2,268.0,-0.4,3.9,14.71,38.19,703.7838,139.9945],
    [7869,1525546034,57.3781,-111.918,585.8,191.8,267.6,-0.6,4.1,15.21,37.99,703.9826,140.003],
    [7870,1525546035,57.3781,-111.919,584.2,190.2,267.5,-0.9,3.8,15.14,38.74,703.9592,139.9969],
    [7871,1525546036,57.3781,-111.92,582.2,187.4,267.6,-0.5,3.2,15.06,38.18,703.9473,139.9947],
    [7872,1525546037,57.3781,-111.9211,581.3,186.3,266.9,-0.2,3.5,15.39,37.66,703.6521,140.0041],
    [7873,1525546038,57.3781,-111.9222,580.0,185.0,266.6,0.4,3.0,15.01,38.26,703.4468,140.0001],
    [7874,1525546039,57.3781,-111.9232,578.9,183.9,266.9,0.0,1.9,15.02,38.8,703.3074,140.0015],
    [7875,1525546040,57.3781,-111.9242,578.7,182.7,265.1,-0.3,2.5,14.82,38.47,703.1259,139.9966],
    [7876,1525546041,57.3781,-111.9253,580.0,184.0,262.0,-0.7,3.4,14.77,38.42,703.0357,140.0012],
    [7877,1525546042,57.378,-111.9263,581.9,185.9,259.7,-0.3,2.7,15.0,38.35,703.0303,140.002],
    [7878,1525546043,57.3779,-111.9273,584.3,187.2,256.8,0.2,1.7,14.49,38.61,702.9477,139.9982],
    [7879,1525546044,57.3778,-111.9281,586.1,189.1,253.0,0.4,1.9,14.64,38.41,702.7837,139.9996],
    [7880,1525546045,57.3776,-111.9292,588.2,191.2,247.6,0.1,2.2,15.43,37.82,702.7039,140.0017],
    [7881,1525546046,57.3774,-111.9302,589.6,194.1,242.1,-0.3,2.4,14.27,38.48,702.5263,139.9995],
    [7882,1525546047,57.3771,-111.9311,590.3,199.3,237.0,-0.6,2.1,14.86,38.38,702.5485,139.9986],
    [7883,1525546048,57.3768,-111.932,590.7,205.1,232.5,-0.3,2.1,14.83,38.79,702.2206,140.0049],
    [7884,1525546049,57.3765,-111.9328,591.8,210.4,227.6,0.2,3.1,15.22,38.27,702.3941,139.992],
    [7885,1525546050,57.3761,-111.9336,593.8,217.1,222.9,-0.5,2.9,14.77,39.16,702.2952,139.9933],
    [7886,1525546051,57.3757,-111.9343,595.7,220.6,220.4,0.0,1.0,14.84,38.41,702.1765,139.9966],
    [7887,1525546052,57.3753,-111.9349,596.1,220.0,218.2,0.9,-0.2,14.61,38.15,702.095,139.9902],
    [7888,1525546053,57.3748,-111.9355,596.7,218.7,213.1,-0.3,-0.5,14.43,37.97,701.7429,140.0029],
    [7889,1525546054,57.3743,-111.936,597.5,214.3,210.3,0.7,0.3,14.98,37.64,701.9323,140.0009],
    [7890,1525546055,57.3739,-111.9365,597.9,207.5,207.6,0.4,0.3,14.73,37.98,701.7903,140.0002],
    [7891,1525546056,57.3733,-111.937,598.4,201.8,202.6,-1.6,2.7,15.07,37.62,701.7011,140.0086],
    [7892,1525546057,57.3728,-111.9374,599.3,200.2,201.2,-0.2,3.4,14.59,37.34,701.6904,140.0011],
    [7893,1525546058,57.3723,-111.9378,600.7,199.7,200.4,0.8,3.0,14.62,37.09,701.5171,140.0069],
    [7894,1525546059,57.3718,-111.9381,601.5,199.5,198.5,1.0,2.7,15.28,37.02,701.5497,139.9978],
    [7895,1525546060,57.3712,-111.9384,602.4,199.7,198.6,2.7,1.8,14.94,36.67,701.445,139.9982],
    [7896,1525546061,57.3707,-111.9387,603.6,200.5,196.2,1.4,0.7,15.16,35.78,701.5749,139.9986],
    [7897,1525546062,57.3701,-111.939,604.1,202.0,195.1,2.7,2.0,14.83,35.96,701.6577,139.9806],
    [7898,1525546063,57.3695,-111.9392,605.6,203.6,192.6,2.8,-0.6,15.0,35.63,701.8566,139.9977],
    [7899,1525546064,57.369,-111.9394,606.1,205.3,189.5,2.4,-0.3,15.04,36.06,702.0976,139.9962],
    [7900,1525546065,57.3684,-111.9395,606.7,207.0,188.3,3.5,-1.2,15.06,35.24,702.649,139.9965],
    [7901,1525546066,57.3678,-111.9396,605.8,207.8,186.0,2.7,-1.0,15.07,35.31,702.8594,139.9868],
    [7902,1525546067,57.3672,-111.9396,604.5,209.5,185.5,3.6,-0.1,14.97,34.82,703.2289,140.0052],
    [7903,1525546068,57.3666,-111.9397,602.5,210.2,186.1,4.9,-1.4,14.8,34.47,703.4315,139.9867],
    [7904,1525546069,57.366,-111.9397,598.9,208.3,186.9,6.3,-1.2,14.81,34.17,703.7772,140.0029],
    [7905,1525546070,57.3654,-111.9397,594.7,204.7,186.3,6.4,-0.2,15.06,33.82,703.9135,139.9943],
    [7906,1525546071,57.3648,-111.9397,589.7,198.0,185.6,6.0,1.1,15.01,33.39,703.9428,140.005],
    [7907,1525546072,57.3642,-111.9397,585.8,191.1,185.8,6.2,-0.1,15.11,32.99,704.2367,140.0034],
    [7908,1525546073,57.3635,-111.9398,583.0,186.7,186.9,6.9,-0.5,15.74,32.1,704.3734,140.0011],
    [7909,1525546074,57.3629,-111.9398,580.1,182.1,188.1,8.1,-0.6,15.06,32.24,704.5246,140.0004],
    [7910,1525546075,57.3622,-111.9398,577.0,178.8,188.8,9.3,-0.5,15.31,31.77,704.4943,139.9987],
    [7911,1525546076,57.3616,-111.9398,575.5,176.5,187.6,8.3,-0.6,15.46,31.35,704.4188,140.0012],
    [7912,1525546077,57.361,-111.9399,573.4,174.1,186.4,7.1,-1.4,16.13,30.65,704.3572,140.0066],
    [7913,1525546078,57.3603,-111.9399,571.5,171.5,185.4,6.5,-1.0,15.27,31.02,704.2256,140.0047],
    [7914,1525546079,57.3597,-111.9399,570.0,170.0,186.3,7.7,-1.3,15.29,30.33,704.2256,140.0047],
    [7915,1525546080,57.359,-111.9399,569.9,169.9,186.1,7.7,-0.3,15.55,30.19,704.3462,140.0066],
    [7916,1525546081,57.3584,-111.9399,570.5,170.6,186.3,8.1,-0.5,15.45,30.11,704.4851,139.9897],
    [7917,1525546082,57.3577,-111.9399,571.2,171.2,186.5,8.1,-1.2,15.46,29.77,704.6171,139.9881],
    [7918,1525546083,57.3571,-111.9398,572.1,172.1,185.6,7.4,-0.9,15.07,29.85,704.6936,139.9924],
    [7919,1525546084,57.3565,-111.9398,572.2,172.1,186.0,7.9,-0.7,15.61,30.02,704.7456,140.006],
    [7920,1525546085,57.3558,-111.9398,571.4,171.9,185.9,7.6,-2.1,15.67,29.77,704.6751,140.0055],
    [7921,1525546086,57.3552,-111.9398,570.2,170.9,186.0,7.1,-1.4,15.19,29.62,704.5145,140.0125],
    [7922,1525546087,57.3546,-111.9398,568.6,169.5,185.5,6.4,-0.3,15.83,29.74,704.402,140.0097],
    [7923,1525546088,57.3539,-111.9398,566.8,168.4,187.4,8.3,-0.4,16.25,28.96,704.6244,139.9969],
    [7924,1525546089,57.3532,-111.9399,566.0,167.9,186.0,6.1,0.5,15.86,29.45,704.4213,140.0106],
    [7925,1525546090,57.3526,-111.9399,567.2,170.0,183.6,3.6,-0.2,16.39,28.91,704.1791,139.9898],
    [7926,1525546091,57.3519,-111.9399,568.8,174.1,182.3,1.9,-2.2,15.69,29.43,704.0624,139.9861],
    [7927,1525546092,57.3513,-111.9399,569.0,176.9,182.5,3.1,-2.9,15.98,29.54,703.9847,139.9929],
    [7928,1525546093,57.3507,-111.9399,568.4,179.2,187.1,8.0,-2.9,16.05,30.09,703.9778,139.9878],
    [7929,1525546094,57.35,-111.9399,569.9,181.4,184.5,4.3,-3.6,16.6,29.08,703.8723,139.9937],
    [7930,1525546095,57.3493,-111.9399,572.3,181.0,181.9,2.4,-1.3,15.88,29.77,703.5649,140.0047],
    [7931,1525546096,57.3487,-111.9399,573.9,181.9,184.8,6.4,-0.6,16.26,29.62,703.4214,140.002],
    [7932,1525546097,57.3481,-111.9399,575.2,184.3,185.0,6.4,0.0,15.71,29.44,703.1805,139.9904],
    [7933,1525546098,57.3474,-111.9399,575.9,184.8,182.9,4.3,1.3,16.14,29.88,702.9449,140.0041],
    [7934,1525546099,57.3467,-111.9399,577.0,186.2,184.1,5.0,0.6,16.7,29.28,702.8538,139.9957],
    [7935,1525546100,57.3461,-111.9399,578.7,187.7,181.2,0.9,2.0,15.71,29.62,702.5634,139.9826],
    [7936,1525546101,57.3455,-111.9399,581.5,189.4,182.2,2.5,2.3,16.19,29.85,702.3264,139.9942],
    [7937,1525546102,57.3449,-111.94,583.8,192.8,185.8,6.6,2.4,16.22,30.67,702.111,140.0103],
    [7938,1525546103,57.3442,-111.94,586.1,196.0,186.9,8.3,2.9,16.11,31.51,702.1507,139.9997],
    [7939,1525546104,57.3436,-111.94,588.9,200.9,188.2,10.5,2.2,16.61,31.09,702.3291,139.9973],
    [7940,1525546105,57.343,-111.94,591.5,205.5,188.0,10.7,3.7,16.12,31.27,702.4539,140.0054],
    [7941,1525546106,57.3423,-111.9399,594.3,211.1,185.4,8.2,4.7,16.12,31.24,702.6928,140.004],
    [7942,1525546107,57.3417,-111.9399,596.7,213.7,184.8,8.2,3.0,15.8,30.21,702.915,139.9947],
    [7943,1525546108,57.3411,-111.9399,597.8,212.7,185.1,9.1,2.5,16.16,29.99,702.8158,140.0122],
    [7944,1525546109,57.3405,-111.9398,596.5,208.1,186.2,10.6,2.2,15.52,29.8,702.9378,139.9944],
    [7945,1525546110,57.3398,-111.9398,594.5,204.5,185.7,9.9,2.0,16.29,29.54,703.205,140.0015],
    [7946,1525546111,57.3392,-111.9397,592.5,201.9,185.6,9.7,1.4,16.13,29.52,703.3623,139.9908],
    [7947,1525546112,57.3386,-111.9397,590.3,199.3,185.7,9.5,1.4,15.67,29.36,703.6807,140.0022],
    [7948,1525546113,57.338,-111.9397,589.0,198.0,186.2,9.2,0.0,15.59,29.17,703.837,140.0005],
    [7949,1525546114,57.3373,-111.9396,588.5,198.5,186.3,9.3,1.5,16.33,28.89,703.8103,139.9982],
    [7950,1525546115,57.3367,-111.9396,586.4,197.5,186.7,9.4,1.7,16.39,28.94,703.598,139.997],
    [7951,1525546116,57.336,-111.9396,583.6,194.9,186.7,9.3,1.8,16.05,29.11,703.5538,140.0162],
    [7952,1525546117,57.3354,-111.9396,580.8,192.8,187.4,9.5,1.6,16.08,29.15,703.1819,140.0081],
    [7953,1525546118,57.3348,-111.9396,578.0,190.7,187.1,9.1,3.0,16.51,28.51,703.1138,140.0065],
    [7954,1525546119,57.3341,-111.9396,577.0,190.0,188.1,9.5,2.2,16.28,28.56,703.4776,139.9868],
    [7955,1525546120,57.3335,-111.9396,579.0,192.3,188.2,9.6,3.1,16.77,28.39,703.6883,140.0027],
    [7956,1525546121,57.3328,-111.9397,581.4,195.4,187.6,8.4,1.0,16.17,29.21,703.6629,140.0088],
    [7957,1525546122,57.3323,-111.9397,582.7,197.4,185.0,4.7,-1.6,15.87,29.8,703.6397,139.983],
    [7958,1525546123,57.3316,-111.9397,584.0,199.7,185.6,6.0,0.0,16.06,30.23,703.85,139.9916],
    [7959,1525546124,57.3309,-111.9397,582.3,198.3,193.2,14.2,-1.9,16.47,29.74,703.98,139.9952],
    [7960,1525546125,57.3303,-111.9398,580.6,197.6,191.8,11.6,-1.4,15.85,30.26,704.168,140.0002],
    [7961,1525546126,57.3297,-111.9398,580.5,198.2,188.9,8.3,-1.0,16.24,30.17,704.2608,140.0004],
    [7962,1525546127,57.329,-111.9399,580.2,198.2,190.7,10.6,-1.2,16.02,29.81,704.4292,139.9963],
    [7963,1525546128,57.3283,-111.9399,578.3,197.2,189.8,9.7,-0.8,15.58,29.94,704.6023,139.9926],
    [7964,1525546129,57.3277,-111.9399,576.4,195.4,187.2,7.4,0.3,15.93,29.83,704.744,140.004],
    [7965,1525546130,57.3271,-111.94,574.8,194.8,186.0,6.7,1.9,16.33,30.3,704.7778,139.9995],
    [7966,1525546131,57.3264,-111.94,573.3,193.3,184.5,5.3,1.8,15.62,30.4,704.8264,139.997],
    [7967,1525546132,57.3258,-111.94,572.3,192.3,182.5,3.4,1.8,16.24,30.78,704.8545,140.002],
    [7968,1525546133,57.3251,-111.94,570.4,191.4,182.1,3.2,1.8,16.07,31.26,704.9061,139.9972],
    [7969,1525546134,57.3245,-111.94,568.1,189.1,181.9,3.5,1.6,16.42,31.7,704.9657,140.0045],
    [7970,1525546135,57.3239,-111.9399,567.4,189.4,181.3,3.1,1.0,16.58,31.63,705.0332,139.9973],
    [7971,1525546136,57.3232,-111.9399,566.5,188.5,181.0,3.3,2.0,16.33,32.28,705.1217,140.0064],
    [7972,1525546137,57.3226,-111.9399,565.3,188.2,181.6,4.1,2.4,16.64,32.46,705.0834,140.0067],
    [7973,1525546138,57.3221,-111.9398,565.1,188.0,180.7,3.2,2.7,16.22,33.67,705.127,140.0072],
    [7974,1525546139,57.3214,-111.9398,564.2,189.2,180.6,2.7,2.5,16.36,33.43,705.217,140.0012],
    [7975,1525546140,57.3207,-111.9398,562.8,188.5,181.4,3.6,3.6,16.74,33.39,705.2452,140.0018],
    [7976,1525546141,57.32,-111.9397,562.3,188.3,183.2,5.6,2.2,16.46,33.78,705.1182,139.9987],
    [7977,1525546142,57.3194,-111.9397,562.7,189.7,182.5,4.4,1.0,15.66,34.22,704.9756,140.0116],
    [7978,1525546143,57.3188,-111.9397,562.5,189.5,179.2,1.9,1.7,16.09,34.45,704.9843,140.0107],
    [7979,1525546144,57.3182,-111.9396,561.4,189.4,177.7,3.3,1.4,16.23,35.16,705.0946,139.9987],
    [7980,1525546145,57.3176,-111.9395,561.0,190.1,173.7,2.9,2.6,16.33,34.59,705.0792,139.993],
    [7981,1525546146,57.317,-111.9393,561.7,191.7,168.9,2.5,3.0,16.08,35.01,704.8999,139.9937],
    [7982,1525546147,57.3164,-111.9389,563.2,195.3,165.3,3.5,2.6,16.13,35.21,704.7881,139.992],
    [7983,1525546148,57.3158,-111.9385,563.7,196.7,162.5,5.1,3.2,16.1,35.83,704.8943,139.9895],
    [7984,1525546149,57.3153,-111.9381,563.4,197.4,158.9,6.1,3.8,16.26,35.03,705.0558,139.9998],
    [7985,1525546150,57.3147,-111.9375,563.4,198.4,151.1,2.5,3.6,15.68,35.4,705.1972,140.0008],
    [7986,1525546151,57.3142,-111.9369,564.5,199.5,144.4,2.4,3.4,16.47,35.01,705.55,139.9986],
    [7987,1525546152,57.3138,-111.9361,565.9,200.9,142.2,4.1,5.0,16.13,34.99,705.8418,140.0063],
    [7988,1525546153,57.3133,-111.9353,565.5,201.2,138.6,4.1,5.4,15.96,35.23,705.9928,140.0038],
    [7989,1525546154,57.3129,-111.9345,564.0,200.0,133.4,2.9,4.7,16.44,34.89,706.3347,139.999],
    [7990,1525546155,57.3126,-111.9335,561.5,197.5,127.0,1.1,3.6,15.89,35.23,706.6453,139.9968],
    [7991,1525546156,57.3123,-111.9326,559.0,194.9,123.8,1.9,4.2,16.08,35.08,706.8779,139.9954],
    [7992,1525546157,57.312,-111.9316,556.1,193.1,119.2,2.5,3.4,16.22,35.12,707.5963,140.0084],
    [7993,1525546158,57.3117,-111.9305,553.2,191.3,115.0,3.2,3.0,16.33,34.54,708.2163,140.0043],
    [7994,1525546159,57.3115,-111.9295,550.7,188.7,112.5,4.2,4.0,15.98,34.92,708.4029,139.9948],
    [7995,1525546160,57.3113,-111.9285,547.6,186.6,109.9,4.0,4.3,15.55,35.14,708.7071,140.0002],
    [7996,1525546161,57.3112,-111.9272,542.0,182.0,106.8,3.6,4.3,15.67,35.24,709.0622,139.9973],
    [7997,1525546162,57.3111,-111.9261,536.1,177.1,103.5,4.3,4.0,16.23,34.97,709.4028,139.9991],
    [7998,1525546163,57.311,-111.9249,529.5,171.5,99.7,5.2,3.2,15.81,35.22,709.4863,139.9926],
    [7999,1525546164,57.3109,-111.9237,524.0,167.0,95.8,3.6,2.4,16.41,34.74,709.7862,139.9998],
    [8000,1525546165,57.3109,-111.9227,521.4,165.5,92.1,3.2,1.5,16.52,34.75,710.3268,139.995],
    [8001,1525546166,57.3109,-111.9214,517.7,162.7,92.9,3.7,4.6,16.17,34.89,710.7816,140.0065],
    [8002,1525546167,57.3109,-111.9202,514.2,159.8,92.5,5.0,5.6,15.76,35.14,711.1347,139.9972],
    [8003,1525546168,57.3109,-111.919,510.9,157.7,90.6,4.1,5.1,15.85,34.99,711.3478,139.9981],
    [8004,1525546169,57.311,-111.9178,506.2,154.3,90.2,3.1,6.3,15.96,35.04,711.4496,140.0073],
    [8005,1525546170,57.3111,-111.9167,501.5,150.5,89.2,1.8,7.0,15.85,35.28,711.648,139.9962],
    [8006,1525546171,57.3111,-111.9154,496.2,145.2,88.3,2.0,7.3,16.33,34.66,711.9146,140.0015],
    [8007,1525546172,57.3112,-111.9141,490.6,140.6,88.7,1.4,8.1,15.76,35.08,712.6459,140.0013],
    [8008,1525546173,57.3113,-111.9129,487.5,137.5,87.9,0.9,6.8,15.94,34.76,713.0327,140.0007],
    [8009,1525546174,57.3114,-111.9117,486.5,137.5,85.9,0.9,4.5,16.04,34.69,713.1627,139.9978],
    [8010,1525546175,57.3115,-111.9105,484.2,135.9,86.0,0.4,4.4,15.71,35.1,713.3651,140.0056],
    [8011,1525546176,57.3116,-111.9093,481.0,133.0,88.8,1.4,6.6,15.84,34.87,713.332,140.0106],
    [8012,1525546177,57.3116,-111.9082,476.9,129.8,89.6,2.7,6.4,15.85,35.26,713.2256,140.0067],
    [8013,1525546178,57.3117,-111.9069,471.0,124.0,92.1,3.1,7.4,16.04,35.22,712.9619,139.9925],
    [8014,1525546179,57.3117,-111.9057,466.4,120.3,92.4,2.1,6.2,16.16,34.65,712.8209,140.0],
    [8015,1525546180,57.3117,-111.9045,463.9,117.9,90.6,1.0,4.7,16.09,34.64,712.7598,139.9984],
    [8016,1525546181,57.3118,-111.9033,464.4,118.4,90.9,1.8,7.8,16.28,34.58,712.5644,140.0021],
    [8017,1525546182,57.3119,-111.9021,466.4,121.4,88.2,2.3,7.7,16.25,34.36,712.0594,139.991],
    [8018,1525546183,57.312,-111.9009,468.8,123.8,81.5,2.6,6.3,15.71,34.61,711.8877,139.9929],
    [8019,1525546184,57.3122,-111.8997,471.3,127.3,75.5,2.1,5.4,15.81,34.57,711.6377,140.0027],
    [8020,1525546185,57.3124,-111.8987,473.6,129.6,69.6,2.1,5.2,15.92,34.79,711.5624,139.9965],
    [8021,1525546186,57.3127,-111.8976,476.8,133.8,62.8,2.5,6.1,16.24,34.5,711.6916,140.0016],
    [8022,1525546187,57.313,-111.8966,479.7,137.7,56.4,1.2,4.4,16.18,34.47,711.6605,139.9919],
    [8023,1525546188,57.3134,-111.8957,482.1,141.1,51.3,1.1,4.5,16.33,34.34,711.7343,139.9973],
    [8024,1525546189,57.3139,-111.8948,484.4,144.5,45.9,1.4,3.3,16.01,34.8,711.8125,139.9916],
    [8025,1525546190,57.3143,-111.8941,486.2,146.2,42.2,1.7,2.6,16.29,34.66,711.9592,139.9953],
    [8026,1525546191,57.3148,-111.8933,486.4,146.4,40.0,1.0,3.3,16.07,34.63,712.1791,139.9962],
    [8027,1525546192,57.3153,-111.8926,486.1,146.1,37.1,0.2,3.4,16.13,35.22,712.5739,139.9999],
    [8028,1525546193,57.3158,-111.892,485.6,145.6,34.4,0.3,3.9,15.69,34.74,712.688,140.0029],
    [8029,1525546194,57.3163,-111.8914,484.9,145.9,29.9,1.6,3.0,15.58,34.98,713.111,140.0021],
    [8030,1525546195,57.3169,-111.8908,482.7,144.8,27.2,0.3,3.6,16.27,34.83,713.4742,140.001],
    [8031,1525546196,57.3174,-111.8904,480.6,142.6,24.8,-0.1,4.2,16.13,35.37,713.4742,140.001],
    [8032,1525546197,57.3181,-111.8899,476.7,137.7,20.2,1.3,3.6,16.32,34.75,713.4739,140.0097],
    [8033,1525546198,57.3187,-111.8895,471.8,131.8,17.4,2.1,3.8,16.74,34.75,713.5203,139.9966],
    [8034,1525546199,57.3193,-111.8892,467.3,127.3,14.8,2.3,2.9,16.27,34.72,713.5673,139.9987],
    [8035,1525546200,57.3199,-111.8889,464.6,125.6,15.5,0.4,3.6,16.29,35.28,713.7673,140.0053],
    [8036,1525546201,57.3206,-111.8885,463.3,125.3,15.9,-0.5,3.8,16.68,34.5,713.6743,140.0049],
    [8037,1525546202,57.3212,-111.8883,463.5,126.5,14.7,0.5,3.8,15.59,35.02,713.6691,140.0053],
    [8038,1525546203,57.3218,-111.888,463.3,127.0,14.9,-0.2,4.3,16.13,35.71,713.5367,139.9994],
    [8039,1525546204,57.3225,-111.8877,462.2,126.5,12.9,0.9,4.5,15.59,35.06,713.4859,140.0009],
    [8040,1525546205,57.3231,-111.8874,461.3,126.6,9.8,1.9,3.4,15.53,35.0,713.2837,139.9964],
    [8041,1525546206,57.3238,-111.8872,460.6,126.6,7.0,2.6,2.7,15.99,35.34,713.2627,139.9985],
    [8042,1525546207,57.3244,-111.8871,461.7,127.7,6.1,1.6,2.3,16.14,35.74,712.8764,140.0079],
    [8043,1525546208,57.325,-111.8869,462.9,128.9,8.1,-1.0,3.5,16.12,35.75,712.8464,140.0068],
    [8044,1525546209,57.3257,-111.8868,463.7,129.7,7.5,-0.5,3.7,16.22,35.42,712.58,139.9987],
    [8045,1525546210,57.3263,-111.8866,465.4,131.4,7.1,-0.3,2.8,16.02,34.88,712.3997,140.0012],
    [8046,1525546211,57.3269,-111.8865,466.9,131.9,7.4,-0.5,4.0,16.13,35.01,711.8318,139.998],
    [8047,1525546212,57.3276,-111.8864,469.0,133.1,5.8,1.8,4.1,16.62,34.61,711.5689,139.9987],
    [8048,1525546213,57.3282,-111.8862,471.9,134.6,6.0,2.0,4.2,16.23,34.85,711.3873,140.0022],
    [8049,1525546214,57.3288,-111.8861,474.4,136.4,8.4,0.5,4.3,16.75,34.28,711.1339,139.9984],
    [8050,1525546215,57.3295,-111.8859,477.2,138.2,8.4,1.5,3.8,15.87,34.61,710.9115,139.9928],
    [8051,1525546216,57.3301,-111.8857,481.0,143.1,9.1,1.4,4.1,16.62,34.03,710.8324,140.0034],
    [8052,1525546217,57.3306,-111.8855,485.3,147.3,10.0,0.4,4.3,16.23,34.46,710.9661,139.993],
    [8053,1525546218,57.3313,-111.8853,488.9,149.9,9.3,1.0,4.0,16.15,34.94,710.9781,139.9978],
    [8054,1525546219,57.3319,-111.8851,491.8,152.8,9.6,0.3,4.2,15.92,34.82,710.8876,140.0001],
    [8055,1525546220,57.3325,-111.8849,494.0,155.0,10.8,-1.0,3.4,15.99,34.88,710.8582,139.9994],
    [8056,1525546221,57.3331,-111.8848,495.9,156.9,8.8,0.8,2.8,16.2,34.96,711.0017,139.9939],
    [8057,1525546222,57.3337,-111.8846,495.2,156.2,9.7,-0.5,3.1,16.12,35.17,711.2675,139.9945],
    [8058,1525546223,57.3343,-111.8844,494.7,155.7,10.3,-1.0,3.4,16.08,35.27,711.928,140.0052],
    [8059,1525546224,57.3349,-111.8842,494.7,155.7,9.8,-0.4,3.4,16.25,34.53,712.2296,140.0064],
    [8060,1525546225,57.3355,-111.8841,495.3,156.3,8.5,0.5,3.4,16.22,34.87,712.4091,140.001],
    [8061,1525546226,57.3361,-111.8839,494.2,155.6,7.3,0.8,2.8,16.3,34.93,712.407,140.0035],
    [8062,1525546227,57.3367,-111.8838,490.0,152.1,7.4,-0.1,3.0,16.07,35.66,712.486,139.9985],
    [8063,1525546228,57.3373,-111.8836,484.3,145.3,6.7,0.2,3.5,16.03,35.17,712.5416,139.9987],
    [8064,1525546229,57.3379,-111.8835,479.9,140.9,5.5,1.2,3.2,15.9,35.13,712.5077,139.9984],
    [8065,1525546230,57.3385,-111.8834,477.7,138.7,5.5,1.4,3.3,16.07,35.49,712.5697,139.9974],
    [8066,1525546231,57.3391,-111.8833,477.3,138.3,6.3,1.0,3.7,16.11,35.79,712.5999,139.9971],
    [8067,1525546232,57.3397,-111.8831,476.7,138.7,5.9,1.7,3.8,16.04,35.15,712.7505,140.0049],
    [8068,1525546233,57.3403,-111.883,476.1,139.1,6.2,1.8,3.2,15.99,35.09,712.9424,140.0013],
    [8069,1525546234,57.341,-111.8828,476.0,139.7,6.3,2.1,3.1,15.58,34.98,713.0649,140.0043],
    [8070,1525546235,57.3416,-111.8827,475.8,139.9,6.9,2.0,3.4,16.11,34.99,713.1488,139.9973],
    [8071,1525546236,57.3422,-111.8825,474.9,139.2,7.3,2.2,3.5,16.07,35.77,713.1744,139.9987],
    [8072,1525546237,57.3427,-111.8823,473.9,137.9,7.9,2.1,3.6,16.04,35.14,713.4006,139.9938],
    [8073,1525546238,57.3434,-111.8821,472.5,135.4,9.0,1.4,4.3,15.91,35.31,713.6523,140.0],
    [8074,1525546239,57.344,-111.882,470.8,132.7,7.7,2.6,4.7,15.87,35.44,714.005,139.9998],
    [8075,1525546240,57.3446,-111.8818,469.1,131.1,7.1,2.5,4.4,16.01,35.48,714.0564,140.0012],
    [8076,1525546241,57.3452,-111.8816,467.5,129.1,6.7,2.3,4.5,15.77,35.4,714.3052,140.0079],
    [8077,1525546242,57.3458,-111.8814,465.6,127.6,5.9,2.3,4.4,16.18,35.04,714.319,140.001],
    [8078,1525546243,57.3464,-111.8813,462.7,124.7,5.8,1.8,4.4,15.88,35.11,714.229,139.9988],
    [8079,1525546244,57.347,-111.8812,459.7,121.7,5.5,1.8,3.6,15.78,35.52,714.147,139.9995],
    [8080,1525546245,57.3477,-111.881,457.0,119.2,5.8,1.3,3.8,15.81,35.72,714.0538,139.9994],
    [8081,1525546246,57.3483,-111.8809,455.1,116.1,6.1,1.3,3.9,15.97,35.93,714.0538,139.9994],
    [8082,1525546247,57.3489,-111.8808,454.3,115.0,5.2,2.4,3.9,15.71,35.8,714.0426,139.9973],
    [8083,1525546248,57.3495,-111.8806,454.8,114.8,5.7,1.8,3.7,16.13,36.2,714.0158,140.0038],
    [8084,1525546249,57.3502,-111.8805,456.0,117.0,6.1,1.4,3.9,16.29,35.51,713.9232,139.9996],
    [8085,1525546250,57.3507,-111.8804,456.9,117.9,5.9,1.7,3.9,16.16,35.53,713.9612,139.9963],
    [8086,1525546251,57.3514,-111.8802,457.4,119.4,5.6,2.1,3.9,15.58,35.64,714.0318,140.0013],
    [8087,1525546252,57.352,-111.8801,457.5,119.8,6.3,1.7,3.3,15.66,35.83,714.0823,140.0003],
    [8088,1525546253,57.3527,-111.8799,457.9,120.9,7.0,1.1,2.9,16.5,35.49,714.0078,140.0018],
    [8089,1525546254,57.3533,-111.8798,458.5,121.5,7.9,0.4,3.1,15.6,35.59,713.8964,140.001],
    [8090,1525546255,57.3539,-111.8796,458.2,121.2,8.1,0.2,3.0,15.75,35.57,713.8181,140.0047],
    [8091,1525546256,57.3545,-111.8794,457.6,120.6,7.8,0.4,2.9,15.97,36.0,713.5132,140.0036],
    [8092,1525546257,57.3551,-111.8793,457.3,120.3,7.0,0.9,2.9,15.84,35.56,713.2672,139.9972],
    [8093,1525546258,57.3557,-111.8791,458.1,121.1,6.5,0.9,2.2,15.97,36.2,713.218,140.0018],
    [8094,1525546259,57.3564,-111.879,459.8,121.7,6.2,0.7,2.2,15.95,35.35,713.1046,139.9946],
    [8095,1525546260,57.357,-111.8789,461.6,123.6,6.7,0.1,2.1,16.0,36.08,713.0973,139.9978],
    [8096,1525546261,57.3576,-111.8787,464.0,125.0,6.0,0.7,1.8,15.58,35.77,713.1014,140.0039],
    [8097,1525546262,57.3582,-111.8786,466.2,126.4,6.4,0.2,1.8,15.92,35.66,713.2501,139.9929],
    [8098,1525546263,57.3587,-111.8785,467.7,127.6,6.7,-0.1,1.8,16.01,35.97,713.2286,139.9959],
    [8099,1525546264,57.3594,-111.8784,468.8,129.8,6.7,-0.2,2.1,15.94,36.31,713.3351,140.0026],
    [8100,1525546265,57.36,-111.8782,469.2,130.5,7.0,-0.4,2.0,16.17,35.23,713.3457,140.001],
    [8101,1525546266,57.3606,-111.8781,469.3,131.3,6.8,0.4,2.2,15.99,36.46,713.2258,140.0003],
    [8102,1525546267,57.3612,-111.878,468.3,130.3,7.2,0.6,2.0,16.19,35.67,713.2002,139.9996],
    [8103,1525546268,57.3618,-111.8778,467.4,129.4,8.4,0.3,2.4,16.35,36.01,713.2064,140.0013],
    [8104,1525546269,57.3624,-111.8777,466.5,127.5,9.2,0.1,2.3,15.93,36.39,713.2018,139.9985],
    [8105,1525546270,57.3629,-111.8775,466.3,127.3,8.9,0.5,1.3,15.79,36.63,713.1872,140.0],
    [8106,1525546271,57.3635,-111.8773,466.9,126.9,9.1,0.3,1.1,15.44,36.58,713.3029,139.9995],
    [8107,1525546272,57.3641,-111.8771,467.7,127.7,9.2,0.3,1.2,15.85,37.01,713.3333,139.9996],
    [8108,1525546273,57.3647,-111.8769,468.2,128.2,8.4,1.3,1.5,16.06,36.34,713.3919,139.9965],
    [8109,1525546274,57.3653,-111.8768,468.3,129.3,8.2,1.4,1.3,15.79,36.42,713.4673,140.005],
    [8110,1525546275,57.3659,-111.8766,468.1,129.1,8.7,1.3,1.8,15.8,36.19,713.4615,139.9977],
    [8111,1525546276,57.3664,-111.8764,467.7,128.7,8.7,1.6,2.0,15.82,36.15,713.4217,139.9988],
    [8112,1525546277,57.3671,-111.8762,466.9,127.9,9.5,0.8,2.1,15.87,36.32,713.3589,140.0042],
    [8113,1525546278,57.3676,-111.876,466.1,127.3,10.3,0.2,2.3,16.0,36.11,713.1741,139.9985],
    [8114,1525546279,57.3682,-111.8758,465.3,127.3,9.4,1.1,2.1,15.73,36.1,712.9954,140.0023],
    [8115,1525546280,57.3688,-111.8756,465.2,127.2,8.9,1.2,1.9,15.52,36.03,712.9889,140.0042],
    [8116,1525546281,57.3694,-111.8755,465.8,127.8,9.2,0.3,1.8,15.96,36.2,712.8383,139.9948],
    [8117,1525546282,57.37,-111.8753,466.7,127.7,9.5,-0.5,2.6,15.85,36.07,712.7229,140.0023],
    [8118,1525546283,57.3706,-111.8751,468.3,129.3,9.0,-1.3,2.5,15.76,36.26,712.6364,140.0081],
    [8119,1525546284,57.3711,-111.875,470.3,131.3,7.4,-1.4,2.3,16.21,36.18,712.4973,140.0039],
    [8120,1525546285,57.3717,-111.8749,471.7,132.7,3.6,-0.2,2.1,15.51,36.38,712.3614,140.009],
    [8121,1525546286,57.3723,-111.8749,473.3,134.3,359.5,0.3,2.4,16.04,36.8,712.2406,140.0044],
    [8122,1525546287,57.3729,-111.8749,474.7,135.7,355.0,0.3,2.0,16.38,36.38,711.8978,139.9999],
    [8123,1525546288,57.3735,-111.8751,476.0,137.0,349.2,1.3,2.4,16.35,36.1,711.829,140.0004],
    [8124,1525546289,57.3741,-111.8753,477.7,137.6,342.5,2.3,2.4,15.64,36.9,711.719,139.9977],
    [8125,1525546290,57.3746,-111.8756,479.9,138.9,337.4,1.8,2.7,15.84,36.63,711.6901,140.0032],
    [8126,1525546291,57.3751,-111.876,482.4,140.3,332.0,1.7,3.4,16.2,36.31,711.5761,139.9937],
    [8127,1525546292,57.3756,-111.8765,484.5,141.4,326.8,1.6,3.4,15.58,36.39,711.5196,140.0035],
    [8128,1525546293,57.3761,-111.877,485.8,142.9,322.5,0.9,3.2,15.68,36.59,711.3682,139.9987],
    [8129,1525546294,57.3765,-111.8777,486.4,142.2,317.3,1.4,3.0,15.3,36.38,711.1833,140.0062],
    [8130,1525546295,57.3769,-111.8784,487.1,142.3,311.0,1.9,3.3,15.73,36.26,711.0353,140.0058],
    [8131,1525546296,57.3773,-111.8791,487.8,141.8,306.7,1.5,2.8,15.92,36.38,710.9484,140.0075],
    [8132,1525546297,57.3776,-111.8799,489.0,141.9,302.3,1.1,2.6,15.84,37.08,710.8653,140.0007],
    [8133,1525546298,57.3779,-111.8807,490.7,141.6,298.2,1.4,2.3,16.24,36.41,710.8934,140.0038],
    [8134,1525546299,57.3782,-111.8816,492.9,143.6,293.2,1.1,3.1,15.85,36.89,710.8223,139.9972],
    [8135,1525546300,57.3784,-111.8826,494.7,143.7,288.5,0.9,3.5,15.81,36.82,710.7703,139.9952],
    [8136,1525546301,57.3786,-111.8835,495.7,144.3,283.2,1.0,4.1,15.81,37.53,710.8555,140.0009],
    [8137,1525546302,57.3787,-111.8844,496.3,144.3,278.3,1.0,5.0,15.85,36.72,710.7778,139.9991],
    [8138,1525546303,57.3788,-111.8854,496.5,144.5,274.4,0.9,5.6,16.03,36.38,710.6886,140.001],
    [8139,1525546304,57.3789,-111.8864,496.8,143.8,272.2,0.2,5.2,15.94,37.13,710.748,139.9976],
    [8140,1525546305,57.3789,-111.8874,497.5,144.5,270.9,0.3,5.1,16.26,36.59,710.7762,139.9921],
    [8141,1525546306,57.379,-111.8884,497.5,144.5,271.0,0.1,4.2,15.21,36.96,710.8567,140.0042],
    [8142,1525546307,57.379,-111.8893,497.3,144.3,270.7,0.2,3.7,16.0,36.71,710.8897,139.9954],
    [8143,1525546308,57.3791,-111.8903,498.1,145.1,269.2,0.7,4.0,15.7,37.35,710.9258,140.0034],
    [8144,1525546309,57.3791,-111.8913,498.1,145.1,267.9,0.4,3.5,15.47,37.13,710.9956,139.9969],
    [8145,1525546310,57.3791,-111.8924,497.6,144.6,265.8,-0.1,3.9,15.59,37.16,711.0424,139.9991],
    [8146,1525546311,57.3791,-111.8934,496.4,142.7,262.6,0.3,5.1,15.12,37.18,711.0654,140.0015],
    [8147,1525546312,57.379,-111.8944,495.6,140.5,260.5,0.0,4.8,16.04,36.51,710.9731,140.004],
    [8148,1525546313,57.379,-111.8954,495.3,138.3,258.8,-0.4,4.6,15.68,36.79,710.8826,139.9984],
    [8149,1525546314,57.3789,-111.8964,494.8,135.5,258.3,0.3,4.3,15.92,36.52,710.8926,139.9994],
    [8150,1525546315,57.3788,-111.8975,493.9,132.6,258.3,0.7,3.8,15.64,36.79,710.7894,139.999],
    [8151,1525546316,57.3787,-111.8985,493.4,130.5,257.8,0.6,3.9,15.69,36.86,710.7483,140.0001],
    [8152,1525546317,57.3786,-111.8995,494.0,129.0,256.9,0.4,4.6,15.79,37.06,710.6417,139.9936],
    [8153,1525546318,57.3786,-111.9005,494.8,128.8,256.8,0.8,4.7,15.77,36.5,710.6866,139.9971],
    [8154,1525546319,57.3785,-111.9016,495.3,128.3,258.4,0.9,3.4,16.16,35.89,710.5352,140.0082],
    [8155,1525546320,57.3784,-111.9026,496.0,128.0,259.1,0.8,3.2,15.5,36.8,710.452,139.9995],
    [8156,1525546321,57.3783,-111.9036,497.0,127.9,260.0,0.8,3.1,15.71,36.44,710.2481,139.9996],
    [8157,1525546322,57.3782,-111.9047,497.9,126.3,260.2,1.1,3.4,15.51,36.65,710.1994,140.0006],
    [8158,1525546323,57.3782,-111.9057,498.1,123.9,262.1,0.6,1.9,15.92,36.18,710.1183,139.9953],
    [8159,1525546324,57.3781,-111.9067,498.7,120.8,261.8,0.5,3.0,15.76,36.17,710.0465,139.9992],
    [8160,1525546325,57.3781,-111.9079,500.5,118.1,262.0,0.2,3.1,15.66,36.21,709.847,140.0032],
    [8161,1525546326,57.378,-111.9089,502.1,117.0,263.3,-0.1,2.1,15.62,36.33,709.792,139.9971],
    [8162,1525546327,57.378,-111.91,503.4,116.1,262.9,-0.4,2.9,15.66,35.89,709.52,139.996],
    [8163,1525546328,57.3779,-111.911,504.4,113.7,263.4,-0.5,2.9,15.92,35.55,709.5613,139.9978],
    [8164,1525546329,57.3779,-111.9121,505.2,113.2,265.2,-0.2,2.0,15.58,36.16,709.4922,140.0032],
    [8165,1525546330,57.3779,-111.9131,506.8,112.8,265.2,-0.5,2.3,15.46,36.17,709.4586,140.0048],
    [8166,1525546331,57.3778,-111.9141,508.8,114.8,265.1,-0.8,2.3,15.62,36.45,709.3402,140.0028],
    [8167,1525546332,57.3778,-111.9152,510.4,116.4,264.9,0.1,2.3,15.67,35.69,709.2131,140.0016],
    [8168,1525546333,57.3778,-111.9163,511.5,117.5,265.5,-0.2,1.6,15.52,36.23,709.0401,139.9992],
    [8169,1525546334,57.3777,-111.9174,511.9,117.9,266.1,-0.2,1.2,15.45,36.38,708.9044,139.9942],
    [8170,1525546335,57.3777,-111.9185,512.5,118.5,264.7,-0.5,2.4,15.08,36.15,708.8271,139.9997],
    [8171,1525546336,57.3777,-111.9195,513.3,119.3,264.4,-0.9,2.5,15.96,35.84,708.6522,140.0024],
    [8172,1525546337,57.3776,-111.9206,514.7,120.7,265.4,-1.0,1.6,15.78,36.2,708.5019,139.987],
    [8173,1525546338,57.3776,-111.9216,516.7,122.0,265.8,-0.8,2.0,15.86,36.05,708.258,139.9992],
    [8174,1525546339,57.3776,-111.9227,518.8,123.8,266.9,-0.6,1.6,16.14,35.82,708.079,139.9985],
    [8175,1525546340,57.3776,-111.9238,520.1,125.1,268.7,-0.4,1.3,15.04,36.43,707.9974,140.009],
    [8176,1525546341,57.3776,-111.9248,521.6,126.7,269.0,-0.2,2.4,15.81,36.61,707.8687,140.0034],
    [8177,1525546342,57.3776,-111.9258,522.9,127.1,271.2,0.9,0.9,15.25,36.25,707.7307,140.0078],
    [8178,1525546343,57.3776,-111.9269,525.3,129.3,272.5,0.9,0.9,15.57,36.95,707.4828,140.0063],
    [8179,1525546344,57.3777,-111.928,527.9,131.2,270.9,1.1,1.7,16.14,35.72,707.297,140.0034],
    [8180,1525546345,57.3777,-111.929,529.9,132.9,270.2,1.0,1.0,15.62,36.07,706.8574,140.0025],
    [8181,1525546346,57.3777,-111.9301,531.2,135.4,265.5,1.3,1.9,15.99,35.42,706.7802,140.0014],
    [8182,1525546347,57.3776,-111.9311,531.8,138.5,259.1,1.0,2.1,16.25,35.23,706.2985,140.001],
    [8183,1525546348,57.3775,-111.932,533.9,145.3,253.8,2.6,1.2,15.7,35.23,706.4064,140.0015],
    [8184,1525546349,57.3773,-111.933,537.8,153.5,246.8,2.4,1.1,15.62,35.24,706.2114,140.0019],
    [8185,1525546350,57.3771,-111.934,541.5,162.9,241.3,2.1,0.8,15.78,34.63,706.1119,139.9824],
    [8186,1525546351,57.3768,-111.9348,544.9,169.0,234.7,0.8,1.5,15.46,35.23,706.0736,139.9935],
    [8187,1525546352,57.3765,-111.9356,547.7,171.5,226.5,-0.7,3.2,15.65,35.05,705.9462,139.9952],
    [8188,1525546353,57.3761,-111.9363,548.4,171.1,225.8,2.4,-0.9,15.65,35.0,705.8417,139.9975],
    [8189,1525546354,57.3757,-111.9369,548.6,169.7,221.6,1.5,-2.4,15.78,34.94,705.9078,139.9996],
    [8190,1525546355,57.3752,-111.9376,549.9,166.8,209.1,-0.7,3.7,16.12,33.74,705.9232,139.9928],
    [8191,1525546356,57.3748,-111.938,551.1,165.8,204.9,-0.3,1.6,15.63,34.8,705.7613,139.9935],
    [8192,1525546357,57.3743,-111.9384,553.7,161.5,200.7,-0.4,0.9,15.75,33.62,706.0957,139.9962],
    [8193,1525546358,57.3738,-111.9387,555.7,158.7,196.6,-0.7,0.9,15.21,34.06,706.1309,139.9922],
    [8194,1525546359,57.3733,-111.939,555.7,154.8,193.4,0.2,-0.6,15.62,34.3,706.0249,139.9867],
    [8195,1525546360,57.3728,-111.9391,555.1,153.1,188.5,-0.6,-1.3,15.16,34.13,706.3603,140.0027],
    [8196,1525546361,57.3723,-111.9393,554.6,151.1,180.6,-3.0,0.1,15.74,34.71,706.7297,140.0073],
    [8197,1525546362,57.3717,-111.9393,553.1,149.1,179.5,0.1,-0.4,16.38,33.75,706.9062,140.0066],
    [8198,1525546363,57.3711,-111.9392,551.1,147.4,179.7,2.5,0.7,15.57,34.29,707.5106,139.9979],
    [8199,1525546364,57.3706,-111.9392,550.7,147.8,175.1,0.6,1.8,15.62,33.95,707.8256,140.0031],
    [8200,1525546365,57.37,-111.939,549.1,147.0,174.8,2.4,0.4,16.46,33.21,708.0726,139.9994],
    [8201,1525546366,57.3694,-111.9389,546.2,145.2,173.1,2.0,-1.3,15.65,33.78,708.2308,140.0071],
    [8202,1525546367,57.3689,-111.9387,542.3,142.3,173.3,2.5,-4.0,15.63,33.07,708.1773,140.0033],
    [8203,1525546368,57.3683,-111.9386,537.3,139.3,174.5,2.8,-3.7,15.9,33.07,707.9519,139.994],
    [8204,1525546369,57.3677,-111.9384,532.6,136.0,174.9,2.2,-4.0,15.49,32.6,707.7102,139.9935],
    [8205,1525546370,57.3671,-111.9383,529.4,135.4,176.3,3.0,-3.2,15.68,32.37,707.5049,139.9986],
    [8206,1525546371,57.3666,-111.9382,527.5,136.1,179.8,5.2,-4.1,15.84,32.28,707.3403,139.9997],
    [8207,1525546372,57.366,-111.9382,527.7,138.8,181.0,4.5,-4.2,15.86,31.91,707.2827,140.0],
    [8208,1525546373,57.3654,-111.9381,530.0,141.1,182.5,4.0,-4.0,15.89,31.61,706.8906,139.9903],
    [8209,1525546374,57.3648,-111.9381,532.5,140.9,184.7,4.9,-3.9,15.92,31.22,706.7194,139.9989],
    [8210,1525546375,57.3642,-111.9381,535.4,141.1,186.5,5.3,-4.4,15.97,31.1,706.4878,139.9885],
    [8211,1525546376,57.3636,-111.9382,537.5,141.6,186.5,4.5,-3.4,16.01,30.76,706.4418,139.9932],
    [8212,1525546377,57.363,-111.9382,539.0,141.0,189.0,5.8,-4.5,16.21,30.26,706.1504,139.9991],
    [8213,1525546378,57.3624,-111.9383,541.7,143.7,189.1,5.3,-3.0,16.3,29.99,706.0143,139.9943],
    [8214,1525546379,57.3618,-111.9384,544.6,146.6,189.0,5.6,-1.6,16.34,29.44,705.9112,140.0018],
    [8215,1525546380,57.3613,-111.9384,546.8,148.8,192.0,8.8,-1.0,15.88,30.24,705.762,139.9815],
    [8216,1525546381,57.3607,-111.9385,548.2,150.1,193.5,9.2,-0.9,15.98,30.54,705.454,140.0044],
    [8217,1525546382,57.3601,-111.9386,550.0,152.0,192.6,7.7,-0.3,16.6,29.84,705.3597,139.9982],
    [8218,1525546383,57.3595,-111.9387,552.4,154.4,194.1,9.4,-0.2,16.29,29.95,705.269,139.9937],
    [8219,1525546384,57.3589,-111.9389,553.8,155.8,196.1,10.7,-1.3,15.68,29.62,705.2517,140.0023],
    [8220,1525546385,57.3583,-111.939,555.1,156.0,195.0,9.9,0.5,16.82,28.97,705.2742,139.9915],
    [8221,1525546386,57.3578,-111.9391,557.4,158.3,193.9,8.7,1.4,16.13,29.07,705.3963,140.003],
    [8222,1525546387,57.3572,-111.9392,559.4,160.5,192.6,7.9,1.5,16.33,29.61,705.8123,140.0008],
    [8223,1525546388,57.3566,-111.9393,560.9,161.9,193.3,9.5,1.6,16.22,29.07,706.5826,139.9992],
    [8224,1525546389,57.356,-111.9394,561.5,162.9,192.1,9.3,0.2,16.3,29.16,706.8773,140.0009],
    [8225,1525546390,57.3554,-111.9395,560.9,161.9,191.0,9.5,1.1,16.21,29.03,707.5788,140.0014],
    [8226,1525546391,57.3549,-111.9395,559.2,160.1,190.5,9.4,0.7,16.4,29.05,707.9057,140.008],
    [8227,1525546392,57.3543,-111.9396,555.0,157.0,189.9,9.2,0.5,16.6,28.34,707.9854,140.0022],
    [8228,1525546393,57.3537,-111.9396,548.6,150.6,191.1,10.4,-0.3,16.27,28.82,708.131,139.9983],
    [8229,1525546394,57.3531,-111.9397,541.8,144.5,190.7,10.3,-0.5,15.86,28.65,708.3413,139.9961],
    [8230,1525546395,57.3525,-111.9397,535.6,139.5,190.9,10.8,-1.2,16.49,28.87,708.4885,139.9983],
    [8231,1525546396,57.3518,-111.9398,530.3,135.6,190.4,10.7,-1.6,16.33,28.5,708.7067,139.9975],
    [8232,1525546397,57.3512,-111.9398,528.3,136.3,188.3,9.5,-2.2,16.29,28.6,709.1877,139.9966],
    [8233,1525546398,57.3506,-111.9398,527.8,138.6,187.1,9.3,-1.9,16.37,28.53,709.5217,139.9998],
    [8234,1525546399,57.35,-111.9397,526.0,137.4,188.0,10.2,-3.3,16.38,29.03,709.7882,139.9992],
    [8235,1525546400,57.3494,-111.9397,523.9,132.6,187.1,9.2,-2.9,16.11,28.71,709.8137,140.0102],
    [8236,1525546401,57.3487,-111.9397,520.5,128.5,186.4,8.7,-2.9,16.06,28.32,709.6419,139.998],
    [8237,1525546402,57.348,-111.9397,516.0,124.0,187.1,9.5,-3.3,16.64,28.59,709.5923,139.9969],
    [8238,1525546403,57.3474,-111.9397,511.8,121.4,185.7,8.3,-2.6,16.43,29.09,709.4693,140.0046],
    [8239,1525546404,57.3468,-111.9397,508.5,118.5,185.4,8.6,-2.4,16.44,28.97,709.6181,139.9937],
    [8240,1525546405,57.3461,-111.9396,506.8,116.5,185.6,8.6,-3.4,16.93,28.01,709.719,140.0044],
    [8241,1525546406,57.3455,-111.9396,507.2,116.2,184.4,7.6,-2.5,16.27,28.35,709.7285,140.0095],
    [8242,1525546407,57.3448,-111.9395,508.9,117.8,186.5,10.2,-2.6,16.47,28.39,709.7918,139.9967],
    [8243,1525546408,57.3441,-111.9395,510.1,120.0,186.2,9.4,-2.6,16.5,28.6,709.7976,140.0003],
    [8244,1525546409,57.3435,-111.9395,509.8,121.9,186.7,10.2,-3.4,16.77,27.99,709.872,140.0005],
    [8245,1525546410,57.3429,-111.9395,508.9,122.9,188.5,11.3,-4.2,17.07,28.04,709.9021,139.9958],
    [8246,1525546411,57.3422,-111.9394,508.2,125.2,187.1,9.2,-4.1,16.15,28.27,709.8735,140.0075],
    [8247,1525546412,57.3416,-111.9394,507.9,124.4,188.1,10.1,-4.5,16.58,28.06,709.9248,139.9936],
    [8248,1525546413,57.3409,-111.9394,507.3,122.3,187.6,9.4,-4.5,16.8,28.09,710.0578,139.9992],
    [8249,1525546414,57.3403,-111.9394,506.9,120.0,186.5,8.7,-4.5,16.52,28.38,710.1526,140.0029],
    [8250,1525546415,57.3396,-111.9394,506.5,117.6,187.1,8.8,-5.7,16.41,27.98,710.2032,139.9982],
    [8251,1525546416,57.3389,-111.9394,506.5,116.5,183.9,5.2,-5.1,16.68,27.92,710.1382,139.988],
    [8252,1525546417,57.3383,-111.9394,506.2,116.2,184.8,6.6,-5.9,16.77,28.58,709.9111,139.9956],
    [8253,1525546418,57.3377,-111.9394,505.2,115.1,187.0,8.7,-6.1,16.37,28.0,709.8801,139.9969],
    [8254,1525546419,57.337,-111.9394,504.0,114.0,185.4,7.3,-6.2,17.26,27.82,709.9048,139.9901],
    [8255,1525546420,57.3363,-111.9393,503.3,114.3,185.8,8.0,-6.1,16.65,28.21,709.9604,140.0092],
    [8256,1525546421,57.3357,-111.9393,503.7,115.7,185.9,8.1,-4.5,16.47,27.98,709.9156,140.0025],
    [8257,1525546422,57.335,-111.9393,505.0,117.3,185.4,7.5,-5.4,16.08,28.09,709.8697,139.9979],
    [8258,1525546423,57.3344,-111.9393,505.9,118.9,186.0,8.2,-4.1,16.85,27.49,709.5867,140.0058],
    [8259,1525546424,57.3337,-111.9393,505.6,118.6,187.1,9.5,-3.3,16.8,28.15,709.6129,140.0092],
    [8260,1525546425,57.3331,-111.9393,505.2,119.2,185.7,8.4,-3.5,16.83,28.16,709.7984,139.9927],
    [8261,1525546426,57.3324,-111.9392,505.1,120.1,184.3,7.2,-3.1,16.53,27.99,709.8702,140.0084],
    [8262,1525546427,57.3318,-111.9392,505.4,120.7,182.7,5.7,-2.6,17.31,27.54,710.0648,139.9954],
    [8263,1525546428,57.3311,-111.9391,507.6,124.7,181.6,4.4,-3.6,16.47,28.13,710.0768,139.9904],
    [8264,1525546429,57.3304,-111.9391,508.9,125.8,181.9,5.2,-4.0,17.59,27.67,709.9817,140.0044],
    [8265,1525546430,57.3298,-111.939,507.8,125.9,184.0,7.4,-4.6,17.05,28.05,709.9046,139.9972],
    [8266,1525546431,57.3291,-111.939,506.5,125.5,182.8,5.9,-5.0,16.7,28.08,709.4019,140.0058],
    [8267,1525546432,57.3285,-111.939,505.2,124.2,183.1,6.0,-5.4,17.08,27.62,709.298,140.0092],
    [8268,1525546433,57.3278,-111.9389,503.7,122.7,185.0,7.0,-4.1,17.52,27.32,709.1454,139.9857],
    [8269,1525546434,57.3272,-111.9389,503.6,123.6,185.2,5.8,-2.8,17.07,27.77,708.6644,140.0146],
    [8270,1525546435,57.3265,-111.939,504.9,124.9,186.3,5.1,-3.7,17.3,27.26,708.6647,139.9978],
    [8271,1525546436,57.3259,-111.939,508.0,128.0,186.5,2.7,-2.6,16.89,27.47,708.5374,140.0006],
    [8272,1525546437,57.3252,-111.9391,511.6,132.6,186.5,1.7,-1.3,17.0,28.04,708.412,140.0035],
    [8273,1525546438,57.3246,-111.9392,513.5,134.5,189.7,4.3,-0.8,16.96,28.19,708.3927,140.0043],
    [8274,1525546439,57.324,-111.9394,516.9,138.9,189.5,2.3,-0.5,17.08,28.08,708.3976,140.0048],
    [8275,1525546440,57.3233,-111.9395,519.6,141.6,188.9,2.1,0.5,16.99,28.87,708.383,140.0123],
    [8276,1525546441,57.3227,-111.9397,521.3,144.3,191.9,6.4,-1.8,16.64,28.44,708.367,140.0012],
    [8277,1525546442,57.3221,-111.9398,522.6,145.5,190.6,5.5,-2.4,17.36,28.32,707.9733,139.9896],
    [8278,1525546443,57.3214,-111.9399,523.4,147.8,185.8,2.6,-1.9,16.93,28.71,707.9238,139.9953],
    [8279,1525546444,57.3208,-111.9399,523.5,149.1,184.2,4.1,-2.8,16.95,28.85,707.341,139.9949],
    [8280,1525546445,57.3201,-111.9399,523.8,149.7,180.2,3.5,-2.4,16.98,29.25,707.1608,140.0002],
    [8281,1525546446,57.3195,-111.9398,524.0,149.9,177.2,4.2,-2.9,16.98,29.43,707.0684,139.9953],
    [8282,1525546447,57.3189,-111.9397,526.2,153.2,171.7,1.6,0.6,17.54,28.69,707.0255,139.9987],
    [8283,1525546448,57.3183,-111.9394,529.9,158.2,167.0,0.8,2.4,17.64,28.7,706.8858,139.9895],
    [8284,1525546449,57.3177,-111.9391,534.5,164.5,165.1,2.3,2.5,16.98,29.31,706.8816,140.0038],
    [8285,1525546450,57.3171,-111.9388,538.1,169.1,161.0,1.0,1.4,16.89,30.2,706.8439,139.999],
    [8286,1525546451,57.3166,-111.9384,539.9,172.1,156.7,1.0,0.6,17.23,30.25,706.9469,139.9953],
    [8287,1525546452,57.316,-111.9378,541.5,174.8,152.3,2.2,0.6,16.76,31.21,707.0434,139.9832],
    [8288,1525546453,57.3155,-111.9372,542.4,176.4,147.1,2.5,0.8,16.69,31.9,707.3104,139.9938],
    [8289,1525546454,57.315,-111.9365,542.6,177.6,142.1,2.4,0.8,16.95,31.96,707.6107,139.9972],
    [8290,1525546455,57.3146,-111.9358,542.8,177.8,139.5,4.2,0.9,16.56,32.46,707.7229,139.9983],
    [8291,1525546456,57.3141,-111.935,542.1,177.4,136.6,5.0,1.1,16.75,32.38,707.761,140.0079],
    [8292,1525546457,57.3137,-111.9341,540.4,176.4,133.4,4.2,2.3,16.55,32.56,708.0695,139.985],
    [8293,1525546458,57.3134,-111.9333,537.9,173.9,129.1,2.8,2.5,16.77,32.62,708.336,139.9968],
    [8294,1525546459,57.313,-111.9323,534.6,170.6,124.9,3.0,2.7,16.86,32.46,708.537,140.0012],
    [8295,1525546460,57.3126,-111.9311,531.6,168.8,120.5,3.3,2.5,16.83,32.86,708.5669,139.9906],
    [8296,1525546461,57.3124,-111.9302,530.4,167.4,115.8,2.6,0.8,16.55,33.02,708.7504,140.0022],
    [8297,1525546462,57.3121,-111.929,527.9,165.8,114.5,3.1,3.2,16.82,32.92,708.8402,139.9975],
    [8298,1525546463,57.3119,-111.9279,525.3,164.3,112.7,3.9,3.7,17.18,32.75,708.7733,139.9911],
    [8299,1525546464,57.3117,-111.9267,522.4,162.4,110.1,4.4,3.6,16.47,33.58,708.7479,139.99],
    [8300,1525546465,57.3115,-111.9255,520.5,161.5,107.1,3.9,3.7,16.23,33.71,708.8626,139.9996],
    [8301,1525546466,57.3114,-111.9243,519.2,161.2,104.6,4.8,4.3,16.36,33.48,708.8872,139.9978],
    [8302,1525546467,57.3113,-111.9231,518.2,161.2,101.3,5.3,4.3,16.63,33.38,708.9044,140.0135],
    [8303,1525546468,57.3112,-111.9219,517.8,161.8,97.4,4.5,4.1,15.95,33.54,708.8909,139.9999],
    [8304,1525546469,57.3112,-111.9206,518.3,163.3,94.4,3.8,4.2,16.84,33.14,708.8463,139.9987],
    [8305,1525546470,57.3112,-111.9194,518.2,164.2,91.3,3.9,2.9,16.53,34.28,708.8677,139.9989],
    [8306,1525546471,57.3112,-111.9181,517.4,164.4,89.3,4.0,2.9,16.68,33.36,709.0217,139.9968],
    [8307,1525546472,57.3113,-111.9168,517.2,165.5,88.0,3.9,2.7,16.09,33.65,709.061,140.0029],
    [8308,1525546473,57.3113,-111.9156,517.3,166.3,86.5,4.6,2.0,16.45,33.68,709.1946,140.0066],
    [8309,1525546474,57.3114,-111.9145,517.6,167.6,87.1,4.6,2.9,16.72,33.36,709.1646,139.9997],
    [8310,1525546475,57.3115,-111.9131,517.2,167.2,88.3,4.3,3.9,15.98,33.57,709.3542,139.993],
    [8311,1525546476,57.3115,-111.9118,516.1,167.1,90.0,4.6,4.9,16.3,33.55,709.4497,139.9961],
    [8312,1525546477,57.3115,-111.9106,514.7,165.7,90.7,4.4,4.1,15.96,33.52,709.8813,139.9956],
    [8313,1525546478,57.3116,-111.9093,513.9,165.9,92.1,5.5,4.2,16.24,33.56,709.8958,139.9941],
    [8314,1525546479,57.3116,-111.9081,513.7,166.6,94.2,5.6,5.7,16.66,33.09,710.2158,140.0043],
    [8315,1525546480,57.3116,-111.9069,512.7,165.7,96.7,5.4,7.3,16.2,33.55,710.2553,140.0078],
    [8316,1525546481,57.3116,-111.9056,509.8,163.8,97.0,4.0,6.5,16.4,33.73,710.064,140.0017],
    [8317,1525546482,57.3115,-111.9043,506.7,160.7,97.7,3.8,7.0,16.39,34.24,709.7715,139.9995],
    [8318,1525546483,57.3115,-111.9031,503.8,157.8,96.1,3.1,6.1,16.47,33.92,709.1709,139.9961],
    [8319,1525546484,57.3115,-111.9019,501.4,156.4,94.8,4.0,6.7,16.44,34.06,709.0045,140.0014],
    [8320,1525546485,57.3115,-111.9006,500.3,155.3,90.9,3.8,6.2,16.23,33.5,708.6868,139.9934],
    [8321,1525546486,57.3116,-111.8993,500.7,156.7,84.5,2.4,4.3,16.11,33.3,708.5884,139.9935],
    [8322,1525546487,57.3117,-111.8981,503.8,160.8,79.1,1.8,4.9,16.22,33.7,708.5491,139.998],
    [8323,1525546488,57.3119,-111.8969,508.4,165.4,74.0,1.0,5.0,16.16,33.65,708.5972,139.9938],
    [8324,1525546489,57.3122,-111.8958,513.6,171.6,69.1,1.0,5.1,16.57,33.56,708.7394,139.9904],
    [8325,1525546490,57.3125,-111.8947,518.4,177.4,64.8,0.5,5.8,16.7,33.35,708.8732,139.9962],
    [8326,1525546491,57.3129,-111.8935,520.9,180.9,58.6,1.3,4.1,15.94,33.57,709.0852,139.9988],
    [8327,1525546492,57.3132,-111.8926,521.7,181.7,53.9,2.1,4.5,16.37,33.73,709.2315,139.997],
    [8328,1525546493,57.3136,-111.8918,521.6,180.6,51.0,1.6,5.3,17.01,33.48,709.4491,139.9928],
    [8329,1525546494,57.3141,-111.8908,519.9,178.9,45.7,1.5,5.1,16.23,33.86,709.5134,139.9969],
    [8330,1525546495,57.3146,-111.8899,517.6,175.6,40.9,0.7,4.3,16.31,34.02,709.5176,140.0002],
    [8331,1525546496,57.3152,-111.8892,515.1,173.8,35.6,1.2,3.6,17.04,33.65,709.6462,139.9976],
    [8332,1525546497,57.3157,-111.8885,513.2,172.1,31.7,0.8,3.9,16.81,33.59,709.9933,140.0011],
    [8333,1525546498,57.3163,-111.8879,511.0,171.0,28.7,0.3,3.9,16.22,34.76,710.3406,139.9998],
    [8334,1525546499,57.317,-111.8873,509.7,171.7,24.1,0.9,2.8,16.73,33.78,710.7003,140.0025],
    [8335,1525546500,57.3176,-111.8869,509.1,171.1,20.5,0.5,2.4,16.34,33.98,710.8938,139.9995],
    [8336,1525546501,57.3183,-111.8865,508.0,169.7,17.5,0.3,2.4,16.34,34.49,711.1403,140.0106],
    [8337,1525546502,57.3189,-111.8861,504.9,165.6,13.0,2.0,2.0,16.33,34.24,711.3924,139.9943],
    [8338,1525546503,57.3196,-111.8859,500.7,161.0,9.2,2.3,2.2,16.31,34.39,711.648,139.9947],
    [8339,1525546504,57.3202,-111.8857,497.2,158.2,5.7,2.7,2.5,16.51,33.57,711.818,140.0097],
    [8340,1525546505,57.3209,-111.8855,494.0,155.7,3.4,2.6,1.7,16.63,33.58,711.7726,139.9978],
    [8341,1525546506,57.3216,-111.8854,491.6,153.9,362.2,2.2,2.0,16.49,33.7,711.6428,140.0058],
    [8342,1525546507,57.3223,-111.8854,488.5,151.8,360.9,2.4,2.8,16.4,34.49,711.5416,139.996],
    [8343,1525546508,57.323,-111.8853,485.6,149.6,360.3,2.6,2.6,15.94,33.94,711.5792,140.0028],
    [8344,1525546509,57.3236,-111.8853,483.5,148.5,360.4,2.6,2.7,15.79,33.98,711.6336,140.0026],
    [8345,1525546510,57.3243,-111.8852,483.7,149.8,361.6,1.9,2.0,16.16,34.48,711.7331,140.0041],
    [8346,1525546511,57.325,-111.8851,485.4,151.3,3.5,0.8,2.3,16.36,34.78,711.7456,140.0],
    [8347,1525546512,57.3256,-111.885,486.0,152.0,5.3,0.0,2.5,16.89,34.14,711.6714,140.0072],
    [8348,1525546513,57.3263,-111.8849,486.5,152.5,6.3,0.4,2.7,15.81,34.48,711.468,140.0049],
    [8349,1525546514,57.327,-111.8848,486.1,150.1,6.2,1.0,2.3,16.26,34.47,711.2175,140.004],
    [8350,1525546515,57.3276,-111.8846,485.3,148.3,6.6,1.0,2.7,16.08,34.32,711.0781,140.0072],
    [8351,1525546516,57.3283,-111.8845,484.9,146.9,6.6,1.1,2.6,16.27,34.41,710.9504,139.9996],
    [8352,1525546517,57.3289,-111.8843,485.7,147.1,6.4,1.6,2.7,16.64,34.15,710.9147,140.0024],
    [8353,1525546518,57.3296,-111.8842,487.6,149.6,5.8,2.3,2.7,16.32,34.87,710.7921,140.0007],
    [8354,1525546519,57.3302,-111.884,490.5,152.5,5.9,2.0,2.4,16.07,34.33,710.8064,139.9975],
    [8355,1525546520,57.3308,-111.8839,492.7,154.7,5.5,2.4,2.8,16.29,34.01,710.859,140.006],
    [8356,1525546521,57.3315,-111.8837,494.3,156.3,5.3,2.1,2.8,16.34,34.46,710.7677,140.004],
    [8357,1525546522,57.3321,-111.8836,495.6,157.6,5.5,1.8,3.4,16.65,33.59,710.7486,140.0011],
    [8358,1525546523,57.3327,-111.8834,496.6,158.6,4.3,2.8,3.6,16.3,33.92,710.7286,140.0009],
    [8359,1525546524,57.3333,-111.8833,496.7,157.7,4.6,2.0,3.4,16.24,34.47,710.7031,140.0005],
    [8360,1525546525,57.334,-111.8832,496.3,157.3,4.3,2.2,3.0,16.01,34.2,710.6715,139.9989],
    [8361,1525546526,57.3346,-111.8831,496.9,157.9,2.8,3.7,2.9,16.21,34.54,710.6633,139.9997],
    [8362,1525546527,57.3352,-111.883,497.5,158.5,3.1,3.2,3.7,16.31,34.39,710.7017,140.0017],
    [8363,1525546528,57.3358,-111.8829,497.5,159.5,3.2,2.9,3.5,16.16,34.72,710.7755,139.997],
    [8364,1525546529,57.3363,-111.8828,497.8,159.8,2.6,3.2,3.3,16.23,34.46,710.8849,139.9991],
    [8365,1525546530,57.337,-111.8827,498.2,160.2,362.4,3.3,3.6,16.22,34.45,710.9356,140.0004],
    [8366,1525546531,57.3376,-111.8826,498.4,159.5,362.0,3.3,4.2,16.51,34.67,710.9766,140.0023],
    [8367,1525546532,57.3382,-111.8825,498.1,159.1,362.4,2.8,4.7,16.58,34.35,711.0974,140.0049],
    [8368,1525546533,57.3389,-111.8824,497.3,158.3,2.7,2.8,4.7,16.32,34.29,711.1821,140.0026],
    [8369,1525546534,57.3395,-111.8823,496.3,158.3,3.5,2.6,4.6,16.21,35.42,711.3141,139.9962],
    [8370,1525546535,57.3401,-111.8822,495.4,157.4,4.0,2.7,4.7,15.79,35.09,711.481,139.9964],
    [8371,1525546536,57.3407,-111.882,494.2,157.2,5.1,2.2,5.1,15.75,35.27,711.5574,139.9927],
    [8372,1525546537,57.3414,-111.8819,493.0,157.0,5.4,2.4,5.2,16.46,35.73,711.7339,140.0031],
    [8373,1525546538,57.342,-111.8817,491.5,156.5,6.0,2.0,5.4,16.16,35.57,711.8751,139.9976],
    [8374,1525546539,57.3426,-111.8816,490.0,154.3,7.2,1.4,5.1,15.88,36.09,711.894,139.9941],
    [8375,1525546540,57.3433,-111.8814,488.4,152.4,7.8,1.4,4.7,16.06,36.16,711.9874,140.0008],
    [8376,1525546541,57.3439,-111.8812,486.4,149.5,9.1,0.8,4.5,16.1,36.09,712.0208,139.9998],
    [8377,1525546542,57.3446,-111.881,484.6,146.6,9.6,0.9,4.6,16.05,35.59,712.0572,140.0055],
    [8378,1525546543,57.3452,-111.8808,482.9,144.9,10.4,0.3,4.5,15.92,35.64,712.1184,139.9937],
    [8379,1525546544,57.3459,-111.8806,481.5,143.5,10.4,0.5,4.0,16.04,35.44,712.141,139.997],
    [8380,1525546545,57.3465,-111.8804,480.7,143.7,8.0,2.3,3.9,16.64,35.08,712.2162,140.0024],
    [8381,1525546546,57.3472,-111.8802,480.8,143.8,7.7,0.8,4.9,16.18,35.03,712.3605,139.995],
    [8382,1525546547,57.3478,-111.8801,480.4,142.4,6.5,1.3,5.8,15.7,35.32,712.4941,139.9986],
    [8383,1525546548,57.3485,-111.8799,479.9,141.9,5.1,1.7,5.6,15.6,35.07,712.5414,140.0015],
    [8384,1525546549,57.3491,-111.8798,479.1,140.5,5.5,1.0,5.6,16.16,35.49,712.5709,139.9999],
    [8385,1525546550,57.3497,-111.8797,478.3,139.3,5.8,0.9,5.9,16.09,34.96,712.5736,139.9965],
    [8386,1525546551,57.3505,-111.8796,476.7,138.7,6.3,0.6,5.9,16.55,34.57,712.5496,140.0009],
    [8387,1525546552,57.3511,-111.8794,475.2,138.3,6.2,1.1,5.6,16.23,34.79,712.6546,139.9952],
    [8388,1525546553,57.3518,-111.8793,474.1,137.1,6.0,1.4,5.3,16.1,35.23,712.7043,139.9989],
    [8389,1525546554,57.3525,-111.8791,473.6,137.6,6.4,0.8,5.5,15.95,34.74,712.7283,139.999],
    [8390,1525546555,57.3532,-111.879,473.7,137.7,5.8,1.3,6.0,15.92,35.15,712.6403,139.9997],
    [8391,1525546556,57.3538,-111.8789,473.8,137.8,5.5,1.2,6.1,15.95,35.69,712.5024,139.9997],
    [8392,1525546557,57.3545,-111.8787,473.1,137.1,5.6,0.7,5.6,16.69,34.8,712.4731,139.9972],
    [8393,1525546558,57.3552,-111.8786,472.2,135.8,5.2,1.0,5.7,16.34,34.53,712.4667,139.9979],
    [8394,1525546559,57.3558,-111.8785,471.7,134.7,4.4,1.5,5.0,16.04,35.0,712.4145,140.0025],
    [8395,1525546560,57.3565,-111.8784,472.3,135.1,4.2,1.4,4.8,16.09,34.98,712.4063,139.9976],
    [8396,1525546561,57.3572,-111.8783,473.6,135.6,4.0,1.5,4.6,16.31,34.75,712.3014,139.9969],
    [8397,1525546562,57.3578,-111.8782,474.5,135.5,4.3,1.0,4.4,16.57,34.39,712.2715,139.9951],
    [8398,1525546563,57.3585,-111.8781,475.0,136.0,3.9,1.3,3.9,16.55,34.12,712.2898,139.9979],
    [8399,1525546564,57.3592,-111.878,475.3,136.3,4.0,1.0,3.9,16.5,34.11,712.2495,139.9958],
    [8400,1525546565,57.3599,-111.8779,475.7,136.7,4.3,0.8,3.9,16.0,35.11,712.2315,140.0025],
    [8401,1525546566,57.3606,-111.8777,476.1,138.1,4.5,1.0,3.1,16.12,35.43,712.1784,139.9979],
    [8402,1525546567,57.3612,-111.8776,476.5,138.5,5.9,0.2,2.2,16.43,34.8,712.2245,140.0036],
    [8403,1525546568,57.3619,-111.8775,476.6,138.6,7.5,-0.3,2.5,15.5,34.88,712.1962,139.9958],
    [8404,1525546569,57.3626,-111.8773,476.8,137.8,7.9,0.5,2.0,16.59,35.06,712.1668,140.0001],
    [8405,1525546570,57.3632,-111.8771,477.1,138.1,8.7,0.6,1.5,16.57,34.82,712.0686,139.9994],
    [8406,1525546571,57.3639,-111.8769,477.3,138.2,10.0,0.2,1.7,16.1,35.5,712.0142,140.0045],
    [8407,1525546572,57.3646,-111.8767,477.2,137.5,11.0,-0.1,1.8,15.69,35.3,711.885,139.9967],
    [8408,1525546573,57.3652,-111.8765,477.2,138.2,12.3,-0.8,2.0,16.05,35.27,711.696,140.0013],
    [8409,1525546574,57.3659,-111.8762,478.2,139.2,12.1,-0.3,1.9,16.66,34.55,711.6077,140.0014],
    [8410,1525546575,57.3665,-111.876,478.8,139.8,11.7,0.4,2.1,16.06,35.21,711.5198,140.0024],
    [8411,1525546576,57.3672,-111.8757,479.5,140.6,11.5,0.8,2.4,15.86,35.31,711.4318,140.0034],
    [8412,1525546577,57.3679,-111.8755,480.9,142.9,10.8,1.0,2.4,16.6,35.02,711.2692,140.0],
    [8413,1525546578,57.3685,-111.8752,482.7,144.7,10.7,-0.1,2.4,16.04,35.34,711.0439,140.0048],
    [8414,1525546579,57.3692,-111.875,484.4,146.4,8.9,0.0,2.2,15.71,35.16,710.7779,139.9994],
    [8415,1525546580,57.3699,-111.8749,485.5,147.4,5.4,0.8,2.2,16.14,35.19,710.6722,139.9969],
    [8416,1525546581,57.3705,-111.8748,486.6,147.6,361.8,1.1,2.4,15.93,35.31,710.5212,139.9977],
    [8417,1525546582,57.3711,-111.8748,488.6,149.6,358.4,0.9,2.0,15.41,35.39,710.4172,140.0007],
    [8418,1525546583,57.3718,-111.8748,491.1,152.1,354.1,1.0,1.7,16.01,35.76,710.3264,140.0037],
    [8419,1525546584,57.3724,-111.875,493.6,154.6,350.1,1.1,1.8,15.64,35.38,710.2441,140.0019],
    [8420,1525546585,57.3731,-111.8752,496.0,157.0,345.4,1.1,1.8,15.8,35.33,710.148,140.0002],
    [8421,1525546586,57.3737,-111.8755,497.8,158.8,341.8,1.0,1.7,16.67,35.1,710.1689,140.001],
    [8422,1525546587,57.3743,-111.8759,499.0,158.6,336.8,1.9,1.9,15.81,35.32,710.1808,140.0014],
    [8423,1525546588,57.3748,-111.8763,500.1,158.0,332.6,1.6,2.3,15.99,35.63,710.276,140.0011],
    [8424,1525546589,57.3754,-111.8769,501.4,158.3,327.8,1.0,1.9,16.0,35.4,710.3386,140.001],
    [8425,1525546590,57.3759,-111.8776,502.2,158.3,323.2,0.5,2.0,15.97,35.18,710.3312,140.0037],
    [8426,1525546591,57.3764,-111.8783,502.5,157.4,318.5,0.2,1.8,16.0,36.13,710.3247,140.0001],
    [8427,1525546592,57.3769,-111.8791,502.3,156.3,313.5,0.4,2.3,16.01,35.52,710.3248,140.006],
    [8428,1525546593,57.3773,-111.8799,501.3,154.3,308.4,1.0,2.4,15.97,36.33,710.2769,139.9965],
    [8429,1525546594,57.3777,-111.8808,500.4,151.4,303.7,0.9,2.6,15.88,36.17,710.2232,140.0039],
    [8430,1525546595,57.378,-111.8818,500.3,150.3,299.2,1.0,2.8,15.62,36.17,710.2001,140.0017],
    [8431,1525546596,57.3783,-111.8827,500.4,149.6,295.2,1.1,2.9,16.07,36.59,710.164,139.9996],
    [8432,1525546597,57.3786,-111.8838,500.7,148.7,290.9,0.7,3.2,16.07,36.11,710.1335,139.9981],
    [8433,1525546598,57.3788,-111.8849,501.0,149.0,287.1,1.1,2.7,15.96,36.79,710.1173,140.0055],
    [8434,1525546599,57.379,-111.886,501.6,148.6,283.8,1.0,2.0,15.99,36.67,710.0002,140.0023],
    [8435,1525546600,57.3792,-111.8871,502.3,149.3,280.0,0.6,2.3,15.37,36.42,709.9001,139.998],
    [8436,1525546601,57.3793,-111.8882,502.6,149.6,275.9,1.5,2.9,15.76,36.58,709.9328,139.9997],
    [8437,1525546602,57.3794,-111.8893,502.8,149.8,272.9,2.0,2.4,16.29,36.31,709.9769,139.9998],
    [8438,1525546603,57.3794,-111.8904,503.1,150.1,270.0,1.9,2.5,16.33,35.98,710.0204,140.0011],
    [8439,1525546604,57.3794,-111.8915,504.1,151.1,266.6,1.7,3.0,15.85,36.25,710.008,140.0047],
    [8440,1525546605,57.3794,-111.8926,505.2,152.2,264.6,1.7,2.8,16.51,35.68,709.9345,140.008],
    [8441,1525546606,57.3793,-111.8938,505.5,151.5,262.7,1.9,2.9,15.83,35.68,709.7523,140.0048],
    [8442,1525546607,57.3793,-111.8949,505.0,149.0,260.6,2.4,3.5,15.81,35.46,709.6531,139.998],
    [8443,1525546608,57.3792,-111.896,504.4,146.4,259.9,2.6,2.9,15.57,35.32,709.5298,140.0004],
    [8444,1525546609,57.3791,-111.897,504.5,143.8,259.4,2.5,2.6,16.19,34.78,709.5468,139.999],
    [8445,1525546610,57.379,-111.8982,505.2,142.1,259.4,2.2,1.8,15.73,35.55,709.5088,139.9942],
    [8446,1525546611,57.3789,-111.8993,506.6,141.9,259.1,1.4,1.4,16.33,34.92,709.5481,140.0007],
    [8447,1525546612,57.3788,-111.9003,508.4,142.4,258.6,1.9,1.4,15.86,34.7,709.5805,140.0003],
    [8448,1525546613,57.3787,-111.9015,510.0,143.0,256.8,1.6,2.8,15.9,34.62,709.6068,140.0012],
    [8449,1525546614,57.3786,-111.9026,510.4,142.4,254.8,1.6,4.6,15.87,33.75,709.6781,140.001],
    [8450,1525546615,57.3784,-111.9036,510.7,141.0,254.2,1.8,4.7,15.72,33.61,709.7266,139.9937],
    [8451,1525546616,57.3783,-111.9047,510.4,139.3,255.1,1.5,3.5,15.62,33.27,709.8833,139.9965],
    [8452,1525546617,57.3782,-111.9058,509.7,135.6,254.8,1.1,3.7,15.73,33.68,709.8024,140.0064],
    [8453,1525546618,57.3781,-111.9069,509.5,131.5,255.7,1.1,3.2,15.88,34.1,709.5016,140.0016],
    [8454,1525546619,57.3779,-111.908,508.8,127.8,256.7,1.1,3.1,15.57,33.63,709.4325,139.982],
    [8455,1525546620,57.3778,-111.9091,507.5,122.5,258.5,1.3,2.0,15.48,33.76,709.3031,139.994],
    [8456,1525546621,57.3777,-111.9101,505.7,118.3,261.1,1.8,-0.1,16.14,33.45,709.1006,140.0064],
    [8457,1525546622,57.3776,-111.9113,505.4,115.8,262.7,0.9,-0.4,15.7,33.66,708.9861,139.9926],
    [8458,1525546623,57.3776,-111.9124,507.0,115.3,261.0,0.9,3.1,15.76,33.67,708.9072,139.994],
    [8459,1525546624,57.3775,-111.9135,509.1,116.9,264.6,3.2,0.3,15.93,33.35,708.8555,139.9755],
    [8460,1525546625,57.3775,-111.9147,510.9,118.0,267.2,4.3,-0.7,16.43,32.47,708.9392,140.0011],
    [8461,1525546626,57.3774,-111.9157,512.7,119.1,266.7,3.0,0.2,15.87,32.62,709.0289,140.0009],
    [8462,1525546627,57.3774,-111.9168,514.9,120.9,268.4,0.5,-1.6,15.94,32.56,708.9097,140.0078],
    [8463,1525546628,57.3774,-111.9179,516.4,122.4,265.3,1.9,1.0,15.89,32.21,708.7314,139.98],
    [8464,1525546629,57.3773,-111.9189,516.2,122.2,264.0,4.6,2.1,16.27,31.46,708.9665,140.0021],
    [8465,1525546630,57.3773,-111.9201,514.6,120.6,268.0,4.3,-3.4,15.94,31.64,708.9185,140.0063],
    [8466,1525546631,57.3772,-111.9212,513.6,119.6,269.9,3.7,-4.1,16.04,31.18,708.9072,140.0088],
    [8467,1525546632,57.3772,-111.9224,514.0,120.0,264.5,3.3,3.2,16.77,30.96,709.0081,140.0104],
    [8468,1525546633,57.3771,-111.9234,515.0,120.0,267.3,5.1,-0.3,16.1,31.25,708.861,140.0034],
    [8469,1525546634,57.3771,-111.9245,514.2,119.2,272.5,4.1,-5.6,15.79,31.27,708.6876,139.9999],
    [8470,1525546635,57.3771,-111.9256,514.3,119.3,268.7,3.9,-2.4,16.23,31.42,708.5294,139.9989],
    [8471,1525546636,57.377,-111.9267,514.8,119.8,265.8,3.5,-1.7,16.25,31.25,708.2351,140.0092],
    [8472,1525546637,57.377,-111.9278,516.2,120.2,261.3,1.3,0.6,16.84,30.7,708.0414,140.012],
    [8473,1525546638,57.3769,-111.9288,517.2,122.6,253.9,0.9,3.7,16.82,30.71,707.6859,140.0028],
    [8474,1525546639,57.3767,-111.9299,518.9,124.5,251.8,2.7,0.7,16.25,31.4,707.4964,140.0093],
    [8475,1525546640,57.3765,-111.9308,521.8,132.4,248.1,3.9,-0.3,16.48,31.49,707.296,140.0086],
    [8476,1525546641,57.3763,-111.9318,525.2,141.8,241.0,3.1,1.3,16.77,31.28,707.3281,140.0025],
    [8477,1525546642,57.3759,-111.9327,529.2,150.9,234.4,2.8,0.1,16.81,31.83,707.0854,139.9951],
    [8478,1525546643,57.3756,-111.9334,532.9,157.5,229.5,3.0,-0.9,16.26,32.55,706.9715,140.0064],
    [8479,1525546644,57.3752,-111.9341,535.6,160.7,222.6,1.7,-0.6,16.77,31.62,706.8703,139.9887],
    [8480,1525546645,57.3748,-111.9347,537.4,160.6,214.7,0.7,0.0,16.19,32.27,706.6914,139.9979],
    [8481,1525546646,57.3743,-111.9353,539.0,159.0,211.1,1.8,-1.1,16.73,31.75,706.2819,139.9979],
    [8482,1525546647,57.3738,-111.9357,540.8,153.4,207.9,2.9,-1.0,16.0,32.62,706.1977,139.9913],
    [8483,1525546648,57.3733,-111.9361,542.5,148.1,203.2,1.4,-1.6,16.04,32.51,706.4491,139.9987],
    [8484,1525546649,57.3728,-111.9365,543.9,146.8,200.1,2.5,-0.8,16.17,32.27,706.4675,139.9875],
    [8485,1525546650,57.3723,-111.9367,546.0,146.5,198.9,4.8,0.1,16.22,32.71,706.7253,139.9863],
    [8486,1525546651,57.3718,-111.9369,548.9,148.6,197.5,5.7,-1.8,16.2,32.57,706.9819,139.9975],
    [8487,1525546652,57.3712,-111.9371,550.8,149.8,197.9,7.2,-3.3,15.97,32.88,707.2754,139.9994],
    [8488,1525546653,57.3707,-111.9373,549.7,148.7,196.1,6.8,-1.7,16.22,32.53,707.3571,140.0089],
    [8489,1525546654,57.3702,-111.9375,547.6,146.8,192.8,5.2,-2.2,16.28,32.68,707.3238,140.0038],
    [8490,1525546655,57.3696,-111.9376,545.6,145.6,193.9,6.7,-4.2,16.25,32.45,707.5079,139.9979],
    [8491,1525546656,57.3691,-111.9377,542.5,143.5,195.2,7.9,-2.9,16.39,32.02,707.6913,140.011],
    [8492,1525546657,57.3685,-111.9378,539.2,141.3,195.4,7.0,-2.9,16.18,32.06,707.864,140.0105],
    [8493,1525546658,57.368,-111.938,537.8,140.8,192.0,2.6,-1.7,16.22,32.02,707.781,139.9981],
    [8494,1525546659,57.3675,-111.9382,537.5,142.1,189.4,0.6,-0.4,16.41,31.89,708.2272,140.0025],
    [8495,1525546660,57.3669,-111.9383,536.8,144.1,192.7,4.5,-1.9,16.07,32.05,708.2899,139.9975],
    [8496,1525546661,57.3663,-111.9385,534.8,144.8,193.9,5.8,-3.4,15.72,31.68,708.2168,139.9907],
    [8497,1525546662,57.3658,-111.9386,532.2,143.2,192.2,4.5,-4.1,16.0,31.62,708.408,140.0064],
    [8498,1525546663,57.3652,-111.9387,530.9,140.5,189.5,3.2,-2.6,16.24,31.76,708.2436,139.9975],
    [8499,1525546664,57.3647,-111.9388,529.4,136.4,188.9,3.8,-3.7,16.45,31.33,707.8409,140.0018],
    [8500,1525546665,57.3641,-111.9389,527.1,132.5,189.0,4.6,-3.5,15.99,31.79,707.7133,140.0002],
    [8501,1525546666,57.3635,-111.939,525.5,128.5,186.7,3.4,-1.6,16.9,31.03,707.8502,139.997],
    [8502,1525546667,57.363,-111.939,524.2,126.2,184.8,2.0,-1.3,16.57,30.7,707.7882,139.9918],
    [8503,1525546668,57.3624,-111.9391,525.3,127.3,181.9,0.7,-0.6,16.18,31.34,707.5572,139.9922],
    [8504,1525546669,57.3618,-111.9391,528.5,130.5,182.4,2.3,-0.9,16.06,30.97,707.4237,139.9961],
    [8505,1525546670,57.3612,-111.9391,530.7,132.7,183.2,4.0,-1.3,16.1,30.97,707.34,140.0034],
    [8506,1525546671,57.3607,-111.9391,531.1,132.9,187.7,8.6,-1.6,16.58,30.45,707.4507,139.992],
    [8507,1525546672,57.3601,-111.9391,531.7,132.7,191.1,11.4,-0.3,15.88,30.88,707.6125,139.9999],
    [8508,1525546673,57.3596,-111.9391,533.8,134.7,191.8,11.6,0.5,16.44,30.73,707.7522,140.0071],
    [8509,1525546674,57.359,-111.9391,535.8,136.8,193.5,12.6,-0.6,16.58,30.89,707.9849,139.9897],
    [8510,1525546675,57.3584,-111.9392,536.7,136.9,193.1,11.7,-0.4,16.91,29.94,708.0457,140.0005],
    [8511,1525546676,57.3579,-111.9392,536.6,137.7,192.8,11.7,-0.6,15.92,30.1,708.0043,140.0007],
    [8512,1525546677,57.3573,-111.9393,535.1,136.2,193.7,12.4,-1.2,16.62,29.34,707.9682,140.0014],
    [8513,1525546678,57.3567,-111.9393,532.9,133.8,192.0,10.6,-0.8,16.61,29.17,707.9917,140.0002],
    [8514,1525546679,57.3562,-111.9393,531.0,132.0,193.4,11.8,-0.9,16.53,29.32,707.9498,140.0029],
    [8515,1525546680,57.3557,-111.9394,529.6,130.9,194.4,12.1,-0.7,16.53,29.12,707.8694,139.9965],
    [8516,1525546681,57.3551,-111.9395,529.3,130.3,193.0,9.8,-0.3,16.09,29.33,707.7285,140.0034],
    [8517,1525546682,57.3545,-111.9395,529.9,131.9,193.4,10.2,-0.7,16.44,29.87,707.6897,140.0013],
    [8518,1525546683,57.354,-111.9396,530.5,132.5,195.6,11.9,-1.7,15.9,29.29,707.5528,140.0014],
    [8519,1525546684,57.3534,-111.9397,530.9,132.9,195.0,11.1,-2.0,16.27,29.09,707.4981,140.0045],
    [8520,1525546685,57.3528,-111.9398,531.5,133.4,193.8,10.4,-1.2,16.5,28.8,707.5162,140.0],
    [8521,1525546686,57.3523,-111.9398,532.7,136.1,192.7,10.0,-0.9,16.74,28.68,707.4224,140.0013],
    [8522,1525546687,57.3518,-111.9399,533.8,139.1,192.6,10.2,-1.2,16.29,28.91,707.3136,139.9922],
    [8523,1525546688,57.3512,-111.9399,535.0,142.9,191.5,9.4,-1.3,16.47,28.86,707.3437,140.0065],
    [8524,1525546689,57.3507,-111.94,536.0,146.9,190.6,8.7,-0.9,16.24,29.01,707.2437,140.0141],
    [8525,1525546690,57.3501,-111.94,536.3,148.4,191.2,9.5,-1.4,15.99,28.82,707.1781,139.9967],
    [8526,1525546691,57.3496,-111.9401,536.9,146.9,191.2,9.6,-1.0,16.46,28.78,707.1047,139.9959],
    [8527,1525546692,57.349,-111.9401,537.9,146.7,190.5,9.8,-0.5,16.56,28.93,706.931,139.9913],
    [8528,1525546693,57.3485,-111.9401,538.3,147.1,190.5,10.0,-0.9,16.26,28.96,706.962,139.998],
    [8529,1525546694,57.3479,-111.9401,539.2,148.2,189.4,8.9,-1.7,16.48,28.61,706.8544,140.0047],
    [8530,1525546695,57.3474,-111.9401,540.5,149.6,190.3,10.0,-2.2,16.85,28.65,706.999,139.9993],
    [8531,1525546696,57.3469,-111.9402,541.5,149.7,191.2,10.8,-2.0,16.54,29.54,707.3123,139.9965],
    [8532,1525546697,57.3464,-111.9402,542.5,150.8,190.5,10.5,-0.8,16.6,28.69,707.2521,139.9966],
    [8533,1525546698,57.3458,-111.9402,543.5,151.6,190.1,10.4,-1.2,16.05,28.87,707.0441,139.9923],
    [8534,1525546699,57.3452,-111.9402,543.6,151.7,188.6,8.9,-0.5,16.7,28.51,706.9068,139.9979],
    [8535,1525546700,57.3447,-111.9402,541.8,150.8,188.1,8.8,-0.3,16.67,28.72,706.8333,139.9909],
    [8536,1525546701,57.3441,-111.9402,538.8,148.7,190.2,11.1,0.2,16.44,28.83,706.6038,140.0086],
    [8537,1525546702,57.3436,-111.9402,537.7,150.0,189.5,10.8,1.2,16.43,29.21,706.642,139.9984],
    [8538,1525546703,57.3431,-111.9402,539.8,152.6,188.0,10.1,1.8,16.51,28.93,706.8061,139.9979],
    [8539,1525546704,57.3425,-111.9401,542.0,158.7,185.8,8.5,2.2,16.6,29.26,706.8917,139.9979],
    [8540,1525546705,57.3419,-111.9401,543.4,160.5,185.0,7.9,2.4,16.42,28.99,707.0457,139.9966],
    [8541,1525546706,57.3414,-111.9401,545.1,160.1,184.2,7.0,1.8,16.51,28.86,707.0823,140.0058],
    [8542,1525546707,57.3409,-111.94,545.8,159.5,184.6,7.1,1.0,16.45,29.11,707.0724,139.9993],
    [8543,1525546708,57.3403,-111.94,545.0,156.7,187.7,9.3,-0.5,16.56,29.9,707.0814,139.9959],
    [8544,1525546709,57.3397,-111.94,543.4,153.4,190.0,9.9,-0.1,16.67,29.32,707.0692,139.9975],
    [8545,1525546710,57.3392,-111.94,542.1,151.0,190.8,9.5,1.3,16.52,29.15,707.2245,140.0005],
    [8546,1525546711,57.3387,-111.9401,540.5,149.6,191.6,9.2,1.6,16.59,29.17,707.3363,140.0024],
    [8547,1525546712,57.3381,-111.9401,540.5,149.5,191.4,9.0,1.5,16.62,28.97,707.3891,140.0071],
    [8548,1525546713,57.3375,-111.9402,541.0,149.9,192.8,10.5,1.5,16.07,29.05,707.3574,140.0029],
    [8549,1525546714,57.337,-111.9402,541.1,151.1,192.5,10.6,1.4,16.99,28.9,707.2731,139.9976],
    [8550,1525546715,57.3364,-111.9403,540.3,150.3,192.5,11.1,1.0,16.43,29.01,707.2448,139.9999],
    [8551,1525546716,57.3359,-111.9403,538.8,149.8,191.6,10.9,0.7,16.58,28.88,707.2502,139.999],
    [8552,1525546717,57.3354,-111.9404,537.8,149.8,190.1,10.6,0.4,16.77,29.23,707.2338,139.9984],
    [8553,1525546718,57.3348,-111.9404,537.8,149.8,188.6,10.5,0.9,16.48,28.86,707.3388,140.0025],
    [8554,1525546719,57.3342,-111.9403,538.6,150.6,187.5,10.4,0.5,16.12,28.7,707.3298,139.9959],
    [8555,1525546720,57.3337,-111.9403,539.1,152.1,186.4,10.0,0.6,16.32,28.68,707.1678,140.0048],
    [8556,1525546721,57.3331,-111.9402,539.1,152.3,186.3,10.4,0.6,16.65,29.19,707.2508,140.0003],
    [8557,1525546722,57.3325,-111.9402,539.1,153.3,185.7,9.8,0.7,16.78,28.59,707.3767,139.9984],
    [8558,1525546723,57.332,-111.9401,538.3,153.3,185.2,9.3,0.6,16.88,28.65,707.6282,139.9978],
    [8559,1525546724,57.3314,-111.9401,537.8,152.7,185.3,9.0,0.4,16.4,28.75,707.5737,139.993],
    [8560,1525546725,57.3309,-111.94,538.8,154.8,185.2,8.5,0.0,16.5,28.75,707.721,140.0033],
    [8561,1525546726,57.3303,-111.94,539.4,156.4,185.8,8.8,-0.1,16.56,28.28,707.897,140.0034],
    [8562,1525546727,57.3298,-111.9399,538.0,154.9,188.7,10.3,-1.1,16.08,28.81,707.9046,139.9957],
    [8563,1525546728,57.3291,-111.94,535.5,153.5,189.6,9.1,-1.0,16.93,28.41,707.8246,139.9906],
    [8564,1525546729,57.3285,-111.94,534.3,152.6,189.9,7.1,0.1,16.63,28.81,707.7988,139.9939],
    [8565,1525546730,57.328,-111.9401,533.4,152.4,190.8,6.9,0.2,16.64,28.9,708.1606,139.9934],
    [8566,1525546731,57.3274,-111.9402,532.0,151.0,193.7,7.6,-1.5,16.62,29.53,708.3838,139.9989],
    [8567,1525546732,57.3268,-111.9403,531.3,150.6,194.6,7.5,-1.2,16.84,28.63,708.5176,140.0103],
    [8568,1525546733,57.3263,-111.9405,531.3,151.3,195.6,7.9,-1.3,16.64,28.61,708.4142,139.9946],
    [8569,1525546734,57.3257,-111.9406,531.6,151.6,194.0,7.0,-0.2,17.28,28.37,708.1869,139.9982],
    [8570,1525546735,57.3251,-111.9407,530.2,150.4,192.8,7.9,0.9,17.11,28.6,708.1601,140.0015],
    [8571,1525546736,57.3246,-111.9408,526.3,146.6,194.6,11.5,-0.4,16.5,28.82,708.1914,139.9946],
    [8572,1525546737,57.324,-111.9409,524.1,145.1,191.0,9.6,-1.2,16.57,28.83,707.9782,139.9982],
    [8573,1525546738,57.3234,-111.9409,524.9,145.9,187.4,8.3,-1.6,17.11,28.5,707.9563,140.0023],
    [8574,1525546739,57.3228,-111.9409,527.2,148.5,183.9,7.3,-1.1,16.65,28.59,707.8885,139.9965],
    [8575,1525546740,57.3222,-111.9408,528.1,150.0,180.3,5.9,-2.4,16.52,29.18,707.7092,139.9939],
    [8576,1525546741,57.3216,-111.9407,528.0,150.9,175.8,3.9,-1.8,17.33,28.57,707.6834,139.9908],
    [8577,1525546742,57.321,-111.9405,529.2,153.5,172.2,1.9,-0.7,16.7,28.71,707.7228,140.0094],
    [8578,1525546743,57.3205,-111.9403,530.7,155.7,170.2,1.6,-0.9,16.69,29.88,707.6934,139.9988],
    [8579,1525546744,57.3199,-111.9401,531.4,157.5,171.8,4.1,-0.7,16.21,29.39,707.3897,140.0212],
    [8580,1525546745,57.3193,-111.9399,532.1,158.3,171.0,3.5,-0.3,16.79,29.48,707.0726,140.0025],
    [8581,1525546746,57.3187,-111.9397,532.7,159.7,169.3,3.2,1.5,16.28,30.11,706.9374,140.0027],
    [8582,1525546747,57.3182,-111.9394,533.2,161.5,170.1,5.6,2.0,16.63,30.7,706.9338,140.0033],
    [8583,1525546748,57.3176,-111.9391,533.5,163.5,168.5,6.5,2.2,16.8,30.81,706.8621,140.0034],
    [8584,1525546749,57.317,-111.9387,535.6,166.6,164.9,5.9,1.2,16.52,30.57,706.6966,139.9928],
    [8585,1525546750,57.3165,-111.9383,539.1,172.0,161.8,7.1,-0.7,17.3,30.18,706.4235,139.9923],
    [8586,1525546751,57.3159,-111.9379,541.9,175.2,160.6,9.0,-2.2,16.53,30.44,706.2934,139.9883],
    [8587,1525546752,57.3154,-111.9373,542.4,176.4,158.3,9.6,-1.0,16.56,30.71,706.1821,139.9995],
    [8588,1525546753,57.3149,-111.9368,543.3,178.3,153.8,9.3,-1.0,16.95,29.85,706.1083,139.9994],
    [8589,1525546754,57.3144,-111.9361,545.5,180.5,150.4,10.1,-0.4,16.67,30.02,705.9348,139.9974],
    [8590,1525546755,57.3139,-111.9354,548.4,183.4,147.3,10.8,0.2,16.7,30.46,705.8292,139.9974],
    [8591,1525546756,57.3134,-111.9346,550.8,186.1,142.4,9.6,0.6,16.69,29.55,705.8329,139.9963],
    [8592,1525546757,57.313,-111.9338,552.0,188.0,137.2,8.0,0.7,16.48,29.35,705.9255,139.9967],
    [8593,1525546758,57.3126,-111.933,553.0,189.0,132.9,8.0,0.8,17.16,28.96,706.1678,139.998],
    [8594,1525546759,57.3123,-111.9321,555.0,190.9,129.2,8.4,1.0,16.55,29.33,706.2088,140.0004],
    [8595,1525546760,57.3119,-111.9311,556.5,193.5,126.3,9.1,1.1,16.57,29.15,706.2012,139.992],
    [8596,1525546761,57.3117,-111.9301,556.7,194.8,122.8,8.8,0.5,16.55,29.14,706.1773,139.9936],
    [8597,1525546762,57.3114,-111.9291,555.7,194.7,119.3,8.6,0.1,16.67,29.47,706.1501,139.9861],
    [8598,1525546763,57.3111,-111.9282,554.1,193.8,116.6,9.3,0.1,16.63,29.02,706.0721,139.9908],
    [8599,1525546764,57.3109,-111.927,552.9,193.2,111.0,8.6,-0.8,16.55,29.19,706.4486,139.9991],
    [8600,1525546765,57.3107,-111.9258,552.5,194.5,106.3,9.4,-1.3,16.63,29.45,706.6937,139.9966],
    [8601,1525546766,57.3106,-111.9247,552.6,194.4,101.6,8.5,-2.3,16.97,29.13,707.2084,140.0024],
    [8602,1525546767,57.3104,-111.9236,552.2,196.2,97.5,6.4,-1.8,16.6,29.24,707.6073,140.0127],
    [8603,1525546768,57.3104,-111.9224,552.1,196.0,94.2,5.9,-0.5,16.18,29.25,707.7737,139.9845],
    [8604,1525546769,57.3103,-111.9212,550.5,195.5,92.9,6.4,1.2,16.68,29.96,707.84,139.99],
    [8605,1525546770,57.3103,-111.92,546.4,192.4,89.4,7.9,0.3,15.97,29.69,708.1453,140.0028],
    [8606,1525546771,57.3104,-111.9189,540.9,187.9,84.5,8.5,-1.4,16.55,29.94,708.2431,140.0022],
    [8607,1525546772,57.3104,-111.9177,534.9,182.9,82.2,6.8,-0.2,17.06,29.37,708.4979,139.9909],
    [8608,1525546773,57.3105,-111.9165,531.7,180.8,81.6,4.0,1.5,17.07,30.05,708.693,140.01],
    [8609,1525546774,57.3106,-111.9154,530.1,179.1,81.4,4.9,2.6,16.36,30.49,708.9112,139.9976],
    [8610,1525546775,57.3108,-111.9141,527.8,177.8,79.2,4.2,0.5,16.54,30.71,708.8838,139.9952],
    [8611,1525546776,57.3109,-111.9129,523.9,173.9,78.9,2.9,0.3,16.46,31.03,708.8843,139.9988],
    [8612,1525546777,57.311,-111.9117,521.3,172.3,81.5,2.5,2.5,16.55,31.47,708.8525,140.0024],
    [8613,1525546778,57.3111,-111.9105,520.1,172.1,82.2,2.9,2.5,16.59,32.27,708.8103,139.9997],
    [8614,1525546779,57.3112,-111.9094,519.1,171.1,83.7,4.2,3.7,16.39,32.02,708.8504,140.0012],
    [8615,1525546780,57.3113,-111.9081,518.0,171.0,86.2,3.9,5.3,16.67,32.24,708.7682,139.9974],
    [8616,1525546781,57.3114,-111.907,517.7,170.7,86.5,2.7,4.5,16.46,32.39,708.8083,140.009],
    [8617,1525546782,57.3115,-111.9057,517.7,171.7,85.7,2.6,2.7,17.04,32.19,708.707,140.0014],
    [8618,1525546783,57.3115,-111.9045,518.4,172.4,87.5,3.0,4.0,16.37,32.65,708.8507,140.0099],
    [8619,1525546784,57.3116,-111.9033,518.5,172.5,87.6,3.1,3.4,16.51,33.15,708.9808,140.0066],
    [8620,1525546785,57.3117,-111.9022,518.8,173.8,88.6,2.2,3.8,16.18,32.64,708.9743,140.016],
    [8621,1525546786,57.3117,-111.9009,518.9,173.9,89.8,2.7,4.0,16.47,32.81,708.8058,140.0014],
    [8622,1525546787,57.3117,-111.8998,519.1,175.1,91.2,3.0,6.0,16.17,32.99,708.6343,139.9831],
    [8623,1525546788,57.3118,-111.8987,519.0,175.0,90.8,4.4,7.2,16.49,32.51,708.3869,139.9888],
    [8624,1525546789,57.3119,-111.8974,518.1,175.1,86.3,4.8,7.8,16.27,32.68,708.4035,140.0094],
    [8625,1525546790,57.312,-111.8963,517.9,175.9,78.4,4.7,6.0,16.46,32.54,708.3897,139.9956],
    [8626,1525546791,57.3122,-111.8952,519.3,177.2,69.1,5.3,5.2,16.17,32.46,708.4615,139.9946],
    [8627,1525546792,57.3125,-111.8941,522.4,181.4,62.2,5.0,5.7,17.0,32.39,708.3754,140.0054],
    [8628,1525546793,57.3129,-111.8931,525.1,185.1,56.6,4.8,5.8,16.31,32.64,708.295,139.9943],
    [8629,1525546794,57.3132,-111.8922,526.0,185.0,49.4,6.6,4.4,16.48,32.79,708.2297,139.9954],
    [8630,1525546795,57.3136,-111.8914,525.8,184.8,42.5,7.2,3.3,16.33,33.28,708.2082,140.002],
    [8631,1525546796,57.3141,-111.8906,525.5,184.5,36.9,6.4,3.3,16.41,32.64,708.2332,139.9913],
    [8632,1525546797,57.3146,-111.89,525.4,183.4,31.4,6.5,3.2,17.13,32.42,708.3398,139.9939],
    [8633,1525546798,57.3151,-111.8893,526.1,184.8,24.1,6.6,2.8,16.48,32.8,708.5908,140.008],
    [8634,1525546799,57.3157,-111.8888,527.2,186.5,21.0,5.1,4.3,16.63,32.65,708.688,140.0067],
    [8635,1525546800,57.3162,-111.8885,528.0,188.0,18.4,4.3,5.5,16.35,32.53,708.8802,139.9984],
    [8636,1525546801,57.3168,-111.8881,528.1,189.1,14.4,4.7,5.1,16.75,32.19,708.7403,139.9877],
    [8637,1525546802,57.3174,-111.8878,526.6,188.6,12.6,3.6,4.4,16.06,32.48,708.9432,139.9919],
    [8638,1525546803,57.318,-111.8875,524.1,186.1,11.0,3.5,4.0,16.22,32.54,708.9722,140.0025],
    [8639,1525546804,57.3185,-111.8873,521.6,182.6,9.1,3.2,3.7,16.21,32.51,709.0787,140.002],
    [8640,1525546805,57.3192,-111.887,520.5,180.5,10.5,1.2,4.6,16.41,32.6,709.053,140.0001],
    [8641,1525546806,57.3198,-111.8868,519.9,180.2,9.0,2.3,3.3,16.43,32.68,708.9244,140.0005],
    [8642,1525546807,57.3204,-111.8866,518.6,179.6,9.3,1.5,2.8,16.5,33.6,708.8766,140.0015],
    [8643,1525546808,57.321,-111.8864,517.7,179.6,9.4,1.2,2.3,16.44,33.29,708.9244,140.0076],
    [8644,1525546809,57.3216,-111.8862,517.4,180.5,9.2,0.4,2.5,16.35,33.71,708.8621,140.0012],
    [8645,1525546810,57.3221,-111.8861,517.5,181.2,9.9,-0.9,2.8,16.35,33.7,708.7756,140.0178],
    [8646,1525546811,57.3227,-111.8859,518.6,182.5,7.2,1.5,2.5,16.44,33.81,708.6151,140.0024],
    [8647,1525546812,57.3234,-111.8858,519.7,184.7,5.7,1.6,3.0,16.48,33.98,708.4645,139.9934],
    [8648,1525546813,57.3239,-111.8857,519.8,185.8,5.6,0.7,3.5,15.76,34.31,708.3789,140.0061],
    [8649,1525546814,57.3245,-111.8856,519.6,185.6,2.6,2.4,3.3,16.29,34.98,708.2085,139.9976],
    [8650,1525546815,57.3252,-111.8855,520.5,187.2,360.8,3.2,2.8,16.58,34.68,708.0661,139.9991],
    [8651,1525546816,57.3257,-111.8854,522.5,188.4,360.5,3.1,3.4,16.95,34.33,707.8463,139.9979],
    [8652,1525546817,57.3263,-111.8854,524.3,190.3,360.3,3.1,3.1,16.36,34.83,707.4271,139.9918],
    [8653,1525546818,57.3269,-111.8853,525.6,190.7,360.7,3.5,3.7,16.12,34.66,707.423,139.9933],
    [8654,1525546819,57.3275,-111.8852,527.2,190.8,359.8,4.9,3.1,16.12,35.19,707.3966,139.9952],
    [8655,1525546820,57.3281,-111.8851,529.3,191.2,361.9,3.6,2.6,15.95,34.7,707.4562,139.9969],
    [8656,1525546821,57.3286,-111.885,531.9,193.9,3.5,3.2,2.6,16.11,34.98,707.5681,140.0139],
    [8657,1525546822,57.3292,-111.8849,535.4,197.1,4.3,3.1,1.7,16.49,34.52,707.562,140.0055],
    [8658,1525546823,57.3297,-111.8848,537.3,199.3,6.3,1.8,2.0,16.83,34.44,707.7468,140.003],
    [8659,1525546824,57.3303,-111.8846,537.9,199.9,5.4,3.2,1.3,15.86,34.76,707.7819,140.0009],
    [8660,1525546825,57.331,-111.8845,537.9,199.9,3.8,4.9,0.9,16.22,34.96,707.8026,140.0077],
    [8661,1525546826,57.3315,-111.8843,537.4,199.4,3.9,5.1,2.4,15.78,34.96,707.8321,140.0045],
    [8662,1525546827,57.3321,-111.8842,536.1,198.1,362.3,6.5,2.9,15.88,35.08,707.9104,139.9972],
    [8663,1525546828,57.3327,-111.884,534.7,195.7,2.5,5.9,3.3,16.54,34.95,707.8972,139.9974],
    [8664,1525546829,57.3332,-111.8839,534.0,195.0,2.9,5.4,4.3,16.49,34.81,707.6985,140.0017],
    [8665,1525546830,57.3338,-111.8837,533.5,194.5,361.5,6.5,5.4,15.99,35.11,707.436,139.9918],
    [8666,1525546831,57.3344,-111.8836,532.6,193.6,361.5,6.3,6.2,16.07,35.01,707.3169,139.9917],
    [8667,1525546832,57.335,-111.8835,531.5,192.5,3.0,4.7,5.0,16.69,35.06,707.2604,140.0039],
    [8668,1525546833,57.3356,-111.8833,531.4,192.9,4.9,3.0,4.3,15.8,35.72,707.3422,139.9956],
    [8669,1525546834,57.3362,-111.8832,532.8,194.8,4.4,3.3,3.4,16.08,35.63,707.294,140.0042],
    [8670,1525546835,57.3367,-111.8831,535.3,197.3,4.7,2.6,3.4,15.63,35.65,707.3101,139.9973],
    [8671,1525546836,57.3373,-111.8829,537.6,199.3,6.4,1.3,3.5,15.86,35.54,707.2873,140.001],
    [8672,1525546837,57.3379,-111.8828,538.7,199.7,5.8,2.2,2.9,15.98,36.16,707.3386,139.9988],
    [8673,1525546838,57.3385,-111.8827,538.6,199.6,5.1,3.0,2.5,16.79,35.12,707.4962,139.9943],
    [8674,1525546839,57.339,-111.8825,538.4,199.4,4.8,3.7,3.3,15.54,35.43,707.5358,139.995],
    [8675,1525546840,57.3396,-111.8824,538.6,200.6,5.4,3.2,5.2,15.67,35.51,707.6338,139.9949],
    [8676,1525546841,57.3402,-111.8822,538.1,200.1,5.4,3.4,4.9,15.8,35.53,707.9244,139.9963],
    [8677,1525546842,57.3408,-111.8821,537.4,200.4,4.4,4.1,4.0,15.85,35.5,708.1673,139.9987],
    [8678,1525546843,57.3414,-111.8819,536.5,200.5,6.9,1.9,4.2,15.83,36.06,708.6124,140.0095],
    [8679,1525546844,57.3419,-111.8818,535.6,200.6,7.5,1.9,4.2,15.85,35.46,708.7913,139.9931],
    [8680,1525546845,57.3425,-111.8816,533.9,198.1,6.1,2.9,3.6,16.19,35.24,708.8308,139.988],
    [8681,1525546846,57.3431,-111.8815,531.7,195.7,5.8,2.7,3.6,15.37,35.46,709.0753,139.9962],
    [8682,1525546847,57.3437,-111.8813,528.3,191.3,4.7,3.4,3.8,15.73,35.2,709.4692,139.9954],
    [8683,1525546848,57.3443,-111.8812,524.3,186.6,4.0,3.7,4.3,15.59,35.3,709.6032,140.0002],
    [8684,1525546849,57.3449,-111.8811,521.1,183.1,4.5,2.7,4.4,16.48,34.89,709.7483,140.0007],
    [8685,1525546850,57.3455,-111.8809,518.6,180.6,5.4,1.7,3.7,15.56,35.66,709.8415,140.0014],
    [8686,1525546851,57.3461,-111.8808,515.3,177.3,4.4,2.8,2.1,16.47,35.2,709.9269,140.0105],
    [8687,1525546852,57.3467,-111.8807,512.2,175.3,3.4,3.5,0.7,16.06,35.74,710.1394,140.0015],
    [8688,1525546853,57.3473,-111.8805,510.0,172.7,3.3,3.6,0.2,16.41,35.01,710.1152,140.0027],
    [8689,1525546854,57.3479,-111.8804,508.3,170.3,362.1,4.8,0.3,15.75,35.09,710.149,140.0014],
    [8690,1525546855,57.3485,-111.8803,506.9,167.9,361.7,5.5,1.4,15.65,34.24,710.2089,140.0001],
    [8691,1525546856,57.3491,-111.8802,505.9,166.9,360.4,7.1,2.4,15.8,33.43,710.192,140.0032],
    [8692,1525546857,57.3498,-111.88,504.6,165.6,361.3,6.0,3.4,15.59,32.51,710.198,139.9941],
    [8693,1525546858,57.3504,-111.8799,503.8,164.8,361.5,6.0,4.2,15.47,31.88,710.1055,140.0024],
    [8694,1525546859,57.351,-111.8798,503.4,165.4,361.9,5.5,4.7,16.12,32.28,709.9118,140.0081],
    [8695,1525546860,57.3517,-111.8797,502.7,165.0,3.1,4.2,3.7,15.49,31.43,709.7943,140.0012],
    [8696,1525546861,57.3523,-111.8795,501.9,164.9,3.6,3.6,2.5,16.03,31.33,709.8721,139.9896],
    [8697,1525546862,57.3529,-111.8794,502.1,166.1,3.9,3.6,1.2,16.64,30.6,710.0876,140.0032],
    [8698,1525546863,57.3535,-111.8793,503.6,167.6,362.3,5.7,0.5,16.17,31.11,710.204,140.0044],
    [8699,1525546864,57.3541,-111.8791,505.4,169.4,3.5,4.6,3.0,16.17,30.81,710.4271,140.0021],
    [8700,1525546865,57.3547,-111.879,506.3,169.3,4.2,4.1,3.6,15.73,31.03,710.3328,140.0051],
    [8701,1525546866,57.3553,-111.8788,506.3,169.3,6.8,0.8,3.8,16.59,30.54,710.2061,140.0006],
    [8702,1525546867,57.356,-111.8787,504.7,167.7,7.2,0.6,3.9,15.97,31.4,710.127,139.9985],
    [8703,1525546868,57.3566,-111.8785,503.0,165.9,5.1,2.2,4.3,16.07,32.41,710.0767,139.9958],
    [8704,1525546869,57.3572,-111.8784,501.4,163.4,5.8,1.2,4.4,16.1,32.68,710.062,139.9976],
    [8705,1525546870,57.3578,-111.8783,501.2,162.2,5.5,1.4,4.0,16.18,33.18,709.8327,140.0035],
    [8706,1525546871,57.3584,-111.8782,502.3,163.1,5.9,0.9,3.9,16.18,34.14,709.6714,139.9978],
    [8707,1525546872,57.359,-111.878,503.6,164.6,6.8,0.3,4.1,16.09,34.02,709.433,139.9945],
    [8708,1525546873,57.3596,-111.8779,504.4,165.4,7.2,0.1,4.0,16.4,33.87,709.3608,140.0034],
    [8709,1525546874,57.3602,-111.8778,505.0,166.0,7.3,0.0,3.4,16.32,34.66,709.1601,140.0022],
    [8710,1525546875,57.3609,-111.8776,506.4,168.4,5.7,1.5,2.9,16.69,33.87,708.977,139.9987],
    [8711,1525546876,57.3615,-111.8775,508.9,170.9,4.5,2.0,2.4,15.78,34.14,708.9307,139.9928],
    [8712,1525546877,57.362,-111.8774,511.2,172.2,4.8,1.3,2.7,16.33,34.43,708.9062,140.0029],
    [8713,1525546878,57.3627,-111.8773,513.3,174.3,3.7,1.9,3.2,16.1,34.16,708.8541,140.0023],
    [8714,1525546879,57.3632,-111.8772,515.0,176.0,362.2,2.9,3.7,16.66,33.83,708.7687,139.9976],
    [8715,1525546880,57.3639,-111.8771,517.0,177.0,362.2,2.6,3.3,15.75,34.16,708.6283,139.9986],
    [8716,1525546881,57.3644,-111.877,518.7,178.7,3.9,0.7,3.7,16.18,34.83,708.6212,140.0001],
    [8717,1525546882,57.365,-111.8769,519.3,180.3,4.8,0.1,4.3,15.95,34.42,708.5368,140.0029],
    [8718,1525546883,57.3656,-111.8769,519.8,180.8,4.1,0.7,4.2,16.03,34.73,708.5576,139.9984],
    [8719,1525546884,57.3662,-111.8768,520.6,181.6,3.8,1.1,3.7,16.04,34.9,708.577,139.9963],
    [8720,1525546885,57.3668,-111.8767,521.8,182.8,3.3,1.2,3.4,16.06,35.07,708.5663,139.9986],
    [8721,1525546886,57.3674,-111.8766,522.4,183.4,3.9,0.6,3.7,15.72,35.4,708.5821,140.006],
    [8722,1525546887,57.368,-111.8765,522.9,183.9,3.5,1.0,4.0,15.69,35.36,708.4919,140.0038],
    [8723,1525546888,57.3686,-111.8764,522.9,183.9,4.3,0.2,4.2,16.6,35.2,708.2924,140.0095],
    [8724,1525546889,57.3692,-111.8764,522.6,183.6,4.8,-0.5,4.1,16.0,35.49,708.0784,140.0039],
    [8725,1525546890,57.3698,-111.8763,522.8,183.8,3.5,-0.6,4.0,16.06,35.89,707.8437,139.9974],
    [8726,1525546891,57.3704,-111.8763,523.1,184.1,360.2,-0.4,4.1,16.07,35.83,707.5887,139.9977],
    [8727,1525546892,57.371,-111.8763,524.0,185.0,354.4,1.0,4.1,16.3,35.61,707.477,139.9962],
    [8728,1525546893,57.3716,-111.8765,525.9,186.8,348.6,1.1,4.1,16.23,35.97,707.3746,139.999],
    [8729,1525546894,57.3721,-111.8767,528.3,188.3,342.5,1.4,4.2,16.26,35.88,707.1941,139.9965],
    [8730,1525546895,57.3727,-111.877,531.2,190.2,337.1,1.3,4.1,15.37,36.52,707.1704,140.0013],
    [8731,1525546896,57.3732,-111.8774,533.7,191.5,332.2,1.4,4.4,16.51,36.18,707.1321,139.9994],
    [8732,1525546897,57.3737,-111.8779,535.7,192.7,326.4,2.4,4.3,16.22,36.3,707.1578,140.0055],
    [8733,1525546898,57.3742,-111.8785,537.5,192.8,322.5,1.9,3.6,15.84,37.08,707.0425,139.998],
    [8734,1525546899,57.3747,-111.8791,539.0,192.9,318.4,2.0,3.3,15.74,37.5,706.9344,139.9988],
    [8735,1525546900,57.3751,-111.8798,540.1,193.1,314.3,2.4,3.1,15.52,36.91,706.7185,140.0166],
    [8736,1525546901,57.3755,-111.8805,540.3,192.3,310.4,3.5,2.8,15.82,36.92,706.5898,140.0027],
    [8737,1525546902,57.3759,-111.8813,540.1,191.1,307.0,2.8,2.7,15.35,36.97,706.7549,139.9955],
    [8738,1525546903,57.3763,-111.8821,539.7,190.7,304.6,3.9,0.3,15.81,37.07,706.5527,139.9904],
    [8739,1525546904,57.3766,-111.8829,540.7,190.7,302.4,3.6,-1.3,15.62,36.93,706.7223,139.993],
    [8740,1525546905,57.3769,-111.8839,543.7,192.9,297.4,3.7,1.4,15.56,36.99,706.7142,139.9925],
    [8741,1525546906,57.3771,-111.8848,545.0,194.0,291.5,4.7,4.1,16.33,35.95,706.5287,139.9971],
    [8742,1525546907,57.3774,-111.8856,544.9,193.6,290.5,3.7,3.0,15.69,35.73,707.1878,140.0121],
    [8743,1525546908,57.3776,-111.8867,544.6,192.6,287.9,3.0,3.7,15.73,35.75,707.0203,140.0043],
    [8744,1525546909,57.3778,-111.8877,543.7,191.7,284.0,5.0,6.3,15.63,34.81,707.0472,140.0002],
    [8745,1525546910,57.378,-111.8886,543.1,190.1,281.7,6.7,6.6,15.5,34.0,707.5472,140.0236],
    [8746,1525546911,57.3782,-111.8896,542.7,189.7,282.8,6.7,3.2,15.27,33.89,707.7457,140.0071],
    [8747,1525546912,57.3783,-111.8906,540.1,187.1,282.4,4.8,1.5,15.85,32.58,707.8379,140.0182],
    [8748,1525546913,57.3785,-111.8917,538.7,185.7,276.2,5.4,4.9,15.72,32.68,707.7509,140.0073],
    [8749,1525546914,57.3785,-111.8927,537.2,184.2,274.2,7.0,4.4,16.11,31.95,707.6111,140.0018],
    [8750,1525546915,57.3786,-111.8937,533.5,179.5,272.5,5.8,4.3,15.9,31.97,707.7,139.9949],
    [8751,1525546916,57.3787,-111.8947,530.9,174.9,268.5,4.7,4.9,15.78,31.85,707.4603,140.0079],
    [8752,1525546917,57.3787,-111.8958,529.3,171.2,267.9,3.7,3.5,15.94,32.11,707.4271,140.002],
    [8753,1525546918,57.3787,-111.8967,530.0,170.1,266.0,3.2,4.6,16.06,31.3,707.2764,139.9965],
    [8754,1525546919,57.3787,-111.8978,531.3,169.3,265.1,3.2,4.4,15.84,31.48,707.241,139.9996],
    [8755,1525546920,57.3787,-111.8989,531.7,167.7,268.0,2.9,1.5,15.92,31.16,706.8579,139.9978],
    [8756,1525546921,57.3787,-111.8999,532.5,167.6,267.7,3.0,2.4,16.41,30.71,706.6328,140.0057],
    [8757,1525546922,57.3787,-111.9009,534.6,168.7,268.9,2.0,0.7,16.29,30.71,706.4404,139.99],
    [8758,1525546923,57.3787,-111.902,536.0,169.0,270.9,2.5,-1.5,15.9,31.56,706.2409,140.0043],
    [8759,1525546924,57.3787,-111.9031,537.7,168.7,268.8,3.6,0.5,16.7,31.01,706.0106,139.9947],
    [8760,1525546925,57.3786,-111.9041,540.7,170.4,266.6,4.1,2.8,15.74,31.4,705.8376,139.9884],
    [8761,1525546926,57.3786,-111.905,544.1,170.5,266.3,3.1,2.4,15.93,31.55,705.6633,140.0047],
    [8762,1525546927,57.3786,-111.906,546.4,169.8,269.5,1.7,-0.7,15.88,31.57,705.5283,139.9963],
    [8763,1525546928,57.3786,-111.9071,548.8,168.9,266.9,2.2,2.8,15.59,31.52,705.5118,140.0067],
    [8764,1525546929,57.3786,-111.908,551.6,168.6,266.2,2.0,3.6,16.67,31.21,705.4569,140.0031],
    [8765,1525546930,57.3786,-111.9091,554.8,167.9,269.3,3.0,1.1,15.81,31.79,705.2912,140.0],
    [8766,1525546931,57.3786,-111.9101,556.7,166.3,271.5,4.2,-0.3,15.96,32.18,705.1488,139.9933],
    [8767,1525546932,57.3786,-111.9111,558.0,165.1,273.0,4.7,-1.6,16.08,32.26,704.9461,140.0015],
    [8768,1525546933,57.3786,-111.912,559.0,164.0,272.4,3.2,-0.7,16.02,32.62,704.8574,139.9946],
    [8769,1525546934,57.3787,-111.9131,559.9,164.9,270.8,3.6,0.1,16.04,33.01,704.5032,139.9983],
    [8770,1525546935,57.3787,-111.914,561.3,166.3,270.7,4.2,-0.7,15.49,32.97,704.4875,139.9942],
    [8771,1525546936,57.3787,-111.9149,562.9,168.9,270.3,4.3,-1.4,16.16,32.74,704.5335,140.0018],
    [8772,1525546937,57.3786,-111.9159,564.7,170.7,270.5,4.4,-2.5,16.25,32.62,704.7584,139.9955],
    [8773,1525546938,57.3786,-111.9169,567.5,173.5,269.5,4.0,-1.9,16.1,33.46,704.6903,140.0036],
    [8774,1525546939,57.3786,-111.9179,570.2,176.2,268.2,4.4,-1.1,16.2,32.25,705.0983,139.9971],
    [8775,1525546940,57.3786,-111.9189,571.2,177.2,268.1,3.4,-1.4,16.35,32.06,705.2559,139.9963],
    [8776,1525546941,57.3785,-111.9198,570.7,175.7,267.2,2.9,-0.6,15.9,31.91,705.1948,139.9995],
    [8777,1525546942,57.3785,-111.9208,569.8,174.8,267.0,3.2,-0.3,16.12,31.85,705.056,140.0087],
    [8778,1525546943,57.3785,-111.9218,567.5,172.5,265.2,4.2,2.1,16.41,31.59,704.9011,140.0042],
    [8779,1525546944,57.3784,-111.9228,564.7,169.7,265.5,4.3,1.5,15.9,31.73,704.7017,140.017],
    [8780,1525546945,57.3784,-111.9237,562.6,166.6,268.2,4.3,-1.4,16.04,31.71,704.6859,140.0034],
    [8781,1525546946,57.3784,-111.9247,562.5,166.5,267.1,5.7,-1.8,16.15,32.02,704.2539,140.0003],
    [8782,1525546947,57.3783,-111.9257,563.7,167.7,264.6,6.7,-2.8,16.08,32.69,704.2788,139.9991],
    [8783,1525546948,57.3782,-111.9267,565.8,168.9,258.9,7.0,-1.7,16.41,31.88,703.9858,140.0065],
    [8784,1525546949,57.378,-111.9277,567.9,170.9,252.4,6.2,-1.2,16.14,31.83,703.7905,140.0002],
    [8785,1525546950,57.3778,-111.9286,569.6,172.6,247.5,6.5,-2.3,15.56,31.52,703.605,139.9934],
    [8786,1525546951,57.3775,-111.9295,572.2,175.1,238.7,7.5,0.4,16.27,30.88,703.5854,140.0008],
    [8787,1525546952,57.3772,-111.9302,574.4,180.1,234.6,9.2,-1.1,15.97,31.56,703.346,140.0002],
    [8788,1525546953,57.3769,-111.9309,576.8,186.3,231.4,9.6,-2.5,16.09,30.83,702.9208,140.0008],
    [8789,1525546954,57.3764,-111.9316,579.3,192.9,225.8,8.5,-2.3,15.7,30.54,702.7791,139.9874],
    [8790,1525546955,57.376,-111.9322,580.9,201.7,221.6,9.0,-1.7,16.11,30.08,702.8154,139.9933],
    [8791,1525546956,57.3755,-111.9327,583.1,208.8,215.1,6.9,-0.9,15.85,30.2,702.738,140.0067],
    [8792,1525546957,57.3751,-111.9332,585.4,212.3,210.2,5.7,-0.6,16.09,29.86,703.1097,139.9898],
    [8793,1525546958,57.3746,-111.9336,588.1,214.1,206.4,4.8,0.3,16.2,29.45,703.1522,140.0014],
    [8794,1525546959,57.3741,-111.9339,590.9,212.9,205.4,6.2,0.2,15.94,30.26,703.5343,140.0034],
    [8795,1525546960,57.3735,-111.9343,591.9,208.5,207.5,8.5,-0.9,15.73,29.64,703.5859,140.0009],
    [8796,1525546961,57.3731,-111.9346,591.4,202.4,206.1,7.3,-1.2,16.17,29.55,703.7901,140.0004],
    [8797,1525546962,57.3725,-111.9349,589.2,196.4,208.1,8.5,-3.0,15.67,29.52,703.9622,140.0018],
    [8798,1525546963,57.372,-111.9353,587.2,190.2,208.5,8.3,-2.5,16.33,29.24,704.3057,140.0054],
    [8799,1525546964,57.3715,-111.9356,584.4,186.2,208.4,7.3,-2.8,15.86,29.82,704.3658,140.0002],
    [8800,1525546965,57.371,-111.936,581.9,182.9,209.2,8.0,-2.6,15.76,29.48,704.4166,139.9943],
    [8801,1525546966,57.3704,-111.9364,580.1,180.1,209.4,8.7,-3.0,15.66,29.37,704.3334,139.993],
    [8802,1525546967,57.3699,-111.9368,577.6,177.6,208.1,7.7,-3.7,16.15,29.54,704.4352,139.9994],
    [8803,1525546968,57.3694,-111.9371,574.4,175.5,206.2,6.9,-3.6,16.84,28.98,704.4856,139.9989],
    [8804,1525546969,57.3689,-111.9374,572.8,174.5,201.6,4.3,-2.0,16.36,28.8,704.7491,140.0032],
    [8805,1525546970,57.3683,-111.9377,572.5,174.6,198.6,4.5,-1.7,16.44,29.31,704.9644,140.0021],
    [8806,1525546971,57.3677,-111.938,572.7,176.0,197.6,5.3,-2.3,16.2,29.28,705.4442,139.9895],
    [8807,1525546972,57.3672,-111.9382,572.1,178.1,195.8,5.2,-3.0,15.94,29.34,705.6888,140.0079],
    [8808,1525546973,57.3666,-111.9384,571.0,179.7,196.2,7.0,-4.4,15.67,29.13,705.6561,139.9979],
    [8809,1525546974,57.366,-111.9386,568.9,180.0,195.7,6.8,-5.2,16.12,29.52,705.5828,139.9885],
    [8810,1525546975,57.3654,-111.9387,565.0,176.0,193.4,5.2,-4.0,15.73,29.12,705.2465,139.9941],
    [8811,1525546976,57.3648,-111.9389,560.7,169.8,193.0,5.2,-2.6,15.79,29.04,705.1692,139.9969],
    [8812,1525546977,57.3642,-111.939,558.3,165.1,192.1,4.5,-1.1,16.01,29.24,704.6424,140.0021],
    [8813,1525546978,57.3636,-111.9392,556.6,160.6,192.1,4.4,-1.1,16.7,28.95,704.3492,139.9999],
    [8814,1525546979,57.363,-111.9394,557.0,159.0,193.1,5.9,0.8,16.25,28.85,704.3206,139.9999],
    [8815,1525546980,57.3624,-111.9395,559.1,161.1,193.9,7.6,2.9,16.36,28.76,704.3413,140.0018],
    [8816,1525546981,57.3618,-111.9397,561.8,163.5,195.8,9.9,2.0,16.42,28.68,704.5132,139.9956],
    [8817,1525546982,57.3612,-111.9398,565.1,166.1,195.8,9.6,1.7,16.12,29.02,704.5878,139.9972],
    [8818,1525546983,57.3606,-111.94,569.2,169.2,194.9,8.9,1.4,16.29,29.07,704.9338,140.0027],
    [8819,1525546984,57.36,-111.9401,571.8,171.6,195.1,9.4,0.7,16.37,28.87,705.0707,140.0065],
    [8820,1525546985,57.3594,-111.9403,572.2,171.2,194.2,9.0,0.0,16.46,29.19,705.1805,140.0037],
    [8821,1525546986,57.3588,-111.9404,571.3,170.3,193.2,9.0,-0.3,16.13,29.14,705.2405,139.9992],
    [8822,1525546987,57.3582,-111.9405,569.7,168.7,192.9,10.0,-0.5,16.17,28.83,705.2753,140.0119],
    [8823,1525546988,57.3576,-111.9406,567.4,166.4,191.1,9.6,-0.3,16.19,28.95,705.3408,139.9971],
    [8824,1525546989,57.3571,-111.9406,564.5,163.5,188.5,9.0,0.0,17.09,28.36,705.354,139.9957],
    [8825,1525546990,57.3565,-111.9406,563.1,162.1,186.1,8.5,-0.4,16.54,29.04,705.3641,140.0017],
    [8826,1525546991,57.3559,-111.9406,562.5,161.8,185.0,8.6,-1.1,16.33,28.8,705.3983,139.9946],
    [8827,1525546992,57.3552,-111.9405,561.8,161.8,184.2,8.3,-1.7,16.18,28.88,705.4531,140.0063],
    [8828,1525546993,57.3546,-111.9404,560.9,160.9,184.2,8.6,-2.7,16.56,28.56,705.4883,139.9978],
    [8829,1525546994,57.3541,-111.9404,560.8,160.7,185.4,9.6,-3.4,16.2,28.85,705.4885,140.0027],
    [8830,1525546995,57.3534,-111.9403,560.6,161.6,184.8,8.3,-2.5,16.18,28.89,705.2208,140.0013],
    [8831,1525546996,57.3528,-111.9403,560.4,162.5,185.1,7.9,-1.7,16.37,28.75,705.1533,140.0054],
    [8832,1525546997,57.3522,-111.9402,559.9,162.6,185.9,8.2,-1.8,16.19,28.87,705.0235,140.0039],
    [8833,1525546998,57.3517,-111.9402,559.3,165.8,187.4,9.0,-1.1,16.73,28.25,704.9427,139.9962],
    [8834,1525546999,57.3511,-111.9402,559.4,168.7,188.1,8.7,-0.2,15.78,28.89,704.894,139.9871],
    [8835,1525547000,57.3504,-111.9403,561.2,173.2,188.3,8.5,0.0,16.39,29.66,704.8547,139.9908],
    [8836,1525547001,57.3499,-111.9403,563.4,174.8,190.7,10.7,-1.8,16.06,29.1,704.6158,139.9881],
    [8837,1525547002,57.3494,-111.9403,564.9,173.8,191.4,10.9,-2.5,16.47,28.95,704.7006,139.9985],
    [8838,1525547003,57.3487,-111.9403,565.4,174.4,189.9,9.6,-2.2,16.77,28.16,704.693,139.9971],
    [8839,1525547004,57.3481,-111.9403,565.9,174.9,190.8,10.7,-1.7,16.37,28.98,704.9842,140.0125],
    [8840,1525547005,57.3475,-111.9404,566.9,176.0,190.7,10.1,-1.9,16.19,28.93,705.0477,140.0078],
    [8841,1525547006,57.3469,-111.9404,568.1,176.1,188.8,8.0,-1.3,16.35,29.12,705.5798,140.0055],
    [8842,1525547007,57.3463,-111.9404,568.2,176.2,187.3,7.0,-0.6,16.56,28.45,705.633,140.0042],
    [8843,1525547008,57.3458,-111.9404,567.7,174.7,188.1,8.3,-0.6,16.15,29.28,705.6942,140.0025],
    [8844,1525547009,57.3452,-111.9405,566.1,173.4,188.5,8.4,-1.9,16.41,29.15,706.0194,139.9996],
    [8845,1525547010,57.3446,-111.9405,563.8,172.8,188.5,8.9,-3.1,16.57,28.49,705.8738,139.9925],
    [8846,1525547011,57.344,-111.9405,561.1,171.1,190.7,11.4,-4.1,16.05,29.12,705.9899,140.0031],
    [8847,1525547012,57.3434,-111.9405,557.9,170.3,188.9,9.8,-4.5,16.95,28.73,705.9214,140.0106],
    [8848,1525547013,57.3428,-111.9405,555.4,170.4,187.5,9.0,-4.3,16.64,28.74,705.3736,139.998],
    [8849,1525547014,57.3422,-111.9405,553.8,170.5,188.2,9.6,-4.0,16.29,29.04,705.4032,139.9923],
    [8850,1525547015,57.3416,-111.9405,553.1,169.1,186.6,7.7,-2.0,16.45,29.25,705.5652,139.9991],
    [8851,1525547016,57.341,-111.9405,552.7,165.2,185.9,7.2,-1.0,16.48,29.55,705.5812,140.0004],
    [8852,1525547017,57.3404,-111.9405,553.2,164.2,184.7,5.4,-1.3,16.31,29.43,705.3043,139.9931],
    [8853,1525547018,57.3398,-111.9404,556.8,165.7,181.4,2.5,-0.8,16.83,28.33,705.1145,139.9913],
    [8854,1525547019,57.3392,-111.9404,559.5,168.5,184.5,6.1,-2.0,16.86,28.69,704.9582,139.9984],
    [8855,1525547020,57.3386,-111.9404,558.8,166.8,185.7,7.2,-2.6,16.43,29.17,704.9269,140.0001],
    [8856,1525547021,57.338,-111.9404,557.9,166.9,184.8,6.1,-2.0,16.46,28.9,704.854,139.9957],
    [8857,1525547022,57.3374,-111.9404,559.6,168.5,184.1,5.9,0.3,16.91,28.44,704.8453,139.9958],
    [8858,1525547023,57.3368,-111.9404,562.2,172.2,185.6,7.8,1.5,16.64,28.88,704.7846,140.0006],
    [8859,1525547024,57.3362,-111.9404,563.8,174.8,186.1,7.8,1.1,16.53,29.47,704.8272,140.005],
    [8860,1525547025,57.3356,-111.9403,565.4,176.4,185.6,7.1,0.8,17.11,28.82,704.8158,139.9967],
    [8861,1525547026,57.335,-111.9403,566.2,178.2,185.9,7.1,1.3,16.5,28.94,704.7338,139.9954],
    [8862,1525547027,57.3344,-111.9403,566.5,178.5,186.2,7.5,1.2,16.88,28.31,704.782,139.9954],
    [8863,1525547028,57.3339,-111.9403,566.9,179.9,186.8,8.1,0.4,16.53,28.93,704.7105,140.0013],
    [8864,1525547029,57.3333,-111.9403,566.9,179.8,185.9,6.9,0.5,16.96,28.44,704.5895,139.9964],
    [8865,1525547030,57.3327,-111.9403,566.8,180.8,185.5,6.7,1.2,16.66,28.85,704.6547,140.0014],
    [8866,1525547031,57.3321,-111.9403,567.0,182.0,185.4,6.4,2.1,16.28,28.95,704.5163,140.0059],
    [8867,1525547032,57.3315,-111.9403,567.2,182.2,185.8,6.8,2.2,17.09,28.46,704.4576,139.9932],
    [8868,1525547033,57.331,-111.9403,567.7,183.8,187.2,8.0,1.9,16.83,28.99,704.3994,140.002],
    [8869,1525547034,57.3304,-111.9403,568.5,184.5,187.8,9.0,2.0,16.29,28.97,704.4255,140.0024],
    [8870,1525547035,57.3298,-111.9403,568.9,185.9,188.7,10.2,1.2,16.66,28.77,704.2897,140.0075],
    [8871,1525547036,57.3292,-111.9403,569.4,186.4,187.9,9.6,1.4,16.83,28.2,704.2378,140.0016],
    [8872,1525547037,57.3286,-111.9403,570.8,188.8,187.9,10.0,1.5,16.6,28.77,704.3227,140.0042],
    [8873,1525547038,57.328,-111.9403,572.0,191.0,186.4,8.7,0.7,16.41,28.77,704.3419,140.002],
    [8874,1525547039,57.3275,-111.9403,572.4,191.4,186.2,8.6,0.1,16.6,28.67,704.3758,139.9998],
    [8875,1525547040,57.3269,-111.9402,572.7,192.7,186.1,8.3,0.2,16.75,28.63,704.3392,139.9952],
    [8876,1525547041,57.3263,-111.9402,573.4,193.4,186.7,8.9,0.0,16.17,28.81,704.3823,139.9943],
    [8877,1525547042,57.3257,-111.9402,573.4,193.4,187.8,9.2,0.4,16.83,28.54,704.425,139.993],
    [8878,1525547043,57.3251,-111.9402,572.8,193.8,186.4,7.6,1.1,16.49,28.81,704.6918,139.9948],
    [8879,1525547044,57.3246,-111.9402,572.8,193.8,186.6,7.7,0.9,16.5,28.82,704.8891,139.9988],
    [8880,1525547045,57.3239,-111.9402,572.7,194.8,187.7,8.3,0.3,16.08,28.94,705.2119,140.003],
    [8881,1525547046,57.3234,-111.9402,572.3,194.3,187.9,8.4,0.7,16.75,28.35,705.3288,140.0076],
    [8882,1525547047,57.3228,-111.9402,570.9,192.9,186.5,7.5,1.6,16.15,29.03,705.6527,139.9958],
    [8883,1525547048,57.3222,-111.9402,568.8,191.8,186.3,8.2,1.5,15.99,28.85,705.891,140.0003],
    [8884,1525547049,57.3217,-111.9402,566.1,190.1,185.8,8.3,1.3,16.8,28.64,705.9621,140.0013],
    [8885,1525547050,57.321,-111.9402,563.2,188.3,183.9,7.2,0.5,16.64,28.75,706.0347,140.0021],
    [8886,1525547051,57.3205,-111.9401,560.4,185.7,183.1,7.3,-0.3,16.24,29.0,706.2969,140.001],
    [8887,1525547052,57.3199,-111.94,557.5,183.6,182.1,7.1,0.1,15.89,28.92,706.4414,140.0008],
    [8888,1525547053,57.3193,-111.94,555.4,181.5,181.7,7.3,0.3,16.57,28.57,706.5625,140.0039],
    [8889,1525547054,57.3187,-111.9399,553.7,180.8,181.6,7.5,-0.1,16.34,28.82,706.684,140.0013],
    [8890,1525547055,57.3181,-111.9398,552.2,179.7,180.8,6.7,0.3,16.73,28.54,706.9014,140.0064],
    [8891,1525547056,57.3175,-111.9397,550.6,179.5,181.9,7.5,0.2,16.72,28.39,706.982,140.0092],
    [8892,1525547057,57.3169,-111.9396,548.6,178.6,183.9,8.9,-0.3,16.54,28.81,706.9504,140.0001],
    [8893,1525547058,57.3163,-111.9395,546.8,177.8,185.0,9.0,-0.8,16.62,28.29,706.9291,139.994],
    [8894,1525547059,57.3157,-111.9395,545.1,176.8,184.9,8.9,-1.2,16.05,28.81,706.7686,140.0078],
    [8895,1525547060,57.315,-111.9394,543.5,176.5,184.0,9.0,-2.0,16.44,28.76,706.7319,139.9977],
    [8896,1525547061,57.3144,-111.9393,542.5,177.5,180.9,8.6,-2.8,16.36,28.62,706.6881,140.0087],
    [8897,1525547062,57.3138,-111.9392,542.4,178.4,176.6,7.7,-3.2,16.57,29.17,706.5222,139.999],
    [8898,1525547063,57.3133,-111.939,542.7,179.4,170.5,5.3,-2.9,16.65,28.83,706.4953,140.0042],
    [8899,1525547064,57.3126,-111.9386,544.0,181.0,164.8,4.4,-2.3,16.64,28.57,706.4644,139.9958],
    [8900,1525547065,57.3121,-111.9383,544.8,182.8,161.7,5.4,-1.7,16.37,28.53,706.1779,140.0012],
    [8901,1525547066,57.3115,-111.9378,545.6,185.3,156.4,5.1,-1.8,16.57,28.48,706.1679,139.9903],
    [8902,1525547067,57.311,-111.9372,546.9,186.9,150.6,5.1,-2.1,16.63,28.84,706.1783,139.9968],
    [8903,1525547068,57.3105,-111.9366,548.2,189.2,148.0,6.8,-2.1,16.55,28.44,706.2326,140.0003],
    [8904,1525547069,57.31,-111.9359,549.6,191.5,144.6,7.6,-2.2,16.77,28.41,706.4034,139.9987],
    [8905,1525547070,57.3095,-111.9351,551.4,192.3,139.7,6.7,-2.9,17.19,28.22,706.4185,139.9992],
    [8906,1525547071,57.3091,-111.9343,552.4,195.1,137.1,7.6,-1.9,16.56,28.57,706.432,140.0022],
    [8907,1525547072,57.3087,-111.9335,552.5,195.5,134.6,8.1,-1.7,16.39,28.72,706.5156,139.9972],
    [8908,1525547073,57.3083,-111.9326,551.9,195.6,129.8,7.3,-2.9,16.32,28.56,706.529,140.0],
    [8909,1525547074,57.3079,-111.9317,551.0,194.0,126.3,7.6,-2.9,16.46,28.76,706.5452,139.9953],
    [8910,1525547075,57.3076,-111.9307,550.1,194.2,123.5,8.1,-3.0,16.48,28.51,706.6189,139.9978],
    [8911,1525547076,57.3073,-111.9298,549.5,193.4,120.2,8.0,-3.5,16.59,28.66,706.7081,139.9956],
    [8912,1525547077,57.307,-111.9288,549.2,194.2,117.5,8.5,-2.7,17.26,28.3,706.8515,140.0006],
    [8913,1525547078,57.3068,-111.9278,548.9,194.8,114.8,8.6,-2.3,16.65,28.97,706.9121,140.0022],
    [8914,1525547079,57.3065,-111.9266,548.5,195.9,110.7,8.2,-2.4,16.47,28.56,706.8311,139.9997],
    [8915,1525547080,57.3063,-111.9255,547.3,195.3,107.6,7.9,-2.3,17.02,28.32,706.7726,139.9971],
    [8916,1525547081,57.3062,-111.9245,546.5,194.5,104.0,7.5,-2.7,16.68,28.44,706.5304,139.9954],
    [8917,1525547082,57.306,-111.9233,545.6,194.7,101.2,7.9,-2.3,16.41,28.54,706.5291,139.9977],
    [8918,1525547083,57.3059,-111.9222,544.6,193.6,99.0,8.3,-1.8,17.01,28.46,706.4787,139.999],
    [8919,1525547084,57.3058,-111.9211,544.5,194.5,95.3,8.2,-2.7,16.69,28.37,706.4066,139.9933],
    [8920,1525547085,57.3057,-111.9199,545.5,195.3,92.5,8.1,-2.5,16.66,28.37,706.3832,139.999],
    [8921,1525547086,57.3057,-111.9188,546.8,197.7,90.8,8.0,-2.0,16.63,28.56,706.3002,139.9949],
    [8922,1525547087,57.3057,-111.9176,548.3,200.2,88.8,8.0,-2.0,16.61,28.62,706.2678,139.9995],
    [8923,1525547088,57.3057,-111.9165,549.0,202.0,88.0,8.4,-1.3,16.37,28.73,706.3449,139.9962],
    [8924,1525547089,57.3057,-111.9153,549.5,202.5,86.9,8.4,-0.9,16.49,28.91,706.3628,140.0012],
    [8925,1525547090,57.3057,-111.9142,550.1,202.1,85.7,9.0,-0.5,16.6,28.73,706.4332,140.0016],
    [8926,1525547091,57.3058,-111.9131,550.6,202.9,82.6,9.3,-1.6,16.97,28.48,706.3646,139.997],
    [8927,1525547092,57.3058,-111.9119,551.1,204.2,79.5,9.1,-2.6,16.62,28.77,706.4782,139.9949],
    [8928,1525547093,57.3059,-111.9109,551.2,205.2,77.8,9.2,-2.5,16.41,29.15,706.5293,139.999],
    [8929,1525547094,57.306,-111.9097,550.8,205.8,76.7,9.3,-1.8,16.59,28.92,706.5771,140.0011],
    [8930,1525547095,57.3061,-111.9086,550.2,206.2,75.1,9.6,-1.7,16.77,28.17,706.4878,140.0044],
    [8931,1525547096,57.3063,-111.9075,549.9,206.9,73.3,9.6,-2.0,16.49,28.95,706.4816,140.004],
    [8932,1525547097,57.3064,-111.9065,549.5,206.5,73.4,9.0,-1.1,17.14,28.46,706.4416,139.9976],
    [8933,1525547098,57.3066,-111.9054,548.7,206.8,73.9,8.9,0.3,16.67,28.33,706.4349,139.9977],
    [8934,1525547099,57.3067,-111.9043,548.5,206.5,72.5,9.1,-0.1,17.13,28.43,706.5259,140.0004],
    [8935,1525547100,57.3069,-111.9032,548.6,206.6,70.7,9.4,-0.8,16.67,28.64,706.6693,140.0009],
    [8936,1525547101,57.307,-111.9022,549.0,208.0,70.0,9.4,-0.6,16.28,28.67,706.7444,140.0001],
    [8937,1525547102,57.3072,-111.901,549.6,207.6,70.4,9.4,0.8,16.07,28.75,706.8067,140.0009],
    [8938,1525547103,57.3074,-111.9,549.7,206.8,69.6,9.7,1.0,16.61,28.61,706.876,140.0],
    [8939,1525547104,57.3076,-111.8991,549.2,205.5,67.3,9.8,0.3,16.22,28.87,706.9333,139.9985],
    [8940,1525547105,57.3078,-111.8979,547.9,202.9,64.4,9.7,-0.3,16.26,28.85,706.9746,140.0019],
    [8941,1525547106,57.3081,-111.8969,546.4,201.4,61.1,10.1,-0.6,16.71,28.59,706.9367,139.9989],
    [8942,1525547107,57.3083,-111.8959,545.2,201.2,57.5,10.8,-1.1,16.44,28.9,706.649,139.9939],
    [8943,1525547108,57.3086,-111.8949,544.3,201.3,54.7,10.9,-0.8,16.52,29.1,706.5893,140.0024],
    [8944,1525547109,57.3089,-111.8939,543.6,201.3,52.4,10.9,-0.4,16.77,28.73,706.5604,140.0096],
    [8945,1525547110,57.3092,-111.893,543.1,202.1,49.0,11.4,-0.6,16.32,28.79,706.446,140.0024],
    [8946,1525547111,57.3096,-111.8921,543.2,202.2,46.1,11.3,-0.8,16.69,28.6,706.2153,139.9958],
    [8947,1525547112,57.3099,-111.8913,544.2,204.2,43.8,10.7,-1.3,16.19,29.0,706.1883,139.9937],
    [8948,1525547113,57.3103,-111.8904,546.4,206.4,42.6,10.1,0.2,17.18,28.72,705.8533,139.9897],
    [8949,1525547114,57.3106,-111.8897,547.5,207.5,42.0,9.7,2.4,16.4,29.0,705.4916,139.9919],
    [8950,1525547115,57.3111,-111.8888,548.9,208.9,39.1,9.6,3.4,16.11,29.18,705.2393,139.9994],
    [8951,1525547116,57.3116,-111.8881,550.3,210.3,34.3,11.1,2.4,16.21,29.32,704.9958,139.9929],
    [8952,1525547117,57.312,-111.8874,551.4,211.4,31.8,10.4,1.5,16.68,29.04,704.897,139.9983],
    [8953,1525547118,57.3125,-111.8868,553.6,213.6,31.6,7.3,0.8,15.9,29.54,704.7827,139.9928],
    [8954,1525547119,57.3129,-111.8862,556.6,216.6,31.3,5.7,1.5,16.47,29.84,704.6349,139.9936],
    [8955,1525547120,57.3134,-111.8856,561.5,220.7,29.5,5.9,2.7,16.49,29.95,704.7099,139.9968],
    [8956,1525547121,57.3139,-111.885,564.4,223.4,25.2,8.0,1.7,16.45,30.16,704.5764,140.0013],
    [8957,1525547122,57.3144,-111.8845,566.1,225.1,22.0,8.3,-0.2,16.57,30.03,704.6175,139.9962],
    [8958,1525547123,57.3149,-111.884,567.6,227.6,19.9,7.5,-0.5,15.89,30.23,704.5119,139.9985],
    [8959,1525547124,57.3154,-111.8835,569.4,229.4,20.6,4.8,1.0,16.54,31.03,704.3825,140.0056],
    [8960,1525547125,57.3159,-111.8831,569.7,230.7,19.8,4.2,0.7,16.64,31.34,704.3207,139.9957],
    [8961,1525547126,57.3164,-111.8827,569.6,231.6,15.8,6.4,-1.3,16.79,30.89,704.461,140.0042],
    [8962,1525547127,57.317,-111.8824,570.1,232.1,13.8,6.6,-1.7,16.18,31.58,704.6142,139.9893],
    [8963,1525547128,57.3175,-111.882,571.3,233.3,14.4,5.2,-0.7,16.29,31.73,704.7642,139.9929],
    [8964,1525547129,57.318,-111.8817,572.7,234.7,12.6,6.0,0.2,16.89,31.94,705.2949,140.0033],
    [8965,1525547130,57.3185,-111.8814,573.5,235.5,12.6,5.1,0.8,15.84,32.53,705.3969,139.9995],
    [8966,1525547131,57.319,-111.8811,572.8,233.8,11.9,4.9,1.1,15.89,32.7,705.599,139.9982],
    [8967,1525547132,57.3196,-111.8808,571.2,233.2,11.2,3.5,0.4,16.18,33.6,705.7105,140.0011],
    [8968,1525547133,57.3201,-111.8806,568.1,230.8,10.7,2.6,-0.1,16.24,33.3,705.7259,139.996],
    [8969,1525547134,57.3207,-111.8804,564.4,227.4,7.5,4.3,-0.4,16.02,33.86,705.7646,139.9956],
    [8970,1525547135,57.3213,-111.8802,561.0,224.0,4.7,5.1,-0.7,15.86,33.62,705.9359,139.999],
    [8971,1525547136,57.3218,-111.88,558.5,221.5,4.1,4.4,-0.6,16.1,33.9,705.9886,140.0035],
    [8972,1525547137,57.3223,-111.8799,557.0,218.9,362.4,4.9,-0.8,16.27,34.05,705.9213,140.0006],
    [8973,1525547138,57.323,-111.8798,556.5,218.5,361.2,4.7,-0.7,16.46,33.86,705.8281,140.0007],
    [8974,1525547139,57.3235,-111.8797,555.6,218.5,361.4,3.8,-0.8,16.24,34.94,705.7884,140.0027],
    [8975,1525547140,57.3241,-111.8796,554.4,218.7,362.1,2.7,-0.6,15.96,34.56,705.8075,139.9989],
    [8976,1525547141,57.3247,-111.8795,553.8,218.8,361.9,2.4,0.1,16.79,34.26,705.9236,140.0006],
    [8977,1525547142,57.3252,-111.8794,554.2,220.2,360.8,2.8,0.6,16.22,34.43,705.9648,139.9928],
    [8978,1525547143,57.3258,-111.8794,555.3,221.1,360.1,2.3,0.9,15.64,34.77,705.983,139.9931],
    [8979,1525547144,57.3264,-111.8794,555.9,220.9,359.2,2.3,1.2,15.77,34.77,705.9707,139.9941],
    [8980,1525547145,57.3269,-111.8793,555.9,220.0,357.2,3.3,1.2,16.37,35.21,705.9435,140.0031],
    [8981,1525547146,57.3275,-111.8793,555.2,219.2,357.2,2.6,1.8,16.4,34.36,706.2027,140.0],
    [8982,1525547147,57.3281,-111.8794,554.2,218.2,357.0,2.4,1.6,16.39,34.76,706.3619,139.9971],
    [8983,1525547148,57.3286,-111.8794,553.7,217.7,357.1,1.7,0.3,16.13,34.96,706.6543,139.9958],
    [8984,1525547149,57.3292,-111.8794,553.7,217.6,356.5,2.4,0.8,16.15,34.77,706.8678,139.9985],
    [8985,1525547150,57.3298,-111.8794,553.6,218.1,354.9,4.0,1.7,16.09,35.07,706.9597,139.9914],
    [8986,1525547151,57.3304,-111.8794,551.8,216.8,356.0,3.0,2.5,15.81,34.65,706.8053,139.9976],
    [8987,1525547152,57.3309,-111.8795,549.3,214.3,355.6,3.7,2.8,16.17,34.27,706.807,140.0044],
    [8988,1525547153,57.3315,-111.8795,546.7,210.7,353.7,5.4,2.0,15.51,34.57,706.8484,139.9974],
    [8989,1525547154,57.3321,-111.8795,544.0,208.0,354.2,5.1,0.8,16.31,34.83,706.9128,140.0044],
    [8990,1525547155,57.3327,-111.8795,542.1,205.4,354.3,5.6,-0.2,16.19,34.39,706.895,140.0068],
    [8991,1525547156,57.3333,-111.8795,541.7,204.4,355.1,5.7,-0.8,15.76,34.54,706.7434,139.9983],
    [8992,1525547157,57.3339,-111.8795,542.2,203.2,353.3,7.3,-0.6,16.76,33.85,706.4988,139.9992],
    [8993,1525547158,57.3345,-111.8796,542.6,202.6,354.9,5.3,0.4,16.39,33.5,706.4597,140.0007],
    [8994,1525547159,57.3351,-111.8796,542.2,202.1,355.9,4.7,1.4,16.12,33.95,706.2255,139.9894],
    [8995,1525547160,57.3357,-111.8796,541.6,202.9,356.4,5.2,2.0,15.71,34.03,706.2283,139.9858],
    [8996,1525547161,57.3363,-111.8795,543.0,205.0,356.7,6.3,0.8,16.38,33.8,706.1878,140.0083],
    [8997,1525547162,57.3369,-111.8795,545.6,208.6,358.1,6.2,0.2,15.71,33.81,706.2812,139.9969],
    [8998,1525547163,57.3375,-111.8794,547.1,209.3,357.9,8.5,0.2,16.67,33.44,706.4115,139.9938],
    [8999,1525547164,57.3381,-111.8793,548.2,210.2,358.2,9.5,-1.5,15.68,33.83,706.495,140.0064],
    [9000,1525547165,57.3387,-111.8791,549.0,211.0,361.2,7.2,-2.0,16.13,33.47,706.6746,139.9885],
    [9001,1525547166,57.3393,-111.879,549.2,211.2,361.1,8.4,-1.9,16.74,32.31,706.8496,140.0085],
    [9002,1525547167,57.3399,-111.8788,548.7,211.7,360.6,9.0,-1.2,15.75,32.22,707.1329,139.9997],
    [9003,1525547168,57.3405,-111.8787,547.4,211.4,361.0,8.9,-1.8,16.57,31.73,707.1506,139.9989],
    [9004,1525547169,57.3411,-111.8785,545.8,210.5,359.7,10.2,-2.5,16.17,31.53,707.2041,140.0033],
    [9005,1525547170,57.3417,-111.8783,543.5,209.5,360.5,9.4,-2.9,16.09,31.19,707.2324,139.9932],
    [9006,1525547171,57.3424,-111.8781,541.2,207.2,361.2,8.7,-3.0,16.08,31.52,707.5097,139.9984],
    [9007,1525547172,57.3429,-111.878,539.5,204.5,3.2,6.3,-2.8,16.28,31.02,707.4941,139.9997],
    [9008,1525547173,57.3436,-111.8778,537.9,203.0,5.4,4.9,-2.2,16.07,30.67,707.2997,140.0052],
    [9009,1525547174,57.3442,-111.8776,536.8,200.8,4.4,6.6,-2.9,16.46,30.17,707.5611,139.9952],
    [9010,1525547175,57.3448,-111.8774,535.3,199.3,6.0,5.4,-3.9,16.07,31.06,707.4909,139.9853],
    [9011,1525547176,57.3454,-111.8772,534.5,198.5,8.7,3.2,-2.6,16.21,31.27,707.4707,139.9918],
    [9012,1525547177,57.346,-111.8769,534.0,197.9,6.0,6.8,-2.8,16.4,31.25,707.5173,139.9989],
    [9013,1525547178,57.3466,-111.8767,533.9,197.9,6.1,5.3,-2.7,16.79,31.12,707.5026,140.0053],
    [9014,1525547179,57.3473,-111.8765,533.1,197.1,9.4,1.9,-1.9,16.21,31.37,707.5478,140.0001],
    [9015,1525547180,57.3479,-111.8763,533.3,197.3,5.1,5.7,-2.5,15.97,31.71,707.6815,140.0009],
    [9016,1525547181,57.3485,-111.8761,533.6,197.6,5.6,4.0,-2.5,16.06,31.36,707.8618,139.9969],
    [9017,1525547182,57.3491,-111.8759,533.8,197.6,4.5,3.9,-3.0,16.15,31.68,707.904,140.0012],
    [9018,1525547183,57.3497,-111.8758,534.0,197.7,2.6,4.0,-3.2,16.54,30.54,708.1066,139.9952],
    [9019,1525547184,57.3502,-111.8757,533.7,197.7,361.4,3.8,-4.5,15.99,30.94,708.2792,139.9991],
    [9020,1525547185,57.3508,-111.8756,532.2,196.2,360.6,3.2,-4.0,16.92,30.1,708.625,139.9925],
    [9021,1525547186,57.3514,-111.8755,530.3,194.3,359.6,2.5,-3.8,16.74,30.01,708.7472,139.992],
    [9022,1525547187,57.352,-111.8755,529.1,193.1,358.4,2.0,-3.7,15.98,30.47,709.1744,140.0028],
    [9023,1525547188,57.3526,-111.8755,527.2,191.2,357.5,1.5,-2.7,16.6,30.02,709.2673,139.9976],
    [9024,1525547189,57.3532,-111.8756,524.9,188.9,354.4,3.6,-3.2,16.93,29.65,709.6563,140.0105],
    [9025,1525547190,57.3537,-111.8756,521.8,185.8,353.2,3.6,-3.8,16.15,29.98,710.0794,140.0042],
    [9026,1525547191,57.3543,-111.8757,519.2,183.2,354.7,1.1,-3.5,16.39,30.13,710.2429,140.0011],
    [9027,1525547192,57.3549,-111.8758,515.9,179.6,352.8,3.1,-4.2,16.39,30.94,710.4064,140.0034],
    [9028,1525547193,57.3555,-111.8759,512.1,175.1,352.9,2.7,-4.8,16.28,30.28,710.7434,139.999],
    [9029,1525547194,57.3561,-111.876,508.4,171.4,351.5,4.8,-4.0,15.96,30.1,710.9384,140.0076],
    [9030,1525547195,57.3566,-111.8761,505.4,168.4,349.6,6.2,-3.2,15.8,30.08,711.1564,140.0011],
    [9031,1525547196,57.3572,-111.8762,502.7,165.7,352.6,2.4,-2.7,16.34,30.1,711.2609,140.0056],
    [9032,1525547197,57.3578,-111.8763,500.4,162.4,352.7,2.1,-1.8,16.28,30.26,711.5472,139.997],
    [9033,1525547198,57.3583,-111.8764,497.6,159.5,351.8,3.1,-1.5,16.92,29.95,711.723,139.9996],
    [9034,1525547199,57.3589,-111.8765,494.2,155.2,352.2,2.9,-2.0,16.4,30.44,711.9491,140.0096],
    [9035,1525547200,57.3595,-111.8766,491.8,152.8,354.2,0.8,-0.9,16.16,31.05,712.2999,139.9984],
    [9036,1525547201,57.3601,-111.8767,490.2,151.2,355.3,0.1,0.4,16.97,30.3,712.5642,140.0018],
    [9037,1525547202,57.3606,-111.8768,488.1,150.1,354.9,0.7,0.9,16.18,30.96,712.7425,140.0036],
    [9038,1525547203,57.3612,-111.8769,485.5,147.5,356.0,0.5,0.8,15.81,31.11,712.9714,140.0002],
    [9039,1525547204,57.3617,-111.8769,482.6,144.6,355.1,2.0,0.5,16.33,31.32,713.0358,139.9991],
    [9040,1525547205,57.3623,-111.877,479.3,140.3,355.8,1.4,0.2,16.18,31.26,712.9532,140.0042],
    [9041,1525547206,57.3629,-111.877,475.6,136.6,356.5,0.8,0.4,16.32,31.32,713.0263,139.9995],
    [9042,1525547207,57.3634,-111.8771,473.0,134.0,353.8,3.3,0.9,16.67,31.43,713.1499,140.0097],
    [9043,1525547208,57.364,-111.8771,471.1,131.1,352.7,3.1,1.8,16.21,31.86,713.1419,140.003],
    [9044,1525547209,57.3646,-111.8772,470.2,130.2,352.9,2.1,1.2,16.83,31.66,713.1283,139.997],
    [9045,1525547210,57.3651,-111.8773,469.8,129.8,352.8,1.5,0.1,16.07,32.69,713.4166,140.0034],
    [9046,1525547211,57.3657,-111.8774,469.7,130.5,353.6,-0.3,-0.3,15.96,33.13,713.6124,140.0084],
    [9047,1525547212,57.3663,-111.8776,469.1,129.4,353.8,-1.7,0.4,16.59,32.79,713.6919,139.9961],
    [9048,1525547213,57.3668,-111.8777,469.0,130.0,350.7,-0.7,0.8,16.47,33.52,713.7097,140.0089],
    [9049,1525547214,57.3673,-111.8779,468.3,129.3,347.7,-0.1,0.6,16.09,33.34,713.7645,140.0087],
    [9050,1525547215,57.3679,-111.8782,466.2,126.2,345.5,0.1,0.6,16.33,33.53,713.6955,140.0001],
    [9051,1525547216,57.3684,-111.8784,464.0,123.9,341.9,1.2,0.0,16.26,33.67,713.4951,139.9984],
    [9052,1525547217,57.369,-111.8788,462.2,122.2,338.8,1.5,-1.9,16.5,33.7,713.6115,139.9967],
    [9053,1525547218,57.3695,-111.8792,460.2,119.1,334.3,2.6,-2.0,16.36,33.49,713.7394,140.0128],
    [9054,1525547219,57.37,-111.8796,458.6,116.6,328.2,5.3,-0.9,16.59,33.35,713.8087,140.0111],
    [9055,1525547220,57.3704,-111.8801,459.2,116.3,324.7,3.9,-1.0,16.69,32.4,713.8386,140.0041],
    [9056,1525547221,57.3709,-111.8807,461.9,116.9,323.1,2.1,-0.9,16.18,32.63,713.7166,139.9983],
    [9057,1525547222,57.3713,-111.8813,462.1,116.1,318.3,2.9,-1.0,16.82,31.67,713.6203,139.9873],
    [9058,1525547223,57.3717,-111.882,461.5,113.5,315.5,0.7,-2.0,16.4,31.97,713.4997,139.9987],
    [9059,1525547224,57.372,-111.8827,460.3,111.3,310.4,-0.1,-0.5,16.29,31.71,713.5632,139.9964],
    [9060,1525547225,57.3723,-111.8834,459.8,109.8,303.8,-0.6,1.5,16.54,32.07,713.6998,140.0038],
    [9061,1525547226,57.3726,-111.8842,461.0,111.0,298.0,0.0,2.4,16.6,32.27,713.8634,139.9938],
    [9062,1525547227,57.3729,-111.8851,462.2,111.2,296.1,0.5,0.3,16.82,31.66,714.02,139.9956],
    [9063,1525547228,57.3731,-111.886,462.7,112.0,293.1,1.4,1.4,16.5,32.14,714.1006,139.9999],
    [9064,1525547229,57.3733,-111.8869,463.0,113.0,289.5,2.6,3.6,15.97,32.58,714.2751,139.9918],
    [9065,1525547230,57.3735,-111.8878,462.1,112.1,289.5,2.5,3.0,16.51,32.57,714.3064,139.9976],
    [9066,1525547231,57.3737,-111.8887,460.2,110.2,290.2,2.2,1.5,16.53,32.91,714.539,139.996],
    [9067,1525547232,57.3739,-111.8896,458.1,108.1,290.4,2.6,1.0,16.94,32.87,714.6855,139.9928],
    [9068,1525547233,57.3741,-111.8906,456.2,105.2,289.8,3.0,1.4,17.01,32.12,714.9349,139.9986],
    [9069,1525547234,57.3743,-111.8914,454.8,102.9,291.2,4.3,0.0,16.46,32.56,715.0698,140.0172],
    [9070,1525547235,57.3746,-111.8924,453.1,100.8,292.0,4.7,-0.5,17.25,31.85,715.1353,140.0004],
    [9071,1525547236,57.3748,-111.8933,451.9,97.8,293.2,3.3,-1.2,17.29,31.67,715.3374,139.9993],
    [9072,1525547237,57.375,-111.8943,449.2,93.4,294.5,2.1,-1.4,16.43,32.37,715.4652,139.9996],
    [9073,1525547238,57.3752,-111.8952,446.9,89.2,293.2,4.1,-0.2,16.52,31.9,715.5797,139.9971],
    [9074,1525547239,57.3754,-111.8962,444.1,84.1,291.0,4.3,1.4,16.4,31.84,715.7001,140.0115],
    [9075,1525547240,57.3757,-111.897,443.2,82.2,291.9,3.2,0.6,16.6,32.2,716.0365,139.9996],
    [9076,1525547241,57.3759,-111.898,441.1,78.1,291.2,4.2,-0.3,16.62,32.06,716.1403,140.0029],
    [9077,1525547242,57.3761,-111.8989,439.7,75.6,290.1,3.2,-1.9,16.61,32.09,716.1037,140.0104],
    [9078,1525547243,57.3762,-111.8999,438.8,73.7,287.5,4.1,-1.6,16.96,31.74,715.9347,139.9956],
    [9079,1525547244,57.3764,-111.9009,436.2,70.2,280.4,5.8,2.1,16.48,32.55,716.0265,140.0167],
    [9080,1525547245,57.3765,-111.9019,433.4,66.4,277.3,5.2,0.6,16.59,33.19,715.7153,140.0106],
    [9081,1525547246,57.3766,-111.9029,431.0,63.0,273.8,5.6,-0.1,16.11,32.58,715.7946,140.0089],
    [9082,1525547247,57.3766,-111.9039,431.1,62.1,267.0,5.1,1.8,16.28,32.21,715.3755,140.0019],
    [9083,1525547248,57.3765,-111.9048,432.4,62.4,264.5,6.4,0.2,16.67,32.53,715.1885,140.0194],
    [9084,1525547249,57.3765,-111.9058,432.2,62.2,262.5,6.2,-0.5,16.29,31.53,714.7854,140.0034],
    [9085,1525547250,57.3763,-111.9068,434.1,62.1,254.6,5.9,2.6,17.04,30.94,714.3455,139.9977],
    [9086,1525547251,57.3762,-111.9077,436.5,62.5,253.8,6.6,-1.2,16.61,30.87,714.0176,140.0005],
    [9087,1525547252,57.376,-111.9087,439.1,62.4,250.9,6.9,-2.4,16.43,30.59,713.8415,140.0091],
    [9088,1525547253,57.3758,-111.9095,442.7,65.5,243.4,4.5,-0.2,17.19,29.89,713.6473,140.0021],
    [9089,1525547254,57.3755,-111.9103,447.5,68.5,237.8,3.8,0.6,16.96,30.06,713.3421,140.0013],
    [9090,1525547255,57.3752,-111.9111,453.4,73.8,234.4,5.1,-0.6,17.25,29.94,713.069,140.0005],
    [9091,1525547256,57.3749,-111.9118,457.4,77.3,232.4,5.9,-2.0,16.88,30.32,712.7682,140.0019],
    [9092,1525547257,57.3746,-111.9124,459.6,78.6,228.8,5.5,-1.6,17.08,30.15,712.5415,139.9957],
    [9093,1525547258,57.3741,-111.9131,462.2,80.9,222.9,5.2,-0.2,16.97,29.45,712.2698,140.0044],
    [9094,1525547259,57.3737,-111.9137,466.2,83.2,218.1,5.0,-0.7,17.08,29.34,711.9109,139.9971],
    [9095,1525547260,57.3733,-111.9142,469.5,86.4,216.2,5.9,-2.2,17.07,28.82,711.2693,139.9987],
    [9096,1525547261,57.3729,-111.9146,472.3,88.3,214.3,6.7,-2.6,17.25,28.93,711.0283,140.0005],
    [9097,1525547262,57.3724,-111.915,475.8,91.7,208.4,5.3,-1.8,16.84,28.86,710.5881,140.0068],
    [9098,1525547263,57.3718,-111.9154,479.2,95.2,201.4,3.9,0.3,17.21,28.76,710.2041,139.9894],
    [9099,1525547264,57.3714,-111.9156,483.0,99.1,196.4,3.9,0.2,17.08,28.34,709.7313,139.9923],
    [9100,1525547265,57.3708,-111.9158,488.5,104.4,191.0,4.5,-0.4,17.56,28.38,709.5785,139.9969],
    [9101,1525547266,57.3703,-111.9158,494.3,111.3,187.4,6.7,-1.0,17.13,28.56,709.4366,140.0027],
    [9102,1525547267,57.3698,-111.9158,498.9,118.6,181.2,6.7,-0.7,17.04,28.69,709.3196,140.0059],
    [9103,1525547268,57.3693,-111.9156,504.2,126.6,173.6,6.0,-1.0,17.71,28.49,709.1504,139.993],
    [9104,1525547269,57.3688,-111.9154,509.1,135.1,168.0,5.7,-1.4,17.03,28.72,708.8633,139.9896],
    [9105,1525547270,57.3683,-111.9151,511.9,140.8,163.5,5.4,-1.5,17.28,28.81,708.7546,139.9828],
    [9106,1525547271,57.3678,-111.9147,513.6,142.6,158.5,6.9,-1.5,17.07,28.36,708.2699,139.9843],
    [9107,1525547272,57.3673,-111.9142,515.2,149.1,152.1,7.1,-2.3,17.94,27.98,708.2678,139.9956],
    [9108,1525547273,57.3669,-111.9136,517.0,154.8,144.4,6.9,-3.0,17.42,28.04,708.0315,140.0034],
    [9109,1525547274,57.3665,-111.9129,519.3,159.0,137.6,6.1,-3.4,17.69,28.06,707.7102,139.9883],
    [9110,1525547275,57.3661,-111.9122,522.1,163.1,131.3,3.8,-2.6,17.8,27.88,707.5433,140.0023],
    [9111,1525547276,57.3658,-111.9114,524.8,167.7,124.7,1.0,-2.3,16.75,28.31,707.5269,140.001],
    [9112,1525547277,57.3654,-111.9104,527.0,170.0,122.9,2.1,-0.8,17.27,28.78,707.6361,139.9996],
    [9113,1525547278,57.3652,-111.9096,528.9,173.0,120.1,3.5,-1.9,17.27,29.13,707.6041,139.9968],
    [9114,1525547279,57.3649,-111.9087,531.7,175.6,116.7,4.9,-2.8,17.77,28.5,707.3492,140.0045],
    [9115,1525547280,57.3647,-111.9078,534.2,179.2,111.4,4.0,-5.3,17.45,29.03,707.3465,139.9975],
    [9116,1525547281,57.3644,-111.9068,534.9,180.2,107.4,3.0,-5.4,17.44,28.49,707.1605,139.9933],
    [9117,1525547282,57.3642,-111.9058,535.1,180.6,111.0,5.2,-0.7,16.83,29.4,707.1592,140.0118],
    [9118,1525547283,57.3641,-111.9048,535.4,181.5,110.9,5.0,0.4,17.19,29.9,707.0038,139.9984],
    [9119,1525547284,57.3639,-111.9038,536.4,183.4,104.5,3.0,-3.6,17.01,29.66,706.9173,139.9817],
    [9120,1525547285,57.3637,-111.9028,537.9,184.9,100.8,3.4,-4.4,17.31,29.57,706.8236,139.9942],
    [9121,1525547286,57.3636,-111.9019,539.4,186.7,99.9,4.5,-3.3,17.32,29.68,707.0182,139.9977],
    [9122,1525547287,57.3635,-111.9008,540.3,189.4,96.1,4.0,-4.5,17.1,29.76,706.9671,139.999],
    [9123,1525547288,57.3634,-111.8998,541.4,190.4,92.2,4.8,-4.9,16.29,30.15,706.9838,140.0054],
    [9124,1525547289,57.3634,-111.8987,542.4,192.4,90.9,4.4,-3.1,16.62,30.27,706.9793,139.9947],
    [9125,1525547290,57.3633,-111.8978,543.1,193.5,89.0,3.5,-2.5,17.32,29.84,706.8915,139.9931],
    [9126,1525547291,57.3633,-111.8966,542.5,193.9,88.1,3.7,-1.0,16.75,30.66,706.6901,139.9965],
    [9127,1525547292,57.3634,-111.8956,541.9,193.2,87.4,3.9,-0.2,16.74,30.41,706.7825,140.0072],
    [9128,1525547293,57.3634,-111.8946,541.9,193.9,84.8,4.9,-0.9,16.84,31.16,706.6666,139.9988],
    [9129,1525547294,57.3634,-111.8935,542.1,194.2,82.8,4.9,-1.0,16.83,30.89,706.4649,139.9903],
    [9130,1525547295,57.3635,-111.8924,543.0,195.1,80.6,4.5,-0.3,16.45,30.8,706.4396,139.9984],
    [9131,1525547296,57.3636,-111.8914,544.2,195.9,76.0,4.9,-1.4,16.48,30.9,706.2753,139.9948],
    [9132,1525547297,57.3638,-111.8904,545.1,197.1,71.9,4.9,-0.6,16.6,30.99,706.1218,139.9923],
    [9133,1525547298,57.3639,-111.8894,546.3,198.3,68.5,4.5,0.4,16.7,31.31,705.6892,139.9952],
    [9134,1525547299,57.3641,-111.8884,547.7,199.6,63.1,4.7,-1.0,16.57,30.99,705.6216,139.9982],
    [9135,1525547300,57.3644,-111.8875,548.5,200.7,58.9,3.7,-1.6,16.59,31.57,705.2304,139.9992],
    [9136,1525547301,57.3647,-111.8866,549.9,202.9,54.2,2.8,-1.6,16.42,31.11,704.6681,139.988],
    [9137,1525547302,57.365,-111.8857,552.7,205.7,49.7,3.3,-1.9,16.63,31.04,704.5995,140.0012],
    [9138,1525547303,57.3653,-111.885,555.3,208.3,44.8,3.1,-2.9,16.35,30.88,704.3464,139.9889],
    [9139,1525547304,57.3657,-111.8842,557.7,210.8,40.3,3.2,-3.5,16.15,31.12,704.142,139.9897],
    [9140,1525547305,57.3661,-111.8836,561.0,215.0,34.0,4.2,-3.4,16.59,30.86,704.2602,140.0097],
    [9141,1525547306,57.3665,-111.883,566.1,220.1,29.8,3.6,-1.8,16.41,30.83,704.2023,140.0063],
    [9142,1525547307,57.367,-111.8825,571.0,224.9,27.0,3.3,0.7,16.24,30.95,704.0083,139.9945],
    [9143,1525547308,57.3674,-111.8821,573.0,227.7,21.1,4.6,-0.4,16.69,31.04,704.0138,140.0038],
    [9144,1525547309,57.3679,-111.8817,574.4,229.4,11.9,7.6,-3.1,16.43,31.39,703.9733,140.0009],
    [9145,1525547310,57.3684,-111.8814,575.1,230.0,6.8,7.3,-2.3,16.23,31.26,703.8875,140.0093],
    [9146,1525547311,57.3689,-111.8812,575.6,231.6,362.3,6.5,-0.5,16.52,31.26,703.4036,139.9784],
    [9147,1525547312,57.3694,-111.8811,576.5,232.4,355.4,8.0,-0.6,16.39,31.32,703.2836,139.9984],
    [9148,1525547313,57.3699,-111.8811,577.3,233.5,350.9,6.9,-0.6,16.32,31.37,702.9881,140.0038],
    [9149,1525547314,57.3704,-111.8812,578.3,233.3,348.2,4.2,-0.1,16.65,31.17,702.8344,140.0052],
    [9150,1525547315,57.3709,-111.8813,579.5,233.5,342.7,4.3,-0.1,15.91,31.3,702.5915,139.9866],
    [9151,1525547316,57.3714,-111.8816,581.8,235.5,336.6,4.6,-0.9,16.19,31.51,702.4857,139.994],
    [9152,1525547317,57.3718,-111.8819,585.7,237.7,331.2,4.8,-1.3,15.99,31.4,702.4026,140.0052],
    [9153,1525547318,57.3722,-111.8823,588.5,239.4,326.3,4.8,-0.4,16.92,31.22,702.2219,139.9984],
    [9154,1525547319,57.3727,-111.8828,591.5,242.5,320.9,6.8,0.0,16.16,32.12,702.1178,140.0004],
    [9155,1525547320,57.373,-111.8833,594.0,243.9,317.3,7.4,-1.1,16.25,31.61,702.0138,139.9978],
    [9156,1525547321,57.3734,-111.8839,595.5,245.5,314.8,7.1,-1.6,15.79,31.57,701.9574,139.9977],
    [9157,1525547322,57.3737,-111.8844,596.6,246.6,309.5,8.8,-0.6,16.16,31.49,701.8823,139.9991],
    [9158,1525547323,57.3741,-111.8851,598.0,249.0,304.2,9.3,-0.4,16.26,31.37,701.8764,140.0056],
    [9159,1525547324,57.3744,-111.8858,599.3,250.3,302.6,7.8,-1.7,15.9,31.74,701.6885,139.9975],
    [9160,1525547325,57.3746,-111.8865,600.7,250.7,298.3,8.6,-1.0,16.14,31.96,701.5267,139.9993],
    [9161,1525547326,57.3748,-111.8873,601.7,251.7,294.6,8.9,-0.7,16.05,31.99,701.3744,139.9975],
    [9162,1525547327,57.375,-111.888,602.3,251.3,292.4,8.6,-1.4,16.17,32.77,701.2477,139.9976],
    [9163,1525547328,57.3752,-111.8888,602.8,251.8,289.5,8.4,-0.8,15.96,31.98,701.1758,140.0029],
    [9164,1525547329,57.3754,-111.8896,604.2,253.2,286.5,8.7,-0.1,16.06,31.88,701.0422,139.9986],
    [9165,1525547330,57.3755,-111.8904,606.3,254.3,283.7,9.3,0.2,15.74,31.75,700.931,140.002],
    [9166,1525547331,57.3756,-111.8912,608.1,256.1,282.9,9.3,-1.3,16.13,31.87,700.9508,139.9998],
    [9167,1525547332,57.3757,-111.8921,609.9,256.9,281.0,9.4,-1.9,16.13,32.25,700.9865,140.0003],
    [9168,1525547333,57.3758,-111.8929,611.3,257.3,278.1,9.4,-1.5,16.08,32.09,700.9441,140.0001],
    [9169,1525547334,57.3759,-111.8938,613.0,258.0,275.2,9.1,-1.6,15.96,31.42,700.9538,140.001],
    [9170,1525547335,57.3759,-111.8946,613.9,256.9,272.3,9.0,-1.2,15.96,31.13,700.9343,140.0055],
    [9171,1525547336,57.3759,-111.8955,614.1,256.1,269.8,8.9,-1.5,16.11,31.44,700.8721,140.0058],
    [9172,1525547337,57.3759,-111.8963,613.8,253.8,267.5,8.9,-1.8,16.07,31.02,700.7647,140.0039],
    [9173,1525547338,57.3758,-111.8971,613.5,252.5,263.8,9.0,-0.8,15.47,30.32,700.4502,140.0037],
    [9174,1525547339,57.3757,-111.8981,613.5,250.5,260.7,8.7,-0.6,15.49,30.09,700.1216,140.0022],
    [9175,1525547340,57.3756,-111.8989,614.0,249.9,259.4,8.1,-1.1,16.28,29.52,699.9168,139.9997],
    [9176,1525547341,57.3755,-111.8998,614.8,249.8,257.8,7.8,-1.0,16.51,29.81,699.5131,139.9917],
    [9177,1525547342,57.3754,-111.9006,616.3,251.0,256.2,8.0,-1.2,16.04,29.91,699.1682,139.9977],
    [9178,1525547343,57.3752,-111.9015,618.8,252.5,253.9,7.7,-1.0,16.64,29.22,698.904,139.9966],
    [9179,1525547344,57.3751,-111.9023,621.5,254.2,252.2,6.8,-1.2,16.19,29.39,698.7235,139.9902],
    [9180,1525547345,57.3749,-111.9031,625.0,257.0,249.4,6.0,-0.8,15.67,29.59,698.643,140.0],
    [9181,1525547346,57.3747,-111.9039,629.3,260.3,247.5,6.0,-1.2,16.31,29.18,698.3253,140.0061],
    [9182,1525547347,57.3745,-111.9046,633.2,263.2,245.2,6.4,-0.5,16.1,29.38,698.0399,140.0096],
    [9183,1525547348,57.3742,-111.9055,637.1,266.1,241.9,6.9,0.7,16.29,29.07,697.781,140.008],
    [9184,1525547349,57.374,-111.9062,640.0,268.0,241.7,7.9,-0.7,15.72,29.61,697.5682,140.0053],
    [9185,1525547350,57.3737,-111.9069,642.4,269.7,240.2,8.4,-0.8,15.69,29.59,696.9436,140.0044],
    [9186,1525547351,57.3734,-111.9076,644.8,271.0,237.4,8.2,-0.8,15.85,29.7,696.6959,140.0035],
    [9187,1525547352,57.3731,-111.9083,647.9,273.7,234.3,7.8,-1.4,16.53,29.04,695.8402,139.9929],
    [9188,1525547353,57.3728,-111.9089,650.8,275.5,229.8,7.2,-0.4,16.3,29.29,695.5322,139.9998],
    [9189,1525547354,57.3724,-111.9095,655.3,279.4,224.9,6.9,0.5,16.17,29.31,695.3065,139.9941],
    [9190,1525547355,57.372,-111.9101,661.1,284.1,221.7,7.1,0.3,16.15,29.38,694.9352,139.9981],
    [9191,1525547356,57.3716,-111.9106,666.7,288.7,217.3,6.5,1.0,16.17,29.4,694.7571,139.9987],
    [9192,1525547357,57.3712,-111.911,672.5,294.6,212.8,6.2,1.6,16.15,29.0,694.3218,139.9968],
    [9193,1525547358,57.3708,-111.9114,677.9,299.9,210.0,6.7,0.9,15.5,29.82,694.0738,139.9996],
    [9194,1525547359,57.3704,-111.9117,681.9,304.0,206.0,6.6,1.8,16.08,29.29,693.934,140.006],
    [9195,1525547360,57.3699,-111.912,686.0,308.0,200.7,5.9,3.1,15.91,30.18,693.6805,139.9914],
    [9196,1525547361,57.3694,-111.9122,689.9,312.0,197.7,6.5,2.0,16.0,30.24,693.5874,139.9921],
    [9197,1525547362,57.3689,-111.9124,693.9,315.8,194.8,7.0,1.3,15.81,29.82,693.4025,140.0053],
    [9198,1525547363,57.3685,-111.9125,696.5,319.7,190.9,6.7,1.5,16.0,30.5,693.2963,139.9882],
    [9199,1525547364,57.368,-111.9125,698.5,325.5,186.4,6.1,1.8,16.18,29.77,692.9291,139.9959],
    [9200,1525547365,57.3674,-111.9125,701.1,332.2,181.5,5.8,1.4,15.64,30.08,692.7666,139.9861],
    [9201,1525547366,57.367,-111.9124,702.8,337.8,179.4,7.1,0.8,15.6,30.65,692.4598,140.0002],
    [9202,1525547367,57.3665,-111.9122,704.2,343.9,174.4,5.7,0.6,15.89,30.68,692.2002,139.9998],
    [9203,1525547368,57.3659,-111.912,706.3,348.7,167.8,3.9,0.4,15.85,30.85,691.8279,139.9973],
    [9204,1525547369,57.3654,-111.9117,709.0,353.0,163.9,4.7,1.0,16.15,30.45,691.446,139.9988],
    [9205,1525547370,57.3649,-111.9113,712.1,356.8,164.3,8.0,1.8,15.86,30.35,691.2525,139.9926],
    [9206,1525547371,57.3644,-111.9109,715.1,360.1,162.3,7.7,1.9,15.34,30.78,691.2819,139.9957],
    [9207,1525547372,57.3639,-111.9104,718.2,363.2,157.6,6.0,1.3,15.32,30.85,690.9545,139.9959],
    [9208,1525547373,57.3634,-111.9099,722.9,367.8,155.9,7.4,0.7,15.54,30.81,690.7683,139.9969],
    [9209,1525547374,57.363,-111.9094,727.0,373.0,153.5,7.5,-0.6,15.77,30.84,690.3557,139.9752],
    [9210,1525547375,57.3625,-111.9088,730.2,375.5,149.3,6.0,-1.2,15.76,31.19,690.0395,139.9909],
    [9211,1525547376,57.362,-111.9082,731.6,377.6,148.5,7.7,0.0,15.3,30.8,689.9127,140.0029],
    [9212,1525547377,57.3616,-111.9075,733.1,378.9,144.2,7.9,-0.1,15.73,31.25,689.4835,139.9971],
    [9213,1525547378,57.3611,-111.9067,735.9,382.2,137.9,6.2,1.0,15.71,30.89,689.3145,139.9899],
    [9214,1525547379,57.3608,-111.9059,739.8,386.2,133.0,5.9,1.8,15.78,30.75,689.2501,140.0001],
    [9215,1525547380,57.3604,-111.9049,744.2,391.2,127.7,5.0,1.4,15.86,30.55,689.2363,139.989],
    [9216,1525547381,57.3601,-111.9041,746.8,393.5,122.2,5.1,0.0,16.15,30.39,689.0514,140.0041],
    [9217,1525547382,57.3598,-111.903,749.1,394.5,114.9,4.7,-2.2,15.55,31.22,688.7283,139.9848],
    [9218,1525547383,57.3596,-111.902,752.2,396.2,108.5,4.7,-3.0,15.57,31.84,688.5036,140.0033],
    [9219,1525547384,57.3594,-111.9009,754.4,398.3,105.5,5.8,-2.2,15.77,31.45,688.3004,139.9947],
    [9220,1525547385,57.3592,-111.8999,755.4,399.4,103.0,5.7,-0.9,15.14,31.75,687.8062,139.9958],
    [9221,1525547386,57.3591,-111.8987,756.6,401.6,96.3,5.2,-3.1,15.67,32.01,687.6891,139.9826],
    [9222,1525547387,57.3591,-111.8976,758.8,404.8,91.3,4.0,-2.7,15.56,31.83,687.0828,139.9933],
    [9223,1525547388,57.3591,-111.8966,762.3,410.4,87.9,4.4,-1.4,15.2,32.65,687.0599,139.9982],
    [9224,1525547389,57.3591,-111.8954,766.5,416.5,82.1,4.3,-3.1,15.45,31.96,687.1807,139.9937],
    [9225,1525547390,57.3592,-111.8944,770.2,422.4,77.0,3.4,-4.5,14.82,32.24,687.3113,139.9958],
    [9226,1525547391,57.3593,-111.8932,774.3,428.4,76.1,3.6,-1.1,15.08,32.34,687.3553,140.0033],
    [9227,1525547392,57.3594,-111.8922,777.6,432.6,73.9,4.3,-0.4,15.27,32.97,687.2843,139.9947],
    [9228,1525547393,57.3596,-111.8911,779.7,434.7,69.4,5.3,-1.9,15.13,32.88,687.3052,140.0001],
    [9229,1525547394,57.3598,-111.8901,779.3,435.3,67.4,4.8,-1.9,14.76,32.9,687.2384,139.9961],
    [9230,1525547395,57.36,-111.8891,778.5,434.8,67.1,4.4,-0.2,14.91,32.61,687.205,140.0077],
    [9231,1525547396,57.3602,-111.8881,777.7,434.7,65.4,5.7,0.1,15.44,32.32,687.132,139.9959],
    [9232,1525547397,57.3604,-111.887,777.5,434.5,60.2,7.7,-3.5,15.46,32.02,687.0869,139.9997],
    [9233,1525547398,57.3607,-111.8861,777.8,434.8,56.9,7.9,-5.0,15.13,32.26,687.0129,140.0064],
    [9234,1525547399,57.3609,-111.8851,778.4,436.0,57.0,7.6,-2.9,14.84,32.69,686.9151,139.9971],
    [9235,1525547400,57.3612,-111.8841,778.9,436.9,54.4,7.5,-3.4,14.88,32.56,686.7501,140.0008],
    [9236,1525547401,57.3615,-111.8831,779.6,437.5,49.6,7.0,-3.9,14.95,32.33,686.6555,140.001],
    [9237,1525547402,57.3619,-111.8823,780.5,438.7,45.4,6.9,-3.9,15.17,32.27,686.6519,140.0016],
    [9238,1525547403,57.3623,-111.8815,781.4,439.3,39.9,7.6,-3.9,14.86,32.37,686.5528,139.9966],
    [9239,1525547404,57.3626,-111.8807,782.7,441.8,36.5,6.6,-2.5,15.03,31.86,686.4527,139.9839],
    [9240,1525547405,57.3631,-111.88,784.3,443.3,32.3,6.7,-1.6,15.03,32.92,686.7187,140.0073],
    [9241,1525547406,57.3636,-111.8794,785.6,444.6,26.7,7.7,-2.0,14.91,32.34,686.7286,139.9939],
    [9242,1525547407,57.364,-111.8789,786.7,445.7,23.5,6.1,-0.8,14.83,32.65,686.8103,139.9995],
    [9243,1525547408,57.3645,-111.8784,787.5,446.8,19.1,5.7,-0.6,14.87,33.17,686.8436,140.0076],
    [9244,1525547409,57.365,-111.8781,787.6,447.6,12.4,7.0,-2.5,14.58,32.73,686.8174,140.0034],
    [9245,1525547410,57.3656,-111.8778,785.7,445.7,7.1,7.6,-3.3,14.54,32.68,686.7237,140.0044],
    [9246,1525547411,57.3661,-111.8776,784.7,444.9,360.5,7.8,-3.3,14.88,32.69,686.5157,139.9916],
    [9247,1525547412,57.3666,-111.8775,784.2,445.2,355.3,7.8,-3.3,15.25,32.57,686.4316,139.996],
    [9248,1525547413,57.3671,-111.8775,783.4,444.4,349.7,8.3,-3.2,14.74,33.06,686.3716,139.9984],
    [9249,1525547414,57.3677,-111.8776,783.4,444.4,343.3,8.4,-2.6,15.02,32.87,686.3284,140.001],
    [9250,1525547415,57.3682,-111.8778,784.1,445.1,339.3,7.8,-2.9,14.77,33.48,686.2003,139.9986],
    [9251,1525547416,57.3687,-111.8781,786.2,446.9,334.6,8.0,-3.2,14.94,32.17,686.0443,139.9954],
    [9252,1525547417,57.3692,-111.8784,788.1,448.1,330.0,8.6,-3.3,14.59,32.49,686.0652,140.003],
    [9253,1525547418,57.3696,-111.8788,788.9,448.9,326.8,8.6,-4.2,14.64,32.28,685.8979,140.0054],
    [9254,1525547419,57.37,-111.8793,789.7,448.1,323.3,8.8,-4.3,14.42,32.72,685.9345,139.991],
    [9255,1525547420,57.3704,-111.8797,790.7,448.7,320.6,9.0,-4.0,14.77,31.56,685.8811,140.0098],
    [9256,1525547421,57.3708,-111.8803,792.4,448.5,317.3,9.4,-3.7,14.72,32.82,685.7561,139.9997],
    [9257,1525547422,57.3712,-111.8809,793.6,447.6,314.5,9.3,-2.6,15.0,31.98,685.6652,139.9972],
    [9258,1525547423,57.3716,-111.8816,794.8,447.7,310.3,10.3,-1.0,14.79,31.69,685.515,140.0008],
    [9259,1525547424,57.3719,-111.8822,795.3,447.3,309.8,9.4,-2.0,15.01,31.83,685.3587,139.997],
    [9260,1525547425,57.3723,-111.8829,795.6,446.6,308.6,8.9,-2.0,14.94,31.87,685.1802,139.9928],
    [9261,1525547426,57.3726,-111.8835,796.6,446.6,306.2,9.4,-1.4,14.67,32.31,685.1561,140.0037],
    [9262,1525547427,57.3729,-111.8843,798.2,448.2,305.4,9.1,-2.0,15.1,31.8,685.1477,140.005],
    [9263,1525547428,57.3732,-111.885,799.8,449.9,304.7,9.1,-2.4,14.58,32.08,684.933,140.0053],
    [9264,1525547429,57.3735,-111.8857,801.8,451.8,303.6,9.2,-2.7,14.26,31.88,684.7661,140.0061],
    [9265,1525547430,57.3738,-111.8864,803.4,453.4,302.9,9.2,-2.9,14.6,32.02,684.5233,139.9963],
    [9266,1525547431,57.3741,-111.8871,804.4,454.4,301.6,9.3,-2.6,14.33,32.19,684.2395,140.0013],
    [9267,1525547432,57.3744,-111.8879,805.0,455.0,300.9,8.6,-2.8,15.01,31.67,684.0234,139.9978],
    [9268,1525547433,57.3746,-111.8887,806.0,456.0,299.5,8.8,-2.5,14.39,32.44,683.6431,139.9999],
    [9269,1525547434,57.3749,-111.8894,808.0,457.0,296.8,10.0,-1.4,14.63,31.7,683.3476,139.9852],
    [9270,1525547435,57.3751,-111.8902,811.1,460.1,296.2,10.0,-2.0,14.59,31.74,683.1914,139.9986],
    [9271,1525547436,57.3754,-111.891,814.7,462.7,296.2,9.5,-2.3,14.23,31.74,683.037,140.0078],
    [9272,1525547437,57.3756,-111.8918,818.5,465.8,295.3,9.2,-1.6,14.6,32.18,682.7458,139.9905],
    [9273,1525547438,57.3758,-111.8926,822.4,469.4,294.4,8.9,-1.0,14.65,31.35,682.5675,140.0046],
    [9274,1525547439,57.376,-111.8934,825.9,471.2,294.2,9.3,-2.2,14.61,31.9,682.1545,140.0044],
    [9275,1525547440,57.3762,-111.8942,828.4,472.5,293.3,9.4,-2.7,14.65,32.42,681.9449,140.0043],
    [9276,1525547441,57.3764,-111.895,830.7,473.1,290.3,9.5,-1.5,14.72,31.61,681.5178,139.9968],
    [9277,1525547442,57.3766,-111.8958,833.3,474.4,288.8,9.9,-2.5,14.61,31.69,681.2312,139.9925],
    [9278,1525547443,57.3767,-111.8967,836.6,475.9,286.2,9.6,-2.7,14.39,31.88,681.1453,140.0071],
    [9279,1525547444,57.3769,-111.8975,839.9,478.6,282.7,9.6,-2.1,14.39,31.93,681.0476,140.0043],
    [9280,1525547445,57.3769,-111.8984,843.9,481.0,279.0,9.2,-2.1,14.62,32.01,680.9541,139.9917],
    [9281,1525547446,57.377,-111.8992,848.0,484.0,276.0,8.4,-2.3,14.75,31.79,680.9062,139.9938],
    [9282,1525547447,57.377,-111.9001,851.9,486.9,273.0,8.3,-1.8,14.49,31.69,680.7062,139.9933],
    [9283,1525547448,57.377,-111.9009,853.8,487.8,270.9,7.7,-1.8,14.69,31.98,680.554,139.9993],
    [9284,1525547449,57.377,-111.9018,855.0,488.0,267.1,6.7,-1.3,13.83,31.77,680.2384,140.0081],
    [9285,1525547450,57.3769,-111.9027,855.7,487.7,264.5,7.6,-1.6,14.53,31.78,679.9522,139.9988],
    [9286,1525547451,57.3769,-111.9036,856.6,487.6,261.1,8.2,-1.2,14.77,31.21,679.5285,139.9949],
    [9287,1525547452,57.3767,-111.9045,858.1,488.1,257.6,8.7,-0.6,14.76,31.24,678.994,139.9942],
    [9288,1525547453,57.3766,-111.9054,860.4,490.5,254.5,8.8,-0.4,14.08,32.09,678.6502,139.9866],
    [9289,1525547454,57.3764,-111.9062,863.6,492.6,251.1,8.7,-0.1,14.64,31.73,678.6351,140.004],
    [9290,1525547455,57.3762,-111.907,867.7,494.7,248.0,8.7,-0.3,14.42,31.84,678.4715,140.0049],
    [9291,1525547456,57.376,-111.9078,871.9,498.4,245.3,9.3,-0.6,13.85,32.5,678.4326,140.0083],
    [9292,1525547457,57.3758,-111.9086,877.6,502.3,239.8,8.9,0.6,14.37,32.33,678.2616,140.0016],
    [9293,1525547458,57.3754,-111.9094,882.3,506.3,236.4,9.2,0.2,14.18,32.45,678.2483,139.9968],
    [9294,1525547459,57.3751,-111.9101,884.8,507.4,233.2,9.2,0.0,13.58,32.49,677.9457,139.9976],
    [9295,1525547460,57.3748,-111.9108,886.6,508.5,227.7,7.8,0.4,14.15,32.72,677.746,139.9781],
    [9296,1525547461,57.3744,-111.9114,887.9,509.9,222.6,6.1,0.3,14.62,31.97,677.335,139.9951],
    [9297,1525547462,57.374,-111.9119,889.0,510.0,217.5,5.1,0.0,14.12,33.2,677.0359,140.0017],
    [9298,1525547463,57.3735,-111.9124,890.6,510.6,213.5,5.7,-0.3,13.73,32.67,676.4698,139.9971],
    [9299,1525547464,57.373,-111.9129,892.6,511.6,209.0,5.6,0.6,14.23,32.54,675.8664,139.9898],
    [9300,1525547465,57.3725,-111.9132,895.8,514.9,204.4,6.3,1.0,14.58,32.26,675.4898,139.9981],
    [9301,1525547466,57.372,-111.9135,899.7,518.8,200.1,5.9,1.4,14.31,32.34,675.6151,140.0021],
    [9302,1525547467,57.3715,-111.9137,904.3,523.3,193.8,4.0,2.1,13.44,32.9,675.3588,139.9945],
    [9303,1525547468,57.371,-111.9139,909.9,529.0,188.8,3.6,1.8,14.17,32.81,675.411,139.9981],
    [9304,1525547469,57.3704,-111.914,916.6,535.5,184.7,3.3,1.4,13.59,32.9,675.3545,139.9967],
    [9305,1525547470,57.3699,-111.914,921.3,541.3,182.7,3.5,1.1,13.96,33.62,675.3017,140.005],
    [9306,1525547471,57.3693,-111.9139,922.4,542.7,182.3,5.1,-0.3,13.94,33.17,675.2188,139.9977],
    [9307,1525547472,57.3687,-111.9139,923.7,545.7,178.6,4.1,-1.1,13.9,33.18,675.0152,140.0066],
    [9308,1525547473,57.3682,-111.9138,924.2,549.5,176.8,4.3,-1.6,14.05,33.01,674.8171,139.9959],
    [9309,1525547474,57.3676,-111.9136,924.3,553.9,176.5,6.2,-1.0,14.03,33.25,674.6407,139.9959],
    [9310,1525547475,57.367,-111.9134,925.2,560.1,173.6,5.6,-0.6,13.73,33.64,674.5015,140.0027],
    [9311,1525547476,57.3665,-111.9132,926.5,566.2,171.6,6.3,-0.9,13.59,33.43,674.319,139.9943],
    [9312,1525547477,57.3659,-111.9129,928.3,570.7,169.4,6.4,-1.7,13.94,33.06,674.1788,139.9967],
    [9313,1525547478,57.3654,-111.9126,930.7,574.4,166.9,6.5,-1.9,13.24,33.49,673.95,139.9988],
    [9314,1525547479,57.3648,-111.9122,933.3,578.1,165.9,7.8,-2.0,14.17,33.17,673.7483,139.9992],
    [9315,1525547480,57.3643,-111.9118,935.6,580.6,162.7,6.9,-2.1,13.9,33.11,673.486,139.9842],
    [9316,1525547481,57.3637,-111.9114,938.0,583.0,160.1,7.5,-2.2,13.34,33.56,673.4409,139.9831],
    [9317,1525547482,57.3632,-111.9109,940.6,585.0,159.3,9.1,-1.3,14.03,33.47,673.2275,140.0007],
    [9318,1525547483,57.3627,-111.9104,943.0,586.8,157.8,10.4,-1.4,13.72,33.67,673.1772,139.9958],
    [9319,1525547484,57.3622,-111.9098,944.5,587.8,155.7,10.6,-2.0,13.51,33.83,673.0748,139.99],
    [9320,1525547485,57.3617,-111.9092,946.9,589.7,151.2,8.9,-2.4,13.63,34.04,672.9791,140.0074],
    [9321,1525547486,57.3612,-111.9086,949.3,591.6,148.5,8.6,-1.9,13.22,33.86,673.0476,140.0008],
    [9322,1525547487,57.3607,-111.9079,950.9,593.0,145.6,8.0,-1.6,14.28,33.27,673.1064,140.0005],
    [9323,1525547488,57.3603,-111.9071,952.3,593.9,142.1,7.8,-2.1,14.3,33.33,673.0327,139.9962],
    [9324,1525547489,57.3599,-111.9064,953.2,596.5,140.7,8.8,-1.3,13.64,33.77,672.9789,139.9924],
    [9325,1525547490,57.3594,-111.9056,953.9,596.5,136.7,7.8,-2.0,14.18,33.11,672.8814,139.9958],
    [9326,1525547491,57.359,-111.9047,954.1,596.2,133.7,8.6,-2.6,13.42,33.99,672.7932,140.0021],
    [9327,1525547492,57.3586,-111.9038,953.9,595.9,132.7,10.0,-1.8,13.15,33.64,672.5655,139.9952],
    [9328,1525547493,57.3583,-111.9029,953.7,596.7,129.0,9.2,-2.4,13.7,33.41,672.2146,139.9962],
    [9329,1525547494,57.3579,-111.9019,954.2,598.2,125.4,8.9,-2.8,13.95,33.3,671.9554,139.9951],
    [9330,1525547495,57.3575,-111.9009,955.3,600.6,123.0,8.9,-2.3,13.19,34.04,671.8156,139.992],
    [9331,1525547496,57.3572,-111.8999,956.9,603.9,120.1,8.5,-2.2,13.24,33.98,671.5963,139.9956],
    [9332,1525547497,57.357,-111.8989,959.5,607.5,117.4,8.6,-1.8,13.6,33.52,671.3652,139.9979],
    [9333,1525547498,57.3567,-111.8979,962.4,611.4,114.8,8.6,-1.8,13.28,34.62,671.2045,139.9993],
    [9334,1525547499,57.3565,-111.8968,965.7,615.8,110.9,8.1,-2.6,13.38,33.93,671.0884,139.9945],
    [9335,1525547500,57.3563,-111.8957,968.8,620.8,107.7,7.9,-2.7,13.78,33.41,671.0156,139.9949],
    [9336,1525547501,57.3561,-111.8946,971.5,625.6,105.7,8.0,-1.8,13.42,33.55,670.9584,139.9945],
    [9337,1525547502,57.356,-111.8935,973.7,628.7,102.7,8.0,-2.0,13.22,33.78,670.8182,139.9961],
    [9338,1525547503,57.3558,-111.8924,976.0,632.0,98.9,8.3,-2.5,12.86,33.95,670.6903,140.0078],
    [9339,1525547504,57.3557,-111.8912,977.5,634.5,95.6,7.9,-2.3,13.33,34.41,670.4151,139.9898],
    [9340,1525547505,57.3557,-111.8901,978.6,635.6,92.9,7.6,-1.3,13.02,33.95,670.3012,139.9924],
    [9341,1525547506,57.3557,-111.889,979.7,636.7,88.8,7.8,-1.1,12.93,34.52,669.869,139.9947],
    [9342,1525547507,57.3557,-111.8878,980.9,638.6,83.6,8.5,-1.6,12.59,34.35,669.8481,139.9917],
    [9343,1525547508,57.3558,-111.8867,982.2,640.2,77.3,9.1,-2.5,13.34,33.83,669.3619,140.001],
    [9344,1525547509,57.3559,-111.8856,984.6,642.5,71.6,9.0,-3.0,12.74,34.32,669.3556,140.0013],
    [9345,1525547510,57.356,-111.8846,987.4,646.5,67.4,9.2,-2.3,13.06,34.74,669.0058,139.9933],
    [9346,1525547511,57.3563,-111.8835,990.5,649.5,62.4,9.7,-2.3,12.59,34.46,668.7839,139.9903],
    [9347,1525547512,57.3565,-111.8824,993.3,652.4,56.7,9.4,-3.5,13.13,34.81,668.2429,139.995],
    [9348,1525547513,57.3568,-111.8814,995.7,654.8,52.0,9.2,-4.0,13.01,34.46,668.1831,139.9925],
    [9349,1525547514,57.3571,-111.8806,998.6,657.6,48.2,8.8,-3.1,12.72,34.62,668.1263,140.007],
    [9350,1525547515,57.3575,-111.8797,1002.3,662.2,45.0,7.6,-1.4,12.88,35.05,668.0779,140.0027],
    [9351,1525547516,57.3579,-111.8789,1005.8,665.8,41.2,6.7,-0.9,12.38,35.36,668.195,139.9753],
    [9352,1525547517,57.3583,-111.8781,1009.7,670.8,35.8,6.5,-1.4,13.35,35.15,668.4663,139.9977],
    [9353,1525547518,57.3587,-111.8775,1013.2,674.2,29.4,8.2,-1.4,13.01,35.47,668.5295,139.9978],
    [9354,1525547519,57.3592,-111.8769,1014.4,675.4,24.5,7.9,-1.0,13.6,35.09,668.5648,139.9834],
    [9355,1525547520,57.3597,-111.8764,1013.9,674.9,18.5,7.4,-1.9,12.91,35.94,668.6344,139.9961],
    [9356,1525547521,57.3602,-111.876,1012.8,673.8,14.1,6.9,-1.5,13.42,35.4,668.644,140.0023],
    [9357,1525547522,57.3608,-111.8756,1010.5,672.5,8.8,7.2,-2.0,13.25,35.4,668.6162,139.9993],
    [9358,1525547523,57.3613,-111.8754,1008.7,670.7,361.4,9.1,-2.5,12.53,35.72,668.6882,140.0004],
    [9359,1525547524,57.3618,-111.8753,1008.3,670.3,356.0,9.1,-2.4,12.96,35.53,668.6036,139.9965],
    [9360,1525547525,57.3624,-111.8753,1008.0,670.0,353.2,7.6,-2.4,13.22,35.3,668.5628,139.992],
    [9361,1525547526,57.3629,-111.8753,1007.9,669.9,348.4,7.9,-1.7,12.68,36.21,668.4888,139.9969],
    [9362,1525547527,57.3635,-111.8754,1007.8,669.8,343.2,8.9,-1.2,12.86,35.96,668.4588,139.9948],
    [9363,1525547528,57.364,-111.8756,1007.3,668.3,339.5,8.5,-1.3,12.54,35.67,668.4629,139.9936],
    [9364,1525547529,57.3645,-111.8759,1007.5,668.5,335.6,8.5,-1.9,12.56,35.85,668.6295,140.0027],
    [9365,1525547530,57.3649,-111.8761,1008.2,669.2,332.4,8.5,-2.2,12.34,36.15,668.7862,139.9938],
    [9366,1525547531,57.3655,-111.8766,1009.0,670.0,329.1,8.3,-2.4,12.82,35.73,668.9196,139.999],
    [9367,1525547532,57.3659,-111.877,1009.3,670.3,326.6,8.3,-2.9,13.21,34.88,669.025,140.0024],
    [9368,1525547533,57.3664,-111.8775,1008.7,669.7,324.7,8.1,-2.7,12.77,35.31,669.1048,139.9978],
    [9369,1525547534,57.3668,-111.878,1007.2,667.1,321.5,8.9,-2.3,13.27,34.99,669.2704,140.0007],
    [9370,1525547535,57.3673,-111.8785,1005.5,665.5,319.8,8.2,-3.1,12.48,35.58,669.2962,139.9982],
    [9371,1525547536,57.3677,-111.8791,1003.8,662.8,318.0,8.2,-3.3,12.62,36.04,669.5185,139.9841],
    [9372,1525547537,57.3681,-111.8797,1002.0,660.0,314.0,9.4,-2.5,13.19,35.2,669.6881,139.996],
    [9373,1525547538,57.3684,-111.8804,1000.9,657.9,312.0,8.5,-2.4,12.46,35.3,670.0447,139.9918],
    [9374,1525547539,57.3688,-111.8811,999.6,655.5,310.2,7.9,-2.2,12.67,35.27,670.1331,139.9925],
    [9375,1525547540,57.3691,-111.8817,998.4,652.7,307.6,8.6,-1.8,12.78,34.93,670.198,140.0047],
    [9376,1525547541,57.3695,-111.8825,995.6,648.7,307.1,8.2,-3.5,12.63,35.24,670.4647,140.0007],
    [9377,1525547542,57.3698,-111.8833,992.6,644.6,305.7,8.5,-4.0,12.94,34.92,670.8086,140.009],
    [9378,1525547543,57.3702,-111.8841,989.6,640.6,303.5,9.3,-3.7,13.4,34.88,671.0039,139.9987],
    [9379,1525547544,57.3704,-111.8849,987.5,637.5,302.7,8.8,-3.9,12.47,35.08,671.3094,140.0065],
    [9380,1525547545,57.3707,-111.8857,986.2,635.2,300.1,9.3,-1.8,12.24,35.21,671.5431,139.9944],
    [9381,1525547546,57.371,-111.8866,983.7,632.7,299.8,9.0,-1.6,12.31,35.33,671.7252,139.9989],
    [9382,1525547547,57.3713,-111.8874,980.6,629.6,299.4,8.5,-1.0,12.66,35.05,671.9482,139.9966],
    [9383,1525547548,57.3716,-111.8882,977.5,626.5,299.7,7.8,-0.9,12.17,35.1,672.1932,140.0054],
    [9384,1525547549,57.3719,-111.8891,974.3,624.3,299.6,8.0,-0.2,12.88,35.23,672.2974,140.0027],
    [9385,1525547550,57.3722,-111.8899,971.0,621.0,300.3,8.2,-0.9,12.83,35.03,672.4737,140.0027],
    [9386,1525547551,57.3725,-111.8908,967.5,617.4,302.2,7.4,-3.0,12.3,35.13,672.6205,140.0005],
    [9387,1525547552,57.3728,-111.8916,965.0,613.7,302.6,7.2,-3.6,12.68,35.83,672.7982,139.9975],
    [9388,1525547553,57.3731,-111.8925,962.8,609.7,301.1,8.2,-2.2,12.56,35.31,672.9123,139.9996],
    [9389,1525547554,57.3734,-111.8932,961.1,606.9,300.2,8.1,-1.5,12.55,35.57,673.2003,139.9977],
    [9390,1525547555,57.3737,-111.8941,959.2,604.2,300.2,7.3,-0.9,12.94,34.65,673.4459,140.0079],
    [9391,1525547556,57.374,-111.895,957.3,600.2,299.7,7.5,-0.4,12.64,34.91,673.5121,140.0138],
    [9392,1525547557,57.3743,-111.8958,955.0,595.9,300.3,8.2,-1.2,12.59,34.96,673.5356,140.0081],
    [9393,1525547558,57.3746,-111.8967,952.4,591.4,300.2,8.7,-1.3,13.1,34.51,673.4317,140.0033],
    [9394,1525547559,57.3749,-111.8975,949.9,587.9,300.8,7.8,-2.2,13.22,34.72,673.251,140.0016],
    [9395,1525547560,57.3752,-111.8984,947.1,584.1,299.9,7.8,-2.3,12.34,34.91,673.0848,139.998],
    [9396,1525547561,57.3755,-111.8993,945.2,581.2,297.1,8.4,-1.7,12.75,35.07,672.9942,139.9997],
    [9397,1525547562,57.3757,-111.9002,945.3,580.3,294.9,8.0,-1.6,12.7,35.2,672.8929,140.0023],
    [9398,1525547563,57.376,-111.9011,946.6,580.6,292.2,7.8,-1.5,12.58,35.64,672.9093,140.0137],
    [9399,1525547564,57.3762,-111.9019,948.1,581.1,289.5,8.2,-1.3,13.24,34.58,672.7312,140.0016],
    [9400,1525547565,57.3763,-111.9029,950.2,582.2,286.3,8.5,-1.6,13.02,34.16,672.6379,139.9905],
    [9401,1525547566,57.3765,-111.9038,952.0,583.0,283.2,8.4,-1.7,12.74,35.14,672.4469,140.0077],
    [9402,1525547567,57.3766,-111.9048,953.4,583.4,278.9,8.3,-0.7,12.93,34.58,672.2944,140.0027],
    [9403,1525547568,57.3766,-111.9058,953.6,583.6,274.2,8.6,1.0,12.99,34.79,672.1386,140.001],
    [9404,1525547569,57.3767,-111.9067,953.6,580.2,269.2,9.0,2.0,12.78,35.46,672.1238,140.0018],
    [9405,1525547570,57.3767,-111.9076,955.9,581.0,267.4,9.2,-0.8,12.79,35.54,672.0077,140.0004],
    [9406,1525547571,57.3766,-111.9085,958.2,580.3,266.7,9.2,-3.0,13.23,34.3,672.0107,139.995],
    [9407,1525547572,57.3765,-111.9094,960.5,580.2,262.3,8.9,-1.9,12.74,34.79,672.0069,139.9923],
    [9408,1525547573,57.3764,-111.9103,962.6,579.2,258.3,8.8,-1.8,12.77,35.14,672.0177,139.9952],
    [9409,1525547574,57.3763,-111.9112,964.1,580.1,254.1,8.6,-1.6,13.17,34.22,672.152,140.0002],
    [9410,1525547575,57.3761,-111.9121,965.2,580.6,250.0,8.5,-1.4,13.08,34.87,672.3542,139.9972],
    [9411,1525547576,57.3759,-111.9129,965.7,578.8,246.6,8.5,-1.5,12.84,35.26,672.5476,140.0115],
    [9412,1525547577,57.3756,-111.9137,965.8,577.7,243.2,9.4,-1.4,12.99,34.87,672.6193,140.0082],
    [9413,1525547578,57.3753,-111.9145,965.3,576.3,239.8,10.0,-0.9,12.94,34.74,672.6078,139.9918],
    [9414,1525547579,57.375,-111.9152,964.3,575.3,236.0,10.1,0.0,12.72,34.89,672.6135,139.9955],
    [9415,1525547580,57.3747,-111.9159,962.1,573.1,232.2,10.2,0.9,12.72,35.52,672.6108,139.9983],
    [9416,1525547581,57.3743,-111.9165,960.0,571.1,229.7,10.2,0.7,12.47,34.9,672.6736,139.9961],
    [9417,1525547582,57.3739,-111.9172,958.0,568.7,226.0,9.6,1.5,12.79,35.42,672.7987,140.003],
    [9418,1525547583,57.3735,-111.9178,957.4,567.3,223.7,9.9,1.6,12.69,34.75,672.8772,140.0016],
    [9419,1525547584,57.3731,-111.9184,957.9,567.7,223.2,10.3,0.8,13.11,34.31,673.1004,139.9957],
    [9420,1525547585,57.3727,-111.9189,958.2,568.2,221.3,9.8,1.8,13.19,34.29,673.1884,140.0013],
    [9421,1525547586,57.3723,-111.9195,957.7,569.3,220.8,10.5,2.0,13.1,34.47,673.3064,140.0044],
    [9422,1525547587,57.3719,-111.92,956.1,573.8,220.6,10.6,2.0,12.77,34.9,673.5263,139.9979],
    [9423,1525547588,57.3714,-111.9205,954.6,577.6,219.6,9.6,2.0,12.52,34.81,673.6918,140.0082],
    [9424,1525547589,57.371,-111.9211,953.0,584.6,219.8,9.8,1.7,13.39,34.54,673.7077,139.9865],
    [9425,1525547590,57.3705,-111.9216,951.1,587.1,220.1,10.1,1.4,13.12,34.71,673.8135,140.006],
    [9426,1525547591,57.3701,-111.9221,949.3,585.6,220.3,10.2,0.9,13.09,34.55,673.8163,140.0051],
    [9427,1525547592,57.3697,-111.9226,947.2,583.5,220.3,10.1,0.5,13.29,34.45,673.8984,140.0039],
    [9428,1525547593,57.3693,-111.9231,945.5,581.3,219.5,9.7,0.5,12.74,34.95,673.7935,139.9958],
    [9429,1525547594,57.3688,-111.9236,944.4,578.4,219.1,10.7,1.0,12.3,34.59,673.9761,140.0007],
    [9430,1525547595,57.3684,-111.9241,943.5,576.2,219.0,10.7,0.4,12.9,34.96,674.1634,140.0061],
    [9431,1525547596,57.3679,-111.9246,942.6,571.6,217.8,9.5,1.0,12.76,34.22,674.2478,139.9988],
    [9432,1525547597,57.3675,-111.9251,942.2,566.7,215.6,8.2,2.1,13.03,34.02,674.4255,140.0041],
    [9433,1525547598,57.367,-111.9256,942.7,562.3,215.7,8.6,1.8,12.56,34.5,674.7059,140.0038],
    [9434,1525547599,57.3666,-111.9261,941.7,558.1,217.1,10.2,0.7,13.05,34.31,675.072,140.005],
    [9435,1525547600,57.3661,-111.9265,940.3,554.0,217.9,10.5,0.1,12.51,34.81,675.3098,139.9938],
    [9436,1525547601,57.3657,-111.927,938.7,550.7,218.2,10.1,-0.6,12.77,34.65,675.5234,139.998],
    [9437,1525547602,57.3653,-111.9274,936.3,548.0,218.9,10.0,-1.3,13.1,34.24,675.6027,139.9965],
    [9438,1525547603,57.3648,-111.9279,933.2,546.9,218.6,10.1,-0.7,12.87,34.49,675.7922,140.0018],
    [9439,1525547604,57.3644,-111.9284,930.1,547.3,218.5,10.1,-0.6,12.9,34.68,675.9569,140.0033],
    [9440,1525547605,57.364,-111.9289,926.9,546.6,218.2,9.8,-0.4,12.96,34.7,676.1857,140.0079],
    [9441,1525547606,57.3635,-111.9293,924.2,543.6,218.1,10.2,0.0,12.59,34.42,676.2405,140.0081],
    [9442,1525547607,57.3631,-111.9298,921.3,537.0,218.4,10.7,0.1,12.77,34.49,676.3483,139.9989],
    [9443,1525547608,57.3626,-111.9303,919.4,532.1,217.8,10.2,0.2,13.14,34.33,676.445,140.0016],
    [9444,1525547609,57.3622,-111.9308,917.6,528.6,217.9,9.9,-0.1,12.63,34.46,676.5435,139.9953],
    [9445,1525547610,57.3617,-111.9312,915.4,525.4,218.3,9.8,-0.5,12.64,34.45,676.6017,139.9987],
    [9446,1525547611,57.3613,-111.9317,913.7,523.7,218.3,9.8,-1.0,13.04,34.59,676.7808,139.9919],
    [9447,1525547612,57.3608,-111.9322,912.6,522.7,217.0,9.4,-0.7,12.77,35.26,676.9372,140.0033],
    [9448,1525547613,57.3604,-111.9327,911.6,521.7,215.9,9.2,-1.0,13.23,34.71,677.2411,139.9989],
    [9449,1525547614,57.3599,-111.9331,910.6,520.5,215.1,9.2,-1.5,12.44,34.71,677.36,139.9962],
    [9450,1525547615,57.3594,-111.9335,909.4,519.5,213.6,9.1,-1.3,13.03,35.08,677.6759,140.0002],
    [9451,1525547616,57.359,-111.9339,907.9,517.7,211.3,8.7,-0.3,13.09,34.24,677.8573,139.9962],
    [9452,1525547617,57.3585,-111.9343,905.4,515.9,209.8,8.9,-0.2,12.3,34.76,678.1215,140.0031],
    [9453,1525547618,57.358,-111.9346,902.5,513.5,208.4,9.3,-0.5,12.49,34.82,678.3551,140.0006],
    [9454,1525547619,57.3575,-111.935,899.6,510.5,207.3,10.2,-0.6,12.74,34.85,678.4836,139.9945],
    [9455,1525547620,57.357,-111.9353,896.7,506.7,205.6,10.0,0.2,12.89,34.98,678.6378,140.0003],
    [9456,1525547621,57.3565,-111.9356,893.3,502.2,204.5,10.5,1.3,13.06,35.38,678.7638,140.0073],
    [9457,1525547622,57.356,-111.9358,889.9,498.8,204.2,11.0,1.9,13.02,34.58,678.8361,139.9906],
    [9458,1525547623,57.3554,-111.9361,886.9,495.2,204.2,11.1,1.2,12.56,35.01,679.0237,140.0047],
    [9459,1525547624,57.3549,-111.9364,885.2,493.2,203.7,10.8,1.3,13.47,34.41,679.1197,140.0003],
    [9460,1525547625,57.3544,-111.9366,884.4,492.2,202.4,10.1,2.3,12.93,34.87,679.2121,139.9948],
    [9461,1525547626,57.3538,-111.9369,882.1,489.4,201.5,9.4,2.6,12.59,34.93,679.3443,139.9935],
    [9462,1525547627,57.3533,-111.9371,880.0,488.1,200.9,9.9,3.9,12.93,34.76,679.5571,140.006],
    [9463,1525547628,57.3528,-111.9373,878.8,486.5,200.9,10.5,2.0,13.13,34.66,679.6329,140.0075],
    [9464,1525547629,57.3523,-111.9375,877.9,486.7,199.6,9.7,0.7,13.16,34.58,679.6202,140.0033],
    [9465,1525547630,57.3517,-111.9377,876.5,487.1,198.4,9.7,0.3,13.2,34.86,679.6151,139.9836],
    [9466,1525547631,57.3512,-111.9379,875.0,488.0,197.0,9.1,0.8,13.26,34.95,679.6004,139.9989],
    [9467,1525547632,57.3506,-111.938,873.3,487.3,194.5,7.8,0.8,13.1,34.52,679.6103,139.9873],
    [9468,1525547633,57.3501,-111.9381,872.4,485.1,193.1,7.3,-0.2,12.81,34.39,679.6247,139.9994],
    [9469,1525547634,57.3495,-111.9382,872.1,482.1,192.1,7.9,-1.0,13.42,34.11,679.7328,140.0013],
    [9470,1525547635,57.349,-111.9383,872.2,479.4,192.5,8.9,-1.4,13.34,34.61,679.9154,140.0012],
    [9471,1525547636,57.3484,-111.9384,871.7,478.6,190.1,7.0,-0.7,12.9,34.37,679.9726,139.9974],
    [9472,1525547637,57.3479,-111.9384,871.9,480.2,189.0,6.5,-0.6,13.52,34.26,679.9427,139.9906],
    [9473,1525547638,57.3473,-111.9385,871.8,482.4,188.8,6.6,-0.2,13.37,34.51,679.8939,140.0017],
    [9474,1525547639,57.3467,-111.9385,870.2,482.8,188.8,7.2,-0.3,13.65,34.24,679.8844,139.9933],
    [9475,1525547640,57.3462,-111.9386,868.7,481.7,189.4,8.2,-0.8,13.2,34.92,679.8252,139.9971],
    [9476,1525547641,57.3456,-111.9386,867.7,479.2,188.3,7.3,-0.5,13.26,34.32,679.9847,140.006],
    [9477,1525547642,57.345,-111.9386,867.7,478.7,187.1,6.1,-0.2,13.89,33.69,680.0568,140.0064],
    [9478,1525547643,57.3444,-111.9387,868.2,479.2,186.6,5.4,-0.2,13.74,34.48,680.1242,140.0038],
    [9479,1525547644,57.3439,-111.9387,868.4,479.4,186.9,5.7,-0.1,13.33,34.29,680.2526,140.0079],
    [9480,1525547645,57.3434,-111.9387,868.4,479.7,187.7,6.4,-0.3,13.57,34.1,680.3249,139.9878],
    [9481,1525547646,57.3428,-111.9388,867.6,482.0,187.5,6.3,-0.8,13.5,34.28,680.3589,139.98],
    [9482,1525547647,57.3422,-111.9388,866.6,482.6,187.2,6.3,-1.8,14.11,33.99,680.6997,140.0025],
    [9483,1525547648,57.3416,-111.9388,865.7,482.7,186.5,6.0,-2.3,13.57,34.58,681.0436,140.0099],
    [9484,1525547649,57.341,-111.9388,864.3,480.2,186.2,5.7,-2.5,13.46,34.35,681.3499,140.0028],
    [9485,1525547650,57.3404,-111.9388,862.4,476.4,185.7,6.3,-0.9,13.6,34.45,681.6059,140.007],
    [9486,1525547651,57.3399,-111.9388,860.9,472.8,188.8,10.2,-0.1,13.56,34.32,681.9224,140.0042],
    [9487,1525547652,57.3393,-111.9388,857.8,468.7,188.8,9.9,-0.2,13.57,34.22,682.0788,140.0027],
    [9488,1525547653,57.3387,-111.9388,854.0,464.0,188.7,9.9,-0.6,13.55,34.01,682.3831,140.0014],
    [9489,1525547654,57.3382,-111.9388,850.5,460.5,190.9,11.7,-1.8,13.61,34.03,682.5162,139.9976],
    [9490,1525547655,57.3376,-111.9388,847.2,457.2,190.7,10.8,-2.2,14.06,33.23,682.9338,140.0019],
    [9491,1525547656,57.337,-111.9389,844.7,455.7,190.3,10.0,-2.5,13.47,33.35,683.1361,140.0033],
    [9492,1525547657,57.3365,-111.9389,842.4,453.3,190.4,9.7,-2.5,13.48,33.0,683.5614,140.0055],
    [9493,1525547658,57.3359,-111.9389,839.9,452.0,190.5,9.4,-2.2,13.71,32.93,683.778,140.0002],
    [9494,1525547659,57.3354,-111.9389,837.1,449.0,191.3,9.8,-1.9,13.77,32.79,684.2321,139.9994],
    [9495,1525547660,57.3347,-111.939,833.1,446.2,192.1,9.9,-1.8,13.56,33.05,684.586,139.9998],
    [9496,1525547661,57.3342,-111.9391,829.6,442.6,192.5,9.6,-1.4,14.01,33.14,685.1534,140.0065],
    [9497,1525547662,57.3336,-111.9391,825.7,439.4,193.6,9.6,-1.8,13.93,32.59,685.2483,140.0057],
    [9498,1525547663,57.3331,-111.9392,821.8,435.8,193.1,8.4,-1.8,13.84,32.63,685.5533,140.003],
    [9499,1525547664,57.3325,-111.9393,817.4,431.8,194.1,8.9,-1.8,14.22,32.25,685.6815,140.0057],
    [9500,1525547665,57.3319,-111.9394,812.3,427.6,195.3,9.4,-2.2,13.51,33.32,685.7845,140.0041],
    [9501,1525547666,57.3314,-111.9396,807.3,423.3,195.4,9.3,-2.0,13.72,32.79,685.8546,139.9993],
    [9502,1525547667,57.3308,-111.9397,803.4,420.1,195.1,9.3,-2.2,13.87,33.03,685.9921,139.9974],
    [9503,1525547668,57.3302,-111.9398,800.3,417.3,194.8,9.3,-2.3,13.89,33.21,686.2253,140.0009],
    [9504,1525547669,57.3297,-111.9399,798.6,416.3,193.3,8.2,-2.2,13.75,32.89,686.4567,140.0016],
    [9505,1525547670,57.3291,-111.94,797.2,415.3,191.5,7.4,-2.2,14.2,32.31,686.5459,140.0014],
    [9506,1525547671,57.3285,-111.9401,796.1,414.4,191.3,7.7,-2.7,13.77,32.79,686.7768,139.9958],
    [9507,1525547672,57.328,-111.9402,794.7,413.7,190.9,7.9,-2.8,13.68,32.69,686.936,139.9894],
    [9508,1525547673,57.3274,-111.9402,792.8,411.8,189.7,7.3,-2.5,13.54,32.6,687.622,140.0072],
    [9509,1525547674,57.3268,-111.9403,790.4,410.4,188.1,6.2,-2.4,13.9,32.59,687.8432,140.0016],
    [9510,1525547675,57.3262,-111.9403,788.0,408.0,187.0,5.7,-2.5,13.54,32.57,688.1924,140.0031],
    [9511,1525547676,57.3257,-111.9403,785.8,405.8,186.8,5.7,-2.8,13.97,33.02,688.5658,140.0006],
    [9512,1525547677,57.325,-111.9404,782.3,403.4,187.5,6.4,-3.0,13.9,32.69,689.0515,139.9932],
    [9513,1525547678,57.3245,-111.9404,777.8,398.8,188.2,7.0,-3.5,13.9,32.81,689.2321,139.995],
    [9514,1525547679,57.3239,-111.9404,773.1,394.8,188.0,6.9,-3.7,14.22,32.24,689.6911,140.0029],
    [9515,1525547680,57.3234,-111.9404,768.6,390.6,187.1,6.4,-3.5,13.92,33.41,689.9014,139.9997],
    [9516,1525547681,57.3227,-111.9405,763.6,385.6,186.8,6.6,-3.4,14.05,32.29,690.289,140.0067],
    [9517,1525547682,57.3221,-111.9405,758.8,381.8,186.6,6.7,-2.5,14.07,33.12,690.5089,140.0052],
    [9518,1525547683,57.3216,-111.9405,754.8,378.5,186.8,7.1,-1.8,14.0,32.62,690.8652,140.0042],
    [9519,1525547684,57.321,-111.9405,749.9,374.2,187.3,7.6,-1.1,13.56,32.98,691.0878,139.9985],
    [9520,1525547685,57.3204,-111.9405,746.2,371.2,186.2,6.8,-0.5,13.8,32.89,691.5743,140.0104],
    [9521,1525547686,57.3198,-111.9405,742.7,367.7,185.4,6.4,-0.9,14.13,32.45,691.7136,140.0053],
    [9522,1525547687,57.3192,-111.9405,739.4,365.5,185.6,6.8,-1.4,14.07,33.32,692.0892,139.9994],
    [9523,1525547688,57.3186,-111.9405,736.0,362.0,185.2,6.7,-1.9,13.76,33.04,692.464,139.9954],
    [9524,1525547689,57.3181,-111.9404,732.3,359.0,184.9,6.7,-1.8,14.05,32.75,692.9432,139.9973],
    [9525,1525547690,57.3175,-111.9404,728.0,356.1,184.7,7.2,-2.0,13.81,32.64,693.3665,140.0041],
    [9526,1525547691,57.3169,-111.9404,723.8,352.9,186.0,8.6,-2.7,14.3,32.4,693.8778,140.0002],
    [9527,1525547692,57.3164,-111.9404,720.0,350.0,185.7,7.9,-2.6,13.69,32.59,694.1289,140.0038],
    [9528,1525547693,57.3158,-111.9403,715.3,346.3,185.5,7.5,-2.0,14.23,32.54,694.8015,140.0078],
    [9529,1525547694,57.3152,-111.9403,710.6,342.6,186.4,8.3,-1.6,14.61,32.03,695.045,140.0075],
    [9530,1525547695,57.3146,-111.9403,705.6,339.6,186.0,8.3,-2.0,14.28,33.21,695.299,139.9884],
    [9531,1525547696,57.314,-111.9403,700.2,335.9,185.1,8.5,-2.4,14.55,32.26,695.3466,140.0009],
    [9532,1525547697,57.3134,-111.9402,694.7,331.0,183.3,8.5,-2.0,14.62,32.02,695.5206,139.9949],
    [9533,1525547698,57.3128,-111.9401,688.5,325.8,180.0,8.2,-1.3,14.31,32.21,695.666,139.9984],
    [9534,1525547699,57.3122,-111.9399,683.8,321.8,176.2,8.1,-0.8,14.25,32.33,695.701,139.9991],
    [9535,1525547700,57.3116,-111.9397,680.8,318.9,172.5,9.0,-0.6,14.15,32.03,695.7397,140.0043],
    [9536,1525547701,57.311,-111.9393,679.1,316.2,167.5,7.0,0.0,14.52,32.09,695.7674,139.9874],
    [9537,1525547702,57.3104,-111.9389,677.4,314.3,163.1,6.6,-0.3,14.53,32.31,695.8195,139.9954],
    [9538,1525547703,57.3099,-111.9385,676.0,314.3,159.5,6.4,-0.3,14.56,31.93,696.0873,139.9984],
    [9539,1525547704,57.3093,-111.938,675.4,314.4,154.3,5.5,-0.4,14.94,31.71,696.134,140.0036],
    [9540,1525547705,57.3088,-111.9374,675.3,315.0,150.5,6.2,-0.9,14.71,31.97,696.3644,139.9991],
    [9541,1525547706,57.3083,-111.9367,675.4,315.4,145.6,5.2,-1.3,14.7,31.91,696.5191,139.996],
    [9542,1525547707,57.3078,-111.936,674.2,313.5,140.2,3.9,-1.4,14.98,31.6,696.8631,139.9945],
    [9543,1525547708,57.3074,-111.9352,672.2,311.3,136.0,4.0,-1.9,14.81,31.97,697.1491,139.9966],
    [9544,1525547709,57.307,-111.9344,670.1,309.4,131.0,3.6,-3.1,14.59,31.47,697.2882,139.9973],
    [9545,1525547710,57.3066,-111.9335,668.4,309.8,127.9,5.0,-2.3,15.22,31.74,697.4595,139.9962],
    [9546,1525547711,57.3062,-111.9325,665.8,308.8,127.6,7.3,0.5,15.4,31.09,697.4358,139.9984],
    [9547,1525547712,57.3059,-111.9316,662.4,306.9,124.5,6.5,0.9,14.91,31.28,697.832,140.0036],
    [9548,1525547713,57.3056,-111.9305,658.5,303.8,119.9,4.7,0.8,15.2,31.57,698.1573,139.9967],
    [9549,1525547714,57.3053,-111.9295,655.4,300.4,117.9,4.9,2.3,15.1,32.06,698.5689,139.9972],
    [9550,1525547715,57.3051,-111.9284,654.0,300.0,112.8,4.4,0.7,15.32,30.98,699.3993,140.0097],
    [9551,1525547716,57.3049,-111.9273,653.3,299.5,107.7,4.1,-1.3,15.05,31.25,699.8732,139.9969],
    [9552,1525547717,57.3047,-111.9263,651.1,298.1,104.2,4.9,-3.4,14.98,31.17,700.3388,139.9936],
    [9553,1525547718,57.3045,-111.9251,646.8,293.8,102.8,6.2,-2.3,15.87,30.82,700.6712,140.0049],
    [9554,1525547719,57.3044,-111.924,641.0,289.0,102.9,6.0,-1.1,15.33,31.14,700.9377,140.002],
    [9555,1525547720,57.3042,-111.9228,633.2,282.2,101.7,5.4,-1.9,15.12,31.1,701.0315,139.9913],
    [9556,1525547721,57.3041,-111.9217,625.8,275.8,101.7,6.0,-1.4,15.12,31.1,701.4251,139.9982],
    [9557,1525547722,57.304,-111.9205,619.9,270.9,102.1,5.8,-0.5,15.7,30.37,702.131,140.0027],
    [9558,1525547723,57.3039,-111.9193,615.6,267.6,100.1,5.0,-1.9,14.67,30.91,702.4587,139.9869],
    [9559,1525547724,57.3037,-111.9181,613.3,265.3,98.7,5.6,-2.9,15.47,30.73,702.6896,140.003],
    [9560,1525547725,57.3036,-111.917,610.8,262.8,98.9,6.3,-2.4,15.39,30.75,702.9552,140.0008],
    [9561,1525547726,57.3035,-111.9158,607.4,258.4,99.6,6.9,-1.5,15.31,30.65,703.1301,140.0036],
    [9562,1525547727,57.3034,-111.9146,602.3,253.3,100.1,7.9,-0.6,15.3,30.68,703.4476,140.0007],
    [9563,1525547728,57.3033,-111.9135,596.4,248.4,102.1,7.4,1.0,15.56,30.89,703.6456,140.0096],
    [9564,1525547729,57.3032,-111.9123,591.6,244.3,101.2,5.7,-0.7,15.24,30.8,703.8285,140.0171],
    [9565,1525547730,57.303,-111.911,589.0,242.3,101.4,6.0,-1.0,15.39,30.48,704.1447,140.0007],
    [9566,1525547731,57.3029,-111.9098,585.8,240.8,102.2,5.9,-0.8,15.74,30.56,704.3307,139.9996],
    [9567,1525547732,57.3028,-111.9086,582.5,238.5,101.6,4.5,-1.8,15.37,30.13,704.4363,139.992],
    [9568,1525547733,57.3026,-111.9074,579.5,235.5,102.3,5.0,-1.7,15.15,30.18,704.6672,140.0017],
    [9569,1525547734,57.3025,-111.9063,576.9,232.9,103.7,6.9,-0.6,15.64,30.3,704.7881,140.0007],
    [9570,1525547735,57.3024,-111.9051,574.3,230.3,105.0,8.0,0.9,15.58,30.37,705.1913,140.0067],
    [9571,1525547736,57.3022,-111.9039,572.2,228.2,101.7,6.1,-1.8,15.36,30.33,705.3051,140.0034],
    [9572,1525547737,57.3021,-111.9029,570.5,226.5,99.6,5.1,-3.1,16.25,29.99,705.715,140.0006],
    [9573,1525547738,57.302,-111.9016,568.6,224.6,98.2,5.1,-4.1,15.99,29.9,705.9387,140.0071],
    [9574,1525547739,57.3018,-111.9004,566.2,223.2,97.5,5.0,-4.2,15.85,29.74,706.4368,140.0081],
    [9575,1525547740,57.3017,-111.8993,563.3,220.3,99.1,6.1,-2.4,15.78,29.68,706.6658,140.0044],
    [9576,1525547741,57.3016,-111.8981,559.6,216.6,99.8,7.0,-1.7,15.58,30.08,706.9757,139.999],
    [9577,1525547742,57.3015,-111.897,555.9,212.9,100.2,6.9,-1.0,15.57,30.01,707.0946,140.0014],
    [9578,1525547743,57.3014,-111.8957,552.0,209.0,100.7,7.2,-0.5,15.85,29.86,707.4366,140.0013],
    [9579,1525547744,57.3013,-111.8946,548.2,205.2,98.3,6.6,-2.6,15.8,29.56,707.6207,140.0069],
    [9580,1525547745,57.3012,-111.8934,544.5,202.5,97.1,6.8,-2.5,16.51,29.33,707.8349,140.0013],
    [9581,1525547746,57.3011,-111.8922,541.8,200.8,97.4,7.3,-1.2,15.98,29.46,707.9075,140.003],
    [9582,1525547747,57.301,-111.8911,539.3,199.3,95.0,7.1,-2.3,16.26,29.36,707.9015,139.9972],
    [9583,1525547748,57.3009,-111.8898,536.1,197.1,93.7,6.8,-1.9,15.67,29.48,708.0263,140.0001],
    [9584,1525547749,57.3009,-111.8887,533.3,194.3,92.2,6.9,-1.9,16.29,28.95,708.2557,140.0032],
    [9585,1525547750,57.3009,-111.8875,531.0,192.7,90.6,6.5,-2.3,15.99,29.75,708.3524,140.0029],
    [9586,1525547751,57.3008,-111.8863,529.7,191.7,89.4,5.9,-2.3,15.84,29.34,708.5847,139.9989],
    [9587,1525547752,57.3008,-111.8852,529.2,191.4,88.7,5.8,-2.4,16.33,29.09,708.748,140.0018],
    [9588,1525547753,57.3008,-111.8839,528.5,190.8,89.1,5.8,-1.1,15.69,29.17,709.0086,139.9943],
    [9589,1525547754,57.3008,-111.8828,526.7,189.8,88.9,6.5,-0.7,16.0,29.16,709.2923,140.0044],
    [9590,1525547755,57.3008,-111.8816,524.8,188.5,86.4,6.8,-2.1,15.94,29.28,709.5815,140.0031],
    [9591,1525547756,57.3009,-111.8804,522.6,186.2,85.3,6.6,-2.1,16.29,29.56,709.8273,140.0032],
    [9592,1525547757,57.3009,-111.8792,520.0,183.7,85.1,6.3,-1.6,16.25,29.36,710.1028,139.9988],
    [9593,1525547758,57.3009,-111.878,516.9,180.9,85.5,5.6,-1.0,16.27,29.28,710.169,139.9922],
    [9594,1525547759,57.301,-111.8768,513.6,178.1,86.0,5.5,-0.5,16.17,28.99,710.5763,140.0083],
    [9595,1525547760,57.301,-111.8757,510.6,175.6,85.8,5.4,-0.9,16.26,28.8,710.6713,140.007],
    [9596,1525547761,57.301,-111.8745,507.6,171.9,85.4,5.6,-1.8,16.78,28.08,710.7557,140.0082],
    [9597,1525547762,57.3011,-111.8733,504.8,168.9,85.8,5.6,-2.1,16.49,29.42,710.9338,140.0057],
    [9598,1525547763,57.3011,-111.8722,501.7,165.0,88.7,4.9,-0.3,16.7,28.49,711.0868,140.0008],
    [9599,1525547764,57.3011,-111.871,498.1,161.4,90.6,5.4,0.0,16.51,28.58,711.1325,139.9982],
    [9600,1525547765,57.3011,-111.8698,495.9,159.9,90.3,6.7,-2.0,16.17,29.31,711.0445,139.994],
    [9601,1525547766,57.3011,-111.8685,495.0,160.0,92.4,6.9,-0.3,16.42,29.37,710.9413,139.996],
    [9602,1525547767,57.301,-111.8673,493.7,159.4,94.0,7.0,0.7,16.38,29.72,711.0025,140.0033],
    [9603,1525547768,57.301,-111.8662,492.2,158.2,93.9,6.9,0.4,16.55,29.07,710.9222,140.0022],
    [9604,1525547769,57.3009,-111.8649,491.4,158.5,94.9,6.6,1.5,16.36,28.86,710.8192,140.0021],
    [9605,1525547770,57.3009,-111.8637,491.6,159.6,93.9,6.3,0.5,16.39,28.91,710.8247,140.0083],
    [9606,1525547771,57.3009,-111.8625,492.1,161.1,93.2,5.8,0.2,16.61,29.43,710.9084,140.0127],
    [9607,1525547772,57.3009,-111.8614,491.9,160.9,94.9,5.3,2.6,16.11,28.96,710.9234,140.0013],
    [9608,1525547773,57.3008,-111.8602,492.7,161.7,95.4,6.3,3.2,16.6,28.98,710.8851,139.9951],
    [9609,1525547774,57.3008,-111.859,493.8,162.8,92.0,6.8,-0.1,16.77,29.65,710.9734,140.0085],
    [9610,1525547775,57.3008,-111.8578,494.2,163.2,90.5,7.2,-0.7,16.57,29.05,711.0695,139.9962],
    [9611,1525547776,57.3008,-111.8566,493.5,163.5,91.2,7.5,1.2,16.76,29.15,711.0697,139.9945],
    [9612,1525547777,57.3008,-111.8554,493.0,163.0,89.6,7.0,0.2,16.8,29.52,711.3817,140.0022],
    [9613,1525547778,57.3008,-111.8542,492.8,163.8,87.2,6.6,-1.4,16.62,29.22,711.5369,139.9994],
    [9614,1525547779,57.3008,-111.853,491.9,162.9,86.5,6.8,-1.7,16.7,29.23,711.6527,140.006],
    [9615,1525547780,57.3008,-111.8518,490.7,162.6,85.8,6.8,-1.9,16.65,29.11,711.6838,139.9947],
    [9616,1525547781,57.3009,-111.8506,490.0,163.0,88.6,6.3,0.7,16.74,29.54,711.7758,139.9956],
    [9617,1525547782,57.3009,-111.8494,488.3,162.3,90.3,6.0,1.8,16.84,29.19,711.6234,139.9888],
    [9618,1525547783,57.3009,-111.8482,486.3,161.3,90.6,6.1,1.6,17.15,28.8,711.4739,139.9965],
    [9619,1525547784,57.3009,-111.847,484.5,159.5,91.0,6.1,1.6,16.93,29.65,711.5535,140.0099],
    [9620,1525547785,57.3009,-111.8458,483.3,159.3,92.0,5.5,3.0,17.06,29.07,711.7385,139.9824],
    [9621,1525547786,57.3009,-111.8445,482.3,159.3,94.4,4.6,5.3,17.41,29.04,711.7657,139.9935],
    [9622,1525547787,57.3009,-111.8434,482.0,159.0,93.8,3.3,4.6,17.65,29.5,711.8446,140.0022],
    [9623,1525547788,57.3009,-111.8422,483.4,161.4,93.7,2.7,4.7,16.51,30.13,711.7597,140.0057],
    [9624,1525547789,57.3009,-111.841,483.9,161.9,93.2,3.3,4.2,16.24,30.81,711.8723,139.9989],
    [9625,1525547790,57.3009,-111.8397,482.1,161.1,93.3,2.7,4.9,16.43,31.14,711.8825,139.9987],
    [9626,1525547791,57.3009,-111.8386,480.9,159.9,94.3,2.1,6.0,17.38,30.92,711.8511,139.9959],
    [9627,1525547792,57.3009,-111.8374,479.9,158.9,93.8,2.0,5.0,16.8,31.72,711.8186,139.9993],
    [9628,1525547793,57.3009,-111.8362,479.9,158.9,93.1,1.7,4.0,17.18,31.09,711.672,140.0072],
    [9629,1525547794,57.3009,-111.8349,479.6,158.6,95.0,1.1,5.8,17.03,31.32,711.5788,140.0083],
    [9630,1525547795,57.3009,-111.8339,478.7,157.7,96.1,1.2,6.4,16.91,31.63,711.5751,140.0051],
    [9631,1525547796,57.3009,-111.8325,478.5,157.5,96.1,0.8,5.7,16.78,31.79,712.2152,140.0105],
    [9632,1525547797,57.3009,-111.8312,479.4,159.4,96.4,-0.1,5.7,16.89,32.42,712.4023,139.9896],
    [9633,1525547798,57.3009,-111.83,480.6,160.6,95.9,1.4,4.6,16.71,32.09,712.3709,140.0076],
    [9634,1525547799,57.3008,-111.8289,481.6,161.6,94.1,1.7,2.7,16.84,32.44,712.204,139.9992],
    [9635,1525547800,57.3008,-111.8277,480.6,160.6,95.2,2.7,4.6,16.5,31.99,711.8435,139.9862],
    [9636,1525547801,57.3008,-111.8264,477.5,157.5,95.1,4.1,4.4,17.19,32.19,711.7977,139.9993],
    [9637,1525547802,57.3008,-111.8252,474.0,154.0,93.6,3.7,3.3,16.18,32.08,711.8959,140.0073],
    [9638,1525547803,57.3008,-111.824,473.8,153.8,93.6,3.4,3.5,16.53,32.14,712.1303,140.0027],
    [9639,1525547804,57.3008,-111.8229,475.2,155.2,93.9,3.0,4.2,16.74,32.63,712.249,140.0026],
    [9640,1525547805,57.3008,-111.8215,478.1,159.1,95.6,2.8,6.7,16.75,32.14,712.292,139.9949],
    [9641,1525547806,57.3008,-111.8204,479.6,160.6,95.5,3.3,6.2,16.84,31.96,712.5065,140.0081],
    [9642,1525547807,57.3008,-111.8192,479.4,161.4,93.8,3.6,4.4,16.59,32.63,712.6284,140.009],
    [9643,1525547808,57.3008,-111.818,478.1,161.1,95.8,4.4,6.2,16.57,32.14,713.0478,140.0056],
    [9644,1525547809,57.3007,-111.8168,476.3,159.6,94.7,3.9,4.6,17.43,31.51,713.2549,139.9923],
    [9645,1525547810,57.3007,-111.8157,474.9,158.9,94.7,3.5,5.0,16.66,31.94,713.3585,139.9939],
    [9646,1525547811,57.3007,-111.8144,473.8,158.8,95.9,4.7,6.4,16.81,31.73,713.313,140.005],
    [9647,1525547812,57.3007,-111.8131,471.3,157.3,93.9,6.5,4.7,16.84,32.06,713.3355,139.9947],
    [9648,1525547813,57.3007,-111.812,468.1,154.1,91.9,7.0,3.0,16.71,31.67,713.4127,140.005],
    [9649,1525547814,57.3007,-111.8107,464.9,150.9,91.3,6.2,2.7,16.87,31.38,713.4268,140.0063],
    [9650,1525547815,57.3008,-111.8095,463.2,148.2,91.4,4.8,3.8,16.73,31.74,713.3055,140.0063],
    [9651,1525547816,57.3008,-111.8083,462.9,146.9,92.0,5.3,5.6,16.75,31.55,713.1241,140.0025],
    [9652,1525547817,57.3008,-111.8071,463.0,147.0,88.8,5.8,3.8,16.34,31.28,712.8128,139.9928],
    [9653,1525547818,57.3009,-111.8058,462.8,146.8,83.8,5.3,2.1,16.62,31.32,712.496,139.9986],
    [9654,1525547819,57.301,-111.8046,462.5,147.5,79.5,5.6,2.1,16.78,31.33,712.4187,139.9938],
    [9655,1525547820,57.3011,-111.8035,463.1,148.1,75.6,6.2,2.3,16.82,31.28,712.3145,139.9979],
    [9656,1525547821,57.3013,-111.8023,465.9,150.9,71.5,5.6,2.8,16.49,31.29,712.2849,139.9976],
    [9657,1525547822,57.3015,-111.8012,468.8,154.8,69.2,4.5,3.5,16.24,31.16,712.1676,140.0067],
    [9658,1525547823,57.3018,-111.8001,472.1,158.1,65.7,3.9,3.8,16.68,31.19,711.9235,139.998],
    [9659,1525547824,57.3021,-111.7991,474.4,161.1,63.7,3.5,4.9,16.26,31.25,711.7885,140.0016],
    [9660,1525547825,57.3024,-111.7981,475.4,162.4,59.7,4.1,4.5,16.82,31.4,711.7411,139.995],
    [9661,1525547826,57.3028,-111.7971,477.0,164.0,54.4,4.9,3.9,16.52,31.37,711.6996,139.9954],
    [9662,1525547827,57.3032,-111.7961,478.5,165.5,52.5,3.7,5.7,17.35,31.52,711.7051,139.9973],
    [9663,1525547828,57.3036,-111.7952,480.3,167.3,48.7,3.4,5.8,17.0,31.63,711.7321,140.0013],
    [9664,1525547829,57.3041,-111.7944,482.0,170.0,44.4,3.9,5.2,17.3,31.59,711.8255,139.998],
    [9665,1525547830,57.3046,-111.7935,482.6,170.6,40.3,4.8,4.6,17.02,32.29,711.7483,139.994],
    [9666,1525547831,57.305,-111.7928,482.5,170.5,36.1,5.6,3.3,16.75,32.85,711.5683,140.0002],
    [9667,1525547832,57.3056,-111.7921,482.4,170.4,32.9,4.5,3.3,16.88,32.1,711.268,139.9952],
    [9668,1525547833,57.3061,-111.7914,482.4,171.5,32.1,1.3,5.4,16.6,32.52,711.1892,139.9978],
    [9669,1525547834,57.3067,-111.7909,481.8,171.1,27.8,1.3,4.7,16.84,32.48,711.6635,140.0052],
    [9670,1525547835,57.3072,-111.7904,481.9,171.9,22.5,1.3,3.4,16.37,32.77,711.8861,140.0098],
    [9671,1525547836,57.3078,-111.79,483.5,174.5,17.7,1.2,2.5,16.86,32.48,712.2895,140.0078],
    [9672,1525547837,57.3084,-111.7897,485.3,176.3,15.3,-0.5,3.5,16.84,32.72,712.5988,139.995],
    [9673,1525547838,57.3091,-111.7894,487.2,177.2,10.9,0.7,3.6,16.62,32.93,712.7341,139.9955],
    [9674,1525547839,57.3097,-111.7892,484.6,173.8,5.7,3.2,2.7,17.13,32.73,713.0333,139.993],
    [9675,1525547840,57.3103,-111.7891,479.3,168.3,361.6,4.4,2.4,16.4,32.77,713.2999,139.9952],
    [9676,1525547841,57.311,-111.7891,475.5,164.5,356.4,4.9,3.1,16.71,33.4,713.3837,140.0005],
    [9677,1525547842,57.3117,-111.7891,473.0,162.6,354.8,3.7,3.3,17.31,32.7,713.7618,140.0036],
    [9678,1525547843,57.3123,-111.7891,471.0,160.7,354.2,3.5,2.2,16.8,33.3,714.0938,139.9994],
    [9679,1525547844,57.3129,-111.7892,468.1,157.1,353.7,2.9,2.0,16.97,32.46,714.2708,140.0048],
    [9680,1525547845,57.3136,-111.7893,464.8,153.8,355.0,1.1,1.6,16.95,32.6,714.3509,140.0052],
    [9681,1525547846,57.3142,-111.7894,462.0,151.0,355.2,0.8,1.2,16.34,33.14,714.3456,140.0018],
    [9682,1525547847,57.3149,-111.7895,458.2,147.2,354.7,1.7,1.5,16.88,33.78,714.3572,140.0036],
    [9683,1525547848,57.3156,-111.7895,455.0,144.0,354.4,2.3,1.6,17.47,32.81,714.4968,140.0001],
    [9684,1525547849,57.3162,-111.7896,452.2,141.2,354.8,2.3,1.5,16.77,33.71,714.5747,140.0014],
    [9685,1525547850,57.3168,-111.7897,450.2,139.2,355.3,2.6,1.8,16.55,33.36,714.6889,140.006],
    [9686,1525547851,57.3175,-111.7897,450.2,139.2,355.6,2.8,2.8,16.93,32.99,714.709,140.0013],
    [9687,1525547852,57.3182,-111.7898,450.2,139.2,355.5,3.2,3.8,17.27,32.47,714.6224,140.0057],
    [9688,1525547853,57.3189,-111.7898,449.5,138.5,355.2,3.3,4.4,16.89,32.84,714.4911,139.9994],
    [9689,1525547854,57.3195,-111.7898,448.5,137.5,356.2,2.0,4.4,16.54,33.17,714.0218,140.0119],
    [9690,1525547855,57.3202,-111.7899,447.1,136.1,355.9,2.5,4.2,16.51,32.78,713.9808,140.0084],
    [9691,1525547856,57.3208,-111.7899,446.4,135.4,355.1,2.9,3.5,16.21,32.7,713.7681,140.0016],
    [9692,1525547857,57.3215,-111.79,447.3,136.3,355.8,2.0,2.9,16.37,32.65,713.6679,140.0032],
    [9693,1525547858,57.3221,-111.79,449.9,138.9,355.9,1.9,2.5,16.58,32.55,713.4337,139.9982],
    [9694,1525547859,57.3227,-111.7901,453.5,143.4,355.4,2.8,2.7,16.74,32.72,713.4795,139.9974],
    [9695,1525547860,57.3234,-111.7901,456.6,146.6,356.0,2.0,2.6,17.02,32.46,713.5854,140.001],
    [9696,1525547861,57.324,-111.7902,458.6,148.6,357.5,0.7,2.8,16.16,32.96,713.6772,139.9947],
    [9697,1525547862,57.3246,-111.7902,460.1,150.1,356.7,1.5,3.6,16.76,33.53,713.8222,139.9985],
    [9698,1525547863,57.3252,-111.7902,461.5,151.5,356.4,1.9,3.3,17.18,33.16,713.9838,140.006],
    [9699,1525547864,57.3259,-111.7903,462.1,152.1,357.7,0.7,2.9,16.73,33.58,714.0626,139.9988],
    [9700,1525547865,57.3265,-111.7903,461.7,151.7,358.5,0.1,3.3,16.65,33.64,714.2642,140.0021],
    [9701,1525547866,57.3271,-111.7903,460.4,150.4,359.0,-0.5,3.8,16.78,34.35,714.2742,139.9991],
    [9702,1525547867,57.3278,-111.7904,458.6,148.6,358.8,-0.4,3.9,16.5,33.75,714.3774,140.0026],
    [9703,1525547868,57.3284,-111.7904,456.9,146.9,358.0,0.6,3.4,16.41,33.99,714.4281,139.9998],
    [9704,1525547869,57.3289,-111.7904,455.9,145.9,358.1,0.2,3.7,16.77,34.11,714.4095,140.0058],
    [9705,1525547870,57.3296,-111.7904,454.4,144.4,359.5,-0.9,3.9,16.76,34.1,714.2347,139.9948],
    [9706,1525547871,57.3302,-111.7905,453.3,143.3,358.5,-0.1,3.4,17.06,33.79,714.1048,140.003],
    [9707,1525547872,57.3308,-111.7905,452.3,143.3,358.4,0.2,3.3,17.12,33.74,713.9012,139.9935],
    [9708,1525547873,57.3315,-111.7905,451.9,144.3,356.8,2.0,3.1,16.8,33.82,713.8763,139.9942],
    [9709,1525547874,57.3321,-111.7906,452.1,146.1,356.5,2.3,2.7,16.82,34.57,713.991,140.002],
    [9710,1525547875,57.3327,-111.7906,453.4,149.5,357.9,1.2,2.5,17.04,33.52,713.9664,139.9985],
    [9711,1525547876,57.3333,-111.7906,454.8,150.6,358.9,0.9,2.0,16.6,34.44,714.1926,140.0015],
    [9712,1525547877,57.3339,-111.7906,456.4,149.0,359.7,0.5,1.9,16.57,33.89,714.2591,140.0119],
    [9713,1525547878,57.3345,-111.7906,457.5,148.4,361.3,-0.8,1.8,16.15,34.14,714.1269,140.0005],
    [9714,1525547879,57.3351,-111.7906,457.4,148.4,360.5,0.1,2.3,16.59,34.14,714.1109,140.0035],
    [9715,1525547880,57.3358,-111.7906,456.1,147.1,359.5,0.7,2.4,16.66,34.71,714.0909,140.0064],
    [9716,1525547881,57.3363,-111.7906,454.5,145.5,360.4,-0.4,2.2,16.56,34.3,714.049,140.0013],
    [9717,1525547882,57.337,-111.7906,453.7,145.4,359.9,0.5,2.3,16.68,33.96,713.9163,140.0037],
    [9718,1525547883,57.3375,-111.7906,454.2,146.2,359.4,1.0,2.5,16.27,34.17,713.6411,140.0079],
    [9719,1525547884,57.3381,-111.7905,455.4,147.4,359.5,1.3,2.5,17.17,33.98,713.4133,139.9935],
    [9720,1525547885,57.3388,-111.7905,455.8,147.8,358.7,2.2,2.3,16.23,34.33,713.3877,139.9919],
    [9721,1525547886,57.3394,-111.7905,456.4,148.4,359.6,1.3,2.3,16.55,34.46,713.4109,140.0045],
    [9722,1525547887,57.3399,-111.7905,457.8,149.8,361.1,-0.3,2.9,16.87,34.05,713.4518,140.0025],
    [9723,1525547888,57.3405,-111.7905,460.3,152.3,360.2,0.9,3.3,16.87,34.11,713.4034,140.005],
    [9724,1525547889,57.3411,-111.7905,462.7,154.7,359.3,1.7,3.0,16.74,34.88,713.313,140.0044],
    [9725,1525547890,57.3417,-111.7905,464.2,157.1,360.7,0.3,3.0,16.7,34.43,713.2014,139.9994],
    [9726,1525547891,57.3423,-111.7904,464.5,158.5,360.0,1.0,3.2,16.56,34.26,713.1621,140.0008],
    [9727,1525547892,57.3429,-111.7904,464.3,160.3,359.4,1.4,2.9,16.66,34.41,713.1095,139.9964],
    [9728,1525547893,57.3435,-111.7904,464.4,161.4,359.4,1.1,2.8,16.41,34.27,713.0932,140.0037],
    [9729,1525547894,57.344,-111.7904,465.5,163.8,359.3,1.2,3.4,16.37,34.34,712.962,139.9998],
    [9730,1525547895,57.3446,-111.7904,466.7,165.7,358.4,1.7,3.6,16.4,34.61,712.8571,139.9963],
    [9731,1525547896,57.3452,-111.7904,467.6,167.6,358.5,0.4,3.5,17.51,34.03,712.7521,140.0012],
    [9732,1525547897,57.3457,-111.7904,468.2,168.2,356.8,0.1,3.2,16.7,34.48,712.7289,140.0065],
    [9733,1525547898,57.3463,-111.7905,469.0,169.0,352.8,0.8,2.8,16.61,34.64,712.5989,139.9917],
    [9734,1525547899,57.3469,-111.7907,470.1,170.1,349.0,1.3,3.0,16.6,34.68,712.6184,140.0017],
    [9735,1525547900,57.3475,-111.7909,471.3,171.3,344.6,1.6,2.4,17.06,34.22,712.6673,140.0044],
    [9736,1525547901,57.348,-111.7911,472.4,172.4,341.2,1.4,1.8,16.88,34.03,712.5988,140.0056],
    [9737,1525547902,57.3485,-111.7915,473.4,174.4,336.6,1.0,2.3,16.39,34.58,712.3356,140.0018],
    [9738,1525547903,57.349,-111.7919,474.5,175.5,332.0,0.6,3.0,16.92,33.99,712.1153,139.9948],
    [9739,1525547904,57.3495,-111.7924,474.7,175.4,326.8,2.0,3.5,16.44,34.41,711.7749,139.9971],
    [9740,1525547905,57.35,-111.7929,474.5,174.5,322.5,2.5,3.4,16.56,34.39,711.6942,139.9998],
    [9741,1525547906,57.3504,-111.7935,475.2,174.2,319.8,1.7,2.9,16.75,34.21,711.8375,140.0031],
    [9742,1525547907,57.3508,-111.7942,477.6,176.6,315.2,2.1,2.9,16.51,34.4,711.8021,139.9899],
    [9743,1525547908,57.3512,-111.7948,480.8,178.7,312.3,2.2,2.3,16.55,34.71,711.8292,139.996],
    [9744,1525547909,57.3516,-111.7955,483.7,181.7,309.8,1.9,1.7,16.34,34.35,712.0205,139.9989],
    [9745,1525547910,57.3519,-111.7962,484.9,181.9,308.1,1.2,1.7,16.83,34.51,712.3232,140.0027],
    [9746,1525547911,57.3522,-111.797,484.5,180.8,305.6,0.4,2.3,15.88,34.42,712.4368,140.0066],
    [9747,1525547912,57.3526,-111.7978,484.5,180.4,301.7,0.7,2.5,16.44,34.31,712.6834,139.9983],
    [9748,1525547913,57.3528,-111.7986,483.9,179.9,297.4,2.0,3.1,16.07,34.54,712.7363,139.9996],
    [9749,1525547914,57.3531,-111.7994,482.0,178.0,294.8,2.0,2.6,16.76,34.3,712.9922,139.9932],
    [9750,1525547915,57.3533,-111.8003,479.1,173.4,292.6,1.7,2.0,16.62,34.17,713.2331,140.0033],
    [9751,1525547916,57.3535,-111.8012,476.5,170.5,289.0,1.8,2.6,16.4,34.5,713.3934,140.0064],
    [9752,1525547917,57.3537,-111.802,474.9,167.9,287.5,1.5,2.3,16.39,34.47,713.4274,140.0081],
    [9753,1525547918,57.3539,-111.803,472.6,165.0,285.7,1.7,2.7,16.09,34.61,713.3326,139.9969],
    [9754,1525547919,57.3541,-111.8039,470.2,160.5,284.8,2.3,2.4,16.74,33.73,713.4989,140.0007],
    [9755,1525547920,57.3542,-111.8049,467.6,158.2,285.1,2.6,1.4,16.9,34.25,713.5514,140.0054],
    [9756,1525547921,57.3544,-111.8058,465.9,155.5,285.1,1.9,1.0,16.44,34.34,713.6083,139.9988],
    [9757,1525547922,57.3545,-111.8067,465.1,156.0,284.6,1.6,1.4,16.38,34.92,713.6134,140.0002],
    [9758,1525547923,57.3547,-111.8077,465.4,157.4,283.6,1.6,2.0,16.38,34.29,713.5968,140.0065],
    [9759,1525547924,57.3548,-111.8087,464.6,156.6,282.7,1.7,2.7,16.19,34.06,713.5096,140.0015],
    [9760,1525547925,57.355,-111.8096,463.3,155.3,281.9,1.9,3.1,16.14,34.34,713.4249,140.007],
    [9761,1525547926,57.3551,-111.8104,462.8,153.1,281.9,1.9,2.9,16.71,34.04,713.3397,140.0023],
    [9762,1525547927,57.3552,-111.8114,462.2,152.6,282.6,2.5,2.3,16.39,35.1,713.2685,140.0008],
    [9763,1525547928,57.3554,-111.8124,462.3,151.3,282.6,2.6,2.3,16.32,34.56,713.251,140.0094],
    [9764,1525547929,57.3555,-111.8133,463.4,151.4,283.2,1.2,1.7,16.13,34.58,713.2699,139.9892],
    [9765,1525547930,57.3556,-111.8143,464.7,149.7,283.0,0.5,1.6,16.9,33.96,713.2799,140.0019],
    [9766,1525547931,57.3558,-111.8153,466.1,150.0,282.0,0.4,2.2,15.92,34.63,713.2864,140.0039],
    [9767,1525547932,57.3559,-111.8162,466.2,149.3,281.3,1.2,2.8,17.02,34.32,713.3246,140.0007],
    [9768,1525547933,57.356,-111.8171,466.2,148.5,280.1,1.8,3.6,16.45,34.68,713.0908,140.0092],
    [9769,1525547934,57.3561,-111.818,466.5,148.5,280.9,2.3,2.6,17.1,34.39,712.7431,139.9918],
    [9770,1525547935,57.3563,-111.8191,466.1,149.1,280.4,2.8,2.8,16.16,34.8,712.6039,140.0039],
    [9771,1525547936,57.3564,-111.82,465.9,148.7,280.5,2.6,2.5,16.2,34.97,712.186,140.0005],
    [9772,1525547937,57.3565,-111.8209,466.2,150.0,281.5,2.4,1.0,16.77,33.82,712.376,140.0118],
    [9773,1525547938,57.3566,-111.8218,468.0,151.8,281.5,2.6,0.2,16.45,34.55,712.3606,140.0027],
    [9774,1525547939,57.3567,-111.8228,470.1,153.4,281.1,2.8,-0.4,16.17,33.69,712.09,140.0006],
    [9775,1525547940,57.3568,-111.8237,472.4,156.5,279.9,2.4,-0.5,16.38,33.63,711.9342,139.9975],
    [9776,1525547941,57.3569,-111.8247,476.0,160.1,273.5,2.4,3.8,16.33,33.67,711.8273,140.007],
    [9777,1525547942,57.357,-111.8256,477.2,159.9,271.5,2.3,4.5,16.91,33.13,711.6806,140.001],
    [9778,1525547943,57.357,-111.8266,477.7,159.4,272.5,1.6,2.6,16.16,33.3,711.6088,140.002],
    [9779,1525547944,57.3571,-111.8274,479.2,159.1,271.2,1.5,3.6,15.99,33.53,711.4488,139.9982],
    [9780,1525547945,57.3571,-111.8284,481.4,161.4,268.6,2.1,5.3,16.8,32.63,711.3125,139.9982],
    [9781,1525547946,57.3571,-111.8293,483.3,162.6,268.2,2.1,5.2,16.36,33.18,711.2666,140.0043],
    [9782,1525547947,57.3572,-111.8301,484.6,164.7,268.6,2.1,4.7,16.5,33.01,711.3519,139.9934],
    [9783,1525547948,57.3572,-111.8311,485.7,165.7,268.2,2.8,4.9,16.41,33.04,711.342,139.9967],
    [9784,1525547949,57.3572,-111.832,487.0,167.0,268.5,3.5,4.4,15.96,33.06,711.5127,140.0067],
    [9785,1525547950,57.3572,-111.833,488.6,168.6,268.5,3.9,3.2,16.27,33.09,711.4838,139.9993],
    [9786,1525547951,57.3572,-111.834,489.3,169.3,268.9,3.8,1.3,16.44,32.89,711.5119,140.0009],
    [9787,1525547952,57.3572,-111.8349,488.5,168.5,267.4,4.6,1.9,16.42,32.72,711.5237,140.0087],
    [9788,1525547953,57.3572,-111.8358,488.2,167.2,265.0,4.7,3.6,16.51,33.04,711.499,139.9982],
    [9789,1525547954,57.3572,-111.8368,487.7,166.7,266.6,2.8,1.6,16.44,32.89,711.3287,140.0036],
    [9790,1525547955,57.3572,-111.8377,487.7,166.8,268.5,1.8,0.3,16.56,32.77,711.3453,140.001],
    [9791,1525547956,57.3572,-111.8386,487.4,166.1,268.4,3.1,0.4,17.17,31.56,711.2305,139.992],
    [9792,1525547957,57.3572,-111.8396,487.2,165.2,268.0,2.9,0.4,16.39,32.22,711.105,140.0061],
    [9793,1525547958,57.3572,-111.8405,487.4,165.4,267.1,2.6,0.7,16.29,32.01,711.0179,139.9993],
    [9794,1525547959,57.3571,-111.8415,488.3,165.3,265.8,2.6,1.5,16.49,31.75,710.8475,140.0024],
    [9795,1525547960,57.3571,-111.8424,489.2,165.9,264.7,2.7,1.4,16.37,31.52,710.9327,140.0001],
    [9796,1525547961,57.3571,-111.8433,490.3,166.3,264.7,3.3,0.0,16.64,31.35,710.6991,139.9885],
    [9797,1525547962,57.357,-111.8442,491.6,166.6,262.8,3.2,0.1,16.37,31.38,710.9955,140.0034],
    [9798,1525547963,57.3569,-111.8451,492.9,167.9,260.0,2.6,0.2,16.42,31.14,710.9219,139.9996],
    [9799,1525547964,57.3568,-111.846,493.8,168.6,255.9,2.5,1.7,17.26,30.63,710.712,139.993],
    [9800,1525547965,57.3567,-111.8469,493.9,168.0,253.9,3.4,1.2,16.99,30.83,710.6578,139.9926],
    [9801,1525547966,57.3565,-111.8478,494.6,166.9,252.3,4.2,0.7,16.43,31.35,710.6147,139.9975],
    [9802,1525547967,57.3564,-111.8487,493.8,164.8,250.7,4.3,-0.2,16.46,31.2,710.577,139.9989],
    [9803,1525547968,57.3562,-111.8496,494.1,164.1,247.0,3.0,-0.1,16.39,31.19,710.5343,139.9905],
    [9804,1525547969,57.356,-111.8504,495.3,164.2,242.0,3.2,1.7,16.32,31.17,710.5733,139.9947],
    [9805,1525547970,57.3557,-111.8512,496.7,165.0,238.8,4.7,2.1,16.59,31.93,710.7399,139.999],
    [9806,1525547971,57.3554,-111.8519,497.7,165.7,236.2,4.6,1.1,16.58,31.26,710.8301,139.9971],
    [9807,1525547972,57.3552,-111.8526,497.8,165.9,233.9,5.1,0.2,16.99,30.63,710.8474,140.0029],
    [9808,1525547973,57.3548,-111.8534,498.0,165.1,231.3,6.1,-0.2,17.14,30.8,710.8467,140.0019],
    [9809,1525547974,57.3545,-111.8541,497.6,164.6,229.0,6.3,0.0,16.68,30.96,710.7894,139.9979],
    [9810,1525547975,57.3541,-111.8547,496.3,162.3,227.5,7.6,-0.5,16.26,30.74,710.8471,140.0019],
    [9811,1525547976,57.3537,-111.8553,495.1,161.1,227.0,9.4,-1.1,16.67,31.34,710.8403,140.0024],
    [9812,1525547977,57.3533,-111.8559,494.4,160.4,224.0,8.7,-0.1,16.04,30.39,710.8842,140.0064],
    [9813,1525547978,57.3529,-111.8565,494.2,159.9,219.5,7.3,1.2,16.59,30.69,710.8804,139.9984],
    [9814,1525547979,57.3525,-111.857,494.7,160.4,218.0,8.0,0.2,17.35,29.59,710.8664,139.9927],
    [9815,1525547980,57.352,-111.8575,494.9,160.9,217.0,8.7,-1.1,17.24,29.51,710.9485,139.9985],
    [9816,1525547981,57.3515,-111.8579,494.8,161.5,214.5,8.4,-1.5,16.44,29.8,711.0146,139.9989],
    [9817,1525547982,57.3511,-111.8583,494.7,162.0,212.3,7.5,-1.9,16.78,29.76,710.9307,139.9893],
    [9818,1525547983,57.3506,-111.8587,494.3,162.0,208.7,6.1,-1.3,16.71,29.38,710.8961,140.0027],
    [9819,1525547984,57.3501,-111.8591,494.1,162.3,207.3,7.1,-1.6,17.4,29.04,711.0062,139.9984],
    [9820,1525547985,57.3496,-111.8594,493.4,162.4,205.1,7.2,-1.3,17.12,29.36,711.07,139.9969],
    [9821,1525547986,57.3491,-111.8597,493.0,161.0,202.6,7.9,-1.3,16.38,29.46,711.1175,140.0045],
    [9822,1525547987,57.3485,-111.86,493.4,161.1,201.5,8.6,-1.5,16.42,29.75,711.1464,140.0002],
    [9823,1525547988,57.348,-111.8602,493.9,159.9,199.7,8.0,-1.4,16.64,29.26,711.1474,140.0058],
    [9824,1525547989,57.3475,-111.8604,493.6,159.6,198.8,7.9,-1.9,16.76,29.13,711.0749,139.994],
    [9825,1525547990,57.347,-111.8606,492.7,157.7,199.0,8.4,-2.1,16.93,28.9,710.9328,140.0016],
    [9826,1525547991,57.3464,-111.8608,491.7,156.6,198.4,8.3,-1.9,16.29,28.87,710.9208,139.9911],
    [9827,1525547992,57.3459,-111.8609,491.3,155.3,198.2,8.4,-1.9,17.01,28.89,711.2195,140.0044],
    [9828,1525547993,57.3453,-111.8611,491.4,155.4,197.5,8.0,-2.3,16.69,28.55,711.2994,140.0047],
    [9829,1525547994,57.3448,-111.8613,492.3,156.3,197.4,8.2,-2.8,16.5,28.43,711.405,139.9998],
    [9830,1525547995,57.3442,-111.8615,493.6,158.7,196.3,7.5,-2.5,17.24,28.14,711.6529,140.0],
    [9831,1525547996,57.3437,-111.8616,493.8,159.8,195.2,6.9,-2.0,17.0,28.13,711.6499,140.0001],
    [9832,1525547997,57.3432,-111.8617,492.1,158.8,194.7,6.7,-2.1,16.9,28.29,711.6478,140.0016],
    [9833,1525547998,57.3426,-111.8619,489.9,157.2,193.5,5.7,-2.7,16.95,28.32,711.5135,139.996],
    [9834,1525547999,57.342,-111.862,488.2,157.2,192.5,5.3,-2.6,16.88,28.91,711.4356,140.0022],
    [9835,1525548000,57.3415,-111.8622,486.3,156.0,193.8,6.3,-2.8,16.51,28.35,711.3653,139.9918],
    [9836,1525548001,57.3409,-111.8623,485.1,155.4,194.1,6.4,-2.6,17.05,28.31,711.415,140.0031],
    [9837,1525548002,57.3404,-111.8624,485.3,156.3,194.9,7.0,-3.0,16.81,28.24,711.3064,140.0017],
    [9838,1525548003,57.3398,-111.8626,486.3,157.3,195.4,7.1,-3.4,16.87,28.29,711.1772,139.9975],
    [9839,1525548004,57.3393,-111.8627,487.4,158.4,195.0,6.6,-2.6,16.88,28.6,711.0262,139.9984],
    [9840,1525548005,57.3387,-111.8629,488.0,158.0,195.6,6.9,-2.7,16.98,28.76,710.899,140.0012],
    [9841,1525548006,57.3382,-111.863,488.2,158.2,196.6,7.8,-2.6,16.9,28.81,710.8851,139.9955],
    [9842,1525548007,57.3376,-111.8632,488.7,157.7,195.1,6.4,-1.5,16.56,28.22,710.9006,139.9939],
    [9843,1525548008,57.3371,-111.8633,490.2,158.2,193.9,6.0,-0.9,16.7,28.18,711.0267,139.9978],
    [9844,1525548009,57.3366,-111.8635,492.2,160.2,194.4,7.0,-1.2,17.08,28.22,711.1014,140.0009],
    [9845,1525548010,57.336,-111.8636,493.6,161.6,193.7,6.7,-1.3,17.04,28.2,711.1372,139.9922],
    [9846,1525548011,57.3355,-111.8637,494.4,161.4,193.3,7.0,-1.2,17.12,27.67,711.1923,140.0012],
    [9847,1525548012,57.3349,-111.8639,494.4,161.4,192.9,7.2,-0.8,17.08,27.98,711.3562,139.996],
    [9848,1525548013,57.3344,-111.864,493.9,160.9,191.8,7.2,-0.7,17.2,28.2,711.6395,140.0],
    [9849,1525548014,57.3338,-111.864,492.5,159.5,191.8,8.0,-0.9,16.85,28.45,711.8779,140.0054],
    [9850,1525548015,57.3332,-111.8641,491.3,158.3,189.6,6.9,-0.3,17.29,28.21,712.0836,140.0029],
    [9851,1525548016,57.3327,-111.8642,490.5,157.5,188.3,6.5,0.5,17.24,28.36,712.2151,139.9937],
    [9852,1525548017,57.3321,-111.8642,488.6,155.6,187.5,6.5,0.7,17.36,28.23,712.3322,140.0013],
    [9853,1525548018,57.3316,-111.8642,486.0,153.0,187.1,6.8,0.4,17.79,28.33,712.4353,139.9988],
    [9854,1525548019,57.331,-111.8642,482.9,150.2,186.3,6.4,0.3,16.98,28.2,712.5872,140.0067],
    [9855,1525548020,57.3304,-111.8643,480.7,147.7,186.4,6.5,-0.6,17.05,28.51,712.6733,140.0037],
    [9856,1525548021,57.3299,-111.8643,478.6,145.6,187.6,7.3,-1.1,16.75,28.39,712.4566,139.9932],
    [9857,1525548022,57.3293,-111.8643,476.9,143.9,187.7,6.9,-0.9,17.08,28.19,712.3609,139.994],
    [9858,1525548023,57.3287,-111.8643,475.5,142.5,188.6,7.9,-1.6,17.27,28.07,712.0933,139.9957],
    [9859,1525548024,57.3282,-111.8643,474.1,141.1,189.5,8.7,-2.3,16.87,28.2,712.0708,139.9916],
    [9860,1525548025,57.3276,-111.8644,473.2,140.2,189.1,7.9,-1.6,16.95,28.19,712.0374,140.0059],
    [9861,1525548026,57.327,-111.8644,474.2,140.5,188.4,6.7,-0.8,16.97,28.37,712.0429,140.0001],
    [9862,1525548027,57.3265,-111.8645,476.7,142.7,188.8,6.3,-0.1,17.08,28.41,712.0431,139.996],
    [9863,1525548028,57.3259,-111.8645,478.7,144.7,190.3,7.2,0.4,16.87,28.59,711.9693,139.9967],
    [9864,1525548029,57.3253,-111.8646,479.5,145.5,193.0,8.8,-0.3,17.08,28.54,711.7402,139.9998],
    [9865,1525548030,57.3248,-111.8647,480.0,146.0,193.9,8.5,-1.0,17.47,28.1,711.7117,139.9982],
    [9866,1525548031,57.3242,-111.8648,480.0,145.9,193.9,8.3,-0.7,17.2,27.96,711.6032,139.9995],
    [9867,1525548032,57.3237,-111.8649,479.9,146.9,194.6,10.1,0.0,16.94,27.62,711.5784,140.0026],
    [9868,1525548033,57.3232,-111.865,480.8,148.9,194.6,10.8,-1.2,17.15,28.21,711.5424,139.9998],
    [9869,1525548034,57.3226,-111.8651,483.2,152.2,190.7,8.2,-2.0,17.15,27.93,711.2297,139.9965],
    [9870,1525548035,57.322,-111.8651,484.8,154.1,188.7,7.6,-2.3,17.15,27.87,711.0555,139.9936],
    [9871,1525548036,57.3215,-111.8651,485.4,154.5,187.4,7.6,-2.0,16.82,27.82,711.0122,139.9905],
    [9872,1525548037,57.3209,-111.8651,485.6,153.3,185.1,7.1,-0.8,17.48,27.33,711.2038,139.9961],
    [9873,1525548038,57.3204,-111.8651,486.1,152.4,185.2,8.8,-1.0,17.28,27.94,711.2515,140.0014],
    [9874,1525548039,57.3198,-111.865,487.9,153.9,183.2,7.9,-0.7,17.05,27.95,711.3679,140.0042],
    [9875,1525548040,57.3193,-111.8649,490.6,156.6,182.1,7.9,-0.1,17.16,28.06,711.3502,139.9967],
    [9876,1525548041,57.3187,-111.8648,491.8,157.8,183.3,8.9,0.1,17.42,28.02,711.5577,140.0058],
    [9877,1525548042,57.3182,-111.8647,490.9,157.7,184.0,8.8,0.5,17.17,28.12,711.6021,140.0021],
    [9878,1525548043,57.3176,-111.8647,489.6,156.6,185.5,8.8,0.4,17.31,27.85,711.7305,140.0004],
    [9879,1525548044,57.3172,-111.8646,488.8,155.8,187.0,8.9,-0.3,17.14,28.0,711.8408,139.9967],
    [9880,1525548045,57.3165,-111.8646,488.4,154.4,188.8,9.3,-0.9,17.62,27.74,711.966,140.0083],
    [9881,1525548046,57.316,-111.8646,487.4,153.4,189.8,9.6,-1.1,17.24,28.18,712.0847,140.0004],
    [9882,1525548047,57.3154,-111.8647,486.0,152.0,189.1,8.3,-1.3,17.18,28.26,712.1096,139.9988],
    [9883,1525548048,57.3149,-111.8647,485.0,151.0,189.0,8.1,-2.0,17.32,28.16,712.1017,140.0021],
    [9884,1525548049,57.3144,-111.8647,483.7,149.4,190.5,9.3,-2.6,16.63,28.29,712.2088,140.0016],
    [9885,1525548050,57.3138,-111.8647,481.8,146.8,189.7,8.4,-2.3,17.01,28.05,712.2449,140.0068],
    [9886,1525548051,57.3133,-111.8647,480.3,145.3,189.3,8.1,-2.3,17.22,28.79,712.2797,140.0008],
    [9887,1525548052,57.3127,-111.8648,479.9,144.9,189.7,8.2,-2.1,17.24,27.94,712.2435,139.9964],
    [9888,1525548053,57.3122,-111.8648,480.0,145.0,189.6,8.1,-2.0,17.22,28.57,712.1518,139.9981],
    [9889,1525548054,57.3116,-111.8648,479.5,144.5,190.8,9.0,-2.7,16.97,28.43,712.0953,140.0022],
    [9890,1525548055,57.311,-111.8649,478.7,143.7,190.6,8.9,-3.1,17.66,27.69,712.035,139.9973],
    [9891,1525548056,57.3105,-111.8649,478.4,143.4,189.9,8.5,-3.5,17.09,28.53,712.041,139.9945],
    [9892,1525548057,57.31,-111.8649,478.8,143.8,188.4,7.5,-3.6,17.07,28.0,712.0008,140.0009],
    [9893,1525548058,57.3094,-111.8649,479.5,144.6,186.6,6.5,-3.4,17.27,27.96,711.9824,140.0004],
    [9894,1525548059,57.3089,-111.8649,480.2,146.2,186.0,6.4,-3.6,17.06,28.38,711.9409,140.0021],
    [9895,1525548060,57.3083,-111.8649,480.7,146.7,186.1,6.8,-3.7,17.22,28.96,711.8025,139.9986],
    [9896,1525548061,57.3078,-111.8649,480.9,146.9,186.1,7.1,-2.7,16.85,28.24,711.7007,140.0141],
    [9897,1525548062,57.3072,-111.8649,480.9,146.9,185.5,6.4,-2.1,17.19,28.34,711.6365,140.01],
    [9898,1525548063,57.3066,-111.8649,481.5,147.5,184.5,5.6,-2.1,17.4,28.08,711.4231,140.0142],
    [9899,1525548064,57.3061,-111.8649,482.2,148.2,184.9,7.1,-1.4,17.36,27.81,710.9924,140.0015],
    [9900,1525548065,57.3055,-111.8648,482.9,149.9,183.7,7.8,-1.2,17.1,28.46,710.6139,139.9882],
    [9901,1525548066,57.305,-111.8647,483.9,150.9,178.0,6.1,-1.2,17.75,28.15,710.1901,139.9955],
    [9902,1525548067,57.3045,-111.8646,486.2,153.2,172.9,6.4,-1.6,17.35,28.21,709.875,139.9981],
    [9903,1525548068,57.3039,-111.8643,489.5,156.5,168.0,7.0,-1.8,17.09,28.51,709.5524,139.9882],
    [9904,1525548069,57.3034,-111.8639,493.2,161.2,160.7,6.6,-2.4,16.96,28.26,709.0173,140.0051],
    [9905,1525548070,57.303,-111.8635,497.4,165.4,154.5,6.3,-3.0,17.02,28.34,708.6125,139.9784],
    [9906,1525548071,57.3025,-111.8629,502.5,170.5,145.2,4.3,-3.0,17.24,28.98,708.1682,140.0027],
    [9907,1525548072,57.3021,-111.8623,507.0,176.0,138.9,3.7,-2.5,16.95,28.33,707.9973,139.9948],
    [9908,1525548073,57.3017,-111.8615,512.0,181.0,131.9,3.1,-2.1,17.78,27.7,707.9409,139.9995],
    [9909,1525548074,57.3014,-111.8608,517.1,186.1,124.6,1.5,-2.0,17.08,28.61,707.7226,139.9956],
    [9910,1525548075,57.3011,-111.86,522.0,191.0,119.1,2.3,-1.8,17.35,28.42,707.2362,139.9822],
    [9911,1525548076,57.3008,-111.859,526.2,195.2,113.2,3.1,-2.8,16.92,28.33,707.0559,139.9951],
    [9912,1525548077,57.3006,-111.8582,528.9,197.9,108.7,3.5,-2.3,17.18,28.6,706.767,139.9988],
    [9913,1525548078,57.3005,-111.8572,530.8,200.5,106.9,4.2,-0.4,17.06,28.73,706.6583,140.0007],
    [9914,1525548079,57.3003,-111.8563,533.2,203.2,101.9,3.4,-1.5,17.09,28.99,706.5705,139.9994],
    [9915,1525548080,57.3002,-111.8554,536.6,206.6,96.0,1.3,-3.5,16.76,28.66,706.6537,140.0007],
    [9916,1525548081,57.3002,-111.8544,539.4,210.4,96.2,1.1,-0.8,17.19,29.08,706.6818,139.9931],
    [9917,1525548082,57.3001,-111.8535,541.6,212.6,94.1,1.7,-1.4,17.83,29.07,706.94,139.9965],
    [9918,1525548083,57.3001,-111.8525,544.2,216.2,88.5,1.6,-3.8,17.21,29.68,707.0414,139.9982],
    [9919,1525548084,57.3001,-111.8515,546.1,219.1,87.8,2.5,-1.4,17.06,29.54,707.083,140.0059],
    [9920,1525548085,57.3001,-111.8505,545.8,219.8,88.6,4.3,0.8,17.49,29.59,707.147,139.9938],
    [9921,1525548086,57.3001,-111.8495,544.9,218.9,83.5,4.2,-3.0,17.51,29.75,707.276,139.9958],
    [9922,1525548087,57.3002,-111.8485,542.8,217.8,79.8,2.8,-5.2,17.58,29.79,707.3249,139.9986],
    [9923,1525548088,57.3002,-111.8475,540.4,215.4,80.2,2.8,-3.9,16.92,30.25,707.1579,139.9992],
    [9924,1525548089,57.3003,-111.8466,539.3,215.3,79.9,3.0,-3.2,17.1,30.14,707.3215,139.9974],
    [9925,1525548090,57.3003,-111.8456,538.7,214.7,80.6,2.5,-1.6,16.94,30.11,707.3662,139.9973],
    [9926,1525548091,57.3004,-111.8445,537.2,214.2,81.9,2.0,-0.5,16.86,30.76,707.3641,140.0061],
    [9927,1525548092,57.3005,-111.8435,536.4,213.4,82.5,2.5,-0.9,16.52,31.12,707.3054,140.0014],
    [9928,1525548093,57.3005,-111.8424,537.2,215.2,82.8,3.2,-2.0,16.91,31.85,707.1004,139.9932],
    [9929,1525548094,57.3006,-111.8414,537.3,215.3,85.7,3.2,0.3,17.57,31.67,707.0631,139.9972],
    [9930,1525548095,57.3006,-111.8404,536.4,214.4,88.4,3.0,1.9,17.05,32.46,707.0295,139.9962],
    [9931,1525548096,57.3007,-111.8393,535.8,214.8,88.1,2.8,1.0,16.8,32.44,707.1478,139.9993],
    [9932,1525548097,57.3007,-111.8383,536.6,215.6,87.9,3.4,0.7,16.96,32.58,707.1746,139.9975],
    [9933,1525548098,57.3007,-111.8372,537.8,216.8,88.4,3.3,1.3,16.75,33.09,707.4651,139.9957],
    [9934,1525548099,57.3007,-111.8362,538.4,217.4,88.4,2.7,0.9,16.88,33.59,707.8281,139.9935],
    [9935,1525548100,57.3008,-111.8351,538.8,217.8,88.2,2.9,1.2,16.66,33.2,707.9953,139.9989],
    [9936,1525548101,57.3008,-111.8341,538.2,217.2,90.4,3.1,3.9,16.72,33.09,708.4092,140.0024],
    [9937,1525548102,57.3008,-111.833,537.2,216.2,89.9,3.5,3.5,16.16,33.31,708.5858,140.0054],
    [9938,1525548103,57.3009,-111.8319,534.2,214.2,87.9,3.6,1.9,16.69,33.44,708.7559,140.0005],
    [9939,1525548104,57.3009,-111.8309,530.2,210.2,87.7,2.6,1.4,16.44,33.25,708.7184,139.999],
    [9940,1525548105,57.3009,-111.8298,526.6,206.6,87.7,2.0,1.1,16.75,33.03,708.8462,140.0047],
    [9941,1525548106,57.301,-111.8287,523.5,203.5,89.5,2.5,2.9,16.47,33.5,708.8895,140.0058],
    [9942,1525548107,57.301,-111.8276,520.5,200.5,90.6,3.2,3.7,16.71,33.48,708.9838,140.001],
    [9943,1525548108,57.301,-111.8266,518.7,198.7,90.8,2.9,3.7,16.46,33.17,709.1244,140.0033],
    [9944,1525548109,57.301,-111.8254,517.9,197.9,91.0,3.1,3.7,16.73,33.04,709.1274,140.0008],
    [9945,1525548110,57.3011,-111.8244,517.6,197.6,90.1,3.8,2.3,16.46,32.78,709.1626,139.9978],
    [9946,1525548111,57.3011,-111.8233,516.9,196.9,87.9,4.6,0.3,17.08,32.32,709.1198,140.003],
    [9947,1525548112,57.3011,-111.8222,515.9,195.9,89.1,4.8,2.0,16.65,32.9,709.0337,140.0021],
    [9948,1525548113,57.3011,-111.821,514.4,195.4,90.9,5.0,3.2,16.56,32.92,708.7869,140.0012],
    [9949,1525548114,57.3011,-111.82,513.8,195.5,90.7,4.8,3.0,17.47,32.51,708.3628,140.0015],
    [9950,1525548115,57.3012,-111.8188,513.7,195.7,92.6,3.9,4.7,16.61,32.83,708.1182,139.9889],
    [9951,1525548116,57.3012,-111.8177,513.7,196.7,93.3,3.5,4.5,16.22,32.68,708.1159,139.9995],
    [9952,1525548117,57.3012,-111.8166,514.7,198.7,93.6,3.1,4.1,17.15,32.05,708.1149,140.0088],
    [9953,1525548118,57.3012,-111.8156,517.3,201.3,94.0,3.1,3.9,16.63,32.67,708.1474,140.0012],
    [9954,1525548119,57.3012,-111.8146,521.2,206.2,92.4,3.8,2.3,16.77,32.35,708.2009,140.0019],
    [9955,1525548120,57.3012,-111.8135,524.2,210.2,91.6,3.8,1.7,16.68,32.56,708.3398,140.0025],
    [9956,1525548121,57.3012,-111.8124,525.9,211.9,91.8,3.8,2.1,16.62,32.68,708.395,139.9839],
    [9957,1525548122,57.3012,-111.8112,526.2,212.2,92.1,4.7,2.3,16.65,32.49,708.5451,139.9975],
    [9958,1525548123,57.3012,-111.8101,526.0,211.0,92.3,5.4,3.4,17.09,32.21,708.7004,139.9967],
    [9959,1525548124,57.3012,-111.809,525.5,210.5,91.3,5.3,4.6,17.0,32.61,708.8238,139.9968],
    [9960,1525548125,57.3012,-111.808,524.3,208.3,89.0,4.9,4.7,16.7,32.35,709.0361,139.9988],
    [9961,1525548126,57.3013,-111.8069,523.1,207.1,84.3,4.4,3.9,17.08,32.17,709.1711,139.9942],
    [9962,1525548127,57.3014,-111.8059,522.1,206.1,81.8,4.3,4.5,16.67,32.89,709.4405,139.9989],
    [9963,1525548128,57.3015,-111.8048,519.7,204.2,79.0,4.3,5.5,16.42,32.28,709.5968,140.0017],
    [9964,1525548129,57.3017,-111.8036,517.3,202.3,74.2,3.8,4.7,16.84,31.99,709.8521,140.0009],
    [9965,1525548130,57.3019,-111.8026,515.1,200.1,68.6,4.6,3.4,16.74,31.99,710.0101,139.9991],
    [9966,1525548131,57.3022,-111.8016,513.3,199.3,63.8,5.3,3.4,16.44,32.02,709.9966,139.9988],
    [9967,1525548132,57.3025,-111.8006,511.2,197.2,59.7,5.5,3.7,16.55,32.05,709.9377,139.9935],
    [9968,1525548133,57.3028,-111.7996,508.6,194.6,54.1,6.9,2.4,16.95,31.95,710.0362,140.0045],
    [9969,1525548134,57.3032,-111.7987,505.8,191.8,48.2,7.6,1.6,16.5,32.18,709.9295,140.0066],
    [9970,1525548135,57.3036,-111.7978,503.5,190.5,45.5,5.7,2.4,16.69,32.06,709.9475,139.996],
    [9971,1525548136,57.304,-111.797,502.4,189.4,42.2,5.3,2.4,16.41,31.98,709.6686,139.9877],
    [9972,1525548137,57.3045,-111.7963,502.9,189.9,39.7,4.8,2.8,16.44,32.07,709.6829,140.0065],
    [9973,1525548138,57.3049,-111.7956,502.8,189.8,37.7,5.0,2.7,17.09,31.83,709.6379,139.9965],
    [9974,1525548139,57.3054,-111.7949,502.3,190.3,31.1,8.0,1.5,16.35,31.98,709.5707,139.9989],
    [9975,1525548140,57.306,-111.7942,503.0,190.9,29.0,5.2,3.2,16.41,32.08,709.402,140.0098],
    [9976,1525548141,57.3065,-111.7936,505.4,194.6,28.8,2.6,5.0,17.25,31.48,709.1181,139.9969],
    [9977,1525548142,57.3071,-111.793,506.6,196.6,23.0,5.6,2.6,17.23,31.39,708.776,139.9969],
    [9978,1525548143,57.3076,-111.7926,506.4,197.5,17.7,6.0,0.8,16.67,32.39,708.5735,140.0018],
    [9979,1525548144,57.3081,-111.7922,507.1,197.8,16.4,3.6,1.0,16.25,31.93,708.2891,139.9951],
    [9980,1525548145,57.3088,-111.7919,509.2,199.2,13.2,3.4,1.8,16.58,32.24,708.2446,139.9992],
    [9981,1525548146,57.3094,-111.7916,512.4,201.6,9.4,4.3,1.5,16.49,31.79,708.1627,139.9959],
    [9982,1525548147,57.31,-111.7914,516.4,205.4,8.1,3.7,1.3,17.11,31.66,708.1944,139.9944],
    [9983,1525548148,57.3105,-111.7912,519.5,207.5,8.5,1.6,2.2,16.49,32.87,708.2225,139.9981],
    [9984,1525548149,57.3111,-111.791,522.1,210.5,6.4,1.8,1.8,16.52,32.57,708.2425,139.9972],
    [9985,1525548150,57.3117,-111.7909,523.8,212.1,362.4,3.9,0.9,16.99,32.42,708.1831,140.0006],
    [9986,1525548151,57.3123,-111.7908,524.5,213.5,361.0,4.7,0.9,16.6,32.67,708.1233,139.9953],
    [9987,1525548152,57.3129,-111.7907,524.5,213.5,358.2,7.3,-0.5,17.06,32.38,708.2905,140.0025],
    [9988,1525548153,57.3135,-111.7906,524.1,213.1,360.2,5.0,-0.4,16.52,32.73,708.3517,140.0005],
    [9989,1525548154,57.3141,-111.7905,523.7,212.7,361.7,3.8,-0.7,16.55,32.79,708.3909,139.9977],
    [9990,1525548155,57.3147,-111.7904,524.3,213.3,360.3,4.7,-2.0,17.17,32.55,708.442,140.0008],
    [9991,1525548156,57.3153,-111.7903,524.4,213.4,359.9,4.2,-1.9,16.84,33.19,708.5849,140.0082],
    [9992,1525548157,57.3159,-111.7903,523.9,212.9,358.3,5.0,-0.3,16.85,32.77,708.9641,139.9874],
    [9993,1525548158,57.3165,-111.7903,522.3,211.3,355.4,6.1,-0.1,16.48,33.55,709.263,140.0011],
    [9994,1525548159,57.3171,-111.7903,521.7,210.7,353.9,4.4,-0.5,16.38,33.09,709.6917,140.0053],
    [9995,1525548160,57.3176,-111.7903,521.6,210.6,354.0,2.8,0.2,17.15,32.55,710.0355,139.9995],
    [9996,1525548161,57.3182,-111.7904,520.2,209.2,351.3,4.7,0.9,17.22,32.73,710.2065,139.9971],
    [9997,1525548162,57.3188,-111.7905,517.0,206.0,352.4,3.0,1.0,16.53,33.25,710.2519,140.0009],
    [9998,1525548163,57.3194,-111.7906,512.5,201.5,354.5,1.4,0.9,16.62,33.71,710.2756,140.0003],
    [9999,1525548164,57.32,-111.7907,507.6,196.6,354.5,2.7,1.4,16.76,33.57,710.4715,140.0071],
    [10000,1525548165,57.3206,-111.7907,504.1,193.1,355.3,2.8,1.7,16.6,33.95,710.5696,139.9983],
    [10001,1525548166,57.3212,-111.7907,501.6,190.6,357.5,1.7,1.6,16.57,34.09,710.7156,140.0048],
    [10002,1525548167,57.3219,-111.7907,500.0,189.0,359.1,1.5,1.6,16.94,33.21,710.7128,140.0023],
    [10003,1525548168,57.3225,-111.7907,499.5,188.5,360.1,1.3,2.3,16.47,33.56,710.7143,140.0079],
    [10004,1525548169,57.3231,-111.7907,498.9,188.0,360.0,1.5,2.8,16.41,33.92,710.4126,140.0004],
    [10005,1525548170,57.3237,-111.7907,497.1,187.1,359.7,1.5,3.3,16.37,33.58,709.9618,140.0022],
    [10006,1525548171,57.3243,-111.7907,495.7,185.7,358.2,2.8,3.1,16.67,34.21,709.6556,139.9972],
    [10007,1525548172,57.3249,-111.7907,494.7,184.7,356.4,4.3,2.3,16.47,33.66,709.3452,140.0026],
    [10008,1525548173,57.3255,-111.7907,494.8,184.8,356.3,4.0,1.4,16.58,33.77,709.1884,139.9967],
    [10009,1525548174,57.3261,-111.7907,497.0,187.0,356.8,3.1,1.3,16.58,33.17,708.9464,140.0061],
    [10010,1525548175,57.3267,-111.7907,501.5,191.5,355.8,3.5,1.6,16.48,33.34,708.7629,139.9954],
    [10011,1525548176,57.3273,-111.7907,506.2,196.2,356.0,2.6,2.1,16.91,33.05,708.76,139.9952],
    [10012,1525548177,57.3279,-111.7907,510.4,200.4,355.4,2.4,2.1,17.07,33.17,708.7554,139.9945],
    [10013,1525548178,57.3285,-111.7908,513.4,203.4,355.0,2.4,2.2,16.58,33.41,708.9038,140.0045],
    [10014,1525548179,57.329,-111.7908,515.9,205.9,354.3,3.3,2.4,16.23,33.51,708.9514,140.005],
    [10015,1525548180,57.3296,-111.7909,517.6,207.6,354.7,3.0,2.0,16.23,33.61,708.9827,140.0049],
    [10016,1525548181,57.3302,-111.7909,518.7,208.7,355.3,2.5,1.8,16.56,34.25,708.8534,140.0022],
    [10017,1525548182,57.3306,-111.791,518.9,208.9,355.2,2.4,1.7,16.68,33.43,708.8231,139.9959],
    [10018,1525548183,57.3313,-111.791,517.5,208.5,355.5,2.2,1.5,16.03,33.82,708.8101,139.9938],
    [10019,1525548184,57.3319,-111.7911,516.6,209.2,355.6,2.4,2.1,16.44,34.22,708.713,140.0082],
    [10020,1525548185,57.3325,-111.7911,516.5,211.9,356.1,2.0,2.6,16.44,33.55,708.6313,140.0],
    [10021,1525548186,57.3331,-111.7911,517.3,212.2,355.2,2.9,2.6,16.49,33.79,708.4934,139.9958],
    [10022,1525548187,57.3336,-111.7912,518.0,211.0,355.7,2.2,2.3,16.4,34.44,708.4338,140.0037],
    [10023,1525548188,57.3342,-111.7912,518.2,209.5,357.4,0.7,2.0,16.86,33.13,708.6146,139.9953],
    [10024,1525548189,57.3348,-111.7912,518.9,210.0,356.4,1.9,2.2,16.64,33.69,708.6369,139.9933],
    [10025,1525548190,57.3354,-111.7913,520.2,210.2,355.6,2.5,2.8,15.96,34.01,708.6518,140.002],
    [10026,1525548191,57.3359,-111.7913,521.4,212.5,356.8,1.4,3.0,16.74,33.94,708.6397,140.0],
    [10027,1525548192,57.3365,-111.7913,522.2,213.2,356.5,1.5,2.9,16.75,33.72,708.5812,140.0041],
    [10028,1525548193,57.3371,-111.7914,521.7,212.7,357.8,0.3,3.0,16.98,34.06,708.4072,139.9945],
    [10029,1525548194,57.3376,-111.7914,520.7,211.7,359.1,-0.6,2.9,16.16,34.8,708.2131,139.9895],
    [10030,1525548195,57.3382,-111.7914,520.3,212.1,358.7,0.0,2.5,16.7,34.03,708.1385,139.999],
    [10031,1525548196,57.3388,-111.7915,520.4,212.5,358.5,0.4,2.2,16.2,34.94,708.1612,139.9987],
    [10032,1525548197,57.3394,-111.7915,521.2,212.2,358.2,0.7,2.5,16.37,34.97,708.2356,139.9985],
    [10033,1525548198,57.3399,-111.7915,522.5,213.5,357.6,1.2,2.7,16.46,34.65,708.3732,140.0022],
    [10034,1525548199,57.3405,-111.7915,524.4,215.4,358.4,0.4,1.5,16.84,34.48,708.4332,140.0096],
    [10035,1525548200,57.3411,-111.7915,525.6,217.6,358.1,0.7,0.5,16.39,34.74,708.5939,139.9948],
    [10036,1525548201,57.3416,-111.7916,525.9,218.2,357.6,0.9,1.2,15.89,34.87,708.572,139.994],
    [10037,1525548202,57.3422,-111.7916,525.3,219.3,358.1,0.4,2.0,16.25,35.55,708.4956,139.9964],
    [10038,1525548203,57.3428,-111.7916,523.9,219.0,358.1,0.5,2.3,16.42,34.62,708.5129,140.0027],
    [10039,1525548204,57.3433,-111.7916,521.7,218.7,356.1,3.0,1.9,15.65,34.92,708.6075,140.0066],
    [10040,1525548205,57.3439,-111.7917,520.9,219.4,354.7,4.3,1.5,16.31,35.05,708.5972,139.9996],
    [10041,1525548206,57.3445,-111.7917,521.2,220.2,356.6,2.3,1.3,15.98,34.89,708.6341,139.9994],
    [10042,1525548207,57.345,-111.7917,521.6,221.5,358.1,0.4,1.7,16.64,34.63,708.535,140.0052],
    [10043,1525548208,57.3456,-111.7918,521.7,221.7,358.6,-1.2,1.9,16.68,34.2,708.5178,139.9991],
    [10044,1525548209,57.3462,-111.7918,521.2,221.2,354.5,0.8,2.2,16.24,34.88,708.4901,140.0018],
    [10045,1525548210,57.3468,-111.7919,521.2,220.2,348.6,2.8,2.5,16.07,35.14,708.3553,140.0026],
    [10046,1525548211,57.3473,-111.7921,521.4,220.4,346.4,1.7,2.2,16.29,34.61,708.2661,140.0044],
    [10047,1525548212,57.3478,-111.7923,521.9,220.9,343.0,1.4,2.5,16.29,34.98,708.07,140.0057],
    [10048,1525548213,57.3484,-111.7927,522.7,222.5,338.8,1.5,2.4,16.19,34.84,707.8893,140.0001],
    [10049,1525548214,57.3489,-111.7931,523.3,223.3,334.5,1.6,2.2,16.23,34.74,707.7784,139.9932],
    [10050,1525548215,57.3494,-111.7935,524.1,223.3,329.6,2.1,2.4,16.34,35.1,707.7282,139.9955],
    [10051,1525548216,57.3499,-111.794,525.3,224.3,326.1,1.8,2.5,16.78,34.26,707.7473,139.9948],
    [10052,1525548217,57.3503,-111.7945,527.1,225.1,322.8,1.6,2.6,15.97,35.0,707.7582,139.9949],
    [10053,1525548218,57.3508,-111.7951,529.4,227.4,319.5,1.8,3.0,16.15,34.8,707.7827,140.0004],
    [10054,1525548219,57.3512,-111.7957,531.0,227.9,318.1,1.5,2.8,16.09,35.18,707.9349,139.9976],
    [10055,1525548220,57.3516,-111.7964,531.8,227.9,316.9,1.6,2.0,16.89,34.91,707.9251,139.9965],
    [10056,1525548221,57.352,-111.797,531.7,227.7,315.2,1.9,1.5,15.88,35.22,708.1487,140.008],
    [10057,1525548222,57.3524,-111.7978,531.2,227.3,312.7,2.4,2.0,16.62,35.21,708.2279,140.0051],
    [10058,1525548223,57.3528,-111.7985,530.6,226.6,310.7,2.4,2.3,16.1,35.64,708.2317,139.9994],
    [10059,1525548224,57.3532,-111.7992,529.7,225.7,309.4,2.5,1.9,16.26,35.27,708.2232,140.0047],
    [10060,1525548225,57.3535,-111.8,529.0,225.1,309.5,1.4,0.8,15.9,35.51,708.1643,139.9984],
    [10061,1525548226,57.3539,-111.8007,527.7,223.8,307.6,1.2,1.4,16.61,35.13,708.0724,139.9985],
    [10062,1525548227,57.3542,-111.8015,525.9,221.4,303.1,1.5,2.9,16.59,35.06,708.0844,140.0025],
    [10063,1525548228,57.3545,-111.8024,525.4,219.3,298.5,2.3,3.9,16.17,35.82,708.1932,139.9998],
    [10064,1525548229,57.3548,-111.8032,525.8,219.0,296.3,2.3,3.2,16.15,35.44,708.2227,139.9965],
    [10065,1525548230,57.3551,-111.8041,526.5,220.1,294.5,1.5,2.4,15.75,35.63,708.3055,140.0038],
    [10066,1525548231,57.3553,-111.805,527.2,221.2,292.4,1.1,2.0,16.57,34.72,708.3296,139.999],
    [10067,1525548232,57.3555,-111.8058,527.6,221.6,289.7,1.3,2.3,15.82,35.38,708.4341,140.0007],
    [10068,1525548233,57.3557,-111.8068,526.5,220.5,286.2,1.3,3.5,16.86,35.17,708.7336,140.0001],
    [10069,1525548234,57.3559,-111.8078,525.4,218.4,284.0,1.1,3.4,16.37,35.06,708.7647,139.999],
    [10070,1525548235,57.356,-111.8087,524.7,215.0,281.9,0.9,3.3,16.29,35.81,708.7092,140.0026],
    [10071,1525548236,57.3562,-111.8097,524.0,211.0,279.1,0.9,4.0,16.2,35.19,708.5058,139.9897],
    [10072,1525548237,57.3563,-111.8106,522.6,208.6,277.4,1.2,4.0,15.84,35.23,708.4408,140.0],
    [10073,1525548238,57.3564,-111.8116,520.5,206.5,277.3,1.3,3.0,16.39,35.23,708.4268,139.9984],
    [10074,1525548239,57.3565,-111.8126,518.7,202.6,276.1,2.1,3.0,16.07,35.63,708.1724,140.002],
    [10075,1525548240,57.3565,-111.8137,518.6,201.6,274.2,3.4,3.7,16.69,35.07,707.9814,140.0012],
    [10076,1525548241,57.3566,-111.8147,520.2,202.9,274.8,4.5,2.0,16.09,35.86,707.8823,139.9983],
    [10077,1525548242,57.3567,-111.8156,521.5,203.5,275.2,4.7,1.1,16.16,34.94,707.8545,140.0087],
    [10078,1525548243,57.3567,-111.8166,522.5,204.3,273.4,5.2,1.9,15.82,34.44,707.8276,139.9968],
    [10079,1525548244,57.3568,-111.8175,524.2,205.2,270.9,5.2,3.5,16.09,34.01,707.8479,139.9935],
    [10080,1525548245,57.3568,-111.8186,526.7,207.7,269.2,5.1,3.9,15.82,33.41,707.8595,140.0072],
    [10081,1525548246,57.3568,-111.8196,528.5,209.9,269.0,4.8,3.4,16.08,32.53,707.8206,140.0099],
    [10082,1525548247,57.3568,-111.8206,529.2,211.6,266.5,4.1,4.2,15.96,32.26,707.7328,140.0038],
    [10083,1525548248,57.3568,-111.8215,529.3,212.4,265.9,4.7,3.1,16.5,31.62,707.5642,139.9991],
    [10084,1525548249,57.3568,-111.8225,529.4,212.7,267.5,6.0,1.4,15.84,31.85,707.3092,139.9917],
    [10085,1525548250,57.3568,-111.8235,529.5,213.6,267.9,5.0,1.4,16.71,31.7,707.0567,140.0022],
    [10086,1525548251,57.3568,-111.8244,529.9,213.9,267.6,3.8,2.0,16.19,31.64,706.8358,139.9905],
    [10087,1525548252,57.3568,-111.8252,530.9,214.5,267.6,4.2,2.7,16.38,31.96,706.7774,139.9908],
    [10088,1525548253,57.3568,-111.8263,533.3,215.6,268.2,6.1,2.1,16.18,31.36,706.8522,140.0076],
    [10089,1525548254,57.3568,-111.8273,535.1,216.1,270.0,7.0,0.3,16.1,31.56,706.8576,139.992],
    [10090,1525548255,57.3568,-111.8282,537.2,217.6,267.7,7.4,2.5,16.4,31.18,706.8935,140.0017],
    [10091,1525548256,57.3568,-111.8292,539.1,219.1,267.9,8.2,1.9,16.47,31.41,706.7574,139.9925],
    [10092,1525548257,57.3568,-111.8301,540.1,220.0,270.7,8.7,-0.6,16.03,30.66,706.8519,140.0126],
    [10093,1525548258,57.3568,-111.8311,540.4,220.7,269.0,8.5,1.6,16.36,30.27,706.8855,140.0009],
    [10094,1525548259,57.3568,-111.832,540.1,220.4,269.1,8.5,1.4,16.22,30.28,706.9738,140.0038],
    [10095,1525548260,57.3568,-111.8329,539.7,220.0,270.4,8.9,0.6,16.74,30.07,707.121,140.0089],
    [10096,1525548261,57.3568,-111.8338,540.0,220.3,270.8,9.8,0.4,16.67,30.03,707.2999,139.9953],
    [10097,1525548262,57.3568,-111.8348,539.9,219.9,271.0,9.6,-0.4,16.5,30.75,707.3882,140.0045],
    [10098,1525548263,57.3568,-111.8357,540.3,220.2,272.2,8.0,-2.9,16.7,29.93,707.4293,139.9917],
    [10099,1525548264,57.3568,-111.8366,539.8,218.8,273.5,8.0,-4.5,16.29,30.26,707.695,139.9951],
    [10100,1525548265,57.3568,-111.8376,538.3,217.3,271.2,8.3,-2.6,16.34,30.43,707.8979,139.9954],
    [10101,1525548266,57.3568,-111.8385,536.2,214.4,270.5,7.1,-1.8,16.5,30.13,708.1808,139.9966],
    [10102,1525548267,57.3568,-111.8395,535.0,213.0,268.4,5.8,0.5,15.9,30.56,708.2972,140.0016],
    [10103,1525548268,57.3568,-111.8404,533.8,211.5,268.3,5.0,-0.2,16.88,30.12,708.2522,140.0005],
    [10104,1525548269,57.3568,-111.8413,531.4,208.4,268.2,5.8,-0.5,16.55,30.46,708.1965,140.0029],
    [10105,1525548270,57.3567,-111.8423,529.3,205.2,266.5,7.6,0.6,16.44,30.52,708.2765,140.002],
    [10106,1525548271,57.3567,-111.8433,526.3,202.4,267.8,8.0,-0.8,16.49,30.34,708.1278,140.0029],
    [10107,1525548272,57.3567,-111.8443,524.3,199.3,268.6,7.7,-1.2,16.55,30.61,707.9641,140.005],
    [10108,1525548273,57.3567,-111.8453,524.3,199.3,268.3,7.4,-0.8,16.36,29.96,707.7545,140.0028],
    [10109,1525548274,57.3566,-111.8462,524.4,198.4,269.0,7.3,-1.4,16.83,29.12,707.5479,140.0084],
    [10110,1525548275,57.3566,-111.8472,524.2,197.2,269.3,7.1,-1.6,16.66,29.38,707.3809,140.0011],
    [10111,1525548276,57.3566,-111.8481,525.1,197.1,269.5,7.2,-2.3,16.53,29.35,706.9943,140.006],
    [10112,1525548277,57.3566,-111.849,526.8,198.0,269.8,7.1,-3.7,16.84,29.14,706.8011,140.0042],
    [10113,1525548278,57.3565,-111.85,529.7,199.7,266.7,6.8,-2.7,17.31,28.38,706.1902,139.9903],
    [10114,1525548279,57.3564,-111.8509,532.1,201.6,261.3,6.4,-0.9,16.59,28.96,706.1331,140.0026],
    [10115,1525548280,57.3563,-111.8519,535.5,205.2,257.2,6.2,-1.3,16.03,28.75,705.916,140.0042],
    [10116,1525548281,57.3562,-111.8528,539.3,209.3,252.7,6.4,-0.9,17.1,28.73,705.8658,140.0045],
    [10117,1525548282,57.356,-111.8536,543.2,212.9,246.4,6.9,0.3,16.55,28.6,705.8005,140.0069],
    [10118,1525548283,57.3557,-111.8544,547.3,216.7,240.9,7.5,1.0,16.45,28.35,705.5764,139.9934],
    [10119,1525548284,57.3555,-111.8551,550.4,218.4,235.6,7.0,1.7,16.89,28.14,705.4112,139.9991],
    [10120,1525548285,57.3552,-111.8558,552.4,220.1,230.6,6.1,2.3,16.85,28.17,705.3558,139.9998],
    [10121,1525548286,57.3548,-111.8565,553.8,220.8,226.5,6.5,2.2,16.48,28.43,705.3208,140.0009],
    [10122,1525548287,57.3544,-111.8571,554.6,221.3,223.5,7.5,1.6,16.65,28.58,705.2311,139.9981],
    [10123,1525548288,57.354,-111.8576,556.4,222.4,219.4,8.6,1.2,16.51,28.5,705.4535,139.9915],
    [10124,1525548289,57.3537,-111.8581,558.4,224.4,216.8,8.9,0.8,16.3,28.48,705.666,140.0028],
    [10125,1525548290,57.3532,-111.8585,559.8,225.1,213.8,8.9,0.5,16.56,28.6,705.9902,140.0026],
    [10126,1525548291,57.3527,-111.8589,560.3,225.3,211.0,8.8,0.8,16.53,28.91,706.1955,139.9987],
    [10127,1525548292,57.3522,-111.8593,560.2,225.2,207.6,7.7,1.0,17.16,28.63,706.5046,140.0009],
    [10128,1525548293,57.3518,-111.8596,559.0,224.0,207.0,8.7,0.4,16.71,29.02,706.9146,140.0046],
    [10129,1525548294,57.3513,-111.8599,556.6,222.6,206.8,9.9,0.0,16.66,28.79,707.2774,140.0009],
    [10130,1525548295,57.3508,-111.8602,553.2,219.9,203.5,8.8,0.1,16.58,28.73,707.4701,139.9963],
    [10131,1525548296,57.3503,-111.8604,549.8,216.8,201.5,9.2,-0.3,16.64,28.6,707.6302,139.9977],
    [10132,1525548297,57.3497,-111.8606,545.8,212.6,199.0,8.9,-0.4,16.63,28.72,708.0484,139.9987],
    [10133,1525548298,57.3493,-111.8608,542.4,210.4,196.1,7.9,0.3,17.33,28.05,708.1365,140.0095],
    [10134,1525548299,57.3487,-111.8609,538.1,205.1,195.5,8.2,-0.4,16.67,28.65,708.0725,140.0034],
    [10135,1525548300,57.3481,-111.8611,534.6,200.9,195.5,8.2,-0.8,16.57,28.72,707.7061,140.0025],
    [10136,1525548301,57.3476,-111.8612,531.3,197.0,195.3,7.7,-0.4,16.33,28.88,707.6781,139.9968],
    [10137,1525548302,57.347,-111.8614,528.1,193.1,197.2,8.2,-0.5,16.53,28.49,707.7796,139.9985],
    [10138,1525548303,57.3465,-111.8616,526.7,191.0,198.9,8.2,-0.8,16.26,28.39,707.8413,139.9987],
    [10139,1525548304,57.346,-111.8618,527.3,191.3,200.7,8.7,-0.9,16.72,27.89,707.8108,140.0026],
    [10140,1525548305,57.3454,-111.862,529.5,193.5,200.8,7.9,-0.8,17.32,27.91,707.7384,140.0067],
    [10141,1525548306,57.3449,-111.8622,531.0,195.0,200.3,7.2,-0.7,16.57,28.39,707.6863,140.0022],
    [10142,1525548307,57.3444,-111.8625,530.8,195.3,200.6,7.5,-0.9,17.02,27.67,707.4785,139.9969],
    [10143,1525548308,57.3438,-111.8627,530.2,195.2,201.0,7.8,-1.5,16.55,28.08,707.4492,139.9991],
    [10144,1525548309,57.3434,-111.8629,530.3,196.4,200.5,7.5,-1.8,16.67,28.07,707.4658,139.9982],
    [10145,1525548310,57.3428,-111.8632,530.9,197.9,199.2,6.7,-1.6,17.14,27.52,707.3629,140.0036],
    [10146,1525548311,57.3423,-111.8634,532.3,200.3,198.8,6.8,-2.1,16.58,28.03,707.2116,139.995],
    [10147,1525548312,57.3418,-111.8636,533.9,202.9,199.0,7.6,-2.4,16.21,28.05,707.139,139.9991],
    [10148,1525548313,57.3412,-111.8638,534.5,204.5,197.7,7.4,-2.0,16.81,28.11,707.1168,139.9974],
    [10149,1525548314,57.3408,-111.8639,534.7,204.6,195.8,6.5,-1.4,16.86,27.89,707.0494,139.9901],
    [10150,1525548315,57.3402,-111.8641,535.2,206.2,193.2,5.3,-0.4,16.65,28.33,707.1639,140.0019],
    [10151,1525548316,57.3396,-111.8642,536.2,207.3,192.6,5.9,0.3,17.3,28.06,707.1399,139.9995],
    [10152,1525548317,57.3391,-111.8643,537.6,207.6,193.6,7.8,0.0,16.74,28.78,707.122,140.0067],
    [10153,1525548318,57.3386,-111.8644,538.4,208.4,193.6,8.3,-0.5,16.81,28.96,707.2562,140.0033],
    [10154,1525548319,57.338,-111.8645,538.5,207.5,192.1,7.8,0.3,16.82,29.03,707.2573,139.9949],
    [10155,1525548320,57.3375,-111.8646,538.2,207.2,191.6,8.0,0.9,16.89,28.45,707.2592,139.9988],
    [10156,1525548321,57.337,-111.8647,537.8,205.8,191.5,8.2,0.5,16.83,28.73,707.2802,139.9999],
    [10157,1525548322,57.3364,-111.8647,537.6,205.6,190.6,7.6,0.0,16.51,28.74,707.2984,140.0039],
    [10158,1525548323,57.3359,-111.8648,536.8,204.2,188.9,6.8,-0.1,16.85,28.32,707.4342,139.9974],
    [10159,1525548324,57.3353,-111.8648,536.7,203.7,188.0,7.4,0.5,16.79,28.47,707.4997,140.002],
    [10160,1525548325,57.3348,-111.8648,536.7,203.7,187.0,7.5,0.6,16.43,28.59,707.6769,139.9955],
    [10161,1525548326,57.3342,-111.8648,536.3,203.3,185.2,6.6,0.4,16.73,28.61,707.7063,139.9936],
    [10162,1525548327,57.3337,-111.8648,535.8,202.8,184.2,6.4,0.0,17.01,28.35,707.6675,140.002],
    [10163,1525548328,57.3332,-111.8648,535.1,202.1,185.6,7.9,-0.4,16.72,28.65,707.447,139.9964],
    [10164,1525548329,57.3326,-111.8647,533.9,200.9,186.2,7.7,-0.6,17.19,27.84,707.3647,139.9979],
    [10165,1525548330,57.332,-111.8647,532.4,199.4,186.5,7.9,0.0,16.78,28.73,707.3585,140.005],
    [10166,1525548331,57.3315,-111.8647,531.5,198.5,187.4,8.3,-0.1,16.87,28.32,707.5492,139.994],
    [10167,1525548332,57.331,-111.8647,531.9,198.9,186.7,7.4,-0.4,16.68,28.41,707.7316,140.0009],
    [10168,1525548333,57.3304,-111.8647,533.7,200.7,186.6,7.7,-0.1,16.78,28.31,708.0024,140.0013],
    [10169,1525548334,57.3299,-111.8647,535.4,202.4,187.6,8.7,-0.5,16.73,28.64,708.2056,140.0113],
    [10170,1525548335,57.3293,-111.8647,535.8,202.8,187.7,8.3,-0.8,16.62,28.6,708.2091,140.0021],
    [10171,1525548336,57.3288,-111.8647,534.3,201.3,188.9,8.8,-1.7,16.95,28.37,708.21,139.9947],
    [10172,1525548337,57.3283,-111.8647,532.2,199.2,190.2,9.4,-2.2,16.48,28.93,708.2639,140.0027],
    [10173,1525548338,57.3277,-111.8647,529.7,196.4,190.3,9.2,-2.3,16.29,28.4,708.3385,140.0013],
    [10174,1525548339,57.3272,-111.8647,526.9,192.9,188.2,7.4,-1.8,16.71,28.13,708.4127,139.9973],
    [10175,1525548340,57.3266,-111.8647,525.4,191.4,186.5,6.1,-1.2,16.73,28.86,708.502,139.9977],
    [10176,1525548341,57.3261,-111.8647,525.5,191.0,187.1,6.5,-1.2,16.66,29.02,708.6822,140.0006],
    [10177,1525548342,57.3256,-111.8648,525.2,190.2,187.8,7.0,-1.4,16.45,28.49,708.8079,139.9987],
    [10178,1525548343,57.325,-111.8648,524.5,190.0,187.4,6.5,-1.6,17.2,27.87,708.754,140.0018],
    [10179,1525548344,57.3245,-111.8648,523.7,189.7,187.0,6.3,-1.6,16.75,28.51,708.7697,140.0048],
    [10180,1525548345,57.3239,-111.8648,522.3,188.9,186.8,6.4,-1.7,16.32,28.47,708.764,140.0058],
    [10181,1525548346,57.3234,-111.8648,520.5,188.5,186.2,6.3,-1.7,16.56,28.44,708.6723,140.0021],
    [10182,1525548347,57.3228,-111.8648,519.1,188.1,185.8,6.0,-1.6,16.1,28.58,708.5084,139.9989],
    [10183,1525548348,57.3223,-111.8648,518.6,188.3,185.4,5.5,-1.5,16.81,29.21,708.378,140.0004],
    [10184,1525548349,57.3217,-111.8648,519.1,188.0,185.8,5.9,-1.7,16.81,29.07,708.1942,139.997],
    [10185,1525548350,57.3212,-111.8648,519.6,187.6,186.7,6.6,-2.4,16.88,28.12,708.1279,139.9981],
    [10186,1525548351,57.3206,-111.8648,520.1,187.1,186.1,6.1,-2.8,16.66,28.67,707.9837,140.0038],
    [10187,1525548352,57.3201,-111.8648,521.4,187.4,185.9,6.0,-2.5,16.34,28.89,707.9308,140.0026],
    [10188,1525548353,57.3196,-111.8648,523.3,189.3,185.4,5.9,-1.9,16.69,28.52,707.7974,140.0002],
    [10189,1525548354,57.319,-111.8648,525.4,191.4,184.9,6.0,-1.8,16.76,28.81,707.808,140.0016],
    [10190,1525548355,57.3185,-111.8648,527.2,193.3,184.8,6.3,-1.6,17.35,28.32,707.624,140.0044],
    [10191,1525548356,57.3179,-111.8648,528.3,195.0,184.5,6.2,-1.6,17.25,28.11,707.5057,139.9947],
    [10192,1525548357,57.3174,-111.8648,529.4,195.6,184.6,6.6,-1.8,16.93,28.28,707.4959,140.0031],
    [10193,1525548358,57.3169,-111.8647,530.7,197.4,185.0,7.1,-2.0,16.66,28.66,707.4169,139.9921],
    [10194,1525548359,57.3163,-111.8647,531.8,197.8,185.5,7.7,-2.0,16.93,28.11,707.4413,140.0024],
    [10195,1525548360,57.3158,-111.8646,532.9,198.9,184.8,6.9,-1.7,16.33,28.38,707.3399,139.9929],
    [10196,1525548361,57.3152,-111.8646,534.3,200.3,184.5,6.7,-1.3,16.74,28.9,707.364,139.9956],
    [10197,1525548362,57.3147,-111.8646,534.6,200.6,184.7,6.8,-1.6,16.88,28.81,707.4495,139.9995],
    [10198,1525548363,57.3142,-111.8645,535.0,200.7,184.5,6.6,-1.0,16.71,28.78,707.6339,140.0036],
    [10199,1525548364,57.3137,-111.8645,535.2,200.2,184.9,7.0,-0.4,16.8,28.53,707.8629,139.9979],
    [10200,1525548365,57.3132,-111.8645,536.0,201.0,184.5,6.4,-0.9,16.6,28.44,707.9426,140.0034],
    [10201,1525548366,57.3126,-111.8644,536.1,201.1,184.4,6.5,-1.5,16.8,28.49,707.9104,140.0066],
    [10202,1525548367,57.3121,-111.8644,535.5,200.5,184.9,6.7,-2.0,16.78,28.67,707.7441,140.0072],
    [10203,1525548368,57.3116,-111.8644,533.8,198.8,185.3,6.7,-2.3,16.99,28.18,707.0489,139.9948],
    [10204,1525548369,57.3111,-111.8644,531.8,196.8,186.8,7.9,-3.1,16.85,28.51,706.7658,140.0012],
    [10205,1525548370,57.3105,-111.8643,530.6,195.6,186.0,7.5,-3.5,16.81,27.93,706.6639,140.0007],
    [10206,1525548371,57.3101,-111.8643,530.0,195.0,182.2,5.7,-2.6,16.96,28.38,705.8818,139.9974],
    [10207,1525548372,57.3094,-111.8642,531.7,197.7,177.9,5.0,-2.5,16.53,28.53,705.4973,140.0093],
    [10208,1525548373,57.309,-111.8641,535.6,201.5,174.9,4.9,-3.1,16.63,28.51,705.1854,140.0074],
    [10209,1525548374,57.3084,-111.8639,541.1,208.1,171.2,4.7,-2.8,16.97,29.21,705.0379,140.0034],
    [10210,1525548375,57.3079,-111.8636,547.0,214.0,168.2,5.4,-2.2,16.68,29.01,704.4985,139.9878],
    [10211,1525548376,57.3074,-111.8633,552.7,220.7,163.5,4.9,-2.0,16.13,29.18,704.316,139.9974],
    [10212,1525548377,57.3069,-111.8629,557.7,225.7,158.9,5.0,-2.4,16.78,29.29,703.9571,139.9956],
    [10213,1525548378,57.3065,-111.8625,561.7,229.7,154.8,5.2,-2.7,17.23,28.81,703.7065,139.9905],
    [10214,1525548379,57.3061,-111.862,566.3,235.3,149.5,4.3,-2.4,16.81,28.92,703.4127,139.9843],
    [10215,1525548380,57.3057,-111.8615,570.9,239.9,145.3,4.5,-2.2,16.93,29.34,703.4737,140.0135],
    [10216,1525548381,57.3053,-111.8609,574.6,244.6,142.7,5.6,-2.3,16.77,28.83,703.4303,140.0038],
    [10217,1525548382,57.3049,-111.8603,577.6,247.6,138.5,5.2,-1.5,17.05,28.63,703.2837,139.9948],
    [10218,1525548383,57.3046,-111.8596,580.7,250.7,132.8,3.9,-2.0,16.48,28.91,703.1927,139.9982],
    [10219,1525548384,57.3043,-111.8589,583.6,253.6,128.6,3.8,-2.4,16.9,28.9,702.9976,139.9833],
    [10220,1525548385,57.3039,-111.8582,584.6,253.6,128.3,5.4,-0.8,16.82,29.96,702.9295,139.9816],
    [10221,1525548386,57.3037,-111.8574,585.0,253.9,125.2,6.0,-1.3,16.57,29.35,703.2753,139.9982],
    [10222,1525548387,57.3034,-111.8566,585.9,255.6,119.5,5.4,-2.6,17.28,28.73,703.2609,139.996],
    [10223,1525548388,57.3032,-111.8558,586.7,256.7,114.0,3.8,-4.0,16.78,29.07,703.2117,139.9972],
    [10224,1525548389,57.303,-111.8549,588.0,258.0,109.6,2.3,-5.2,16.46,29.39,703.0435,139.9997],
    [10225,1525548390,57.3028,-111.8541,588.4,259.4,109.5,1.7,-3.6,16.41,29.44,703.042,139.997],
    [10226,1525548391,57.3026,-111.8531,586.9,258.8,113.8,3.2,0.9,17.14,29.61,703.1206,139.9967],
    [10227,1525548392,57.3024,-111.8522,586.4,258.2,114.0,4.1,1.3,16.73,29.6,703.1434,140.0027],
    [10228,1525548393,57.3022,-111.8513,586.8,259.8,111.5,3.1,0.8,16.46,29.57,703.0276,140.0064],
    [10229,1525548394,57.302,-111.8505,587.7,261.7,108.4,3.2,-0.9,16.46,29.61,702.9743,139.9962],
    [10230,1525548395,57.3019,-111.8495,588.2,262.2,105.7,3.4,-1.9,16.54,29.61,702.7828,139.9958],
    [10231,1525548396,57.3017,-111.8486,588.0,262.6,105.5,4.0,-0.8,17.02,29.38,702.685,139.9832],
    [10232,1525548397,57.3016,-111.8476,588.1,263.1,104.0,4.3,-0.1,16.87,29.53,702.8762,139.991],
    [10233,1525548398,57.3015,-111.8466,588.5,264.2,101.4,3.7,0.1,17.02,29.57,702.8705,140.0024],
    [10234,1525548399,57.3014,-111.8456,589.4,265.4,101.7,4.3,3.1,16.26,29.76,702.7758,139.9975],
    [10235,1525548400,57.3013,-111.8446,590.8,267.8,98.0,5.1,2.2,16.31,29.75,702.8827,140.0008],
    [10236,1525548401,57.3013,-111.8436,591.7,268.7,90.7,5.1,-1.5,16.7,30.33,702.6543,139.9894],
    [10237,1525548402,57.3013,-111.8426,591.3,269.4,87.4,4.4,-1.8,16.8,29.4,702.6948,139.9931],
    [10238,1525548403,57.3013,-111.8416,590.6,268.6,84.5,4.3,-2.5,16.53,29.7,702.7097,139.9985],
    [10239,1525548404,57.3013,-111.8405,590.8,269.8,82.0,5.0,-3.0,16.24,29.69,702.7024,140.0024],
    [10240,1525548405,57.3014,-111.8395,590.8,269.8,83.8,5.3,-0.3,17.11,29.49,702.7983,140.0056],
    [10241,1525548406,57.3014,-111.8385,591.1,270.1,85.4,5.2,1.2,16.35,29.83,702.7508,140.0074],
    [10242,1525548407,57.3015,-111.8374,591.9,270.9,84.5,4.8,0.3,16.77,29.37,702.6403,139.9999],
    [10243,1525548408,57.3015,-111.8364,591.6,270.6,84.0,4.8,-0.7,16.73,29.65,702.7615,139.9989],
    [10244,1525548409,57.3016,-111.8353,591.4,270.4,82.2,4.5,-2.8,16.72,29.96,702.8625,140.0023],
    [10245,1525548410,57.3016,-111.8343,591.3,270.3,82.4,5.3,-2.9,16.75,30.24,702.943,139.9998],
    [10246,1525548411,57.3017,-111.8332,591.7,271.1,82.2,6.5,-4.1,17.08,29.33,702.9017,140.0007],
    [10247,1525548412,57.3017,-111.8321,592.3,272.3,83.4,6.0,-3.8,17.06,28.85,702.7953,140.0047],
    [10248,1525548413,57.3017,-111.8309,591.5,271.5,86.9,5.8,-2.0,16.27,29.54,702.6212,140.0006],
    [10249,1525548414,57.3017,-111.8299,590.4,270.4,87.9,5.8,-2.7,16.18,29.22,702.4866,139.9971],
    [10250,1525548415,57.3017,-111.8289,589.7,269.7,88.7,5.9,-3.0,16.25,29.16,702.3392,139.9965],
    [10251,1525548416,57.3017,-111.8278,589.8,269.8,89.9,6.4,-2.7,17.42,28.79,702.2609,139.9939],
    [10252,1525548417,57.3017,-111.8266,591.1,271.1,89.7,6.7,-3.4,16.77,29.14,702.3469,139.9983],
    [10253,1525548418,57.3017,-111.8255,592.9,272.9,89.5,6.9,-3.6,16.32,29.29,702.4738,139.9997],
    [10254,1525548419,57.3016,-111.8245,594.8,274.8,88.8,6.7,-3.7,17.33,28.72,702.5778,140.0025],
    [10255,1525548420,57.3016,-111.8233,596.7,276.7,88.8,6.2,-3.3,16.55,28.96,702.8251,139.9948],
    [10256,1525548421,57.3016,-111.8223,597.4,277.4,87.7,6.8,-3.6,16.75,29.24,703.0267,139.9983],
    [10257,1525548422,57.3016,-111.8212,596.9,277.9,86.2,8.0,-4.2,16.42,29.33,703.2018,140.001],
    [10258,1525548423,57.3016,-111.8201,595.7,276.7,85.4,8.2,-4.1,16.53,29.33,703.4437,140.0011],
    [10259,1525548424,57.3016,-111.8191,593.9,275.9,84.8,8.0,-4.3,16.19,29.34,703.5508,139.9985],
    [10260,1525548425,57.3016,-111.8178,591.6,274.6,84.2,7.5,-4.2,16.93,28.72,703.6971,140.0024],
    [10261,1525548426,57.3016,-111.8167,589.3,273.3,84.5,7.5,-3.9,16.5,29.11,703.6555,139.9919],
    [10262,1525548427,57.3016,-111.8156,586.8,270.8,84.0,7.9,-4.2,16.42,29.09,703.6721,140.0035],
    [10263,1525548428,57.3017,-111.8145,584.3,269.3,84.2,7.9,-3.9,16.82,28.57,703.7532,140.0007],
    [10264,1525548429,57.3017,-111.8134,582.2,268.2,85.0,7.5,-3.0,16.29,29.18,703.7023,140.0066],
    [10265,1525548430,57.3017,-111.8122,580.4,266.4,85.4,6.8,-2.6,16.81,28.41,703.5154,140.011],
    [10266,1525548431,57.3017,-111.811,580.3,266.3,85.6,6.4,-1.8,16.76,29.4,703.2103,139.9877],
    [10267,1525548432,57.3018,-111.8099,580.3,265.3,84.7,6.1,-2.0,16.48,29.2,702.8185,140.0049],
    [10268,1525548433,57.3018,-111.8088,579.4,263.4,82.7,6.0,-2.3,16.51,29.49,702.4084,139.9888],
    [10269,1525548434,57.3019,-111.8076,579.0,263.0,79.4,6.4,-3.1,16.55,29.43,702.4394,140.0054],
    [10270,1525548435,57.302,-111.8065,580.7,264.7,76.3,6.1,-2.3,16.62,28.88,702.3475,139.9867],
    [10271,1525548436,57.3021,-111.8055,584.8,268.8,75.4,4.8,0.1,15.87,29.33,702.5377,140.0018],
    [10272,1525548437,57.3023,-111.8043,590.0,274.8,71.2,5.9,-0.5,16.45,29.52,702.7605,139.9987],
    [10273,1525548438,57.3024,-111.8032,593.4,278.4,66.5,7.0,-0.8,16.1,30.05,702.8451,140.0029],
    [10274,1525548439,57.3027,-111.8023,595.4,280.4,64.3,6.7,0.2,16.43,30.63,702.8044,140.0088],
    [10275,1525548440,57.3029,-111.8013,595.8,281.8,62.1,7.2,1.5,16.3,31.43,702.7404,139.9926],
    [10276,1525548441,57.3032,-111.8002,594.4,280.4,55.4,8.3,-1.3,16.7,30.94,702.5498,139.9968],
    [10277,1525548442,57.3035,-111.7993,592.3,278.3,50.4,7.9,-1.1,16.29,31.75,702.5009,139.9943],
    [10278,1525548443,57.3039,-111.7984,591.1,277.1,48.7,7.2,1.4,16.36,32.41,702.3956,139.9989],
    [10279,1525548444,57.3043,-111.7976,590.9,277.9,44.6,7.9,2.5,16.18,32.25,702.2211,139.996],
    [10280,1525548445,57.3047,-111.7968,592.0,279.0,41.0,7.4,3.1,16.21,32.3,702.0723,139.9931],
    [10281,1525548446,57.3051,-111.796,593.2,280.2,37.4,6.9,2.2,16.65,32.01,702.0607,139.9971],
    [10282,1525548447,57.3056,-111.7953,594.4,282.4,34.4,6.2,2.1,16.34,32.42,702.1755,140.0006],
    [10283,1525548448,57.3061,-111.7947,596.0,283.9,32.3,5.3,2.0,15.92,32.38,702.4549,140.0031],
    [10284,1525548449,57.3065,-111.7941,597.9,287.2,28.0,6.9,1.3,16.4,32.35,702.5721,139.9997],
    [10285,1525548450,57.307,-111.7935,599.4,289.4,24.5,7.8,0.4,16.32,32.54,702.7133,139.9996],
    [10286,1525548451,57.3075,-111.793,599.7,290.8,21.0,7.9,-0.7,16.12,32.56,702.7225,139.9982],
    [10287,1525548452,57.3081,-111.7925,598.6,289.6,18.5,7.0,-0.4,16.23,32.55,702.8058,140.0056],
    [10288,1525548453,57.3086,-111.7921,596.6,286.6,15.2,6.8,0.2,16.09,32.51,702.9072,139.999],
    [10289,1525548454,57.3092,-111.7918,594.2,283.8,10.0,8.1,-0.2,16.24,32.73,702.8281,139.9857],
    [10290,1525548455,57.3097,-111.7915,592.8,281.8,5.3,9.3,-0.2,16.04,32.25,703.0032,139.9964],
    [10291,1525548456,57.3103,-111.7913,591.7,280.0,361.7,9.2,-0.1,16.46,31.71,703.2527,139.9908],
    [10292,1525548457,57.3108,-111.7911,590.5,278.5,358.8,8.5,-0.3,16.31,31.84,703.7026,139.9948],
    [10293,1525548458,57.3114,-111.791,590.0,278.3,357.2,6.6,0.5,16.13,31.23,703.8134,140.0085],
    [10294,1525548459,57.3119,-111.791,589.6,277.9,356.2,5.6,0.7,16.14,31.0,704.1816,139.988],
    [10295,1525548460,57.3125,-111.791,588.1,276.5,352.9,7.2,0.7,15.94,31.24,704.6326,140.009],
    [10296,1525548461,57.3131,-111.791,585.2,273.8,351.9,7.0,0.2,15.95,31.04,704.8929,140.0005],
    [10297,1525548462,57.3136,-111.791,581.4,270.4,352.9,6.2,-0.9,16.2,30.93,705.2052,139.9944],
    [10298,1525548463,57.3142,-111.7911,577.3,266.3,349.2,10.8,-1.1,16.25,30.44,705.6183,140.0062],
    [10299,1525548464,57.3148,-111.7911,573.7,262.7,349.6,10.3,-1.4,16.01,30.91,705.9173,139.9999],
    [10300,1525548465,57.3154,-111.7911,569.4,257.4,351.6,9.0,-1.0,16.34,30.7,706.0887,140.0024],
    [10301,1525548466,57.316,-111.7911,565.4,254.1,349.8,11.1,-0.8,16.4,30.61,706.3731,140.0046],
    [10302,1525548467,57.3166,-111.7912,560.9,249.9,350.9,9.9,-1.1,16.83,29.03,706.3433,140.0094],
    [10303,1525548468,57.3172,-111.7912,556.5,245.5,351.2,9.8,-0.6,16.7,28.95,706.252,139.9943],
    [10304,1525548469,57.3178,-111.7912,552.6,241.6,350.4,10.8,-0.3,16.06,29.36,706.2734,140.0031],
    [10305,1525548470,57.3184,-111.7912,548.6,237.6,352.2,9.2,-0.3,16.2,29.09,706.0811,140.0014],
    [10306,1525548471,57.319,-111.7912,546.3,235.3,352.5,9.1,0.7,16.21,29.11,705.8334,140.0048],
    [10307,1525548472,57.3196,-111.7912,545.7,234.7,353.2,8.2,1.2,16.48,28.67,705.5863,140.0086],
    [10308,1525548473,57.3202,-111.7912,545.7,234.7,356.7,4.5,0.5,16.2,28.93,705.4324,140.0032],
    [10309,1525548474,57.3208,-111.7912,546.5,235.5,355.8,7.4,-0.4,16.73,29.03,705.0841,139.9981],
    [10310,1525548475,57.3215,-111.7911,548.1,237.1,353.8,9.8,-0.5,16.42,29.09,704.7485,139.9975],
    [10311,1525548476,57.3221,-111.7911,551.0,240.0,357.4,5.5,0.9,16.67,29.19,704.5655,139.996],
    [10312,1525548477,57.3227,-111.791,554.2,243.2,357.6,4.9,1.7,16.69,29.17,704.3701,140.0068],
    [10313,1525548478,57.3233,-111.791,557.2,246.2,357.6,4.3,1.4,16.3,29.86,704.161,140.0044],
    [10314,1525548479,57.3238,-111.791,560.0,250.1,358.9,2.7,1.3,16.46,30.37,703.9485,140.0012],
    [10315,1525548480,57.3245,-111.791,563.8,253.8,360.0,1.2,0.6,16.07,30.42,703.7793,139.9962],
    [10316,1525548481,57.325,-111.7909,566.9,256.9,360.7,0.3,-0.1,16.33,30.86,703.6522,140.0042],
    [10317,1525548482,57.3256,-111.7909,569.9,259.9,360.1,0.8,0.7,16.4,31.26,703.7517,139.9962],
    [10318,1525548483,57.3262,-111.7909,572.5,262.5,357.5,3.4,1.1,16.32,31.39,703.838,140.004],
    [10319,1525548484,57.3268,-111.7909,574.8,264.8,356.2,4.4,0.8,16.19,32.06,704.0963,139.9986],
    [10320,1525548485,57.3274,-111.7909,577.4,267.4,356.8,3.7,1.2,16.67,31.93,704.1428,140.0059],
    [10321,1525548486,57.3279,-111.7909,579.1,269.1,354.9,5.5,1.2,16.45,32.93,704.1973,140.0003],
    [10322,1525548487,57.3286,-111.7909,579.2,269.2,353.2,6.9,0.9,16.19,32.68,704.1683,140.002],
    [10323,1525548488,57.3291,-111.7909,578.0,268.0,353.1,6.8,1.3,17.1,31.78,704.2166,139.9988],
    [10324,1525548489,57.3297,-111.7909,575.6,265.6,354.0,5.6,1.1,16.34,32.85,704.2656,139.9977],
    [10325,1525548490,57.3303,-111.791,573.7,263.7,354.8,4.5,1.0,16.48,32.9,704.4315,140.0002],
    [10326,1525548491,57.3309,-111.791,573.2,263.3,354.5,4.3,1.7,16.66,31.96,704.4612,140.0058],
    [10327,1525548492,57.3315,-111.791,573.7,265.2,355.3,2.9,2.0,16.3,32.51,704.5979,139.9932],
    [10328,1525548493,57.332,-111.7911,573.3,267.3,355.6,2.4,2.3,16.02,32.61,704.6143,140.0077],
    [10329,1525548494,57.3326,-111.7911,572.3,268.3,354.9,2.7,1.5,16.58,32.77,704.6225,140.0018],
    [10330,1525548495,57.3331,-111.7911,570.9,265.9,354.8,2.4,1.8,15.94,32.87,704.5705,139.9989],
    [10331,1525548496,57.3338,-111.7912,569.4,262.4,353.9,2.5,2.3,16.79,32.61,704.408,140.0028],
    [10332,1525548497,57.3343,-111.7913,568.6,259.9,354.9,1.2,2.1,16.71,32.68,704.3571,140.0033],
    [10333,1525548498,57.335,-111.7914,568.0,259.1,353.9,2.5,2.3,16.25,33.87,704.1659,140.007],
    [10334,1525548499,57.3355,-111.7914,568.2,258.2,353.2,2.9,2.4,16.18,34.07,704.1276,139.996],
    [10335,1525548500,57.3361,-111.7915,568.8,259.4,354.3,1.9,2.2,16.6,33.39,704.1725,140.0031],
    [10336,1525548501,57.3367,-111.7916,570.1,261.1,353.5,3.1,1.9,16.41,33.79,704.2011,140.0027],
    [10337,1525548502,57.3373,-111.7916,571.4,262.4,353.5,3.7,2.1,16.04,34.12,704.1785,140.0034],
    [10338,1525548503,57.3378,-111.7917,572.8,263.8,354.2,3.8,2.3,16.56,33.67,704.087,140.0015],
    [10339,1525548504,57.3385,-111.7917,573.7,265.1,356.2,3.1,2.2,15.63,33.93,704.0386,139.9997],
    [10340,1525548505,57.339,-111.7917,573.6,264.6,357.4,3.1,2.4,15.8,34.08,703.83,140.0087],
    [10341,1525548506,57.3396,-111.7917,573.4,264.4,358.9,2.6,2.7,16.21,33.98,703.6356,139.99],
    [10342,1525548507,57.3402,-111.7917,573.4,264.4,359.6,2.6,2.6,16.55,33.38,703.5679,139.9957],
    [10343,1525548508,57.3408,-111.7917,574.3,265.5,359.0,3.1,2.5,16.02,34.15,703.427,139.991],
    [10344,1525548509,57.3413,-111.7916,575.7,267.7,358.7,2.7,3.1,16.18,34.24,703.4289,139.9982],
    [10345,1525548510,57.3419,-111.7916,577.2,270.2,357.4,3.2,3.2,16.34,34.13,703.4758,139.9992],
    [10346,1525548511,57.3425,-111.7916,579.2,274.4,356.5,3.3,3.0,16.32,34.25,703.5084,140.0058],
    [10347,1525548512,57.3431,-111.7916,580.8,277.8,356.6,2.9,2.7,15.97,35.0,703.385,139.9958],
    [10348,1525548513,57.3436,-111.7916,582.0,280.0,357.1,2.3,2.5,15.92,34.55,703.2546,139.9983],
    [10349,1525548514,57.3442,-111.7916,582.7,281.7,357.7,1.9,2.9,16.22,34.41,703.2608,139.9935],
    [10350,1525548515,57.3448,-111.7917,582.3,281.6,357.6,1.7,2.2,15.9,34.9,703.2624,140.0039],
    [10351,1525548516,57.3454,-111.7917,582.0,282.0,357.5,1.5,3.1,16.17,34.5,703.2502,140.0],
    [10352,1525548517,57.3459,-111.7917,582.5,282.5,357.7,1.3,3.1,15.89,34.84,703.1229,139.998],
    [10353,1525548518,57.3465,-111.7917,583.4,282.6,356.0,2.6,1.6,15.87,34.85,703.1508,140.0065],
    [10354,1525548519,57.3471,-111.7918,584.1,283.1,356.7,0.7,1.2,15.59,35.07,703.0837,139.9999],
    [10355,1525548520,57.3477,-111.7918,584.5,284.3,355.4,0.2,1.9,15.77,34.95,703.0027,139.9973],
    [10356,1525548521,57.3482,-111.7919,585.2,285.2,352.2,1.1,2.1,15.98,35.28,702.9625,140.0031],
    [10357,1525548522,57.3487,-111.792,585.7,285.7,349.0,1.8,1.9,16.12,34.59,702.8966,140.0026],
    [10358,1525548523,57.3493,-111.7922,586.4,287.1,345.8,1.9,1.9,15.87,35.07,702.9142,140.0032],
    [10359,1525548524,57.3498,-111.7925,586.8,286.8,342.4,2.0,2.4,16.32,34.56,702.7713,139.9968],
    [10360,1525548525,57.3504,-111.7928,588.0,288.0,337.9,1.9,2.0,15.76,35.83,702.4211,139.991],
    [10361,1525548526,57.3509,-111.7932,588.5,287.5,334.6,1.4,1.5,15.92,35.46,702.4409,140.0001],
    [10362,1525548527,57.3514,-111.7936,589.0,288.0,329.9,1.3,1.9,15.69,35.53,702.2948,140.0096],
    [10363,1525548528,57.3519,-111.7942,589.6,288.7,325.1,1.2,2.2,15.37,35.64,702.1782,139.9921],
    [10364,1525548529,57.3523,-111.7948,590.4,288.3,320.0,1.9,0.6,15.84,36.34,702.2128,139.9995],
    [10365,1525548530,57.3527,-111.7954,592.0,289.0,314.9,3.0,-0.5,16.28,34.96,702.1344,140.0051],
    [10366,1525548531,57.3531,-111.7961,593.3,289.2,310.2,3.4,0.0,15.66,35.53,702.0796,140.003],
    [10367,1525548532,57.3535,-111.7969,594.4,290.3,303.4,5.1,1.4,16.13,34.78,702.1741,140.0047],
    [10368,1525548533,57.3538,-111.7977,595.9,291.6,300.6,4.4,-0.5,15.62,35.23,702.2725,139.9955],
    [10369,1525548534,57.3541,-111.7986,596.4,291.9,299.6,2.8,-1.5,15.55,35.65,702.4461,140.0015],
    [10370,1525548535,57.3543,-111.7995,597.0,293.1,293.2,4.2,1.6,15.71,34.94,702.4949,140.0053],
    [10371,1525548536,57.3545,-111.8004,597.9,293.9,288.1,3.7,3.6,15.79,34.72,702.3852,139.9954],
    [10372,1525548537,57.3547,-111.8013,597.9,292.9,285.9,2.7,3.9,15.61,34.91,702.4123,140.002],
    [10373,1525548538,57.3549,-111.8023,596.6,290.5,281.8,4.2,4.6,15.78,34.62,702.5555,140.0138],
    [10374,1525548539,57.3551,-111.8032,594.9,288.0,280.9,4.5,2.5,15.86,35.05,702.7562,139.9811],
    [10375,1525548540,57.3552,-111.8042,593.6,287.2,279.5,3.9,1.2,15.74,34.81,702.9194,139.9925],
    [10376,1525548541,57.3553,-111.8051,593.9,287.1,276.4,4.1,1.8,16.27,34.68,702.7531,140.0179],
    [10377,1525548542,57.3553,-111.8062,593.6,287.6,273.5,4.8,2.9,15.73,34.95,703.161,139.9839],
    [10378,1525548543,57.3554,-111.8072,592.6,286.6,270.5,6.5,4.2,15.61,34.64,703.4432,139.9899],
    [10379,1525548544,57.3554,-111.8082,590.4,283.4,271.7,5.1,1.1,16.2,33.92,703.6093,139.9861],
    [10380,1525548545,57.3554,-111.8092,588.8,279.9,271.0,4.0,0.9,15.84,34.12,703.7059,140.0019],
    [10381,1525548546,57.3555,-111.8102,587.4,277.4,267.6,4.6,4.1,15.56,34.69,703.7898,139.9956],
    [10382,1525548547,57.3555,-111.811,585.8,275.1,268.3,4.8,2.6,15.65,33.86,703.7999,140.0034],
    [10383,1525548548,57.3555,-111.8121,582.5,271.5,272.6,5.5,-0.8,16.27,33.3,703.5001,140.0026],
    [10384,1525548549,57.3555,-111.8133,579.5,268.2,273.3,7.1,0.5,16.55,32.73,703.3949,139.9939],
    [10385,1525548550,57.3556,-111.8143,577.7,262.6,276.1,7.8,-0.3,15.71,32.77,703.3767,140.0043],
    [10386,1525548551,57.3556,-111.8154,576.8,260.4,279.4,6.8,-2.2,15.45,32.48,703.1662,139.9955],
    [10387,1525548552,57.3557,-111.8164,577.0,259.8,280.8,7.3,-1.9,16.31,31.73,703.1639,140.0053],
    [10388,1525548553,57.3558,-111.8174,578.8,261.1,280.9,7.6,-0.9,15.7,31.32,702.9977,139.9998],
    [10389,1525548554,57.3559,-111.8184,580.5,263.8,282.4,7.1,-1.9,16.68,30.48,702.9167,140.0125],
    [10390,1525548555,57.3561,-111.8194,581.8,266.2,283.0,7.0,-2.1,15.73,30.87,702.6218,139.9999],
    [10391,1525548556,57.3562,-111.8203,583.3,267.3,284.0,6.6,-3.1,16.61,30.14,702.5356,139.9989],
    [10392,1525548557,57.3563,-111.8214,584.3,269.3,283.2,6.9,-1.6,16.03,31.06,702.1917,139.998],
    [10393,1525548558,57.3564,-111.8224,585.6,269.5,282.7,7.2,-1.5,15.8,30.62,702.0982,140.003],
    [10394,1525548559,57.3566,-111.8234,587.7,271.6,283.1,6.6,-1.9,16.05,29.64,701.951,140.0001],
    [10395,1525548560,57.3567,-111.8243,590.0,274.1,281.8,6.6,-0.4,16.65,29.39,701.7819,139.9936],
    [10396,1525548561,57.3568,-111.8253,592.2,275.8,281.1,7.5,0.3,16.17,30.16,701.706,139.9982],
    [10397,1525548562,57.3569,-111.8263,595.1,277.4,281.6,7.3,-0.5,16.2,30.44,701.5862,139.9971],
    [10398,1525548563,57.357,-111.8273,597.5,277.4,281.1,6.7,0.2,16.18,30.05,701.5386,139.9961],
    [10399,1525548564,57.3571,-111.8282,599.2,279.2,279.4,6.5,1.2,16.11,30.45,701.5242,139.9894],
    [10400,1525548565,57.3572,-111.8291,600.8,279.3,279.5,6.8,-0.6,16.09,30.43,701.6281,139.9962],
    [10401,1525548566,57.3573,-111.8301,602.1,281.1,277.5,7.3,-0.1,16.4,29.84,701.6635,139.9923],
    [10402,1525548567,57.3574,-111.831,603.3,282.1,275.1,7.8,0.1,16.6,29.72,701.7206,140.0],
    [10403,1525548568,57.3574,-111.832,604.4,284.1,273.9,7.9,-0.3,16.52,30.08,701.9375,139.9922],
    [10404,1525548569,57.3575,-111.833,604.8,284.9,272.0,8.1,0.1,16.19,29.8,702.0914,139.9973],
    [10405,1525548570,57.3575,-111.8339,604.1,284.1,271.5,8.5,-0.5,16.32,29.78,702.4169,140.0003],
    [10406,1525548571,57.3575,-111.8349,603.0,283.0,270.8,9.2,-1.1,16.24,30.45,702.6143,139.9969],
    [10407,1525548572,57.3575,-111.8358,602.6,281.6,270.4,9.2,-1.7,16.56,29.62,702.8467,139.9954],
    [10408,1525548573,57.3575,-111.8368,601.1,280.1,271.0,8.8,-2.7,16.04,29.58,703.1821,140.0047],
    [10409,1525548574,57.3574,-111.8378,598.8,276.8,271.6,9.4,-3.2,16.28,29.79,703.4172,140.0055],
    [10410,1525548575,57.3574,-111.8388,596.0,274.7,271.5,9.9,-2.7,16.82,29.53,703.7511,140.0036],
    [10411,1525548576,57.3574,-111.8398,592.7,270.7,271.5,9.9,-2.4,15.91,29.49,703.758,140.0081],
    [10412,1525548577,57.3574,-111.8407,589.3,267.4,271.8,10.1,-2.9,15.99,29.37,703.6032,140.0004],
    [10413,1525548578,57.3574,-111.8418,585.4,262.4,272.4,9.6,-3.5,15.97,29.31,703.4657,140.0006],
    [10414,1525548579,57.3574,-111.8427,582.0,258.6,272.0,8.9,-3.0,16.45,28.94,703.2464,140.0113],
    [10415,1525548580,57.3574,-111.8437,578.8,254.8,271.7,9.1,-3.1,16.18,29.17,703.1309,140.0105],
    [10416,1525548581,57.3574,-111.8447,577.7,252.9,270.6,9.7,-2.9,16.24,28.92,702.6088,140.0002],
    [10417,1525548582,57.3574,-111.8457,578.7,253.7,270.0,9.8,-3.3,16.58,28.63,701.9778,140.0007],
    [10418,1525548583,57.3573,-111.8467,580.5,254.6,270.3,9.8,-5.3,15.87,28.62,701.7646,140.0011],
    [10419,1525548584,57.3573,-111.8476,582.7,255.7,266.8,10.2,-4.4,16.35,28.64,701.6255,140.0069],
    [10420,1525548585,57.3572,-111.8486,586.7,258.7,261.0,10.2,-3.1,16.64,28.27,701.3828,139.9998],
    [10421,1525548586,57.357,-111.8494,591.3,262.6,258.0,10.3,-4.2,16.29,29.37,701.2378,139.9947],
    [10422,1525548587,57.3568,-111.8504,597.0,267.0,253.3,10.4,-4.0,16.17,28.57,701.2708,140.0012],
    [10423,1525548588,57.3566,-111.8513,601.1,270.5,249.5,10.1,-3.7,15.82,28.41,701.2454,140.0036],
    [10424,1525548589,57.3564,-111.8521,604.1,274.1,244.4,9.0,-2.4,16.37,28.83,701.2102,140.0094],
    [10425,1525548590,57.3561,-111.8529,606.9,276.6,238.9,8.2,-1.3,16.06,28.28,701.0343,139.9958],
    [10426,1525548591,57.3558,-111.8536,608.9,277.9,237.3,9.3,-2.0,16.2,28.6,701.065,139.9877],
    [10427,1525548592,57.3554,-111.8543,609.3,277.3,235.3,9.6,-2.8,16.37,29.04,701.1086,139.9974],
    [10428,1525548593,57.3551,-111.855,609.3,277.4,232.5,9.0,-3.2,15.99,28.75,701.1808,140.005],
    [10429,1525548594,57.3547,-111.8556,609.3,276.3,228.8,8.3,-1.4,16.09,28.51,701.2651,139.9985],
    [10430,1525548595,57.3543,-111.8563,610.4,277.1,224.6,7.4,0.8,16.4,29.12,701.212,140.0027],
    [10431,1525548596,57.3539,-111.8569,610.6,276.6,225.0,10.2,-0.1,16.29,28.53,701.214,140.007],
    [10432,1525548597,57.3535,-111.8575,610.0,276.0,227.1,12.4,-2.7,16.67,28.41,701.057,140.006],
    [10433,1525548598,57.353,-111.858,609.4,274.4,223.6,10.1,-1.4,15.79,28.76,700.963,139.9977],
    [10434,1525548599,57.3526,-111.8586,609.0,274.0,222.0,10.5,-1.0,16.7,28.49,700.9018,139.9919],
    [10435,1525548600,57.3522,-111.8591,608.8,273.8,221.5,11.9,-1.9,16.77,28.83,700.8817,139.9912],
    [10436,1525548601,57.3517,-111.8596,609.0,274.0,218.7,11.1,-1.9,16.46,29.27,701.0197,140.0072],
    [10437,1525548602,57.3512,-111.8601,610.4,276.5,214.9,9.2,-2.1,16.7,28.77,701.1595,140.0053],
    [10438,1525548603,57.3507,-111.8605,612.0,277.9,213.4,10.3,-2.2,16.51,28.65,701.0565,140.0076],
    [10439,1525548604,57.3502,-111.8609,612.6,279.7,212.2,12.5,-1.0,16.39,29.47,701.0155,140.0021],
    [10440,1525548605,57.3497,-111.8613,612.4,279.4,209.3,12.3,-0.7,16.74,28.63,701.0097,139.9935],
    [10441,1525548606,57.3492,-111.8616,611.4,278.4,205.4,11.4,0.1,16.67,28.29,700.9501,140.0013],
    [10442,1525548607,57.3486,-111.8618,609.9,276.9,203.8,12.5,-0.8,16.83,28.28,700.8579,139.9995],
    [10443,1525548608,57.3481,-111.862,610.0,276.0,200.8,11.4,-1.2,15.87,28.55,701.066,140.0046],
    [10444,1525548609,57.3476,-111.8622,610.8,276.5,198.0,10.6,-0.8,16.61,28.34,701.1207,140.0052],
    [10445,1525548610,57.347,-111.8623,610.9,275.9,198.3,12.3,-1.5,16.45,28.46,701.1094,140.0012],
    [10446,1525548611,57.3465,-111.8625,611.8,276.9,196.8,11.2,-1.8,16.41,28.39,700.9886,139.9947],
    [10447,1525548612,57.3459,-111.8626,612.4,276.3,195.3,10.8,-1.3,16.21,28.38,700.8892,140.0075],
    [10448,1525548613,57.3453,-111.8627,611.4,275.4,196.9,13.0,-1.8,16.59,27.92,700.7997,139.9963],
    [10449,1525548614,57.3448,-111.8627,610.4,274.4,196.9,13.0,-2.8,16.09,28.19,700.7329,139.9974],
    [10450,1525548615,57.3442,-111.8628,610.7,275.8,196.1,12.9,-2.9,16.82,28.1,700.7216,139.9923],
    [10451,1525548616,57.3436,-111.8629,611.7,276.7,195.4,12.9,-2.7,15.97,28.22,700.8148,139.9915],
    [10452,1525548617,57.343,-111.8629,613.0,280.0,193.5,12.0,-2.1,16.3,28.17,701.0081,139.9883],
    [10453,1525548618,57.3425,-111.863,613.9,281.9,192.5,11.9,-1.9,16.17,28.22,701.254,140.0001],
    [10454,1525548619,57.3419,-111.863,614.2,283.2,192.2,11.7,-1.9,16.42,28.93,701.6275,139.9996],
    [10455,1525548620,57.3414,-111.863,614.5,284.5,189.8,9.3,-0.6,16.22,28.21,701.8145,140.0017],
    [10456,1525548621,57.3408,-111.8631,613.3,284.3,189.1,8.8,0.5,16.37,29.16,702.1527,140.0023],
    [10457,1525548622,57.3402,-111.8631,611.3,282.3,188.7,8.6,1.1,16.19,28.68,702.2917,139.9994],
    [10458,1525548623,57.3396,-111.8631,608.2,279.2,187.6,8.1,1.7,16.39,29.35,702.588,140.0001],
    [10459,1525548624,57.3391,-111.8631,604.8,275.6,187.3,8.2,1.8,16.09,29.0,702.8483,139.9949],
    [10460,1525548625,57.3384,-111.8631,601.4,271.4,187.0,8.4,1.5,16.43,29.3,703.236,140.0096],
    [10461,1525548626,57.3379,-111.8631,598.6,267.6,187.4,8.7,0.9,16.39,29.36,703.4842,140.004],
    [10462,1525548627,57.3373,-111.8631,595.6,264.6,188.0,8.7,0.3,16.3,28.61,703.6515,140.01],
    [10463,1525548628,57.3367,-111.8631,592.3,260.3,188.8,8.6,0.4,16.36,28.87,703.7025,140.0124],
    [10464,1525548629,57.3361,-111.8632,588.3,255.6,190.6,9.6,0.7,16.99,28.48,703.8648,140.002],
    [10465,1525548630,57.3355,-111.8632,585.1,252.1,191.2,8.8,0.6,16.47,28.81,703.8512,139.9982],
    [10466,1525548631,57.3349,-111.8633,581.9,248.9,191.9,8.5,0.2,15.96,28.78,703.8099,139.9976],
    [10467,1525548632,57.3343,-111.8634,579.5,246.5,192.4,8.3,0.2,16.31,28.9,703.5968,140.0014],
    [10468,1525548633,57.3337,-111.8635,577.9,244.9,192.1,8.1,0.1,16.36,28.92,703.4702,140.0024],
    [10469,1525548634,57.3331,-111.8636,577.1,244.1,193.3,9.4,-1.3,16.38,28.53,703.2273,140.0004],
    [10470,1525548635,57.3326,-111.8637,576.8,243.8,192.9,9.7,-0.8,16.38,29.33,703.0051,140.0036],
    [10471,1525548636,57.332,-111.8638,576.9,243.9,192.1,9.9,-0.2,15.94,28.6,702.9227,139.9994],
    [10472,1525548637,57.3314,-111.8638,578.5,246.5,191.8,10.5,-0.1,16.33,28.73,703.0818,140.0085],
    [10473,1525548638,57.3308,-111.8639,581.3,249.3,191.5,10.2,-1.0,16.82,28.45,703.1134,140.0096],
    [10474,1525548639,57.3303,-111.8639,584.5,251.5,189.8,8.3,-1.7,16.4,28.36,703.2096,139.9981],
    [10475,1525548640,57.3297,-111.8639,586.8,253.8,188.9,7.5,-1.7,17.06,28.19,703.2878,140.0041],
    [10476,1525548641,57.3292,-111.864,587.9,254.9,189.0,7.8,-1.8,16.28,29.08,703.3337,139.9963],
    [10477,1525548642,57.3286,-111.864,587.6,254.6,189.4,8.5,-1.1,16.97,28.22,703.3405,139.9928],
    [10478,1525548643,57.328,-111.864,586.4,253.4,188.9,8.1,-0.7,16.35,28.76,703.5335,140.0011],
    [10479,1525548644,57.3275,-111.864,585.7,252.7,188.5,7.9,-1.1,16.09,28.31,703.5456,139.9994],
    [10480,1525548645,57.3269,-111.8641,585.0,251.7,188.9,8.2,-1.7,15.99,28.45,703.5428,139.9989],
    [10481,1525548646,57.3264,-111.8641,584.4,250.4,189.0,7.9,-1.8,16.4,28.8,703.5358,140.0067],
    [10482,1525548647,57.3258,-111.8641,583.7,249.7,189.1,8.1,-1.1,17.05,28.16,703.504,139.9964],
    [10483,1525548648,57.3253,-111.8641,582.4,248.4,189.3,8.2,-1.1,16.33,28.86,703.4232,139.9937],
    [10484,1525548649,57.3247,-111.8642,581.4,247.4,188.0,6.8,-1.2,16.21,28.55,703.5043,139.9972],
    [10485,1525548650,57.3242,-111.8642,581.2,247.5,186.8,5.9,-0.6,16.06,28.53,703.6937,140.0005],
    [10486,1525548651,57.3236,-111.8642,581.2,248.2,187.1,6.5,-0.4,15.96,28.44,703.658,140.011],
    [10487,1525548652,57.3231,-111.8642,581.0,250.0,187.1,5.9,-0.9,15.87,28.7,703.4726,139.9975],
    [10488,1525548653,57.3225,-111.8643,581.4,250.7,186.9,5.0,-1.2,16.32,28.85,703.2986,139.994],
    [10489,1525548654,57.322,-111.8643,581.3,251.3,189.3,7.1,-1.7,16.34,29.13,703.2738,139.9993],
    [10490,1525548655,57.3214,-111.8644,580.0,249.0,191.8,9.5,-2.3,16.1,28.61,703.2125,140.0197],
    [10491,1525548656,57.3208,-111.8644,579.7,247.7,191.7,9.5,-2.3,15.86,28.58,703.1253,140.0076],
    [10492,1525548657,57.3203,-111.8644,581.4,248.4,190.8,9.1,-2.4,16.53,28.71,702.8788,140.002],
    [10493,1525548658,57.3198,-111.8645,583.6,249.6,190.7,9.4,-2.0,16.42,28.51,702.6934,139.9991],
    [10494,1525548659,57.3192,-111.8645,584.4,250.4,191.2,10.2,-0.8,16.71,28.48,702.4784,139.9935],
    [10495,1525548660,57.3186,-111.8645,585.5,252.5,190.1,9.1,-1.3,16.43,29.4,702.4437,139.9983],
    [10496,1525548661,57.3181,-111.8646,586.2,253.2,189.4,9.0,-1.6,16.61,28.45,702.3821,139.9991],
    [10497,1525548662,57.3175,-111.8646,588.3,255.3,189.1,9.1,-1.8,16.49,29.23,702.4573,140.0004],
    [10498,1525548663,57.317,-111.8646,590.8,257.8,188.5,8.5,-2.0,16.53,29.22,702.4476,139.9993],
    [10499,1525548664,57.3165,-111.8646,593.4,259.4,188.6,8.4,-2.0,16.64,28.86,702.4047,139.9993],
    [10500,1525548665,57.3159,-111.8646,595.1,261.1,189.6,9.2,-1.8,16.43,29.63,702.5575,139.9996],
    [10501,1525548666,57.3154,-111.8646,595.7,261.7,190.1,9.3,-1.7,17.02,28.08,702.6302,140.0046],
    [10502,1525548667,57.3149,-111.8646,595.7,261.7,190.2,9.1,-1.8,16.1,28.6,702.9107,139.9972],
    [10503,1525548668,57.3143,-111.8646,595.4,261.1,190.1,8.3,-2.4,16.03,28.78,703.0519,139.9999],
    [10504,1525548669,57.3138,-111.8647,595.3,260.3,188.6,6.6,-2.4,16.21,28.76,703.1493,140.0097],
    [10505,1525548670,57.3133,-111.8647,594.5,259.5,188.2,6.5,-2.2,16.67,28.25,703.033,139.9976],
    [10506,1525548671,57.3128,-111.8647,592.9,257.9,187.9,6.5,-2.3,15.87,28.7,702.7423,140.0006],
    [10507,1525548672,57.3122,-111.8648,590.5,255.5,187.2,6.6,-1.7,16.68,28.68,702.6903,139.9928],
    [10508,1525548673,57.3117,-111.8648,588.2,253.2,189.4,8.8,-1.7,16.87,28.54,702.4721,139.9905],
    [10509,1525548674,57.3111,-111.8648,587.1,252.1,189.2,8.3,-2.6,16.71,28.45,702.3394,140.0006],
    [10510,1525548675,57.3105,-111.8648,588.0,253.0,187.1,6.5,-3.1,16.24,28.86,702.1342,139.9916],
    [10511,1525548676,57.31,-111.8648,589.8,254.8,185.7,5.5,-2.3,16.75,28.61,702.0387,140.0035],
    [10512,1525548677,57.3095,-111.8648,591.4,256.4,185.2,5.9,-1.7,16.92,28.74,701.9789,139.9952],
    [10513,1525548678,57.3089,-111.8648,593.5,259.4,185.0,5.8,-0.5,16.87,28.53,701.96,140.0093],
    [10514,1525548679,57.3084,-111.8648,594.9,260.9,181.8,3.4,0.7,16.75,28.38,701.6618,139.9993],
    [10515,1525548680,57.3078,-111.8648,597.5,263.5,182.5,4.8,0.4,16.19,28.93,701.4009,140.0009],
    [10516,1525548681,57.3072,-111.8647,599.2,265.2,183.8,6.3,-0.2,16.64,28.94,700.9102,140.0059],
    [10517,1525548682,57.3067,-111.8647,600.0,266.0,184.4,7.8,0.4,16.5,29.03,700.6686,140.0106],
    [10518,1525548683,57.3061,-111.8646,600.9,266.9,183.1,9.0,1.1,16.85,28.64,700.1816,140.0071],
    [10519,1525548684,57.3056,-111.8645,603.0,270.0,179.9,10.1,1.6,16.15,29.49,699.7213,139.9955],
    [10520,1525548685,57.3051,-111.8643,606.6,273.6,174.9,9.8,1.8,16.9,28.68,699.1295,139.9997],
    [10521,1525548686,57.3045,-111.864,611.2,278.2,168.4,8.7,1.4,16.47,29.37,698.7805,139.9863],
    [10522,1525548687,57.304,-111.8636,616.9,284.9,162.1,7.8,0.3,16.24,28.8,698.2031,139.9856],
    [10523,1525548688,57.3036,-111.8631,622.7,290.7,156.6,7.7,0.2,16.25,28.78,698.1218,139.986],
    [10524,1525548689,57.3031,-111.8626,628.5,296.8,151.2,8.1,0.6,17.1,28.05,697.5945,139.9897],
    [10525,1525548690,57.3027,-111.862,633.3,302.3,145.0,6.8,0.2,16.48,28.56,697.2875,139.9839],
    [10526,1525548691,57.3023,-111.8613,638.7,307.7,138.3,5.6,0.0,15.99,28.63,697.1335,139.9897],
    [10527,1525548692,57.302,-111.8606,643.7,312.7,133.7,5.1,0.3,16.51,28.5,697.0817,140.0025],
    [10528,1525548693,57.3016,-111.8597,648.9,317.9,128.1,3.8,0.4,16.48,29.03,697.3858,140.0049],
    [10529,1525548694,57.3013,-111.8589,653.2,322.2,122.6,3.2,-0.6,16.23,29.01,697.6699,139.9947],
    [10530,1525548695,57.3011,-111.8581,657.1,326.1,118.3,4.2,-1.4,16.44,29.27,697.6933,139.9976],
    [10531,1525548696,57.3008,-111.8572,659.6,328.6,116.3,4.8,-0.9,15.94,29.11,697.6714,139.9897],
    [10532,1525548697,57.3006,-111.8563,659.4,329.4,111.9,4.7,-2.7,16.03,29.4,697.5007,139.9814],
    [10533,1525548698,57.3004,-111.8554,657.4,327.4,109.0,5.4,-1.2,17.18,28.99,697.5966,140.0116],
    [10534,1525548699,57.3003,-111.8544,655.3,326.3,108.8,7.5,1.8,16.63,29.61,697.6049,139.9876],
    [10535,1525548700,57.3001,-111.8534,653.8,324.8,103.3,6.3,0.3,16.18,29.22,697.4776,139.9824],
    [10536,1525548701,57.3001,-111.8524,653.2,325.2,96.1,4.9,-2.1,16.31,29.77,697.5859,139.9887],
    [10537,1525548702,57.3,-111.8514,654.1,327.1,93.1,5.0,-2.0,16.27,29.55,697.7551,139.998],
    [10538,1525548703,57.3,-111.8503,654.3,328.3,90.8,4.8,-2.0,16.69,28.88,697.9349,139.9992],
    [10539,1525548704,57.3,-111.8493,653.7,327.7,87.1,5.6,-2.0,16.34,29.77,698.1101,140.0055],
    [10540,1525548705,57.3,-111.8482,654.3,329.3,83.7,4.9,-2.4,16.43,30.32,697.963,139.9938],
    [10541,1525548706,57.3,-111.8471,653.4,328.4,80.7,4.9,-3.9,16.42,30.01,697.8888,139.9958],
    [10542,1525548707,57.3001,-111.8461,651.5,327.5,78.8,4.5,-5.0,16.38,29.84,697.807,139.9924],
    [10543,1525548708,57.3001,-111.8451,649.1,325.1,78.4,4.5,-4.6,16.38,29.93,697.922,139.987],
    [10544,1525548709,57.3002,-111.844,647.3,324.3,79.9,5.1,-2.6,16.35,29.93,698.0005,140.0048],
    [10545,1525548710,57.3003,-111.8429,647.9,324.9,80.5,5.5,-1.9,16.43,29.88,698.0924,139.9976],
    [10546,1525548711,57.3004,-111.8419,649.3,327.3,81.2,5.5,-1.4,16.31,29.54,697.9956,140.0043],
    [10547,1525548712,57.3004,-111.8407,649.5,327.5,81.4,5.4,-1.3,16.23,30.32,697.9342,139.9963],
    [10548,1525548713,57.3005,-111.8397,649.3,328.3,82.0,4.4,-1.3,16.42,29.84,698.0599,140.0081],
    [10549,1525548714,57.3006,-111.8386,648.1,327.1,81.4,4.0,-2.3,16.09,29.78,698.1615,139.9947],
    [10550,1525548715,57.3006,-111.8375,647.1,326.1,81.7,4.6,-2.3,15.87,29.78,698.082,139.9991],
    [10551,1525548716,57.3007,-111.8364,647.5,326.5,81.7,5.8,-2.5,16.37,29.92,697.82,139.9853],
    [10552,1525548717,57.3007,-111.8353,648.5,327.5,83.6,7.8,-0.6,16.37,29.76,697.6485,139.9932],
    [10553,1525548718,57.3008,-111.8341,647.8,326.8,83.9,8.0,-0.8,16.4,29.82,697.5929,139.9895],
    [10554,1525548719,57.3008,-111.833,646.9,325.9,84.9,7.3,0.0,16.02,29.88,697.5311,140.0045],
    [10555,1525548720,57.3009,-111.8318,646.4,326.4,85.8,6.9,0.5,16.31,29.67,697.4308,139.9918],
    [10556,1525548721,57.3009,-111.8307,647.9,327.9,84.4,5.4,-1.1,16.39,29.57,697.4769,140.0069],
    [10557,1525548722,57.301,-111.8296,650.4,330.4,84.2,4.4,-1.4,15.92,29.49,697.4927,140.0014],
    [10558,1525548723,57.301,-111.8283,652.2,332.2,84.5,4.8,-1.2,16.54,29.46,697.4672,140.0046],
    [10559,1525548724,57.3011,-111.8272,653.2,333.2,84.6,4.7,-1.4,16.5,29.49,697.4055,139.9969],
    [10560,1525548725,57.3011,-111.826,653.9,333.9,86.4,4.6,0.0,16.58,29.79,697.3605,139.9984],
    [10561,1525548726,57.3012,-111.8249,654.0,334.0,87.4,4.5,0.3,16.39,29.69,697.3127,139.9984],
    [10562,1525548727,57.3012,-111.8237,653.9,333.9,88.0,5.8,0.1,16.08,29.62,697.2068,139.9955],
    [10563,1525548728,57.3012,-111.8225,654.1,334.1,87.4,6.5,-1.1,16.78,29.47,697.1865,139.9954],
    [10564,1525548729,57.3012,-111.8213,654.8,335.8,86.3,6.6,-1.9,16.32,29.64,697.1456,139.9956],
    [10565,1525548730,57.3012,-111.8202,655.5,336.5,86.7,6.8,-1.9,16.74,29.92,697.0721,139.9912],
    [10566,1525548731,57.3012,-111.819,656.2,338.2,86.4,6.4,-2.4,16.26,29.76,697.0908,140.0134],
    [10567,1525548732,57.3013,-111.8178,656.9,339.9,87.1,6.2,-1.7,16.35,29.43,697.1724,139.9885],
    [10568,1525548733,57.3013,-111.8166,657.6,341.6,86.7,6.2,-1.9,16.32,30.25,697.2158,140.0039],
    [10569,1525548734,57.3013,-111.8155,658.2,343.2,85.9,5.8,-2.5,16.38,29.7,697.1141,139.992],
    [10570,1525548735,57.3013,-111.8142,658.6,343.6,86.5,5.1,-1.8,15.95,29.69,697.094,139.9945],
    [10571,1525548736,57.3013,-111.813,658.2,344.2,85.2,5.0,-3.0,16.39,29.97,697.3311,139.9964],
    [10572,1525548737,57.3014,-111.8119,657.6,343.6,85.2,5.1,-2.5,16.1,29.72,697.4185,139.9977],
    [10573,1525548738,57.3014,-111.8107,657.5,343.5,85.9,6.1,-1.5,16.07,29.64,697.5791,139.9984],
    [10574,1525548739,57.3014,-111.8095,657.7,342.7,85.7,6.5,-0.1,16.29,29.63,697.6001,139.9967],
    [10575,1525548740,57.3015,-111.8084,657.5,341.5,84.9,6.3,1.1,16.21,29.68,697.7641,139.9995],
    [10576,1525548741,57.3016,-111.8072,656.4,340.4,79.9,6.3,-1.0,16.15,29.66,697.8368,140.0017],
    [10577,1525548742,57.3017,-111.8059,655.0,339.0,74.8,6.1,-1.6,16.38,29.47,698.0006,140.0011],
    [10578,1525548743,57.3018,-111.8048,653.6,337.6,70.7,6.7,-1.6,15.77,29.7,698.0009,139.9964],
    [10579,1525548744,57.302,-111.8037,652.4,337.4,65.6,6.8,-2.3,16.25,29.86,698.0653,139.9968],
    [10580,1525548745,57.3023,-111.8025,651.4,336.4,61.8,6.5,-1.8,15.6,29.79,698.1428,139.9967],
    [10581,1525548746,57.3026,-111.8015,649.7,335.4,57.3,7.0,-2.0,16.4,29.77,698.1783,139.9963],
    [10582,1525548747,57.3029,-111.8005,648.0,334.0,53.3,7.0,-2.0,15.84,30.02,698.2508,139.9947],
    [10583,1525548748,57.3033,-111.7995,647.3,333.3,49.2,6.9,-2.1,16.53,29.4,698.3843,139.9962],
    [10584,1525548749,57.3036,-111.7985,646.7,332.7,46.6,6.5,-1.6,16.74,29.41,698.5767,139.9965],
    [10585,1525548750,57.304,-111.7977,645.7,332.7,43.1,6.7,-2.4,16.23,29.29,698.7826,140.0011],
    [10586,1525548751,57.3045,-111.7968,644.8,331.8,39.7,6.2,-2.7,16.21,29.49,698.8554,140.0036],
    [10587,1525548752,57.3049,-111.796,643.7,330.7,38.0,5.0,-2.2,16.52,28.81,698.7694,139.9994],
    [10588,1525548753,57.3054,-111.7953,642.1,330.1,34.9,4.6,-3.1,16.17,29.95,698.7685,140.0017],
    [10589,1525548754,57.3059,-111.7946,640.1,328.0,31.5,4.9,-3.0,16.19,29.66,698.8807,139.9989],
    [10590,1525548755,57.3064,-111.794,638.0,327.0,26.9,5.5,-3.3,16.21,29.62,699.0071,139.9974],
    [10591,1525548756,57.3069,-111.7934,636.8,326.7,22.7,5.6,-3.2,15.55,29.54,699.2274,139.9983],
    [10592,1525548757,57.3074,-111.7929,637.0,327.3,18.9,6.0,-3.4,16.7,28.94,699.3236,140.0073],
    [10593,1525548758,57.308,-111.7924,637.2,328.2,15.8,6.1,-3.2,16.04,30.16,699.4122,139.9988],
    [10594,1525548759,57.3086,-111.7921,636.3,326.3,13.0,6.6,-3.1,16.1,29.36,699.3322,140.0036],
    [10595,1525548760,57.3092,-111.7917,634.4,323.3,10.4,6.9,-3.2,15.83,29.27,699.3446,139.9962],
    [10596,1525548761,57.3098,-111.7914,632.4,321.1,8.9,6.3,-3.5,16.49,28.33,699.2782,139.9978],
    [10597,1525548762,57.3103,-111.7912,631.2,319.2,6.9,6.3,-3.5,16.25,28.89,699.4484,139.9955],
    [10598,1525548763,57.3109,-111.7909,630.3,318.6,4.2,6.8,-3.0,16.13,29.26,699.4437,140.0106],
    [10599,1525548764,57.3115,-111.7908,630.4,319.4,360.5,8.0,-3.2,15.83,29.02,699.5945,139.9999],
    [10600,1525548765,57.3121,-111.7906,630.9,319.9,359.4,7.8,-3.0,16.08,29.64,699.576,139.992],
    [10601,1525548766,57.3127,-111.7905,630.8,319.8,358.6,7.8,-2.6,16.04,29.1,699.502,139.9983],
    [10602,1525548767,57.3133,-111.7904,629.9,318.9,357.1,8.5,-2.4,15.85,28.87,699.4073,139.9903],
    [10603,1525548768,57.3138,-111.7904,629.0,318.0,356.1,9.4,-2.2,15.96,29.06,699.5265,140.0015],
    [10604,1525548769,57.3144,-111.7903,628.0,317.0,356.6,8.3,-2.4,16.13,29.77,699.7728,140.0],
    [10605,1525548770,57.3149,-111.7902,627.4,316.4,358.7,5.9,-3.3,16.16,29.68,699.8818,140.0013],
    [10606,1525548771,57.3155,-111.7901,628.1,317.1,357.5,6.6,-2.8,16.33,29.5,700.134,139.9987],
    [10607,1525548772,57.3161,-111.7901,629.4,318.4,357.5,6.3,-2.4,16.73,28.57,700.4862,140.0087],
    [10608,1525548773,57.3167,-111.79,629.1,318.1,356.3,7.0,-2.6,15.99,29.65,700.5664,140.0091],
    [10609,1525548774,57.3173,-111.79,626.4,315.4,354.9,7.6,-2.7,16.44,28.73,700.7271,140.0011],
    [10610,1525548775,57.3179,-111.79,623.7,312.7,352.3,9.7,-2.7,16.53,28.57,700.7553,140.0017],
    [10611,1525548776,57.3185,-111.79,621.2,310.2,351.5,9.6,-2.5,15.72,29.33,700.651,140.0037],
    [10612,1525548777,57.319,-111.79,618.7,307.7,351.7,8.7,-1.8,15.99,29.24,700.41,140.004],
    [10613,1525548778,57.3196,-111.79,616.4,305.4,349.8,10.0,-1.4,16.01,29.29,700.1728,140.0002],
    [10614,1525548779,57.3202,-111.7901,614.6,303.6,349.5,9.7,-1.6,16.06,29.07,699.8981,140.0016],
    [10615,1525548780,57.3208,-111.7901,613.8,302.8,350.8,8.3,-1.7,16.17,29.05,699.8218,140.0107],
    [10616,1525548781,57.3213,-111.7901,614.4,303.4,350.7,8.9,-1.5,16.55,28.84,699.6273,140.0002],
    [10617,1525548782,57.3219,-111.7902,616.0,305.0,351.1,9.1,-1.8,15.98,28.92,699.4728,139.9961],
    [10618,1525548783,57.3225,-111.7902,618.6,308.5,352.2,8.6,-2.1,16.24,28.8,699.0922,140.0116],
    [10619,1525548784,57.323,-111.7902,622.4,312.4,352.8,8.1,-1.4,15.52,28.83,698.9417,139.9809],
    [10620,1525548785,57.3237,-111.7902,625.0,315.0,351.8,9.5,-1.1,16.3,28.73,698.8669,139.9887],
    [10621,1525548786,57.3242,-111.7902,626.9,316.9,351.3,10.2,-1.3,15.71,29.06,698.7763,140.0052],
    [10622,1525548787,57.3248,-111.7902,629.6,319.6,351.9,9.8,-0.1,16.15,29.84,698.7373,139.9891],
    [10623,1525548788,57.3253,-111.7902,632.2,322.2,351.6,10.0,1.6,15.85,29.7,698.8102,140.0019],
    [10624,1525548789,57.3259,-111.7901,634.3,324.3,354.6,6.9,0.0,16.04,30.1,698.7872,140.0067],
    [10625,1525548790,57.3265,-111.7901,635.9,325.9,357.2,5.2,-1.3,16.15,30.43,698.6577,139.9996],
    [10626,1525548791,57.3271,-111.7901,637.1,327.1,355.2,7.1,-1.7,16.21,31.18,698.7507,140.0057],
    [10627,1525548792,57.3276,-111.7901,637.8,327.8,356.6,4.9,-2.1,16.41,30.83,698.8986,139.9804],
    [10628,1525548793,57.3281,-111.79,637.7,327.7,358.4,3.0,-1.7,16.14,31.12,699.1652,140.0044],
    [10629,1525548794,57.3287,-111.79,637.8,327.8,356.0,5.5,-1.8,16.51,31.13,699.5575,140.0037],
    [10630,1525548795,57.3292,-111.79,638.2,328.2,353.1,8.1,-1.1,16.11,31.33,699.6427,140.001],
    [10631,1525548796,57.3298,-111.79,638.0,328.0,352.7,7.8,-1.1,16.09,31.3,699.7546,139.9963],
    [10632,1525548797,57.3304,-111.79,637.0,328.1,354.4,5.8,-0.6,16.13,31.56,699.6576,140.0082],
    [10633,1525548798,57.3309,-111.79,634.1,325.1,355.0,5.5,0.0,16.62,31.17,699.779,139.9913],
    [10634,1525548799,57.3315,-111.79,629.7,322.0,353.0,7.3,-0.1,16.24,31.44,699.8025,139.9954],
    [10635,1525548800,57.332,-111.79,627.4,321.7,352.4,7.2,-0.5,15.77,32.05,699.7012,139.9986],
    [10636,1525548801,57.3326,-111.79,626.8,322.8,354.5,4.6,0.4,15.89,32.93,699.7097,139.9908],
    [10637,1525548802,57.3332,-111.7901,625.7,321.4,353.4,5.9,0.6,16.15,32.33,699.6447,139.9987],
    [10638,1525548803,57.3338,-111.7901,625.5,319.5,352.7,5.9,0.4,16.03,33.34,699.5155,140.0002],
    [10639,1525548804,57.3343,-111.7901,625.5,317.9,354.9,4.2,0.2,15.94,33.22,699.3536,139.994],
    [10640,1525548805,57.3349,-111.7902,625.8,317.0,352.7,6.6,-0.8,16.07,32.64,699.3431,139.9991],
    [10641,1525548806,57.3355,-111.7902,626.1,317.1,354.1,5.0,-2.5,16.15,32.87,699.4555,139.9996],
    [10642,1525548807,57.336,-111.7902,627.0,318.0,355.8,3.7,-2.3,15.87,33.74,699.5171,140.0065],
    [10643,1525548808,57.3366,-111.7902,628.2,319.3,354.5,5.3,-2.2,16.05,33.24,699.5838,140.0032],
    [10644,1525548809,57.3371,-111.7902,629.9,321.9,354.9,4.9,-2.5,15.81,33.69,699.6204,139.9974],
    [10645,1525548810,57.3377,-111.7903,630.5,322.5,355.8,3.9,-2.9,16.36,33.37,699.5207,140.001],
    [10646,1525548811,57.3383,-111.7903,630.4,322.4,356.3,3.1,-2.3,15.87,34.53,699.42,139.9969],
    [10647,1525548812,57.3388,-111.7903,629.7,321.7,355.9,3.6,-1.1,15.9,34.31,699.3764,139.9956],
    [10648,1525548813,57.3394,-111.7903,628.8,320.8,354.4,4.7,-0.8,15.5,34.08,699.1324,139.9925],
    [10649,1525548814,57.3399,-111.7903,628.5,320.5,354.9,4.6,-0.4,15.27,34.27,699.0807,139.998],
    [10650,1525548815,57.3405,-111.7903,629.0,321.0,352.8,7.1,-0.5,15.91,34.29,699.0291,139.9835],
    [10651,1525548816,57.341,-111.7903,630.0,322.0,352.4,7.9,-1.3,15.87,34.56,699.1584,140.0027],
    [10652,1525548817,57.3416,-111.7904,631.0,324.1,352.7,8.2,-2.0,15.7,33.58,699.296,140.0114],
    [10653,1525548818,57.3422,-111.7903,632.6,326.6,352.5,8.7,-1.9,15.66,33.24,699.4894,139.9896],
    [10654,1525548819,57.3427,-111.7903,633.5,328.1,353.0,8.3,-2.1,15.8,32.74,699.4474,139.9992],
    [10655,1525548820,57.3433,-111.7903,633.8,330.1,354.4,6.8,-2.4,15.89,32.22,699.5384,139.9903],
    [10656,1525548821,57.3438,-111.7903,633.1,331.1,354.5,6.8,-2.5,15.8,31.81,699.5438,140.0098],
    [10657,1525548822,57.3443,-111.7903,631.3,330.3,354.0,6.6,-0.7,15.96,31.48,699.5812,139.9973],
    [10658,1525548823,57.3449,-111.7903,629.7,329.7,356.6,3.4,0.2,15.87,31.36,699.5876,139.9953],
    [10659,1525548824,57.3455,-111.7903,628.8,328.8,355.3,4.5,-2.0,15.88,31.44,699.3994,139.9958],
    [10660,1525548825,57.3461,-111.7903,628.5,328.5,354.8,4.3,-0.8,15.82,31.47,699.2013,139.9991],
    [10661,1525548826,57.3466,-111.7904,628.1,328.1,353.9,4.8,0.6,15.87,31.95,698.993,140.001],
    [10662,1525548827,57.3472,-111.7904,627.7,327.7,349.6,7.8,0.6,15.73,31.56,698.7701,139.9972],
    [10663,1525548828,57.3477,-111.7905,628.3,328.2,347.1,8.4,0.1,15.91,31.59,698.6657,139.9975],
    [10664,1525548829,57.3483,-111.7906,629.1,330.2,345.5,8.2,0.1,15.98,31.34,698.5272,140.0091],
    [10665,1525548830,57.3489,-111.7908,631.6,333.6,342.3,8.9,0.2,15.23,31.38,698.2996,140.0068],
    [10666,1525548831,57.3494,-111.791,634.5,335.6,339.6,9.3,0.7,15.69,31.16,697.9993,139.9932],
    [10667,1525548832,57.3499,-111.7912,637.1,337.8,336.6,9.5,0.9,15.95,30.75,697.6958,140.0035],
    [10668,1525548833,57.3504,-111.7915,638.6,338.6,334.6,8.5,0.7,16.09,30.88,697.5317,139.9947],
    [10669,1525548834,57.3509,-111.7918,640.5,339.5,331.3,7.9,0.4,15.56,30.97,697.4949,139.9982],
    [10670,1525548835,57.3514,-111.7922,642.9,341.9,328.3,7.0,0.6,16.43,30.61,697.5029,139.9989],
    [10671,1525548836,57.3519,-111.7927,646.2,344.4,325.0,6.8,0.4,15.85,30.71,697.4449,140.0056],
    [10672,1525548837,57.3523,-111.7932,649.6,347.3,321.2,8.0,0.5,16.09,30.44,697.4867,139.9939],
    [10673,1525548838,57.3528,-111.7937,651.8,348.1,319.6,6.6,-0.6,15.68,31.16,697.2627,139.9941],
    [10674,1525548839,57.3531,-111.7941,653.1,347.7,319.0,5.3,-2.6,15.88,31.17,697.3702,140.0048],
    [10675,1525548840,57.3535,-111.7948,654.2,348.5,317.0,4.0,-3.5,16.38,30.92,697.5233,139.9997],
    [10676,1525548841,57.3539,-111.7956,654.6,348.6,310.0,5.0,-1.6,15.85,31.56,697.68,140.0149],
    [10677,1525548842,57.3542,-111.7963,655.5,349.5,306.0,5.1,-2.5,15.27,31.39,697.7938,139.9966],
    [10678,1525548843,57.3545,-111.7971,655.8,349.8,300.8,7.5,-1.8,16.23,31.32,697.7548,139.9942],
    [10679,1525548844,57.3548,-111.7979,655.2,348.1,295.2,7.7,0.0,15.92,31.37,697.6799,139.9987],
    [10680,1525548845,57.355,-111.7987,653.9,347.0,292.2,7.6,0.1,15.9,31.55,697.6092,139.9978],
    [10681,1525548846,57.3552,-111.7996,651.3,344.6,287.8,7.7,1.1,15.87,31.1,697.6807,139.9997],
    [10682,1525548847,57.3554,-111.8005,649.7,342.7,283.9,7.8,1.1,15.64,30.96,697.6773,140.008],
    [10683,1525548848,57.3555,-111.8014,649.7,342.7,281.6,8.3,0.0,16.56,30.41,697.6721,140.0082],
    [10684,1525548849,57.3556,-111.8023,650.0,341.9,280.8,8.3,-1.2,15.99,30.56,697.7649,139.9982],
    [10685,1525548850,57.3557,-111.8033,650.5,343.2,279.3,8.3,-1.9,15.58,30.89,697.8588,140.0018],
    [10686,1525548851,57.3558,-111.8043,650.3,343.8,278.8,9.2,-3.3,15.88,31.41,697.9509,140.003],
    [10687,1525548852,57.3558,-111.8052,650.4,343.4,277.1,9.1,-3.1,15.77,30.41,697.9237,140.0026],
    [10688,1525548853,57.3559,-111.8061,650.5,344.6,275.9,8.9,-3.4,15.8,30.51,697.8702,140.0068],
    [10689,1525548854,57.3559,-111.8071,649.8,343.9,275.5,8.3,-3.8,15.83,30.56,697.9174,139.9932],
    [10690,1525548855,57.3559,-111.808,648.4,341.5,273.6,8.0,-2.7,15.64,30.14,697.9704,139.9966],
    [10691,1525548856,57.3559,-111.8089,647.0,337.3,272.5,8.3,-2.0,16.16,29.42,697.9606,139.9983],
    [10692,1525548857,57.3559,-111.81,647.1,335.5,271.7,8.7,-1.9,15.95,30.12,697.9472,139.9972],
    [10693,1525548858,57.3559,-111.8109,647.4,334.7,273.2,8.3,-4.2,15.88,29.96,697.9579,140.0104],
    [10694,1525548859,57.3559,-111.8119,647.5,333.9,274.2,8.7,-5.9,16.28,29.63,697.9705,139.997],
    [10695,1525548860,57.3559,-111.8128,647.1,333.5,272.3,9.5,-4.0,16.07,29.85,698.086,139.9959],
    [10696,1525548861,57.3559,-111.8138,647.0,332.0,271.5,9.7,-3.4,16.14,29.74,698.1867,139.9955],
    [10697,1525548862,57.3559,-111.8148,647.1,330.4,272.7,10.0,-4.3,15.78,29.96,698.2216,139.9928],
    [10698,1525548863,57.3559,-111.8157,647.3,330.4,273.2,9.0,-3.6,16.12,29.76,698.2258,140.0074],
    [10699,1525548864,57.3559,-111.8167,647.2,330.3,274.8,8.6,-3.7,15.77,30.44,698.2409,140.0093],
    [10700,1525548865,57.3559,-111.8175,646.5,328.8,277.2,8.6,-4.6,16.0,29.43,698.2035,139.9925],
    [10701,1525548866,57.356,-111.8186,645.1,328.4,278.4,9.0,-3.9,15.92,29.78,698.2282,139.9952],
    [10702,1525548867,57.356,-111.8195,643.9,328.3,280.0,9.3,-3.7,15.88,29.52,698.2061,139.9959],
    [10703,1525548868,57.3561,-111.8205,643.5,328.6,280.6,9.4,-2.5,15.95,30.09,698.2091,139.9955],
    [10704,1525548869,57.3562,-111.8214,643.4,328.4,278.6,9.6,0.3,16.17,29.31,698.0968,140.0076],
    [10705,1525548870,57.3563,-111.8224,643.5,328.5,278.6,8.7,0.6,15.92,29.44,698.0242,139.9993],
    [10706,1525548871,57.3564,-111.8233,644.0,329.0,280.4,8.4,-1.0,16.02,29.32,697.7967,140.0062],
    [10707,1525548872,57.3565,-111.8243,644.2,329.0,281.1,8.6,-1.5,15.86,29.57,697.6634,139.9987],
    [10708,1525548873,57.3566,-111.8252,644.2,328.2,282.2,8.3,-2.4,15.53,29.5,697.5492,139.9978],
    [10709,1525548874,57.3567,-111.8262,644.3,326.6,280.8,9.1,-0.5,15.57,29.51,697.254,140.0048],
    [10710,1525548875,57.3568,-111.8271,645.8,327.1,279.2,10.5,0.6,15.97,30.15,697.0755,140.0043],
    [10711,1525548876,57.3569,-111.828,647.8,328.1,280.6,10.2,-0.5,16.17,29.45,696.893,139.9982],
    [10712,1525548877,57.357,-111.829,649.8,329.8,279.1,10.6,1.4,16.71,28.83,696.9356,139.9954],
    [10713,1525548878,57.3571,-111.8299,651.8,331.1,279.0,11.3,1.0,16.15,29.4,697.0122,140.0049],
    [10714,1525548879,57.3572,-111.8309,654.5,333.4,279.4,10.9,-0.3,15.82,29.29,697.1085,139.9902],
    [10715,1525548880,57.3573,-111.8319,657.1,336.8,278.3,10.3,0.2,15.99,29.45,697.1868,139.9998],
    [10716,1525548881,57.3574,-111.8327,659.0,339.0,278.1,9.3,-0.7,15.55,29.27,697.1384,140.0031],
    [10717,1525548882,57.3575,-111.8336,659.4,339.4,278.4,8.8,-1.9,15.88,29.93,697.1392,140.0062],
    [10718,1525548883,57.3575,-111.8346,658.6,338.6,275.2,9.7,0.4,15.91,29.75,697.0637,140.0012],
    [10719,1525548884,57.3576,-111.8356,657.5,336.5,274.4,10.1,-0.5,16.0,30.34,696.9321,140.0002],
    [10720,1525548885,57.3576,-111.8365,656.8,335.8,274.5,10.3,-1.7,16.18,29.19,696.7192,140.0011],
    [10721,1525548886,57.3577,-111.8375,656.8,334.8,272.4,10.6,-0.6,15.53,29.2,696.6935,139.9945],
    [10722,1525548887,57.3577,-111.8384,657.2,335.1,271.5,10.8,-0.7,16.46,28.74,696.6708,139.9962],
    [10723,1525548888,57.3577,-111.8393,657.8,335.8,270.7,10.2,-0.5,16.37,28.71,696.7004,140.006],
    [10724,1525548889,57.3577,-111.8403,659.6,337.6,271.2,9.6,-1.3,15.4,29.2,696.7393,140.0075],
    [10725,1525548890,57.3577,-111.8412,661.0,338.0,270.5,9.3,-0.4,15.99,29.12,696.7307,139.993],
    [10726,1525548891,57.3577,-111.8421,662.3,339.3,269.9,9.5,-0.1,15.52,29.22,696.7375,139.9949],
    [10727,1525548892,57.3577,-111.8431,662.9,338.7,270.9,9.4,-1.2,15.95,29.51,696.7247,139.9996],
    [10728,1525548893,57.3577,-111.844,662.9,338.9,269.7,9.3,0.1,15.52,28.93,696.7358,140.0056],
    [10729,1525548894,57.3577,-111.845,662.8,338.9,269.3,8.6,-0.2,16.08,28.81,696.6018,140.0094],
    [10730,1525548895,57.3577,-111.8458,662.7,338.4,269.8,8.0,-1.2,16.57,28.56,696.5082,140.0081],
    [10731,1525548896,57.3576,-111.8468,662.4,336.7,269.2,9.1,-0.8,16.02,29.0,696.2928,139.9945],
    [10732,1525548897,57.3576,-111.8477,662.2,335.6,269.3,9.7,-1.8,15.97,29.06,696.0372,140.0051],
    [10733,1525548898,57.3576,-111.8487,662.6,334.6,268.8,8.9,-2.8,16.01,29.3,695.8248,140.0008],
    [10734,1525548899,57.3575,-111.8496,663.7,334.7,264.1,8.3,-0.8,16.13,28.71,695.7569,139.9998],
    [10735,1525548900,57.3575,-111.8504,665.5,335.5,258.8,8.7,0.8,15.98,29.57,695.3542,140.0009],
    [10736,1525548901,57.3573,-111.8513,668.0,338.0,255.9,9.4,-0.6,16.04,28.75,695.0255,139.9995],
    [10737,1525548902,57.3572,-111.8522,670.6,341.6,251.2,9.3,0.0,15.33,29.0,695.1461,139.9962],
    [10738,1525548903,57.357,-111.853,673.3,344.3,246.1,9.0,0.8,15.9,28.86,695.1942,139.9966],
    [10739,1525548904,57.3567,-111.8538,675.9,346.9,242.8,9.8,-0.6,16.16,29.29,695.1249,140.0082],
    [10740,1525548905,57.3564,-111.8546,678.5,349.5,238.2,10.1,0.1,15.73,29.08,695.1576,140.0066],
    [10741,1525548906,57.3561,-111.8553,681.0,351.0,233.2,10.4,0.8,15.94,29.05,695.1091,140.0038],
    [10742,1525548907,57.3558,-111.8558,681.5,350.6,233.3,13.1,-0.5,16.1,28.82,694.9578,140.002],
    [10743,1525548908,57.3554,-111.8565,681.0,349.0,229.7,13.0,-0.7,15.85,29.34,694.955,139.9999],
    [10744,1525548909,57.355,-111.8571,681.3,348.3,224.0,12.2,0.9,15.91,28.88,694.9335,139.9927],
    [10745,1525548910,57.3546,-111.8576,681.8,348.8,222.6,13.3,-0.6,15.86,29.71,695.0056,140.0035],
    [10746,1525548911,57.3541,-111.8581,682.6,348.9,217.7,11.7,0.2,16.19,28.88,695.1393,139.9978],
    [10747,1525548912,57.3537,-111.8585,683.6,349.6,213.5,11.1,0.7,15.48,29.07,695.2135,140.003],
    [10748,1525548913,57.3532,-111.8589,684.1,350.2,211.7,12.2,0.4,16.37,28.65,695.364,139.9999],
    [10749,1525548914,57.3527,-111.8592,684.2,349.2,207.3,10.5,1.3,15.81,29.09,695.4597,139.9942],
    [10750,1525548915,57.3522,-111.8595,683.5,348.5,204.4,10.0,1.3,15.7,29.15,695.607,140.0051],
    [10751,1525548916,57.3517,-111.8598,682.5,347.5,202.8,9.8,0.3,15.49,29.23,695.7715,139.9982],
    [10752,1525548917,57.3512,-111.86,681.5,347.6,200.0,8.6,0.3,15.37,29.21,695.846,140.0017],
    [10753,1525548918,57.3506,-111.8602,679.9,346.7,198.8,8.4,0.3,15.84,29.24,695.9774,140.0011],
    [10754,1525548919,57.3501,-111.8604,678.4,345.3,199.4,9.0,-0.6,16.16,29.53,695.9353,139.9928],
    [10755,1525548920,57.3496,-111.8606,676.8,344.8,200.2,9.0,-1.0,15.99,29.61,695.9966,140.0019],
    [10756,1525548921,57.349,-111.8608,675.1,343.2,199.6,7.7,-0.8,16.12,30.05,695.9499,139.9997],
    [10757,1525548922,57.3485,-111.8611,673.3,340.3,200.7,7.9,-0.9,15.84,29.93,695.9578,140.0044],
    [10758,1525548923,57.3479,-111.8613,672.1,338.1,202.7,9.0,-1.6,16.09,30.1,695.9984,140.0008],
    [10759,1525548924,57.3474,-111.8616,671.6,336.6,203.8,9.7,-2.1,15.9,30.09,696.1359,139.9998],
    [10760,1525548925,57.3469,-111.8618,671.4,336.5,203.5,9.8,-1.5,16.0,30.29,696.0754,140.0044],
    [10761,1525548926,57.3463,-111.8621,671.9,335.9,202.8,9.2,-2.0,15.79,30.11,696.1165,139.999],
    [10762,1525548927,57.3458,-111.8624,672.0,336.0,202.2,8.6,-2.6,15.93,30.28,696.0391,140.0021],
    [10763,1525548928,57.3452,-111.8626,671.1,335.1,202.5,9.5,-3.0,15.67,29.84,696.13,139.9944],
    [10764,1525548929,57.3447,-111.8628,670.1,334.1,202.9,10.3,-3.5,15.3,29.89,696.1392,140.0004],
    [10765,1525548930,57.3441,-111.8631,670.0,335.0,201.9,10.1,-4.2,15.91,29.99,696.1525,139.9924],
    [10766,1525548931,57.3435,-111.8633,669.9,336.0,201.0,10.2,-4.1,16.24,29.56,696.0697,139.9958],
    [10767,1525548932,57.343,-111.8635,670.2,337.2,198.6,9.3,-3.3,15.78,30.11,696.1501,139.9966],
    [10768,1525548933,57.3424,-111.8636,670.0,337.9,199.2,11.5,-3.5,16.02,30.22,696.2979,139.998],
    [10769,1525548934,57.3419,-111.8638,669.7,338.7,199.6,13.0,-3.9,15.7,29.44,696.422,139.9985],
    [10770,1525548935,57.3413,-111.8639,669.3,339.3,197.1,12.3,-3.1,15.49,29.59,696.423,139.991],
    [10771,1525548936,57.3407,-111.864,669.4,339.3,195.1,12.3,-2.7,15.78,29.63,696.5529,140.0064],
    [10772,1525548937,57.3401,-111.8641,668.7,339.7,191.6,11.0,-1.8,15.69,29.43,696.4996,140.0034],
    [10773,1525548938,57.3395,-111.8641,667.5,338.5,189.5,11.2,-1.1,16.5,29.02,696.4817,139.9974],
    [10774,1525548939,57.339,-111.864,666.3,336.3,187.7,11.0,-1.8,16.14,29.42,696.5338,139.9917],
    [10775,1525548940,57.3383,-111.864,665.7,335.7,185.7,10.1,-1.0,16.07,29.34,696.5728,140.0043],
    [10776,1525548941,57.3378,-111.8639,664.9,333.9,183.8,8.2,-0.4,16.26,28.87,696.6227,139.996],
    [10777,1525548942,57.3372,-111.8639,664.8,332.8,182.2,6.0,-1.0,15.63,29.36,696.6815,140.0026],
    [10778,1525548943,57.3366,-111.8638,665.2,333.2,183.8,6.9,-0.4,15.67,29.37,696.7036,140.0015],
    [10779,1525548944,57.336,-111.8638,664.8,332.8,185.6,7.5,-0.4,15.9,29.43,696.7122,140.0007],
    [10780,1525548945,57.3354,-111.8638,664.1,331.1,186.1,6.7,-0.4,15.37,29.43,696.6305,140.006],
    [10781,1525548946,57.3348,-111.8638,663.6,330.6,187.3,6.8,-0.6,15.69,29.62,696.5563,139.9889],
    [10782,1525548947,57.3342,-111.8638,663.1,330.1,187.6,6.4,-0.6,15.64,29.35,696.3625,139.998],
    [10783,1525548948,57.3336,-111.8639,662.7,329.7,188.7,7.1,-0.8,16.26,29.08,696.0795,140.0012],
    [10784,1525548949,57.333,-111.8639,662.8,329.8,189.1,7.1,-1.5,15.26,29.39,695.9082,139.9981],
    [10785,1525548950,57.3325,-111.864,663.4,330.4,190.0,8.5,-1.3,15.53,29.54,695.8304,140.001],
    [10786,1525548951,57.3319,-111.864,663.8,330.8,191.5,10.4,-0.6,15.6,29.3,695.9861,139.9881],
    [10787,1525548952,57.3313,-111.8641,666.5,334.6,188.6,7.6,0.3,15.87,29.24,696.0376,139.9974],
    [10788,1525548953,57.3307,-111.8641,669.6,336.9,187.6,6.9,-0.4,15.33,29.31,695.995,139.9974],
    [10789,1525548954,57.3301,-111.8641,671.8,338.8,189.1,8.6,-1.1,16.04,29.37,696.0764,139.9937],
    [10790,1525548955,57.3296,-111.8641,671.8,338.8,188.3,7.8,0.3,16.04,29.27,696.0336,140.0056],
    [10791,1525548956,57.329,-111.8642,671.5,338.5,188.5,8.8,1.4,16.03,29.16,696.1728,139.9882],
    [10792,1525548957,57.3284,-111.8642,670.8,337.8,189.3,9.2,0.8,16.17,29.58,696.2321,139.9986],
    [10793,1525548958,57.3278,-111.8642,670.6,337.6,187.5,7.6,1.6,15.92,29.18,696.341,140.0052],
    [10794,1525548959,57.3272,-111.8642,670.2,336.5,188.8,9.1,1.1,15.87,29.45,696.362,140.0013],
    [10795,1525548960,57.3267,-111.8642,669.9,335.9,187.9,8.2,0.6,15.94,29.91,696.2956,139.9974],
    [10796,1525548961,57.3261,-111.8642,669.1,335.1,187.4,8.4,1.0,15.84,29.55,696.309,140.0005],
    [10797,1525548962,57.3255,-111.8642,668.1,334.1,189.2,10.6,1.0,16.6,29.02,696.2587,139.9946],
    [10798,1525548963,57.3249,-111.8642,667.2,333.2,190.0,11.4,-0.2,15.71,29.53,696.4062,139.9984],
    [10799,1525548964,57.3243,-111.8642,666.5,332.8,190.4,11.6,-0.3,16.01,29.18,696.4249,140.0],
    [10800,1525548965,57.3238,-111.8643,666.8,333.8,191.6,12.4,-0.1,16.52,28.83,696.508,140.0036],
    [10801,1525548966,57.3232,-111.8643,667.0,335.7,192.2,12.3,0.0,15.83,29.49,696.6452,139.997],
    [10802,1525548967,57.3226,-111.8643,667.0,336.3,192.0,11.7,0.4,15.9,29.25,696.8385,140.0028],
    [10803,1525548968,57.322,-111.8643,666.5,336.5,192.0,11.6,1.4,15.73,29.1,697.1505,140.0042],
    [10804,1525548969,57.3214,-111.8644,665.7,334.7,190.7,10.3,1.2,16.38,28.46,697.3572,140.003],
    [10805,1525548970,57.3209,-111.8644,664.9,333.0,190.1,10.3,1.0,15.65,28.84,697.3886,140.0029],
    [10806,1525548971,57.3203,-111.8644,663.1,330.1,191.3,11.5,0.4,15.78,29.32,697.3951,139.9997],
    [10807,1525548972,57.3197,-111.8644,660.9,326.9,190.8,11.0,0.4,15.92,29.31,697.2313,139.9975],
    [10808,1525548973,57.3193,-111.8645,658.7,324.7,191.2,11.4,0.9,15.78,29.01,697.2819,139.9989],
    [10809,1525548974,57.3186,-111.8645,655.5,322.5,190.1,10.3,0.7,16.28,28.41,697.2678,139.9985],
    [10810,1525548975,57.318,-111.8645,654.5,321.5,189.5,10.3,0.4,15.78,28.96,697.3586,139.9891],
    [10811,1525548976,57.3175,-111.8645,655.2,322.2,189.5,10.4,0.2,15.89,28.67,697.3797,140.0018],
    [10812,1525548977,57.3169,-111.8645,655.8,322.5,189.6,11.0,0.7,15.51,28.86,697.4139,139.9973],
    [10813,1525548978,57.3163,-111.8645,655.6,321.6,189.4,10.7,0.2,16.13,28.32,697.4314,139.9977],
    [10814,1525548979,57.3157,-111.8645,655.5,321.5,188.0,9.8,0.2,15.78,29.31,697.2541,139.996],
    [10815,1525548980,57.3152,-111.8645,655.1,321.1,188.5,10.5,0.4,15.64,28.72,697.118,140.0062],
    [10816,1525548981,57.3146,-111.8645,654.7,320.7,188.7,10.9,1.0,15.76,28.84,697.1102,140.0043],
    [10817,1525548982,57.314,-111.8644,654.3,319.3,189.4,11.5,0.9,15.8,28.99,696.9853,140.0155],
    [10818,1525548983,57.3135,-111.8644,654.1,319.1,189.6,11.7,1.6,16.29,28.19,696.7383,140.0064],
    [10819,1525548984,57.3129,-111.8644,654.8,319.8,189.5,11.6,2.3,15.88,28.68,696.3666,139.9988],
    [10820,1525548985,57.3123,-111.8644,656.6,321.6,189.2,11.8,2.4,16.25,28.02,695.9575,140.009],
    [10821,1525548986,57.3118,-111.8644,658.1,323.1,188.6,12.1,1.7,15.77,29.28,695.592,140.0004],
    [10822,1525548987,57.3112,-111.8643,659.6,324.6,187.0,12.3,1.1,16.08,28.1,695.1424,139.9986],
    [10823,1525548988,57.3106,-111.8642,662.4,327.4,184.5,12.2,1.1,15.89,28.58,694.8036,139.9999],
    [10824,1525548989,57.3101,-111.8641,667.5,332.5,180.8,11.3,0.3,16.25,28.14,694.1521,139.9922],
    [10825,1525548990,57.3095,-111.8639,672.9,338.9,178.0,11.5,0.0,15.64,28.93,693.8625,139.9998],
    [10826,1525548991,57.309,-111.8636,677.9,344.6,175.9,12.2,0.2,15.88,28.71,693.1035,139.9912],
    [10827,1525548992,57.3085,-111.8633,682.6,350.5,171.8,11.5,0.4,16.02,28.85,692.8497,139.9932],
    [10828,1525548993,57.3079,-111.863,687.2,355.2,168.1,11.1,1.5,16.01,28.35,692.8679,140.0028],
    [10829,1525548994,57.3074,-111.8625,692.5,360.8,163.5,10.2,3.0,15.92,28.84,692.8508,140.0033],
    [10830,1525548995,57.307,-111.8621,699.2,368.2,157.9,9.2,0.8,15.69,28.62,693.0271,140.005],
    [10831,1525548996,57.3065,-111.8615,705.5,375.5,153.4,9.2,0.5,16.01,28.89,692.9265,139.9971],
    [10832,1525548997,57.3061,-111.8609,710.2,380.2,151.6,10.9,0.1,16.0,29.17,692.8509,139.9944],
    [10833,1525548998,57.3056,-111.8603,712.0,382.0,148.6,11.1,-0.5,16.44,28.43,692.7941,139.9939],
    [10834,1525548999,57.3052,-111.8596,711.7,381.7,143.6,10.5,-1.6,16.51,28.62,692.5191,139.9927],
    [10835,1525549000,57.3048,-111.8589,710.4,380.4,138.0,9.7,-2.6,15.9,29.59,692.3462,139.9919],
    [10836,1525549001,57.3044,-111.8581,710.0,379.7,133.4,9.2,-2.8,16.54,28.66,692.3953,139.9954],
    [10837,1525549002,57.3041,-111.8572,710.7,380.5,130.6,9.2,-2.3,16.01,29.1,692.4326,139.9885],
    [10838,1525549003,57.3038,-111.8564,712.3,382.3,130.4,10.8,-1.2,16.61,28.9,692.7278,140.0062],
    [10839,1525549004,57.3034,-111.8555,714.2,384.2,127.4,10.5,-2.7,16.38,29.07,692.8144,140.0033],
    [10840,1525549005,57.3031,-111.8546,715.9,386.9,123.1,8.6,-4.1,16.11,29.08,692.7029,139.9849],
    [10841,1525549006,57.3028,-111.8537,716.6,387.6,121.9,8.7,-3.7,15.91,29.56,692.7338,140.0013],
    [10842,1525549007,57.3025,-111.8527,715.8,387.8,120.9,8.0,-2.8,16.06,29.3,692.8442,139.9978],
    [10843,1525549008,57.3023,-111.8518,713.5,386.5,118.5,6.7,-2.9,16.01,28.73,692.7782,139.9945],
    [10844,1525549009,57.302,-111.8508,711.9,385.9,116.2,8.0,-2.7,16.17,28.94,692.7114,139.9978],
    [10845,1525549010,57.3017,-111.8498,712.5,386.5,114.6,8.3,-2.0,15.65,30.0,692.8037,139.996],
    [10846,1525549011,57.3015,-111.8487,712.4,387.1,111.5,8.0,-2.3,15.64,29.63,692.8967,140.006],
    [10847,1525549012,57.3013,-111.8477,711.6,386.6,109.3,9.0,-1.6,16.04,29.47,693.0547,140.0077],
    [10848,1525549013,57.3011,-111.8466,711.3,387.3,105.1,8.7,-1.7,15.87,29.62,693.1893,139.9987],
    [10849,1525549014,57.301,-111.8455,711.7,387.7,100.9,8.3,-1.3,16.15,29.53,693.2676,140.0008],
    [10850,1525549015,57.3009,-111.8444,711.7,388.7,98.6,9.8,-1.0,16.37,29.21,693.4577,139.9959],
    [10851,1525549016,57.3008,-111.8432,710.6,387.6,93.2,11.0,-4.8,15.69,29.54,693.4892,139.9998],
    [10852,1525549017,57.3008,-111.8421,708.4,386.4,87.3,10.2,-8.1,15.75,29.95,693.4039,139.995],
    [10853,1525549018,57.3007,-111.841,706.9,384.9,85.7,10.0,-7.7,15.8,30.06,693.3938,140.0017],
    [10854,1525549019,57.3007,-111.8398,706.0,385.0,86.3,10.6,-5.5,15.74,30.05,693.4446,139.9954],
    [10855,1525549020,57.3007,-111.8387,704.6,383.6,87.8,11.3,-3.2,15.85,29.72,693.2045,140.0025],
    [10856,1525549021,57.3007,-111.8375,703.6,382.6,87.8,10.0,-2.6,15.91,29.82,693.1934,139.9893],
    [10857,1525549022,57.3007,-111.8364,703.1,382.1,87.3,9.2,-2.6,15.22,29.75,693.0552,139.9964],
    [10858,1525549023,57.3007,-111.8352,703.5,382.5,86.8,8.5,-1.8,15.53,30.4,693.0109,139.9951],
    [10859,1525549024,57.3007,-111.834,703.7,382.7,87.8,7.9,0.0,15.66,29.79,693.0535,140.0046],
    [10860,1525549025,57.3007,-111.8329,704.6,383.6,86.3,7.6,-1.0,15.86,29.64,692.9835,139.993],
    [10861,1525549026,57.3008,-111.8317,705.7,385.3,86.2,7.1,-0.5,16.5,29.22,692.8805,139.9837],
    [10862,1525549027,57.3008,-111.8305,706.9,386.9,86.3,7.0,-0.3,15.76,29.83,692.2573,139.9945],
    [10863,1525549028,57.3008,-111.8294,707.7,387.7,86.3,7.3,-0.1,15.87,29.98,691.991,139.9899],
    [10864,1525549029,57.3009,-111.8282,707.5,387.5,85.6,7.5,-1.1,15.41,29.73,691.681,139.9849],
    [10865,1525549030,57.3009,-111.827,707.1,387.1,84.4,6.2,-1.4,15.56,29.69,691.5662,139.9936],
    [10866,1525549031,57.301,-111.8259,709.9,389.9,85.1,4.7,-0.4,15.59,29.74,692.1627,139.9901],
    [10867,1525549032,57.301,-111.8248,714.6,394.6,84.1,5.2,-1.1,15.69,29.8,692.4055,139.9978],
    [10868,1525549033,57.301,-111.8236,719.1,399.1,86.2,5.5,0.8,15.77,29.79,692.9488,140.0055],
    [10869,1525549034,57.3011,-111.8224,722.2,402.2,87.9,6.0,2.0,16.1,29.92,693.1014,139.9938],
    [10870,1525549035,57.3011,-111.8213,723.0,404.0,86.8,5.7,0.1,15.89,29.76,693.3633,140.0027],
    [10871,1525549036,57.3012,-111.8201,719.7,400.7,85.3,5.5,-1.7,15.47,29.97,693.4047,140.0088],
    [10872,1525549037,57.3012,-111.8189,714.4,396.4,86.3,4.9,-1.0,15.73,30.23,693.8239,140.0048],
    [10873,1525549038,57.3012,-111.8178,709.3,392.3,86.7,5.1,-1.1,15.71,30.2,693.977,140.0071],
    [10874,1525549039,57.3012,-111.8165,705.7,389.7,87.0,5.0,-1.0,15.76,30.08,694.2368,140.0077],
    [10875,1525549040,57.3013,-111.8153,703.1,388.1,87.9,4.6,-0.8,15.82,30.87,694.3989,140.007],
    [10876,1525549041,57.3013,-111.8141,700.6,386.3,86.8,5.6,-2.5,15.7,30.01,694.4685,139.9922],
    [10877,1525549042,57.3013,-111.8128,697.8,383.8,87.3,6.9,-2.0,15.61,30.09,694.4219,140.0],
    [10878,1525549043,57.3013,-111.8116,695.5,381.5,87.4,7.5,-1.5,15.64,30.13,694.2973,139.9989],
    [10879,1525549044,57.3013,-111.8104,693.3,379.3,86.1,7.4,-1.3,15.41,30.11,694.2407,140.0051],
    [10880,1525549045,57.3014,-111.8092,691.1,376.1,83.0,7.6,-1.6,15.8,30.84,694.1221,140.004],
    [10881,1525549046,57.3014,-111.808,689.8,373.8,79.4,7.1,-1.8,15.84,29.99,693.971,140.001],
    [10882,1525549047,57.3016,-111.8067,689.6,373.6,75.4,5.8,-2.6,16.38,29.87,693.8145,139.9957],
    [10883,1525549048,57.3017,-111.8055,690.4,374.4,72.5,4.4,-2.1,15.74,30.29,693.8867,139.9972],
    [10884,1525549049,57.3019,-111.8044,691.3,376.3,70.0,4.9,-0.9,15.84,29.91,694.0746,139.9966],
    [10885,1525549050,57.3021,-111.8032,693.0,378.0,65.8,6.2,-1.1,15.73,29.86,694.2688,140.0004],
    [10886,1525549051,57.3024,-111.8022,694.9,379.9,61.8,6.5,-1.5,15.81,30.6,694.3353,140.003],
    [10887,1525549052,57.3026,-111.8011,696.5,382.5,59.1,5.4,-1.0,15.52,29.98,694.5082,139.9953],
    [10888,1525549053,57.303,-111.8001,696.7,382.7,54.3,6.4,-2.0,15.98,29.88,694.6135,140.0007],
    [10889,1525549054,57.3033,-111.7991,695.3,381.3,49.2,6.5,-3.3,15.9,29.93,694.6696,140.0005],
    [10890,1525549055,57.3037,-111.7982,693.3,379.3,45.3,6.4,-2.8,15.62,30.11,694.7466,139.9989],
    [10891,1525549056,57.3041,-111.7973,691.2,378.2,39.9,7.1,-3.6,15.68,29.89,694.8586,139.9981],
    [10892,1525549057,57.3045,-111.7965,689.5,376.5,36.5,6.5,-3.7,16.14,29.58,695.074,140.0022],
    [10893,1525549058,57.305,-111.7958,688.3,375.3,33.5,6.4,-3.6,15.75,29.89,695.2607,140.0024],
    [10894,1525549059,57.3055,-111.7951,687.4,375.4,30.8,6.4,-3.6,15.81,30.08,695.3413,140.0075],
    [10895,1525549060,57.3059,-111.7945,686.5,374.4,28.2,6.4,-3.6,15.7,29.95,695.2729,139.9997],
    [10896,1525549061,57.3065,-111.7938,685.3,374.6,25.6,6.5,-3.5,15.75,29.9,695.2373,139.9998],
    [10897,1525549062,57.307,-111.7933,683.4,373.4,23.3,6.5,-3.5,15.89,29.89,695.2831,140.0],
    [10898,1525549063,57.3075,-111.7928,681.0,372.0,21.4,5.3,-2.9,15.75,29.93,695.4011,140.0],
    [10899,1525549064,57.308,-111.7923,679.9,370.9,17.8,5.7,-2.1,15.72,29.94,695.5884,140.0026],
    [10900,1525549065,57.3086,-111.7919,680.4,370.7,14.2,6.2,-2.2,15.66,30.13,695.7615,140.0051],
    [10901,1525549066,57.3091,-111.7916,681.0,370.9,12.0,5.7,-2.0,15.76,30.19,695.9169,140.0033],
    [10902,1525549067,57.3097,-111.7913,680.6,369.6,9.5,6.0,-1.3,16.28,29.73,696.1204,139.9998],
    [10903,1525549068,57.3102,-111.791,679.2,368.2,5.7,7.6,-1.4,15.69,30.04,696.2585,140.0018],
    [10904,1525549069,57.3108,-111.7908,677.3,366.3,3.3,7.7,-1.6,15.92,29.84,696.3634,140.0016],
    [10905,1525549070,57.3113,-111.7907,675.3,364.3,361.5,7.5,-1.8,15.82,29.97,696.428,140.0051],
    [10906,1525549071,57.3119,-111.7905,673.4,362.4,359.1,8.1,-1.5,15.55,29.83,696.4126,140.0005],
    [10907,1525549072,57.3125,-111.7904,671.2,360.2,357.6,7.8,-1.0,15.55,29.91,696.3122,139.994],
    [10908,1525549073,57.313,-111.7904,669.3,358.3,355.2,8.4,-1.6,15.67,30.73,696.232,140.0163],
    [10909,1525549074,57.3136,-111.7903,667.7,356.7,354.5,7.7,-2.1,15.83,30.22,695.9301,140.0007],
    [10910,1525549075,57.3142,-111.7903,666.5,355.5,354.4,7.1,-2.2,15.21,29.82,695.3661,139.9959],
    [10911,1525549076,57.3147,-111.7903,666.3,355.3,353.9,7.5,-1.9,15.27,29.82,695.2174,139.9957],
    [10912,1525549077,57.3152,-111.7903,667.3,356.3,353.5,7.4,-2.0,15.72,29.65,694.9496,139.9926],
    [10913,1525549078,57.3158,-111.7903,668.5,357.5,353.3,6.5,-1.6,15.9,29.35,694.8405,139.9884],
    [10914,1525549079,57.3164,-111.7903,671.3,360.3,350.9,7.5,-1.4,15.64,30.41,694.8744,140.0039],
    [10915,1525549080,57.3169,-111.7904,675.6,364.6,349.6,8.1,-2.4,15.55,29.95,694.9141,140.0006],
    [10916,1525549081,57.3175,-111.7904,680.1,369.1,349.2,8.1,-2.9,15.92,29.71,694.8749,140.0031],
    [10917,1525549082,57.318,-111.7905,683.2,372.2,349.1,7.9,-3.4,15.73,29.72,694.8793,139.9961],
    [10918,1525549083,57.3185,-111.7906,685.1,374.1,349.3,7.7,-3.7,16.25,29.55,694.9188,140.0025],
    [10919,1525549084,57.319,-111.7906,685.4,374.4,348.7,8.0,-3.4,15.87,29.44,695.0759,140.0042],
    [10920,1525549085,57.3196,-111.7907,685.1,374.1,348.9,7.7,-2.5,15.7,29.77,695.2432,139.9992],
    [10921,1525549086,57.3201,-111.7908,685.2,374.2,349.2,7.6,-1.5,16.02,29.74,695.3099,140.004],
    [10922,1525549087,57.3206,-111.7908,685.3,374.3,350.2,7.4,-1.4,15.29,29.92,695.2795,140.0034],
    [10923,1525549088,57.3211,-111.7909,684.7,373.7,350.3,8.1,-0.9,15.75,29.55,695.1567,140.0091],
    [10924,1525549089,57.3215,-111.7909,683.6,372.6,350.3,8.9,-1.0,16.3,29.82,695.0206,139.9928],
    [10925,1525549090,57.3222,-111.7909,682.1,371.1,352.2,7.8,-0.8,15.79,29.96,694.8603,140.0012],
    [10926,1525549091,57.3228,-111.7909,680.8,369.8,353.5,7.5,-0.9,16.09,30.07,694.7875,139.9931],
    [10927,1525549092,57.3233,-111.7909,681.0,370.0,353.1,8.6,-0.9,15.92,30.02,694.7312,139.9976],
    [10928,1525549093,57.3238,-111.7909,682.0,372.1,352.3,9.6,-1.0,15.43,30.27,694.6996,140.0026],
    [10929,1525549094,57.3244,-111.7909,683.7,373.7,351.9,9.8,-1.0,15.79,30.07,694.746,139.9987],
    [10930,1525549095,57.3249,-111.7908,685.3,375.3,351.1,10.4,-1.4,15.61,30.2,694.8187,140.0003],
    [10931,1525549096,57.3254,-111.7908,686.6,376.6,351.1,9.8,-1.8,15.74,31.0,694.8686,140.0055],
    [10932,1525549097,57.326,-111.7908,687.3,377.3,351.6,9.1,-1.8,15.97,29.97,694.8402,140.0005],
    [10933,1525549098,57.3265,-111.7908,688.0,378.0,350.7,9.5,-1.6,15.72,29.92,694.9222,140.0054],
    [10934,1525549099,57.327,-111.7908,688.0,378.0,350.1,9.7,-1.4,15.42,29.91,694.917,139.9962],
    [10935,1525549100,57.3275,-111.7908,687.2,377.2,350.0,9.5,-1.2,16.25,29.45,694.8816,139.9941],
    [10936,1525549101,57.328,-111.7909,686.7,376.7,349.8,9.5,-0.4,15.78,30.1,694.8741,139.997],
    [10937,1525549102,57.3285,-111.7909,686.3,376.3,348.8,10.1,0.0,15.88,29.69,694.8935,140.0036],
    [10938,1525549103,57.329,-111.7909,685.9,375.9,348.7,10.1,0.3,15.5,29.87,694.8595,139.9986],
    [10939,1525549104,57.3295,-111.7909,685.9,375.9,348.4,10.3,0.5,15.56,30.62,694.8937,140.0029],
    [10940,1525549105,57.3301,-111.7909,686.0,376.0,348.7,10.2,-0.3,15.63,30.82,694.8839,139.9995],
    [10941,1525549106,57.3306,-111.791,686.0,376.0,348.8,10.2,-0.8,15.78,30.5,694.9155,140.0011],
    [10942,1525549107,57.3311,-111.791,686.0,376.2,349.0,9.8,-0.5,15.95,29.68,694.8536,139.9974],
    [10943,1525549108,57.3316,-111.791,686.5,378.0,349.0,9.5,-0.1,15.16,29.92,694.6696,139.9958],
    [10944,1525549109,57.3321,-111.791,686.4,380.4,348.3,9.8,-0.2,15.5,30.1,694.4318,140.0035],
    [10945,1525549110,57.3326,-111.7911,685.9,382.0,348.9,9.2,-0.8,15.66,30.05,694.2276,139.9914],
    [10946,1525549111,57.3332,-111.7911,685.8,380.7,349.6,8.9,-1.2,15.83,29.77,694.1927,139.9971],
    [10947,1525549112,57.3336,-111.7911,686.8,379.8,350.1,9.0,-1.5,16.41,29.39,694.1354,140.0062],
    [10948,1525549113,57.3342,-111.7912,689.0,380.3,350.1,9.5,-1.2,15.83,30.31,694.2111,139.998],
    [10949,1525549114,57.3347,-111.7912,691.2,382.2,350.5,8.8,-0.2,15.69,30.4,694.2137,139.9978],
    [10950,1525549115,57.3352,-111.7912,693.1,383.4,351.8,7.4,-0.2,15.76,30.62,694.0555,139.997],
    [10951,1525549116,57.3357,-111.7912,694.7,385.0,350.3,8.5,0.0,15.58,30.58,694.0139,139.9981],
    [10952,1525549117,57.3362,-111.7912,695.2,386.2,348.5,9.3,0.6,15.42,30.46,694.1443,139.9939],
    [10953,1525549118,57.3367,-111.7913,694.9,385.9,351.0,6.0,1.6,15.4,30.99,694.0668,140.0014],
    [10954,1525549119,57.3372,-111.7913,694.7,386.0,352.5,4.7,2.1,16.05,30.63,694.0183,139.9958],
    [10955,1525549120,57.3377,-111.7913,695.2,387.2,348.7,8.9,1.9,15.55,31.25,693.9888,140.0023],
    [10956,1525549121,57.3383,-111.7914,696.1,388.1,348.1,9.4,0.8,16.3,30.89,693.9239,140.0023],
    [10957,1525549122,57.3388,-111.7914,696.1,388.1,351.8,6.6,0.2,15.51,31.49,693.8466,139.9953],
    [10958,1525549123,57.3393,-111.7915,695.6,386.6,350.6,8.7,-0.1,15.88,31.35,693.8624,139.9981],
    [10959,1525549124,57.3398,-111.7915,696.4,387.4,348.9,10.5,-0.2,15.14,31.68,693.8038,140.0029],
    [10960,1525549125,57.3404,-111.7915,697.2,388.2,349.6,10.1,-1.0,15.99,31.25,693.7221,139.998],
    [10961,1525549126,57.3409,-111.7915,697.3,389.4,347.7,12.1,-0.6,15.86,31.26,693.6699,140.0009],
    [10962,1525549127,57.3415,-111.7915,698.0,390.3,346.8,12.6,-0.8,15.61,31.16,693.4971,139.9987],
    [10963,1525549128,57.342,-111.7915,698.5,392.5,348.2,11.1,-0.9,15.91,31.04,693.1365,140.0048],
    [10964,1525549129,57.3425,-111.7916,699.1,394.3,348.6,10.7,-0.9,15.7,30.71,693.0982,139.9999],
    [10965,1525549130,57.3431,-111.7916,699.9,396.9,348.3,10.8,-0.9,15.69,30.49,693.0259,140.0033],
    [10966,1525549131,57.3436,-111.7916,701.2,398.9,348.3,10.5,-1.2,15.59,30.46,693.0164,140.0002],
    [10967,1525549132,57.3441,-111.7917,703.1,402.3,347.9,10.8,-1.6,15.44,30.9,693.1736,139.9931],
    [10968,1525549133,57.3446,-111.7917,705.5,404.5,346.6,11.8,-1.1,15.66,30.53,693.291,139.9927],
    [10969,1525549134,57.3452,-111.7917,707.3,407.2,346.2,11.5,-1.1,15.79,30.37,693.6837,140.0032],
    [10970,1525549135,57.3457,-111.7918,708.4,408.4,346.7,10.6,-1.1,15.64,30.39,693.7893,140.0009],
    [10971,1525549136,57.3462,-111.7919,708.6,408.7,345.8,11.2,-0.5,15.22,30.02,694.0177,139.9969],
    [10972,1525549137,57.3467,-111.7919,707.7,406.6,345.6,10.8,-0.2,16.0,29.5,694.1876,140.0029],
    [10973,1525549138,57.3472,-111.792,705.8,404.8,346.7,9.7,-0.6,16.16,29.59,694.3699,140.013],
    [10974,1525549139,57.3477,-111.7921,702.6,401.5,347.1,9.3,-1.3,15.1,29.89,694.4108,140.0027],
    [10975,1525549140,57.3483,-111.7921,699.5,399.5,346.5,9.3,-1.0,15.57,30.01,694.371,140.0069],
    [10976,1525549141,57.3488,-111.7922,697.1,397.1,346.1,8.4,-0.9,15.96,29.3,694.34,140.0009],
    [10977,1525549142,57.3494,-111.7924,694.7,395.4,343.3,8.4,-0.2,15.06,30.02,694.1528,139.996],
    [10978,1525549143,57.3499,-111.7926,693.0,393.0,337.3,10.3,0.4,16.16,29.66,694.1557,139.9971],
    [10979,1525549144,57.3504,-111.7928,692.2,392.2,332.2,10.3,0.9,15.7,30.07,694.2484,140.0006],
    [10980,1525549145,57.3509,-111.7932,692.2,391.2,327.1,10.3,1.3,15.2,30.35,694.1924,140.0036],
    [10981,1525549146,57.3513,-111.7936,692.9,391.9,322.6,10.2,0.8,14.99,30.24,694.1666,140.0001],
    [10982,1525549147,57.3517,-111.794,694.0,393.0,318.7,10.0,0.8,15.33,30.16,694.1877,140.0038],
    [10983,1525549148,57.3521,-111.7946,694.4,392.4,314.9,10.2,0.8,15.45,30.43,694.0126,139.9982],
    [10984,1525549149,57.3525,-111.7951,694.1,391.1,311.8,10.1,-0.2,15.53,29.94,693.8748,139.9963],
    [10985,1525549150,57.3529,-111.7958,693.9,390.9,307.7,10.0,-0.4,15.7,29.96,693.6888,139.9951],
    [10986,1525549151,57.3532,-111.7965,694.2,390.1,305.0,9.2,-0.9,15.4,30.37,693.7374,140.0021],
    [10987,1525549152,57.3535,-111.7972,694.5,390.6,302.6,9.2,-1.1,15.6,29.9,693.7841,139.996],
    [10988,1525549153,57.3538,-111.7979,695.5,391.5,298.5,10.2,0.0,15.15,30.19,693.9206,139.9982],
    [10989,1525549154,57.3541,-111.7987,697.5,393.2,295.2,10.5,1.0,15.58,30.28,693.9977,140.0026],
    [10990,1525549155,57.3543,-111.7994,699.1,395.0,293.7,9.8,0.4,15.99,30.09,694.0844,140.0084],
    [10991,1525549156,57.3545,-111.8002,699.5,394.5,292.1,9.7,0.0,15.07,30.31,694.1144,140.0042],
    [10992,1525549157,57.3547,-111.801,698.9,394.9,290.4,9.4,-0.6,15.8,29.88,693.9563,139.9962],
    [10993,1525549158,57.3549,-111.8018,697.9,392.7,289.0,9.3,-1.1,15.71,30.73,693.8558,139.997],
    [10994,1525549159,57.355,-111.8026,697.0,391.1,287.0,9.4,-0.8,15.63,30.8,693.7569,140.0019],
    [10995,1525549160,57.3552,-111.8035,696.0,389.5,285.4,9.2,-0.5,15.9,29.94,693.5779,139.9972],
    [10996,1525549161,57.3553,-111.8043,695.5,389.5,284.2,8.7,-0.5,15.35,30.3,693.4919,139.9996],
    [10997,1525549162,57.3554,-111.8051,696.0,390.0,282.9,8.3,-0.2,15.76,30.48,693.3479,139.9984],
    [10998,1525549163,57.3556,-111.8059,697.3,391.3,282.2,8.3,-0.6,16.13,29.93,693.1087,139.9957],
    [10999,1525549164,57.3557,-111.8068,698.8,392.8,281.8,8.0,-1.1,15.26,30.38,693.1,140.0101],
    [11000,1525549165,57.3558,-111.8078,700.6,394.4,281.0,7.3,-1.0,15.17,30.31,692.9615,139.9981],
    [11001,1525549166,57.3559,-111.8086,701.9,392.3,279.9,7.1,-0.7,15.67,30.09,692.9366,139.9991],
    [11002,1525549167,57.3559,-111.8095,704.2,392.6,277.9,8.3,0.6,15.4,30.08,692.9058,140.009],
    [11003,1525549168,57.356,-111.8104,706.3,393.7,278.0,8.7,-0.1,15.58,30.29,692.6077,139.993],
    [11004,1525549169,57.3561,-111.8112,707.3,394.7,278.7,7.3,-0.9,15.5,30.64,692.4618,139.9904],
    [11005,1525549170,57.3562,-111.812,708.1,393.1,277.7,7.1,-0.2,15.31,30.19,692.1762,139.9927],
    [11006,1525549171,57.3562,-111.8129,709.3,394.3,277.4,7.4,-0.2,15.46,30.45,691.8618,139.9958],
    [11007,1525549172,57.3563,-111.8138,710.7,394.7,277.3,6.7,-0.3,15.44,30.94,691.667,139.9944],
    [11008,1525549173,57.3564,-111.8146,712.9,395.9,276.8,7.3,-0.4,15.38,30.57,691.4997,139.9977],
    [11009,1525549174,57.3564,-111.8155,715.4,397.3,278.0,8.3,-1.5,15.4,30.68,691.2309,140.0001],
    [11010,1525549175,57.3565,-111.8164,718.4,400.4,277.6,9.1,-0.8,15.56,30.93,690.8399,139.9925],
    [11011,1525549176,57.3566,-111.8172,721.5,403.2,276.6,10.3,0.3,15.49,30.72,690.6597,139.9998],
    [11012,1525549177,57.3566,-111.8181,724.0,405.7,277.5,10.6,-0.4,15.36,30.69,690.5127,140.004],
    [11013,1525549178,57.3567,-111.8189,726.4,407.5,277.5,10.8,-0.4,16.06,30.26,690.4009,139.9995],
    [11014,1525549179,57.3568,-111.8198,729.7,410.9,277.4,11.3,-0.5,15.58,30.26,690.3719,139.9898],
    [11015,1525549180,57.3568,-111.8207,732.9,415.3,277.5,11.1,-0.8,15.41,30.22,690.5155,139.9921],
    [11016,1525549181,57.3569,-111.8215,735.9,419.0,277.7,11.5,-1.2,15.37,30.38,690.837,140.0014],
    [11017,1525549182,57.357,-111.8223,737.8,420.1,279.1,11.1,-2.7,15.46,30.43,690.9735,140.0078],
    [11018,1525549183,57.357,-111.8232,739.0,422.0,279.1,10.7,-2.6,14.97,30.43,691.2782,139.9953],
    [11019,1525549184,57.3571,-111.824,739.5,422.5,277.3,11.6,-1.8,15.56,31.09,691.426,140.0047],
    [11020,1525549185,57.3571,-111.8248,738.3,421.3,278.0,11.5,-3.8,15.15,30.57,691.5465,140.0025],
    [11021,1525549186,57.3572,-111.8256,735.5,418.2,277.6,11.0,-4.5,15.52,30.59,691.6987,140.0009],
    [11022,1525549187,57.3572,-111.8265,732.5,414.1,274.7,11.2,-3.3,15.52,30.92,691.621,139.9909],
    [11023,1525549188,57.3572,-111.8274,730.0,409.9,274.1,10.3,-4.3,15.62,31.11,691.6206,139.9956],
    [11024,1525549189,57.3572,-111.8283,727.6,407.6,273.1,9.6,-4.1,15.1,30.55,691.5639,139.999],
    [11025,1525549190,57.3572,-111.8292,725.4,404.7,271.2,8.9,-3.0,15.31,30.57,691.4612,139.9942],
    [11026,1525549191,57.3572,-111.8301,724.0,404.0,271.8,9.2,-3.6,15.13,30.61,691.2482,139.9955],
    [11027,1525549192,57.3572,-111.831,723.9,403.9,271.1,10.4,-2.4,15.1,31.21,691.1801,139.9966],
    [11028,1525549193,57.3572,-111.8319,724.1,404.1,270.8,10.6,-2.1,14.93,31.06,691.1333,140.0034],
    [11029,1525549194,57.3571,-111.8328,724.7,404.7,271.3,10.7,-2.5,15.42,30.99,691.1653,140.0039],
    [11030,1525549195,57.3571,-111.8337,726.2,406.2,270.7,10.7,-1.9,15.38,31.12,691.1691,139.9956],
    [11031,1525549196,57.3571,-111.8347,728.2,408.2,271.2,10.5,-2.7,15.38,31.61,691.2511,139.9978],
    [11032,1525549197,57.3571,-111.8356,729.2,408.1,271.8,10.2,-3.4,14.83,31.02,691.3372,139.9956],
    [11033,1525549198,57.3571,-111.8365,729.9,408.9,271.2,9.4,-2.4,16.24,30.56,691.4851,139.9995],
    [11034,1525549199,57.3571,-111.8375,729.8,408.8,270.8,9.9,-2.0,15.03,30.99,691.6288,140.0064],
    [11035,1525549200,57.3571,-111.8384,729.2,407.9,270.7,10.1,-2.1,16.02,30.6,691.6288,139.9982],
    [11036,1525549201,57.3571,-111.8393,728.6,406.9,269.8,9.9,-1.5,16.1,30.3,691.6479,140.0005],
    [11037,1525549202,57.3571,-111.8403,727.6,405.6,269.3,10.1,-1.2,15.17,30.56,691.6053,139.9971],
    [11038,1525549203,57.357,-111.8412,726.1,403.1,270.4,10.0,-2.4,15.19,30.44,691.6793,140.0002],
    [11039,1525549204,57.357,-111.8421,724.7,401.7,270.6,9.3,-2.4,15.52,30.78,691.7865,140.0125],
    [11040,1525549205,57.357,-111.8431,724.0,400.0,269.9,9.2,-2.1,15.48,30.77,691.7455,140.0027],
    [11041,1525549206,57.357,-111.844,723.8,398.8,269.4,9.6,-1.8,16.06,30.05,691.6273,139.9997],
    [11042,1525549207,57.357,-111.845,723.6,398.6,268.7,9.5,-1.4,15.36,30.31,691.5392,140.0102],
    [11043,1525549208,57.3569,-111.8458,723.2,398.1,269.2,10.0,-2.8,15.3,30.31,691.3243,139.9954],
    [11044,1525549209,57.3569,-111.8469,722.4,396.4,267.3,9.9,-2.2,15.6,30.04,691.1887,140.0163],
    [11045,1525549210,57.3568,-111.8478,722.2,395.2,262.8,10.0,-1.0,15.4,30.11,690.9617,139.9978],
    [11046,1525549211,57.3567,-111.8487,723.9,395.9,260.1,9.9,-2.2,15.42,30.12,690.8288,140.0052],
    [11047,1525549212,57.3566,-111.8496,725.5,396.6,256.6,9.4,-2.2,15.01,29.98,690.7465,140.0062],
    [11048,1525549213,57.3564,-111.8505,727.2,397.2,251.8,9.1,-1.7,15.66,29.88,690.6528,140.0027],
    [11049,1525549214,57.3562,-111.8513,729.4,398.4,248.1,9.7,-1.5,15.81,29.84,690.561,140.0003],
    [11050,1525549215,57.3559,-111.8522,731.8,400.7,243.4,9.1,-1.6,15.35,29.9,690.4413,139.9985],
    [11051,1525549216,57.3557,-111.8529,733.9,403.0,239.7,10.1,-1.7,15.38,30.42,690.422,139.997],
    [11052,1525549217,57.3553,-111.8536,735.4,403.4,235.1,9.0,-1.6,15.81,29.45,690.1931,140.006],
    [11053,1525549218,57.355,-111.8543,736.5,403.8,229.1,8.4,-0.6,15.94,29.81,689.9883,139.9907],
    [11054,1525549219,57.3546,-111.8549,737.9,404.9,225.0,8.2,-0.8,15.42,29.92,689.8906,139.9926],
    [11055,1525549220,57.3542,-111.8555,739.1,405.1,222.8,8.9,-1.7,15.5,30.0,689.9375,139.9965],
    [11056,1525549221,57.3538,-111.856,740.0,406.0,220.0,8.5,-1.8,15.17,29.92,690.1846,139.9944],
    [11057,1525549222,57.3533,-111.8565,741.1,407.1,216.7,8.9,-1.2,14.96,29.92,690.4067,140.0077],
    [11058,1525549223,57.3528,-111.857,743.1,408.1,215.1,9.8,-2.6,15.57,29.78,690.6782,139.9993],
    [11059,1525549224,57.3524,-111.8574,745.1,410.8,213.8,9.6,-3.6,15.44,30.05,690.9289,139.9959],
    [11060,1525549225,57.3519,-111.8578,745.0,410.9,210.1,8.6,-2.2,15.48,30.36,691.2148,140.0091],
    [11061,1525549226,57.3514,-111.8581,743.2,410.2,208.3,9.3,-2.3,15.71,29.49,691.3651,139.9955],
    [11062,1525549227,57.3509,-111.8584,740.5,407.8,206.8,9.2,-2.6,16.04,29.83,691.4984,139.998],
    [11063,1525549228,57.3503,-111.8587,737.3,405.3,204.6,9.2,-2.4,15.8,30.3,691.5147,139.9989],
    [11064,1525549229,57.3498,-111.859,734.0,402.9,204.9,10.5,-3.5,15.46,30.1,691.8188,139.9951],
    [11065,1525549230,57.3493,-111.8592,730.5,399.6,202.7,9.3,-3.0,15.15,30.04,692.1351,140.0002],
    [11066,1525549231,57.3487,-111.8594,728.2,396.2,200.4,8.6,-2.3,15.03,30.08,692.5129,140.0044],
    [11067,1525549232,57.3482,-111.8597,726.8,393.8,200.8,9.8,-2.7,14.78,30.19,692.6143,140.003],
    [11068,1525549233,57.3476,-111.8599,725.5,391.4,200.9,10.1,-2.9,14.94,30.15,692.7919,140.0042],
    [11069,1525549234,57.3471,-111.8601,723.1,388.1,201.5,10.8,-3.0,15.38,30.35,692.9006,139.9988],
    [11070,1525549235,57.3466,-111.8603,719.8,384.8,202.8,11.8,-3.7,15.46,30.04,693.1128,140.004],
    [11071,1525549236,57.346,-111.8605,715.9,379.9,202.4,11.1,-3.6,15.86,29.52,693.1542,140.0015],
    [11072,1525549237,57.3454,-111.8607,712.9,376.9,202.2,10.9,-3.6,15.09,30.05,693.3445,139.9999],
    [11073,1525549238,57.3449,-111.8609,711.0,375.0,202.3,10.9,-3.5,15.55,29.78,693.3317,140.0028],
    [11074,1525549239,57.3443,-111.8611,709.3,374.4,201.9,10.0,-4.0,15.27,29.86,693.1923,140.0032],
    [11075,1525549240,57.3438,-111.8613,707.7,373.7,202.1,9.9,-3.7,15.22,29.87,693.0387,139.9963],
    [11076,1525549241,57.3432,-111.8616,705.6,372.3,203.1,9.9,-4.2,15.04,29.85,692.9449,139.9992],
    [11077,1525549242,57.3427,-111.8618,704.1,371.4,203.8,9.6,-4.1,15.3,30.02,692.9403,140.0023],
    [11078,1525549243,57.3421,-111.8621,704.1,373.1,205.1,9.6,-4.0,14.99,29.81,692.8816,140.0007],
    [11079,1525549244,57.3416,-111.8624,705.3,375.0,206.0,9.7,-4.3,14.75,29.92,692.8317,140.0014],
    [11080,1525549245,57.3411,-111.8627,707.1,377.4,206.8,9.8,-4.4,15.69,29.75,692.7376,140.0039],
    [11081,1525549246,57.3406,-111.863,708.5,379.5,206.9,9.6,-4.2,15.4,30.35,692.593,140.0044],
    [11082,1525549247,57.34,-111.8633,709.2,380.2,206.5,9.6,-4.4,15.44,30.62,691.9958,139.9931],
    [11083,1525549248,57.3395,-111.8635,709.6,380.6,205.8,9.3,-4.8,15.06,29.88,691.8279,139.9891],
    [11084,1525549249,57.3389,-111.8638,710.3,380.6,204.2,8.8,-4.7,15.72,29.64,691.5707,139.99],
    [11085,1525549250,57.3384,-111.8641,711.4,381.4,202.7,8.8,-4.4,15.51,29.48,691.2125,140.0025],
    [11086,1525549251,57.3379,-111.8643,713.3,382.3,200.5,8.6,-3.8,15.1,29.86,691.0026,139.9975],
    [11087,1525549252,57.3374,-111.8645,716.1,385.1,198.4,8.6,-3.1,15.36,29.79,690.9488,140.0018],
    [11088,1525549253,57.3368,-111.8646,720.7,388.7,196.8,9.4,-2.4,15.36,29.83,690.9659,140.0173],
    [11089,1525549254,57.3363,-111.8647,725.7,393.7,195.6,10.0,-2.1,15.85,29.62,690.9685,140.0024],
    [11090,1525549255,57.3357,-111.8648,729.1,396.1,193.9,9.4,-1.6,15.74,29.13,690.9541,140.0065],
    [11091,1525549256,57.3352,-111.8649,731.3,398.3,190.8,8.0,-1.2,15.54,30.23,690.9727,140.0006],
    [11092,1525549257,57.3347,-111.8649,732.9,399.9,189.6,8.0,-1.6,15.22,30.45,690.985,140.0011],
    [11093,1525549258,57.3342,-111.8649,733.5,400.5,189.0,8.5,-2.8,15.81,29.44,690.8097,140.0007],
    [11094,1525549259,57.3336,-111.865,733.9,400.9,189.1,9.1,-2.5,15.11,29.88,690.8319,139.9974],
    [11095,1525549260,57.3331,-111.865,733.4,400.4,188.0,7.7,-2.7,15.53,30.31,690.7533,139.9991],
    [11096,1525549261,57.3325,-111.865,733.3,400.3,187.7,7.2,-3.2,15.76,30.44,690.6407,139.9974],
    [11097,1525549262,57.332,-111.865,733.7,400.7,188.8,7.6,-4.2,15.34,30.17,690.6856,139.9978],
    [11098,1525549263,57.3314,-111.865,734.4,401.4,188.7,7.0,-4.5,15.46,30.16,690.8487,139.9982],
    [11099,1525549264,57.3309,-111.865,735.2,402.2,189.2,7.2,-4.5,15.71,29.81,690.9019,139.9958],
    [11100,1525549265,57.3304,-111.8651,736.0,403.0,190.4,8.2,-5.1,15.48,31.03,690.8908,139.9915],
    [11101,1525549266,57.3298,-111.8651,737.0,404.0,190.9,8.9,-5.0,15.56,30.13,690.7297,139.9978],
    [11102,1525549267,57.3293,-111.8651,736.8,403.8,190.5,8.8,-4.9,15.48,30.39,690.6375,139.9928],
    [11103,1525549268,57.3287,-111.8651,735.4,402.4,190.3,8.7,-4.4,15.45,30.99,690.4845,139.9935],
    [11104,1525549269,57.3282,-111.8652,734.2,400.8,190.2,8.5,-3.7,15.82,30.21,690.2927,140.0011],
    [11105,1525549270,57.3276,-111.8652,734.1,400.1,190.4,8.2,-2.8,15.38,30.28,690.2157,140.0005],
    [11106,1525549271,57.327,-111.8653,735.5,401.5,190.0,7.2,-2.8,14.96,30.57,690.0545,139.9971],
    [11107,1525549272,57.3265,-111.8653,736.8,401.8,191.4,8.7,-2.9,16.02,30.27,689.8849,139.9952],
    [11108,1525549273,57.3259,-111.8654,738.2,403.2,192.4,10.3,-1.8,15.36,30.66,689.794,140.0027],
    [11109,1525549274,57.3254,-111.8654,740.1,405.1,192.1,10.2,-1.3,14.9,30.43,689.5761,139.996],
    [11110,1525549275,57.3248,-111.8655,742.1,407.1,191.3,9.6,-1.2,15.41,30.31,689.4841,139.999],
    [11111,1525549276,57.3242,-111.8655,743.7,409.6,192.2,10.3,-0.9,16.08,29.99,689.5057,140.001],
    [11112,1525549277,57.3237,-111.8656,744.9,411.9,192.9,10.6,-0.6,15.29,30.44,689.6961,139.9994],
    [11113,1525549278,57.3232,-111.8656,746.8,414.7,192.8,10.3,-0.8,15.88,30.34,689.7733,140.0023],
    [11114,1525549279,57.3226,-111.8657,748.8,417.8,193.4,10.8,-0.6,15.39,30.36,690.1675,140.0029],
    [11115,1525549280,57.3221,-111.8657,750.0,419.0,193.9,11.1,-0.6,15.42,30.61,690.3866,140.0039],
    [11116,1525549281,57.3215,-111.8658,750.1,418.4,194.6,11.4,-1.2,15.07,29.99,690.4345,140.0046],
    [11117,1525549282,57.3209,-111.8659,748.4,415.4,193.5,10.2,-1.1,15.37,30.16,690.2745,139.9999],
    [11118,1525549283,57.3204,-111.8659,746.4,412.4,191.7,9.0,-1.2,14.99,30.16,690.2548,140.0031],
    [11119,1525549284,57.3198,-111.866,743.3,408.4,191.6,9.4,-0.8,15.89,29.34,690.0977,139.9931],
    [11120,1525549285,57.3193,-111.866,740.2,405.2,191.5,10.4,-0.2,14.84,30.08,690.1287,140.0046],
    [11121,1525549286,57.3187,-111.8661,738.9,404.3,190.3,10.3,-0.7,15.39,29.85,690.0968,139.9981],
    [11122,1525549287,57.3181,-111.8661,739.8,405.1,189.0,9.9,-0.9,15.18,29.84,690.0893,139.9944],
    [11123,1525549288,57.3176,-111.8661,741.8,407.3,188.3,9.7,-1.0,15.11,30.16,690.2072,140.0086],
    [11124,1525549289,57.317,-111.8661,743.0,409.0,188.2,10.0,-1.7,15.96,29.66,690.2925,140.0078],
    [11125,1525549290,57.3165,-111.866,743.2,409.2,187.6,9.6,-1.4,15.35,29.96,690.3884,140.0057],
    [11126,1525549291,57.316,-111.866,742.8,408.8,187.3,9.5,-1.0,14.74,29.89,690.4675,140.0034],
    [11127,1525549292,57.3154,-111.866,742.8,408.8,189.2,11.5,-1.1,15.3,29.8,690.613,140.001],
    [11128,1525549293,57.3148,-111.866,742.0,407.8,189.1,10.7,-0.9,15.27,29.93,690.6973,139.9978],
    [11129,1525549294,57.3142,-111.8659,741.2,406.2,187.2,8.6,-1.1,15.59,29.48,690.7724,140.003],
    [11130,1525549295,57.3137,-111.8659,740.5,405.5,187.8,9.3,-1.8,15.87,29.51,690.8774,140.0017],
    [11131,1525549296,57.3131,-111.8659,739.5,403.5,187.9,9.5,-2.4,15.12,29.7,691.0859,140.0042],
    [11132,1525549297,57.3126,-111.8659,738.4,402.4,187.4,9.1,-2.3,15.57,29.65,691.1465,139.9987],
    [11133,1525549298,57.312,-111.8659,737.1,401.4,187.1,9.1,-2.1,15.26,30.12,691.2507,140.0047],
    [11134,1525549299,57.3114,-111.8658,735.9,400.9,186.8,8.7,-2.2,15.21,29.32,691.3511,140.0003],
    [11135,1525549300,57.3109,-111.8658,734.5,399.5,186.0,8.2,-1.9,15.3,29.75,691.5937,139.9935],
    [11136,1525549301,57.3103,-111.8658,732.8,397.8,186.7,9.0,-1.6,15.33,29.98,691.7297,140.0026],
    [11137,1525549302,57.3098,-111.8657,731.4,396.4,186.3,8.7,-1.5,15.13,29.92,691.9132,139.9956],
    [11138,1525549303,57.3093,-111.8657,730.4,395.4,186.2,8.7,-1.6,15.71,29.15,692.1079,140.0066],
    [11139,1525549304,57.3087,-111.8657,728.7,393.7,186.7,9.6,-1.2,15.56,29.44,692.2172,140.0194],
    [11140,1525549305,57.3081,-111.8656,726.7,392.7,187.5,10.1,-1.6,15.61,29.58,692.0954,140.0164],
    [11141,1525549306,57.3076,-111.8656,724.8,390.8,186.3,9.3,-1.1,15.44,29.64,691.6787,140.0013],
    [11142,1525549307,57.307,-111.8656,722.5,388.5,185.9,9.8,-0.3,15.91,29.12,691.3712,140.0004],
    [11143,1525549308,57.3064,-111.8655,720.0,386.0,185.3,10.7,-0.9,15.42,29.58,690.8962,139.9959],
    [11144,1525549309,57.3059,-111.8654,718.9,384.9,181.8,9.9,-0.9,15.84,29.56,690.6405,140.0029],
    [11145,1525549310,57.3053,-111.8652,720.1,386.4,178.6,10.3,-1.7,14.79,29.94,690.3822,140.0002],
    [11146,1525549311,57.3048,-111.865,724.2,391.2,175.1,11.5,-2.3,15.39,30.42,690.1694,140.0043],
    [11147,1525549312,57.3043,-111.8647,728.7,395.7,169.8,10.8,-2.5,15.65,29.37,689.9916,139.9971],
    [11148,1525549313,57.3038,-111.8643,734.0,401.0,162.0,8.9,-2.3,15.2,29.83,689.8158,140.0078],
    [11149,1525549314,57.3033,-111.8638,738.1,406.1,155.5,8.0,-3.1,15.71,29.25,689.7078,140.0097],
    [11150,1525549315,57.3028,-111.8633,741.2,409.2,150.2,8.4,-3.6,15.36,29.85,689.5647,140.0096],
    [11151,1525549316,57.3024,-111.8626,744.0,412.3,144.6,8.3,-3.8,15.35,30.11,689.2422,139.9816],
    [11152,1525549317,57.302,-111.862,746.3,415.3,139.3,8.3,-3.9,15.12,29.83,688.9791,139.9888],
    [11153,1525549318,57.3016,-111.8612,748.3,417.3,134.3,8.3,-4.1,15.13,29.98,688.9178,139.9931],
    [11154,1525549319,57.3012,-111.8604,749.8,418.8,128.8,8.3,-4.9,14.96,29.68,688.9446,139.999],
    [11155,1525549320,57.3009,-111.8596,752.1,421.1,122.9,8.2,-5.5,15.02,29.8,688.989,139.9977],
    [11156,1525549321,57.3007,-111.8588,755.6,424.6,118.0,8.6,-5.7,15.37,30.25,689.0231,139.9978],
    [11157,1525549322,57.3004,-111.8579,758.8,427.8,113.7,8.6,-6.0,15.89,29.55,689.1074,139.9969],
    [11158,1525549323,57.3002,-111.857,760.0,430.0,110.0,8.6,-6.0,15.04,30.15,689.2242,139.9983],
    [11159,1525549324,57.3,-111.8561,760.0,430.0,106.5,8.3,-5.8,14.63,30.04,689.4098,140.0002],
    [11160,1525549325,57.2998,-111.8553,759.7,430.7,103.6,8.6,-5.8,15.23,29.75,689.4218,139.9983],
    [11161,1525549326,57.2997,-111.8543,759.1,430.1,101.1,8.8,-5.6,15.73,29.9,689.5127,140.0058],
    [11162,1525549327,57.2996,-111.8533,758.3,430.3,99.2,9.2,-5.2,15.37,29.77,689.5336,139.9947],
    [11163,1525549328,57.2995,-111.8523,756.9,428.9,97.2,9.2,-5.0,15.11,30.15,689.5817,139.9949],
    [11164,1525549329,57.2994,-111.8513,755.2,428.2,95.4,9.1,-5.0,14.68,30.18,689.6942,139.9937],
    [11165,1525549330,57.2993,-111.8504,754.1,428.1,94.0,9.6,-5.1,15.16,29.9,689.8966,140.0039],
    [11166,1525549331,57.2992,-111.8495,753.5,427.5,93.1,9.9,-5.1,15.35,30.2,689.9996,140.0036],
    [11167,1525549332,57.2991,-111.8484,752.7,427.7,91.5,10.2,-5.5,15.23,30.11,690.2504,140.0126],
    [11168,1525549333,57.2991,-111.8475,752.0,427.0,89.9,10.0,-6.0,15.69,29.84,690.212,140.031],
    [11169,1525549334,57.299,-111.8464,750.7,426.0,89.1,9.4,-5.9,15.23,30.32,690.1993,140.015],
    [11170,1525549335,57.299,-111.8454,748.8,424.9,89.9,9.6,-5.0,15.49,30.19,690.3607,140.0062],
    [11171,1525549336,57.299,-111.8443,747.0,423.0,89.7,9.7,-4.7,15.84,29.69,690.3947,140.0066],
    [11172,1525549337,57.2989,-111.8433,745.5,421.5,89.7,10.2,-4.4,15.18,30.96,690.4274,139.9946],
    [11173,1525549338,57.2989,-111.8423,744.5,420.5,88.0,10.6,-5.4,15.1,30.23,690.4274,139.9946],
    [11174,1525549339,57.2989,-111.8413,744.0,421.0,85.9,11.0,-6.3,15.81,29.84,690.5699,140.0071],
    [11175,1525549340,57.2988,-111.8402,743.1,420.1,85.9,11.6,-5.6,15.41,30.05,690.4909,140.007],
    [11176,1525549341,57.2988,-111.8392,742.1,419.1,86.7,11.5,-4.9,15.2,31.0,690.2261,139.9948],
    [11177,1525549342,57.2988,-111.8381,741.8,418.8,86.1,11.1,-5.2,15.01,30.17,689.943,139.9859],
    [11178,1525549343,57.2988,-111.837,741.3,418.3,87.6,11.1,-3.4,15.01,30.0,689.6708,139.996],
    [11179,1525549344,57.2988,-111.8359,740.8,417.8,88.7,11.6,-2.4,15.31,29.96,689.5188,139.9913],
    [11180,1525549345,57.2988,-111.8348,741.9,418.9,85.8,11.5,-3.9,15.1,29.9,689.3698,140.0012],
    [11181,1525549346,57.2988,-111.8338,744.5,422.5,83.0,11.8,-3.9,15.05,30.08,689.2256,139.9958],
    [11182,1525549347,57.2988,-111.8328,747.6,425.6,80.3,11.2,-3.6,15.0,30.13,689.1725,140.0019],
    [11183,1525549348,57.2989,-111.8318,750.3,429.3,76.2,11.4,-4.5,15.15,30.09,689.0718,140.0047],
    [11184,1525549349,57.299,-111.8307,752.5,431.5,73.7,11.3,-4.3,15.06,30.02,688.7958,139.9963],
    [11185,1525549350,57.2991,-111.8297,754.2,434.2,72.1,11.9,-4.3,15.03,30.37,688.6569,140.0049],
    [11186,1525549351,57.2992,-111.8286,755.5,435.5,69.8,11.5,-5.5,15.02,29.9,688.3091,140.0011],
    [11187,1525549352,57.2993,-111.8276,756.6,436.6,70.4,10.5,-4.6,14.73,29.85,687.9471,140.0077],
    [11188,1525549353,57.2994,-111.8265,758.3,438.3,71.2,10.4,-3.9,15.29,30.37,687.6942,139.976],
    [11189,1525549354,57.2996,-111.8255,760.7,440.7,71.4,10.4,-3.9,15.0,30.02,687.9124,140.0054],
    [11190,1525549355,57.2997,-111.8245,763.0,443.0,71.5,9.7,-4.6,15.57,29.33,687.8643,139.9939],
    [11191,1525549356,57.2998,-111.8235,766.0,446.0,71.7,9.6,-4.6,15.21,30.54,687.8396,139.975],
    [11192,1525549357,57.2999,-111.8224,769.7,449.7,71.7,11.5,-4.0,14.74,30.0,687.8602,140.0065],
    [11193,1525549358,57.3,-111.8214,773.1,454.1,73.0,10.7,-2.3,15.19,30.34,687.8324,139.994],
    [11194,1525549359,57.3002,-111.8202,772.8,453.8,75.5,9.5,-1.4,15.18,29.97,687.7557,139.9993],
    [11195,1525549360,57.3003,-111.8192,771.8,453.8,74.5,9.1,-3.5,15.16,29.95,687.6261,139.9946],
    [11196,1525549361,57.3004,-111.8181,771.7,454.4,74.7,8.7,-3.7,15.34,29.81,687.5038,139.9959],
    [11197,1525549362,57.3005,-111.8171,771.8,454.8,75.1,8.9,-3.3,14.76,30.05,687.2235,139.9935],
    [11198,1525549363,57.3006,-111.8161,771.9,455.9,74.5,9.2,-3.7,15.03,30.05,687.2407,139.9876],
    [11199,1525549364,57.3007,-111.8149,772.9,457.9,75.0,9.2,-3.1,15.15,30.67,687.2863,139.997],
    [11200,1525549365,57.3008,-111.8138,774.2,460.2,74.9,9.2,-3.2,14.93,29.92,687.2601,140.0028],
    [11201,1525549366,57.3009,-111.8126,776.2,462.2,76.5,9.9,-1.5,14.96,30.11,687.0812,139.9931],
    [11202,1525549367,57.301,-111.8115,777.6,463.6,76.9,10.1,-1.7,15.47,29.91,687.0374,139.9919],
    [11203,1525549368,57.3011,-111.8103,778.5,464.5,77.1,8.6,-1.9,15.07,30.38,687.1073,140.0006],
    [11204,1525549369,57.3012,-111.8091,778.4,463.4,78.1,9.9,-1.4,14.96,30.8,686.8607,140.0108],
    [11205,1525549370,57.3013,-111.808,778.5,462.5,76.3,10.9,-3.6,15.02,30.05,686.7343,140.0089],
    [11206,1525549371,57.3014,-111.8069,779.8,463.8,75.8,10.2,-4.4,15.1,31.12,686.245,139.9934],
    [11207,1525549372,57.3015,-111.8057,780.9,464.9,77.4,9.7,-2.2,15.32,30.28,685.9821,140.0027],
    [11208,1525549373,57.3016,-111.8045,780.8,465.8,79.0,8.9,0.8,15.0,30.33,685.6157,139.9875],
    [11209,1525549374,57.3018,-111.8033,781.6,466.6,75.4,9.2,0.2,15.14,30.36,685.6548,139.9918],
    [11210,1525549375,57.3019,-111.8022,784.7,469.7,70.3,9.0,-0.2,15.9,30.0,685.3736,139.9917],
    [11211,1525549376,57.3021,-111.8011,789.5,475.5,67.7,8.2,1.0,15.15,30.38,685.2214,139.9814],
    [11212,1525549377,57.3024,-111.8,793.2,479.2,62.6,10.7,0.2,15.2,30.05,685.3155,139.9994],
    [11213,1525549378,57.3027,-111.799,796.9,482.9,57.1,11.8,-0.1,15.13,30.39,685.4193,140.0004],
    [11214,1525549379,57.3029,-111.798,798.8,485.8,53.7,11.3,-0.5,15.1,30.67,685.5925,140.0007],
    [11215,1525549380,57.3032,-111.7971,800.3,487.3,48.1,11.2,-1.3,15.43,30.37,685.5885,140.0061],
    [11216,1525549381,57.3037,-111.7961,802.7,489.7,41.9,11.1,-2.0,15.31,30.86,685.7457,139.9928],
    [11217,1525549382,57.3041,-111.7952,802.9,489.9,38.9,10.5,-1.4,15.19,31.0,685.8136,139.9937],
    [11218,1525549383,57.3045,-111.7944,801.6,488.9,33.9,10.6,-1.7,15.12,30.64,686.4021,139.9964],
    [11219,1525549384,57.305,-111.7937,799.8,487.8,28.9,10.6,-2.2,14.87,30.49,686.5637,139.9913],
    [11220,1525549385,57.3055,-111.7931,798.4,486.4,22.3,12.4,-2.7,15.13,31.11,687.0182,139.9792],
    [11221,1525549386,57.306,-111.7926,797.4,485.5,17.8,12.8,-1.8,15.33,30.19,687.4704,139.998],
    [11222,1525549387,57.3065,-111.792,795.1,484.1,15.7,10.6,-0.8,15.38,30.15,688.1788,140.0101],
    [11223,1525549388,57.3071,-111.7916,790.7,480.7,12.4,9.9,-2.1,15.12,30.53,688.2765,140.0135],
    [11224,1525549389,57.3077,-111.7912,786.1,476.8,7.3,10.3,-2.0,15.37,30.79,688.3138,139.9965],
    [11225,1525549390,57.3083,-111.7909,780.9,471.9,4.7,9.8,-1.6,15.67,30.05,688.303,140.0013],
    [11226,1525549391,57.3089,-111.7907,774.7,464.7,3.3,9.6,-1.1,14.68,30.66,688.1717,140.0001],
    [11227,1525549392,57.3094,-111.7905,768.7,458.7,360.7,11.4,-1.0,15.33,30.13,688.0204,140.0066],
    [11228,1525549393,57.31,-111.7903,763.7,452.7,359.5,12.1,-1.2,15.35,30.31,687.6431,140.0073],
    [11229,1525549394,57.3106,-111.7901,763.1,452.1,360.2,11.3,-1.4,15.19,30.6,687.4563,140.0076],
    [11230,1525549395,57.3113,-111.7899,763.9,452.9,361.5,10.2,-1.1,14.8,30.35,687.1564,139.9962],
    [11231,1525549396,57.3119,-111.7897,765.4,454.4,360.9,10.3,-2.0,15.07,30.27,687.0331,139.9947],
    [11232,1525549397,57.3125,-111.7895,767.9,456.9,359.0,11.0,-1.4,15.17,30.2,686.9137,139.9986],
    [11233,1525549398,57.3131,-111.7894,771.1,460.1,356.7,11.7,-1.2,15.0,30.16,686.8898,139.9989],
    [11234,1525549399,57.3137,-111.7893,774.4,463.4,356.2,10.8,-1.4,14.97,29.99,686.7754,140.0009],
    [11235,1525549400,57.3143,-111.7892,777.1,466.1,355.1,10.8,-1.1,14.65,30.08,686.7099,139.9985],
    [11236,1525549401,57.3149,-111.7891,779.2,468.2,354.4,11.1,-1.6,15.5,29.75,686.5208,140.003],
    [11237,1525549402,57.3155,-111.789,780.8,469.8,354.3,10.8,-1.3,14.56,30.13,686.515,140.0062],
    [11238,1525549403,57.316,-111.789,782.0,471.0,354.4,10.3,-0.9,14.58,30.2,686.4163,139.9996],
    [11239,1525549404,57.3166,-111.7889,783.0,472.0,354.3,10.1,-1.3,15.12,30.08,686.3576,139.9998],
    [11240,1525549405,57.3172,-111.7889,784.1,474.1,354.1,9.7,-1.3,14.99,30.41,686.1611,140.0026],
    [11241,1525549406,57.3178,-111.7888,785.5,475.5,352.9,9.8,-0.8,14.91,29.91,686.0683,140.0015],
    [11242,1525549407,57.3184,-111.7888,786.7,476.7,350.9,10.6,-0.7,15.17,29.88,685.6445,140.0046],
    [11243,1525549408,57.319,-111.7888,787.5,477.5,349.3,10.7,-1.1,14.81,29.92,685.4136,139.9862],
    [11244,1525549409,57.3195,-111.7889,788.3,478.3,349.1,9.9,-1.0,15.09,29.82,685.1761,139.9951],
    [11245,1525549410,57.3201,-111.7889,789.7,479.2,348.5,10.0,-0.7,15.21,30.03,685.2665,139.9978],
    [11246,1525549411,57.3207,-111.789,792.1,481.9,347.6,10.3,-0.7,15.08,30.22,685.3832,139.9998],
    [11247,1525549412,57.3213,-111.7891,794.9,484.9,347.3,10.2,-0.8,14.67,30.36,685.4511,139.9967],
    [11248,1525549413,57.3219,-111.7891,798.6,488.6,348.2,8.6,-1.3,15.02,30.12,685.3674,139.9909],
    [11249,1525549414,57.3225,-111.7892,801.4,491.4,350.0,6.4,0.2,14.94,30.37,685.303,139.9953],
    [11250,1525549415,57.323,-111.7893,802.0,492.0,347.9,8.3,0.8,15.15,30.8,685.4532,140.0035],
    [11251,1525549416,57.3236,-111.7894,801.2,491.2,346.3,9.8,0.9,15.05,30.52,685.2639,139.9978],
    [11252,1525549417,57.3242,-111.7895,800.0,490.0,346.0,9.8,1.1,15.32,30.38,685.2203,139.9968],
    [11253,1525549418,57.3247,-111.7896,799.6,489.6,345.8,10.1,0.5,14.84,30.79,685.1521,139.9963],
    [11254,1525549419,57.3253,-111.7897,800.1,490.1,345.9,10.0,1.2,15.58,30.57,684.9474,139.9943],
    [11255,1525549420,57.3259,-111.7898,799.8,489.8,347.8,8.6,0.8,15.26,30.23,684.8658,139.9924],
    [11256,1525549421,57.3266,-111.7899,800.4,490.4,348.2,8.7,0.0,15.16,30.49,685.1375,140.0072],
    [11257,1525549422,57.3272,-111.79,801.1,491.1,348.1,8.7,0.3,15.13,30.63,685.349,139.9948],
    [11258,1525549423,57.3278,-111.7901,802.2,492.2,348.6,8.3,0.0,15.28,30.78,685.5563,140.0003],
    [11259,1525549424,57.3283,-111.7902,804.2,494.2,348.8,8.0,0.5,14.4,30.82,685.74,139.9966],
    [11260,1525549425,57.3289,-111.7902,805.1,495.1,348.4,8.7,0.9,14.81,30.91,685.8716,140.0],
    [11261,1525549426,57.3295,-111.7903,803.9,493.9,345.9,11.4,0.8,14.92,30.79,685.9305,140.0076],
    [11262,1525549427,57.3302,-111.7904,800.3,490.3,346.0,10.5,0.0,14.47,30.78,686.1334,140.004],
    [11263,1525549428,57.3308,-111.7905,797.5,488.6,347.4,8.8,-0.8,15.14,30.71,686.1368,139.9974],
    [11264,1525549429,57.3314,-111.7906,795.7,486.7,346.9,9.2,-1.6,14.93,30.8,686.1314,139.9949],
    [11265,1525549430,57.332,-111.7907,793.8,487.8,347.2,9.3,-2.3,14.78,30.73,686.3052,139.9907],
    [11266,1525549431,57.3326,-111.7908,791.9,487.9,346.1,10.7,-1.1,14.53,30.79,686.4973,140.0062],
    [11267,1525549432,57.3331,-111.7909,790.8,486.6,346.5,10.9,-1.6,14.91,30.7,686.5642,140.0118],
    [11268,1525549433,57.3337,-111.791,790.2,483.5,347.9,10.3,-2.0,14.63,30.8,686.824,140.0011],
    [11269,1525549434,57.3344,-111.7911,789.6,481.2,348.5,10.4,-2.4,14.94,30.76,686.9907,140.0036],
    [11270,1525549435,57.335,-111.7912,788.1,478.4,349.0,10.5,-3.5,15.06,30.68,687.1711,140.0002],
    [11271,1525549436,57.3356,-111.7912,786.3,476.6,349.2,10.5,-3.8,14.99,31.1,687.3326,140.0115],
    [11272,1525549437,57.3362,-111.7913,784.3,475.3,349.5,9.9,-3.0,14.72,30.32,687.7211,139.9947],
    [11273,1525549438,57.3368,-111.7913,782.4,473.4,349.9,9.7,-3.5,14.99,30.63,687.785,139.9978],
    [11274,1525549439,57.3374,-111.7914,779.9,471.2,348.9,10.2,-2.9,14.93,30.49,687.8129,139.9998],
    [11275,1525549440,57.338,-111.7914,777.7,469.3,348.6,9.7,-2.4,14.89,30.48,687.788,139.9928],
    [11276,1525549441,57.3387,-111.7915,775.4,467.5,347.9,10.3,-2.0,14.96,30.54,687.8226,140.0047],
    [11277,1525549442,57.3393,-111.7916,772.8,463.8,347.5,10.3,-1.5,14.96,30.19,687.7315,140.0036],
    [11278,1525549443,57.3399,-111.7917,769.8,460.8,348.3,9.7,-1.8,15.63,29.77,687.6744,139.9986],
    [11279,1525549444,57.3405,-111.7918,768.7,459.7,347.5,11.2,-2.1,14.63,30.54,687.6503,140.0086],
    [11280,1525549445,57.3411,-111.7918,769.0,461.1,347.7,11.5,-3.1,14.94,30.77,687.5453,139.9955],
    [11281,1525549446,57.3417,-111.7919,768.9,461.9,348.5,11.0,-3.0,15.41,30.08,687.4042,139.9993],
    [11282,1525549447,57.3423,-111.7919,769.8,464.1,348.3,11.8,-2.7,14.51,30.69,687.2246,140.0031],
    [11283,1525549448,57.3429,-111.792,770.7,466.7,349.0,11.5,-2.5,15.43,29.74,687.1343,140.0087],
    [11284,1525549449,57.3436,-111.792,771.0,468.7,349.1,11.9,-1.9,14.98,29.96,686.7572,139.9988],
    [11285,1525549450,57.3442,-111.792,772.3,470.6,349.1,12.0,-1.8,15.03,30.93,686.4891,139.9971],
    [11286,1525549451,57.3447,-111.792,774.2,473.2,350.4,10.9,-2.1,14.79,30.11,686.3243,139.9963],
    [11287,1525549452,57.3453,-111.7921,776.3,476.3,350.6,11.0,-1.9,14.61,30.07,686.4667,140.0018],
    [11288,1525549453,57.3459,-111.7921,778.1,478.2,351.1,10.8,-2.2,15.58,29.5,686.4726,140.0063],
    [11289,1525549454,57.3466,-111.7921,780.8,479.8,351.0,11.3,-2.4,14.9,30.01,686.5153,139.9997],
    [11290,1525549455,57.3472,-111.792,784.5,483.5,350.6,11.3,-2.4,15.73,29.72,686.6679,139.9952],
    [11291,1525549456,57.3477,-111.792,787.1,486.0,350.9,10.7,-2.2,15.0,29.88,686.8128,139.9979],
    [11292,1525549457,57.3483,-111.7921,787.1,487.1,350.5,10.9,-1.7,14.95,30.28,687.0336,139.998],
    [11293,1525549458,57.3489,-111.7921,785.9,487.0,349.0,12.4,-1.0,14.76,30.3,687.0822,140.005],
    [11294,1525549459,57.3495,-111.7921,785.5,486.5,348.5,12.4,-0.8,14.85,31.01,687.0596,140.0001],
    [11295,1525549460,57.3501,-111.7921,783.8,483.8,350.2,10.5,-1.6,15.3,29.78,686.9862,139.9993],
    [11296,1525549461,57.3507,-111.7921,782.0,481.7,349.3,11.0,-1.8,15.29,30.45,686.778,140.0084],
    [11297,1525549462,57.3513,-111.7922,780.1,479.1,349.5,9.8,-2.0,15.11,30.88,686.4865,139.998],
    [11298,1525549463,57.3519,-111.7922,778.6,476.7,347.7,9.6,-2.5,14.75,30.83,686.2353,139.9961],
    [11299,1525549464,57.3525,-111.7923,778.2,474.9,344.3,9.6,-2.3,14.86,30.57,686.0223,139.999],
    [11300,1525549465,57.353,-111.7925,779.2,474.2,340.7,8.6,-3.2,14.46,30.6,685.8936,140.0034],
    [11301,1525549466,57.3537,-111.7929,781.3,474.3,335.1,8.9,-4.2,14.86,30.8,685.904,139.9989],
    [11302,1525549467,57.3542,-111.7933,784.6,476.9,329.7,7.9,-4.2,14.58,31.01,685.8542,140.0065],
    [11303,1525549468,57.3547,-111.7938,787.6,480.6,325.4,8.1,-5.0,14.88,30.95,685.8332,139.99],
    [11304,1525549469,57.3551,-111.7944,790.3,483.3,319.7,8.4,-4.5,14.74,30.9,685.9087,139.9982],
    [11305,1525549470,57.3556,-111.795,792.2,485.2,314.3,8.5,-3.8,14.64,31.04,685.9525,139.9978],
    [11306,1525549471,57.356,-111.7958,792.8,485.1,309.0,8.7,-3.8,15.82,30.3,686.2295,139.9993],
    [11307,1525549472,57.3563,-111.7966,793.0,485.1,303.3,9.4,-3.0,14.76,30.89,686.5407,140.0047],
    [11308,1525549473,57.3566,-111.7975,793.0,484.0,299.3,9.5,-3.5,14.86,30.86,687.1522,140.0057],
    [11309,1525549474,57.3569,-111.7984,792.5,482.5,295.4,10.2,-3.8,15.05,31.01,687.7231,139.9986],
    [11310,1525549475,57.3571,-111.7993,791.5,480.5,292.2,10.2,-4.2,15.1,30.49,688.2036,140.0044],
    [11311,1525549476,57.3573,-111.8003,788.4,476.4,288.8,10.1,-4.5,15.1,30.43,688.7629,140.0044],
    [11312,1525549477,57.3575,-111.8013,785.0,472.6,285.0,9.9,-4.0,15.86,30.17,689.5287,140.0021],
    [11313,1525549478,57.3576,-111.8023,780.0,466.0,282.0,9.7,-3.5,14.51,30.52,690.0637,140.0011],
    [11314,1525549479,57.3577,-111.8034,772.8,457.9,278.3,9.7,-3.2,14.98,30.33,690.4421,140.0107],
    [11315,1525549480,57.3577,-111.8044,765.5,449.8,275.3,9.8,-3.2,14.82,30.43,690.6275,140.0077],
    [11316,1525549481,57.3577,-111.8055,757.2,442.6,272.1,9.4,-2.6,14.75,30.42,690.44,140.0001],
    [11317,1525549482,57.3577,-111.8067,749.1,434.4,270.3,9.5,-3.3,15.01,30.41,690.1262,140.0022],
    [11318,1525549483,57.3577,-111.8077,741.5,425.6,269.4,9.2,-4.3,14.86,30.36,689.9348,139.9966],
    [11319,1525549484,57.3576,-111.8089,735.4,418.7,267.3,8.8,-3.9,15.16,30.78,689.7175,140.001],
    [11320,1525549485,57.3575,-111.81,732.7,415.7,266.5,8.8,-3.9,14.78,30.28,689.7104,140.0035],
    [11321,1525549486,57.3575,-111.8111,734.5,417.5,266.3,9.6,-3.2,15.31,30.18,689.7012,140.0083],
    [11322,1525549487,57.3574,-111.8122,738.4,421.1,266.7,9.3,-3.0,14.78,30.18,689.633,139.993],
    [11323,1525549488,57.3573,-111.8133,741.8,423.8,268.1,9.3,-3.8,15.61,29.74,689.7123,140.0004],
    [11324,1525549489,57.3573,-111.8144,744.2,426.2,268.8,8.5,-3.6,14.95,29.95,689.6536,139.9959],
    [11325,1525549490,57.3572,-111.8154,745.1,426.0,269.3,7.8,-3.5,14.85,30.06,689.5012,139.9938],
    [11326,1525549491,57.3572,-111.8166,745.6,426.6,269.8,7.1,-3.3,15.36,30.1,689.4192,140.0002],
    [11327,1525549492,57.3572,-111.8176,745.9,426.9,270.9,7.0,-4.0,15.01,30.05,689.2355,140.0015],
    [11328,1525549493,57.3572,-111.8187,745.9,425.9,272.8,6.7,-4.8,15.23,29.81,688.9049,140.0047],
    [11329,1525549494,57.3572,-111.8198,746.3,427.4,273.4,7.1,-4.4,15.33,30.04,688.5621,140.0022],
    [11330,1525549495,57.3572,-111.8209,747.3,428.3,275.1,8.1,-5.2,15.23,30.37,688.283,139.9968],
    [11331,1525549496,57.3572,-111.822,749.1,431.1,275.5,8.4,-4.7,15.25,30.48,688.0529,139.9904],
    [11332,1525549497,57.3572,-111.823,751.0,434.0,275.3,8.8,-4.0,14.96,30.29,687.779,139.9972],
    [11333,1525549498,57.3572,-111.8241,753.9,436.6,276.1,9.1,-4.9,15.39,30.59,687.5196,140.0043],
    [11334,1525549499,57.3573,-111.8252,758.4,440.6,275.7,9.0,-4.4,15.37,30.39,687.4787,140.0074],
    [11335,1525549500,57.3573,-111.8262,762.4,443.4,274.5,9.3,-2.9,15.14,30.04,687.3683,139.9965],
    [11336,1525549501,57.3573,-111.8273,765.5,445.2,274.2,10.5,-2.7,15.47,30.67,687.4799,140.0049],
    [11337,1525549502,57.3573,-111.8283,769.1,448.1,274.2,10.4,-3.0,15.46,30.67,687.5499,139.9976],
    [11338,1525549503,57.3573,-111.8293,772.3,450.9,274.3,9.7,-3.3,14.96,30.27,687.682,139.9996],
    [11339,1525549504,57.3574,-111.8304,773.3,452.3,273.2,8.7,-2.4,14.8,30.02,687.7471,140.0053],
    [11340,1525549505,57.3574,-111.8314,774.1,453.8,271.7,8.8,-1.6,15.24,30.02,687.7471,140.0033],
    [11341,1525549506,57.3574,-111.8324,774.0,453.8,271.6,8.7,-2.0,15.3,30.43,687.7181,140.0004],
    [11342,1525549507,57.3574,-111.8335,773.1,453.1,270.8,8.8,-1.5,15.39,29.9,687.6904,139.996],
    [11343,1525549508,57.3574,-111.8345,771.9,451.9,270.9,9.2,-2.2,15.27,30.23,687.7674,139.9992],
    [11344,1525549509,57.3573,-111.8355,770.7,449.6,270.8,8.9,-2.4,15.2,30.64,687.71,139.9952],
    [11345,1525549510,57.3573,-111.8365,770.3,449.3,270.0,8.8,-2.0,15.31,29.98,687.989,140.0],
    [11346,1525549511,57.3573,-111.8375,770.5,448.3,269.7,8.6,-2.0,15.31,30.43,688.0629,140.0097],
    [11347,1525549512,57.3573,-111.8386,770.5,449.0,269.7,8.5,-2.4,15.4,30.27,688.1976,139.9973],
    [11348,1525549513,57.3573,-111.8396,770.2,448.2,268.9,8.9,-2.0,15.42,30.15,688.242,140.0011],
    [11349,1525549514,57.3572,-111.8406,769.7,447.7,269.0,8.9,-2.4,14.95,29.79,688.3178,139.996],
    [11350,1525549515,57.3572,-111.8416,768.1,445.1,268.8,9.1,-2.2,15.27,29.49,688.4275,140.0037],
    [11351,1525549516,57.3572,-111.8426,766.4,442.3,268.1,9.5,-1.6,15.18,29.85,688.4627,140.0129],
    [11352,1525549517,57.3571,-111.8436,765.0,441.0,269.0,9.9,-2.5,15.51,29.81,688.2484,139.9973],
    [11353,1525549518,57.3571,-111.8447,764.0,439.0,269.4,9.7,-2.7,14.94,29.97,688.0465,139.9966],
    [11354,1525549519,57.3571,-111.8455,763.2,438.2,269.6,9.6,-2.8,14.89,29.95,688.0107,139.9966],
    [11355,1525549520,57.357,-111.8467,762.2,436.1,269.3,8.5,-2.3,15.24,30.07,687.653,139.9989],
    [11356,1525549521,57.357,-111.8477,762.0,435.0,268.7,8.0,-2.0,15.79,29.57,687.5836,139.9979],
    [11357,1525549522,57.357,-111.8487,763.4,435.4,268.8,7.7,-2.4,16.05,29.6,687.4291,140.0051],
    [11358,1525549523,57.3569,-111.8497,765.6,436.6,268.7,8.2,-2.5,14.88,29.92,687.3289,140.0012],
    [11359,1525549524,57.3569,-111.8507,767.9,437.9,268.2,9.0,-2.5,15.34,30.4,687.2895,140.0108],
    [11360,1525549525,57.3569,-111.8517,770.3,440.3,267.5,9.2,-2.5,15.17,29.74,687.1935,140.0028],
    [11361,1525549526,57.3568,-111.8527,772.3,443.3,267.2,9.3,-3.1,15.47,30.38,687.1104,140.0055],
    [11362,1525549527,57.3567,-111.8537,773.9,444.9,265.6,9.4,-3.0,15.32,30.18,686.9974,140.0007],
    [11363,1525549528,57.3566,-111.8547,775.7,446.8,262.0,9.4,-2.4,15.11,30.05,686.9931,140.0074],
    [11364,1525549529,57.3565,-111.8556,776.8,446.7,258.2,8.9,-2.2,14.94,30.03,686.938,140.0],
    [11365,1525549530,57.3563,-111.8566,777.9,447.9,253.9,8.0,-2.6,15.18,30.91,686.9283,139.9984],
    [11366,1525549531,57.3561,-111.8575,779.2,448.2,249.2,7.9,-2.6,14.91,30.5,686.8808,139.9937],
    [11367,1525549532,57.3559,-111.8584,780.2,449.0,244.7,8.1,-3.1,15.05,30.12,686.7317,139.9978],
    [11368,1525549533,57.3556,-111.8593,780.7,448.7,239.9,7.9,-3.1,15.52,30.19,686.6515,139.9953],
    [11369,1525549534,57.3552,-111.86,780.9,448.6,234.6,7.6,-2.8,14.98,30.0,686.6807,139.9944],
    [11370,1525549535,57.3549,-111.8607,781.4,448.4,229.8,7.9,-2.9,15.64,29.97,686.7726,140.0023],
    [11371,1525549536,57.3544,-111.8614,782.1,448.6,225.8,9.2,-2.6,14.98,30.64,686.7873,139.9975],
    [11372,1525549537,57.354,-111.862,782.8,448.8,222.2,10.4,-1.9,14.89,30.57,686.8801,139.9909],
    [11373,1525549538,57.3535,-111.8626,783.5,448.5,218.0,10.1,-1.7,15.1,30.48,686.769,139.9941],
    [11374,1525549539,57.353,-111.8631,783.5,448.2,215.6,10.8,-2.2,15.14,30.43,686.9495,140.0035],
    [11375,1525549540,57.3524,-111.8635,783.0,447.0,211.9,10.2,-2.7,15.7,30.11,687.0207,139.9998],
    [11376,1525549541,57.3519,-111.8639,782.5,446.5,208.0,9.8,-2.1,15.07,30.92,686.9811,139.9936],
    [11377,1525549542,57.3514,-111.8642,781.6,445.6,203.7,9.0,-2.2,15.27,30.72,686.9146,140.001],
    [11378,1525549543,57.3508,-111.8645,781.5,446.5,199.9,9.0,-1.8,15.15,30.74,687.2106,139.9975],
    [11379,1525549544,57.3502,-111.8647,781.1,447.2,198.1,10.2,-0.6,14.49,30.43,687.306,140.0062],
    [11380,1525549545,57.3496,-111.8649,779.6,446.7,196.2,10.7,-1.5,15.3,30.86,687.4566,140.0095],
    [11381,1525549546,57.349,-111.865,779.6,446.6,194.0,11.0,-1.6,15.29,30.91,687.6503,139.9958],
    [11382,1525549547,57.3484,-111.865,779.5,446.5,191.2,9.9,-2.2,15.77,29.92,687.6769,139.996],
    [11383,1525549548,57.3477,-111.8651,777.8,443.8,189.1,9.4,-2.5,15.57,29.93,687.6836,139.996],
    [11384,1525549549,57.3471,-111.8651,776.1,442.1,187.4,8.9,-3.1,14.98,30.27,687.7755,139.9981],
    [11385,1525549550,57.3465,-111.8651,774.3,440.3,186.6,9.0,-4.0,14.87,30.28,687.8362,140.003],
    [11386,1525549551,57.3459,-111.8651,772.6,438.6,187.3,10.1,-3.5,14.56,30.32,687.858,140.0055],
    [11387,1525549552,57.3453,-111.865,771.4,437.1,187.6,10.6,-2.8,15.14,30.35,687.88,140.0122],
    [11388,1525549553,57.3446,-111.865,771.0,436.3,186.9,10.4,-2.3,15.27,30.97,687.8608,139.9926],
    [11389,1525549554,57.3439,-111.865,770.1,436.1,187.5,11.3,-2.0,14.99,30.16,687.6968,139.9981],
    [11390,1525549555,57.3433,-111.8649,769.7,436.4,187.6,11.7,-1.7,15.54,29.99,687.6925,140.0],
    [11391,1525549556,57.3426,-111.8649,769.2,437.2,187.8,12.1,-2.5,14.53,30.01,687.4858,140.0006],
    [11392,1525549557,57.342,-111.8648,768.9,437.9,187.6,11.7,-3.1,15.83,29.44,687.2154,139.9988],
    [11393,1525549558,57.3414,-111.8648,769.1,438.1,187.3,11.2,-2.8,15.4,29.54,686.9668,139.9924],
    [11394,1525549559,57.3408,-111.8647,770.4,440.4,187.5,10.7,-2.7,15.02,29.71,686.7628,140.0006],
    [11395,1525549560,57.3402,-111.8647,771.6,441.6,187.1,9.8,-2.2,15.03,30.06,686.5662,140.002],
    [11396,1525549561,57.3395,-111.8647,773.5,443.5,187.6,9.5,-2.2,15.22,30.65,686.4734,139.9972],
    [11397,1525549562,57.3389,-111.8647,776.8,446.8,188.1,9.3,-1.9,15.47,29.4,686.2637,140.0044],
    [11398,1525549563,57.3382,-111.8647,779.9,449.2,189.0,9.6,-1.9,14.52,29.98,686.2365,140.0055],
    [11399,1525549564,57.3376,-111.8647,782.5,451.5,189.7,9.5,-2.4,14.66,29.88,686.059,139.9992],
    [11400,1525549565,57.337,-111.8648,784.9,452.9,190.3,9.7,-2.7,15.22,29.61,685.959,140.0013],
    [11401,1525549566,57.3365,-111.8648,786.2,454.2,192.0,11.0,-3.0,15.67,29.42,685.9361,139.9993],
    [11402,1525549567,57.3358,-111.8648,787.6,454.6,192.0,10.8,-2.3,15.07,30.13,685.9371,139.9953],
    [11403,1525549568,57.3352,-111.8649,789.5,456.5,191.4,10.3,-2.5,15.25,30.37,686.1566,139.9951],
    [11404,1525549569,57.3346,-111.8649,791.4,458.4,191.8,10.8,-2.3,14.69,30.02,686.3127,140.0008],
    [11405,1525549570,57.334,-111.865,792.9,459.9,192.0,10.7,-2.6,14.94,29.84,686.3624,140.0031],
    [11406,1525549571,57.3335,-111.865,793.7,460.7,191.9,10.5,-2.9,14.44,30.01,686.3366,139.9981],
    [11407,1525549572,57.3329,-111.8651,793.1,460.1,193.4,11.8,-3.5,15.03,30.1,686.3156,140.0001],
    [11408,1525549573,57.3322,-111.8651,791.3,458.3,194.1,12.5,-3.5,14.87,29.73,686.449,139.9978],
    [11409,1525549574,57.3316,-111.8652,789.3,456.3,193.7,11.9,-2.7,15.47,29.71,686.4868,140.0046],
    [11410,1525549575,57.331,-111.8653,788.3,455.3,193.3,11.2,-2.5,15.14,30.19,686.5334,140.0054],
    [11411,1525549576,57.3304,-111.8653,788.5,455.5,192.3,10.1,-2.6,15.01,30.28,686.621,139.9993],
    [11412,1525549577,57.3299,-111.8654,788.4,455.4,191.8,10.1,-2.5,15.43,29.81,686.4739,140.0],
    [11413,1525549578,57.3293,-111.8654,787.5,454.5,192.2,10.7,-3.0,15.44,29.28,686.4783,140.0],
    [11414,1525549579,57.3287,-111.8655,786.9,453.9,190.7,9.4,-2.4,14.91,29.9,686.5726,139.9971],
    [11415,1525549580,57.3281,-111.8655,786.2,452.2,190.0,9.2,-1.7,14.44,30.09,686.6103,140.0011],
    [11416,1525549581,57.3275,-111.8656,785.7,451.7,190.4,10.0,-2.3,14.97,30.15,686.7046,140.0027],
    [11417,1525549582,57.3269,-111.8656,786.3,451.3,189.1,9.1,-2.4,15.64,29.56,686.7002,140.0043],
    [11418,1525549583,57.3263,-111.8656,786.8,451.9,188.7,9.2,-2.8,14.57,30.0,686.6126,139.9944],
    [11419,1525549584,57.3257,-111.8656,786.5,451.2,188.9,9.8,-2.9,14.96,30.45,686.5132,139.9945],
    [11420,1525549585,57.3251,-111.8656,785.6,450.6,188.3,9.5,-2.7,14.85,30.03,686.4244,139.9972],
    [11421,1525549586,57.3245,-111.8656,784.6,449.6,188.2,9.5,-2.3,14.79,29.95,686.3981,139.9957],
    [11422,1525549587,57.3239,-111.8656,784.3,451.3,187.8,9.3,-2.6,15.43,29.52,686.4121,140.0006],
    [11423,1525549588,57.3233,-111.8656,785.1,452.9,187.8,9.9,-2.4,14.79,30.44,686.3352,140.0044],
    [11424,1525549589,57.3227,-111.8655,786.3,455.3,188.1,10.7,-2.4,15.03,30.03,686.3001,139.9995],
    [11425,1525549590,57.3221,-111.8655,787.2,456.2,187.1,9.8,-2.0,14.92,30.22,686.2096,139.9985],
    [11426,1525549591,57.3215,-111.8655,787.7,456.0,186.3,9.2,-1.3,14.87,29.98,686.1602,140.0003],
    [11427,1525549592,57.3209,-111.8655,788.0,454.9,186.5,9.4,-1.3,15.04,30.1,686.0766,140.0145],
    [11428,1525549593,57.3203,-111.8654,788.6,454.6,186.9,9.7,-1.3,14.76,30.11,686.0342,140.0025],
    [11429,1525549594,57.3197,-111.8654,789.2,455.2,187.2,9.7,-1.1,15.13,30.72,685.9426,139.9928],
    [11430,1525549595,57.3191,-111.8654,790.0,456.0,187.1,9.6,-1.1,15.48,29.7,685.8093,140.0005],
    [11431,1525549596,57.3185,-111.8653,790.8,456.8,187.2,9.9,-1.2,15.59,29.69,685.8347,139.9975],
    [11432,1525549597,57.3179,-111.8653,791.9,457.9,186.8,9.3,-2.7,14.97,30.16,685.8216,139.9888],
    [11433,1525549598,57.3173,-111.8653,793.0,459.0,187.3,10.1,-3.5,15.45,29.19,685.6518,140.0014],
    [11434,1525549599,57.3167,-111.8653,793.9,459.9,188.3,10.9,-3.0,15.03,30.17,685.6104,139.9986],
    [11435,1525549600,57.3161,-111.8652,794.9,460.9,186.5,9.2,-2.7,15.02,30.29,685.3627,139.999],
    [11436,1525549601,57.3156,-111.8652,795.3,461.3,186.4,9.5,-2.9,15.05,29.83,685.2217,139.9979],
    [11437,1525549602,57.3149,-111.8651,795.8,460.7,186.3,9.8,-1.9,15.23,29.7,684.9726,139.9944],
    [11438,1525549603,57.3143,-111.8651,796.6,461.6,186.2,9.5,-1.0,15.16,30.18,684.6707,140.0015],
    [11439,1525549604,57.3138,-111.8651,797.8,462.8,186.6,9.8,-1.9,15.2,30.12,684.6418,139.9892],
    [11440,1525549605,57.3132,-111.865,799.3,464.3,187.3,10.2,-2.7,15.46,30.19,684.7431,140.0033],
    [11441,1525549606,57.3125,-111.865,801.6,466.6,187.0,10.2,-2.6,15.05,30.45,684.7401,140.0147],
    [11442,1525549607,57.3119,-111.865,804.2,469.2,186.4,9.7,-1.9,14.99,30.0,684.7057,140.0006],
    [11443,1525549608,57.3113,-111.8649,807.0,472.0,183.6,7.2,-1.5,14.66,30.18,684.5942,140.0022],
    [11444,1525549609,57.3107,-111.8649,808.6,473.6,184.3,9.0,-1.0,15.49,30.13,684.4192,140.0053],
    [11445,1525549610,57.3101,-111.8648,807.8,472.8,185.5,11.1,-1.6,15.29,29.87,684.0964,139.9969],
    [11446,1525549611,57.3095,-111.8647,807.5,472.5,181.4,8.4,-1.6,15.26,29.81,684.0471,140.0018],
    [11447,1525549612,57.3089,-111.8646,808.1,474.1,179.7,8.9,-1.5,14.73,30.35,683.6001,140.0003],
    [11448,1525549613,57.3083,-111.8644,809.3,475.7,178.1,9.7,-1.0,15.02,30.52,683.5444,139.9939],
    [11449,1525549614,57.3076,-111.8641,811.7,478.7,173.5,8.3,-1.3,14.65,30.55,682.8317,139.986],
    [11450,1525549615,57.3071,-111.8639,814.7,481.7,171.2,9.7,-1.1,15.04,31.11,682.6636,139.9921],
    [11451,1525549616,57.3065,-111.8635,818.0,485.0,168.1,10.2,-1.1,15.2,30.57,682.4398,139.9932],
    [11452,1525549617,57.3059,-111.8631,821.3,488.3,163.1,9.4,-2.0,15.03,30.36,682.1378,139.996],
    [11453,1525549618,57.3054,-111.8626,825.7,493.7,158.3,8.6,-1.7,14.81,30.88,682.0793,139.9935],
    [11454,1525549619,57.3048,-111.862,830.1,499.1,152.7,7.4,-1.7,14.99,30.58,681.9228,139.9983],
    [11455,1525549620,57.3043,-111.8613,835.0,504.3,149.1,7.7,-0.1,15.27,29.79,681.9067,139.9854],
    [11456,1525549621,57.3039,-111.8607,838.6,508.6,145.4,7.7,-1.0,14.36,30.52,682.1352,140.0009],
    [11457,1525549622,57.3034,-111.8599,841.3,511.0,141.6,7.9,-1.2,15.0,30.35,682.3774,140.0034],
    [11458,1525549623,57.3029,-111.8591,843.1,512.1,138.4,7.7,-0.9,15.4,30.24,682.644,139.9989],
    [11459,1525549624,57.3025,-111.8583,844.1,513.1,134.3,7.0,-1.2,15.09,30.3,682.8828,140.0028],
    [11460,1525549625,57.3021,-111.8574,844.1,513.1,131.2,7.6,-0.9,15.1,30.87,683.0435,139.9879],
    [11461,1525549626,57.3018,-111.8565,842.5,511.5,128.7,8.3,-1.2,14.67,30.45,683.1467,139.9978],
    [11462,1525549627,57.3015,-111.8556,839.2,509.2,124.2,8.3,-2.3,14.92,30.49,683.2531,139.9937],
    [11463,1525549628,57.3011,-111.8545,835.7,505.7,119.0,8.2,-3.0,14.72,30.55,683.3253,139.9968],
    [11464,1525549629,57.3009,-111.8535,832.9,503.9,114.7,8.2,-3.6,14.94,31.02,683.5425,139.9957],
    [11465,1525549630,57.3006,-111.8524,830.9,502.9,111.8,8.8,-2.5,14.81,30.38,683.6887,139.9917],
    [11466,1525549631,57.3004,-111.8512,829.1,502.1,109.2,8.6,-2.3,14.81,30.69,683.7717,139.9952],
    [11467,1525549632,57.3002,-111.8501,827.6,501.6,105.6,8.2,-2.6,14.85,30.49,683.8734,139.9929],
    [11468,1525549633,57.3,-111.8489,826.2,500.9,103.3,9.0,-2.1,14.83,30.49,683.906,139.9922],
    [11469,1525549634,57.2999,-111.8477,824.6,499.6,99.2,9.0,-3.0,15.05,30.42,683.8109,139.9998],
    [11470,1525549635,57.2998,-111.8465,822.7,498.7,95.3,8.8,-3.2,15.07,30.49,683.7375,140.0014],
    [11471,1525549636,57.2997,-111.8454,821.2,497.2,92.2,8.6,-3.2,14.72,30.77,683.5164,139.995],
    [11472,1525549637,57.2997,-111.8442,820.2,496.1,88.4,8.5,-3.9,14.6,30.71,683.368,139.9991],
    [11473,1525549638,57.2997,-111.8429,819.3,496.3,85.2,8.1,-3.7,15.38,30.68,683.2956,140.0014],
    [11474,1525549639,57.2997,-111.8416,819.3,497.3,81.9,7.9,-4.0,14.49,31.07,683.4438,140.0154],
    [11475,1525549640,57.2998,-111.8403,820.8,498.8,79.3,8.6,-4.3,15.2,30.5,683.4495,139.9956],
    [11476,1525549641,57.2999,-111.8391,823.2,502.2,77.6,8.4,-4.3,14.77,30.68,683.5426,139.9932],
    [11477,1525549642,57.3,-111.8379,825.4,504.4,77.0,8.4,-4.0,14.83,30.62,683.6772,140.0036],
    [11478,1525549643,57.3001,-111.8368,826.1,505.1,77.1,8.8,-3.6,14.82,30.2,683.8697,139.9961],
    [11479,1525549644,57.3002,-111.8355,825.4,504.4,76.6,9.7,-4.0,15.01,30.52,684.3291,140.0033],
    [11480,1525549645,57.3003,-111.8343,824.5,503.5,76.8,9.1,-4.2,14.82,31.03,684.5187,140.0082],
    [11481,1525549646,57.3004,-111.8331,823.6,502.6,77.9,9.1,-3.4,14.83,31.03,684.6808,140.0004],
    [11482,1525549647,57.3005,-111.8318,822.3,501.3,78.2,9.4,-3.0,15.21,30.3,684.7091,140.0053],
    [11483,1525549648,57.3005,-111.8307,820.1,500.1,79.0,9.2,-2.2,14.75,30.67,684.7346,139.9951],
    [11484,1525549649,57.3006,-111.8295,816.1,496.1,81.1,9.0,-0.5,14.8,31.26,684.7114,140.0056],
    [11485,1525549650,57.3007,-111.8281,811.6,491.6,81.8,8.9,-0.4,14.78,31.14,684.6394,140.0066],
    [11486,1525549651,57.3008,-111.827,809.0,489.0,81.4,9.0,-1.7,14.34,30.68,684.7249,140.0035],
    [11487,1525549652,57.3009,-111.8257,808.6,488.6,80.0,9.2,-3.6,14.55,30.56,684.7706,140.0049],
    [11488,1525549653,57.3009,-111.8245,808.8,488.8,81.3,8.6,-2.3,14.71,30.46,684.6968,140.0031],
    [11489,1525549654,57.301,-111.8233,809.0,489.0,82.7,9.0,-1.8,14.69,30.59,684.3669,139.9904],
    [11490,1525549655,57.3011,-111.822,809.6,489.6,81.7,10.0,-3.6,14.31,30.78,684.3227,140.0073],
    [11491,1525549656,57.3011,-111.8207,809.5,490.5,84.7,9.7,-1.3,14.47,30.88,684.2078,140.0023],
    [11492,1525549657,57.3011,-111.8194,809.0,491.0,87.1,10.3,0.1,14.53,30.49,684.2347,139.9965],
    [11493,1525549658,57.3012,-111.8182,810.1,493.1,86.0,10.2,-1.6,14.59,30.68,684.1713,140.0056],
    [11494,1525549659,57.3012,-111.817,812.4,495.4,86.2,10.0,-1.6,14.78,30.88,684.249,139.9995],
    [11495,1525549660,57.3012,-111.8157,813.6,497.6,86.5,9.5,-1.7,14.8,30.27,684.2458,140.003],
    [11496,1525549661,57.3012,-111.8145,814.8,499.8,87.2,10.0,-1.2,14.72,30.65,684.0258,140.0054],
    [11497,1525549662,57.3013,-111.8133,815.5,501.5,88.4,10.4,-0.1,15.02,30.44,683.9419,140.0045],
    [11498,1525549663,57.3013,-111.8121,815.5,501.5,86.8,10.1,-2.2,14.98,30.41,683.6981,139.9994],
    [11499,1525549664,57.3013,-111.8108,815.3,501.3,85.9,10.2,-2.9,14.97,30.6,683.2671,140.0088],
    [11500,1525549665,57.3013,-111.8096,815.4,500.4,87.4,10.1,-1.8,14.34,30.78,683.0452,139.9938],
    [11501,1525549666,57.3013,-111.8083,816.8,500.8,86.3,10.3,-3.4,14.6,30.77,682.7182,139.9932],
    [11502,1525549667,57.3013,-111.8071,818.9,502.9,86.6,9.9,-2.8,14.48,30.91,682.6125,139.9987],
    [11503,1525549668,57.3013,-111.8059,821.6,505.6,87.3,8.9,-1.3,14.74,30.51,682.5552,139.9911],
    [11504,1525549669,57.3013,-111.8047,825.8,510.8,85.3,9.8,-1.3,14.59,30.24,682.453,140.0001],
    [11505,1525549670,57.3014,-111.8035,830.2,515.2,83.1,10.1,-0.6,15.1,30.04,682.3616,139.9945],
    [11506,1525549671,57.3015,-111.8024,833.6,518.6,79.8,10.9,-0.5,14.53,30.77,682.281,139.9924],
    [11507,1525549672,57.3016,-111.8012,835.7,521.7,74.5,11.2,-2.1,14.93,30.34,682.1882,140.0022],
    [11508,1525549673,57.3017,-111.8001,836.6,522.6,69.2,11.1,-3.1,15.25,30.35,682.0497,139.9949],
    [11509,1525549674,57.3019,-111.7989,837.3,524.1,64.7,10.0,-3.3,14.64,30.61,681.9595,139.9877],
    [11510,1525549675,57.3021,-111.7979,838.4,525.4,59.7,10.0,-3.3,14.75,31.18,681.8733,139.9972],
    [11511,1525549676,57.3024,-111.7969,839.6,526.6,56.1,9.3,-2.6,14.71,30.34,681.9256,140.0005],
    [11512,1525549677,57.3027,-111.7959,840.5,527.5,51.6,9.4,-2.7,15.09,30.28,682.0225,139.9941],
    [11513,1525549678,57.303,-111.795,841.8,529.8,46.6,9.6,-2.6,14.54,31.12,682.1535,139.9965],
    [11514,1525549679,57.3034,-111.7941,843.1,531.1,41.4,9.1,-3.5,14.26,30.61,682.5098,140.0021],
    [11515,1525549680,57.3039,-111.7932,844.0,532.0,34.3,11.0,-3.8,14.25,30.6,683.0207,139.9962],
    [11516,1525549681,57.3043,-111.7925,844.1,532.1,30.1,10.6,-3.5,14.69,30.46,683.4243,140.0085],
    [11517,1525549682,57.3048,-111.7919,843.1,531.1,25.2,11.1,-3.1,14.69,31.09,683.5846,139.9954],
    [11518,1525549683,57.3053,-111.7913,840.5,528.5,20.1,11.9,-2.6,14.57,31.1,683.8923,140.0],
    [11519,1525549684,57.3058,-111.7908,836.9,525.9,15.4,12.3,-2.1,14.4,30.58,684.0334,139.9987],
    [11520,1525549685,57.3063,-111.7903,832.7,521.7,10.2,12.7,-1.8,14.67,30.65,684.3094,139.998],
    [11521,1525549686,57.3069,-111.79,828.0,518.0,5.8,12.7,-1.4,14.69,31.36,684.5963,140.0022],
    [11522,1525549687,57.3074,-111.7897,824.2,515.0,361.7,12.7,-0.8,15.29,30.28,684.8906,140.006],
    [11523,1525549688,57.308,-111.7895,820.1,511.1,357.8,13.0,-0.8,14.93,30.46,684.9322,139.9966],
    [11524,1525549689,57.3085,-111.7894,817.1,508.1,354.9,13.5,-0.5,14.68,30.57,684.843,139.9982],
    [11525,1525549690,57.3091,-111.7893,813.8,503.8,352.8,13.5,0.0,14.66,30.95,684.7156,139.9851],
    [11526,1525549691,57.3097,-111.7892,809.9,499.9,351.7,13.3,0.4,14.26,30.71,684.6193,139.9909],
    [11527,1525549692,57.3102,-111.7891,806.8,496.0,351.1,12.9,0.0,14.08,30.85,684.7914,139.9949],
    [11528,1525549693,57.3108,-111.7891,805.7,494.7,352.2,11.1,-0.5,14.65,30.46,684.8475,140.0082],
    [11529,1525549694,57.3114,-111.7891,806.4,496.1,352.5,10.6,0.0,14.62,30.64,685.0235,140.0027],
    [11530,1525549695,57.312,-111.789,807.8,497.5,351.9,11.1,-1.2,14.57,30.25,685.1964,140.0065],
    [11531,1525549696,57.3126,-111.789,808.9,498.6,352.9,9.3,-2.1,14.58,30.56,685.1757,140.0102],
    [11532,1525549697,57.3132,-111.789,808.0,497.7,355.0,6.5,-1.9,14.93,30.27,685.1055,140.0097],
    [11533,1525549698,57.3138,-111.789,806.5,496.2,352.6,8.5,-0.8,14.65,31.04,684.9661,139.9987],
    [11534,1525549699,57.3144,-111.789,804.7,493.7,350.3,9.2,-0.6,14.72,30.38,684.5424,139.998],
    [11535,1525549700,57.315,-111.789,802.5,491.5,351.4,7.5,-1.4,14.62,30.59,684.365,139.9984],
    [11536,1525549701,57.3155,-111.7891,801.7,490.7,348.5,9.5,0.1,15.46,30.36,684.316,140.001],
    [11537,1525549702,57.3161,-111.7892,802.1,491.1,348.1,9.5,-0.1,14.4,30.73,684.1101,140.0023],
    [11538,1525549703,57.3167,-111.7892,805.3,494.3,348.9,8.9,0.6,14.92,30.67,683.9746,139.993],
    [11539,1525549704,57.3173,-111.7893,809.0,498.0,350.1,8.4,0.3,14.43,30.98,683.8888,139.9997],
    [11540,1525549705,57.3179,-111.7893,811.4,500.4,350.2,8.6,0.4,14.96,30.33,683.7151,139.9971],
    [11541,1525549706,57.3185,-111.7894,813.1,502.1,351.4,7.7,-0.5,14.87,30.64,683.5606,139.9954],
    [11542,1525549707,57.3191,-111.7894,814.8,503.8,351.6,8.0,-0.2,14.37,30.86,683.4781,139.9933],
    [11543,1525549708,57.3197,-111.7894,816.7,505.7,350.2,9.4,-0.3,14.83,30.77,683.4086,139.9938],
    [11544,1525549709,57.3202,-111.7895,818.2,507.2,350.9,8.5,-0.6,14.46,30.82,683.1415,139.9996],
    [11545,1525549710,57.3208,-111.7895,820.1,509.1,351.3,7.7,-1.1,14.31,30.83,683.0749,139.9888],
    [11546,1525549711,57.3214,-111.7896,821.9,510.9,351.9,7.1,-1.3,14.84,30.34,683.0201,139.9989],
    [11547,1525549712,57.322,-111.7896,823.3,513.3,351.1,8.1,-2.2,14.83,31.57,683.0458,139.9956],
    [11548,1525549713,57.3226,-111.7896,824.2,514.2,351.0,8.2,-2.9,14.74,31.05,683.0473,139.9782],
    [11549,1525549714,57.3231,-111.7897,825.8,515.8,350.0,9.0,-1.5,14.71,31.39,683.1564,140.001],
    [11550,1525549715,57.3237,-111.7897,827.6,517.6,350.5,8.1,-2.3,14.62,31.7,683.1407,139.9934],
    [11551,1525549716,57.3243,-111.7898,828.6,518.6,351.3,7.2,-1.4,15.11,31.18,683.1432,139.997],
    [11552,1525549717,57.3249,-111.7898,828.4,518.4,351.0,7.7,-1.1,14.85,31.78,683.2324,139.9987],
    [11553,1525549718,57.3255,-111.7899,827.8,517.8,351.5,7.7,-2.4,14.79,31.26,683.2794,140.003],
    [11554,1525549719,57.3261,-111.7899,826.8,516.8,351.5,8.5,-3.2,15.28,31.18,683.2584,140.0029],
    [11555,1525549720,57.3267,-111.7899,826.3,516.3,351.0,9.3,-2.9,14.77,31.16,683.1923,139.9976],
    [11556,1525549721,57.3273,-111.79,826.3,516.3,351.6,8.9,-2.9,14.75,31.39,683.0758,139.9992],
    [11557,1525549722,57.3278,-111.79,825.6,515.6,351.6,9.1,-2.9,14.74,31.39,683.0195,139.9885],
    [11558,1525549723,57.3284,-111.79,825.0,515.0,351.9,8.8,-2.8,14.99,30.75,682.992,140.0032],
    [11559,1525549724,57.3291,-111.79,825.1,515.1,352.3,8.4,-2.8,14.74,31.04,682.9252,139.9919],
    [11560,1525549725,57.3297,-111.79,825.8,515.8,352.3,8.5,-3.1,14.26,31.15,682.9022,140.0066],
    [11561,1525549726,57.3303,-111.79,826.8,517.0,352.7,8.2,-3.2,15.11,30.31,682.8808,139.9956],
    [11562,1525549727,57.3309,-111.7901,827.8,518.8,353.1,8.2,-3.7,14.95,31.13,682.9241,139.9955],
    [11563,1525549728,57.3315,-111.7901,828.4,520.8,353.0,8.5,-4.2,14.16,30.99,683.1207,140.01],
    [11564,1525549729,57.3321,-111.7901,828.8,523.1,352.9,8.6,-3.8,15.07,30.56,683.2,140.0003],
    [11565,1525549730,57.3326,-111.7901,829.5,525.6,351.8,9.7,-3.5,14.42,31.14,683.2542,139.998],
    [11566,1525549731,57.3332,-111.7901,829.6,525.3,351.9,9.0,-3.4,14.82,31.57,683.3553,139.9974],
    [11567,1525549732,57.3338,-111.7901,828.6,522.6,351.5,9.1,-3.1,14.72,30.5,683.3555,139.9988],
    [11568,1525549733,57.3344,-111.7901,827.5,519.8,350.4,9.4,-2.2,14.69,30.87,683.37,140.0045],
    [11569,1525549734,57.335,-111.7902,826.5,517.6,350.5,9.0,-2.1,14.49,30.9,683.2991,140.0006],
    [11570,1525549735,57.3355,-111.7902,825.7,516.7,349.8,9.2,-2.0,14.68,30.95,683.2923,140.0],
    [11571,1525549736,57.3361,-111.7902,824.8,515.8,349.7,9.2,-2.7,14.47,31.24,683.2461,139.9968],
    [11572,1525549737,57.3367,-111.7903,824.3,516.0,349.0,9.7,-2.8,14.73,31.02,683.1104,139.999],
    [11573,1525549738,57.3373,-111.7904,824.3,516.3,348.1,10.6,-2.8,14.6,31.51,683.0212,140.0019],
    [11574,1525549739,57.3379,-111.7904,824.7,516.7,347.9,10.6,-3.0,14.92,30.66,682.7885,139.9978],
    [11575,1525549740,57.3385,-111.7905,825.2,517.2,348.5,9.8,-2.6,14.35,31.15,682.5923,139.9958],
    [11576,1525549741,57.339,-111.7905,825.8,517.8,348.6,9.8,-3.0,14.69,31.22,682.4506,140.0039],
    [11577,1525549742,57.3396,-111.7906,827.1,519.1,348.9,9.7,-3.6,15.08,30.55,682.3349,139.9973],
    [11578,1525549743,57.3402,-111.7907,828.7,520.7,349.2,9.6,-3.1,15.07,30.72,682.2439,139.9992],
    [11579,1525549744,57.3408,-111.7907,830.7,522.7,348.8,10.0,-2.8,14.73,31.58,682.2274,140.0015],
    [11580,1525549745,57.3413,-111.7908,833.1,525.1,349.1,9.7,-2.9,14.87,30.62,682.2347,139.9952],
    [11581,1525549746,57.3419,-111.7908,835.1,528.1,348.4,10.4,-3.3,14.53,30.94,682.3209,139.9956],
    [11582,1525549747,57.3425,-111.7909,836.7,531.0,347.9,10.4,-3.3,14.98,30.84,682.4198,139.9988],
    [11583,1525549748,57.343,-111.7909,837.5,533.5,348.3,9.6,-3.0,14.31,31.36,682.424,139.999],
    [11584,1525549749,57.3436,-111.791,838.3,536.1,346.6,10.9,-2.5,14.09,30.97,682.6678,139.9999],
    [11585,1525549750,57.3441,-111.7911,838.5,536.8,346.2,10.6,-3.0,14.55,31.82,682.8249,140.003],
    [11586,1525549751,57.3447,-111.7912,837.7,536.7,345.8,10.3,-2.4,14.91,30.58,682.9329,139.9997],
    [11587,1525549752,57.3452,-111.7913,837.0,537.0,343.3,11.8,-1.3,14.45,31.36,683.0212,139.9969],
    [11588,1525549753,57.3458,-111.7914,835.7,535.7,342.5,11.8,-1.2,14.59,31.02,683.1201,140.0014],
    [11589,1525549754,57.3464,-111.7916,833.3,533.3,342.5,11.6,-1.6,14.83,31.4,683.0549,139.9987],
    [11590,1525549755,57.3469,-111.7917,831.3,530.2,342.5,11.5,-1.6,14.39,30.93,682.9301,139.9982],
    [11591,1525549756,57.3475,-111.7918,829.8,528.7,343.5,11.3,-2.0,15.2,30.68,682.9283,139.9978],
    [11592,1525549757,57.3481,-111.792,828.6,528.6,346.5,9.3,-2.3,14.91,31.42,682.9399,139.9988],
    [11593,1525549758,57.3486,-111.7921,827.7,527.7,349.1,8.3,-2.1,14.81,31.33,682.8896,139.9997],
    [11594,1525549759,57.3492,-111.7921,827.8,528.8,350.0,8.9,-2.7,14.72,31.28,682.699,140.001],
    [11595,1525549760,57.3497,-111.7922,828.9,528.8,351.0,8.5,-2.7,14.53,31.86,682.8652,140.0037],
    [11596,1525549761,57.3503,-111.7922,829.5,529.5,351.5,8.0,-2.3,14.29,31.08,682.8903,140.0129],
    [11597,1525549762,57.3509,-111.7922,828.9,528.0,351.0,8.6,-3.4,14.55,31.29,682.8251,140.0055],
    [11598,1525549763,57.3515,-111.7923,829.2,528.0,351.0,8.4,-3.7,14.58,30.97,682.7937,140.0102],
    [11599,1525549764,57.3521,-111.7923,830.0,528.1,351.6,7.1,-2.8,14.58,31.22,682.6542,139.997],
    [11600,1525549765,57.3527,-111.7924,830.2,526.4,351.4,6.0,-2.3,14.57,31.02,682.4233,140.0019],
    [11601,1525549766,57.3533,-111.7925,830.3,524.0,346.4,7.8,-2.3,14.76,30.96,682.2347,139.9986],
    [11602,1525549767,57.3538,-111.7927,830.3,523.3,338.7,9.1,-1.3,14.36,31.64,682.162,139.9936],
    [11603,1525549768,57.3543,-111.793,830.9,522.9,331.3,9.9,-1.2,15.09,30.75,681.9336,139.9898],
    [11604,1525549769,57.3548,-111.7934,832.5,525.5,325.4,8.9,-1.3,14.42,31.26,681.8548,139.9974],
    [11605,1525549770,57.3553,-111.7939,834.5,527.5,320.4,8.2,-1.0,14.73,31.84,681.8806,140.0013],
    [11606,1525549771,57.3557,-111.7945,836.9,529.9,312.9,9.4,-1.0,14.55,31.52,682.1861,139.9952],
    [11607,1525549772,57.3561,-111.7952,839.2,531.5,307.9,8.6,-2.3,14.6,31.61,682.5158,140.0016],
    [11608,1525549773,57.3564,-111.796,841.6,533.6,302.6,8.4,-3.2,14.65,31.37,683.0799,140.009],
    [11609,1525549774,57.3567,-111.7968,842.7,533.7,296.4,8.8,-2.7,14.63,32.36,683.2485,140.0124],
    [11610,1525549775,57.3569,-111.7977,842.5,532.5,291.4,8.2,-2.8,13.93,31.64,683.4481,140.0056],
    [11611,1525549776,57.3571,-111.7986,840.1,530.1,288.0,9.4,-3.4,14.68,31.62,683.592,139.997],
    [11612,1525549777,57.3572,-111.7995,835.7,524.7,283.7,9.0,-2.7,14.79,32.01,683.7129,139.9988],
    [11613,1525549778,57.3573,-111.8005,830.5,518.5,278.5,8.5,-1.4,14.48,32.14,683.727,139.9968],
    [11614,1525549779,57.3574,-111.8015,826.9,513.8,275.1,7.7,-2.0,14.16,31.58,683.8559,140.0124],
    [11615,1525549780,57.3574,-111.8025,824.2,510.7,272.6,6.7,-2.4,15.16,31.46,684.1598,140.0046],
    [11616,1525549781,57.3574,-111.8035,822.1,507.7,269.7,7.4,-2.4,14.64,31.53,684.2904,140.0029],
    [11617,1525549782,57.3573,-111.8044,820.8,506.4,268.0,7.6,-2.5,14.61,31.65,684.0944,140.0041],
    [11618,1525549783,57.3573,-111.8054,819.6,506.3,267.0,7.5,-2.6,14.85,31.16,684.0314,139.9954],
    [11619,1525549784,57.3572,-111.8064,818.2,504.7,266.8,7.2,-2.4,14.27,31.7,683.7455,139.9967],
    [11620,1525549785,57.3572,-111.8075,816.0,503.7,266.5,6.6,-1.5,14.13,31.79,683.6691,139.9971],
    [11621,1525549786,57.3571,-111.8085,813.7,499.0,269.7,6.4,-3.7,14.67,31.68,683.6683,139.9971],
    [11622,1525549787,57.3571,-111.8096,813.8,497.8,271.4,6.0,-3.8,14.31,31.84,683.4767,139.9949],
    [11623,1525549788,57.3571,-111.8106,816.2,499.1,273.2,6.4,-3.8,14.6,32.09,683.4767,139.9949],
    [11624,1525549789,57.3571,-111.8116,818.8,501.8,274.2,5.8,-3.5,14.6,32.14,683.1287,140.0048],
    [11625,1525549790,57.3571,-111.8126,820.2,503.2,275.0,5.3,-3.5,15.08,31.48,682.8991,139.9976],
    [11626,1525549791,57.3571,-111.8136,820.8,502.8,275.2,5.4,-3.1,14.76,31.26,682.8361,139.9916],
    [11627,1525549792,57.3572,-111.8146,821.8,503.8,275.2,6.3,-2.4,14.85,31.44,682.865,139.9984],
    [11628,1525549793,57.3572,-111.8156,823.8,505.9,276.9,6.6,-3.8,13.91,31.84,682.9372,139.9964],
    [11629,1525549794,57.3572,-111.8166,826.6,507.6,277.2,6.1,-3.8,14.48,32.0,682.9975,140.0016],
    [11630,1525549795,57.3573,-111.8176,829.3,509.2,276.6,5.8,-3.4,14.39,31.93,683.0404,140.0062],
    [11631,1525549796,57.3573,-111.8186,830.5,510.3,276.7,5.9,-3.9,14.83,31.58,682.9212,139.999],
    [11632,1525549797,57.3573,-111.8196,830.5,510.2,275.4,6.2,-3.1,14.29,31.93,682.5572,139.991],
    [11633,1525549798,57.3574,-111.8206,829.9,509.8,274.5,6.2,-3.0,14.83,31.79,682.4339,140.0002],
    [11634,1525549799,57.3574,-111.8216,829.0,509.6,273.1,5.8,-2.7,15.14,31.3,682.3933,140.0003],
    [11635,1525549800,57.3574,-111.8226,828.5,510.1,271.2,6.0,-1.9,14.55,31.59,682.1485,139.9873],
    [11636,1525549801,57.3574,-111.8236,829.3,512.0,269.9,5.9,-1.1,14.87,31.07,682.0898,139.9835],
    [11637,1525549802,57.3574,-111.8246,831.3,514.0,269.3,6.7,-1.1,14.01,31.68,682.1635,139.9971],
    [11638,1525549803,57.3573,-111.8257,834.3,515.9,269.1,7.3,-1.4,14.35,32.32,682.1502,140.0008],
    [11639,1525549804,57.3573,-111.8267,836.1,516.7,268.1,6.4,-0.2,14.55,31.76,682.2861,139.9979],
    [11640,1525549805,57.3573,-111.8277,837.9,517.7,267.3,7.6,0.7,14.56,31.8,682.4479,140.005],
    [11641,1525549806,57.3573,-111.8287,838.7,517.7,268.8,8.6,-0.9,14.59,32.3,682.5465,140.0073],
    [11642,1525549807,57.3573,-111.8298,838.5,517.2,268.7,8.7,-0.6,15.09,31.78,682.6304,139.9989],
    [11643,1525549808,57.3572,-111.8308,838.2,517.1,268.3,8.3,-0.2,14.57,32.24,682.5883,140.0103],
    [11644,1525549809,57.3572,-111.8317,837.2,517.2,268.5,8.0,-0.3,14.68,32.4,682.4353,139.9818],
    [11645,1525549810,57.3572,-111.8328,835.7,515.7,268.4,7.4,-0.3,14.58,32.52,682.1428,139.9914],
    [11646,1525549811,57.3572,-111.8338,834.2,514.2,269.3,6.3,-1.3,14.39,32.09,681.9787,140.0049],
    [11647,1525549812,57.3572,-111.8349,833.1,513.1,270.2,5.7,-2.4,14.35,31.99,681.9083,139.9972],
    [11648,1525549813,57.3571,-111.8359,832.6,511.6,270.2,5.9,-2.5,14.36,32.37,681.7503,140.0063],
    [11649,1525549814,57.3571,-111.837,833.3,512.3,271.5,6.7,-4.3,14.43,32.43,681.6276,139.993],
    [11650,1525549815,57.3571,-111.838,836.1,514.1,272.9,7.8,-5.4,14.28,32.41,681.567,139.9963],
    [11651,1525549816,57.3571,-111.8391,839.1,518.2,270.2,9.1,-2.0,14.47,32.5,681.4216,139.999],
    [11652,1525549817,57.3571,-111.8402,840.9,518.9,271.3,8.5,-2.6,14.64,32.62,681.4036,140.0076],
    [11653,1525549818,57.3571,-111.8412,842.6,519.6,271.3,7.9,-1.5,14.39,32.3,681.1762,140.0],
    [11654,1525549819,57.3571,-111.8422,844.1,521.1,271.7,8.4,-1.3,14.6,32.68,681.1347,140.0112],
    [11655,1525549820,57.3571,-111.8432,844.9,520.9,272.8,8.5,-2.1,14.6,32.76,680.8832,139.9904],
    [11656,1525549821,57.3571,-111.8442,845.8,520.8,273.1,8.3,-2.5,14.91,31.68,680.6192,140.0056],
    [11657,1525549822,57.3571,-111.8453,847.3,522.3,271.7,9.0,-1.7,14.97,31.28,680.3756,140.0009],
    [11658,1525549823,57.3571,-111.8464,849.6,524.6,269.9,9.0,-1.8,14.45,31.74,679.7855,139.9928],
    [11659,1525549824,57.3571,-111.8474,851.2,524.8,267.9,9.9,-2.4,14.51,31.73,679.777,140.0021],
    [11660,1525549825,57.357,-111.8483,853.0,525.7,264.3,11.7,-2.5,14.58,31.56,679.8308,139.9974],
    [11661,1525549826,57.3569,-111.8493,856.8,527.7,258.7,11.0,-1.3,14.49,31.55,679.969,139.999],
    [11662,1525549827,57.3567,-111.8502,861.3,531.5,253.6,10.6,-0.1,14.74,31.14,680.113,140.0],
    [11663,1525549828,57.3565,-111.8512,865.7,535.0,250.1,11.4,-0.4,14.52,31.78,680.2966,140.0061],
    [11664,1525549829,57.3563,-111.852,867.8,537.8,248.8,11.3,-1.4,14.7,31.52,680.443,140.0075],
    [11665,1525549830,57.3561,-111.8529,867.6,537.3,245.6,10.9,-1.7,14.67,31.1,680.6473,140.0076],
    [11666,1525549831,57.3558,-111.8538,866.4,535.7,242.0,11.3,-1.5,14.34,31.86,680.6361,139.9993],
    [11667,1525549832,57.3554,-111.8546,864.7,532.7,238.5,11.3,-1.5,14.26,31.54,680.558,139.993],
    [11668,1525549833,57.3551,-111.8553,862.7,530.4,234.9,12.0,-0.9,14.73,31.17,680.6604,140.0059],
    [11669,1525549834,57.3547,-111.856,860.7,527.7,231.4,11.0,-1.6,14.85,31.25,680.887,140.0066],
    [11670,1525549835,57.3543,-111.8567,858.9,525.6,228.9,10.9,-2.7,14.88,31.18,681.1437,140.0015],
    [11671,1525549836,57.3538,-111.8574,858.3,524.3,224.5,9.9,-1.8,14.48,31.29,681.2015,140.0054],
    [11672,1525549837,57.3534,-111.858,858.6,524.6,221.7,10.5,-0.8,14.64,30.93,681.266,139.9955],
    [11673,1525549838,57.3529,-111.8585,857.9,522.9,221.0,11.1,-1.8,13.92,31.49,681.2592,139.9926],
    [11674,1525549839,57.3524,-111.8591,855.9,520.9,219.5,10.7,-2.7,14.54,31.27,681.3443,139.9982],
    [11675,1525549840,57.352,-111.8596,853.4,518.4,217.4,9.9,-3.0,14.96,30.63,681.3818,140.0079],
    [11676,1525549841,57.3515,-111.8601,850.8,515.7,213.9,8.7,-2.4,14.25,31.44,681.6135,139.9903],
    [11677,1525549842,57.3509,-111.8605,849.5,515.6,211.1,8.7,-2.6,15.27,30.86,681.9673,140.0157],
    [11678,1525549843,57.3504,-111.861,849.7,515.7,210.1,9.9,-3.1,14.06,31.22,682.1545,140.0049],
    [11679,1525549844,57.3498,-111.8613,849.1,516.1,209.2,10.2,-3.0,15.0,30.91,682.2975,139.9967],
    [11680,1525549845,57.3493,-111.8617,848.0,515.0,205.9,8.5,-2.1,14.22,31.37,682.3334,140.0032],
    [11681,1525549846,57.3487,-111.862,845.8,512.8,206.3,10.9,-1.3,14.63,31.05,682.2016,139.9949],
    [11682,1525549847,57.3481,-111.8623,842.7,508.7,205.4,10.3,-1.5,14.49,32.21,682.3131,140.005],
    [11683,1525549848,57.3475,-111.8627,839.7,505.4,203.8,9.6,-1.1,14.49,31.88,682.446,140.0047],
    [11684,1525549849,57.347,-111.8629,837.7,502.7,204.6,10.7,-1.5,14.69,31.98,682.6054,140.0043],
    [11685,1525549850,57.3464,-111.8632,837.0,502.0,204.2,10.2,-1.6,14.77,31.55,682.622,140.0064],
    [11686,1525549851,57.3459,-111.8635,837.4,502.4,203.7,10.2,-1.2,14.37,31.83,682.5335,139.9966],
    [11687,1525549852,57.3453,-111.8638,837.0,502.0,203.0,10.0,-1.6,14.52,31.55,682.535,140.0023],
    [11688,1525549853,57.3447,-111.8641,835.8,500.8,200.7,9.4,-1.4,14.69,31.14,682.3502,139.9966],
    [11689,1525549854,57.3441,-111.8643,834.5,500.0,200.1,10.3,-2.5,14.43,31.35,682.3585,139.9945],
    [11690,1525549855,57.3436,-111.8645,833.9,499.9,198.3,10.1,-2.7,14.25,31.51,682.3733,140.0038],
    [11691,1525549856,57.3429,-111.8646,834.1,501.1,195.8,9.9,-1.8,14.71,31.14,682.3971,140.0002],
    [11692,1525549857,57.3424,-111.8647,835.1,503.1,194.2,10.2,-1.9,14.5,31.0,682.3766,140.0025],
    [11693,1525549858,57.3419,-111.8648,836.3,505.3,192.1,9.4,-1.4,14.62,31.17,682.3645,140.0021],
    [11694,1525549859,57.3412,-111.8649,836.8,505.8,192.2,10.4,-2.0,14.57,31.73,682.2307,140.0048],
    [11695,1525549860,57.3406,-111.8649,837.0,507.0,191.8,10.4,-1.7,14.38,31.54,682.0913,140.0071],
    [11696,1525549861,57.34,-111.865,836.9,506.9,191.5,10.6,-2.0,14.72,31.12,682.0442,140.0079],
    [11697,1525549862,57.3394,-111.865,836.9,506.9,191.3,10.7,-2.1,14.6,31.04,681.9974,140.0018],
    [11698,1525549863,57.3388,-111.865,837.2,507.2,190.9,10.8,-1.1,14.2,31.26,682.0675,139.9993],
    [11699,1525549864,57.3382,-111.8651,838.2,507.6,190.9,11.2,-1.5,14.69,30.92,682.0595,139.9999],
    [11700,1525549865,57.3377,-111.8651,839.8,508.8,190.7,10.9,-2.0,14.48,31.31,681.9218,139.9929],
    [11701,1525549866,57.3371,-111.8651,841.1,509.1,190.2,10.3,-2.1,14.48,31.72,681.867,140.0004],
    [11702,1525549867,57.3365,-111.8651,841.8,509.8,190.6,10.4,-2.5,14.55,31.57,681.8421,140.0012],
    [11703,1525549868,57.3359,-111.8651,841.8,508.8,191.0,10.7,-2.5,14.58,31.23,681.8013,140.0031],
    [11704,1525549869,57.3354,-111.8651,841.8,508.8,191.1,10.5,-2.4,14.12,31.25,681.9527,139.997],
    [11705,1525549870,57.3348,-111.8652,842.4,509.4,190.5,10.0,-2.8,14.49,31.69,682.1306,140.0013],
    [11706,1525549871,57.3343,-111.8652,843.4,510.4,190.6,10.3,-2.7,14.82,30.66,682.4927,139.9964],
    [11707,1525549872,57.3337,-111.8652,844.3,511.3,190.5,10.4,-3.2,14.39,31.3,682.6254,140.0098],
    [11708,1525549873,57.3331,-111.8652,844.4,511.4,189.5,9.7,-3.9,14.41,32.19,682.8726,140.0],
    [11709,1525549874,57.3325,-111.8652,843.3,510.3,188.3,9.2,-3.9,14.08,31.39,682.9897,139.9966],
    [11710,1525549875,57.332,-111.8652,841.4,508.4,188.2,9.6,-3.7,14.46,31.57,683.1934,139.9979],
    [11711,1525549876,57.3314,-111.8652,838.2,505.2,187.9,9.8,-3.9,14.02,31.34,683.2728,140.0105],
    [11712,1525549877,57.3308,-111.8651,834.9,501.9,187.0,9.1,-3.7,14.69,30.9,683.2372,139.9941],
    [11713,1525549878,57.3302,-111.8651,831.7,498.7,186.0,8.6,-3.6,14.55,31.06,683.2299,140.004],
    [11714,1525549879,57.3296,-111.8651,829.5,496.5,186.7,9.9,-4.1,14.25,31.38,683.1258,139.9986],
    [11715,1525549880,57.329,-111.865,827.7,494.7,186.5,10.1,-4.1,14.34,31.41,682.95,140.0141],
    [11716,1525549881,57.3284,-111.865,826.6,493.6,185.4,9.7,-4.1,13.8,31.44,682.425,139.9916],
    [11717,1525549882,57.3279,-111.8649,826.4,493.1,185.0,9.9,-2.9,14.43,31.33,682.3218,139.9928],
    [11718,1525549883,57.3273,-111.8648,826.6,492.6,184.4,9.4,-2.1,14.42,31.38,682.2401,140.0023],
    [11719,1525549884,57.3267,-111.8648,827.6,493.6,184.9,9.1,-1.7,14.49,31.75,682.1734,139.9914],
    [11720,1525549885,57.3261,-111.8647,830.4,496.4,184.9,8.0,-2.5,14.33,31.38,682.2393,140.0068],
    [11721,1525549886,57.3256,-111.8647,834.0,500.0,186.7,9.1,-3.0,14.72,31.07,682.1991,140.0067],
    [11722,1525549887,57.3249,-111.8647,837.5,503.5,187.3,8.5,-3.9,14.22,31.33,682.1356,140.0029],
    [11723,1525549888,57.3243,-111.8646,839.1,505.4,186.0,6.9,-2.9,14.49,31.39,682.0737,139.9995],
    [11724,1525549889,57.3237,-111.8646,840.0,507.0,188.0,8.9,-2.9,14.57,32.08,682.1826,140.001],
    [11725,1525549890,57.3232,-111.8646,839.8,508.5,189.4,10.1,-3.7,14.38,32.35,681.9999,139.9975],
    [11726,1525549891,57.3226,-111.8646,840.0,509.3,187.8,8.7,-4.1,14.21,31.4,681.9273,139.9902],
    [11727,1525549892,57.322,-111.8646,840.7,510.7,187.5,8.4,-4.1,15.0,31.09,681.8015,139.9962],
    [11728,1525549893,57.3214,-111.8646,840.8,509.8,187.6,8.5,-3.8,14.36,31.6,681.6028,139.9857],
    [11729,1525549894,57.3208,-111.8646,840.3,507.3,188.2,9.4,-3.7,14.48,32.11,681.501,140.0141],
    [11730,1525549895,57.3203,-111.8646,841.0,508.0,187.9,8.6,-4.1,14.44,31.66,681.3806,139.9965],
    [11731,1525549896,57.3196,-111.8646,842.6,508.6,186.8,8.1,-3.0,14.34,31.87,681.4499,139.9942],
    [11732,1525549897,57.3191,-111.8646,843.8,509.7,188.2,9.5,-2.4,14.62,31.37,681.606,140.0037],
    [11733,1525549898,57.3185,-111.8646,845.5,512.5,187.2,8.4,-0.9,14.74,31.87,681.5999,139.9934],
    [11734,1525549899,57.3179,-111.8646,846.9,513.9,184.7,5.9,-0.4,14.22,31.73,681.5732,140.0033],
    [11735,1525549900,57.3173,-111.8646,847.7,514.7,184.4,6.2,-1.3,14.95,31.16,681.462,140.0003],
    [11736,1525549901,57.3169,-111.8646,848.0,514.7,184.9,7.5,-0.9,14.67,31.92,681.266,140.0004],
    [11737,1525549902,57.3162,-111.8645,846.7,512.7,185.7,8.1,-0.9,14.2,31.82,680.9805,139.9924],
    [11738,1525549903,57.3156,-111.8645,846.4,512.4,184.9,7.6,-1.3,14.44,31.59,680.8455,139.9966],
    [11739,1525549904,57.3149,-111.8645,846.9,512.9,186.1,8.5,-2.0,14.56,32.18,680.7585,139.9957],
    [11740,1525549905,57.3143,-111.8644,848.2,514.2,185.1,7.5,-1.7,14.46,31.89,680.7768,140.001],
    [11741,1525549906,57.3137,-111.8644,850.5,515.8,185.4,8.2,-0.6,14.87,31.09,680.8584,140.0024],
    [11742,1525549907,57.3131,-111.8644,853.1,518.1,186.8,9.6,-1.1,14.01,31.58,680.845,139.9988],
    [11743,1525549908,57.3125,-111.8643,855.3,520.3,187.3,10.5,-1.1,15.03,30.9,680.6843,140.0177],
    [11744,1525549909,57.3119,-111.8643,856.2,521.2,186.6,10.2,-1.0,14.93,30.82,680.2776,140.0082],
    [11745,1525549910,57.3113,-111.8642,856.5,521.5,186.6,10.6,-0.7,15.24,31.06,679.9099,140.01],
    [11746,1525549911,57.3107,-111.8642,856.1,521.1,186.9,11.2,-1.0,15.13,31.14,679.0525,139.9935],
    [11747,1525549912,57.3101,-111.8641,856.0,521.0,185.9,11.4,-0.3,14.08,31.43,678.4548,139.991],
    [11748,1525549913,57.3095,-111.864,857.4,523.4,181.6,9.5,-0.7,14.5,31.13,677.5939,139.9939],
    [11749,1525549914,57.309,-111.8639,861.0,527.7,175.9,7.9,-1.4,14.44,31.91,677.1872,139.994],
    [11750,1525549915,57.3083,-111.8636,867.1,534.1,172.1,8.5,-1.8,14.91,31.41,676.6364,139.9889],
    [11751,1525549916,57.3078,-111.8633,874.8,542.8,168.2,8.8,-1.5,14.44,31.66,676.3575,139.992],
    [11752,1525549917,57.3072,-111.8629,884.1,552.1,164.1,9.2,-1.6,14.24,31.09,676.1941,139.9887],
    [11753,1525549918,57.3067,-111.8624,892.8,561.5,160.8,8.8,-0.5,14.29,31.55,676.3053,139.9944],
    [11754,1525549919,57.3062,-111.8619,900.4,569.3,156.2,8.0,-1.2,14.46,31.38,676.5656,140.0018],
    [11755,1525549920,57.3057,-111.8614,906.9,576.9,152.4,8.0,-1.3,14.44,31.53,676.6258,140.0029],
    [11756,1525549921,57.3052,-111.8607,911.9,581.9,148.7,7.8,-1.8,13.98,31.64,676.7812,139.9916],
    [11757,1525549922,57.3047,-111.8601,914.3,584.3,144.4,7.1,-2.5,14.15,31.52,676.5805,139.9969],
    [11758,1525549923,57.3043,-111.8593,913.8,583.8,141.0,7.1,-2.1,14.38,31.66,676.2958,139.9856],
    [11759,1525549924,57.3038,-111.8585,911.6,580.6,136.1,7.0,-3.3,14.3,32.2,676.1477,140.0016],
    [11760,1525549925,57.3034,-111.8577,909.1,578.1,130.1,5.7,-4.3,14.4,31.81,675.8927,139.9904],
    [11761,1525549926,57.303,-111.8568,907.6,576.6,126.3,5.7,-4.0,14.18,31.69,675.888,139.9929],
    [11762,1525549927,57.3027,-111.8558,908.2,577.9,122.9,4.9,-3.7,14.24,31.78,675.967,139.9998],
    [11763,1525549928,57.3024,-111.8549,910.6,580.6,120.4,4.8,-3.7,14.32,32.37,676.0011,139.9971],
    [11764,1525549929,57.302,-111.8539,913.4,584.4,118.9,5.7,-3.7,14.23,32.22,676.3304,139.9969],
    [11765,1525549930,57.3017,-111.8528,916.0,587.0,116.4,5.8,-3.4,14.23,32.09,676.499,140.006],
    [11766,1525549931,57.3015,-111.8518,917.3,589.9,115.4,7.5,-3.0,14.16,31.76,676.6707,139.9917],
    [11767,1525549932,57.3012,-111.8506,917.3,590.2,112.0,7.2,-3.5,13.76,32.09,676.943,140.0064],
    [11768,1525549933,57.301,-111.8495,916.6,590.6,109.6,7.8,-3.1,14.17,31.94,677.1341,140.0013],
    [11769,1525549934,57.3008,-111.8484,914.3,589.3,107.4,8.4,-2.7,14.47,31.86,677.2055,140.0048],
    [11770,1525549935,57.3006,-111.8473,910.9,585.9,102.0,8.5,-4.4,14.22,32.29,677.1308,140.0078],
    [11771,1525549936,57.3004,-111.846,908.1,584.1,97.9,9.0,-3.6,14.15,32.21,677.0336,139.9908],
    [11772,1525549937,57.3004,-111.8448,905.3,582.3,95.8,9.2,-2.4,14.79,31.74,677.0424,140.0005],
    [11773,1525549938,57.3003,-111.8437,902.8,579.8,92.5,9.3,-2.2,14.16,31.92,677.0206,139.9983],
    [11774,1525549939,57.3003,-111.8424,901.7,579.6,89.8,8.5,-1.8,14.96,31.73,676.8657,139.9952],
    [11775,1525549940,57.3003,-111.8412,901.6,579.6,86.2,9.2,-2.5,14.47,31.69,676.7778,139.9992],
    [11776,1525549941,57.3003,-111.8401,902.4,581.5,84.8,9.7,-1.0,14.07,32.27,676.8226,139.9985],
    [11777,1525549942,57.3004,-111.8388,903.4,582.4,81.9,9.5,-1.6,14.1,32.1,676.9057,140.0026],
    [11778,1525549943,57.3004,-111.8375,903.7,582.7,78.3,9.1,-2.5,14.27,31.94,677.1043,140.0018],
    [11779,1525549944,57.3005,-111.8365,904.7,583.7,76.5,9.3,-2.3,13.54,32.29,677.2481,140.0044],
    [11780,1525549945,57.3007,-111.8352,905.7,584.7,73.6,9.2,-3.8,14.29,32.19,677.2309,140.0092],
    [11781,1525549946,57.3008,-111.834,905.6,584.6,72.7,8.7,-3.3,13.88,32.14,677.0964,140.004],
    [11782,1525549947,57.3009,-111.8328,905.0,584.0,74.1,7.7,-2.1,14.01,32.43,676.9868,140.0038],
    [11783,1525549948,57.3011,-111.8316,903.5,583.5,73.8,7.9,-2.9,13.93,31.93,676.8672,140.0017],
    [11784,1525549949,57.3012,-111.8304,901.8,581.8,75.8,7.7,-2.3,14.09,31.97,676.8131,139.9984],
    [11785,1525549950,57.3013,-111.8292,901.2,581.2,77.4,8.2,-2.7,14.34,32.15,676.7731,140.0006],
    [11786,1525549951,57.3014,-111.8281,902.2,582.2,78.5,8.7,-3.5,14.14,32.53,676.6343,140.0007],
    [11787,1525549952,57.3015,-111.8269,903.9,583.9,81.3,9.5,-2.7,14.31,31.82,676.5091,139.9957],
    [11788,1525549953,57.3016,-111.8257,905.1,585.1,83.1,9.5,-3.2,13.74,31.94,676.4673,139.9921],
    [11789,1525549954,57.3016,-111.8244,906.2,586.2,84.6,9.7,-3.5,14.09,32.31,676.3507,139.9968],
    [11790,1525549955,57.3016,-111.8232,907.2,587.2,86.8,10.1,-3.4,14.05,32.01,676.3677,139.9947],
    [11791,1525549956,57.3016,-111.8221,908.4,588.4,87.9,10.2,-4.3,14.12,32.43,676.59,140.0],
    [11792,1525549957,57.3016,-111.8208,909.3,590.3,89.3,9.8,-4.4,14.31,31.86,676.685,140.0017],
    [11793,1525549958,57.3015,-111.8197,910.2,592.2,91.3,9.5,-3.0,14.17,32.74,676.8209,139.9964],
    [11794,1525549959,57.3015,-111.8184,911.0,593.2,90.9,9.6,-3.6,14.02,32.43,676.816,139.9916],
    [11795,1525549960,57.3015,-111.8173,910.7,593.7,90.5,9.0,-3.4,14.61,31.91,676.7775,139.9939],
    [11796,1525549961,57.3014,-111.816,909.6,593.6,90.3,9.8,-2.8,14.26,31.85,676.5675,139.9909],
    [11797,1525549962,57.3014,-111.8148,908.2,593.2,88.0,9.9,-3.7,13.9,32.23,676.4272,139.9968],
    [11798,1525549963,57.3014,-111.8136,907.0,593.0,86.5,10.3,-3.2,14.32,31.76,676.3802,139.9982],
    [11799,1525549964,57.3014,-111.8124,906.2,592.2,85.2,8.7,-2.0,13.77,32.63,676.2402,139.9923],
    [11800,1525549965,57.3014,-111.8116,906.2,592.2,83.5,7.8,-1.6,13.61,32.17,676.1918,140.0027],
    [11801,1525549966,57.3015,-111.8102,907.7,592.7,78.1,8.4,-2.9,13.71,32.19,676.1514,139.9969],
    [11802,1525549967,57.3017,-111.8088,909.8,593.8,72.7,8.0,-4.2,13.78,32.23,676.3509,140.0034],
    [11803,1525549968,57.3018,-111.8077,911.2,595.2,69.0,8.1,-4.2,13.43,32.16,676.4071,140.0074],
    [11804,1525549969,57.302,-111.8066,912.4,596.4,65.5,7.4,-4.8,13.95,32.3,676.3063,139.9865],
    [11805,1525549970,57.3022,-111.8053,913.2,597.2,61.7,8.9,-4.5,13.85,32.52,676.1006,139.9945],
    [11806,1525549971,57.3025,-111.8043,913.5,598.4,59.1,9.6,-4.0,14.15,31.68,676.034,139.9972],
    [11807,1525549972,57.3027,-111.8033,912.8,597.8,57.2,9.9,-3.2,13.82,32.23,675.7,139.9981],
    [11808,1525549973,57.3031,-111.8021,911.1,596.1,52.7,10.3,-3.9,14.1,32.21,675.7993,139.9975],
    [11809,1525549974,57.3034,-111.8012,911.0,597.0,48.8,9.7,-3.9,13.86,32.19,675.956,139.9963],
    [11810,1525549975,57.3038,-111.8002,913.2,599.2,46.5,7.7,-3.6,13.7,32.07,676.0433,139.9996],
    [11811,1525549976,57.3042,-111.7992,916.1,602.1,44.0,8.2,-2.3,14.02,32.11,676.2354,140.0053],
    [11812,1525549977,57.3046,-111.7984,918.5,604.5,40.1,9.5,-2.4,13.93,32.77,676.3711,140.0092],
    [11813,1525549978,57.305,-111.7975,919.0,606.0,38.1,9.0,-2.1,13.56,32.43,676.2081,139.9751],
    [11814,1525549979,57.3055,-111.7968,917.3,605.3,34.3,9.6,-2.9,14.66,31.76,676.2341,139.992],
    [11815,1525549980,57.3059,-111.796,915.3,604.0,29.9,10.5,-3.8,14.48,32.22,676.1451,139.9982],
    [11816,1525549981,57.3064,-111.7954,913.0,602.3,26.5,10.8,-3.9,14.24,32.27,676.1022,139.996],
    [11817,1525549982,57.307,-111.7947,910.6,600.6,23.1,10.4,-4.3,14.01,32.88,676.0863,139.9902],
    [11818,1525549983,57.3075,-111.7941,911.1,602.2,20.0,9.0,-5.8,14.05,32.25,676.1036,139.9974],
    [11819,1525549984,57.308,-111.7936,912.1,602.4,20.0,6.9,-4.2,13.96,32.68,676.1426,140.0031],
    [11820,1525549985,57.3086,-111.7931,912.5,602.5,17.7,7.2,-4.9,13.95,32.68,676.1521,140.0038],
    [11821,1525549986,57.3091,-111.7926,913.0,601.9,16.5,6.6,-4.7,13.83,32.37,675.9424,140.0012],
    [11822,1525549987,57.3097,-111.7922,913.3,602.3,14.9,7.1,-3.8,13.62,32.72,675.9913,139.99],
    [11823,1525549988,57.3103,-111.7918,913.3,601.3,11.8,7.9,-4.5,13.84,32.49,676.0831,139.9937],
    [11824,1525549989,57.3109,-111.7914,913.1,601.1,10.0,8.2,-4.8,13.79,32.47,676.2454,139.9942],
    [11825,1525549990,57.3115,-111.7911,912.9,601.2,6.9,10.1,-4.8,13.97,32.29,676.8464,139.9985],
    [11826,1525549991,57.3121,-111.7908,914.0,603.0,6.5,8.7,-4.0,13.6,32.28,677.0948,140.0005],
    [11827,1525549992,57.3126,-111.7906,914.3,603.3,5.6,8.2,-3.9,14.18,32.12,677.4191,140.0029],
    [11828,1525549993,57.3132,-111.7903,913.4,602.4,3.2,8.5,-4.3,14.08,31.79,677.6448,140.0031],
    [11829,1525549994,57.3139,-111.7901,910.6,599.6,361.5,8.5,-4.0,13.99,32.19,677.9149,140.0025],
    [11830,1525549995,57.3145,-111.79,906.2,595.2,359.3,9.1,-4.1,14.24,31.52,678.272,140.0038],
    [11831,1525549996,57.3151,-111.7899,901.0,590.0,358.2,8.5,-4.3,13.98,31.73,678.3844,140.0119],
    [11832,1525549997,57.3157,-111.7898,897.1,586.1,356.7,8.7,-4.2,14.02,32.11,678.4016,140.0078],
    [11833,1525549998,57.3163,-111.7897,893.8,582.8,355.0,8.8,-3.9,13.61,31.7,678.2628,140.0075],
    [11834,1525549999,57.3169,-111.7897,890.9,579.9,353.1,9.5,-3.7,13.97,31.93,677.9949,139.998],
    [11835,1525550000,57.3175,-111.7897,887.4,576.4,351.6,10.6,-3.6,13.44,31.66,677.6451,140.0072],
    [11836,1525550001,57.3182,-111.7897,884.6,573.6,351.3,11.0,-3.2,13.92,31.56,677.482,139.9974],
    [11837,1525550002,57.3188,-111.7897,883.7,572.7,352.5,10.1,-3.0,14.17,31.64,677.3503,139.9938],
    [11838,1525550003,57.3194,-111.7897,885.6,574.6,353.0,10.4,-2.8,14.05,31.29,677.4651,140.0007],
    [11839,1525550004,57.32,-111.7896,888.9,577.9,353.3,10.6,-3.2,14.26,30.79,677.5555,140.0021],
    [11840,1525550005,57.3206,-111.7896,893.0,582.0,353.6,10.9,-3.2,13.33,31.06,677.5967,139.9974],
    [11841,1525550006,57.3212,-111.7895,896.5,585.5,353.4,11.4,-2.8,14.03,31.35,677.9149,140.0019],
    [11842,1525550007,57.3218,-111.7895,897.7,587.4,353.3,11.5,-3.0,13.43,31.03,677.95,139.997],
    [11843,1525550008,57.3224,-111.7894,896.8,586.8,353.4,11.1,-3.5,13.63,30.98,678.3328,140.0045],
    [11844,1525550009,57.3229,-111.7894,895.9,585.9,353.4,11.0,-3.7,14.25,31.42,678.5536,140.0042],
    [11845,1525550010,57.3235,-111.7893,894.5,584.5,353.3,10.8,-4.3,14.59,30.43,678.7567,140.0067],
    [11846,1525550011,57.324,-111.7893,892.6,582.6,353.4,10.3,-4.6,14.01,30.74,678.8206,140.0056],
    [11847,1525550012,57.3246,-111.7893,890.1,580.1,352.6,10.0,-4.2,14.79,30.74,678.667,140.0043],
    [11848,1525550013,57.3252,-111.7893,886.8,576.8,351.2,10.1,-4.8,14.48,30.71,678.4918,140.0022],
    [11849,1525550014,57.3258,-111.7893,883.8,573.8,349.0,10.4,-4.8,13.86,31.16,678.3921,140.0033],
    [11850,1525550015,57.3264,-111.7894,881.3,571.3,346.8,10.4,-4.3,13.81,31.13,678.1369,139.9996],
    [11851,1525550016,57.3269,-111.7895,880.2,570.2,344.6,10.6,-4.2,13.68,31.35,678.1046,140.0037],
    [11852,1525550017,57.3275,-111.7896,881.3,571.3,342.4,11.0,-3.5,14.05,31.49,678.2509,140.0014],
    [11853,1525550018,57.3281,-111.7898,883.6,573.6,342.0,10.7,-3.7,14.07,31.58,678.3564,140.0036],
    [11854,1525550019,57.3286,-111.79,885.7,575.7,342.8,9.4,-2.8,14.09,31.18,678.3029,140.0037],
    [11855,1525550020,57.3292,-111.7902,887.5,577.5,343.0,10.0,-3.7,13.99,31.32,678.5471,139.9934],
    [11856,1525550021,57.3297,-111.7903,888.1,578.1,341.2,11.8,-2.5,14.07,31.79,678.6222,139.9949],
    [11857,1525550022,57.3303,-111.7905,888.3,578.3,342.3,10.3,-1.8,14.33,31.42,678.7987,140.0012],
    [11858,1525550023,57.3308,-111.7906,887.3,577.5,344.0,9.5,-2.0,14.67,30.88,678.8285,140.004],
    [11859,1525550024,57.3313,-111.7907,886.1,577.1,342.3,12.2,-2.5,14.05,31.39,678.9882,140.0038],
    [11860,1525550025,57.3319,-111.7909,884.9,577.5,344.1,10.8,-3.3,14.59,31.26,679.0005,140.0062],
    [11861,1525550026,57.3324,-111.791,883.6,579.0,346.0,9.9,-2.9,14.22,31.15,679.0342,140.0054],
    [11862,1525550027,57.333,-111.7911,882.2,578.2,345.3,11.7,-3.5,14.3,30.92,679.0431,140.0004],
    [11863,1525550028,57.3335,-111.7912,880.8,575.1,347.4,10.4,-3.5,14.15,31.84,679.0616,140.0008],
    [11864,1525550029,57.3341,-111.7912,879.6,571.5,348.1,10.9,-3.4,13.8,31.62,679.0648,140.0036],
    [11865,1525550030,57.3346,-111.7913,878.9,569.9,348.6,11.2,-3.5,14.07,31.44,679.0721,139.9969],
    [11866,1525550031,57.3352,-111.7913,878.6,568.9,349.6,10.8,-3.0,14.07,31.7,679.0748,140.0023],
    [11867,1525550032,57.3357,-111.7913,878.4,568.7,349.8,11.0,-2.7,13.92,31.6,679.0456,139.9959],
    [11868,1525550033,57.3363,-111.7913,878.2,569.2,350.2,11.1,-2.7,14.29,30.98,679.0325,140.0048],
    [11869,1525550034,57.3368,-111.7913,878.1,569.1,350.3,11.2,-2.0,13.66,31.78,678.7788,140.0024],
    [11870,1525550035,57.3374,-111.7913,878.0,569.3,350.4,11.2,-2.1,14.78,30.89,678.7015,140.0035],
    [11871,1525550036,57.338,-111.7913,878.0,570.0,350.4,11.3,-2.6,13.78,31.61,678.5258,139.9936],
    [11872,1525550037,57.3385,-111.7913,878.2,570.2,350.9,10.5,-3.1,14.32,31.56,678.2582,139.9941],
    [11873,1525550038,57.3391,-111.7913,878.7,570.8,351.5,9.9,-2.9,14.62,30.9,678.1331,139.9903],
    [11874,1525550039,57.3396,-111.7913,880.3,571.3,350.6,10.6,-2.6,13.77,31.52,678.0558,139.998],
    [11875,1525550040,57.3402,-111.7913,882.6,573.6,350.6,10.1,-2.2,14.01,31.7,677.9117,139.9992],
    [11876,1525550041,57.3407,-111.7913,884.8,576.9,351.3,9.7,-1.8,14.06,31.81,677.913,139.9917],
    [11877,1525550042,57.3413,-111.7913,887.2,579.2,350.3,10.8,-1.9,13.79,31.71,678.0204,140.0043],
    [11878,1525550043,57.3418,-111.7913,889.1,582.0,351.3,9.5,-2.7,14.02,32.07,678.1312,139.9954],
    [11879,1525550044,57.3423,-111.7913,890.9,585.2,351.5,9.3,-2.5,14.43,31.28,678.3426,140.0055],
    [11880,1525550045,57.3429,-111.7913,892.2,588.2,350.0,10.3,-2.3,13.9,31.74,678.4984,140.001],
    [11881,1525550046,57.3435,-111.7913,892.1,589.8,349.4,10.4,-2.5,13.92,31.56,678.568,140.0012],
    [11882,1525550047,57.344,-111.7913,891.0,589.3,348.9,10.1,-3.2,13.43,31.95,678.6612,140.0053],
    [11883,1525550048,57.3445,-111.7914,889.2,588.2,349.9,8.5,-3.5,13.89,32.33,678.5925,139.9982],
    [11884,1525550049,57.345,-111.7914,887.7,587.0,349.2,8.8,-2.9,14.18,32.66,678.2973,140.0036],
    [11885,1525550050,57.3456,-111.7915,885.7,585.7,348.2,8.4,-2.9,13.74,32.05,678.0841,140.0057],
    [11886,1525550051,57.3462,-111.7916,883.6,583.6,346.0,8.4,-2.6,14.03,32.13,677.7403,140.0043],
    [11887,1525550052,57.3468,-111.7918,882.7,581.6,341.0,9.9,-3.2,13.88,32.05,677.7026,140.0026],
    [11888,1525550053,57.3473,-111.792,883.8,582.8,337.6,9.1,-4.1,14.22,31.76,677.7231,139.9973],
    [11889,1525550054,57.3478,-111.7923,886.6,585.6,334.4,7.5,-3.8,14.63,31.91,677.6082,140.0047],
    [11890,1525550055,57.3483,-111.7927,889.9,589.0,330.0,7.6,-2.9,14.32,32.46,677.7855,140.0008],
    [11891,1525550056,57.3488,-111.7932,893.0,591.9,326.0,8.1,-2.7,14.19,32.32,677.9202,139.9967],
    [11892,1525550057,57.3492,-111.7937,894.7,593.7,323.5,6.8,-2.6,14.29,32.25,678.0964,140.0013],
    [11893,1525550058,57.3496,-111.7942,895.1,593.4,321.4,6.3,-2.7,13.91,32.68,678.3103,140.0081],
    [11894,1525550059,57.3501,-111.7948,895.1,593.1,317.1,7.5,-1.4,13.92,32.8,678.4719,140.0035],
    [11895,1525550060,57.3505,-111.7954,894.0,592.0,314.7,7.3,-1.0,14.03,32.93,678.6646,140.0034],
    [11896,1525550061,57.3509,-111.7961,892.0,589.0,313.4,6.7,-0.9,14.28,32.68,678.6377,139.9962],
    [11897,1525550062,57.3513,-111.7968,889.7,585.0,309.6,8.5,0.2,13.69,32.9,678.6279,139.9978],
    [11898,1525550063,57.3517,-111.7976,888.1,582.2,306.7,8.5,1.8,14.22,33.54,678.6641,140.0027],
    [11899,1525550064,57.352,-111.7982,885.6,580.3,306.9,7.6,0.3,14.06,33.49,678.631,140.0129],
    [11900,1525550065,57.3524,-111.7991,883.2,577.5,306.0,6.6,0.5,14.04,32.86,678.3009,139.9929],
    [11901,1525550066,57.3527,-111.7999,882.9,576.5,303.0,7.5,1.4,13.91,32.62,678.2161,139.9873],
    [11902,1525550067,57.353,-111.8006,883.0,575.9,302.8,6.6,0.4,13.8,32.76,678.0223,140.0041],
    [11903,1525550068,57.3534,-111.8015,882.6,576.0,301.4,7.2,0.1,13.76,32.63,677.7989,139.9855],
    [11904,1525550069,57.3537,-111.8023,883.0,575.7,299.4,7.1,0.9,13.94,32.82,677.6769,139.9921],
    [11905,1525550070,57.354,-111.8032,885.3,577.1,298.4,7.7,0.1,13.46,32.73,677.5879,140.0014],
    [11906,1525550071,57.3543,-111.804,888.3,579.7,297.8,7.5,-1.0,14.33,32.34,677.3053,140.0022],
    [11907,1525550072,57.3545,-111.8049,889.9,581.9,296.9,7.3,-1.6,13.41,32.81,677.2049,139.9993],
    [11908,1525550073,57.3548,-111.8058,891.8,584.2,294.4,8.6,-1.4,14.28,32.92,676.8667,140.0004],
    [11909,1525550074,57.355,-111.8068,893.4,586.2,293.3,9.3,-1.6,14.15,32.76,676.7577,140.0002],
    [11910,1525550075,57.3552,-111.8077,894.9,587.9,291.4,10.6,-1.5,14.05,32.68,676.5974,139.9956],
    [11911,1525550076,57.3554,-111.8086,897.1,589.4,289.9,9.2,-1.2,14.08,33.25,676.5517,139.9987],
    [11912,1525550077,57.3556,-111.8095,900.1,589.8,287.5,9.5,-1.0,14.12,32.92,676.6542,140.0021],
    [11913,1525550078,57.3558,-111.8105,903.1,591.8,285.2,9.4,-0.8,14.16,33.35,676.751,140.0019],
    [11914,1525550079,57.356,-111.8115,905.5,592.6,283.0,8.9,-0.5,13.84,33.19,676.8915,140.0001],
    [11915,1525550080,57.3561,-111.8124,907.0,593.3,280.8,8.4,-0.2,13.52,32.64,677.2285,139.9886],
    [11916,1525550081,57.3562,-111.8134,907.6,591.6,278.7,8.9,0.1,14.05,32.51,677.3465,139.9969],
    [11917,1525550082,57.3563,-111.8144,906.9,589.9,277.2,8.8,0.4,14.46,32.22,677.5093,140.0089],
    [11918,1525550083,57.3563,-111.8154,905.4,588.4,276.8,8.4,0.0,13.99,32.42,677.5428,140.0007],
    [11919,1525550084,57.3564,-111.8164,903.1,585.1,276.5,8.5,0.0,14.09,32.25,677.6145,140.0003],
    [11920,1525550085,57.3565,-111.8174,900.3,582.0,277.1,9.0,-0.9,14.06,32.86,677.6465,140.0069],
    [11921,1525550086,57.3566,-111.8184,898.1,579.7,277.9,9.1,-1.6,13.66,32.26,677.5073,140.0001],
    [11922,1525550087,57.3566,-111.8194,896.1,577.9,278.2,9.4,-1.7,14.11,32.06,677.5239,139.9942],
    [11923,1525550088,57.3567,-111.8205,895.1,577.5,278.5,9.2,-1.9,14.32,31.54,677.5548,140.0027],
    [11924,1525550089,57.3568,-111.8215,894.4,577.5,279.0,9.5,-2.6,13.73,32.03,677.5208,140.0071],
    [11925,1525550090,57.3569,-111.8225,894.4,577.7,278.2,9.2,-2.0,13.5,32.13,677.5234,140.0015],
    [11926,1525550091,57.3569,-111.8235,895.3,579.3,278.3,9.2,-2.8,13.43,32.32,677.5616,139.9978],
    [11927,1525550092,57.357,-111.8245,895.5,578.5,278.7,8.8,-3.6,14.09,32.16,677.4673,139.9922],
    [11928,1525550093,57.3571,-111.8255,895.4,578.4,277.9,8.1,-3.1,14.69,31.77,677.4276,139.9915],
    [11929,1525550094,57.3571,-111.8265,895.5,577.2,276.9,8.6,-2.3,13.53,32.16,677.4346,140.0112],
    [11930,1525550095,57.3572,-111.8275,895.6,575.6,275.9,8.4,-1.7,13.59,32.44,677.3789,139.9957],
    [11931,1525550096,57.3572,-111.8286,895.5,575.5,275.5,7.9,-1.8,14.31,31.96,677.5396,140.0051],
    [11932,1525550097,57.3573,-111.8296,895.6,574.3,275.4,8.4,-2.3,13.91,32.31,677.7759,140.0009],
    [11933,1525550098,57.3573,-111.8306,895.9,574.8,274.7,9.6,-1.9,14.11,32.24,677.8946,140.0033],
    [11934,1525550099,57.3573,-111.8316,896.0,575.7,272.7,9.6,-0.9,14.07,32.76,677.9496,140.0082],
    [11935,1525550100,57.3573,-111.8327,896.1,576.2,273.3,7.8,-2.5,14.44,31.84,678.0088,139.9985],
    [11936,1525550101,57.3573,-111.8336,895.5,575.5,272.2,8.6,-1.8,14.08,31.94,677.8006,140.0114],
    [11937,1525550102,57.3574,-111.8347,893.7,573.7,271.8,9.1,-2.0,13.69,32.04,677.8344,140.001],
    [11938,1525550103,57.3574,-111.8357,891.8,570.8,273.2,8.1,-3.5,13.73,32.58,677.5564,139.9998],
    [11939,1525550104,57.3574,-111.8368,890.9,569.9,273.0,8.0,-3.4,14.59,31.57,677.4166,140.0017],
    [11940,1525550105,57.3574,-111.8378,890.3,568.3,273.5,9.1,-4.3,13.87,32.37,677.1843,140.006],
    [11941,1525550106,57.3574,-111.8387,890.6,569.3,272.8,7.9,-3.5,13.8,32.17,677.0408,140.0005],
    [11942,1525550107,57.3574,-111.8398,892.1,570.1,271.2,8.1,-2.0,13.68,32.13,676.8157,139.9962],
    [11943,1525550108,57.3573,-111.8408,893.8,571.1,272.3,7.6,-3.0,14.33,31.69,676.6155,139.9998],
    [11944,1525550109,57.3573,-111.8419,896.8,573.8,271.8,7.2,-2.1,13.47,32.24,676.5786,140.0025],
    [11945,1525550110,57.3573,-111.8429,899.1,575.1,270.1,7.3,-0.7,14.23,31.71,676.4387,139.9938],
    [11946,1525550111,57.3573,-111.8439,901.5,577.6,268.8,6.8,0.2,14.11,32.66,676.377,140.0112],
    [11947,1525550112,57.3573,-111.8449,904.1,579.3,267.8,6.9,0.4,14.08,32.59,676.228,140.0016],
    [11948,1525550113,57.3573,-111.8459,906.7,581.7,266.7,6.8,0.7,14.06,32.12,675.9854,139.9979],
    [11949,1525550114,57.3573,-111.8469,908.4,582.4,266.3,7.3,0.2,13.86,32.23,675.67,139.9983],
    [11950,1525550115,57.3572,-111.8479,909.6,582.6,266.7,7.5,-1.8,14.01,32.47,675.4745,140.0033],
    [11951,1525550116,57.3572,-111.8489,910.3,582.3,263.6,7.2,-1.2,14.25,31.74,675.3974,140.0001],
    [11952,1525550117,57.3571,-111.8498,911.9,582.9,259.3,8.0,-0.5,14.03,32.77,675.2866,140.0075],
    [11953,1525550118,57.3569,-111.8508,914.6,584.6,257.0,8.3,-2.4,14.13,32.42,675.1558,139.9952],
    [11954,1525550119,57.3568,-111.8517,917.8,587.8,253.5,9.2,-2.3,14.5,31.9,675.0711,139.9921],
    [11955,1525550120,57.3565,-111.8526,921.0,591.2,249.8,9.0,-2.2,13.87,32.19,675.0413,140.0004],
    [11956,1525550121,57.3563,-111.8535,922.7,592.7,247.1,9.2,-2.8,14.0,32.6,675.0904,139.9999],
    [11957,1525550122,57.356,-111.8544,924.4,594.4,242.5,8.6,-2.2,14.64,31.77,675.2126,140.0031],
    [11958,1525550123,57.3557,-111.8552,925.8,594.8,238.8,8.2,-2.3,13.71,32.17,675.2947,139.9948],
    [11959,1525550124,57.3554,-111.8559,926.8,594.8,234.9,8.3,-1.3,14.58,31.48,675.4927,140.0016],
    [11960,1525550125,57.355,-111.8567,927.2,594.9,231.6,8.4,-0.9,14.54,31.8,675.5704,140.0036],
    [11961,1525550126,57.3546,-111.8574,926.8,593.8,228.6,8.2,-1.3,13.79,32.23,675.7896,140.0059],
    [11962,1525550127,57.3542,-111.8581,925.7,592.4,225.2,7.9,-1.3,14.16,32.04,675.9341,139.9992],
    [11963,1525550128,57.3538,-111.8586,924.5,590.5,222.3,7.2,-1.4,14.45,32.04,676.0705,139.9965],
    [11964,1525550129,57.3533,-111.8593,922.4,588.6,220.4,8.2,-1.3,14.13,32.0,676.2052,139.9974],
    [11965,1525550130,57.3529,-111.8598,920.3,585.3,218.1,7.7,-1.5,13.91,32.48,676.2731,140.0055],
    [11966,1525550131,57.3524,-111.8603,918.2,583.2,215.1,7.5,-0.9,13.88,32.2,676.2978,140.0256],
    [11967,1525550132,57.3518,-111.8609,916.2,581.3,212.3,7.8,-1.1,13.58,32.52,676.1519,139.9921],
    [11968,1525550133,57.3513,-111.8613,914.7,579.7,211.0,8.7,-1.5,13.97,32.05,676.1412,139.9942],
    [11969,1525550134,57.3507,-111.8617,912.8,578.5,208.3,9.1,-0.6,14.27,31.76,676.3351,139.9975],
    [11970,1525550135,57.3502,-111.8621,911.8,578.1,204.9,8.2,-0.3,14.02,32.15,676.3927,140.0071],
    [11971,1525550136,57.3496,-111.8624,911.1,578.1,202.3,7.6,-0.8,13.85,32.54,676.5964,139.9978],
    [11972,1525550137,57.3491,-111.8627,911.6,578.6,200.2,7.8,-1.2,13.62,32.58,676.6536,140.0034],
    [11973,1525550138,57.3485,-111.8629,912.4,579.1,199.6,8.9,-1.7,13.69,32.42,676.6382,140.0029],
    [11974,1525550139,57.3479,-111.8631,911.4,577.4,197.7,8.9,-2.1,14.43,32.0,676.6788,140.0045],
    [11975,1525550140,57.3473,-111.8633,909.8,575.2,194.4,7.7,-2.7,13.92,32.21,676.5802,139.9949],
    [11976,1525550141,57.3467,-111.8634,908.1,573.1,191.8,8.0,-1.1,13.77,32.39,676.6477,139.9961],
    [11977,1525550142,57.3461,-111.8635,907.1,572.1,190.1,8.1,-1.7,13.79,32.32,676.7924,140.0004],
    [11978,1525550143,57.3454,-111.8636,907.0,572.0,188.3,7.8,-1.7,13.66,32.3,676.9548,140.0052],
    [11979,1525550144,57.3448,-111.8636,907.0,572.0,188.3,8.8,-2.8,13.99,32.08,677.1011,139.9971],
    [11980,1525550145,57.3442,-111.8636,907.1,572.1,187.3,8.3,-2.4,13.59,32.18,677.172,140.0047],
    [11981,1525550146,57.3435,-111.8636,906.5,572.5,187.0,8.3,-1.2,13.96,32.55,677.3883,140.006],
    [11982,1525550147,57.3429,-111.8636,905.3,572.3,187.9,9.1,-1.7,13.78,32.46,677.3801,140.0107],
    [11983,1525550148,57.3423,-111.8636,903.5,571.4,187.8,8.3,-2.5,14.0,31.98,677.2392,140.0011],
    [11984,1525550149,57.3417,-111.8636,901.6,570.6,188.0,8.0,-1.8,13.52,32.35,677.135,139.9954],
    [11985,1525550150,57.3411,-111.8636,899.7,569.6,189.1,8.6,-1.7,13.96,32.36,677.1269,139.991],
    [11986,1525550151,57.3404,-111.8637,897.9,568.9,190.4,8.7,-2.5,13.45,32.44,677.0871,140.0071],
    [11987,1525550152,57.3398,-111.8638,897.8,568.8,189.8,7.2,-3.1,13.56,32.45,677.0535,139.9984],
    [11988,1525550153,57.3391,-111.8638,899.1,569.4,189.5,6.7,-2.9,13.86,32.39,677.012,139.9988],
    [11989,1525550154,57.3385,-111.8639,900.2,570.2,189.6,7.4,-1.8,14.22,31.91,676.9555,140.004],
    [11990,1525550155,57.3379,-111.864,900.5,569.5,190.7,8.6,-2.2,13.56,32.45,676.7935,140.0008],
    [11991,1525550156,57.3372,-111.8641,900.8,569.8,189.2,7.6,-1.4,13.92,32.38,676.5846,140.0025],
    [11992,1525550157,57.3366,-111.8641,901.3,569.3,189.1,8.2,-1.8,13.46,32.48,676.3933,139.9878],
    [11993,1525550158,57.336,-111.8641,901.8,569.8,189.1,9.2,-1.6,14.01,32.3,676.3723,139.9976],
    [11994,1525550159,57.3353,-111.8642,902.7,569.7,189.0,9.8,-1.8,14.59,32.01,676.5137,140.0073],
    [11995,1525550160,57.3347,-111.8642,904.6,571.6,187.0,8.7,-1.7,14.46,31.96,676.5728,139.9973],
    [11996,1525550161,57.334,-111.8642,907.1,574.1,185.5,8.1,-1.4,13.78,32.39,676.6441,139.9995],
    [11997,1525550162,57.3334,-111.8641,909.0,576.0,185.9,9.1,-1.1,14.03,32.18,676.5662,139.998],
    [11998,1525550163,57.3328,-111.8641,909.6,576.6,185.5,8.9,-0.9,13.87,32.35,676.474,140.0091],
    [11999,1525550164,57.3321,-111.8641,908.8,575.8,183.8,7.2,-0.7,13.86,32.22,676.2197,140.0008],
    [12000,1525550165,57.3315,-111.864,907.4,574.8,184.3,8.0,-1.3,14.27,32.02,676.1174,139.996],
    [12001,1525550166,57.3309,-111.864,906.5,574.6,185.2,8.8,-0.7,13.91,32.37,675.9212,139.9822],
    [12002,1525550167,57.3302,-111.8639,906.8,573.8,185.1,8.5,0.7,14.16,32.21,675.931,139.9869],
    [12003,1525550168,57.3296,-111.8639,908.2,575.2,185.7,8.8,-0.6,13.53,32.17,675.9151,140.0052],
    [12004,1525550169,57.329,-111.8639,910.3,577.3,185.6,8.7,-0.3,14.1,32.01,675.828,140.0004],
    [12005,1525550170,57.3283,-111.8638,912.7,579.7,185.6,8.1,0.4,14.52,31.99,675.6691,139.9992],
    [12006,1525550171,57.3277,-111.8638,914.4,581.4,186.4,8.6,1.1,13.76,32.39,675.6209,139.9869],
    [12007,1525550172,57.3271,-111.8638,915.2,582.2,189.0,10.7,-0.2,14.09,32.05,675.6662,140.0104],
    [12008,1525550173,57.3265,-111.8638,915.7,582.7,189.9,10.5,-0.2,14.63,32.02,675.5349,139.9967],
    [12009,1525550174,57.3259,-111.8639,916.6,583.3,190.2,10.0,-0.4,13.93,32.02,675.5575,140.0005],
    [12010,1525550175,57.3253,-111.8639,918.2,584.2,191.0,10.2,-0.9,13.83,32.14,675.4996,140.0008],
    [12011,1525550176,57.3246,-111.864,919.4,585.4,191.1,10.5,-0.1,14.55,31.6,675.4074,140.0054],
    [12012,1525550177,57.324,-111.864,919.8,586.8,191.0,10.2,-1.1,14.25,31.7,675.4848,140.0004],
    [12013,1525550178,57.3234,-111.8641,920.3,588.4,190.0,9.2,-1.0,14.5,31.6,675.6604,140.0212],
    [12014,1525550179,57.3228,-111.8641,920.7,589.7,189.2,9.0,0.6,14.04,31.87,675.704,139.9971],
    [12015,1525550180,57.3223,-111.8641,921.2,591.3,189.1,9.4,1.2,13.8,32.38,676.0495,140.0028],
    [12016,1525550181,57.3217,-111.8641,922.0,590.9,189.4,10.5,1.4,13.85,32.44,676.4404,140.0038],
    [12017,1525550182,57.3211,-111.8641,921.8,590.8,189.8,11.0,0.3,13.95,32.65,676.7094,140.0057],
    [12018,1525550183,57.3205,-111.8641,920.7,587.7,188.1,8.9,0.5,13.62,32.39,676.8175,140.0075],
    [12019,1525550184,57.32,-111.8641,919.1,585.8,188.3,9.2,0.6,13.8,32.69,676.8692,140.0005],
    [12020,1525550185,57.3194,-111.8641,915.3,582.3,189.7,10.6,-0.2,14.07,32.15,677.1023,139.9994],
    [12021,1525550186,57.3188,-111.8641,911.1,578.1,187.6,8.8,0.1,13.43,32.31,677.2391,139.9992],
    [12022,1525550187,57.3183,-111.8641,908.7,575.7,185.8,7.7,0.3,13.35,32.45,677.5905,140.0101],
    [12023,1525550188,57.3176,-111.8641,906.6,573.6,186.2,8.5,-0.7,14.49,32.06,677.6131,140.0045],
    [12024,1525550189,57.3172,-111.8641,905.3,572.3,185.3,7.9,0.1,13.87,32.25,677.5375,139.9989],
    [12025,1525550190,57.3166,-111.864,903.6,570.6,185.1,8.1,0.2,14.31,32.53,677.4451,140.0139],
    [12026,1525550191,57.3159,-111.864,900.5,567.4,187.9,10.7,-1.0,14.01,33.23,677.2725,140.0077],
    [12027,1525550192,57.3155,-111.864,897.8,564.5,187.2,9.9,-1.4,14.15,32.03,677.1315,140.0009],
    [12028,1525550193,57.3148,-111.8639,896.1,562.1,185.6,8.8,-0.6,14.31,32.23,676.9893,140.0044],
    [12029,1525550194,57.3143,-111.8639,897.4,563.4,185.0,9.2,-1.4,13.9,32.47,676.9904,139.9997],
    [12030,1525550195,57.3137,-111.8638,899.1,565.1,185.1,9.8,-2.0,13.75,32.39,676.877,139.9814],
    [12031,1525550196,57.3131,-111.8637,900.9,565.9,184.2,9.6,-2.8,13.41,32.6,677.1256,139.994],
    [12032,1525550197,57.3126,-111.8636,903.0,568.0,183.4,9.1,-3.5,13.77,32.51,677.4836,139.9995],
    [12033,1525550198,57.3121,-111.8635,904.8,569.8,181.6,7.5,-3.3,13.78,32.49,678.0278,140.0007],
    [12034,1525550199,57.3115,-111.8634,905.9,570.9,181.5,7.4,-3.3,13.92,32.44,678.2108,140.0024],
    [12035,1525550200,57.311,-111.8633,906.1,571.3,181.4,7.0,-3.2,14.4,31.95,678.6986,140.0056],
    [12036,1525550201,57.3105,-111.8632,904.8,570.8,181.1,7.1,-2.8,13.87,32.72,678.9938,140.0023],
    [12037,1525550202,57.3099,-111.8631,901.1,567.1,182.4,9.0,-3.6,13.78,32.94,679.324,140.004],
    [12038,1525550203,57.3094,-111.863,895.8,562.8,180.3,8.4,-3.8,13.96,32.9,679.5324,140.0078],
    [12039,1525550204,57.3088,-111.8629,890.6,558.6,175.9,6.8,-3.1,13.41,32.63,679.6503,139.9985],
    [12040,1525550205,57.3083,-111.8626,885.9,554.1,172.5,6.6,-3.7,13.81,33.59,679.7952,140.0008],
    [12041,1525550206,57.3077,-111.8624,881.9,550.9,168.7,6.4,-4.5,14.17,32.6,679.8759,139.986],
    [12042,1525550207,57.3072,-111.8621,878.4,547.4,165.2,6.8,-5.1,14.22,32.58,680.1038,139.9926],
    [12043,1525550208,57.3067,-111.8617,875.5,544.9,161.1,7.1,-5.3,14.01,32.57,680.5231,139.9984],
    [12044,1525550209,57.3062,-111.8612,873.6,543.6,157.5,7.4,-5.4,14.22,32.17,680.9002,140.0013],
    [12045,1525550210,57.3056,-111.8607,871.7,541.7,153.8,8.3,-5.3,14.06,32.29,681.3937,139.9996],
    [12046,1525550211,57.3051,-111.8601,870.3,540.3,150.3,8.5,-4.9,13.7,33.21,681.8443,140.0062],
    [12047,1525550212,57.3046,-111.8594,867.5,537.5,146.4,8.3,-5.1,13.34,32.91,682.3894,139.9996],
    [12048,1525550213,57.3042,-111.8588,863.6,533.6,143.1,8.0,-3.8,14.44,32.31,682.6906,139.9934],
    [12049,1525550214,57.3038,-111.8581,858.9,527.9,140.0,9.0,-3.8,14.52,32.55,682.912,140.0022],
    [12050,1525550215,57.3033,-111.8572,853.1,522.1,137.3,10.0,-2.5,14.36,32.58,683.4054,139.9994],
    [12051,1525550216,57.3029,-111.8564,847.0,516.0,133.9,9.9,-2.2,14.05,33.64,684.0705,140.0032],
    [12052,1525550217,57.3025,-111.8555,841.3,511.3,131.1,10.5,-1.7,14.19,32.42,684.4889,140.0035],
    [12053,1525550218,57.3022,-111.8545,836.5,506.5,127.8,10.1,-1.0,13.95,32.99,685.2692,140.0094],
    [12054,1525550219,57.3018,-111.8535,831.9,502.9,124.5,10.4,-1.4,13.61,32.58,685.6811,140.012],
    [12055,1525550220,57.3015,-111.8525,826.8,498.8,121.0,10.2,-2.2,13.67,32.5,686.0498,140.0059],
    [12056,1525550221,57.3013,-111.8515,820.6,493.6,116.4,9.3,-3.7,13.87,32.37,686.2883,139.9931],
    [12057,1525550222,57.301,-111.8505,813.7,487.7,113.3,9.0,-3.6,14.36,32.28,686.5734,140.0048],
    [12058,1525550223,57.3008,-111.8493,806.7,480.7,110.2,8.7,-3.5,14.03,32.31,686.6587,140.0053],
    [12059,1525550224,57.3005,-111.8482,800.1,475.1,107.1,8.8,-3.4,14.09,32.43,686.6667,140.0047],
    [12060,1525550225,57.3004,-111.847,794.8,469.8,104.4,9.7,-3.1,13.9,32.27,686.9374,140.0067],
    [12061,1525550226,57.3002,-111.8459,791.3,467.3,101.3,9.9,-3.3,14.27,31.97,686.9713,140.0216],
    [12062,1525550227,57.3001,-111.8448,788.9,465.5,99.3,9.3,-2.9,13.96,32.62,686.8877,140.0038],
    [12063,1525550228,57.3,-111.8435,786.5,463.5,97.5,9.2,-2.8,14.69,31.51,686.9885,140.0022],
    [12064,1525550229,57.2999,-111.8424,785.2,462.3,96.5,9.5,-2.2,13.74,31.81,686.9712,140.0024],
    [12065,1525550230,57.2998,-111.8412,783.9,461.9,96.0,10.2,-1.0,14.23,31.71,686.9928,139.9953],
    [12066,1525550231,57.2998,-111.84,783.1,461.3,92.0,9.4,-2.4,14.57,31.11,687.0118,139.9969],
    [12067,1525550232,57.2997,-111.8389,783.1,462.1,88.0,10.0,-3.6,14.15,31.22,687.0284,140.006],
    [12068,1525550233,57.2997,-111.8377,782.8,461.8,85.3,10.7,-3.9,15.07,30.81,686.9986,140.0013],
    [12069,1525550234,57.2998,-111.8366,782.6,461.6,83.5,11.1,-3.7,14.24,31.26,687.0115,140.0041],
    [12070,1525550235,57.2998,-111.8353,782.6,461.6,82.2,10.8,-3.5,14.31,31.5,686.9893,140.0049],
    [12071,1525550236,57.2998,-111.8342,782.6,461.6,81.4,10.7,-3.4,14.52,30.84,686.8737,140.0012],
    [12072,1525550237,57.2999,-111.833,782.4,461.4,79.9,11.2,-4.1,14.83,30.94,686.7762,139.9992],
    [12073,1525550238,57.3,-111.8319,782.3,461.3,79.7,11.0,-3.9,14.54,31.74,686.5233,139.99],
    [12074,1525550239,57.3,-111.8308,782.4,462.4,80.0,11.1,-3.1,15.23,30.67,686.4465,139.9995],
    [12075,1525550240,57.3001,-111.8296,782.9,462.9,81.2,11.1,-1.9,14.86,30.97,686.3559,140.0038],
    [12076,1525550241,57.3001,-111.8285,783.6,463.6,81.2,11.3,-2.1,14.55,30.84,686.1272,140.0047],
    [12077,1525550242,57.3002,-111.8274,784.8,464.8,80.7,10.6,-2.7,14.5,30.98,686.1439,140.001],
    [12078,1525550243,57.3003,-111.8262,787.0,467.0,81.2,9.4,-2.6,14.33,30.84,685.9832,140.0178],
    [12079,1525550244,57.3003,-111.8252,789.1,469.1,81.7,9.7,-2.4,14.17,31.16,685.6205,139.9889],
    [12080,1525550245,57.3004,-111.8241,790.5,470.5,82.0,9.7,-2.6,14.66,31.07,685.5752,139.9895],
    [12081,1525550246,57.3004,-111.8229,792.2,472.2,81.7,9.8,-3.4,14.58,30.97,685.5259,139.9869],
    [12082,1525550247,57.3005,-111.8218,793.7,474.0,83.4,9.8,-1.6,15.09,30.58,685.6289,139.9995],
    [12083,1525550248,57.3005,-111.8207,795.0,476.0,84.9,10.1,-0.6,14.76,31.05,685.6558,139.9987],
    [12084,1525550249,57.3005,-111.8197,797.7,479.7,81.9,10.8,-3.1,14.66,31.29,685.5466,139.9964],
    [12085,1525550250,57.3006,-111.8185,800.2,482.2,81.4,11.1,-2.7,14.7,31.13,685.479,139.9975],
    [12086,1525550251,57.3006,-111.8174,800.4,483.4,81.1,10.8,-2.7,14.59,30.81,685.4822,139.9936],
    [12087,1525550252,57.3007,-111.8164,799.6,483.6,79.4,11.1,-3.4,14.82,31.31,685.2263,139.9962],
    [12088,1525550253,57.3008,-111.8152,799.2,484.2,79.6,11.5,-2.6,14.81,31.54,685.1204,139.994],
    [12089,1525550254,57.3008,-111.8141,799.6,484.6,79.3,11.4,-3.0,14.4,30.9,685.0937,139.9981],
    [12090,1525550255,57.3009,-111.8129,800.5,486.5,78.7,10.5,-3.5,14.27,30.92,684.9822,140.0076],
    [12091,1525550256,57.301,-111.8118,801.2,487.2,80.0,9.9,-2.6,14.65,30.83,684.6496,139.9972],
    [12092,1525550257,57.301,-111.8106,802.8,488.8,79.5,10.0,-3.5,14.39,30.78,684.3421,139.9929],
    [12093,1525550258,57.3011,-111.8095,804.4,489.4,79.2,9.7,-3.6,15.04,30.49,684.205,139.9972],
    [12094,1525550259,57.3012,-111.8085,805.3,489.3,78.8,9.2,-3.2,14.7,31.65,684.2015,140.0008],
    [12095,1525550260,57.3013,-111.8073,806.9,490.9,75.8,8.9,-3.5,14.67,31.72,684.1436,139.9752],
    [12096,1525550261,57.3014,-111.8061,810.2,494.2,72.1,8.4,-3.1,15.1,30.44,684.1088,139.9921],
    [12097,1525550262,57.3016,-111.805,813.6,497.6,68.1,8.9,-2.8,14.47,31.04,684.1735,139.9926],
    [12098,1525550263,57.3017,-111.804,815.4,500.4,63.4,9.4,-3.6,14.95,31.39,684.433,139.9935],
    [12099,1525550264,57.302,-111.8029,816.4,501.4,58.5,9.9,-3.7,14.22,31.01,684.4982,140.008],
    [12100,1525550265,57.3022,-111.802,816.6,501.6,55.1,9.7,-2.7,15.02,30.54,684.6915,139.9937],
    [12101,1525550266,57.3025,-111.801,817.2,503.2,51.1,9.2,-2.7,14.48,31.28,684.7965,139.9979],
    [12102,1525550267,57.3029,-111.8001,816.6,502.6,46.0,9.7,-3.5,14.42,31.27,684.8171,139.9934],
    [12103,1525550268,57.3032,-111.7992,814.7,500.7,43.1,9.1,-3.0,14.73,31.07,684.8902,140.0025],
    [12104,1525550269,57.3036,-111.7984,811.8,497.8,39.0,10.1,-2.9,14.65,31.18,684.8895,139.9958],
    [12105,1525550270,57.304,-111.7976,810.0,497.0,34.1,11.2,-3.4,14.49,31.04,684.7742,139.9976],
    [12106,1525550271,57.3045,-111.7969,809.2,496.2,31.1,11.6,-3.7,15.31,30.67,684.6408,139.9928],
    [12107,1525550272,57.305,-111.7961,808.3,495.3,28.5,11.9,-3.3,14.65,31.28,684.5642,140.0022],
    [12108,1525550273,57.3054,-111.7955,807.5,495.5,26.0,12.0,-3.1,14.57,31.42,684.3924,139.994],
    [12109,1525550274,57.3059,-111.7948,807.0,495.7,24.0,11.0,-3.6,15.26,30.73,684.3325,139.9945],
    [12110,1525550275,57.3064,-111.7943,807.4,496.7,20.8,10.4,-4.9,14.71,31.94,684.4319,139.9996],
    [12111,1525550276,57.307,-111.7937,809.2,499.2,18.8,9.5,-3.1,14.72,31.36,684.5417,139.9943],
    [12112,1525550277,57.3075,-111.7932,810.4,500.7,17.0,8.8,-3.2,14.78,30.84,685.065,140.0039],
    [12113,1525550278,57.308,-111.7928,811.6,502.6,13.7,9.4,-4.3,15.16,30.98,685.3274,139.9995],
    [12114,1525550279,57.3086,-111.7924,813.3,503.3,11.0,9.8,-4.0,15.06,31.59,685.584,140.0027],
    [12115,1525550280,57.3091,-111.7921,813.0,502.7,8.3,10.5,-3.4,14.54,32.05,685.6031,140.0033],
    [12116,1525550281,57.3097,-111.7917,810.3,499.3,6.2,10.4,-3.8,14.36,31.37,685.6119,140.0001],
    [12117,1525550282,57.3102,-111.7915,806.1,494.1,4.2,10.5,-4.7,14.51,31.3,685.8761,139.9908],
    [12118,1525550283,57.3108,-111.7912,801.9,489.9,360.7,11.3,-4.1,14.8,31.03,686.1318,139.991],
    [12119,1525550284,57.3113,-111.7911,799.5,487.8,359.6,9.8,-3.6,14.72,31.3,686.5267,140.01],
    [12120,1525550285,57.3119,-111.7909,797.5,485.8,356.7,10.6,-3.6,14.26,31.31,686.9364,140.0068],
    [12121,1525550286,57.3125,-111.7909,796.1,484.4,354.0,11.3,-3.7,14.78,30.92,687.0532,140.0086],
    [12122,1525550287,57.3131,-111.7908,793.6,482.6,354.7,9.0,-4.2,14.69,31.43,687.1647,140.0016],
    [12123,1525550288,57.3137,-111.7908,790.3,479.3,353.9,8.6,-3.3,14.72,31.11,687.1219,139.9991],
    [12124,1525550289,57.3143,-111.7908,786.6,475.6,352.3,9.4,-3.3,14.82,31.64,686.9716,140.0014],
    [12125,1525550290,57.3148,-111.7908,783.3,472.3,351.7,8.9,-3.4,15.0,30.48,687.0044,139.9993],
    [12126,1525550291,57.3155,-111.7908,779.4,468.4,352.2,7.6,-3.0,14.53,30.86,687.0005,140.0098],
    [12127,1525550292,57.316,-111.7908,777.9,466.9,352.7,7.2,-3.6,14.8,30.6,686.9288,139.9965],
    [12128,1525550293,57.3166,-111.7909,778.0,467.0,353.9,6.1,-3.7,14.41,30.95,686.8986,140.0012],
    [12129,1525550294,57.3172,-111.7909,779.1,468.1,354.0,6.3,-3.2,14.35,30.74,686.8214,140.0023],
    [12130,1525550295,57.3178,-111.7909,779.7,468.7,353.0,7.7,-3.2,14.87,30.82,686.6441,139.9962],
    [12131,1525550296,57.3184,-111.7909,779.9,468.9,351.1,10.1,-2.2,14.72,30.63,686.4237,140.0111],
    [12132,1525550297,57.319,-111.7909,780.5,469.5,351.1,9.9,-2.4,14.75,30.84,686.3203,139.9952],
    [12133,1525550298,57.3195,-111.7909,780.9,469.9,352.1,8.9,-2.0,14.78,31.09,686.3067,139.9961],
    [12134,1525550299,57.3201,-111.7909,782.0,471.0,351.5,9.6,-3.0,15.46,30.22,686.3029,140.0074],
    [12135,1525550300,57.3207,-111.7909,784.6,473.6,352.7,8.3,-2.6,14.86,30.75,686.2675,140.0009],
    [12136,1525550301,57.3213,-111.7909,787.3,476.3,352.6,8.9,-1.0,14.45,30.44,686.1307,140.0083],
    [12137,1525550302,57.3218,-111.7909,788.8,477.8,352.2,9.3,-1.3,14.8,30.91,686.113,139.999],
    [12138,1525550303,57.3224,-111.7909,789.3,478.3,352.7,8.9,-0.5,15.19,29.91,686.0988,139.9932],
    [12139,1525550304,57.323,-111.7909,789.4,478.4,351.0,10.4,-0.1,14.88,30.36,686.0768,140.009],
    [12140,1525550305,57.3235,-111.7909,790.0,479.2,350.8,10.1,0.1,14.71,31.08,686.0015,139.996],
    [12141,1525550306,57.3241,-111.7909,791.1,481.1,349.9,11.0,-0.2,15.43,29.86,686.0037,140.0012],
    [12142,1525550307,57.3247,-111.7909,791.8,481.8,349.4,11.5,-0.7,14.36,30.49,685.8982,140.0033],
    [12143,1525550308,57.3253,-111.7909,792.2,482.2,350.7,10.4,-1.5,14.86,30.56,685.9034,140.0005],
    [12144,1525550309,57.3258,-111.7909,792.6,482.6,351.3,9.9,-1.4,14.99,30.73,685.7913,140.0017],
    [12145,1525550310,57.3264,-111.7909,792.9,482.9,351.0,10.3,-1.1,14.63,30.52,685.741,139.9979],
    [12146,1525550311,57.3269,-111.7909,793.3,483.3,350.5,10.6,-2.1,14.68,31.03,685.6556,139.9956],
    [12147,1525550312,57.3275,-111.7909,794.1,484.1,350.5,10.4,-3.0,15.09,30.25,685.5545,139.9949],
    [12148,1525550313,57.328,-111.7909,794.6,484.6,350.5,10.0,-2.9,14.93,30.56,685.5067,140.0034],
    [12149,1525550314,57.3285,-111.7909,795.4,485.4,350.0,10.5,-3.2,14.9,31.1,685.4531,139.9985],
    [12150,1525550315,57.3291,-111.7909,796.4,486.4,349.1,11.3,-3.1,14.64,30.55,685.3686,139.9981],
    [12151,1525550316,57.3296,-111.7909,797.4,487.4,349.7,10.8,-3.7,14.73,30.61,685.3111,139.9999],
    [12152,1525550317,57.3302,-111.791,798.7,488.7,350.3,10.3,-3.7,14.71,30.33,685.1768,139.9958],
    [12153,1525550318,57.3307,-111.791,799.4,489.4,350.1,10.3,-3.4,14.76,30.92,685.0183,140.005],
    [12154,1525550319,57.3312,-111.791,799.9,490.9,349.7,10.5,-3.4,15.49,30.14,684.8693,139.9972],
    [12155,1525550320,57.3318,-111.791,800.7,493.3,349.7,10.0,-3.7,15.08,30.31,684.7852,139.999],
    [12156,1525550321,57.3323,-111.791,802.0,497.4,350.0,9.4,-3.4,14.53,30.58,684.684,139.9983],
    [12157,1525550322,57.3329,-111.7911,803.6,499.6,350.3,9.1,-3.3,14.9,30.83,684.7087,139.9986],
    [12158,1525550323,57.3334,-111.7911,805.3,499.6,350.4,9.1,-3.3,14.82,31.12,684.8463,139.997],
    [12159,1525550324,57.3339,-111.7911,806.9,499.6,350.5,9.1,-3.6,15.39,30.27,684.9934,140.0013],
    [12160,1525550325,57.3344,-111.7911,808.7,500.0,350.3,9.6,-3.8,15.0,30.6,685.3369,140.0012],
    [12161,1525550326,57.3349,-111.7911,809.7,500.8,350.3,9.6,-3.5,14.95,30.78,685.5057,140.0064],
    [12162,1525550327,57.3355,-111.7912,809.6,499.6,350.4,9.4,-3.2,14.43,30.91,685.8236,140.0009],
    [12163,1525550328,57.336,-111.7912,808.3,499.3,350.0,9.7,-3.1,14.28,30.68,685.9744,140.0074],
    [12164,1525550329,57.3365,-111.7912,805.7,496.7,349.9,9.5,-2.9,14.85,30.79,685.9051,140.0026],
    [12165,1525550330,57.3371,-111.7912,803.1,494.1,350.0,9.3,-2.7,15.03,30.55,685.7958,139.9998],
    [12166,1525550331,57.3376,-111.7912,800.1,492.1,348.7,10.6,-2.7,14.93,30.92,685.6054,140.0003],
    [12167,1525550332,57.3381,-111.7913,797.2,489.2,348.0,11.0,-2.4,14.43,31.0,685.5176,140.006],
    [12168,1525550333,57.3387,-111.7913,794.8,486.8,348.5,10.4,-2.1,15.13,30.22,685.4252,139.9999],
    [12169,1525550334,57.3392,-111.7913,794.2,485.5,348.4,10.5,-2.0,14.89,30.6,685.3339,140.0059],
    [12170,1525550335,57.3397,-111.7914,795.8,486.8,348.3,10.5,-2.3,15.22,30.47,685.3307,140.0081],
    [12171,1525550336,57.3402,-111.7914,797.9,488.9,348.4,10.3,-2.0,15.49,30.5,685.2706,140.0062],
    [12172,1525550337,57.3408,-111.7915,799.4,490.7,347.8,10.7,-1.8,14.61,31.26,685.1158,139.9984],
    [12173,1525550338,57.3413,-111.7915,800.5,492.5,347.5,10.8,-1.8,14.45,30.67,684.808,139.9956],
    [12174,1525550339,57.3418,-111.7915,801.4,494.4,347.4,10.4,-1.7,14.96,30.52,684.7384,140.0007],
    [12175,1525550340,57.3423,-111.7916,802.2,496.5,348.1,9.3,-2.4,14.63,31.04,684.4646,139.9954],
    [12176,1525550341,57.3429,-111.7917,802.8,498.8,348.4,8.6,-2.1,14.71,31.68,684.2697,139.9929],
    [12177,1525550342,57.3434,-111.7917,804.4,502.1,347.8,8.7,-2.2,14.84,30.74,684.17,140.0097],
    [12178,1525550343,57.3439,-111.7918,807.5,506.1,348.2,7.7,-2.6,15.24,30.91,684.1262,139.9844],
    [12179,1525550344,57.3444,-111.7919,809.8,508.9,348.1,7.5,-1.9,14.59,31.35,684.2234,139.995],
    [12180,1525550345,57.3449,-111.792,812.5,511.5,347.7,7.2,-1.9,15.43,30.85,684.2961,140.0115],
    [12181,1525550346,57.3455,-111.7921,814.6,514.6,347.5,6.8,-2.2,15.17,31.22,684.3751,140.0065],
    [12182,1525550347,57.3459,-111.7922,815.6,515.7,345.0,8.2,-1.3,14.4,31.6,684.4227,140.003],
    [12183,1525550348,57.3465,-111.7923,816.3,515.4,341.0,9.5,-0.9,14.69,31.77,684.4236,139.9926],
    [12184,1525550349,57.347,-111.7925,816.0,514.3,339.1,9.1,-1.4,14.61,31.83,684.5,140.003],
    [12185,1525550350,57.3475,-111.7928,814.8,513.3,334.2,10.4,-1.1,15.06,31.57,684.5422,139.99],
    [12186,1525550351,57.348,-111.7931,813.7,511.8,330.4,10.1,-0.3,14.82,32.35,684.6182,139.9989],
    [12187,1525550352,57.3485,-111.7935,813.2,511.4,327.8,9.4,-0.8,15.06,31.43,684.6393,140.0038],
    [12188,1525550353,57.3489,-111.7939,812.8,511.8,324.8,9.5,-0.6,14.86,32.47,684.788,139.9991],
    [12189,1525550354,57.3493,-111.7943,811.9,510.1,321.7,9.4,0.2,14.77,31.87,684.9154,140.0044],
    [12190,1525550355,57.3498,-111.7948,811.4,509.4,318.0,9.9,-0.1,14.96,32.46,685.1501,140.0031],
    [12191,1525550356,57.3502,-111.7954,810.7,508.7,315.9,10.6,-2.5,14.76,31.67,685.4358,140.0019],
    [12192,1525550357,57.3505,-111.7959,810.0,507.1,313.3,10.5,-2.0,14.95,32.25,685.7346,140.0008],
    [12193,1525550358,57.3509,-111.7966,808.7,504.4,309.8,10.5,-1.5,15.04,31.63,685.8684,140.0005],
    [12194,1525550359,57.3513,-111.7974,806.9,500.8,308.4,9.6,-1.8,15.22,31.54,686.3594,140.0],
    [12195,1525550360,57.3516,-111.7981,804.6,497.8,306.2,8.9,-1.0,14.84,32.3,686.6573,140.0066],
    [12196,1525550361,57.352,-111.7988,801.6,495.6,304.9,8.5,-1.4,14.82,31.83,686.8914,140.0058],
    [12197,1525550362,57.3523,-111.7995,798.3,491.7,302.7,8.2,-0.7,14.84,31.45,686.9858,140.0022],
    [12198,1525550363,57.3526,-111.8003,794.7,487.4,300.7,8.6,-1.0,14.76,31.93,687.1453,139.9969],
    [12199,1525550364,57.3529,-111.8011,790.8,482.8,299.1,9.1,-2.0,14.84,31.53,687.2433,139.9978],
    [12200,1525550365,57.3531,-111.8019,787.0,478.7,297.4,7.9,-1.8,14.47,31.45,687.4307,140.0053],
    [12201,1525550366,57.3534,-111.8028,783.5,474.2,295.2,6.9,-1.8,15.41,31.09,687.4987,140.0011],
    [12202,1525550367,57.3536,-111.8037,780.9,469.6,292.3,7.1,-1.6,15.17,31.14,687.5688,140.0036],
    [12203,1525550368,57.3538,-111.8046,779.1,467.1,290.4,7.7,-1.5,14.77,31.57,687.581,140.0047],
    [12204,1525550369,57.3539,-111.8053,778.2,466.5,290.3,7.2,-1.9,14.78,31.73,687.5732,140.0061],
    [12205,1525550370,57.3542,-111.8064,776.3,464.6,290.0,6.9,-2.0,14.78,31.31,687.3255,140.0042],
    [12206,1525550371,57.3544,-111.8074,774.4,465.1,289.6,6.9,-1.9,14.76,31.4,687.1571,140.0042],
    [12207,1525550372,57.3545,-111.8082,773.8,465.8,288.7,7.2,-1.3,14.76,31.33,686.7149,140.0007],
    [12208,1525550373,57.3547,-111.8091,773.3,465.3,288.9,6.3,-1.0,14.68,31.07,686.4884,139.9946],
    [12209,1525550374,57.3549,-111.8101,773.3,464.5,289.8,6.8,-1.9,14.79,31.42,686.2745,139.9943],
    [12210,1525550375,57.3551,-111.811,775.1,465.5,290.0,6.7,-1.4,14.61,31.13,686.337,139.9999],
    [12211,1525550376,57.3553,-111.8119,778.3,468.7,288.4,7.1,-0.1,15.13,30.77,686.4277,139.9981],
    [12212,1525550377,57.3554,-111.8128,782.2,471.2,288.3,6.7,0.0,14.99,30.96,686.3512,140.0037],
    [12213,1525550378,57.3556,-111.8137,786.0,471.6,287.9,7.5,0.0,14.89,31.03,686.3137,139.9972],
    [12214,1525550379,57.3558,-111.8146,788.5,473.1,288.1,8.3,-0.4,14.69,31.13,686.2094,140.0005],
    [12215,1525550380,57.356,-111.8155,788.6,471.6,287.7,7.8,-0.2,14.94,31.62,685.9251,139.9954],
    [12216,1525550381,57.3562,-111.8164,787.8,469.8,288.3,7.1,-1.4,15.18,31.14,685.7891,139.9982],
    [12217,1525550382,57.3563,-111.8173,787.7,469.7,286.8,6.9,-1.0,15.08,30.93,685.7441,140.0003],
    [12218,1525550383,57.3565,-111.8182,788.9,470.6,284.8,7.7,-0.7,14.79,31.67,685.6733,139.9936],
    [12219,1525550384,57.3566,-111.8192,790.8,472.6,283.2,7.6,-0.4,15.14,31.14,685.6011,140.0035],
    [12220,1525550385,57.3567,-111.8201,792.8,474.6,281.7,8.2,-0.2,14.81,30.89,685.4811,140.0022],
    [12221,1525550386,57.3568,-111.821,794.6,476.9,281.6,7.6,-0.7,14.52,30.97,685.3254,139.9967],
    [12222,1525550387,57.3569,-111.8219,795.4,477.4,281.1,8.2,-0.8,14.89,30.86,685.3098,139.9973],
    [12223,1525550388,57.3571,-111.8229,796.1,479.1,281.4,8.5,-1.7,14.46,30.9,685.3555,139.9972],
    [12224,1525550389,57.3572,-111.8238,797.0,480.0,281.5,7.9,-1.9,15.03,30.63,685.3765,139.9974],
    [12225,1525550390,57.3573,-111.8247,798.7,481.4,280.8,8.0,-1.2,15.23,30.09,685.2057,140.0057],
    [12226,1525550391,57.3573,-111.8256,800.3,481.9,280.1,7.6,-0.6,14.76,30.78,685.084,139.996],
    [12227,1525550392,57.3574,-111.8266,801.0,481.6,280.1,7.5,-0.7,15.24,30.63,684.8704,139.994],
    [12228,1525550393,57.3575,-111.8275,800.7,479.7,279.1,8.0,-0.4,15.01,30.24,684.5922,140.0026],
    [12229,1525550394,57.3576,-111.8284,800.1,478.4,277.6,8.7,-0.1,14.95,30.48,684.5535,139.9928],
    [12230,1525550395,57.3577,-111.8294,800.9,479.0,273.9,8.3,1.9,14.48,30.61,684.4501,139.9995],
    [12231,1525550396,57.3577,-111.8304,802.3,480.6,273.2,8.2,0.5,14.97,30.48,684.5639,139.9889],
    [12232,1525550397,57.3578,-111.8313,804.7,483.7,272.6,8.9,-0.8,14.78,30.88,684.8786,140.0012],
    [12233,1525550398,57.3578,-111.8323,807.7,486.8,270.0,9.2,0.1,14.82,30.53,684.8951,140.0101],
    [12234,1525550399,57.3578,-111.8333,809.3,489.5,270.6,8.4,-1.8,14.67,30.82,684.9415,140.0016],
    [12235,1525550400,57.3578,-111.8341,809.8,489.8,269.3,7.4,-0.7,14.43,30.79,684.9205,139.9917],
    [12236,1525550401,57.3577,-111.8352,809.2,488.2,267.6,9.2,0.6,14.77,30.78,684.951,140.0054],
    [12237,1525550402,57.3577,-111.836,807.5,486.5,268.8,9.7,-0.8,15.19,30.33,684.8682,139.9928],
    [12238,1525550403,57.3577,-111.8371,805.2,483.1,267.7,8.8,0.7,15.09,30.6,684.7967,139.9889],
    [12239,1525550404,57.3577,-111.8381,804.7,482.7,266.6,8.4,2.0,14.85,31.04,684.365,140.0035],
    [12240,1525550405,57.3577,-111.8391,804.6,482.6,267.8,8.5,0.7,14.28,30.77,684.3721,140.0016],
    [12241,1525550406,57.3576,-111.84,804.5,482.5,267.4,8.1,1.1,14.85,31.25,684.3138,140.0051],
    [12242,1525550407,57.3576,-111.841,804.7,481.8,267.3,9.4,0.7,15.53,30.35,684.1197,140.0066],
    [12243,1525550408,57.3576,-111.842,806.0,483.0,268.7,10.3,-1.3,15.02,30.67,683.9255,139.9949],
    [12244,1525550409,57.3576,-111.843,808.8,485.5,267.7,9.2,-0.4,14.31,30.74,683.7506,140.0],
    [12245,1525550410,57.3575,-111.844,811.1,487.1,267.3,9.4,-0.8,14.6,30.9,683.1738,139.9933],
    [12246,1525550411,57.3575,-111.8448,812.0,488.1,267.5,8.0,-1.3,14.78,30.72,682.9899,139.9951],
    [12247,1525550412,57.3575,-111.8459,814.4,489.4,265.4,8.8,0.4,14.58,30.77,682.7331,140.0031],
    [12248,1525550413,57.3574,-111.8469,816.9,491.0,266.4,9.0,-1.1,15.06,30.64,682.6618,140.0019],
    [12249,1525550414,57.3574,-111.8478,820.2,493.2,266.0,8.7,-1.1,14.83,30.91,682.5341,139.9974],
    [12250,1525550415,57.3573,-111.8487,823.6,495.6,265.6,8.4,-1.6,14.42,30.6,682.4316,139.9977],
    [12251,1525550416,57.3572,-111.8497,827.1,498.1,265.7,9.5,-3.2,14.45,30.74,682.6092,140.0035],
    [12252,1525550417,57.3572,-111.8506,830.1,500.1,262.3,9.5,-2.5,14.73,30.82,682.7292,140.0045],
    [12253,1525550418,57.357,-111.8516,833.2,503.2,257.6,9.2,-2.5,14.66,30.97,682.7882,139.9994],
    [12254,1525550419,57.3569,-111.8525,834.9,505.8,254.3,8.4,-3.4,14.77,30.89,682.7359,139.9975],
    [12255,1525550420,57.3566,-111.8534,835.7,506.8,248.4,9.3,-1.9,14.96,31.63,682.6175,140.0004],
    [12256,1525550421,57.3564,-111.8542,834.8,505.9,244.2,8.5,-2.7,14.86,31.28,682.6215,139.9929],
    [12257,1525550422,57.3561,-111.855,832.7,502.4,238.1,8.4,-2.2,14.71,31.08,682.608,139.9993],
    [12258,1525550423,57.3557,-111.8558,831.8,500.8,230.4,9.1,-1.4,14.89,30.98,682.61,139.9973],
    [12259,1525550424,57.3553,-111.8565,832.0,500.0,225.0,7.8,-2.7,14.81,31.22,682.5413,139.9991],
    [12260,1525550425,57.3548,-111.8571,832.8,499.7,219.5,8.1,-2.2,14.9,31.52,682.5402,140.0003],
    [12261,1525550426,57.3543,-111.8576,833.5,500.2,215.6,8.8,-2.3,15.06,30.99,682.575,139.9949],
    [12262,1525550427,57.3538,-111.8581,833.5,499.5,211.3,8.4,-1.5,15.0,31.27,682.6846,139.9945],
    [12263,1525550428,57.3532,-111.8585,833.3,498.5,207.7,9.0,-1.2,15.22,31.44,682.9075,139.9996],
    [12264,1525550429,57.3527,-111.8589,833.7,498.7,204.6,8.3,-2.1,15.47,31.04,683.0398,139.9903],
    [12265,1525550430,57.3521,-111.8592,834.1,499.1,202.1,7.8,-1.8,14.44,31.35,683.3583,139.9949],
    [12266,1525550431,57.3515,-111.8595,833.6,499.3,200.2,7.9,-1.3,14.52,31.33,683.4766,140.0094],
    [12267,1525550432,57.3509,-111.8597,832.1,498.3,199.1,7.6,-1.3,14.86,31.64,683.385,140.003],
    [12268,1525550433,57.3503,-111.86,829.5,496.5,198.2,7.4,-1.3,14.77,31.49,683.2828,140.0062],
    [12269,1525550434,57.3497,-111.8602,826.6,494.6,198.9,8.9,-0.5,14.85,31.56,683.2215,139.9871],
    [12270,1525550435,57.3491,-111.8604,823.6,491.6,199.8,9.6,-0.8,14.75,31.46,683.2057,139.9949],
    [12271,1525550436,57.3484,-111.8607,821.7,488.7,199.6,9.5,-0.7,15.39,30.61,683.141,140.0061],
    [12272,1525550437,57.3478,-111.8609,822.1,488.1,199.7,9.5,-1.7,14.61,31.41,683.086,139.9969],
    [12273,1525550438,57.3472,-111.8612,823.3,488.3,198.2,8.6,-0.6,14.91,30.62,682.9112,140.0017],
    [12274,1525550439,57.3466,-111.8614,824.2,488.5,199.4,10.2,-1.4,14.77,30.8,682.9189,140.0081],
    [12275,1525550440,57.346,-111.8616,824.6,488.6,200.2,10.7,-0.8,14.9,31.15,682.9441,140.0036],
    [12276,1525550441,57.3454,-111.8619,825.2,489.2,198.1,8.3,-0.2,14.82,30.85,682.9359,139.9997],
    [12277,1525550442,57.3447,-111.8621,826.3,490.3,199.3,9.4,-1.4,14.84,30.76,683.0772,140.0003],
    [12278,1525550443,57.3441,-111.8624,827.7,492.7,198.6,8.7,-0.8,14.21,30.93,683.2201,139.9994],
    [12279,1525550444,57.3435,-111.8626,828.3,494.4,197.8,8.5,-0.6,14.8,30.68,683.373,139.9989],
    [12280,1525550445,57.3429,-111.8628,828.1,495.1,198.0,8.8,-1.6,15.25,30.13,683.5041,140.0017],
    [12281,1525550446,57.3422,-111.863,828.5,496.4,196.2,8.0,-1.1,14.83,30.91,683.6551,139.9936],
    [12282,1525550447,57.3417,-111.8632,827.9,496.9,197.5,9.3,-2.8,15.06,30.31,683.8545,140.0064],
    [12283,1525550448,57.341,-111.8634,826.3,496.4,196.9,9.1,-2.2,14.89,31.37,684.0103,139.9955],
    [12284,1525550449,57.3404,-111.8636,824.5,495.5,195.9,8.9,-2.6,15.07,30.58,683.809,140.0017],
    [12285,1525550450,57.3397,-111.8637,822.5,493.5,194.8,9.5,-2.7,14.84,31.45,683.7566,139.9986],
    [12286,1525550451,57.3391,-111.8639,820.2,490.5,192.7,8.6,-3.9,14.89,30.78,683.6448,139.9965],
    [12287,1525550452,57.3384,-111.864,817.4,487.4,189.1,6.6,-2.8,15.13,29.97,683.4147,140.01],
    [12288,1525550453,57.3378,-111.864,815.4,484.4,187.9,7.3,-2.0,14.81,30.71,683.5214,139.985],
    [12289,1525550454,57.3371,-111.864,815.2,483.2,187.3,7.8,-0.3,14.56,30.65,683.4666,139.998],
    [12290,1525550455,57.3365,-111.8641,817.3,485.3,185.9,6.5,-0.2,14.89,31.13,683.4765,140.0064],
    [12291,1525550456,57.3358,-111.8641,819.0,487.1,186.5,7.0,-1.0,14.59,30.76,683.26,139.9958],
    [12292,1525550457,57.3351,-111.8641,820.1,487.1,186.5,6.4,-1.1,14.9,31.4,682.8787,139.9931],
    [12293,1525550458,57.3345,-111.8641,820.1,487.1,188.4,8.8,-0.6,14.82,30.86,682.8033,140.0014],
    [12294,1525550459,57.3338,-111.8642,820.9,487.9,192.2,11.6,-3.5,14.88,30.59,682.6566,140.0027],
    [12295,1525550460,57.3332,-111.8642,822.1,489.1,191.1,10.3,-2.0,14.9,30.74,682.445,139.993],
    [12296,1525550461,57.3326,-111.8643,823.8,490.8,189.4,8.9,-1.5,15.68,30.09,682.2961,139.9963],
    [12297,1525550462,57.3319,-111.8643,826.6,493.6,188.5,8.6,-0.1,15.58,29.92,682.3038,139.9982],
    [12298,1525550463,57.3313,-111.8644,829.4,496.7,187.5,7.6,0.1,14.94,30.6,682.3672,140.0002],
    [12299,1525550464,57.3306,-111.8644,832.0,499.1,187.0,6.9,-0.8,14.9,30.58,682.5111,140.0048],
    [12300,1525550465,57.33,-111.8644,834.2,501.2,187.6,7.8,-0.2,14.92,30.5,682.8168,139.9982],
    [12301,1525550466,57.3294,-111.8644,835.7,502.7,188.0,8.2,-0.1,14.98,30.73,682.8582,140.0023],
    [12302,1525550467,57.3287,-111.8645,836.3,503.3,188.4,8.6,-1.4,14.57,30.69,682.9257,140.003],
    [12303,1525550468,57.3281,-111.8645,835.1,502.1,188.4,8.3,-1.7,15.47,30.49,682.9865,140.0018],
    [12304,1525550469,57.3274,-111.8645,833.3,499.3,187.3,7.2,-0.6,15.24,30.3,683.0009,140.0047],
    [12305,1525550470,57.3268,-111.8646,831.2,497.2,188.2,8.7,0.0,14.41,30.58,683.0594,139.9997],
    [12306,1525550471,57.3262,-111.8646,829.4,495.4,187.9,8.4,-0.3,15.05,30.12,683.0383,140.004],
    [12307,1525550472,57.3255,-111.8646,828.3,494.3,186.8,7.5,-0.3,14.96,30.8,683.2862,140.0028],
    [12308,1525550473,57.3248,-111.8646,827.8,493.8,186.2,6.9,-0.7,15.35,30.18,683.4598,140.0108],
    [12309,1525550474,57.3242,-111.8646,827.5,493.8,185.7,6.8,-0.3,14.84,30.2,683.8401,140.0027],
    [12310,1525550475,57.3236,-111.8646,827.2,495.2,186.5,7.8,-0.6,15.08,30.46,683.8935,140.0043],
    [12311,1525550476,57.3229,-111.8646,826.5,495.5,186.9,8.7,-0.3,14.77,30.33,684.1276,139.9997],
    [12312,1525550477,57.3223,-111.8646,824.7,494.7,188.0,9.8,-1.2,14.92,30.43,684.1234,140.0008],
    [12313,1525550478,57.3216,-111.8647,822.6,491.6,186.8,8.4,-1.9,15.18,29.89,684.2353,140.0044],
    [12314,1525550479,57.321,-111.8646,820.5,488.2,188.3,10.2,-2.5,15.18,30.34,684.4201,140.0029],
    [12315,1525550480,57.3204,-111.8647,817.7,484.7,189.3,11.1,-2.5,14.93,30.51,684.571,140.0003],
    [12316,1525550481,57.3197,-111.8647,814.9,480.9,189.2,10.8,-2.2,14.66,30.41,684.6506,140.001],
    [12317,1525550482,57.319,-111.8647,814.3,480.2,189.3,10.8,-2.3,14.98,30.22,684.9587,140.0192],
    [12318,1525550483,57.3184,-111.8647,813.4,480.4,188.9,10.4,-1.6,15.4,29.68,684.9408,139.9913],
    [12319,1525550484,57.3177,-111.8647,811.7,478.7,189.0,10.2,-1.6,15.02,30.12,684.9246,139.9978],
    [12320,1525550485,57.3171,-111.8647,810.1,477.1,188.5,9.1,-2.5,15.52,29.88,684.9483,140.0058],
    [12321,1525550486,57.3165,-111.8647,808.4,474.4,188.6,9.1,-2.5,14.64,30.11,685.1398,140.0082],
    [12322,1525550487,57.3159,-111.8647,805.6,471.6,189.7,9.7,-2.8,15.42,29.57,685.2067,140.0117],
    [12323,1525550488,57.3152,-111.8648,804.7,470.6,189.4,9.5,-2.2,15.04,29.96,685.6,140.0038],
    [12324,1525550489,57.3146,-111.8648,805.4,470.4,189.4,9.7,-2.0,14.94,30.92,685.7511,140.0069],
    [12325,1525550490,57.314,-111.8648,805.5,470.5,188.8,9.0,-2.8,14.79,30.45,686.0294,140.0091],
    [12326,1525550491,57.3134,-111.8648,804.0,469.0,188.8,9.0,-3.5,15.11,30.03,686.1001,140.0028],
    [12327,1525550492,57.3128,-111.8649,801.4,466.4,189.0,9.1,-4.6,15.64,29.74,686.0956,139.9851],
    [12328,1525550493,57.3122,-111.8649,798.4,463.4,189.8,10.0,-4.7,15.0,30.05,686.1434,140.0059],
    [12329,1525550494,57.3115,-111.8649,796.0,461.0,188.9,9.7,-5.1,15.36,29.82,686.0764,139.9971],
    [12330,1525550495,57.3109,-111.8649,793.6,458.6,186.7,9.2,-5.1,14.87,30.94,686.0718,139.9897],
    [12331,1525550496,57.3103,-111.8648,792.0,457.0,183.6,8.7,-5.3,14.88,30.31,686.0559,139.9995],
    [12332,1525550497,57.3097,-111.8647,791.6,456.6,180.5,8.5,-4.4,14.94,30.95,686.1683,139.9991],
    [12333,1525550498,57.3091,-111.8645,791.6,457.6,177.9,9.0,-4.2,15.15,29.9,686.4627,140.0025],
    [12334,1525550499,57.3085,-111.8643,792.0,458.3,174.4,8.6,-4.2,14.68,30.43,686.5572,140.0057],
    [12335,1525550500,57.3079,-111.864,792.2,459.3,170.5,8.6,-3.1,15.0,30.53,686.6582,139.9949],
    [12336,1525550501,57.3073,-111.8637,792.2,459.2,166.5,8.7,-3.6,15.3,29.59,686.7404,140.003],
    [12337,1525550502,57.3067,-111.8633,791.2,458.6,161.6,7.3,-2.5,15.0,30.3,686.7261,139.9886],
    [12338,1525550503,57.3062,-111.8628,789.0,457.0,157.5,7.6,-2.8,14.56,30.27,686.8401,140.0058],
    [12339,1525550504,57.3056,-111.8622,786.5,455.5,153.0,7.7,-2.7,14.38,30.3,686.8901,139.9958],
    [12340,1525550505,57.3052,-111.8617,785.2,454.2,149.0,7.1,-1.5,14.52,30.31,687.2557,140.0018],
    [12341,1525550506,57.3046,-111.8608,784.6,454.6,145.8,9.1,-1.6,15.54,29.77,687.4248,139.9966],
    [12342,1525550507,57.3041,-111.86,784.4,454.4,141.6,8.6,-0.9,14.94,30.27,687.7986,140.0073],
    [12343,1525550508,57.3036,-111.8592,783.6,453.6,136.3,7.6,-2.1,15.08,30.06,688.0043,140.0005],
    [12344,1525550509,57.3032,-111.8583,781.9,450.9,133.0,7.9,-1.3,14.44,30.24,688.1726,139.9912],
    [12345,1525550510,57.3028,-111.8574,779.6,448.6,130.7,9.0,0.2,14.94,30.3,688.2821,139.9944],
    [12346,1525550511,57.3025,-111.8564,776.2,445.2,128.9,9.9,0.8,14.36,30.24,688.6599,140.0024],
    [12347,1525550512,57.3021,-111.8554,772.5,442.5,124.3,9.4,-0.3,14.37,30.2,688.8307,140.0019],
    [12348,1525550513,57.3018,-111.8543,769.7,439.6,119.9,9.6,-1.3,14.99,30.85,689.0161,139.9972],
    [12349,1525550514,57.3015,-111.8532,767.5,438.5,117.0,9.2,-0.5,15.33,29.83,689.2612,140.0008],
    [12350,1525550515,57.3013,-111.8521,765.5,437.5,112.7,8.4,-1.4,14.89,30.22,689.4286,140.0059],
    [12351,1525550516,57.3011,-111.8511,763.1,436.1,108.1,7.9,-2.3,14.53,30.23,689.529,140.0064],
    [12352,1525550517,57.3009,-111.8498,759.7,433.7,104.3,8.0,-2.3,14.87,30.33,689.672,140.0033],
    [12353,1525550518,57.3007,-111.8486,756.9,431.9,98.8,7.8,-3.5,14.77,30.45,689.7296,140.0039],
    [12354,1525550519,57.3006,-111.8474,754.3,429.3,96.0,8.2,-3.1,15.2,30.19,689.7062,140.0038],
    [12355,1525550520,57.3006,-111.8462,752.2,428.2,92.6,9.0,-3.8,15.06,29.77,689.8286,139.9996],
    [12356,1525550521,57.3005,-111.8451,750.7,427.0,91.1,9.6,-3.6,14.83,30.5,689.8544,139.997],
    [12357,1525550522,57.3005,-111.8439,749.1,426.1,90.7,8.5,-2.9,14.45,30.1,689.9538,140.0038],
    [12358,1525550523,57.3005,-111.8427,748.2,425.5,89.4,9.2,-3.4,15.17,29.76,689.8757,140.0046],
    [12359,1525550524,57.3004,-111.8415,748.0,426.0,87.5,8.6,-4.6,15.11,30.25,689.7611,139.9943],
    [12360,1525550525,57.3004,-111.8406,747.6,425.6,87.2,9.6,-4.2,14.52,29.99,689.5684,139.9963],
    [12361,1525550526,57.3004,-111.8392,746.3,425.3,88.1,8.5,-2.7,15.07,30.42,689.4846,139.9937],
    [12362,1525550527,57.3004,-111.8379,745.2,424.2,87.9,8.9,-2.2,14.71,30.11,689.4153,140.0024],
    [12363,1525550528,57.3004,-111.8367,745.4,424.4,85.8,9.1,-3.4,14.63,29.75,689.5845,139.9992],
    [12364,1525550529,57.3004,-111.8355,747.2,426.2,85.0,7.8,-3.2,15.26,30.37,689.6823,140.0028],
    [12365,1525550530,57.3005,-111.8343,749.4,428.4,84.3,7.7,-3.5,14.9,30.35,689.7413,140.0039],
    [12366,1525550531,57.3005,-111.8332,750.8,429.8,84.5,7.3,-3.2,15.01,29.76,689.6499,139.9967],
    [12367,1525550532,57.3005,-111.832,751.6,430.6,84.3,8.1,-3.1,15.05,29.54,689.5095,139.992],
    [12368,1525550533,57.3005,-111.8308,751.2,431.2,84.0,8.3,-3.1,15.43,29.56,689.2246,140.0039],
    [12369,1525550534,57.3006,-111.8296,749.4,429.4,84.0,8.5,-2.9,15.21,30.32,689.0095,139.997],
    [12370,1525550535,57.3006,-111.8284,747.8,427.8,83.4,8.3,-3.4,14.66,30.05,689.0205,139.9946],
    [12371,1525550536,57.3006,-111.8273,747.9,427.9,83.1,7.6,-3.5,15.38,29.76,689.0937,139.9992],
    [12372,1525550537,57.3007,-111.8261,749.6,429.6,83.6,6.6,-2.7,15.48,29.49,689.1418,140.0071],
    [12373,1525550538,57.3007,-111.825,751.9,431.9,83.4,7.0,-3.2,15.65,29.71,689.2079,139.9896],
    [12374,1525550539,57.3008,-111.8237,754.7,434.7,82.6,6.4,-4.7,15.17,30.55,689.1741,139.9915],
    [12375,1525550540,57.3008,-111.8226,756.0,436.0,85.4,6.6,-2.1,15.66,29.41,689.2495,140.0029],
    [12376,1525550541,57.3008,-111.8215,755.1,436.1,86.7,7.8,-1.9,15.2,30.12,689.3125,139.9949],
    [12377,1525550542,57.3008,-111.8202,754.1,435.1,85.0,7.9,-3.5,15.23,30.75,689.2742,139.9973],
    [12378,1525550543,57.3009,-111.819,754.0,436.0,86.4,8.0,-1.3,14.62,30.15,689.2697,139.9886],
    [12379,1525550544,57.3009,-111.8179,754.3,437.3,86.6,8.7,-0.7,15.32,30.2,689.112,140.0015],
    [12380,1525550545,57.3009,-111.8167,753.6,436.9,85.4,8.5,-1.5,15.17,30.62,688.9354,140.0006],
    [12381,1525550546,57.3009,-111.8155,752.5,436.4,84.6,8.9,-2.2,15.3,30.39,689.1223,140.0042],
    [12382,1525550547,57.301,-111.8143,751.6,436.6,83.2,6.4,-3.2,14.77,30.53,689.1127,139.9989],
    [12383,1525550548,57.301,-111.8131,751.7,437.7,84.0,5.2,-1.7,15.78,30.03,689.1355,140.0015],
    [12384,1525550549,57.3011,-111.8119,753.9,439.9,83.9,6.4,-0.8,15.39,30.07,689.1767,140.0022],
    [12385,1525550550,57.3011,-111.8108,754.9,440.9,84.0,8.2,-0.1,15.41,30.57,689.2822,140.0034],
    [12386,1525550551,57.3012,-111.8096,754.3,439.3,83.5,8.1,-1.0,15.25,30.22,689.2868,140.0002],
    [12387,1525550552,57.3012,-111.8084,753.8,437.8,82.1,7.2,-2.3,15.14,30.18,689.3901,139.9952],
    [12388,1525550553,57.3013,-111.8071,753.9,437.9,81.7,6.9,-1.3,15.32,30.21,689.4632,139.9978],
    [12389,1525550554,57.3014,-111.8059,753.8,437.8,78.7,7.7,-1.3,15.35,30.23,689.4775,140.0029],
    [12390,1525550555,57.3015,-111.8048,753.6,438.1,74.7,8.1,-0.9,15.66,30.17,689.5895,139.9953],
    [12391,1525550556,57.3017,-111.8037,753.3,438.3,71.1,8.5,0.2,15.7,30.1,689.4991,139.9905],
    [12392,1525550557,57.3019,-111.8025,752.4,437.4,65.6,8.5,-0.2,15.39,30.11,689.415,139.9912],
    [12393,1525550558,57.3022,-111.8014,751.3,437.3,60.6,8.6,0.0,15.56,29.74,689.468,139.9995],
    [12394,1525550559,57.3025,-111.8004,750.3,436.3,55.5,8.3,-0.5,15.91,29.79,689.4097,139.9986],
    [12395,1525550560,57.3028,-111.7994,749.6,435.6,50.4,8.1,-0.6,15.36,30.68,689.2153,139.9949],
    [12396,1525550561,57.3032,-111.7985,750.2,436.2,45.9,8.7,-0.3,15.26,29.86,689.0557,139.9999],
    [12397,1525550562,57.3036,-111.7977,750.8,437.8,41.0,8.7,-2.4,15.3,29.94,689.0053,140.0019],
    [12398,1525550563,57.304,-111.7969,751.2,438.2,37.4,8.8,-2.0,15.35,30.77,688.6693,139.9917],
    [12399,1525550564,57.3045,-111.7961,751.6,438.6,35.3,6.8,-1.8,15.06,30.15,688.6608,139.9955],
    [12400,1525550565,57.3049,-111.7954,753.0,440.0,32.9,6.6,-1.0,15.08,30.0,688.6398,139.9985],
    [12401,1525550566,57.3054,-111.7947,755.1,443.1,28.6,7.3,-2.2,15.43,30.49,688.6441,139.995],
    [12402,1525550567,57.3059,-111.7941,757.1,445.0,25.0,8.1,-2.2,15.42,30.31,688.7385,139.9952],
    [12403,1525550568,57.3064,-111.7935,758.7,447.9,22.8,7.9,-1.8,15.73,30.01,688.8428,140.0039],
    [12404,1525550569,57.3069,-111.793,760.3,450.0,20.8,7.6,-2.2,15.64,29.62,689.1911,139.9953],
    [12405,1525550570,57.3075,-111.7925,760.8,451.1,18.5,8.0,-2.0,15.09,30.42,689.5614,140.002],
    [12406,1525550571,57.308,-111.7921,760.4,451.4,16.0,7.9,-2.3,15.8,29.99,689.7512,140.005],
    [12407,1525550572,57.3085,-111.7917,759.3,449.7,14.8,6.5,-2.1,15.43,30.73,690.3039,139.9982],
    [12408,1525550573,57.3089,-111.7914,758.1,448.0,13.4,6.1,-1.6,14.95,30.15,690.4681,140.0091],
    [12409,1525550574,57.3095,-111.7911,755.2,444.2,10.0,6.7,-1.2,15.16,30.11,690.5637,140.0016],
    [12410,1525550575,57.3101,-111.7908,751.3,440.3,7.8,6.3,-1.8,15.35,30.32,690.6034,139.9919],
    [12411,1525550576,57.3108,-111.7905,745.9,434.9,3.4,7.8,-2.2,15.31,30.91,690.6284,140.0],
    [12412,1525550577,57.3113,-111.7904,741.6,430.6,360.2,7.9,-2.6,15.63,30.08,690.6935,139.9986],
    [12413,1525550578,57.3119,-111.7902,738.2,427.2,358.6,6.9,-1.9,14.79,30.17,690.724,139.9992],
    [12414,1525550579,57.3125,-111.7902,736.7,425.7,355.7,8.2,-2.3,15.85,29.82,690.8237,140.0031],
    [12415,1525550580,57.3131,-111.7901,736.2,425.2,355.4,7.8,-2.2,14.76,30.33,690.8703,140.0053],
    [12416,1525550581,57.3136,-111.7901,735.7,424.7,354.8,8.3,-2.4,15.32,30.1,690.9241,139.9977],
    [12417,1525550582,57.3142,-111.7901,735.2,424.2,354.2,8.5,-2.7,15.55,30.58,690.9579,140.0009],
    [12418,1525550583,57.3148,-111.79,734.5,423.5,355.2,6.9,-2.4,15.27,30.0,690.9775,140.0005],
    [12419,1525550584,57.3154,-111.79,733.8,422.8,354.4,7.5,-2.3,15.28,29.94,690.9399,140.0041],
    [12420,1525550585,57.316,-111.79,732.9,421.9,353.1,8.3,-2.3,15.56,29.64,690.7559,140.0029],
    [12421,1525550586,57.3165,-111.79,732.2,421.2,353.1,7.7,-2.5,15.84,29.5,690.6237,140.0043],
    [12422,1525550587,57.3171,-111.79,731.8,420.8,352.4,8.0,-3.1,15.35,29.87,690.3233,140.0049],
    [12423,1525550588,57.3177,-111.79,731.7,420.7,351.2,8.4,-3.2,15.9,29.47,690.2828,140.0024],
    [12424,1525550589,57.3182,-111.7901,732.4,421.4,350.1,9.0,-3.0,15.44,29.97,690.2853,140.0052],
    [12425,1525550590,57.3188,-111.7901,734.1,423.1,348.8,10.0,-3.4,15.41,29.85,690.3337,140.0029],
    [12426,1525550591,57.3194,-111.7902,736.3,425.3,347.6,10.7,-3.2,15.44,29.44,690.378,140.0011],
    [12427,1525550592,57.3199,-111.7902,738.5,427.5,347.1,10.5,-3.0,15.32,29.4,690.41,140.0051],
    [12428,1525550593,57.3205,-111.7903,740.3,429.3,347.7,9.6,-2.6,15.5,29.61,690.356,139.9984],
    [12429,1525550594,57.321,-111.7904,740.8,429.8,347.2,10.1,-2.3,15.22,29.41,690.4876,140.0023],
    [12430,1525550595,57.3215,-111.7904,740.6,429.6,346.9,10.3,-1.9,15.4,29.17,690.6689,140.001],
    [12431,1525550596,57.322,-111.7905,740.2,429.2,347.6,9.5,-1.9,16.21,28.78,690.7012,140.0006],
    [12432,1525550597,57.3226,-111.7906,740.0,429.0,347.1,9.6,-1.5,15.13,29.26,690.8201,139.9998],
    [12433,1525550598,57.3231,-111.7907,739.5,428.6,346.5,9.6,-1.3,15.44,29.63,690.8564,139.9967],
    [12434,1525550599,57.3237,-111.7907,738.5,428.5,345.4,10.1,-1.4,15.9,28.79,690.9795,140.0039],
    [12435,1525550600,57.3242,-111.7908,737.3,427.3,345.4,9.7,-1.2,15.47,29.13,691.1868,140.0012],
    [12436,1525550601,57.3247,-111.7909,735.9,425.9,346.5,8.9,-1.4,15.48,29.65,691.199,140.0015],
    [12437,1525550602,57.3253,-111.791,734.7,424.7,346.7,9.0,-1.8,15.8,29.42,691.1761,140.0144],
    [12438,1525550603,57.3258,-111.7911,733.6,423.6,347.4,8.7,-1.6,15.45,29.5,690.9463,139.9978],
    [12439,1525550604,57.3263,-111.7912,732.2,422.2,348.0,8.5,-1.1,15.61,29.35,690.7934,139.997],
    [12440,1525550605,57.3269,-111.7913,730.5,420.5,349.7,7.8,-1.3,15.33,29.68,690.7131,139.9989],
    [12441,1525550606,57.3274,-111.7913,729.9,419.9,350.6,7.9,-1.4,15.26,29.63,690.7447,140.0003],
    [12442,1525550607,57.328,-111.7914,730.2,420.2,351.3,8.2,-1.6,15.48,29.62,690.687,139.9989],
    [12443,1525550608,57.3285,-111.7914,732.1,422.1,352.1,8.3,-1.1,16.03,29.39,690.6318,140.0009],
    [12444,1525550609,57.3291,-111.7914,734.4,424.4,352.4,8.5,-0.5,15.2,30.04,690.5922,140.0029],
    [12445,1525550610,57.3296,-111.7914,735.6,425.6,352.2,8.8,-0.2,15.04,29.59,690.5293,140.0008],
    [12446,1525550611,57.3301,-111.7914,735.9,425.9,352.2,8.8,-0.5,15.52,29.75,690.4377,139.9963],
    [12447,1525550612,57.3307,-111.7914,736.3,426.3,351.5,8.9,-0.9,14.99,29.95,690.1691,140.0026],
    [12448,1525550613,57.3313,-111.7914,736.9,427.9,350.1,9.1,-0.8,15.39,30.25,690.0079,139.9938],
    [12449,1525550614,57.3318,-111.7914,737.5,430.2,348.7,9.1,-0.4,14.97,29.79,689.7476,139.9973],
    [12450,1525550615,57.3324,-111.7915,738.2,433.6,347.2,9.3,-0.9,15.11,30.12,689.5339,139.9963],
    [12451,1525550616,57.3329,-111.7916,739.3,435.3,346.2,9.1,-1.1,15.65,29.41,689.5148,139.9969],
    [12452,1525550617,57.3334,-111.7917,741.2,435.5,345.6,8.6,-0.5,15.56,29.71,689.348,140.0025],
    [12453,1525550618,57.3339,-111.7918,744.6,436.2,345.5,7.7,-0.1,15.12,30.24,689.1563,140.001],
    [12454,1525550619,57.3345,-111.7919,747.7,438.0,345.3,7.5,0.4,15.3,30.08,689.1577,139.9878],
    [12455,1525550620,57.335,-111.792,749.2,439.2,343.9,8.6,-1.1,15.48,30.17,689.2297,139.997],
    [12456,1525550621,57.3355,-111.7922,750.6,440.6,344.9,7.1,-1.1,15.31,30.13,689.2051,139.9958],
    [12457,1525550622,57.336,-111.7923,752.2,442.2,345.8,6.7,-0.5,15.07,30.31,689.1796,139.9952],
    [12458,1525550623,57.3366,-111.7925,754.0,444.0,344.1,8.9,-0.2,15.11,30.18,689.3492,139.997],
    [12459,1525550624,57.3371,-111.7926,754.8,444.8,345.0,8.5,-0.7,14.9,30.16,689.7166,139.9932],
    [12460,1525550625,57.3376,-111.7927,754.7,445.6,346.4,7.6,-0.7,15.89,29.99,690.0115,139.9863],
    [12461,1525550626,57.3382,-111.7928,754.3,445.3,346.1,8.4,-0.7,15.51,30.43,690.4825,140.0082],
    [12462,1525550627,57.3387,-111.7929,753.8,444.8,346.2,8.6,-1.1,15.94,30.04,690.8861,140.0041],
    [12463,1525550628,57.3392,-111.793,752.1,443.1,346.7,9.0,-1.5,15.62,30.39,690.904,140.0032],
    [12464,1525550629,57.3398,-111.7931,748.7,439.7,346.4,9.5,-1.5,15.63,30.22,690.8056,140.0049],
    [12465,1525550630,57.3403,-111.7932,744.4,435.4,348.0,8.3,-2.6,15.33,30.22,690.6695,139.9987],
    [12466,1525550631,57.3409,-111.7933,738.3,430.4,349.3,7.9,-2.5,15.46,30.91,690.6028,140.0019],
    [12467,1525550632,57.3414,-111.7934,734.4,427.5,350.5,7.7,-2.7,15.2,30.12,690.3971,140.0011],
    [12468,1525550633,57.342,-111.7934,732.8,426.8,351.6,7.3,-3.0,15.48,30.7,690.2802,139.9984],
    [12469,1525550634,57.3426,-111.7934,733.0,428.1,351.9,7.8,-2.8,15.26,30.69,690.2686,140.0068],
    [12470,1525550635,57.3432,-111.7935,734.9,430.9,351.8,8.3,-3.0,14.91,30.16,690.3986,139.9859],
    [12471,1525550636,57.3437,-111.7935,736.4,432.7,351.8,8.5,-3.0,15.33,30.0,690.4829,140.0069],
    [12472,1525550637,57.3443,-111.7935,738.2,435.2,351.6,8.3,-2.7,15.25,29.74,690.6069,139.9988],
    [12473,1525550638,57.3449,-111.7935,739.7,436.5,352.4,7.4,-2.3,15.54,29.99,690.7539,139.9992],
    [12474,1525550639,57.3454,-111.7935,740.2,437.2,351.3,8.5,-1.9,15.49,29.58,690.8299,140.0083],
    [12475,1525550640,57.346,-111.7936,739.5,436.6,351.3,7.9,-1.4,15.28,30.1,690.7978,140.0024],
    [12476,1525550641,57.3465,-111.7936,738.7,435.7,352.0,6.9,-1.3,14.91,30.31,690.8037,140.0077],
    [12477,1525550642,57.3471,-111.7936,737.1,433.1,350.1,8.0,-1.0,14.98,29.97,690.755,140.0082],
    [12478,1525550643,57.3477,-111.7937,735.4,432.1,349.7,6.8,-1.0,15.42,30.27,690.4521,139.9946],
    [12479,1525550644,57.3483,-111.7938,734.3,431.6,347.5,6.5,-1.0,15.08,29.91,690.1841,139.9992],
    [12480,1525550645,57.3488,-111.794,734.4,432.3,344.0,6.7,-0.4,15.08,30.01,689.8254,139.9999],
    [12481,1525550646,57.3493,-111.7942,734.5,432.7,340.7,6.9,-0.8,15.39,30.03,689.5959,139.9996],
    [12482,1525550647,57.3499,-111.7944,735.2,434.4,336.3,7.8,-0.4,15.1,30.06,689.359,139.9979],
    [12483,1525550648,57.3504,-111.7948,737.6,435.6,332.1,7.9,-0.4,14.92,29.92,689.3469,139.9979],
    [12484,1525550649,57.3509,-111.7952,740.8,438.8,328.9,7.3,0.1,15.39,30.31,689.3158,140.0062],
    [12485,1525550650,57.3513,-111.7956,744.0,441.0,325.9,6.7,0.0,15.41,30.02,689.2595,139.9926],
    [12486,1525550651,57.3518,-111.7961,747.8,444.8,321.2,7.8,1.0,14.9,30.0,689.3356,140.0049],
    [12487,1525550652,57.3523,-111.7967,750.7,447.8,316.3,10.1,1.1,15.79,29.45,689.3557,140.0012],
    [12488,1525550653,57.3527,-111.7972,752.0,449.0,313.6,9.4,1.3,15.37,29.92,689.3116,140.0043],
    [12489,1525550654,57.3531,-111.7979,752.5,449.5,310.4,8.6,2.1,15.22,29.99,689.3344,140.0041],
    [12490,1525550655,57.3534,-111.7985,752.8,448.8,307.4,10.0,0.5,15.37,29.85,689.4387,140.0032],
    [12491,1525550656,57.3537,-111.7992,752.7,448.7,306.0,8.7,-0.1,15.05,30.0,689.4426,140.0024],
    [12492,1525550657,57.3541,-111.7999,752.2,448.2,303.4,8.1,-0.1,14.8,30.07,689.596,139.9996],
    [12493,1525550658,57.3544,-111.8007,752.2,448.2,299.3,7.9,1.0,15.12,30.02,689.9072,140.006],
    [12494,1525550659,57.3546,-111.8015,752.1,447.1,295.9,8.2,1.3,15.44,30.16,689.8409,139.9903],
    [12495,1525550660,57.3549,-111.8023,751.7,445.6,293.9,8.6,0.9,15.58,30.02,690.0145,139.9986],
    [12496,1525550661,57.3551,-111.8031,750.6,443.8,292.2,7.8,1.3,15.92,29.46,690.0487,139.9951],
    [12497,1525550662,57.3553,-111.8039,748.6,442.7,290.6,8.2,1.3,15.07,30.47,689.9659,140.0061],
    [12498,1525550663,57.3555,-111.8048,745.8,439.8,289.8,7.1,0.8,15.39,29.69,689.9028,139.9943],
    [12499,1525550664,57.3557,-111.8057,744.5,438.6,287.3,8.1,1.3,15.84,29.88,689.802,140.0041],
    [12500,1525550665,57.3559,-111.8065,743.7,437.8,286.4,8.7,0.6,15.85,29.76,689.5958,140.0038],
    [12501,1525550666,57.3561,-111.8074,743.0,436.9,285.4,7.7,0.1,16.0,30.0,689.5158,139.9925],
    [12502,1525550667,57.3562,-111.8083,743.2,434.2,285.0,7.0,-0.9,15.38,30.82,689.3942,139.9926],
    [12503,1525550668,57.3563,-111.8093,744.6,432.7,284.2,7.1,-2.1,15.69,30.27,689.3673,140.0036],
    [12504,1525550669,57.3565,-111.8102,746.2,431.9,283.9,6.4,-2.7,15.28,30.75,689.232,140.0007],
    [12505,1525550670,57.3566,-111.8112,747.9,432.5,281.2,7.3,-1.5,15.48,30.6,689.0166,139.9774],
    [12506,1525550671,57.3567,-111.8121,749.5,434.2,279.7,6.7,-1.6,15.49,30.5,688.8293,139.9954],
    [12507,1525550672,57.3567,-111.813,750.5,433.4,278.9,8.7,-3.2,15.54,30.77,688.8773,139.9967],
    [12508,1525550673,57.3568,-111.8139,751.6,433.9,277.3,7.6,-3.2,15.48,30.53,688.8712,139.9857],
    [12509,1525550674,57.3568,-111.8148,752.4,434.4,273.9,9.1,-1.8,16.08,30.25,688.8039,140.0027],
    [12510,1525550675,57.3568,-111.8158,754.3,436.4,272.7,11.2,-2.7,15.19,30.54,688.573,139.9947],
    [12511,1525550676,57.3568,-111.8168,756.0,437.3,271.5,10.9,-2.0,15.43,31.04,688.5165,140.001],
    [12512,1525550677,57.3568,-111.8177,756.7,437.7,269.3,11.4,-0.6,15.38,30.7,688.4794,140.0016],
    [12513,1525550678,57.3568,-111.8188,756.4,437.5,271.5,11.6,-3.4,15.68,30.32,688.4896,140.0047],
    [12514,1525550679,57.3568,-111.8197,757.1,438.5,270.8,11.4,-2.6,15.26,30.84,688.4578,140.0049],
    [12515,1525550680,57.3568,-111.8207,758.9,441.3,270.5,12.2,-2.5,14.8,30.5,688.4118,140.0038],
    [12516,1525550681,57.3568,-111.8216,760.4,443.5,270.5,12.7,-2.8,15.52,30.18,688.3719,139.9996],
    [12517,1525550682,57.3567,-111.8226,761.2,444.4,270.0,12.2,-2.6,15.61,30.44,688.2934,140.0043],
    [12518,1525550683,57.3567,-111.8235,761.5,445.6,269.5,11.9,-2.2,15.53,30.0,688.2884,140.0023],
    [12519,1525550684,57.3567,-111.8244,761.8,445.9,269.2,11.6,-2.1,15.46,30.54,688.3379,139.996],
    [12520,1525550685,57.3567,-111.8254,762.4,446.5,269.3,11.7,-2.4,14.9,29.87,688.4638,140.009],
    [12521,1525550686,57.3566,-111.8263,763.1,446.2,269.3,11.3,-2.4,15.3,29.7,688.491,139.9962],
    [12522,1525550687,57.3566,-111.8273,763.7,445.4,269.1,11.2,-2.2,15.36,30.34,688.7112,139.9995],
    [12523,1525550688,57.3566,-111.8282,764.1,445.0,268.9,11.2,-2.3,15.95,29.36,688.9255,140.0016],
    [12524,1525550689,57.3565,-111.8291,763.8,444.7,269.3,11.1,-2.9,15.35,30.66,689.0375,139.9947],
    [12525,1525550690,57.3565,-111.8301,763.0,443.7,268.5,10.8,-1.9,15.73,29.37,689.2294,140.0005],
    [12526,1525550691,57.3565,-111.831,761.8,442.9,268.2,10.3,-1.5,15.58,29.65,689.2672,140.0061],
    [12527,1525550692,57.3564,-111.8319,759.9,440.9,268.8,11.8,-1.4,15.44,29.86,689.2801,140.0028],
    [12528,1525550693,57.3564,-111.8329,757.5,438.5,269.4,11.2,-0.8,15.39,30.35,689.158,139.9972],
    [12529,1525550694,57.3564,-111.8338,755.0,436.1,271.8,12.1,-2.2,15.18,29.84,689.1198,140.0],
    [12530,1525550695,57.3564,-111.8347,753.2,433.9,274.0,11.7,-3.0,15.47,29.71,689.1206,139.9921],
    [12531,1525550696,57.3564,-111.8357,752.5,432.5,274.0,10.6,-2.2,15.46,30.1,689.131,140.0051],
    [12532,1525550697,57.3565,-111.8366,752.3,431.3,274.4,10.9,-2.7,15.14,30.33,689.1522,139.9998],
    [12533,1525550698,57.3565,-111.8375,752.6,431.6,273.6,10.4,-2.4,15.56,29.63,689.1694,140.0],
    [12534,1525550699,57.3565,-111.8384,753.5,431.5,271.8,12.1,-1.6,15.44,29.88,689.0847,140.0012],
    [12535,1525550700,57.3565,-111.8394,754.0,432.0,272.5,11.5,-3.1,14.88,29.83,688.9391,140.0011],
    [12536,1525550701,57.3565,-111.8403,753.8,430.7,271.2,11.1,-1.5,15.28,29.79,688.8817,139.9942],
    [12537,1525550702,57.3565,-111.8413,753.8,430.9,269.5,12.3,-0.2,15.5,29.79,688.9729,140.0076],
    [12538,1525550703,57.3565,-111.8422,753.9,429.8,270.9,11.6,-2.0,15.15,29.71,688.9798,140.0039],
    [12539,1525550704,57.3565,-111.8431,754.9,430.7,270.3,11.3,-1.7,15.47,30.46,688.9009,139.9957],
    [12540,1525550705,57.3565,-111.844,756.2,431.2,270.0,11.6,-1.5,15.41,29.79,688.9279,140.0141],
    [12541,1525550706,57.3564,-111.845,756.8,431.8,270.4,12.0,-2.0,16.07,29.11,688.8258,140.0004],
    [12542,1525550707,57.3564,-111.8459,756.4,430.4,270.2,11.7,-1.5,15.39,30.13,688.695,140.0099],
    [12543,1525550708,57.3564,-111.8469,756.1,429.7,269.2,11.4,-1.0,15.3,29.92,688.5696,140.0061],
    [12544,1525550709,57.3564,-111.8478,756.4,428.7,269.1,12.1,-2.7,15.85,29.41,688.3358,140.0023],
    [12545,1525550710,57.3564,-111.8487,756.7,427.7,265.8,11.7,-2.0,15.57,29.22,688.2244,140.0053],
    [12546,1525550711,57.3563,-111.8495,757.5,427.5,261.7,11.2,-1.8,15.99,29.01,688.2186,139.995],
    [12547,1525550712,57.3561,-111.8505,759.4,429.4,256.6,11.3,-1.6,15.3,30.17,688.3392,139.9989],
    [12548,1525550713,57.356,-111.8514,761.5,430.6,251.4,11.2,-1.1,16.01,29.28,688.6716,139.9999],
    [12549,1525550714,57.3557,-111.8523,763.9,432.9,247.3,10.9,-1.8,15.24,29.46,688.9864,140.0059],
    [12550,1525550715,57.3555,-111.853,765.7,433.7,243.2,10.6,-1.9,15.86,29.04,689.1883,140.0054],
    [12551,1525550716,57.3552,-111.8538,766.4,434.1,239.5,10.5,-1.9,15.33,29.6,689.3887,140.0056],
    [12552,1525550717,57.3549,-111.8545,765.4,432.7,235.1,10.5,-1.0,15.27,29.47,689.6739,140.0027],
    [12553,1525550718,57.3545,-111.8552,762.6,429.6,230.8,10.4,-0.4,15.38,29.51,689.7512,140.0009],
    [12554,1525550719,57.3541,-111.8558,758.9,424.9,227.2,10.4,-1.1,15.51,29.34,689.8603,140.0052],
    [12555,1525550720,57.3537,-111.8564,755.6,421.6,223.7,9.8,-1.9,15.23,29.53,690.0196,140.0151],
    [12556,1525550721,57.3532,-111.857,752.1,417.4,220.5,9.8,-1.7,15.1,29.59,689.9112,139.9954],
    [12557,1525550722,57.3528,-111.8575,749.3,414.3,218.1,9.6,-2.0,15.56,29.31,689.7539,139.9933],
    [12558,1525550723,57.3523,-111.858,747.5,412.4,216.7,10.0,-2.1,15.53,29.8,689.6097,140.0008],
    [12559,1525550724,57.3518,-111.8585,746.4,412.6,215.3,10.0,-2.4,15.45,29.86,689.5008,140.0033],
    [12560,1525550725,57.3513,-111.8589,744.7,410.7,215.3,10.5,-2.9,15.1,29.63,689.4194,140.0],
    [12561,1525550726,57.3508,-111.8593,744.5,411.0,214.0,10.0,-2.5,15.3,29.71,689.2767,140.0015],
    [12562,1525550727,57.3504,-111.8597,746.3,413.3,214.0,10.7,-3.0,14.88,29.72,689.0606,139.9977],
    [12563,1525550728,57.3498,-111.8602,748.1,416.1,213.1,10.9,-3.0,14.97,29.7,688.8126,139.9935],
    [12564,1525550729,57.3493,-111.8605,749.7,417.7,210.9,10.1,-2.0,15.58,29.32,688.6474,139.9874],
    [12565,1525550730,57.3488,-111.8609,751.5,418.5,209.1,9.6,-2.1,15.89,29.6,688.4583,139.9999],
    [12566,1525550731,57.3482,-111.8613,753.6,419.9,208.6,9.8,-2.8,15.01,29.71,688.4744,140.0109],
    [12567,1525550732,57.3477,-111.8616,756.1,421.8,206.6,8.8,-1.9,15.33,29.86,688.472,140.0019],
    [12568,1525550733,57.3472,-111.8619,758.5,423.5,205.1,8.3,-1.7,15.38,29.67,688.502,140.0087],
    [12569,1525550734,57.3467,-111.8622,760.4,425.4,204.7,9.8,0.5,15.42,29.95,688.3502,139.9925],
    [12570,1525550735,57.3461,-111.8625,762.2,426.0,204.1,9.7,-1.1,15.85,29.34,688.3413,139.9983],
    [12571,1525550736,57.3456,-111.8628,762.9,427.2,203.2,9.6,-1.9,15.41,29.88,688.319,139.9928],
    [12572,1525550737,57.345,-111.863,762.6,426.6,202.2,9.6,-2.5,15.05,30.23,688.4696,140.0009],
    [12573,1525550738,57.3444,-111.8633,762.5,427.5,200.4,9.1,-1.2,15.3,29.84,688.5184,140.002],
    [12574,1525550739,57.3439,-111.8635,762.9,427.8,198.9,8.5,-0.8,15.47,30.5,688.7653,139.9979],
    [12575,1525550740,57.3433,-111.8637,763.6,429.6,198.2,9.0,0.2,15.58,29.67,688.997,139.9951],
    [12576,1525550741,57.3428,-111.8639,763.7,431.0,197.9,9.4,-0.1,15.36,29.79,689.0333,139.998],
    [12577,1525550742,57.3422,-111.8641,763.0,432.0,196.1,8.4,-0.7,15.24,29.95,689.2028,139.9962],
    [12578,1525550743,57.3416,-111.8642,761.9,430.7,194.8,8.3,-1.3,15.33,29.93,689.1666,140.0089],
    [12579,1525550744,57.341,-111.8644,759.8,429.8,194.0,9.3,-1.2,15.43,29.69,689.0498,140.0044],
    [12580,1525550745,57.3404,-111.8644,757.1,427.1,194.2,11.3,-1.3,15.44,30.04,689.0319,139.9975],
    [12581,1525550746,57.3398,-111.8645,754.7,424.7,191.9,10.5,-1.5,14.81,29.92,688.8496,139.9971],
    [12582,1525550747,57.3392,-111.8646,753.8,423.8,190.4,10.1,-0.9,15.44,30.03,688.8456,140.0017],
    [12583,1525550748,57.3386,-111.8646,754.6,424.6,188.8,8.7,-2.0,15.29,29.59,688.7201,140.0],
    [12584,1525550749,57.338,-111.8646,755.7,424.7,188.1,8.5,-2.4,16.07,29.52,688.734,140.0093],
    [12585,1525550750,57.3374,-111.8646,756.4,425.4,188.5,9.2,-2.2,15.14,29.74,688.7806,140.0021],
    [12586,1525550751,57.3369,-111.8646,757.7,425.7,187.9,9.0,-2.4,15.18,29.75,688.8805,139.9951],
    [12587,1525550752,57.3362,-111.8646,758.3,426.3,187.2,9.0,-2.6,15.09,29.8,688.9809,140.002],
    [12588,1525550753,57.3356,-111.8646,759.1,426.4,185.4,8.2,-1.6,15.53,29.8,688.9715,140.0009],
    [12589,1525550754,57.335,-111.8645,759.2,426.2,184.0,7.3,-2.2,15.59,29.72,688.8924,139.9983],
    [12590,1525550755,57.3344,-111.8645,759.1,426.1,184.8,8.6,-3.5,15.33,29.83,688.7414,140.0001],
    [12591,1525550756,57.3338,-111.8644,758.2,425.2,185.8,9.9,-3.0,15.46,30.36,688.7346,139.9969],
    [12592,1525550757,57.3332,-111.8644,757.1,424.1,185.3,9.7,-3.1,16.07,29.55,688.7736,140.0011],
    [12593,1525550758,57.3326,-111.8643,756.8,423.8,184.5,9.1,-2.6,15.47,29.73,688.7809,140.0011],
    [12594,1525550759,57.332,-111.8643,757.6,424.6,183.5,8.4,-2.3,15.53,29.69,688.7651,140.0015],
    [12595,1525550760,57.3313,-111.8642,758.6,425.9,183.9,8.7,-2.3,15.32,29.57,688.7013,139.9994],
    [12596,1525550761,57.3307,-111.8641,759.1,426.4,184.2,8.6,-2.4,15.11,29.94,688.6222,140.0022],
    [12597,1525550762,57.3301,-111.8641,759.0,426.0,185.1,8.8,-2.3,15.28,29.92,688.5553,140.0009],
    [12598,1525550763,57.3295,-111.864,758.9,425.9,186.3,9.2,-2.5,15.41,30.54,688.5567,140.0032],
    [12599,1525550764,57.3289,-111.864,759.2,426.2,186.0,8.2,-2.3,15.97,29.38,688.2698,139.9986],
    [12600,1525550765,57.3283,-111.864,759.7,426.7,186.3,8.5,-2.9,15.47,30.66,688.172,140.0021],
    [12601,1525550766,57.3276,-111.864,760.4,427.4,187.3,9.3,-2.6,15.52,30.26,688.0494,139.9986],
    [12602,1525550767,57.327,-111.8639,761.2,428.2,186.7,8.8,-2.1,15.41,29.91,688.0558,139.9952],
    [12603,1525550768,57.3264,-111.8639,762.4,428.6,186.2,8.5,-2.1,15.28,29.94,688.0306,139.9995],
    [12604,1525550769,57.3258,-111.8639,764.4,430.4,185.8,8.3,-2.5,15.42,30.44,688.1222,140.0018],
    [12605,1525550770,57.3252,-111.8639,766.3,432.3,185.8,8.1,-3.1,15.59,29.47,688.0846,140.007],
    [12606,1525550771,57.3246,-111.8638,767.5,433.5,184.9,7.4,-2.5,15.42,29.86,688.2013,139.9992],
    [12607,1525550772,57.324,-111.8638,768.1,435.1,185.1,7.7,-2.8,15.13,29.94,688.4386,139.9932],
    [12608,1525550773,57.3234,-111.8638,768.1,436.2,184.6,7.0,-2.5,15.92,29.37,688.446,139.9928],
    [12609,1525550774,57.3228,-111.8637,767.6,436.9,184.4,6.6,-1.9,15.02,29.57,688.5,139.9989],
    [12610,1525550775,57.3222,-111.8637,767.4,437.4,184.7,5.9,-2.6,15.49,29.73,688.4858,139.9928],
    [12611,1525550776,57.3216,-111.8637,766.1,435.4,185.2,6.1,-2.6,15.96,29.1,688.5336,140.0019],
    [12612,1525550777,57.321,-111.8637,764.2,432.1,186.5,6.8,-3.4,15.52,29.93,688.649,139.9967],
    [12613,1525550778,57.3203,-111.8637,762.8,429.8,186.1,6.4,-1.6,15.33,29.71,688.6562,140.0016],
    [12614,1525550779,57.3198,-111.8637,762.0,429.0,185.8,6.3,-1.8,14.98,29.92,688.7113,140.0033],
    [12615,1525550780,57.3192,-111.8637,761.5,428.5,185.4,6.2,-1.0,15.61,29.82,688.7981,139.9991],
    [12616,1525550781,57.3185,-111.8637,761.1,428.1,185.4,6.6,-0.7,15.96,29.16,688.8646,139.9969],
    [12617,1525550782,57.3179,-111.8637,760.6,427.6,186.5,7.9,-2.1,15.16,29.77,688.9475,140.0161],
    [12618,1525550783,57.3173,-111.8637,760.2,427.2,186.1,7.4,-2.4,15.98,29.37,689.0158,139.991],
    [12619,1525550784,57.3167,-111.8637,759.7,426.7,184.8,6.5,-2.4,15.56,29.38,688.7986,139.9815],
    [12620,1525550785,57.3161,-111.8637,758.9,425.9,184.8,6.9,-2.6,15.37,29.76,688.7679,139.9957],
    [12621,1525550786,57.3154,-111.8637,757.6,424.6,184.2,6.6,-2.6,15.11,29.97,688.8389,139.9828],
    [12622,1525550787,57.3148,-111.8636,756.2,423.2,183.0,5.6,-3.8,15.4,29.99,688.8171,139.9971],
    [12623,1525550788,57.3142,-111.8636,755.9,422.7,182.9,6.4,-3.9,14.84,29.72,688.8481,139.9921],
    [12624,1525550789,57.3136,-111.8636,757.2,423.2,182.8,6.7,-2.6,15.04,29.65,689.0335,140.0032],
    [12625,1525550790,57.313,-111.8635,758.5,423.5,182.5,6.8,-2.9,15.44,29.6,689.0791,140.0008],
    [12626,1525550791,57.3124,-111.8634,758.1,423.1,184.5,9.2,-0.7,15.27,29.84,689.1219,139.9958],
    [12627,1525550792,57.3117,-111.8634,757.8,422.8,185.6,9.7,-1.9,15.42,29.99,689.1347,140.0021],
    [12628,1525550793,57.3112,-111.8633,757.5,422.5,185.1,8.8,-1.3,15.75,29.27,689.2232,140.0177],
    [12629,1525550794,57.3105,-111.8633,756.6,422.6,184.7,7.8,-1.5,15.47,29.89,689.3022,140.0091],
    [12630,1525550795,57.3099,-111.8632,755.4,421.4,185.3,8.2,-1.4,15.44,29.93,689.3064,140.0026],
    [12631,1525550796,57.3093,-111.8632,754.8,421.9,185.4,8.7,-1.1,15.26,29.63,689.3362,140.0037],
    [12632,1525550797,57.3087,-111.8631,754.6,421.5,184.4,9.0,-1.2,15.33,29.55,689.517,140.0049],
    [12633,1525550798,57.3081,-111.8631,754.5,422.5,182.6,9.0,-0.9,15.04,29.5,689.7375,139.9936],
    [12634,1525550799,57.3075,-111.8629,753.6,421.6,178.9,8.4,-1.3,15.57,29.18,689.8003,139.9956],
    [12635,1525550800,57.3069,-111.8627,752.7,420.7,176.1,9.9,-0.4,15.35,29.58,689.9834,139.9925],
    [12636,1525550801,57.3063,-111.8625,752.4,421.1,172.2,10.7,-2.2,14.87,29.5,690.0148,140.0005],
    [12637,1525550802,57.3057,-111.8621,751.2,420.2,166.8,9.9,-3.4,15.19,29.71,690.1003,140.0004],
    [12638,1525550803,57.3052,-111.8617,749.0,418.0,162.4,9.7,-2.8,15.47,30.07,690.2261,139.998],
    [12639,1525550804,57.3047,-111.8612,747.1,416.1,156.3,7.6,-2.0,15.43,29.64,690.6012,139.9998],
    [12640,1525550805,57.3041,-111.8606,745.9,415.9,150.7,7.4,-2.4,15.22,29.53,690.9092,139.9953],
    [12641,1525550806,57.3036,-111.8599,745.2,415.2,147.8,9.2,-2.0,15.41,29.51,691.1089,139.9978],
    [12642,1525550807,57.3032,-111.8592,744.4,413.4,143.1,9.0,-3.1,15.36,30.08,691.6152,140.0037],
    [12643,1525550808,57.3027,-111.8584,742.4,411.4,138.1,7.9,-2.2,14.91,29.57,692.1008,139.9961],
    [12644,1525550809,57.3023,-111.8575,739.4,408.4,134.2,8.9,-2.3,15.8,29.33,692.3983,139.9919],
    [12645,1525550810,57.3019,-111.8566,735.6,404.6,131.1,10.7,-1.4,15.45,29.73,692.8264,140.0086],
    [12646,1525550811,57.3016,-111.8557,731.5,401.5,126.5,10.1,-2.1,15.43,29.6,693.025,139.996],
    [12647,1525550812,57.3012,-111.8546,725.5,395.5,118.6,8.1,-4.1,15.5,30.29,693.2772,139.9943],
    [12648,1525550813,57.3009,-111.8535,720.4,391.4,113.9,7.1,-3.2,15.57,29.37,693.6561,139.9983],
    [12649,1525550814,57.3007,-111.8525,716.3,388.3,110.7,7.2,-2.3,15.83,28.76,694.1666,140.0032],
    [12650,1525550815,57.3005,-111.8513,712.7,385.7,106.2,7.2,-2.9,15.53,29.43,694.5466,139.9975],
    [12651,1525550816,57.3003,-111.8501,709.1,383.1,101.9,7.3,-3.3,15.33,29.89,694.9518,140.0081],
    [12652,1525550817,57.3002,-111.849,705.6,380.3,97.2,7.1,-4.1,15.53,29.65,695.6882,139.9945],
    [12653,1525550818,57.3001,-111.8477,701.7,376.7,92.9,7.8,-4.8,15.68,29.18,696.0652,139.9985],
    [12654,1525550819,57.3,-111.8466,696.8,372.8,90.9,8.1,-4.1,15.38,29.84,696.2905,139.9988],
    [12655,1525550820,57.3,-111.8453,690.3,366.3,88.4,8.4,-3.8,15.78,29.09,696.4834,140.0004],
    [12656,1525550821,57.3,-111.8441,683.8,360.8,85.0,7.9,-4.0,15.45,29.38,696.8328,139.9964],
    [12657,1525550822,57.3,-111.8429,677.4,354.4,82.7,6.8,-3.5,15.18,29.24,697.3648,139.9981],
    [12658,1525550823,57.3001,-111.8416,671.8,349.8,79.8,7.2,-4.4,15.77,29.51,697.8384,140.0061],
    [12659,1525550824,57.3002,-111.8404,667.9,345.9,77.0,5.3,-6.0,15.76,29.17,698.2931,140.0055],
    [12660,1525550825,57.3003,-111.8392,665.1,344.1,77.7,6.0,-3.8,15.97,29.16,698.5778,140.0174],
    [12661,1525550826,57.3004,-111.838,661.4,340.4,79.5,5.1,-2.2,16.14,28.78,698.6215,140.0107],
    [12662,1525550827,57.3005,-111.8368,656.4,335.4,79.5,5.7,-2.7,15.87,28.96,698.4563,140.0132],
    [12663,1525550828,57.3005,-111.8357,651.2,330.2,80.1,5.8,-2.9,15.69,29.61,698.1772,140.0095],
    [12664,1525550829,57.3006,-111.8344,644.6,323.6,80.0,5.3,-3.6,15.53,29.06,697.4542,139.9948],
    [12665,1525550830,57.3007,-111.8332,639.4,318.4,81.6,4.5,-2.1,16.58,28.41,697.2225,139.9978],
    [12666,1525550831,57.3008,-111.8318,636.8,316.3,82.7,4.5,-1.5,15.78,28.82,697.3693,139.9909],
    [12667,1525550832,57.3008,-111.8306,639.5,319.5,82.4,4.7,-2.0,15.98,28.5,697.7247,140.0028],
    [12668,1525550833,57.3009,-111.8294,645.3,325.3,82.7,6.3,-1.5,16.62,28.25,698.0036,139.9975],
    [12669,1525550834,57.301,-111.8281,651.6,331.6,83.1,6.3,-1.2,16.13,28.75,698.1446,139.9997],
    [12670,1525550835,57.301,-111.827,655.0,335.0,82.9,5.8,-1.2,16.57,28.25,698.3238,140.0022],
    [12671,1525550836,57.3011,-111.8258,654.9,334.9,84.0,5.7,0.3,16.09,28.73,698.472,140.005],
    [12672,1525550837,57.3012,-111.8246,651.8,331.8,82.8,6.6,-0.9,15.99,28.85,698.3982,140.0003],
    [12673,1525550838,57.3012,-111.8233,648.0,328.0,81.6,6.8,-1.9,16.21,29.3,698.3536,139.996],
    [12674,1525550839,57.3013,-111.8222,645.6,325.6,82.0,6.8,-1.8,16.28,28.19,698.4742,139.9975],
    [12675,1525550840,57.3014,-111.8211,643.5,324.5,81.8,5.5,-2.2,15.96,28.6,698.6405,139.9969],
    [12676,1525550841,57.3014,-111.8198,641.4,323.1,83.6,6.8,-0.9,15.98,28.58,698.8982,139.9967],
    [12677,1525550842,57.3015,-111.8185,641.6,323.8,82.5,7.2,-2.3,16.23,28.26,699.0514,140.0003],
    [12678,1525550843,57.3015,-111.8174,642.2,325.2,81.7,6.9,-3.1,16.08,28.98,699.1788,140.0008],
    [12679,1525550844,57.3016,-111.8162,641.6,325.6,81.3,6.6,-3.6,16.11,28.39,699.285,140.0085],
    [12680,1525550845,57.3017,-111.815,639.3,324.3,81.1,5.5,-3.6,15.59,28.54,699.3407,139.997],
    [12681,1525550846,57.3017,-111.8138,637.3,323.3,81.2,6.3,-2.6,16.39,28.1,699.3209,140.0048],
    [12682,1525550847,57.3018,-111.8126,635.2,321.2,79.3,6.1,-3.3,16.22,28.27,699.3261,140.0],
    [12683,1525550848,57.3019,-111.8114,633.5,319.5,76.8,6.2,-3.9,16.22,28.23,699.3663,140.0005],
    [12684,1525550849,57.302,-111.8102,631.9,316.9,73.6,7.5,-4.0,16.57,27.95,699.5209,139.9962],
    [12685,1525550850,57.3021,-111.8092,631.4,315.7,69.9,7.7,-4.1,16.81,27.54,699.7158,139.9965],
    [12686,1525550851,57.3023,-111.808,631.4,315.4,67.0,7.4,-2.9,15.8,28.11,699.9718,139.9976],
    [12687,1525550852,57.3025,-111.8069,631.5,315.5,63.6,7.8,-2.3,16.42,28.18,700.1108,139.9978],
    [12688,1525550853,57.3028,-111.8058,631.2,315.2,59.6,8.2,-2.7,15.7,28.08,700.4276,140.0024],
    [12689,1525550854,57.3031,-111.8048,630.2,314.2,56.7,8.5,-2.6,16.12,27.99,700.4304,140.0028],
    [12690,1525550855,57.3034,-111.8038,628.1,313.1,53.7,8.3,-3.1,16.32,27.83,700.4175,140.0053],
    [12691,1525550856,57.3037,-111.8028,625.3,311.3,51.6,7.5,-3.1,15.86,27.96,700.4403,140.002],
    [12692,1525550857,57.304,-111.8018,621.6,307.6,48.5,7.3,-4.0,16.07,27.93,700.4005,139.9968],
    [12693,1525550858,57.3044,-111.801,619.0,305.0,45.9,7.3,-3.7,16.3,28.1,700.457,140.0],
    [12694,1525550859,57.3048,-111.8001,618.4,305.4,43.4,7.4,-3.7,16.02,28.09,700.5771,140.0027],
    [12695,1525550860,57.3052,-111.7992,618.4,306.1,40.3,8.1,-4.0,17.06,27.65,700.6847,140.0013],
    [12696,1525550861,57.3056,-111.7985,618.5,306.6,38.8,7.4,-3.7,16.46,28.4,700.6845,140.0317],
    [12697,1525550862,57.306,-111.7976,618.6,307.3,36.6,7.3,-3.8,16.38,27.93,700.8228,140.0024],
    [12698,1525550863,57.3064,-111.797,618.3,307.6,34.6,7.5,-3.7,17.07,27.72,700.8695,140.0058],
    [12699,1525550864,57.3069,-111.7962,617.4,307.4,31.7,8.3,-3.5,16.52,27.81,700.9405,140.0031],
    [12700,1525550865,57.3073,-111.7956,616.3,306.3,28.4,9.3,-3.7,16.35,28.19,701.0608,140.0005],
    [12701,1525550866,57.3078,-111.795,615.5,305.5,24.3,10.0,-4.6,16.08,27.84,701.1375,139.9985],
    [12702,1525550867,57.3083,-111.7944,614.9,305.0,21.8,9.9,-4.3,15.91,27.93,701.1402,140.0043],
    [12703,1525550868,57.3088,-111.7939,613.6,302.6,19.1,10.7,-3.2,16.23,28.0,701.0725,140.0073],
    [12704,1525550869,57.3092,-111.7934,612.3,300.8,16.4,11.1,-3.2,15.88,28.01,700.7928,139.9937],
    [12705,1525550870,57.3097,-111.7929,611.4,299.4,14.9,10.3,-2.8,16.45,27.94,700.6559,139.9978],
    [12706,1525550871,57.3102,-111.7925,610.3,298.3,14.4,8.6,-2.3,17.16,27.67,700.3446,139.9914],
    [12707,1525550872,57.3107,-111.7922,609.4,297.4,12.5,8.1,-2.5,16.58,28.72,700.0409,139.9993],
    [12708,1525550873,57.3113,-111.7918,610.5,298.5,8.1,9.6,-1.6,16.13,28.18,699.8592,139.9898],
    [12709,1525550874,57.3118,-111.7916,612.8,300.8,6.0,9.1,-2.2,15.82,28.29,700.0891,139.9991],
    [12710,1525550875,57.3124,-111.7913,615.7,303.7,5.4,7.5,-2.5,16.29,28.24,700.3049,139.9925],
    [12711,1525550876,57.3129,-111.7911,619.0,307.3,4.2,7.1,-2.5,15.81,28.4,700.3775,140.0022],
    [12712,1525550877,57.3135,-111.7909,622.4,311.4,361.8,8.8,-2.2,16.28,28.3,700.5704,139.9993],
    [12713,1525550878,57.314,-111.7907,623.4,312.4,361.0,9.1,-2.2,16.58,28.84,700.7698,140.0104],
    [12714,1525550879,57.3146,-111.7906,622.0,311.0,360.5,9.6,-2.2,17.01,28.03,700.8393,140.0018],
    [12715,1525550880,57.3151,-111.7904,620.1,309.1,360.4,9.4,-2.3,16.5,28.84,700.9379,139.9971],
    [12716,1525550881,57.3156,-111.7903,618.5,307.5,360.6,9.0,-2.1,16.28,28.92,701.0819,139.9927],
    [12717,1525550882,57.3162,-111.7901,616.2,305.2,359.9,9.1,-2.9,16.71,28.32,701.0742,139.9998],
    [12718,1525550883,57.3168,-111.7899,614.3,303.3,357.7,10.2,-1.8,17.1,28.13,701.4203,140.0027],
    [12719,1525550884,57.3174,-111.7898,612.8,301.8,354.7,10.9,-1.9,16.19,28.36,701.4771,140.0087],
    [12720,1525550885,57.3179,-111.7898,611.8,300.8,352.9,10.9,-2.7,16.55,28.4,701.6089,139.9991],
    [12721,1525550886,57.3185,-111.7898,610.3,299.3,352.1,9.9,-1.3,16.53,28.15,701.61,139.9945],
    [12722,1525550887,57.3191,-111.7898,608.9,297.9,350.8,9.9,-2.2,16.82,27.84,701.5841,139.9999],
    [12723,1525550888,57.3196,-111.7898,606.8,295.8,351.2,9.0,-2.0,16.59,28.0,701.5542,139.9927],
    [12724,1525550889,57.3202,-111.7898,604.4,293.4,349.9,10.2,-1.1,16.81,27.55,701.4566,139.9949],
    [12725,1525550890,57.3208,-111.7898,603.6,292.6,348.3,11.1,-0.8,16.2,27.93,701.5668,140.0062],
    [12726,1525550891,57.3214,-111.7899,603.2,292.2,349.0,10.3,-1.2,16.47,28.32,701.6985,140.0074],
    [12727,1525550892,57.3219,-111.7899,603.5,292.5,348.5,10.4,0.3,16.73,27.95,701.8057,139.998],
    [12728,1525550893,57.3225,-111.7899,603.7,293.5,348.6,10.0,-0.1,16.88,28.34,701.8121,139.9964],
    [12729,1525550894,57.3231,-111.79,604.0,294.0,348.9,8.9,0.7,16.19,28.02,701.7735,139.9944],
    [12730,1525550895,57.3236,-111.7901,603.5,293.5,349.8,8.5,1.4,17.16,27.74,701.8938,139.9989],
    [12731,1525550896,57.3242,-111.7901,602.3,292.3,349.0,10.3,1.3,16.5,28.59,701.9337,139.9954],
    [12732,1525550897,57.3248,-111.7901,601.2,291.2,351.1,9.3,0.6,16.6,28.55,701.8851,140.0066],
    [12733,1525550898,57.3254,-111.7901,600.7,290.7,352.9,8.7,0.4,16.96,27.36,701.871,140.0026],
    [12734,1525550899,57.326,-111.7901,600.8,290.8,353.5,8.8,-0.6,16.79,27.61,701.8677,139.997],
    [12735,1525550900,57.3265,-111.7901,600.2,290.2,354.3,8.4,-1.5,16.44,27.93,701.8587,140.0029],
    [12736,1525550901,57.3271,-111.79,599.1,289.1,354.2,8.3,-1.2,16.14,27.91,701.8592,139.9964],
    [12737,1525550902,57.3277,-111.79,598.9,288.9,353.5,9.0,-1.4,16.42,27.72,701.7706,139.9993],
    [12738,1525550903,57.3283,-111.79,599.4,289.4,352.9,9.2,-1.0,16.48,27.85,701.5793,139.9948],
    [12739,1525550904,57.3289,-111.79,599.8,289.8,352.6,9.5,-1.2,16.58,28.18,701.4806,140.0022],
    [12740,1525550905,57.3295,-111.79,599.8,289.8,351.5,10.0,-0.9,16.75,28.33,701.3666,140.0027],
    [12741,1525550906,57.3301,-111.79,599.7,290.7,351.7,9.1,-1.6,16.85,27.69,701.1977,140.0088],
    [12742,1525550907,57.3307,-111.79,600.6,291.6,351.3,9.1,-0.9,16.67,27.78,701.1944,139.9969],
    [12743,1525550908,57.3313,-111.79,602.3,293.3,350.9,8.9,-1.8,16.54,27.82,701.1867,139.9974],
    [12744,1525550909,57.3319,-111.7901,604.1,297.9,353.1,6.5,-1.6,16.3,27.73,700.9988,140.0009],
    [12745,1525550910,57.3324,-111.7901,605.4,300.8,353.3,6.4,-0.7,16.71,28.67,700.8276,139.9925],
    [12746,1525550911,57.3331,-111.7901,606.7,302.7,351.7,8.2,-0.1,16.79,28.01,700.7541,139.9975],
    [12747,1525550912,57.3337,-111.7901,607.8,301.8,352.1,7.3,0.2,16.76,28.22,700.6914,139.9984],
    [12748,1525550913,57.3343,-111.7902,608.7,301.0,353.3,6.4,0.6,16.47,27.83,700.4868,139.9992],
    [12749,1525550914,57.3349,-111.7902,609.7,300.8,351.8,7.8,0.7,16.89,27.95,700.4321,140.0043],
    [12750,1525550915,57.3355,-111.7902,611.3,302.3,352.6,6.9,-1.2,16.89,28.58,700.3253,140.0029],
    [12751,1525550916,57.3361,-111.7903,612.9,303.9,352.8,6.6,-1.6,16.76,28.05,700.2296,139.9996],
    [12752,1525550917,57.3367,-111.7903,614.0,305.0,351.9,7.4,-1.6,16.6,27.97,700.1061,139.9948],
    [12753,1525550918,57.3372,-111.7903,615.2,307.2,351.6,7.6,-2.1,16.88,28.03,700.0152,140.0065],
    [12754,1525550919,57.3378,-111.7904,616.4,308.4,351.5,7.5,-2.6,16.45,28.02,699.7573,140.0079],
    [12755,1525550920,57.3384,-111.7904,618.0,310.0,351.3,7.4,-1.9,16.79,28.3,699.8945,139.991],
    [12756,1525550921,57.339,-111.7905,618.9,310.9,350.9,7.5,-1.6,16.85,28.77,699.9366,139.9971],
    [12757,1525550922,57.3396,-111.7905,620.0,312.0,351.1,7.1,-2.7,16.79,28.17,699.9164,140.0035],
    [12758,1525550923,57.3402,-111.7906,621.5,313.5,350.5,8.0,-2.3,16.73,28.26,699.8448,140.0007],
    [12759,1525550924,57.3407,-111.7906,623.8,315.8,348.6,9.7,-2.0,16.69,28.28,700.0505,139.9963],
    [12760,1525550925,57.3414,-111.7907,623.9,315.9,349.6,8.4,-1.6,17.15,28.06,700.1621,139.9985],
    [12761,1525550926,57.3419,-111.7908,623.5,316.4,349.2,8.5,-1.2,16.4,28.29,700.4111,139.9977],
    [12762,1525550927,57.3425,-111.7909,623.4,318.3,348.3,8.6,-0.2,16.36,28.51,700.439,140.0031],
    [12763,1525550928,57.3431,-111.7909,623.8,320.6,347.7,8.7,0.2,16.89,28.17,700.3815,139.998],
    [12764,1525550929,57.3437,-111.791,622.6,320.6,346.9,9.1,0.9,16.97,28.07,700.3242,139.9881],
    [12765,1525550930,57.3443,-111.7911,620.2,319.2,346.0,9.7,0.9,17.04,27.9,700.2764,139.9973],
    [12766,1525550931,57.3449,-111.7912,618.1,318.2,345.8,9.7,0.0,17.18,28.03,700.1843,140.0094],
    [12767,1525550932,57.3455,-111.7914,617.0,317.0,345.7,9.5,0.0,16.64,28.35,700.0596,140.005],
    [12768,1525550933,57.3461,-111.7915,617.1,317.1,344.8,10.6,-0.6,16.94,28.98,699.6925,139.9983],
    [12769,1525550934,57.3467,-111.7916,617.6,317.5,346.5,9.6,-3.2,16.8,28.25,699.5355,139.9941],
    [12770,1525550935,57.3472,-111.7917,618.0,316.9,348.8,8.2,-3.3,16.94,28.85,699.5293,140.0055],
    [12771,1525550936,57.3479,-111.7918,618.8,318.8,348.6,9.0,-3.6,16.94,28.05,699.6574,139.9939],
    [12772,1525550937,57.3484,-111.7919,620.2,320.3,348.2,8.7,-2.8,16.79,28.19,699.9159,140.0054],
    [12773,1525550938,57.349,-111.792,623.4,324.5,348.0,6.6,-3.3,16.91,28.57,700.0341,140.0005],
    [12774,1525550939,57.3496,-111.7921,626.1,327.1,345.0,7.7,-2.5,16.35,28.16,700.2605,140.0096],
    [12775,1525550940,57.3502,-111.7923,627.3,327.3,339.3,11.1,-2.4,16.86,28.25,700.2842,140.002],
    [12776,1525550941,57.3506,-111.7925,626.8,326.9,336.1,11.7,-2.4,17.35,28.23,700.1876,140.0035],
    [12777,1525550942,57.3512,-111.7929,624.4,323.4,333.1,10.5,-2.2,17.36,27.48,700.1382,139.9938],
    [12778,1525550943,57.3518,-111.7933,621.6,320.7,327.8,12.2,-2.3,16.72,27.99,700.2201,139.9998],
    [12779,1525550944,57.3523,-111.7937,619.5,317.2,324.7,12.0,-2.4,17.01,27.53,700.3037,140.0034],
    [12780,1525550945,57.3528,-111.7942,618.5,315.8,322.2,10.5,-1.9,16.81,27.88,700.2714,140.0026],
    [12781,1525550946,57.3532,-111.7948,619.2,315.0,319.0,11.0,-2.5,16.8,27.85,700.2808,140.008],
    [12782,1525550947,57.3536,-111.7953,619.6,314.7,316.3,11.0,-2.4,16.99,28.17,700.2714,140.0121],
    [12783,1525550948,57.3541,-111.796,618.9,312.9,312.6,11.8,-2.4,16.79,27.72,700.2252,139.9978],
    [12784,1525550949,57.3544,-111.7967,618.4,312.4,308.4,12.7,-2.0,16.85,28.53,700.3559,140.0032],
    [12785,1525550950,57.3548,-111.7974,618.6,311.5,305.5,12.2,-2.0,17.7,27.34,700.5346,140.0008],
    [12786,1525550951,57.3551,-111.7981,619.0,312.1,303.0,11.2,-1.3,17.01,27.45,700.6527,139.9985],
    [12787,1525550952,57.3554,-111.7988,619.4,311.4,300.1,10.8,-0.5,16.36,27.54,700.7634,140.0038],
    [12788,1525550953,57.3557,-111.7997,619.6,311.3,298.2,10.5,-0.8,16.61,27.96,700.8844,140.0005],
    [12789,1525550954,57.356,-111.8005,618.8,309.9,296.2,10.5,-0.6,16.92,28.08,700.9512,140.0006],
    [12790,1525550955,57.3562,-111.8013,617.1,307.1,293.9,10.8,-0.6,17.05,27.24,700.9958,139.9978],
    [12791,1525550956,57.3564,-111.802,615.1,303.8,292.6,9.7,-1.0,16.94,27.69,701.0258,140.001],
    [12792,1525550957,57.3566,-111.803,613.6,302.3,290.0,10.2,-0.4,16.77,27.33,701.0969,140.0109],
    [12793,1525550958,57.3568,-111.8038,612.2,300.6,288.2,10.7,-0.3,17.27,26.86,701.1706,140.0],
    [12794,1525550959,57.357,-111.8046,611.1,298.1,286.7,11.1,-0.8,17.12,27.29,701.2138,140.0051],
    [12795,1525550960,57.3571,-111.8055,610.3,298.3,285.8,11.5,-2.2,17.41,27.33,701.1517,139.9995],
    [12796,1525550961,57.3573,-111.8063,609.5,296.1,284.8,11.0,-2.8,16.99,27.44,701.0029,140.0014],
    [12797,1525550962,57.3574,-111.8073,608.7,294.3,280.8,10.8,-1.6,17.56,27.17,700.7465,140.0],
    [12798,1525550963,57.3575,-111.8083,608.4,293.1,277.7,11.6,-1.7,17.66,27.18,700.674,140.0049],
    [12799,1525550964,57.3575,-111.8092,607.9,290.9,274.3,11.5,-0.8,16.99,27.39,700.5477,140.0034],
    [12800,1525550965,57.3576,-111.8102,608.6,291.6,271.5,11.7,-1.1,16.53,27.65,700.5386,140.0044],
    [12801,1525550966,57.3575,-111.8111,610.7,293.1,269.8,11.3,-1.8,16.7,27.33,700.5248,140.0049],
    [12802,1525550967,57.3575,-111.812,612.9,294.9,268.5,11.3,-2.1,17.27,26.97,700.6731,139.9995],
    [12803,1525550968,57.3575,-111.8129,614.9,296.8,266.6,10.4,-1.4,16.82,27.6,700.882,140.0081],
    [12804,1525550969,57.3574,-111.8138,616.3,298.3,264.9,9.9,-0.7,17.51,27.09,700.8737,140.0072],
    [12805,1525550970,57.3574,-111.8147,616.7,298.8,264.4,9.2,-0.5,16.66,27.57,700.9835,139.9966],
    [12806,1525550971,57.3573,-111.8156,616.4,297.3,263.8,9.0,0.4,16.87,28.48,701.1049,139.9983],
    [12807,1525550972,57.3572,-111.8165,615.0,296.0,264.5,10.0,0.2,16.93,28.14,701.2787,140.0036],
    [12808,1525550973,57.3572,-111.8174,613.4,294.4,266.5,9.6,-1.1,16.69,27.76,701.4313,139.998],
    [12809,1525550974,57.3572,-111.8182,612.7,293.4,267.0,9.1,-0.7,16.73,27.92,701.4921,140.0045],
    [12810,1525550975,57.3571,-111.819,612.0,292.0,267.7,9.4,-0.9,17.07,28.01,701.4897,140.0068],
    [12811,1525550976,57.3571,-111.82,610.3,291.4,269.4,9.4,-1.5,17.42,26.97,701.3903,140.0155],
    [12812,1525550977,57.3571,-111.821,608.4,289.3,269.8,9.2,-1.2,16.76,28.12,701.1544,140.0065],
    [12813,1525550978,57.3571,-111.8218,606.7,288.7,270.2,9.2,-1.2,16.66,27.72,700.6759,139.9948],
    [12814,1525550979,57.3571,-111.8227,605.6,288.6,270.1,9.3,-1.0,16.81,28.4,700.2846,139.9971],
    [12815,1525550980,57.3571,-111.8237,605.3,288.3,270.1,9.3,-0.9,16.69,27.96,700.1204,139.9939],
    [12816,1525550981,57.3571,-111.8245,606.0,289.0,270.0,8.6,-0.7,17.2,27.74,700.1934,139.9899],
    [12817,1525550982,57.357,-111.8254,609.1,292.1,268.9,8.2,0.4,16.79,27.81,700.2655,140.0026],
    [12818,1525550983,57.357,-111.8262,613.1,295.1,268.9,9.0,0.1,16.89,27.73,700.1954,139.9954],
    [12819,1525550984,57.357,-111.8271,619.0,300.0,269.1,9.0,-0.2,16.53,27.84,700.2178,139.9981],
    [12820,1525550985,57.357,-111.828,621.7,301.7,269.5,8.7,-0.8,16.35,27.85,700.1206,140.0031],
    [12821,1525550986,57.357,-111.8289,621.4,301.4,269.6,8.1,-0.8,17.05,27.63,700.0581,139.9962],
    [12822,1525550987,57.357,-111.8298,620.4,299.7,269.9,9.7,-1.3,17.42,27.39,699.9675,139.9973],
    [12823,1525550988,57.357,-111.8307,620.2,300.2,270.2,9.1,-1.4,16.97,27.84,699.7731,139.9927],
    [12824,1525550989,57.357,-111.8315,620.8,300.8,270.4,9.4,-1.5,16.38,28.06,699.6727,140.0036],
    [12825,1525550990,57.357,-111.8324,621.4,301.4,270.3,8.4,-1.0,16.84,28.13,699.6398,139.9981],
    [12826,1525550991,57.357,-111.8333,622.4,302.4,269.6,8.8,-0.1,16.82,27.96,699.635,140.0011],
    [12827,1525550992,57.357,-111.8342,623.2,303.2,270.6,9.7,-0.7,16.75,27.85,699.5101,139.999],
    [12828,1525550993,57.357,-111.8351,624.4,304.4,271.3,10.4,-1.1,16.86,27.63,699.3925,139.9962],
    [12829,1525550994,57.357,-111.836,626.0,305.0,270.9,11.3,-0.5,16.81,27.88,699.4974,140.0023],
    [12830,1525550995,57.357,-111.8369,626.9,305.9,271.9,10.4,-1.6,16.95,27.58,699.5079,139.9956],
    [12831,1525550996,57.357,-111.8377,627.4,306.5,272.5,11.3,-2.2,16.85,28.06,699.3332,140.0051],
    [12832,1525550997,57.357,-111.8386,628.4,307.4,271.5,11.3,-1.7,16.88,27.62,699.1424,139.9945],
    [12833,1525550998,57.357,-111.8395,629.0,307.0,270.8,10.8,-1.5,17.5,27.2,698.9299,139.9989],
    [12834,1525550999,57.357,-111.8404,629.2,307.2,269.6,12.7,-1.2,16.7,28.11,698.9807,139.9916],
    [12835,1525551000,57.3569,-111.8413,629.0,306.0,269.6,10.9,-1.8,17.36,26.94,699.4392,140.0031],
    [12836,1525551001,57.3569,-111.8422,630.1,306.8,267.9,9.9,-0.5,16.78,27.08,699.5914,140.0002],
    [12837,1525551002,57.3569,-111.8431,632.2,308.2,267.9,10.3,-0.8,16.38,27.73,699.6564,139.9953],
    [12838,1525551003,57.3569,-111.8439,634.0,309.0,268.6,9.7,-1.8,16.68,27.44,699.6434,139.9987],
    [12839,1525551004,57.3568,-111.8448,633.9,308.9,269.3,9.8,-2.6,16.79,28.26,699.5469,140.005],
    [12840,1525551005,57.3568,-111.8457,631.0,306.1,269.0,10.0,-2.2,16.84,27.69,699.4734,140.007],
    [12841,1525551006,57.3568,-111.8466,628.0,302.0,267.9,12.2,-1.2,16.8,27.47,699.2315,140.0072],
    [12842,1525551007,57.3567,-111.8474,626.5,299.4,267.2,12.3,-1.0,16.4,27.65,699.1285,140.0093],
    [12843,1525551008,57.3567,-111.8484,626.6,298.5,267.2,12.3,-1.8,16.57,27.55,698.8283,140.0044],
    [12844,1525551009,57.3567,-111.8491,627.1,298.2,266.3,12.1,-2.2,16.96,26.82,698.7029,140.0043],
    [12845,1525551010,57.3566,-111.8501,628.4,298.4,262.4,13.1,-1.2,16.7,27.58,698.6352,140.0053],
    [12846,1525551011,57.3565,-111.851,630.6,300.2,258.2,12.4,-1.3,16.8,28.02,698.585,139.9941],
    [12847,1525551012,57.3563,-111.8519,633.4,303.1,254.7,12.0,-1.5,16.89,27.89,698.5012,140.0037],
    [12848,1525551013,57.3561,-111.8527,636.2,306.2,250.1,10.7,-1.1,16.62,27.65,698.4624,139.9977],
    [12849,1525551014,57.3559,-111.8535,638.5,308.2,244.8,10.4,-0.2,16.79,28.25,698.2675,139.9969],
    [12850,1525551015,57.3557,-111.8542,639.4,308.8,241.4,10.5,-0.3,16.77,27.35,698.176,140.0046],
    [12851,1525551016,57.3553,-111.855,640.1,308.1,237.3,11.2,-0.6,16.87,27.63,698.2503,139.9947],
    [12852,1525551017,57.355,-111.8557,640.7,308.4,233.6,11.3,-0.8,16.24,27.45,698.2855,140.0019],
    [12853,1525551018,57.3546,-111.8563,641.6,308.6,230.7,11.7,-1.4,17.4,26.99,698.2402,140.0001],
    [12854,1525551019,57.3542,-111.8569,643.2,309.9,227.7,12.0,-1.0,16.74,27.28,698.2134,140.0005],
    [12855,1525551020,57.3538,-111.8575,644.5,310.5,224.9,11.1,-1.2,16.78,27.52,698.2801,140.0002],
    [12856,1525551021,57.3534,-111.8581,644.5,310.6,223.3,11.7,-1.3,16.64,27.74,698.2369,140.0022],
    [12857,1525551022,57.353,-111.8586,644.3,309.3,221.5,11.7,-1.7,16.34,27.29,698.3448,140.0065],
    [12858,1525551023,57.3525,-111.8591,644.4,309.4,218.8,11.2,-1.5,16.68,27.28,698.2791,139.9949],
    [12859,1525551024,57.3521,-111.8595,644.6,309.6,215.8,10.5,-1.3,16.68,27.31,698.139,139.9975],
    [12860,1525551025,57.3516,-111.8599,644.2,309.7,214.1,10.9,-1.5,16.26,27.5,698.0431,139.9966],
    [12861,1525551026,57.3511,-111.8603,644.0,309.0,211.2,10.0,-1.6,16.8,27.11,697.7747,139.9974],
    [12862,1525551027,57.3506,-111.8607,643.6,309.6,208.5,9.4,-2.1,16.73,27.68,697.744,139.9954],
    [12863,1525551028,57.3501,-111.861,643.9,311.0,207.0,10.0,-2.3,16.77,27.83,697.7401,139.9958],
    [12864,1525551029,57.3496,-111.8613,644.9,311.9,205.4,10.0,-2.6,16.71,27.84,697.8924,139.9962],
    [12865,1525551030,57.349,-111.8616,646.2,313.2,202.0,8.4,-1.5,16.23,27.81,698.1497,140.001],
    [12866,1525551031,57.3484,-111.8618,648.4,315.1,198.1,6.8,0.0,16.99,27.38,698.3025,140.0015],
    [12867,1525551032,57.3479,-111.862,649.4,315.4,197.5,7.3,-0.6,16.73,28.62,698.4101,140.0014],
    [12868,1525551033,57.3474,-111.8622,649.5,314.5,195.9,6.6,-0.5,16.94,27.62,698.5175,140.0065],
    [12869,1525551034,57.3468,-111.8624,648.3,313.3,195.1,7.3,-0.2,16.74,27.73,698.6572,139.9985],
    [12870,1525551035,57.3462,-111.8625,645.8,310.5,195.6,8.4,-0.6,16.8,28.0,698.7339,139.9993],
    [12871,1525551036,57.3456,-111.8627,643.6,307.6,193.7,7.5,-0.4,16.41,28.49,698.8441,140.0037],
    [12872,1525551037,57.3451,-111.8628,642.0,306.0,193.4,8.1,-0.9,16.32,27.91,698.7616,140.0101],
    [12873,1525551038,57.3445,-111.8629,640.4,304.4,192.4,7.3,-1.6,16.38,28.29,698.657,139.9985],
    [12874,1525551039,57.3439,-111.863,638.7,303.7,191.1,7.0,-1.5,16.54,28.0,698.5875,140.0033],
    [12875,1525551040,57.3433,-111.8631,637.4,304.1,191.8,8.4,-1.3,16.55,28.57,698.6656,139.9946],
    [12876,1525551041,57.3427,-111.8632,636.4,303.7,191.9,8.5,-1.0,16.79,28.27,699.1584,140.0004],
    [12877,1525551042,57.3421,-111.8633,636.9,305.9,190.6,6.9,-1.6,16.76,27.85,699.5251,140.0041],
    [12878,1525551043,57.3415,-111.8634,637.9,307.6,191.2,7.1,-1.9,16.67,28.3,699.7039,139.9994],
    [12879,1525551044,57.341,-111.8635,638.0,308.1,191.0,6.8,-2.0,16.63,28.24,699.8381,140.0053],
    [12880,1525551045,57.3403,-111.8635,636.4,307.4,192.2,8.4,-1.9,17.06,27.71,700.0731,139.9965],
    [12881,1525551046,57.3398,-111.8636,633.3,304.3,192.1,8.2,-2.0,16.5,28.03,700.1009,139.9973],
    [12882,1525551047,57.3392,-111.8637,629.5,299.8,190.0,6.6,-2.4,16.42,27.9,700.2212,139.9972],
    [12883,1525551048,57.3386,-111.8638,626.7,296.7,190.5,7.7,-2.4,16.64,28.73,700.3811,139.9981],
    [12884,1525551049,57.338,-111.8639,624.8,293.8,190.0,7.2,-3.4,16.47,27.88,700.4921,140.0012],
    [12885,1525551050,57.3374,-111.8639,622.7,291.7,189.1,7.4,-2.8,16.01,27.92,700.5677,139.9976],
    [12886,1525551051,57.3368,-111.864,621.3,289.3,189.3,7.9,-3.7,16.94,27.47,700.6177,139.9977],
    [12887,1525551052,57.3363,-111.864,620.4,288.4,188.2,7.4,-2.7,16.38,27.95,700.6462,139.9995],
    [12888,1525551053,57.3356,-111.864,618.4,286.5,187.9,7.7,-3.1,16.69,27.81,700.8852,139.9964],
    [12889,1525551054,57.335,-111.864,616.9,283.9,187.1,7.5,-2.3,16.68,28.66,700.9862,140.0006],
    [12890,1525551055,57.3344,-111.864,615.8,282.8,187.6,9.1,-1.9,16.65,28.06,701.1905,140.0035],
    [12891,1525551056,57.3337,-111.864,614.7,281.7,187.6,9.4,-2.9,16.97,27.48,701.333,140.0004],
    [12892,1525551057,57.3332,-111.864,614.0,281.0,185.6,7.9,-1.4,16.78,27.68,701.3556,140.0069],
    [12893,1525551058,57.3325,-111.864,612.7,279.7,186.6,9.1,-2.5,16.73,28.35,701.3056,139.9991],
    [12894,1525551059,57.3319,-111.864,610.7,277.7,187.0,8.8,-3.1,16.51,28.03,701.2101,140.0026],
    [12895,1525551060,57.3313,-111.8639,609.0,277.1,185.1,6.9,-2.1,16.88,27.86,701.1693,140.001],
    [12896,1525551061,57.3307,-111.8639,607.4,274.6,186.9,8.3,-2.7,16.78,27.74,701.005,139.9954],
    [12897,1525551062,57.3301,-111.8639,606.5,273.5,187.4,8.2,-3.1,16.69,27.82,700.8809,140.0052],
    [12898,1525551063,57.3294,-111.8639,606.8,273.8,188.1,8.4,-3.6,16.6,28.64,700.8594,139.9952],
    [12899,1525551064,57.3289,-111.864,607.6,274.6,188.3,8.3,-3.0,16.4,27.85,700.8036,139.9934],
    [12900,1525551065,57.3282,-111.864,608.3,275.3,188.9,8.8,-3.0,16.6,27.91,700.5684,140.0033],
    [12901,1525551066,57.3276,-111.864,609.8,276.8,189.4,8.7,-3.5,17.21,27.28,700.4753,139.999],
    [12902,1525551067,57.327,-111.864,611.5,278.5,188.3,7.3,-3.5,16.95,27.75,700.2167,139.998],
    [12903,1525551068,57.3264,-111.8641,612.3,278.5,188.8,8.0,-3.5,17.24,27.14,700.1212,139.9987],
    [12904,1525551069,57.3258,-111.8641,613.2,279.2,189.2,8.5,-2.5,16.56,27.47,700.0507,139.9956],
    [12905,1525551070,57.3252,-111.8641,614.9,280.9,187.0,6.3,-3.7,16.27,27.82,700.1393,139.9974],
    [12906,1525551071,57.3246,-111.8641,617.3,283.3,186.3,6.3,-3.7,16.69,27.82,700.1856,140.0009],
    [12907,1525551072,57.324,-111.8642,619.3,286.3,186.6,6.9,-3.6,16.88,27.54,700.2348,140.0014],
    [12908,1525551073,57.3234,-111.8642,621.0,289.0,185.8,6.4,-3.6,17.04,27.28,700.2012,140.0006],
    [12909,1525551074,57.3229,-111.8642,621.9,290.9,186.2,6.8,-3.0,16.75,27.76,700.2329,139.9976],
    [12910,1525551075,57.3222,-111.8642,621.6,291.6,187.4,8.0,-3.2,16.71,27.77,700.2938,139.9997],
    [12911,1525551076,57.3216,-111.8642,620.8,289.8,187.8,8.3,-3.4,17.28,27.38,700.2622,140.0036],
    [12912,1525551077,57.321,-111.8642,620.3,288.3,187.2,7.4,-3.4,16.2,27.6,700.238,140.0009],
    [12913,1525551078,57.3204,-111.8642,620.2,287.2,185.7,6.1,-3.4,16.78,27.49,700.2889,139.999],
    [12914,1525551079,57.3198,-111.8642,620.2,286.1,186.2,7.0,-3.8,16.63,27.64,700.1715,140.0013],
    [12915,1525551080,57.3192,-111.8642,619.9,286.5,186.3,7.3,-4.4,16.41,27.65,700.1671,140.0054],
    [12916,1525551081,57.3186,-111.8642,619.7,286.7,185.3,6.1,-4.2,16.44,27.64,699.9994,139.9993],
    [12917,1525551082,57.318,-111.8642,619.8,286.8,185.5,5.8,-4.9,16.62,27.7,699.8729,140.0007],
    [12918,1525551083,57.3174,-111.8642,619.8,286.8,187.0,6.8,-4.9,16.84,28.07,699.7505,139.9961],
    [12919,1525551084,57.3169,-111.8642,620.2,287.2,187.1,6.5,-4.4,17.35,27.18,699.6927,139.9964],
    [12920,1525551085,57.3162,-111.8642,621.2,287.5,186.6,6.1,-4.3,16.5,27.57,699.6551,139.9957],
    [12921,1525551086,57.3156,-111.8642,622.5,288.5,186.8,6.6,-4.4,16.56,27.87,699.6261,140.0019],
    [12922,1525551087,57.315,-111.8642,624.5,290.5,185.7,5.9,-4.2,16.7,28.38,699.4751,139.9819],
    [12923,1525551088,57.3144,-111.8643,626.0,292.1,185.1,5.8,-4.2,16.57,27.91,699.2714,139.9972],
    [12924,1525551089,57.3138,-111.8642,626.6,291.9,185.0,6.0,-3.9,16.86,27.43,699.1462,139.9907],
    [12925,1525551090,57.3132,-111.8642,626.9,291.9,185.0,6.5,-2.9,16.94,27.61,699.2065,139.9921],
    [12926,1525551091,57.3126,-111.8642,627.5,292.5,184.4,6.1,-2.6,16.48,27.82,699.469,139.9999],
    [12927,1525551092,57.312,-111.8642,629.0,294.0,183.9,5.6,-5.0,16.74,27.79,699.5437,139.9991],
    [12928,1525551093,57.3113,-111.8642,631.4,296.4,183.9,5.6,-4.6,16.58,27.86,700.0187,140.0029],
    [12929,1525551094,57.3108,-111.8642,632.8,297.8,184.7,6.3,-3.6,16.49,27.91,700.1254,140.0038],
    [12930,1525551095,57.3101,-111.8641,632.8,297.8,184.5,6.2,-4.1,16.73,27.82,700.5775,140.0175],
    [12931,1525551096,57.3096,-111.8641,630.9,296.9,185.2,7.0,-4.4,16.72,28.14,700.7138,140.007],
    [12932,1525551097,57.3089,-111.8641,628.3,294.2,185.0,7.0,-4.3,16.71,28.32,700.7989,139.999],
    [12933,1525551098,57.3084,-111.8641,625.3,292.4,184.4,7.1,-4.3,16.52,28.07,700.8793,140.0023],
    [12934,1525551099,57.3078,-111.864,621.8,288.8,184.0,8.0,-4.7,16.8,28.38,700.9391,140.0029],
    [12935,1525551100,57.3072,-111.8639,618.4,285.4,179.2,6.3,-4.8,16.21,28.45,701.0218,139.9934],
    [12936,1525551101,57.3066,-111.8638,616.0,283.0,173.2,5.7,-4.4,16.57,28.26,701.0393,139.9982],
    [12937,1525551102,57.306,-111.8635,614.9,281.9,167.7,6.2,-4.7,16.71,28.66,701.0486,139.9804],
    [12938,1525551103,57.3054,-111.8631,614.1,281.1,160.3,5.7,-4.5,16.72,28.7,701.267,139.9913],
    [12939,1525551104,57.3049,-111.8626,613.3,281.3,153.1,5.5,-4.9,16.46,28.27,701.4617,139.9951],
    [12940,1525551105,57.3044,-111.862,612.2,281.2,146.4,6.2,-4.0,16.69,28.26,702.0816,139.9963],
    [12941,1525551106,57.3039,-111.8613,611.3,281.3,140.6,7.2,-3.4,16.73,28.21,702.32,139.9937],
    [12942,1525551107,57.3034,-111.8605,610.5,280.5,136.3,8.9,-2.3,16.59,28.13,703.0668,139.9952],
    [12943,1525551108,57.3031,-111.8596,609.2,278.2,132.8,9.7,-0.7,17.37,27.99,703.4218,140.0028],
    [12944,1525551109,57.3027,-111.8586,606.4,275.4,126.8,9.7,-1.4,16.64,28.95,703.7446,139.993],
    [12945,1525551110,57.3024,-111.8576,601.7,270.7,122.2,9.9,-0.5,15.99,28.23,703.8966,139.9934],
    [12946,1525551111,57.3021,-111.8566,595.7,264.7,116.5,9.8,-0.5,17.01,27.83,704.1638,139.9884],
    [12947,1525551112,57.3019,-111.8554,589.0,259.0,110.6,8.5,-0.4,16.83,27.91,704.2081,139.991],
    [12948,1525551113,57.3017,-111.8542,582.9,252.8,105.1,9.5,-1.4,16.81,27.84,704.3159,140.0005],
    [12949,1525551114,57.3015,-111.8531,579.0,250.0,100.4,8.8,-1.1,16.32,27.54,704.5789,140.0117],
    [12950,1525551115,57.3014,-111.8518,576.1,248.6,96.7,8.4,-0.5,16.42,27.48,704.8908,140.011],
    [12951,1525551116,57.3014,-111.8506,572.7,245.7,93.3,5.0,-0.3,16.29,27.47,705.1595,140.0088],
    [12952,1525551117,57.3014,-111.8493,570.4,244.4,91.2,5.8,0.0,16.56,27.91,705.4251,139.9894],
    [12953,1525551118,57.3014,-111.8481,568.8,243.8,89.4,4.5,-0.9,16.84,27.52,705.5107,139.9983],
    [12954,1525551119,57.3014,-111.8468,566.6,241.9,88.6,5.7,-1.4,17.67,27.17,705.6623,140.0043],
    [12955,1525551120,57.3014,-111.8456,564.6,240.6,88.8,7.2,-1.3,17.31,27.28,705.824,139.9933],
    [12956,1525551121,57.3014,-111.8445,560.7,237.7,89.5,8.3,-0.9,16.54,27.37,706.1617,140.0011],
    [12957,1525551122,57.3014,-111.8431,556.9,233.9,92.3,6.1,1.8,17.02,27.21,706.6336,140.0079],
    [12958,1525551123,57.3013,-111.8419,555.2,233.2,89.7,5.1,-1.3,17.18,27.78,706.7944,139.9996],
    [12959,1525551124,57.3013,-111.8406,553.8,231.8,87.3,5.0,-3.6,17.44,26.74,706.822,139.996],
    [12960,1525551125,57.3013,-111.8393,551.6,230.6,88.9,3.8,-1.7,16.64,27.16,706.8994,140.009],
    [12961,1525551126,57.3013,-111.838,548.6,227.6,90.9,6.9,0.6,17.85,26.46,707.0383,140.0017],
    [12962,1525551127,57.3013,-111.8368,544.8,223.8,90.8,7.8,0.5,17.58,26.91,707.2406,139.9954],
    [12963,1525551128,57.3013,-111.8355,541.4,220.4,89.8,8.3,0.4,16.99,27.05,707.2913,139.999],
    [12964,1525551129,57.3013,-111.8343,539.9,218.9,89.5,8.7,0.3,17.45,27.19,707.3709,139.9851],
    [12965,1525551130,57.3013,-111.833,538.9,217.9,87.9,8.3,-1.7,17.39,27.12,707.5187,139.9917],
    [12966,1525551131,57.3014,-111.8318,537.7,217.7,88.5,10.0,-1.3,17.53,27.27,707.8161,139.9968],
    [12967,1525551132,57.3014,-111.8305,535.8,215.8,87.5,8.8,-2.4,17.55,26.86,708.009,140.0005],
    [12968,1525551133,57.3014,-111.8293,534.3,214.3,86.6,7.3,-3.0,17.63,27.4,708.187,140.0023],
    [12969,1525551134,57.3014,-111.8281,533.1,213.1,86.7,6.2,-3.0,17.28,26.87,708.1991,140.0075],
    [12970,1525551135,57.3014,-111.8268,531.2,211.2,86.2,4.4,-4.0,18.22,26.56,708.3896,140.0049],
    [12971,1525551136,57.3014,-111.8255,528.8,208.8,86.6,4.4,-3.7,18.03,26.48,708.5427,140.0001],
    [12972,1525551137,57.3014,-111.8244,526.0,206.0,89.0,4.4,-1.3,18.03,26.57,708.977,140.0115],
    [12973,1525551138,57.3014,-111.8231,523.8,203.8,89.0,4.7,-1.4,18.06,26.6,709.2231,140.003],
    [12974,1525551139,57.3014,-111.8219,522.5,202.8,88.3,4.7,-2.1,17.41,27.07,709.4258,140.003],
    [12975,1525551140,57.3014,-111.8207,521.2,202.2,87.3,4.4,-2.7,17.04,26.85,709.5096,140.0021],
    [12976,1525551141,57.3014,-111.8195,518.6,200.6,87.5,4.7,-2.1,17.44,27.06,709.3799,140.0047],
    [12977,1525551142,57.3014,-111.8182,515.0,198.0,87.8,6.3,-1.7,17.09,27.0,709.477,139.9998],
    [12978,1525551143,57.3014,-111.817,511.8,194.7,88.0,5.8,-1.5,17.64,27.1,709.619,140.0024],
    [12979,1525551144,57.3014,-111.8159,509.5,193.5,88.1,5.9,-1.4,17.72,26.79,709.8319,140.0],
    [12980,1525551145,57.3014,-111.8146,508.3,193.3,88.2,5.4,-1.7,18.07,26.35,709.9431,139.9993],
    [12981,1525551146,57.3014,-111.8134,508.9,194.9,87.0,6.2,-2.9,17.74,26.63,710.0698,140.0037],
    [12982,1525551147,57.3014,-111.8122,508.6,194.6,86.4,6.3,-3.4,17.65,26.55,710.5266,140.0002],
    [12983,1525551148,57.3014,-111.8111,507.7,193.7,86.2,6.6,-3.7,17.69,26.43,710.6185,140.0111],
    [12984,1525551149,57.3014,-111.8098,506.1,191.1,85.3,6.8,-4.3,17.14,26.53,710.4191,139.9973],
    [12985,1525551150,57.3015,-111.8087,503.8,187.8,85.8,6.1,-3.3,17.74,26.79,710.3392,139.9976],
    [12986,1525551151,57.3015,-111.8075,501.0,185.0,85.3,6.4,-2.1,17.73,26.52,710.1337,139.9996],
    [12987,1525551152,57.3015,-111.8063,498.0,182.0,81.7,6.1,-3.1,17.88,26.77,710.1017,139.9938],
    [12988,1525551153,57.3016,-111.8051,496.3,180.3,75.7,6.3,-5.1,18.18,26.29,710.0548,140.0085],
    [12989,1525551154,57.3017,-111.8041,496.9,181.9,71.7,6.5,-4.2,18.23,25.95,709.9427,140.0103],
    [12990,1525551155,57.3019,-111.8029,499.3,184.3,67.5,6.2,-3.6,17.47,26.33,709.8178,140.0025],
    [12991,1525551156,57.3021,-111.8019,501.1,186.4,62.6,8.0,-3.5,17.62,26.4,709.6748,139.9959],
    [12992,1525551157,57.3023,-111.8009,502.0,188.0,57.8,5.8,-4.9,17.57,26.35,709.689,139.9973],
    [12993,1525551158,57.3026,-111.8,502.6,188.6,52.9,6.0,-4.9,17.74,26.38,709.7975,140.0039],
    [12994,1525551159,57.3029,-111.799,504.1,190.1,47.9,5.5,-5.3,18.1,26.31,709.7941,140.0009],
    [12995,1525551160,57.3032,-111.7982,505.6,192.3,42.2,6.9,-6.0,17.41,26.55,709.891,139.9998],
    [12996,1525551161,57.3036,-111.7974,507.1,194.1,37.5,7.3,-5.4,18.04,25.91,709.8577,140.0021],
    [12997,1525551162,57.304,-111.7968,507.7,194.7,34.6,7.5,-5.0,17.8,26.37,709.9966,139.9969],
    [12998,1525551163,57.3044,-111.7961,507.0,194.0,30.9,8.0,-4.7,17.82,26.64,710.0988,140.0014],
    [12999,1525551164,57.3049,-111.7954,506.3,193.3,27.1,8.6,-4.6,17.61,26.79,710.243,140.0016],
    [13000,1525551165,57.3053,-111.7949,506.0,194.0,24.4,8.4,-4.5,17.21,26.26,710.357,139.9921],
    [13001,1525551166,57.3057,-111.7944,505.7,193.7,21.5,9.1,-4.5,17.41,26.22,710.4372,139.9939],
    [13002,1525551167,57.3062,-111.7939,504.7,193.7,18.6,9.3,-4.7,17.38,26.45,710.9546,140.0035],
    [13003,1525551168,57.3067,-111.7934,503.5,193.4,17.2,8.6,-3.6,17.74,26.15,711.2178,139.9855],
    [13004,1525551169,57.3071,-111.793,501.8,191.8,14.8,8.6,-3.7,17.55,26.0,711.6408,140.0069],
    [13005,1525551170,57.3076,-111.7926,500.0,191.1,11.3,8.8,-3.2,17.73,25.96,711.7827,140.0064],
    [13006,1525551171,57.3082,-111.7923,497.5,188.2,9.4,7.9,-3.5,17.66,26.14,711.78,139.9936],
    [13007,1525551172,57.3087,-111.792,493.4,183.4,6.4,8.3,-3.9,17.58,26.26,711.5955,140.0029],
    [13008,1525551173,57.3092,-111.7918,489.3,178.3,2.7,8.8,-4.0,17.99,25.57,711.6124,140.0006],
    [13009,1525551174,57.3096,-111.7917,485.9,174.9,360.6,8.8,-4.2,17.81,26.21,711.8467,139.9891],
    [13010,1525551175,57.3102,-111.7915,482.0,170.0,357.9,8.6,-4.3,17.93,25.82,711.8558,140.002],
    [13011,1525551176,57.3107,-111.7914,481.4,169.4,357.1,7.7,-4.5,17.89,26.24,711.8867,139.9906],
    [13012,1525551177,57.3112,-111.7914,482.8,170.8,356.2,8.3,-4.1,17.64,26.55,711.752,140.0071],
    [13013,1525551178,57.3118,-111.7913,483.0,171.0,354.7,9.2,-3.1,17.87,26.24,711.6422,140.0058],
    [13014,1525551179,57.3123,-111.7913,481.6,169.6,355.3,8.3,-3.6,18.17,25.69,711.6981,139.9924],
    [13015,1525551180,57.3127,-111.7912,480.8,168.8,354.7,8.9,-4.3,17.82,26.68,711.7228,139.9905],
    [13016,1525551181,57.3133,-111.7911,480.8,168.8,356.7,7.2,-3.3,18.17,25.7,711.86,139.9997],
    [13017,1525551182,57.3139,-111.7911,481.6,170.6,358.0,5.9,-3.0,17.82,26.59,711.9922,139.9884],
    [13018,1525551183,57.3144,-111.791,482.7,171.7,354.8,8.2,-2.1,17.86,26.1,712.124,139.9905],
    [13019,1525551184,57.3149,-111.791,483.2,172.2,353.5,8.4,-1.8,17.95,26.69,712.1256,140.001],
    [13020,1525551185,57.3155,-111.791,482.4,171.4,353.1,8.6,-2.2,17.9,27.06,712.2094,140.0008],
    [13021,1525551186,57.316,-111.791,480.7,169.7,350.5,10.8,-2.7,17.66,26.6,712.4912,139.9905],
    [13022,1525551187,57.3166,-111.791,478.5,167.5,351.1,9.3,-4.4,18.36,25.78,712.7163,139.9987],
    [13023,1525551188,57.3171,-111.791,477.0,166.0,352.6,7.9,-6.0,17.92,26.19,712.7358,140.0081],
    [13024,1525551189,57.3177,-111.791,476.4,165.4,353.2,7.5,-4.7,17.95,26.35,712.6972,139.9997],
    [13025,1525551190,57.3182,-111.791,475.4,164.4,353.7,7.5,-4.7,17.9,26.77,712.5386,140.0103],
    [13026,1525551191,57.3188,-111.791,473.0,162.0,354.0,7.6,-5.3,17.99,26.43,712.6201,139.9951],
    [13027,1525551192,57.3193,-111.791,470.7,159.7,354.8,7.5,-4.6,17.83,27.11,712.5539,139.9981],
    [13028,1525551193,57.3198,-111.791,469.7,158.7,353.9,8.7,-4.5,17.66,26.27,712.6561,140.0062],
    [13029,1525551194,57.3204,-111.7909,469.7,158.7,354.5,8.1,-5.1,17.9,26.15,712.7266,139.9969],
    [13030,1525551195,57.321,-111.7909,470.6,159.6,354.0,8.3,-4.3,18.15,26.04,712.8599,139.9995],
    [13031,1525551196,57.3215,-111.7909,471.7,160.7,353.0,8.2,-3.6,17.63,26.07,712.8727,140.0027],
    [13032,1525551197,57.3221,-111.7909,471.9,160.9,353.7,7.0,-2.5,17.71,26.4,712.9821,140.0022],
    [13033,1525551198,57.3226,-111.7909,471.5,160.5,352.4,8.1,-1.3,18.31,25.42,713.0324,139.9943],
    [13034,1525551199,57.3232,-111.7909,470.7,159.7,351.5,9.0,-2.9,18.02,26.09,713.0916,140.004],
    [13035,1525551200,57.3237,-111.7909,469.5,159.6,352.8,7.8,-2.7,18.48,26.01,713.0724,140.0025],
    [13036,1525551201,57.3243,-111.7909,468.7,158.7,352.6,8.3,-2.7,18.04,26.06,712.9719,139.9979],
    [13037,1525551202,57.3248,-111.7909,467.9,157.9,352.9,8.0,-2.7,18.31,25.92,712.8534,140.0024],
    [13038,1525551203,57.3254,-111.7909,467.0,157.0,353.2,7.8,-3.1,18.05,26.71,712.8207,140.002],
    [13039,1525551204,57.3259,-111.7909,466.6,156.6,352.5,8.6,-2.5,18.07,26.38,712.9252,140.0017],
    [13040,1525551205,57.3265,-111.7909,466.8,156.8,352.0,8.9,-2.0,18.06,25.68,712.9452,140.0004],
    [13041,1525551206,57.327,-111.7909,467.8,157.8,351.3,9.3,-1.4,18.04,25.71,712.8954,140.0002],
    [13042,1525551207,57.3276,-111.7909,469.1,159.1,350.4,9.9,-0.4,18.19,25.81,712.8962,139.9998],
    [13043,1525551208,57.3281,-111.7909,469.7,159.7,351.0,9.5,0.2,18.06,26.16,712.6148,140.0011],
    [13044,1525551209,57.3286,-111.7909,469.3,159.3,351.9,9.2,-0.6,18.07,26.07,712.436,140.0013],
    [13045,1525551210,57.3292,-111.7909,468.8,158.8,351.6,9.6,-0.7,17.58,25.84,712.2842,140.002],
    [13046,1525551211,57.3297,-111.7909,468.7,158.7,350.1,10.7,-1.0,17.89,25.92,712.0001,139.998],
    [13047,1525551212,57.3302,-111.7909,469.2,159.2,349.3,11.3,-2.2,18.11,26.39,712.0185,139.999],
    [13048,1525551213,57.3308,-111.7909,471.4,161.4,349.1,11.3,-2.0,18.14,26.6,712.0137,139.9984],
    [13049,1525551214,57.3313,-111.7909,473.7,164.7,350.6,10.0,-2.6,18.7,25.64,711.9709,140.0012],
    [13050,1525551215,57.3319,-111.7909,475.5,168.2,351.4,9.8,-1.4,17.68,25.95,711.9708,139.9988],
    [13051,1525551216,57.3324,-111.7909,477.3,172.7,351.7,10.1,-2.1,18.59,25.77,711.9768,140.0007],
    [13052,1525551217,57.3329,-111.7909,478.6,174.6,352.6,9.3,-2.2,18.11,25.93,711.9309,140.0041],
    [13053,1525551218,57.3335,-111.7908,479.1,173.4,352.6,9.0,-1.9,18.2,26.63,711.8075,139.9956],
    [13054,1525551219,57.3339,-111.7908,479.4,172.1,351.3,9.6,-1.1,18.61,25.77,711.8087,139.9916],
    [13055,1525551220,57.3345,-111.7908,479.8,170.8,351.3,9.0,-1.6,17.62,26.21,711.7322,139.9997],
    [13056,1525551221,57.335,-111.7908,479.9,170.9,351.9,7.9,-0.6,17.99,26.39,711.761,140.009],
    [13057,1525551222,57.3356,-111.7909,479.9,170.9,349.4,9.4,0.5,18.42,25.43,711.6938,139.9947],
    [13058,1525551223,57.3361,-111.7909,480.7,171.7,346.8,10.8,0.1,17.61,26.51,711.3887,140.0057],
    [13059,1525551224,57.3366,-111.7909,481.8,172.8,348.3,8.7,-1.2,17.99,26.56,711.3454,139.9997],
    [13060,1525551225,57.3371,-111.791,482.3,173.3,349.9,7.3,-1.8,18.05,26.71,711.3828,139.9904],
    [13061,1525551226,57.3377,-111.7911,482.4,174.4,347.9,9.3,-2.2,17.63,26.47,711.3206,139.9912],
    [13062,1525551227,57.3382,-111.7911,483.1,175.1,347.5,9.3,-2.4,17.73,26.74,711.3977,139.997],
    [13063,1525551228,57.3387,-111.7912,485.3,177.3,347.5,9.0,-1.3,18.54,26.43,711.3055,140.0054],
    [13064,1525551229,57.3392,-111.7913,487.0,178.4,346.2,9.4,-0.8,17.55,27.0,711.0258,139.9981],
    [13065,1525551230,57.3398,-111.7914,487.3,178.3,347.4,8.5,-1.3,17.91,27.39,710.8319,139.9957],
    [13066,1525551231,57.3403,-111.7914,487.1,178.1,346.9,9.2,-2.4,17.99,26.65,710.7461,140.0002],
    [13067,1525551232,57.3408,-111.7915,487.0,178.3,347.9,8.3,-3.1,18.27,26.93,710.7314,139.9971],
    [13068,1525551233,57.3413,-111.7916,487.4,179.4,346.7,9.2,-2.8,18.18,27.06,710.8256,139.995],
    [13069,1525551234,57.3419,-111.7917,489.4,182.3,345.7,9.4,-2.6,18.2,26.97,710.8665,139.9998],
    [13070,1525551235,57.3424,-111.7918,491.9,186.2,345.8,8.5,-2.4,18.54,26.53,710.8968,139.9996],
    [13071,1525551236,57.3429,-111.7919,493.6,189.6,345.5,8.4,-1.2,17.85,26.59,710.9416,139.9982],
    [13072,1525551237,57.3434,-111.792,494.0,191.7,344.1,9.7,-1.8,18.13,27.22,710.9634,140.0054],
    [13073,1525551238,57.344,-111.7922,493.4,191.7,345.4,8.6,-1.9,17.92,26.71,710.8547,140.0007],
    [13074,1525551239,57.3445,-111.7923,492.6,191.6,346.2,8.9,-2.9,18.0,27.05,710.7292,139.999],
    [13075,1525551240,57.345,-111.7924,492.2,191.2,345.6,10.0,-2.8,17.94,26.8,710.5463,139.9997],
    [13076,1525551241,57.3455,-111.7925,491.9,190.8,346.0,10.1,-2.7,17.44,26.63,710.4403,139.9986],
    [13077,1525551242,57.3461,-111.7926,491.7,190.8,345.4,10.6,-2.4,17.69,26.2,710.4169,140.0017],
    [13078,1525551243,57.3466,-111.7927,492.8,191.0,345.7,9.8,-2.3,17.72,26.24,710.381,139.9999],
    [13079,1525551244,57.3471,-111.7928,494.1,192.4,345.8,9.3,-1.9,18.07,26.69,710.3913,139.9971],
    [13080,1525551245,57.3477,-111.7929,495.7,193.7,345.0,9.6,-1.5,18.56,25.75,710.4194,140.0011],
    [13081,1525551246,57.3482,-111.793,497.1,196.2,344.2,9.0,-1.0,18.81,25.51,710.3815,140.0073],
    [13082,1525551247,57.3487,-111.7931,498.3,197.2,342.5,8.7,-1.5,18.68,25.46,710.311,139.996],
    [13083,1525551248,57.3492,-111.7933,498.9,198.8,338.9,8.9,-0.7,18.69,25.48,710.2443,139.9994],
    [13084,1525551249,57.3497,-111.7935,498.9,198.2,335.1,9.9,-2.2,18.84,25.43,710.2559,140.0033],
    [13085,1525551250,57.3502,-111.7939,498.7,197.7,331.9,8.8,-2.1,17.77,25.94,710.1321,140.0036],
    [13086,1525551251,57.3506,-111.7942,498.9,197.9,327.8,8.6,-2.6,18.04,26.0,710.039,140.0009],
    [13087,1525551252,57.3511,-111.7947,499.1,198.1,323.5,9.5,-2.5,17.69,26.31,709.8623,140.0022],
    [13088,1525551253,57.3515,-111.7952,499.6,197.5,318.2,10.8,-2.1,17.64,25.97,709.7213,140.0045],
    [13089,1525551254,57.3519,-111.7957,500.3,198.3,314.8,10.6,-1.7,17.59,26.08,709.6308,139.9946],
    [13090,1525551255,57.3522,-111.7963,501.2,198.2,311.5,10.3,-0.9,18.37,25.38,709.6525,140.0014],
    [13091,1525551256,57.3526,-111.7969,502.7,199.7,308.4,10.8,-1.3,17.63,26.02,709.5166,139.9982],
    [13092,1525551257,57.3529,-111.7975,504.2,201.2,305.8,11.0,-1.0,17.8,26.16,709.7391,140.0001],
    [13093,1525551258,57.3532,-111.7982,505.6,201.5,303.0,10.9,-0.2,17.64,26.15,709.7913,140.003],
    [13094,1525551259,57.3535,-111.7989,506.8,202.8,300.9,11.0,-0.9,18.07,26.28,709.9444,140.0019],
    [13095,1525551260,57.3538,-111.7996,507.7,203.7,300.3,9.7,-1.4,18.43,25.11,710.0225,140.0019],
    [13096,1525551261,57.3541,-111.8004,508.1,204.1,297.5,11.1,-1.2,18.41,26.19,710.1551,139.9977],
    [13097,1525551262,57.3543,-111.8011,507.3,203.4,295.9,10.6,-1.1,18.14,26.17,710.2683,139.9996],
    [13098,1525551263,57.3545,-111.8019,506.0,201.0,293.5,10.0,-0.1,18.02,26.09,710.2598,140.002],
    [13099,1525551264,57.3547,-111.8027,504.5,198.5,291.7,10.1,-0.1,17.98,25.88,710.2425,139.9983],
    [13100,1525551265,57.3549,-111.8034,502.9,195.9,291.1,9.2,-0.3,17.86,26.01,710.2088,139.9996],
    [13101,1525551266,57.3551,-111.8043,501.2,194.9,289.5,10.0,-0.4,17.71,25.98,710.268,140.0],
    [13102,1525551267,57.3553,-111.8051,499.9,193.9,288.7,9.8,-0.7,17.69,25.99,710.3209,140.0037],
    [13103,1525551268,57.3555,-111.8059,499.7,193.7,287.6,10.6,-1.2,18.02,26.42,710.4372,139.9991],
    [13104,1525551269,57.3556,-111.8067,499.9,193.9,286.9,10.3,-1.5,18.05,25.94,710.4893,140.0012],
    [13105,1525551270,57.3558,-111.8076,500.0,193.8,285.3,10.7,-0.8,18.01,25.86,710.476,139.9978],
    [13106,1525551271,57.3559,-111.8085,499.8,191.2,283.9,10.6,0.0,18.04,26.57,710.5342,140.0096],
    [13107,1525551272,57.3561,-111.8093,499.2,188.3,283.1,11.3,0.3,17.73,26.09,710.5841,139.9971],
    [13108,1525551273,57.3562,-111.8102,498.1,185.1,282.4,11.2,0.7,17.98,26.34,710.6104,140.0056],
    [13109,1525551274,57.3563,-111.811,496.8,182.8,282.9,11.5,-0.2,18.03,26.44,710.394,139.9981],
    [13110,1525551275,57.3564,-111.8118,496.2,180.9,283.1,10.7,-0.3,17.9,26.44,710.2976,140.0032],
    [13111,1525551276,57.3566,-111.8127,495.2,179.2,281.8,11.5,0.0,17.98,26.14,710.1086,139.9946],
    [13112,1525551277,57.3567,-111.8136,495.3,177.8,281.7,11.1,-1.1,18.44,26.07,710.0817,140.0003],
    [13113,1525551278,57.3568,-111.8144,495.6,177.5,281.0,10.6,-0.9,18.48,26.21,710.0594,139.9958],
    [13114,1525551279,57.3569,-111.8153,496.8,178.8,278.4,11.3,0.7,17.71,26.7,710.1151,140.0012],
    [13115,1525551280,57.357,-111.8162,498.5,179.5,279.4,11.7,-1.1,17.85,26.81,710.113,140.0006],
    [13116,1525551281,57.357,-111.817,500.1,181.1,279.5,12.5,-2.3,18.1,26.69,710.2011,139.9991],
    [13117,1525551282,57.3571,-111.8179,501.1,182.1,278.2,10.9,-2.1,18.13,26.42,710.0293,140.0004],
    [13118,1525551283,57.3572,-111.8188,501.7,181.7,276.0,10.8,-1.5,18.67,26.22,709.8343,139.9985],
    [13119,1525551284,57.3572,-111.8196,501.5,181.5,274.5,10.8,-1.4,17.72,27.02,709.7007,139.997],
    [13120,1525551285,57.3572,-111.8206,500.9,180.8,272.1,10.3,-0.2,18.05,27.11,709.6774,140.0007],
    [13121,1525551286,57.3572,-111.8214,500.4,181.0,271.2,11.1,-0.3,18.29,26.25,709.5975,139.9968],
    [13122,1525551287,57.3573,-111.8223,500.5,182.3,271.1,11.7,-0.9,18.4,26.05,709.557,140.0004],
    [13123,1525551288,57.3573,-111.8232,502.9,185.1,269.8,11.5,-0.4,18.71,26.01,709.4061,140.0066],
    [13124,1525551289,57.3572,-111.8241,505.2,187.8,270.5,11.7,-1.4,18.09,26.37,709.2589,140.0015],
    [13125,1525551290,57.3572,-111.825,506.5,189.2,270.2,11.4,-1.0,18.26,25.89,709.0494,140.003],
    [13126,1525551291,57.3572,-111.8258,507.3,188.9,270.2,11.6,-1.1,18.12,25.86,708.7918,139.9997],
    [13127,1525551292,57.3572,-111.8267,507.8,188.0,272.0,11.2,-2.5,18.56,25.79,708.6087,140.001],
    [13128,1525551293,57.3572,-111.8276,508.7,188.4,271.6,11.3,-1.5,18.12,25.98,708.4194,139.9961],
    [13129,1525551294,57.3572,-111.8284,510.6,189.6,271.2,11.2,-1.2,17.64,26.36,708.4058,139.9974],
    [13130,1525551295,57.3572,-111.8293,513.5,192.2,271.5,10.7,-1.4,18.04,26.35,708.4486,139.9946],
    [13131,1525551296,57.3572,-111.8301,516.4,195.4,270.7,11.4,-0.7,18.09,25.88,708.4868,139.9978],
    [13132,1525551297,57.3572,-111.831,518.8,197.7,270.8,11.8,-1.1,18.36,25.49,708.7029,140.0026],
    [13133,1525551298,57.3572,-111.8319,520.8,200.5,271.0,11.3,-1.3,18.52,25.55,708.7214,139.9947],
    [13134,1525551299,57.3572,-111.8327,521.7,201.8,271.1,11.3,-1.5,18.42,25.63,708.658,140.0019],
    [13135,1525551300,57.3572,-111.8336,521.5,201.5,270.9,10.9,-1.4,18.4,25.82,708.98,139.9978],
    [13136,1525551301,57.3572,-111.8344,520.5,200.5,270.2,11.5,-0.8,17.84,26.27,708.9861,139.9972],
    [13137,1525551302,57.3572,-111.8353,519.1,199.1,270.0,11.6,-1.1,17.6,26.59,709.0191,140.001],
    [13138,1525551303,57.3572,-111.8362,518.3,197.3,269.7,11.8,-1.4,17.8,26.15,709.1611,139.9973],
    [13139,1525551304,57.3572,-111.8371,517.7,196.7,268.3,12.0,-0.5,17.98,26.17,709.4459,140.0051],
    [13140,1525551305,57.3572,-111.838,516.0,194.0,268.3,12.4,-1.3,18.04,26.48,709.6232,139.9994],
    [13141,1525551306,57.3571,-111.8388,514.9,193.9,268.2,12.1,-1.4,17.82,26.78,709.7573,139.9967],
    [13142,1525551307,57.3571,-111.8397,514.3,192.3,267.5,12.2,-1.0,18.41,25.82,709.7718,139.9961],
    [13143,1525551308,57.3571,-111.8406,512.5,190.5,267.8,11.6,-1.6,17.95,26.27,709.6632,140.0041],
    [13144,1525551309,57.357,-111.8415,509.7,186.7,267.4,11.7,-1.3,18.0,26.46,709.6073,140.0061],
    [13145,1525551310,57.357,-111.8424,507.3,184.0,268.0,10.9,-2.0,17.82,26.02,709.621,139.9968],
    [13146,1525551311,57.3569,-111.8432,505.9,182.0,268.6,10.7,-2.1,17.79,25.98,709.6153,140.0083],
    [13147,1525551312,57.3569,-111.8441,505.2,180.2,268.6,11.7,-1.7,18.42,25.45,709.5511,140.0005],
    [13148,1525551313,57.3569,-111.8451,505.8,180.8,267.6,11.7,-1.1,17.37,25.91,709.6078,140.0049],
    [13149,1525551314,57.3568,-111.846,506.8,181.7,267.8,11.2,-2.3,17.86,26.38,709.4991,140.0026],
    [13150,1525551315,57.3568,-111.8469,507.2,181.3,267.7,10.5,-3.0,17.46,25.96,709.426,140.0043],
    [13151,1525551316,57.3567,-111.8478,507.5,180.5,266.6,9.3,-3.0,17.91,26.02,709.048,140.0051],
    [13152,1525551317,57.3567,-111.8486,507.9,179.9,266.4,9.3,-4.1,17.87,26.05,708.831,139.9945],
    [13153,1525551318,57.3566,-111.8494,508.1,179.1,264.9,9.4,-4.2,17.35,26.03,708.617,139.9997],
    [13154,1525551319,57.3565,-111.8504,508.4,178.4,260.6,10.0,-2.9,17.97,25.82,708.3226,139.9982],
    [13155,1525551320,57.3564,-111.8512,509.8,178.8,256.9,9.8,-2.7,18.03,26.63,708.1933,139.9988],
    [13156,1525551321,57.3562,-111.852,512.2,182.2,253.8,9.7,-2.9,18.06,25.74,708.1633,140.0],
    [13157,1525551322,57.356,-111.8529,516.2,185.9,249.5,10.9,-1.9,17.97,26.7,708.0686,139.9994],
    [13158,1525551323,57.3558,-111.8537,519.4,188.7,246.5,10.6,-1.8,18.07,25.71,708.109,139.9994],
    [13159,1525551324,57.3555,-111.8545,522.1,190.1,243.1,10.7,-1.5,18.52,25.8,708.0647,139.9986],
    [13160,1525551325,57.3552,-111.8552,523.9,191.9,241.3,11.1,-2.7,17.39,26.17,708.0054,139.9985],
    [13161,1525551326,57.3549,-111.8559,524.9,191.9,239.3,11.6,-2.9,18.47,25.66,707.9466,140.0002],
    [13162,1525551327,57.3546,-111.8566,525.5,192.5,235.9,11.2,-2.2,18.05,26.45,708.0212,139.9963],
    [13163,1525551328,57.3542,-111.8573,525.6,192.3,233.9,11.7,-2.0,18.14,25.71,708.1087,139.9976],
    [13164,1525551329,57.3539,-111.8579,526.2,192.2,231.9,11.1,-2.7,18.2,25.37,708.2034,140.0016],
    [13165,1525551330,57.3535,-111.8586,526.9,192.9,228.3,10.0,-2.3,18.11,25.64,708.4009,140.0033],
    [13166,1525551331,57.3531,-111.8591,527.2,193.3,225.6,9.6,-2.3,17.94,26.4,708.5552,140.0039],
    [13167,1525551332,57.3527,-111.8597,526.4,191.4,224.1,10.5,-2.6,17.92,26.95,708.5336,140.0013],
    [13168,1525551333,57.3523,-111.8602,525.3,190.3,222.5,10.6,-3.2,18.02,26.51,708.524,139.9975],
    [13169,1525551334,57.3518,-111.8607,524.1,189.1,219.4,10.3,-2.0,17.87,26.42,708.4535,139.9975],
    [13170,1525551335,57.3513,-111.8612,522.3,187.3,217.7,10.8,-2.5,17.7,26.47,708.3512,140.0017],
    [13171,1525551336,57.3509,-111.8617,520.6,185.8,214.6,10.5,-3.1,18.03,26.72,708.4833,139.992],
    [13172,1525551337,57.3503,-111.8621,519.9,185.9,210.7,10.3,-2.8,17.85,26.31,708.5414,140.0029],
    [13173,1525551338,57.3499,-111.8624,519.9,186.8,207.3,10.6,-2.4,17.97,26.49,708.6843,139.9923],
    [13174,1525551339,57.3493,-111.8627,520.8,187.8,204.5,10.5,-3.6,18.01,25.96,708.8564,139.9975],
    [13175,1525551340,57.3487,-111.8629,521.4,188.4,200.1,9.5,-2.8,17.96,26.74,708.9306,140.0012],
    [13176,1525551341,57.3481,-111.8631,520.9,187.2,198.0,10.0,-2.3,17.38,26.18,709.0773,140.004],
    [13177,1525551342,57.3476,-111.8632,519.3,185.4,194.2,8.1,-2.0,18.3,26.0,709.2221,139.9992],
    [13178,1525551343,57.347,-111.8633,517.9,182.9,191.3,6.8,-0.9,17.5,26.14,709.2144,140.0054],
    [13179,1525551344,57.3464,-111.8634,516.0,181.0,191.4,8.1,-0.8,18.09,25.77,709.1708,139.9999],
    [13180,1525551345,57.3458,-111.8635,514.3,179.3,191.9,9.4,-1.5,17.97,26.39,708.9172,140.0004],
    [13181,1525551346,57.3452,-111.8636,513.1,178.1,191.4,9.2,-3.0,17.79,26.43,708.8452,139.9972],
    [13182,1525551347,57.3446,-111.8636,511.7,176.7,190.6,9.2,-2.1,18.5,25.83,708.7978,140.0014],
    [13183,1525551348,57.344,-111.8637,511.3,176.3,189.8,8.6,-2.3,18.02,26.35,708.7812,140.0009],
    [13184,1525551349,57.3434,-111.8637,512.4,178.3,188.7,7.9,-2.0,17.67,26.45,708.9022,140.0034],
    [13185,1525551350,57.3428,-111.8637,514.3,181.3,189.1,8.7,-2.2,17.71,26.07,709.0001,139.9998],
    [13186,1525551351,57.3422,-111.8638,515.6,183.6,190.0,9.6,-2.4,18.23,25.6,709.0569,140.0017],
    [13187,1525551352,57.3417,-111.8638,516.2,185.1,189.7,9.2,-2.3,17.75,25.78,708.9126,140.0028],
    [13188,1525551353,57.341,-111.8638,516.2,186.2,189.9,9.4,-2.6,17.81,25.98,708.7573,140.0],
    [13189,1525551354,57.3404,-111.8639,515.5,186.5,189.6,8.9,-2.2,17.93,25.91,708.6315,140.0047],
    [13190,1525551355,57.3398,-111.8639,514.3,185.3,189.3,8.8,-2.4,18.01,26.37,708.5768,139.9982],
    [13191,1525551356,57.3393,-111.8639,513.7,184.4,190.1,9.7,-2.9,17.84,26.11,708.5622,139.9938],
    [13192,1525551357,57.3386,-111.8639,514.8,184.8,189.2,9.1,-3.5,17.69,25.98,708.56,139.9999],
    [13193,1525551358,57.338,-111.864,516.8,185.8,187.6,8.1,-3.0,17.62,26.12,708.6,139.998],
    [13194,1525551359,57.3374,-111.864,518.3,187.3,186.6,7.5,-2.6,17.92,26.23,708.4914,140.0043],
    [13195,1525551360,57.3368,-111.864,519.1,187.1,186.7,8.0,-2.9,17.77,26.93,708.4075,139.999],
    [13196,1525551361,57.3362,-111.8639,519.5,187.5,186.4,7.7,-2.4,18.18,26.46,708.2568,139.9957],
    [13197,1525551362,57.3356,-111.8639,519.5,187.6,184.9,6.3,-2.4,17.69,26.59,708.0396,139.9977],
    [13198,1525551363,57.335,-111.8639,519.5,186.5,185.7,7.3,-2.1,18.33,25.89,708.1121,139.9884],
    [13199,1525551364,57.3344,-111.8639,520.0,187.0,186.6,7.4,-3.2,18.04,26.48,708.2728,139.9973],
    [13200,1525551365,57.3338,-111.8639,521.2,188.2,186.4,7.2,-1.8,18.09,26.08,708.4931,140.0018],
    [13201,1525551366,57.3332,-111.8639,523.0,190.0,188.3,8.2,-2.1,17.91,26.56,708.5831,140.003],
    [13202,1525551367,57.3326,-111.8639,524.4,191.4,188.6,8.4,-0.5,18.2,26.05,708.7747,140.0082],
    [13203,1525551368,57.332,-111.864,524.3,191.3,192.1,11.9,-1.1,17.92,27.12,708.9364,140.0026],
    [13204,1525551369,57.3314,-111.864,522.5,189.9,194.3,13.4,-2.0,18.1,26.32,709.2818,140.0038],
    [13205,1525551370,57.3308,-111.8641,520.3,187.5,193.7,12.4,-0.9,18.46,26.41,709.4325,140.0016],
    [13206,1525551371,57.3303,-111.8641,518.4,185.4,194.3,12.7,-1.5,18.42,26.02,709.4839,139.9901],
    [13207,1525551372,57.3296,-111.8642,516.7,183.7,194.4,12.5,-2.5,17.73,26.35,709.4234,139.9999],
    [13208,1525551373,57.329,-111.8643,514.6,181.6,193.4,11.8,-2.7,17.92,26.82,709.246,140.003],
    [13209,1525551374,57.3284,-111.8643,512.1,179.1,192.6,11.3,-2.9,17.93,26.85,709.1635,140.002],
    [13210,1525551375,57.3278,-111.8644,509.6,176.6,191.6,10.8,-2.8,17.87,26.94,708.7984,139.9929],
    [13211,1525551376,57.3272,-111.8644,508.1,174.4,191.5,11.4,-2.3,17.71,25.8,708.6877,140.0],
    [13212,1525551377,57.3266,-111.8644,508.1,174.1,190.5,10.4,-2.5,18.0,26.51,708.4048,139.9941],
    [13213,1525551378,57.326,-111.8645,509.5,175.5,189.5,9.3,-1.9,17.86,26.38,708.3217,139.9915],
    [13214,1525551379,57.3254,-111.8645,511.7,177.7,189.5,9.5,-2.4,17.93,26.3,708.2416,139.9937],
    [13215,1525551380,57.3248,-111.8645,513.9,179.9,188.7,8.7,-0.4,17.73,25.95,708.2691,140.0029],
    [13216,1525551381,57.3241,-111.8646,516.5,183.5,186.1,6.4,1.2,17.73,26.47,708.4421,139.9941],
    [13217,1525551382,57.3235,-111.8646,519.3,187.3,185.7,6.2,1.2,17.54,26.46,708.4122,140.0165],
    [13218,1525551383,57.3229,-111.8646,520.9,189.9,186.2,7.0,2.9,17.58,26.24,708.3906,140.0059],
    [13219,1525551384,57.3223,-111.8646,521.2,191.2,187.4,7.8,3.2,17.89,26.33,708.1759,139.9991],
    [13220,1525551385,57.3217,-111.8646,521.2,190.1,187.7,8.5,3.7,18.51,25.82,708.2879,139.9934],
    [13221,1525551386,57.3211,-111.8646,520.3,188.3,190.4,11.4,2.9,18.0,26.25,708.349,140.0001],
    [13222,1525551387,57.3205,-111.8647,519.4,186.4,189.8,10.6,2.9,17.75,26.09,708.5161,139.9987],
    [13223,1525551388,57.3199,-111.8647,520.4,186.4,187.6,7.9,1.9,17.92,25.9,708.58,139.9957],
    [13224,1525551389,57.3194,-111.8647,522.7,188.7,187.7,8.6,1.7,18.3,26.2,708.6353,139.9921],
    [13225,1525551390,57.3187,-111.8647,522.7,189.7,191.2,12.1,0.2,17.86,26.58,708.6721,139.9982],
    [13226,1525551391,57.3182,-111.8647,521.7,188.4,190.9,11.7,0.1,17.69,25.75,708.7343,140.0029],
    [13227,1525551392,57.3177,-111.8647,520.3,187.0,190.4,11.2,-0.2,18.19,25.47,708.7854,139.9962],
    [13228,1525551393,57.317,-111.8648,518.8,184.8,190.5,11.2,-0.4,17.94,25.54,709.0128,140.0043],
    [13229,1525551394,57.3164,-111.8648,518.3,184.3,190.2,11.4,-0.2,17.56,25.52,709.0479,140.0079],
    [13230,1525551395,57.3157,-111.8648,517.9,183.9,190.5,11.7,-0.4,17.87,25.56,709.1672,140.0011],
    [13231,1525551396,57.3152,-111.8648,517.5,183.4,189.9,11.2,-0.7,18.44,25.28,709.2844,139.9996],
    [13232,1525551397,57.3145,-111.8648,516.7,181.7,189.9,11.4,-0.6,17.9,25.56,709.4113,140.0005],
    [13233,1525551398,57.314,-111.8648,515.4,180.4,189.2,11.0,-1.0,18.01,25.59,709.5004,140.0046],
    [13234,1525551399,57.3134,-111.8648,513.6,178.6,188.4,10.5,-1.4,17.54,25.32,709.5836,140.0002],
    [13235,1525551400,57.3128,-111.8648,512.6,177.6,188.8,11.0,-2.5,18.01,25.38,709.6775,139.9992],
    [13236,1525551401,57.3122,-111.8647,511.6,176.6,189.0,11.3,-1.9,18.72,24.86,710.1159,140.0006],
    [13237,1525551402,57.3116,-111.8647,510.4,175.4,189.1,11.3,-2.2,17.59,25.24,710.3215,139.9984],
    [13238,1525551403,57.3111,-111.8647,509.6,174.6,189.2,11.1,-3.2,17.88,25.56,710.6449,140.0025],
    [13239,1525551404,57.3105,-111.8647,508.6,173.6,189.0,11.0,-3.4,18.0,25.31,710.8969,140.0063],
    [13240,1525551405,57.3099,-111.8646,506.3,171.3,190.2,12.7,-3.4,18.22,25.32,711.008,140.0062],
    [13241,1525551406,57.3093,-111.8646,503.3,169.4,190.3,13.5,-4.6,18.01,25.54,710.9314,140.0031],
    [13242,1525551407,57.3087,-111.8645,499.4,165.4,187.6,13.2,-5.0,17.95,25.55,710.9081,140.002],
    [13243,1525551408,57.3081,-111.8644,496.2,162.5,181.7,10.1,-3.2,18.51,24.65,710.9208,140.0047],
    [13244,1525551409,57.3075,-111.8643,493.1,159.7,176.4,9.0,-1.5,18.22,25.5,710.9842,139.9971],
    [13245,1525551410,57.3069,-111.864,491.7,158.7,172.9,10.3,-2.9,18.1,25.97,711.0282,140.0002],
    [13246,1525551411,57.3064,-111.8637,491.9,158.9,168.0,9.9,-4.1,18.01,25.6,711.0809,139.9906],
    [13247,1525551412,57.3059,-111.8634,492.4,159.4,162.8,8.6,-3.9,17.8,25.4,711.3872,139.9955],
    [13248,1525551413,57.3053,-111.8628,492.9,160.9,157.5,9.1,-3.8,18.08,25.37,711.6094,139.9946],
    [13249,1525551414,57.3047,-111.8622,492.6,161.6,151.0,8.7,-4.2,17.98,26.12,711.7664,139.9952],
    [13250,1525551415,57.3042,-111.8615,492.2,161.2,145.1,8.8,-4.7,18.12,26.03,712.0086,139.9998],
    [13251,1525551416,57.3038,-111.8607,491.4,161.4,139.3,8.7,-5.1,18.52,25.36,712.0833,139.9911],
    [13252,1525551417,57.3033,-111.8599,489.7,159.4,133.2,8.0,-5.1,18.07,26.14,712.1998,139.9889],
    [13253,1525551418,57.303,-111.8591,486.8,155.8,127.7,7.4,-4.7,18.32,25.37,712.6161,139.9915],
    [13254,1525551419,57.3026,-111.8581,483.6,152.6,121.5,6.3,-4.1,18.02,25.92,712.7232,139.9946],
    [13255,1525551420,57.3023,-111.8572,481.1,150.1,115.9,5.8,-4.2,17.73,25.59,712.9566,140.0028],
    [13256,1525551421,57.3021,-111.8562,479.0,148.0,111.0,5.8,-3.5,17.96,25.83,713.3939,139.9973],
    [13257,1525551422,57.3019,-111.8551,476.6,146.6,106.0,5.1,-3.5,17.83,25.79,713.5053,139.9993],
    [13258,1525551423,57.3017,-111.8539,473.0,144.0,100.2,3.7,-3.5,17.8,26.03,713.6879,140.0007],
    [13259,1525551424,57.3016,-111.8528,469.9,140.9,94.9,3.6,-3.7,18.04,26.08,713.7838,139.9918],
    [13260,1525551425,57.3015,-111.8517,467.1,140.1,90.7,4.2,-3.1,18.16,26.81,714.0037,140.0102],
    [13261,1525551426,57.3015,-111.8505,464.3,138.3,86.2,5.0,-4.2,17.84,26.42,714.0683,140.0126],
    [13262,1525551427,57.3015,-111.8495,461.1,135.1,83.5,5.4,-3.6,17.75,26.44,714.1229,140.0062],
    [13263,1525551428,57.3016,-111.8483,458.6,133.6,80.6,5.6,-4.1,18.02,26.59,714.0982,140.0],
    [13264,1525551429,57.3017,-111.8471,456.7,131.7,78.8,4.4,-4.4,17.91,26.45,714.1668,139.9979],
    [13265,1525551430,57.3017,-111.846,455.0,131.0,77.3,5.5,-5.4,18.17,26.38,714.1933,140.0042],
    [13266,1525551431,57.3018,-111.8449,454.0,130.0,76.4,5.2,-6.0,17.98,26.53,714.2248,140.0038],
    [13267,1525551432,57.3019,-111.8438,453.5,130.5,77.8,5.2,-4.6,18.04,26.5,714.207,140.0038],
    [13268,1525551433,57.302,-111.8426,453.6,130.6,77.0,4.9,-5.3,18.65,25.79,713.9818,139.997],
    [13269,1525551434,57.3021,-111.8415,453.4,131.4,78.0,5.1,-4.2,18.36,26.85,713.8064,139.9999],
    [13270,1525551435,57.3021,-111.8403,452.7,130.7,78.2,5.3,-4.5,18.35,26.13,713.7872,139.9907],
    [13271,1525551436,57.3022,-111.8393,451.9,130.9,78.4,4.7,-5.3,18.14,26.91,713.8634,139.9978],
    [13272,1525551437,57.3023,-111.8382,452.1,131.1,80.8,4.0,-4.6,18.16,26.66,713.7952,139.9935],
    [13273,1525551438,57.3023,-111.837,454.0,133.0,84.1,4.5,-3.4,18.25,26.13,713.8353,140.0018],
    [13274,1525551439,57.3023,-111.8358,456.8,134.8,85.6,5.4,-3.4,18.68,25.67,713.9975,140.0073],
    [13275,1525551440,57.3023,-111.8347,457.5,136.5,85.9,5.6,-4.0,18.07,26.23,713.9666,140.0018],
    [13276,1525551441,57.3023,-111.8335,456.9,136.9,87.5,4.7,-3.7,18.24,26.16,713.9416,139.9921],
    [13277,1525551442,57.3023,-111.8324,457.0,137.0,87.9,4.1,-4.4,18.91,25.69,713.9248,139.9948],
    [13278,1525551443,57.3023,-111.8313,456.8,136.8,88.7,4.6,-4.4,18.57,25.98,714.037,139.9976],
    [13279,1525551444,57.3023,-111.8301,455.8,135.8,89.3,3.4,-4.4,18.24,26.77,714.1436,140.0012],
    [13280,1525551445,57.3022,-111.829,454.9,134.9,89.6,3.9,-4.7,18.1,26.17,714.4074,139.9996],
    [13281,1525551446,57.3022,-111.8279,455.1,135.1,89.3,4.5,-5.2,18.34,26.05,714.5213,140.0046],
    [13282,1525551447,57.3022,-111.8267,455.0,135.0,89.1,4.3,-5.3,18.3,26.46,714.561,140.0067],
    [13283,1525551448,57.3021,-111.8256,454.5,134.5,87.4,4.3,-6.3,18.66,26.32,714.5211,139.9957],
    [13284,1525551449,57.3021,-111.8244,453.0,133.0,88.0,4.2,-5.1,18.71,25.47,714.3265,140.0023],
    [13285,1525551450,57.3021,-111.8232,451.1,131.1,90.4,5.4,-2.6,18.41,26.33,714.1795,139.9978],
    [13286,1525551451,57.302,-111.8221,449.1,129.1,89.7,5.3,-3.6,18.58,26.4,714.1774,140.0013],
    [13287,1525551452,57.302,-111.821,448.4,129.4,89.5,4.9,-3.7,19.1,25.68,714.0619,139.9996],
    [13288,1525551453,57.302,-111.8198,449.0,131.0,90.4,5.6,-3.2,18.49,26.14,713.9838,140.0018],
    [13289,1525551454,57.302,-111.8187,450.6,132.6,88.4,5.5,-5.7,18.28,26.1,713.7609,139.9985],
    [13290,1525551455,57.3019,-111.8176,452.5,135.5,87.5,5.3,-6.1,18.52,25.99,713.7413,139.9995],
    [13291,1525551456,57.3019,-111.8165,453.3,137.3,88.1,5.6,-5.3,18.15,25.91,713.858,139.9993],
    [13292,1525551457,57.3019,-111.8155,454.1,139.1,87.1,5.2,-6.0,17.81,26.06,714.137,139.9996],
    [13293,1525551458,57.3018,-111.8143,455.0,140.2,87.6,5.5,-4.5,18.28,25.88,714.1774,140.0063],
    [13294,1525551459,57.3018,-111.8131,457.2,143.2,88.4,7.3,-2.3,18.72,25.23,714.2948,140.0042],
    [13295,1525551460,57.3018,-111.812,458.0,144.0,85.9,6.9,-3.5,18.41,26.23,714.2504,139.9987],
    [13296,1525551461,57.3019,-111.8109,456.9,142.9,82.5,8.0,-5.1,18.9,25.61,714.3664,139.9951],
    [13297,1525551462,57.3019,-111.8098,455.0,140.0,79.9,7.4,-6.4,18.37,26.31,714.409,139.9984],
    [13298,1525551463,57.3019,-111.8087,453.4,137.4,77.7,7.4,-7.2,18.19,26.74,714.4193,139.9983],
    [13299,1525551464,57.302,-111.8076,452.5,136.5,77.7,7.8,-6.3,18.51,25.54,714.3793,139.9969],
    [13300,1525551465,57.302,-111.8065,452.2,136.2,77.1,7.7,-5.7,18.23,25.72,714.4045,140.003],
    [13301,1525551466,57.3021,-111.8054,451.9,135.9,76.5,6.4,-4.5,18.45,25.76,714.3654,139.9943],
    [13302,1525551467,57.3022,-111.8042,451.1,136.0,73.1,6.5,-4.8,18.52,25.57,714.2907,139.9997],
    [13303,1525551468,57.3024,-111.8032,450.9,135.9,67.8,7.2,-6.0,18.76,25.83,714.294,139.9971],
    [13304,1525551469,57.3025,-111.8021,451.1,136.1,63.9,7.6,-5.9,18.62,25.76,714.2754,139.993],
    [13305,1525551470,57.3027,-111.8012,451.4,137.4,60.2,8.2,-5.8,18.41,26.57,714.286,139.9937],
    [13306,1525551471,57.303,-111.8001,451.7,137.7,56.7,8.2,-5.5,18.37,26.01,714.1966,139.9868],
    [13307,1525551472,57.3032,-111.7992,452.2,138.2,52.4,8.1,-5.8,18.25,25.76,714.1599,139.9957],
    [13308,1525551473,57.3035,-111.7983,452.5,138.6,47.2,8.7,-5.9,18.23,25.92,714.1385,139.993],
    [13309,1525551474,57.3038,-111.7975,452.2,139.2,42.5,9.3,-5.7,18.36,25.85,714.0915,139.9918],
    [13310,1525551475,57.3042,-111.7967,452.2,139.2,37.0,8.2,-6.8,18.35,26.03,714.1385,139.9988],
    [13311,1525551476,57.3046,-111.796,452.7,139.7,33.1,7.5,-4.3,18.77,25.74,714.1488,139.9961],
    [13312,1525551477,57.3051,-111.7953,453.5,140.5,28.3,8.0,-3.5,18.02,25.86,714.2365,139.9951],
    [13313,1525551478,57.3055,-111.7948,453.3,141.3,22.7,8.3,-4.0,18.72,25.83,714.2324,139.9956],
    [13314,1525551479,57.306,-111.7943,453.4,141.4,18.3,8.2,-5.8,18.49,26.62,714.3268,139.9972],
    [13315,1525551480,57.3064,-111.7939,453.4,142.7,15.3,7.7,-5.2,18.49,26.03,714.3776,140.0034],
    [13316,1525551481,57.307,-111.7935,453.6,143.6,12.8,7.1,-4.9,18.36,26.45,714.4677,139.9992],
    [13317,1525551482,57.3075,-111.7931,452.9,143.2,9.7,7.2,-5.2,18.28,26.22,714.4216,140.0024],
    [13318,1525551483,57.308,-111.7929,452.1,143.1,7.2,7.5,-5.3,18.35,26.84,714.4082,140.0061],
    [13319,1525551484,57.3085,-111.7926,451.3,141.3,4.3,8.4,-5.9,17.8,26.18,714.4654,139.9975],
    [13320,1525551485,57.3091,-111.7924,450.2,139.6,4.2,7.1,-4.6,18.49,26.72,714.464,139.9966],
    [13321,1525551486,57.3096,-111.7922,449.5,138.6,3.3,6.8,-4.2,18.42,26.14,714.3873,139.9998],
    [13322,1525551487,57.3101,-111.7921,449.6,137.6,359.9,8.7,-3.9,18.1,26.1,714.2635,139.9902],
    [13323,1525551488,57.3106,-111.792,449.8,137.8,357.8,9.6,-3.2,18.46,25.84,714.1033,139.9978],
    [13324,1525551489,57.3112,-111.7918,449.2,137.2,356.2,10.1,-3.8,18.41,25.89,714.3601,139.9974],
    [13325,1525551490,57.3117,-111.7918,449.5,137.5,355.7,9.8,-3.8,18.39,26.31,714.4675,139.9999],
    [13326,1525551491,57.3122,-111.7917,450.2,138.2,355.2,9.6,-4.6,18.4,25.81,714.5836,140.0113],
    [13327,1525551492,57.3128,-111.7916,451.7,139.7,354.9,9.0,-4.3,18.75,25.67,714.6935,140.0],
    [13328,1525551493,57.3133,-111.7916,453.1,141.1,353.7,9.6,-4.2,18.31,25.9,714.6493,139.9992],
    [13329,1525551494,57.3138,-111.7915,451.9,139.9,353.3,9.8,-4.1,18.52,26.19,714.5422,140.0005],
    [13330,1525551495,57.3143,-111.7915,450.1,138.1,353.4,9.3,-3.2,18.85,25.47,714.4136,140.0011],
    [13331,1525551496,57.3149,-111.7915,448.6,136.6,353.5,9.2,-2.9,18.35,25.86,714.3979,140.0029],
    [13332,1525551497,57.3154,-111.7914,447.2,135.2,353.5,9.2,-2.8,18.15,25.83,714.2509,140.0002],
    [13333,1525551498,57.316,-111.7914,447.1,135.1,353.7,9.0,-3.1,18.41,25.71,714.1958,140.0021],
    [13334,1525551499,57.3165,-111.7914,448.2,137.2,352.9,9.5,-2.7,18.73,25.09,713.8829,139.9962],
    [13335,1525551500,57.317,-111.7913,449.6,138.6,352.9,9.2,-3.4,18.54,25.37,713.8737,140.0009],
    [13336,1525551501,57.3176,-111.7913,450.4,139.4,353.2,8.6,-2.1,18.06,25.55,713.8782,140.0021],
    [13337,1525551502,57.3181,-111.7913,451.5,140.5,352.7,8.8,-3.2,18.16,25.62,713.8335,139.9898],
    [13338,1525551503,57.3186,-111.7913,452.9,141.9,353.2,7.9,-3.1,18.41,25.66,713.852,139.998],
    [13339,1525551504,57.3192,-111.7913,454.6,143.6,353.7,7.0,-2.4,18.67,25.38,713.7879,139.9988],
    [13340,1525551505,57.3197,-111.7913,455.8,144.8,352.7,8.0,-2.6,17.75,25.71,713.8695,140.0022],
    [13341,1525551506,57.3202,-111.7913,456.0,145.0,351.1,8.9,-1.8,18.21,25.86,713.9172,139.9962],
    [13342,1525551507,57.3208,-111.7913,456.8,145.8,351.8,8.1,-3.1,18.5,25.81,713.8227,140.003],
    [13343,1525551508,57.3213,-111.7913,457.2,146.2,352.8,7.1,-2.5,18.91,25.54,713.7715,139.9969],
    [13344,1525551509,57.3218,-111.7913,457.1,146.1,352.5,7.8,-2.1,18.43,26.5,713.8107,139.999],
    [13345,1525551510,57.3224,-111.7913,456.6,145.6,351.4,8.9,-2.2,18.17,26.24,713.831,139.9963],
    [13346,1525551511,57.3229,-111.7913,456.1,145.1,351.8,8.1,-2.3,18.45,25.69,713.8154,140.0021],
    [13347,1525551512,57.3234,-111.7914,456.1,145.1,352.7,7.3,-2.7,18.54,26.49,713.7607,140.002],
    [13348,1525551513,57.324,-111.7914,457.2,147.2,352.2,8.2,-2.9,18.33,26.27,713.6942,139.9968],
    [13349,1525551514,57.3245,-111.7914,457.2,147.2,351.9,9.1,-3.0,18.45,26.29,713.7396,140.0009],
    [13350,1525551515,57.3251,-111.7914,457.1,147.1,352.5,8.8,-3.2,18.88,25.73,713.768,139.9971],
    [13351,1525551516,57.3256,-111.7914,457.2,147.2,353.9,7.9,-3.6,18.37,25.78,713.8179,140.0031],
    [13352,1525551517,57.3262,-111.7913,457.7,147.7,354.3,8.0,-3.4,18.58,25.64,713.9276,139.9989],
    [13353,1525551518,57.3267,-111.7913,458.2,148.2,353.9,8.6,-3.5,18.47,25.6,713.9932,140.0021],
    [13354,1525551519,57.3273,-111.7913,458.1,148.1,354.3,8.3,-3.7,18.57,25.45,714.0246,140.0011],
    [13355,1525551520,57.3278,-111.7912,457.5,147.5,353.8,8.9,-3.6,18.51,25.41,714.0754,139.9982],
    [13356,1525551521,57.3284,-111.7912,457.0,147.0,354.0,8.3,-3.5,18.53,25.9,714.2337,140.0032],
    [13357,1525551522,57.3289,-111.7912,456.3,146.3,355.2,7.3,-3.4,18.21,25.74,714.2802,139.9995],
    [13358,1525551523,57.3295,-111.7912,455.5,145.5,354.8,8.0,-2.8,18.3,25.5,714.3291,140.0014],
    [13359,1525551524,57.33,-111.7911,454.7,144.7,354.4,8.4,-3.0,19.0,25.09,714.2485,140.0024],
    [13360,1525551525,57.3306,-111.7911,453.9,143.9,354.7,8.0,-4.0,18.31,26.19,714.2251,140.0017],
    [13361,1525551526,57.3311,-111.7911,453.0,144.0,354.0,8.4,-3.7,18.44,25.58,714.3461,139.9944],
    [13362,1525551527,57.3317,-111.791,451.8,144.5,353.9,8.2,-3.5,18.48,25.42,714.6262,139.9978],
    [13363,1525551528,57.3323,-111.791,451.2,146.6,353.9,8.1,-3.3,18.42,25.58,715.0533,139.9979],
    [13364,1525551529,57.3328,-111.791,451.4,147.4,353.7,8.2,-2.9,18.06,25.46,715.2767,140.0025],
    [13365,1525551530,57.3333,-111.791,451.6,147.4,353.4,8.1,-3.3,18.42,25.38,715.641,139.9998],
    [13366,1525551531,57.3339,-111.791,451.4,144.1,353.5,7.4,-2.3,18.82,25.02,715.7699,140.0009],
    [13367,1525551532,57.3344,-111.791,448.6,140.1,352.7,8.0,-2.5,18.19,25.46,715.9757,140.0034],
    [13368,1525551533,57.335,-111.791,444.6,135.6,351.8,8.1,-2.2,18.01,25.72,716.1763,140.0007],
    [13369,1525551534,57.3356,-111.791,440.9,131.9,351.7,7.6,-1.7,18.43,26.05,716.429,139.9999],
    [13370,1525551535,57.3362,-111.7911,437.3,128.3,351.2,7.6,-2.2,18.28,25.64,716.5552,140.0069],
    [13371,1525551536,57.3367,-111.7911,434.3,125.3,351.1,7.3,-1.8,18.54,25.55,716.6815,139.9983],
    [13372,1525551537,57.3373,-111.7911,431.8,123.1,350.7,7.6,-1.3,18.29,25.54,716.6674,140.001],
    [13373,1525551538,57.3379,-111.7912,429.4,121.4,350.6,7.9,-1.7,18.22,25.56,716.4815,140.0016],
    [13374,1525551539,57.3384,-111.7912,427.0,119.0,351.0,7.6,-1.1,18.22,25.42,716.3531,139.9971],
    [13375,1525551540,57.3389,-111.7913,424.9,116.9,351.2,7.6,-0.9,18.44,25.77,716.3687,140.0025],
    [13376,1525551541,57.3396,-111.7913,422.8,113.8,352.3,6.5,0.5,18.33,26.01,716.3327,140.0022],
    [13377,1525551542,57.3402,-111.7914,422.7,113.7,351.9,7.0,0.6,18.38,25.24,716.2669,139.9966],
    [13378,1525551543,57.3408,-111.7914,424.5,115.8,351.9,6.8,0.8,18.41,25.42,716.3173,140.0003],
    [13379,1525551544,57.3412,-111.7914,425.7,117.7,352.1,6.7,0.6,18.15,25.44,716.3523,140.0009],
    [13380,1525551545,57.3418,-111.7915,426.8,119.7,352.0,6.8,0.8,18.53,25.25,716.3934,140.0016],
    [13381,1525551546,57.3424,-111.7915,427.4,121.7,351.0,7.6,1.3,18.36,25.45,716.2866,139.9962],
    [13382,1525551547,57.343,-111.7915,427.6,123.6,350.1,7.9,1.1,18.46,25.81,716.0836,140.0013],
    [13383,1525551548,57.3436,-111.7916,427.6,125.3,350.2,7.3,1.4,18.99,24.96,716.0054,140.0061],
    [13384,1525551549,57.3442,-111.7917,427.1,126.1,349.5,7.4,2.0,18.36,25.46,715.6351,139.9951],
    [13385,1525551550,57.3448,-111.7917,426.7,125.8,348.7,7.8,2.1,18.4,25.26,715.1289,140.0009],
    [13386,1525551551,57.3453,-111.7918,427.1,127.1,348.4,7.8,1.5,18.29,25.88,715.0524,139.9972],
    [13387,1525551552,57.3459,-111.7919,428.2,128.2,349.2,7.2,0.5,19.08,25.08,714.9082,140.0003],
    [13388,1525551553,57.3465,-111.792,430.4,129.4,349.2,7.6,-0.5,18.56,25.78,714.7853,139.9946],
    [13389,1525551554,57.347,-111.7921,433.8,132.8,350.0,6.9,-1.8,18.41,25.37,714.7736,139.9922],
    [13390,1525551555,57.3476,-111.7921,438.5,137.4,350.9,5.6,-2.2,18.44,25.67,714.6864,140.0077],
    [13391,1525551556,57.3482,-111.7922,441.7,141.7,348.0,7.4,-2.5,18.37,25.6,714.7354,140.0057],
    [13392,1525551557,57.3487,-111.7923,443.7,143.7,344.8,8.7,-2.0,18.47,25.65,714.6367,140.0044],
    [13393,1525551558,57.3493,-111.7925,444.7,144.7,342.5,8.6,-1.9,19.0,25.42,714.4857,140.0056],
    [13394,1525551559,57.3498,-111.7927,445.4,145.4,340.1,8.7,-2.7,18.07,25.58,714.1724,139.9959],
    [13395,1525551560,57.3503,-111.793,446.4,146.4,337.0,8.4,-1.1,18.81,25.44,713.8943,139.9876],
    [13396,1525551561,57.3508,-111.7933,446.3,145.2,333.8,8.4,-0.3,18.58,26.03,713.6939,139.9894],
    [13397,1525551562,57.3514,-111.7936,446.9,145.9,328.2,10.1,-0.5,18.43,25.49,713.8528,139.998],
    [13398,1525551563,57.3518,-111.794,448.6,147.7,324.8,8.8,-0.1,18.58,26.04,714.119,140.0003],
    [13399,1525551564,57.3523,-111.7945,451.7,149.7,321.5,8.7,-1.5,19.1,25.31,714.4195,140.003],
    [13400,1525551565,57.3527,-111.7951,454.6,151.6,317.6,7.7,-0.8,19.2,25.26,714.4225,140.01],
    [13401,1525551566,57.3531,-111.7957,456.7,152.4,313.7,8.5,-1.0,18.57,25.67,714.5865,140.0053],
    [13402,1525551567,57.3534,-111.7963,456.9,152.2,310.8,9.5,-1.0,18.33,25.72,714.5389,139.997],
    [13403,1525551568,57.3538,-111.797,454.0,149.0,306.5,10.3,-0.3,18.63,26.16,714.5926,139.9925],
    [13404,1525551569,57.3541,-111.7977,449.9,144.7,302.2,10.8,-0.6,19.03,25.3,714.5953,140.0048],
    [13405,1525551570,57.3544,-111.7984,447.7,142.7,297.8,10.7,-0.7,18.58,25.88,714.67,140.008],
    [13406,1525551571,57.3547,-111.7993,446.9,141.9,293.5,7.8,-0.7,18.31,25.66,714.6908,139.9987],
    [13407,1525551572,57.3549,-111.8001,447.9,142.5,290.4,8.5,-1.0,18.65,25.34,714.5193,140.002],
    [13408,1525551573,57.355,-111.801,447.9,142.2,287.0,9.9,-0.7,18.25,25.4,714.4678,139.9956],
    [13409,1525551574,57.3552,-111.8019,447.0,141.2,284.3,9.7,-0.3,18.53,25.92,714.6743,140.0032],
    [13410,1525551575,57.3553,-111.8027,446.2,139.2,281.4,9.3,0.2,18.1,25.41,714.6132,139.9998],
    [13411,1525551576,57.3554,-111.8037,445.9,138.9,280.1,9.1,-1.4,19.15,25.0,714.7894,139.9867],
    [13412,1525551577,57.3555,-111.8046,447.0,141.0,278.7,9.6,-2.1,18.58,25.48,715.0757,140.021],
    [13413,1525551578,57.3556,-111.8054,447.7,141.4,277.3,9.0,-2.9,18.27,25.4,715.3167,140.0023],
    [13414,1525551579,57.3556,-111.8064,447.1,141.1,275.5,8.2,-2.8,18.59,25.76,715.1462,140.0032],
    [13415,1525551580,57.3556,-111.8073,446.2,140.2,270.5,7.7,-0.5,18.7,25.7,714.9018,139.9983],
    [13416,1525551581,57.3556,-111.8083,444.5,137.5,269.4,8.5,-1.7,18.78,25.32,714.7923,139.9859],
    [13417,1525551582,57.3556,-111.8092,441.6,131.5,270.1,9.1,-4.0,18.52,25.69,714.623,140.0089],
    [13418,1525551583,57.3555,-111.8101,439.7,129.7,270.1,7.6,-5.6,18.91,25.38,714.6152,139.9998],
    [13419,1525551584,57.3555,-111.8111,440.1,129.4,267.4,6.1,-4.1,18.72,26.19,714.6062,139.9917],
    [13420,1525551585,57.3554,-111.812,442.0,131.0,263.8,6.9,-1.5,18.2,25.61,714.9899,140.0138],
    [13421,1525551586,57.3553,-111.8129,443.7,132.7,264.6,8.0,-2.5,18.25,25.74,715.1399,140.0072],
    [13422,1525551587,57.3553,-111.8138,445.6,133.9,262.7,7.0,0.2,18.59,26.27,715.4935,139.992],
    [13423,1525551588,57.3552,-111.8147,446.5,133.9,262.8,6.9,0.3,18.45,25.7,715.5833,140.0031],
    [13424,1525551589,57.3551,-111.8157,445.3,130.5,267.9,7.9,-3.3,18.86,25.64,715.3829,140.0148],
    [13425,1525551590,57.3551,-111.8166,442.4,127.5,269.2,8.1,-1.6,18.72,26.16,715.1012,139.9915],
    [13426,1525551591,57.3551,-111.8176,439.5,123.8,270.8,9.1,-0.1,18.63,25.78,714.9719,140.0063],
    [13427,1525551592,57.3551,-111.8186,436.3,121.3,275.3,8.6,-2.5,19.28,25.11,714.7191,139.9832],
    [13428,1525551593,57.3551,-111.8196,435.0,121.0,276.5,8.4,-2.2,18.8,25.86,714.5327,140.0033],
    [13429,1525551594,57.3552,-111.8204,436.4,123.4,276.5,6.9,-1.7,18.43,25.73,714.4996,139.997],
    [13430,1525551595,57.3553,-111.8214,439.2,125.2,280.0,8.6,-4.9,18.78,25.76,714.4281,139.9959],
    [13431,1525551596,57.3553,-111.8224,441.8,127.8,280.4,8.8,-4.3,18.23,25.76,714.1249,139.9954],
    [13432,1525551597,57.3554,-111.8234,443.9,128.9,280.0,7.5,-3.3,18.5,25.97,713.949,139.9927],
    [13433,1525551598,57.3555,-111.8243,446.5,130.5,279.5,8.2,-3.0,18.2,25.75,713.8761,140.0],
    [13434,1525551599,57.3555,-111.8253,447.8,131.8,279.8,8.7,-3.2,19.02,25.65,713.7476,139.9965],
    [13435,1525551600,57.3556,-111.8262,448.8,132.8,280.5,8.3,-3.3,18.85,25.81,713.6348,139.9885],
    [13436,1525551601,57.3557,-111.8271,451.3,134.3,278.8,10.4,-1.8,19.04,25.41,713.656,140.0121],
    [13437,1525551602,57.3558,-111.8281,453.6,136.3,279.7,9.5,-2.8,18.68,25.9,713.7415,139.9861],
    [13438,1525551603,57.3558,-111.829,455.6,137.7,280.6,9.2,-3.0,18.88,25.88,713.8189,140.0021],
    [13439,1525551604,57.3559,-111.8299,456.8,138.9,280.8,8.7,-2.5,18.67,25.5,713.883,139.9976],
    [13440,1525551605,57.356,-111.8308,457.5,139.6,281.8,10.1,-3.0,19.24,25.7,713.9549,140.0047],
    [13441,1525551606,57.3561,-111.8317,457.9,140.0,280.0,10.4,-1.2,18.83,25.54,713.9501,140.0027],
    [13442,1525551607,57.3562,-111.8326,457.7,138.7,278.9,11.2,-1.2,18.41,25.86,713.9441,140.0059],
    [13443,1525551608,57.3563,-111.8335,456.9,137.9,277.6,11.2,-0.3,18.52,25.94,713.8563,139.9993],
    [13444,1525551609,57.3563,-111.8344,456.0,137.0,276.9,11.8,-0.2,19.02,25.96,713.8433,140.0058],
    [13445,1525551610,57.3564,-111.8353,455.3,135.3,277.8,11.1,-1.2,18.85,25.63,713.8349,140.0054],
    [13446,1525551611,57.3565,-111.8362,455.1,134.1,278.2,11.0,-2.0,18.62,25.37,713.7804,140.0052],
    [13447,1525551612,57.3565,-111.8371,455.5,134.5,276.8,11.2,-1.4,19.49,24.81,713.8583,139.9981],
    [13448,1525551613,57.3566,-111.838,456.1,135.2,275.3,10.8,-1.2,19.13,24.7,713.8292,140.0011],
    [13449,1525551614,57.3566,-111.8389,456.7,134.7,273.8,10.2,-1.0,18.63,24.94,713.8261,140.0042],
    [13450,1525551615,57.3567,-111.8398,457.0,135.1,271.9,10.7,-0.4,18.62,25.11,713.8692,140.0005],
    [13451,1525551616,57.3567,-111.8407,457.3,134.2,270.5,10.1,-0.2,18.46,24.91,713.8949,140.0],
    [13452,1525551617,57.3567,-111.8416,457.1,133.4,269.9,10.3,-0.6,18.35,24.98,713.9142,140.0016],
    [13453,1525551618,57.3567,-111.8424,457.0,133.0,268.4,10.8,0.1,18.8,24.91,713.9571,140.0027],
    [13454,1525551619,57.3566,-111.8434,457.1,132.2,267.5,10.2,0.5,18.79,24.99,713.911,140.0038],
    [13455,1525551620,57.3566,-111.8442,456.9,131.9,268.3,10.4,-0.4,19.17,24.48,713.9419,140.0014],
    [13456,1525551621,57.3566,-111.8451,456.5,131.5,268.5,10.6,-0.8,18.54,25.32,714.0024,140.0069],
    [13457,1525551622,57.3566,-111.846,456.1,130.1,268.4,10.1,-1.2,18.79,25.19,714.0231,140.0039],
    [13458,1525551623,57.3565,-111.8468,456.0,129.5,268.0,10.0,-1.7,19.3,24.09,714.1183,140.0115],
    [13459,1525551624,57.3565,-111.8478,456.1,129.2,266.0,9.9,-1.6,19.26,24.52,713.9794,140.0089],
    [13460,1525551625,57.3564,-111.8486,456.0,128.0,264.7,10.4,-2.5,18.67,25.22,713.7086,140.0061],
    [13461,1525551626,57.3563,-111.8494,455.5,126.6,261.8,10.2,-1.9,18.95,24.76,713.5147,140.0072],
    [13462,1525551627,57.3562,-111.8503,454.7,124.7,257.0,9.8,-0.8,18.6,24.97,713.1491,140.0028],
    [13463,1525551628,57.3561,-111.8511,454.3,123.3,253.7,9.5,-1.4,19.22,24.31,712.9893,139.997],
    [13464,1525551629,57.3559,-111.8519,455.3,124.2,248.3,9.3,-0.4,18.81,24.96,712.8316,139.9965],
    [13465,1525551630,57.3557,-111.8527,457.7,126.8,243.4,9.1,-0.4,18.69,24.95,712.7674,139.9975],
    [13466,1525551631,57.3554,-111.8534,460.8,128.8,239.2,8.2,-0.8,18.71,24.9,712.7453,139.9917],
    [13467,1525551632,57.3551,-111.8541,464.3,132.1,235.0,7.6,-1.7,18.78,24.72,712.8222,140.0002],
    [13468,1525551633,57.3548,-111.8547,467.6,134.9,230.7,7.6,-1.9,19.25,24.28,712.8648,140.0007],
    [13469,1525551634,57.3544,-111.8553,469.7,135.6,228.0,8.1,-2.9,18.08,25.08,712.9762,140.0009],
    [13470,1525551635,57.354,-111.8559,470.7,136.7,223.6,8.5,-2.1,18.62,24.97,713.2147,140.0037],
    [13471,1525551636,57.3536,-111.8564,471.1,137.1,218.8,8.3,-1.8,18.49,25.18,713.3462,140.0066],
    [13472,1525551637,57.3532,-111.8568,470.7,136.2,215.3,8.6,-2.0,18.52,24.94,713.4561,139.9948],
    [13473,1525551638,57.3528,-111.8572,469.7,134.6,211.0,8.1,-1.8,19.0,24.71,713.6306,139.994],
    [13474,1525551639,57.3523,-111.8575,468.3,134.0,207.6,7.7,-1.8,18.55,25.41,713.7072,140.0023],
    [13475,1525551640,57.3518,-111.8578,466.2,132.1,206.2,8.4,-2.1,19.06,25.17,713.8094,140.0002],
    [13476,1525551641,57.3513,-111.8581,463.7,130.7,204.8,8.5,-2.7,18.78,24.79,713.9839,140.0013],
    [13477,1525551642,57.3508,-111.8583,461.7,128.9,203.0,8.7,-1.7,18.55,25.42,713.9173,140.0022],
    [13478,1525551643,57.3503,-111.8585,460.3,128.2,202.3,9.1,-2.0,18.85,25.13,713.9119,140.0008],
    [13479,1525551644,57.3498,-111.8587,458.7,127.7,200.9,8.6,-1.9,18.62,25.24,714.0026,140.0048],
    [13480,1525551645,57.3493,-111.8589,457.3,126.3,200.6,9.3,-1.8,18.98,24.95,714.0573,140.0069],
    [13481,1525551646,57.3488,-111.8591,455.9,123.9,201.8,10.0,-3.1,18.7,24.96,714.1029,140.0028],
    [13482,1525551647,57.3483,-111.8593,455.5,122.8,200.1,9.2,-1.5,18.77,24.86,714.0027,139.9976],
    [13483,1525551648,57.3478,-111.8595,455.7,121.6,200.1,9.0,-1.9,18.71,25.42,713.9143,139.9964],
    [13484,1525551649,57.3472,-111.8597,455.0,121.0,199.9,8.2,-2.4,18.45,25.18,713.8688,139.9993],
    [13485,1525551650,57.3467,-111.8599,454.6,119.4,200.0,7.9,-2.9,18.44,25.38,713.7463,140.0065],
    [13486,1525551651,57.3462,-111.8601,454.5,119.5,200.8,8.5,-3.8,18.97,25.05,713.6186,140.0034],
    [13487,1525551652,57.3457,-111.8603,454.7,118.7,200.8,8.5,-4.1,18.43,25.34,713.6956,139.9994],
    [13488,1525551653,57.3451,-111.8605,455.7,120.8,199.8,8.1,-2.6,18.36,25.34,713.6319,139.9987],
    [13489,1525551654,57.3446,-111.8607,456.7,121.7,201.6,9.6,-3.0,18.24,25.79,713.62,139.9982],
    [13490,1525551655,57.3441,-111.8609,457.5,122.4,201.3,8.4,-2.8,18.39,25.53,713.4479,140.0018],
    [13491,1525551656,57.3436,-111.8611,458.6,124.5,198.8,6.7,-2.9,18.45,25.81,713.4047,140.0006],
    [13492,1525551657,57.343,-111.8613,458.9,125.9,199.7,7.6,-3.2,18.16,25.89,713.4446,139.9973],
    [13493,1525551658,57.3425,-111.8616,459.1,127.0,197.6,7.1,-0.8,18.59,26.35,713.3596,139.9971],
    [13494,1525551659,57.342,-111.8617,459.5,128.5,197.5,7.8,-1.0,18.98,26.25,713.3038,139.9967],
    [13495,1525551660,57.3414,-111.8619,460.6,130.4,198.0,8.5,-2.1,18.08,26.67,713.2879,139.9979],
    [13496,1525551661,57.3409,-111.8621,461.7,132.7,197.9,8.9,-2.4,18.9,26.5,713.2148,140.001],
    [13497,1525551662,57.3404,-111.8622,462.0,133.0,197.3,8.6,-2.7,18.41,27.01,713.2399,139.9943],
    [13498,1525551663,57.3398,-111.8624,462.3,133.3,195.9,7.7,-2.1,18.62,27.08,713.0778,140.0002],
    [13499,1525551664,57.3392,-111.8625,463.1,134.1,195.3,8.1,-1.0,18.63,26.79,713.022,139.9965],
    [13500,1525551665,57.3387,-111.8627,463.5,133.5,196.5,9.6,-1.7,18.0,26.98,712.7105,139.992],
    [13501,1525551666,57.3381,-111.8628,463.9,133.9,196.6,10.0,-2.1,18.49,27.27,712.7916,139.9978],
    [13502,1525551667,57.3376,-111.8629,464.1,133.1,196.8,10.4,-2.2,17.98,26.42,713.1056,139.9856],
    [13503,1525551668,57.3371,-111.863,464.7,132.7,195.0,9.2,-1.6,18.43,26.6,713.1841,140.0065],
    [13504,1525551669,57.3365,-111.8632,466.3,134.3,193.0,7.8,-1.3,17.81,26.43,713.2,139.9981],
    [13505,1525551670,57.3359,-111.8632,468.1,135.3,192.0,7.5,-0.1,18.19,26.43,713.2111,140.0016],
    [13506,1525551671,57.3354,-111.8633,467.9,134.9,193.8,9.8,-0.2,18.42,26.13,713.2457,140.001],
    [13507,1525551672,57.3348,-111.8634,465.3,132.3,196.5,12.2,-0.2,18.89,25.76,713.312,140.0025],
    [13508,1525551673,57.3342,-111.8635,463.8,130.8,195.4,10.6,0.2,18.35,26.36,713.213,139.9972],
    [13509,1525551674,57.3337,-111.8637,463.8,130.8,196.3,11.3,-0.8,18.45,26.62,713.3309,140.0016],
    [13510,1525551675,57.3331,-111.8638,463.9,130.9,197.6,11.9,-1.7,18.46,26.05,713.411,140.0033],
    [13511,1525551676,57.3326,-111.8639,463.7,130.7,196.4,10.5,-0.7,18.86,25.41,713.557,140.0014],
    [13512,1525551677,57.332,-111.864,462.9,129.9,196.4,10.8,-0.7,18.69,25.78,713.5355,139.9893],
    [13513,1525551678,57.3314,-111.8642,462.9,129.9,196.5,10.2,-1.5,18.35,25.87,713.4236,139.9976],
    [13514,1525551679,57.3308,-111.8643,462.5,129.6,196.5,10.1,-1.8,18.43,25.96,713.2894,139.991],
    [13515,1525551680,57.3303,-111.8644,461.3,128.3,197.0,10.8,-2.1,18.17,25.77,713.319,140.0022],
    [13516,1525551681,57.3297,-111.8646,459.9,126.9,197.6,11.7,-1.7,18.37,25.71,713.3213,139.9999],
    [13517,1525551682,57.3291,-111.8647,459.4,126.4,196.5,11.2,0.0,18.4,25.44,713.3782,139.9983],
    [13518,1525551683,57.3285,-111.8648,460.2,127.2,194.1,8.8,0.2,19.03,25.17,713.5185,140.0025],
    [13519,1525551684,57.3279,-111.865,461.5,128.2,193.6,9.2,1.3,18.55,25.16,713.4733,140.0007],
    [13520,1525551685,57.3273,-111.8651,461.9,127.9,194.6,10.3,0.0,19.09,24.93,713.6127,139.9923],
    [13521,1525551686,57.3267,-111.8652,461.7,127.7,193.5,9.7,0.3,18.32,25.24,713.6303,139.9987],
    [13522,1525551687,57.3262,-111.8653,461.0,126.0,192.4,8.9,0.6,18.06,25.35,713.6345,139.9987],
    [13523,1525551688,57.3256,-111.8654,460.1,125.1,192.1,9.2,0.4,18.55,25.76,713.7004,139.9943],
    [13524,1525551689,57.325,-111.8655,459.4,124.4,191.7,9.3,0.4,18.27,25.1,713.5263,140.0029],
    [13525,1525551690,57.3244,-111.8655,458.8,124.8,191.7,9.6,-0.9,18.06,25.17,713.517,140.0009],
    [13526,1525551691,57.3238,-111.8656,458.1,125.1,190.2,8.7,-0.6,18.57,25.24,713.5164,139.9988],
    [13527,1525551692,57.3231,-111.8656,457.7,125.6,189.5,9.1,-0.5,19.3,24.64,713.4574,139.994],
    [13528,1525551693,57.3226,-111.8657,457.6,126.6,190.2,10.8,0.1,18.93,24.89,713.4207,139.996],
    [13529,1525551694,57.3219,-111.8657,458.6,127.6,188.6,9.9,-1.7,18.29,25.02,713.3373,140.0008],
    [13530,1525551695,57.3213,-111.8657,459.1,127.1,187.5,9.8,-1.7,18.92,24.69,713.4232,140.0001],
    [13531,1525551696,57.3207,-111.8657,458.8,125.7,186.0,9.0,-1.1,18.98,24.6,713.5363,139.9978],
    [13532,1525551697,57.32,-111.8656,459.9,125.9,185.4,8.9,-1.6,18.62,24.74,713.6041,139.9969],
    [13533,1525551698,57.3194,-111.8656,460.4,126.1,185.6,9.2,-1.7,18.58,25.09,713.6456,139.9996],
    [13534,1525551699,57.3188,-111.8655,461.1,127.1,184.9,8.3,-1.6,18.52,25.12,713.6478,139.9899],
    [13535,1525551700,57.3182,-111.8655,460.8,126.8,184.7,7.9,-1.8,18.82,24.75,713.7263,140.0027],
    [13536,1525551701,57.3175,-111.8655,459.4,125.4,184.7,7.6,-1.9,18.13,24.79,713.8046,140.0031],
    [13537,1525551702,57.3169,-111.8654,458.7,124.7,184.4,7.0,-2.3,18.6,24.87,713.7585,139.9983],
    [13538,1525551703,57.3162,-111.8654,458.1,124.1,184.7,7.0,-2.4,18.72,24.48,713.6709,140.0016],
    [13539,1525551704,57.3156,-111.8654,457.7,123.7,185.2,7.5,-2.1,18.55,25.0,713.694,140.0014],
    [13540,1525551705,57.315,-111.8654,457.0,122.0,186.5,8.6,-3.1,18.47,24.56,713.5443,140.0019],
    [13541,1525551706,57.3143,-111.8654,456.4,121.4,186.6,8.2,-3.3,18.61,24.44,713.4055,140.0032],
    [13542,1525551707,57.3137,-111.8654,456.4,121.4,186.1,7.5,-3.0,18.52,24.72,713.2859,139.9958],
    [13543,1525551708,57.3131,-111.8653,457.0,121.3,186.5,8.2,-3.8,18.57,25.18,713.2114,139.9976],
    [13544,1525551709,57.3124,-111.8653,457.4,122.1,186.3,8.3,-3.4,19.06,24.1,713.0414,139.9978],
    [13545,1525551710,57.3118,-111.8653,458.0,123.0,185.2,7.3,-4.1,19.14,24.12,713.0157,139.9942],
    [13546,1525551711,57.3111,-111.8653,459.9,124.9,184.4,6.6,-4.4,18.87,24.33,712.8396,140.0042],
    [13547,1525551712,57.3105,-111.8653,461.6,126.6,185.8,8.1,-4.5,18.91,24.52,712.7598,139.997],
    [13548,1525551713,57.3099,-111.8653,463.1,128.1,185.3,7.1,-4.9,18.25,24.73,712.5796,139.9939],
    [13549,1525551714,57.3093,-111.8652,464.5,129.5,184.8,6.8,-4.1,18.04,24.7,712.4229,140.0035],
    [13550,1525551715,57.3086,-111.8652,465.4,131.4,186.1,7.9,-4.1,18.5,24.58,712.3984,139.9829],
    [13551,1525551716,57.308,-111.8652,466.8,132.8,185.1,6.7,-4.0,18.76,24.6,712.4375,140.0009],
    [13552,1525551717,57.3073,-111.8652,468.4,134.4,185.3,6.9,-4.3,18.76,24.48,712.3531,140.001],
    [13553,1525551718,57.3067,-111.8652,469.9,135.9,185.6,7.3,-4.4,18.63,24.54,712.2858,139.9925],
    [13554,1525551719,57.306,-111.8652,471.2,137.2,185.4,7.2,-3.4,18.55,24.65,712.1503,139.9931],
    [13555,1525551720,57.3054,-111.8652,471.9,138.2,185.5,7.6,-2.9,18.75,24.31,711.9703,140.0093],
    [13556,1525551721,57.3048,-111.8651,472.3,139.3,185.7,7.8,-2.9,17.93,24.72,712.0212,139.9943],
    [13557,1525551722,57.3041,-111.8651,472.9,139.9,184.5,6.8,-2.7,18.35,24.57,712.0174,140.0067],
    [13558,1525551723,57.3035,-111.8651,473.3,140.3,184.6,7.4,-0.7,18.9,24.24,712.1074,139.9984],
    [13559,1525551724,57.3028,-111.8651,474.1,141.1,183.6,6.4,-0.4,18.73,24.03,712.1153,139.9959],
    [13560,1525551725,57.3022,-111.865,476.2,143.2,183.9,6.9,-1.6,18.74,24.2,712.1511,140.002],
    [13561,1525551726,57.3015,-111.865,476.7,143.7,184.0,6.7,-0.6,18.64,25.41,712.2102,139.9989],
    [13562,1525551727,57.3009,-111.865,476.6,143.8,183.3,5.7,-0.6,18.62,25.04,712.0017,139.9843],
    [13563,1525551728,57.3003,-111.8649,475.8,143.8,184.0,6.3,-1.5,18.62,24.55,711.917,140.0007],
    [13564,1525551729,57.2996,-111.8649,475.4,143.4,184.0,6.5,-0.9,18.63,25.14,711.913,140.001],
    [13565,1525551730,57.299,-111.8649,474.7,142.7,184.3,7.1,-1.8,18.71,24.54,711.9262,140.0085],
    [13566,1525551731,57.2983,-111.8649,474.8,142.5,183.8,6.8,-2.1,18.66,24.35,711.8521,140.0036],
    [13567,1525551732,57.2977,-111.8648,476.0,143.0,182.4,5.4,-2.3,18.8,24.32,711.7809,140.0028],
    [13568,1525551733,57.2971,-111.8648,477.4,144.4,182.1,5.6,-1.6,18.83,24.47,711.4241,139.9982],
    [13569,1525551734,57.2964,-111.8647,478.2,145.2,184.1,8.2,-1.7,18.26,24.79,711.2858,139.9977],
    [13570,1525551735,57.2958,-111.8647,478.7,146.7,185.2,9.7,-3.0,18.35,24.83,710.9686,140.0004],
    [13571,1525551736,57.2952,-111.8646,479.4,147.4,183.7,8.8,-3.4,18.7,24.61,710.734,140.0026],
    [13572,1525551737,57.2945,-111.8645,480.5,148.5,181.5,8.1,-2.9,18.47,24.85,710.7033,140.001],
    [13573,1525551738,57.2939,-111.8644,483.3,151.6,179.5,8.1,-2.3,18.99,24.13,710.261,140.0026],
    [13574,1525551739,57.2933,-111.8642,486.4,154.7,176.4,6.6,-1.7,18.67,24.56,710.0249,140.0025],
    [13575,1525551740,57.2927,-111.864,489.6,158.6,173.2,5.8,-0.8,19.14,23.91,709.6033,139.9941],
    [13576,1525551741,57.2921,-111.8638,492.5,161.5,172.3,7.5,-2.0,18.73,24.37,708.9045,140.0],
    [13577,1525551742,57.2915,-111.8635,495.2,164.2,171.3,8.7,-0.9,18.64,25.32,708.4902,139.9949],
    [13578,1525551743,57.2909,-111.8631,498.6,167.6,168.9,8.3,-1.4,19.14,24.31,708.3594,139.98],
    [13579,1525551744,57.2903,-111.8628,501.9,170.9,166.9,8.2,-1.6,18.65,25.49,708.1775,140.006],
    [13580,1525551745,57.2897,-111.8624,506.9,176.5,163.8,6.8,-1.3,18.72,25.34,708.1984,139.9959],
    [13581,1525551746,57.2892,-111.862,512.6,182.6,161.7,7.1,-0.3,18.72,24.57,707.9878,139.9971],
    [13582,1525551747,57.2887,-111.8615,517.2,187.2,163.7,11.1,0.7,18.67,24.59,707.6844,139.9994],
    [13583,1525551748,57.2881,-111.861,520.3,190.5,159.8,8.8,1.0,18.42,25.17,707.3138,139.9987],
    [13584,1525551749,57.2876,-111.8604,522.7,193.7,155.3,6.9,1.3,19.04,24.12,707.1726,140.0006],
    [13585,1525551750,57.287,-111.8599,523.9,194.9,153.1,7.5,1.3,19.02,24.38,707.0696,140.0082],
    [13586,1525551751,57.2865,-111.8592,526.2,197.2,150.2,7.3,1.6,18.4,24.67,706.9473,139.9977],
    [13587,1525551752,57.2861,-111.8585,530.2,201.2,146.2,6.7,1.8,18.91,24.35,707.0225,139.9974],
    [13588,1525551753,57.2856,-111.8578,533.8,204.8,145.5,8.6,2.0,18.88,24.26,706.8909,139.9947],
    [13589,1525551754,57.2852,-111.8571,536.0,206.7,144.4,9.4,2.5,18.61,24.6,706.5074,139.9907],
    [13590,1525551755,57.2847,-111.8563,537.6,207.9,140.8,8.3,1.4,19.3,24.4,706.4825,140.0054],
    [13591,1525551756,57.2843,-111.8555,538.7,208.7,138.9,8.4,2.3,18.72,24.85,706.6823,140.0116],
    [13592,1525551757,57.2839,-111.8547,539.0,209.0,136.7,7.8,2.9,18.64,25.51,706.6414,139.9965],
    [13593,1525551758,57.2835,-111.8538,539.6,209.6,131.6,6.1,1.2,18.46,24.71,706.8118,139.9922],
    [13594,1525551759,57.2832,-111.8529,541.5,212.5,127.8,5.1,0.9,18.39,24.63,706.9068,140.0016],
    [13595,1525551760,57.2829,-111.8519,543.6,215.7,125.5,5.6,0.4,18.72,24.74,706.8546,140.0006],
    [13596,1525551761,57.2825,-111.851,543.1,215.1,123.5,7.5,-0.4,18.59,25.27,706.7019,139.9908],
    [13597,1525551762,57.2823,-111.85,542.8,215.8,121.0,7.4,0.0,18.19,25.05,706.4709,139.9962],
    [13598,1525551763,57.282,-111.849,541.8,214.8,119.0,6.5,0.9,18.55,25.1,706.2987,139.9912],
    [13599,1525551764,57.2817,-111.848,540.4,213.4,116.3,6.7,0.9,18.32,25.04,705.9517,139.9987],
    [13600,1525551765,57.2815,-111.8469,540.0,213.0,111.7,5.9,0.1,18.83,24.44,705.9402,139.9981],
    [13601,1525551766,57.2813,-111.8459,541.3,214.3,109.9,5.6,2.1,18.27,25.5,705.8012,139.9913],
    [13602,1525551767,57.2812,-111.8449,543.6,217.6,108.0,6.7,2.2,18.56,25.38,705.6657,140.0047],
    [13603,1525551768,57.281,-111.8438,546.4,220.4,102.2,4.6,0.0,18.37,24.87,705.4976,140.0013],
    [13604,1525551769,57.2809,-111.8427,549.2,224.2,96.6,4.1,-2.5,18.41,25.23,705.4701,139.9996],
    [13605,1525551770,57.2809,-111.8416,550.8,225.8,93.0,4.5,-3.0,18.59,25.5,705.4554,139.9947],
    [13606,1525551771,57.2808,-111.8405,552.2,227.2,91.0,3.1,-2.7,18.48,25.33,705.5282,139.9961],
    [13607,1525551772,57.2808,-111.8394,553.9,228.9,88.9,4.1,-2.5,18.38,25.49,705.6129,139.9988],
    [13608,1525551773,57.2808,-111.8383,555.4,230.4,88.3,6.1,-1.2,18.38,25.49,705.6703,140.0035],
    [13609,1525551774,57.2808,-111.8372,556.3,231.3,84.2,6.7,-3.4,18.76,25.08,705.6315,139.9979],
    [13610,1525551775,57.2808,-111.8362,556.6,231.6,79.8,7.3,-5.7,18.88,24.96,705.517,139.9906],
    [13611,1525551776,57.2809,-111.8351,556.2,232.2,77.5,5.9,-6.7,18.75,25.04,705.34,139.993],
    [13612,1525551777,57.281,-111.834,555.0,231.0,75.9,5.8,-7.0,18.45,26.18,705.0861,140.002],
    [13613,1525551778,57.281,-111.833,554.3,230.3,74.1,6.7,-7.5,18.43,25.32,704.9999,140.0053],
    [13614,1525551779,57.2811,-111.8318,554.4,230.4,73.7,7.1,-6.3,18.58,25.85,704.9272,140.0032],
    [13615,1525551780,57.2812,-111.8307,555.4,232.1,73.8,4.4,-5.1,18.5,25.46,704.7555,140.0041],
    [13616,1525551781,57.2814,-111.8296,556.9,233.9,72.8,3.3,-5.3,18.54,25.43,704.7645,140.0104],
    [13617,1525551782,57.2815,-111.8286,559.4,236.4,71.3,3.7,-5.8,18.67,25.3,704.7509,140.0119],
    [13618,1525551783,57.2816,-111.8276,561.4,238.4,72.7,4.3,-3.9,18.34,25.57,704.6649,140.0059],
    [13619,1525551784,57.2817,-111.8264,562.7,239.7,73.0,3.9,-3.8,18.6,25.48,704.5774,139.998],
    [13620,1525551785,57.2819,-111.8253,564.2,241.2,71.2,4.0,-5.3,18.37,25.77,704.4738,140.0039],
    [13621,1525551786,57.282,-111.8242,565.0,242.3,70.7,4.1,-5.4,18.43,25.95,704.6324,140.0021],
    [13622,1525551787,57.2822,-111.8232,565.1,243.1,70.0,4.6,-4.9,18.1,25.79,704.6724,139.9972],
    [13623,1525551788,57.2823,-111.8221,566.2,244.2,69.4,4.9,-4.1,17.91,25.73,704.7466,140.0068],
    [13624,1525551789,57.2825,-111.8211,567.0,246.0,67.8,5.2,-4.6,18.14,25.99,704.759,140.009],
    [13625,1525551790,57.2827,-111.82,567.1,246.1,65.3,5.5,-6.3,18.91,25.33,704.7878,139.9985],
    [13626,1525551791,57.2829,-111.819,567.0,247.0,64.7,6.0,-5.8,18.33,26.52,704.8098,139.9962],
    [13627,1525551792,57.2831,-111.8179,566.5,246.5,66.1,5.9,-3.8,17.74,25.83,704.8542,139.9969],
    [13628,1525551793,57.2832,-111.8171,566.2,247.2,66.8,6.0,-3.5,18.51,25.68,704.9323,140.0002],
    [13629,1525551794,57.2834,-111.8159,565.4,246.5,66.2,7.6,-4.8,18.26,25.68,705.0122,140.0001],
    [13630,1525551795,57.2836,-111.8148,565.2,247.2,67.0,7.6,-5.0,18.24,26.33,704.8981,139.9931],
    [13631,1525551796,57.2838,-111.8137,564.7,247.7,68.9,6.9,-4.3,18.36,25.72,704.9168,140.0028],
    [13632,1525551797,57.2839,-111.8126,564.1,247.1,68.8,8.1,-4.5,18.28,25.81,704.8507,139.9982],
    [13633,1525551798,57.2841,-111.8115,563.7,247.7,69.0,7.5,-4.9,18.06,25.78,704.4977,139.9963],
    [13634,1525551799,57.2842,-111.8105,563.2,248.3,69.3,6.9,-5.0,18.67,25.51,704.3188,139.9949],
    [13635,1525551800,57.2844,-111.8093,563.0,248.0,69.8,4.9,-5.1,18.25,25.58,703.9747,139.9994],
    [13636,1525551801,57.2846,-111.8082,563.0,248.0,70.3,5.0,-4.5,17.93,26.0,703.8283,139.9955],
    [13637,1525551802,57.2847,-111.8071,564.2,249.2,71.1,5.0,-3.9,18.14,26.06,703.5981,140.0026],
    [13638,1525551803,57.2849,-111.8061,566.8,252.0,71.4,4.5,-4.6,18.02,26.1,703.5695,140.0069],
    [13639,1525551804,57.285,-111.805,570.0,255.0,71.5,4.4,-5.5,17.88,26.74,703.2833,139.993],
    [13640,1525551805,57.2851,-111.804,573.0,258.0,72.4,3.3,-5.7,17.87,26.27,703.1369,139.9994],
    [13641,1525551806,57.2853,-111.8028,575.4,260.4,74.5,2.9,-4.3,18.02,26.2,702.9026,139.9954],
    [13642,1525551807,57.2854,-111.8016,577.6,262.6,75.7,3.4,-3.4,17.69,26.26,702.9175,139.9939],
    [13643,1525551808,57.2855,-111.8006,579.4,264.4,76.3,4.8,-2.9,18.02,27.03,702.8808,139.994],
    [13644,1525551809,57.2856,-111.7994,582.0,267.0,75.4,6.0,-3.7,17.55,26.47,702.9028,139.9973],
    [13645,1525551810,57.2857,-111.7983,584.3,269.2,74.9,5.6,-3.9,17.99,26.85,702.9627,139.9944],
    [13646,1525551811,57.2858,-111.7972,586.1,271.1,74.1,4.9,-4.6,17.92,26.66,702.9801,140.0052],
    [13647,1525551812,57.2859,-111.7961,586.8,271.8,74.4,4.1,-4.5,17.98,26.74,702.8795,139.9949],
    [13648,1525551813,57.2861,-111.795,586.9,271.9,73.8,4.4,-5.3,17.98,27.39,702.8098,140.0062],
    [13649,1525551814,57.2862,-111.794,586.9,271.9,73.9,3.9,-5.3,17.51,26.69,702.6637,140.0073],
    [13650,1525551815,57.2863,-111.7929,586.5,272.5,74.7,3.7,-4.9,17.91,26.85,702.5736,140.0053],
    [13651,1525551816,57.2864,-111.7917,586.1,272.1,74.7,4.0,-5.1,18.09,26.54,702.599,140.0039],
    [13652,1525551817,57.2865,-111.7905,586.6,273.6,74.3,4.3,-5.1,17.89,27.06,702.4685,139.999],
    [13653,1525551818,57.2866,-111.7894,587.9,275.9,73.2,4.1,-5.5,17.78,26.75,702.5342,139.9985],
    [13654,1525551819,57.2868,-111.7883,589.5,278.3,72.0,5.3,-5.0,17.45,26.76,702.4972,139.9959],
    [13655,1525551820,57.2869,-111.7873,590.8,279.8,70.1,5.9,-5.6,17.55,27.23,702.5029,139.9977],
    [13656,1525551821,57.287,-111.7863,591.3,281.3,68.4,6.9,-5.3,17.36,26.73,702.2636,139.9943],
    [13657,1525551822,57.2872,-111.7851,591.8,283.1,67.5,5.8,-4.9,17.95,26.59,702.1805,140.0053],
    [13658,1525551823,57.2874,-111.7841,591.9,284.1,67.4,5.7,-4.1,17.81,26.74,702.1377,139.998],
    [13659,1525551824,57.2876,-111.7829,592.2,285.2,66.6,5.5,-4.2,17.8,27.37,702.0656,140.0009],
    [13660,1525551825,57.2878,-111.7819,592.6,285.9,65.5,5.4,-4.8,17.73,26.88,701.9012,140.0011],
    [13661,1525551826,57.288,-111.7808,593.7,287.7,64.1,6.4,-5.3,17.75,26.78,701.8017,139.9933],
    [13662,1525551827,57.2882,-111.7797,594.8,288.8,64.1,6.7,-5.0,17.83,26.63,701.6376,140.0133],
    [13663,1525551828,57.2884,-111.7787,595.7,290.7,64.9,6.8,-5.0,17.7,26.79,701.6506,140.001],
    [13664,1525551829,57.2886,-111.7776,597.2,292.2,65.8,6.7,-4.8,17.87,26.47,701.5807,140.0],
    [13665,1525551830,57.2887,-111.7766,598.7,293.7,67.0,6.0,-4.4,17.47,26.62,701.5439,139.9965],
    [13666,1525551831,57.2889,-111.7755,600.3,296.3,68.2,5.7,-3.9,18.03,26.73,701.5094,139.9987],
    [13667,1525551832,57.2891,-111.7744,601.8,297.8,68.1,7.1,-4.3,17.73,27.32,701.366,140.0044],
    [13668,1525551833,57.2893,-111.7733,602.7,298.7,68.8,7.0,-3.9,17.68,27.48,701.3285,140.0001],
    [13669,1525551834,57.2895,-111.7722,603.1,299.1,70.2,7.2,-3.3,17.46,26.87,701.1561,140.0016],
    [13670,1525551835,57.2896,-111.7711,603.4,299.4,71.6,5.6,-3.6,17.48,26.77,701.1415,140.0014],
    [13671,1525551836,57.2897,-111.77,603.8,299.8,73.1,5.7,-3.9,17.45,27.04,701.0181,139.9993],
    [13672,1525551837,57.2899,-111.7689,605.3,301.1,73.7,6.2,-4.5,17.83,26.16,700.9034,139.9979],
    [13673,1525551838,57.29,-111.7678,606.7,301.7,76.4,6.2,-2.9,17.21,27.02,700.8644,139.994],
    [13674,1525551839,57.2901,-111.7667,607.9,302.9,78.0,6.3,-2.5,17.67,26.93,700.9668,139.9978],
    [13675,1525551840,57.2902,-111.7656,609.0,304.0,78.9,6.2,-2.6,17.63,27.24,701.1411,139.9954],
    [13676,1525551841,57.2903,-111.7644,610.2,304.2,79.1,6.8,-2.9,17.58,26.45,701.2255,140.0042],
    [13677,1525551842,57.2903,-111.7633,611.2,305.2,79.2,7.9,-2.6,17.39,27.36,701.3119,139.9979],
    [13678,1525551843,57.2904,-111.7622,611.5,304.5,79.1,7.4,-2.9,17.45,26.56,701.3886,139.9961],
    [13679,1525551844,57.2905,-111.7611,610.9,304.9,78.4,7.6,-3.8,17.63,27.05,701.4203,139.9977],
    [13680,1525551845,57.2906,-111.76,609.9,304.2,78.4,8.1,-4.0,17.49,27.46,701.4536,139.9944],
    [13681,1525551846,57.2906,-111.7589,608.5,303.5,79.3,8.4,-3.6,17.65,26.7,701.3883,140.0015],
    [13682,1525551847,57.2907,-111.7577,607.1,302.2,79.1,8.0,-4.3,17.77,26.42,701.1147,139.9886],
    [13683,1525551848,57.2908,-111.7565,606.1,302.1,80.2,7.8,-3.6,17.95,26.44,701.0704,139.9976],
    [13684,1525551849,57.2908,-111.7554,605.3,301.3,80.6,7.8,-4.0,17.15,26.69,700.8115,140.0072],
    [13685,1525551850,57.2909,-111.7542,605.3,301.3,80.1,6.1,-5.3,17.36,26.67,700.6365,139.9932],
    [13686,1525551851,57.2909,-111.7532,605.5,301.6,80.0,5.4,-6.3,17.53,26.43,700.4634,139.9991],
    [13687,1525551852,57.291,-111.752,608.0,305.0,81.0,4.1,-5.4,17.93,26.27,700.3771,140.0036],
    [13688,1525551853,57.291,-111.7509,610.1,307.0,82.1,4.0,-4.7,16.95,26.72,700.3485,139.9972],
    [13689,1525551854,57.2911,-111.7497,612.6,309.6,81.9,5.3,-5.1,17.63,27.07,700.2903,139.9996],
    [13690,1525551855,57.2911,-111.7485,615.2,312.1,82.9,4.9,-4.0,17.47,26.74,700.3439,139.9968],
    [13691,1525551856,57.2911,-111.7474,617.3,314.3,84.2,5.4,-2.6,17.55,26.8,700.248,140.0049],
    [13692,1525551857,57.2912,-111.7463,618.2,314.4,83.3,6.2,-4.1,17.46,27.13,700.2208,139.9997],
    [13693,1525551858,57.2912,-111.7451,619.3,316.4,81.6,6.7,-6.0,17.62,26.95,700.2052,140.0002],
    [13694,1525551859,57.2912,-111.744,620.0,318.0,82.5,6.6,-5.3,17.59,26.87,700.0312,140.0003],
    [13695,1525551860,57.2912,-111.7428,620.2,319.2,83.5,6.8,-4.2,17.59,26.87,699.8417,140.0007],
    [13696,1525551861,57.2913,-111.7417,620.3,319.3,83.7,7.2,-4.1,17.55,27.11,699.5555,140.0034],
    [13697,1525551862,57.2913,-111.7406,620.6,319.6,84.2,6.4,-3.5,17.67,26.56,699.4262,139.9933],
    [13698,1525551863,57.2913,-111.7394,621.1,320.1,85.4,6.5,-3.5,17.28,27.24,699.3659,140.0025],
    [13699,1525551864,57.2913,-111.7382,622.3,321.3,84.3,4.9,-5.9,17.62,26.94,699.3305,139.9981],
    [13700,1525551865,57.2913,-111.737,624.9,324.9,86.0,5.2,-5.4,17.41,27.07,699.4423,139.9966],
    [13701,1525551866,57.2913,-111.7359,627.4,327.4,88.7,6.7,-3.9,17.2,27.0,699.5624,140.007],
    [13702,1525551867,57.2913,-111.7347,629.7,329.7,91.4,6.4,-2.8,17.81,27.1,699.5091,140.002],
    [13703,1525551868,57.2912,-111.7336,630.9,331.9,92.8,7.0,-3.2,17.35,27.33,699.2527,139.9973],
    [13704,1525551869,57.2912,-111.7324,631.1,332.1,94.6,6.7,-3.4,17.25,27.81,699.1139,140.003],
    [13705,1525551870,57.2911,-111.7313,630.2,332.2,96.4,6.3,-3.0,17.78,27.16,699.0166,139.9983],
    [13706,1525551871,57.291,-111.7301,629.0,332.2,96.9,7.0,-3.6,17.39,27.39,699.0321,139.9994],
    [13707,1525551872,57.2909,-111.7289,628.9,333.0,96.8,6.7,-4.3,17.31,28.27,699.0318,140.0018],
    [13708,1525551873,57.2908,-111.7277,630.9,338.6,96.6,6.9,-4.6,16.95,27.64,699.0311,139.9993],
    [13709,1525551874,57.2906,-111.7265,633.6,344.4,97.1,7.4,-4.1,17.74,26.78,698.9252,139.9975],
    [13710,1525551875,57.2905,-111.7254,634.6,352.6,97.2,6.8,-4.0,17.21,27.05,698.8821,139.9983],
    [13711,1525551876,57.2904,-111.7241,634.7,357.3,96.8,6.6,-4.2,17.69,27.24,698.8223,139.9989],
    [13712,1525551877,57.2903,-111.723,634.7,361.7,97.3,7.0,-3.3,17.31,27.45,698.792,139.9986],
    [13713,1525551878,57.2902,-111.7218,635.0,370.4,96.9,7.2,-3.3,16.91,27.39,698.8283,139.9995],
    [13714,1525551879,57.2901,-111.7206,635.4,374.2,96.0,7.1,-3.5,17.28,27.2,698.8665,139.9978],
    [13715,1525551880,57.29,-111.7194,636.2,376.4,95.4,6.3,-3.4,17.15,27.33,698.8824,139.9987],
    [13716,1525551881,57.29,-111.7182,636.7,376.5,94.6,6.5,-3.6,16.83,27.1,698.9835,139.9946],
    [13717,1525551882,57.2899,-111.717,637.2,377.3,94.0,6.7,-3.2,17.23,27.27,699.0092,139.9977],
    [13718,1525551883,57.2898,-111.7159,637.3,376.5,93.8,6.7,-2.7,17.02,27.08,699.1793,139.9983],
    [13719,1525551884,57.2898,-111.7147,636.7,375.2,92.6,6.8,-3.2,17.07,26.93,699.2473,140.0001],
    [13720,1525551885,57.2897,-111.7135,636.4,375.0,91.0,6.5,-3.7,17.42,26.93,699.3528,139.9941],
    [13721,1525551886,57.2897,-111.7123,635.8,384.1,90.7,6.7,-2.9,17.56,26.66,699.5947,139.996],
    [13722,1525551887,57.2896,-111.7111,635.0,392.0,89.9,6.9,-3.1,17.06,27.32,699.7133,139.9967],
    [13723,1525551888,57.2896,-111.7099,633.6,394.7,88.9,7.3,-3.2,17.08,27.06,699.7647,140.001],
    [13724,1525551889,57.2896,-111.7087,632.1,393.1,87.3,7.4,-4.1,17.52,26.62,699.7856,139.9955],
    [13725,1525551890,57.2896,-111.7076,630.7,391.4,86.1,7.1,-4.4,16.93,27.07,699.7857,139.9953],
    [13726,1525551891,57.2896,-111.7063,628.7,387.7,85.5,7.1,-4.2,17.07,27.23,699.804,140.0054],
    [13727,1525551892,57.2896,-111.7051,627.1,385.1,85.6,6.2,-3.9,17.14,27.09,699.9304,139.9948],
    [13728,1525551893,57.2896,-111.7039,625.8,383.8,84.9,6.3,-4.7,17.28,26.83,699.8277,139.9932],
    [13729,1525551894,57.2896,-111.7027,625.2,384.2,85.8,5.9,-3.8,17.16,27.62,699.7134,140.0012],
    [13730,1525551895,57.2896,-111.7015,624.8,384.9,87.3,6.5,-2.7,17.16,27.52,699.6379,139.998],
    [13731,1525551896,57.2896,-111.7003,624.6,383.6,86.3,7.0,-4.3,16.97,27.13,699.6059,140.0062],
    [13732,1525551897,57.2896,-111.6991,624.2,379.2,86.2,6.8,-4.0,16.79,27.37,699.9588,139.9937],
    [13733,1525551898,57.2897,-111.6979,624.4,375.4,87.6,7.2,-2.7,17.13,27.13,700.0348,140.0008],
    [13734,1525551899,57.2896,-111.6966,625.3,368.1,87.1,7.8,-3.7,17.09,27.22,700.2915,140.0],
    [13735,1525551900,57.2896,-111.6955,626.1,356.1,87.4,8.1,-4.1,16.81,27.14,700.5302,139.9989],
    [13736,1525551901,57.2896,-111.6942,626.0,347.6,87.9,8.0,-3.8,17.64,26.9,700.7523,139.997],
    [13737,1525551902,57.2896,-111.693,624.0,338.0,88.4,7.2,-3.7,16.73,27.32,700.8695,140.005],
    [13738,1525551903,57.2896,-111.6918,621.8,336.1,87.5,7.0,-4.8,17.15,27.19,701.0383,139.996],
    [13739,1525551904,57.2896,-111.6907,619.7,337.7,88.3,7.5,-4.0,17.68,26.74,701.12,139.9964],
    [13740,1525551905,57.2896,-111.6894,617.0,336.0,89.0,7.3,-3.1,17.21,27.01,701.0943,140.0015],
    [13741,1525551906,57.2895,-111.6881,614.2,332.5,90.1,7.4,-2.3,17.5,26.47,700.9702,139.9967],
    [13742,1525551907,57.2895,-111.6868,611.8,329.8,89.4,7.7,-3.6,16.91,27.26,700.8152,140.003],
    [13743,1525551908,57.2895,-111.6856,610.1,328.1,89.4,7.2,-3.7,16.37,27.2,700.7592,140.0014],
    [13744,1525551909,57.2895,-111.6844,608.9,329.0,89.7,6.8,-3.6,17.22,26.87,700.6061,140.0034],
    [13745,1525551910,57.2894,-111.6831,608.4,332.1,88.8,6.7,-4.5,17.06,27.15,700.5412,140.0045],
    [13746,1525551911,57.2894,-111.6818,609.3,338.6,88.2,5.9,-4.6,17.05,27.07,700.6369,139.9895],
    [13747,1525551912,57.2894,-111.6806,611.0,344.7,88.8,6.4,-3.6,17.13,27.38,700.6681,139.9937],
    [13748,1525551913,57.2894,-111.6793,612.9,350.1,88.2,6.4,-3.9,16.63,26.99,700.7689,140.0035],
    [13749,1525551914,57.2894,-111.6781,614.2,355.6,87.8,7.4,-4.1,17.1,26.94,700.8486,139.9996],
    [13750,1525551915,57.2893,-111.6767,614.9,360.2,86.8,7.7,-5.2,16.69,27.11,700.9163,139.9987],
    [13751,1525551916,57.2893,-111.6755,614.6,364.6,86.6,6.6,-5.0,17.59,27.14,700.9072,140.0001],
    [13752,1525551917,57.2893,-111.6742,613.9,367.7,88.0,6.8,-3.6,17.16,27.76,700.913,140.0005],
    [13753,1525551918,57.2893,-111.673,613.1,372.8,86.3,7.6,-5.6,17.02,27.01,700.783,139.9983],
    [13754,1525551919,57.2893,-111.6717,612.3,376.3,86.8,7.2,-4.9,17.11,26.97,700.6324,139.9992],
    [13755,1525551920,57.2893,-111.6705,611.4,376.4,88.2,7.7,-3.2,17.08,27.81,700.4676,139.9948],
    [13756,1525551921,57.2893,-111.6692,611.0,376.0,89.7,7.6,-1.8,17.4,27.0,700.0186,140.0019],
    [13757,1525551922,57.2893,-111.6681,611.2,376.2,90.2,7.2,-1.8,16.9,27.16,699.9572,140.0062],
    [13758,1525551923,57.2893,-111.6667,612.5,377.5,92.0,7.0,-0.7,17.57,27.1,699.4546,139.9887],
    [13759,1525551924,57.2892,-111.6655,613.7,378.7,92.7,7.3,-0.8,17.16,27.04,699.0621,140.0017],
    [13760,1525551925,57.2892,-111.6642,615.9,379.9,93.3,5.7,-1.0,17.05,27.04,698.4041,140.0052],
    [13761,1525551926,57.2891,-111.6629,619.4,382.4,94.3,6.0,-0.5,17.37,26.89,697.9869,139.9895],
    [13762,1525551927,57.2891,-111.6617,622.0,384.0,95.2,7.0,-0.2,16.91,27.62,697.8062,139.9977],
    [13763,1525551928,57.289,-111.6604,626.0,388.0,95.7,6.0,-0.7,17.19,26.71,697.6733,139.9915],
    [13764,1525551929,57.2889,-111.6592,631.9,394.7,95.8,5.9,-1.6,17.12,27.7,697.3929,139.999],
    [13765,1525551930,57.2889,-111.6579,638.0,401.0,95.5,5.7,-2.6,16.96,27.1,697.2488,140.004],
    [13766,1525551931,57.2888,-111.6567,643.2,404.6,97.1,6.8,-1.7,17.13,27.15,696.9875,140.0064],
    [13767,1525551932,57.2887,-111.6554,646.8,401.8,95.5,6.7,-3.7,17.2,27.19,696.9642,140.0023],
    [13768,1525551933,57.2886,-111.6542,649.1,396.6,95.4,6.3,-3.6,16.9,27.23,697.0107,139.9957],
    [13769,1525551934,57.2885,-111.6531,651.4,391.0,95.6,6.5,-3.3,17.0,27.23,697.008,139.9984],
    [13770,1525551935,57.2884,-111.6517,653.9,385.1,95.1,5.7,-3.1,17.81,26.73,696.9939,140.0002],
    [13771,1525551936,57.2883,-111.6506,656.0,383.1,94.0,7.6,-3.8,16.83,27.55,697.1135,139.9988],
    [13772,1525551937,57.2883,-111.6493,658.0,382.7,93.4,7.8,-3.7,17.63,26.99,697.2895,139.9993],
    [13773,1525551938,57.2882,-111.6481,658.4,381.4,94.9,8.0,-2.0,17.39,26.68,697.5104,139.9962],
    [13774,1525551939,57.2881,-111.6469,658.5,381.5,94.1,7.8,-2.6,16.86,27.29,697.7605,140.0015],
    [13775,1525551940,57.2881,-111.6456,658.4,381.4,93.2,7.7,-3.1,17.58,27.01,697.9121,139.9904],
    [13776,1525551941,57.288,-111.6444,657.3,380.3,92.1,8.6,-3.9,16.66,27.29,697.9424,140.0033],
    [13777,1525551942,57.2879,-111.6432,655.3,378.3,90.1,8.4,-4.9,16.83,27.35,697.8929,139.9927],
    [13778,1525551943,57.2879,-111.6419,652.8,374.8,89.3,8.8,-5.1,16.85,27.89,697.7599,139.9855],
    [13779,1525551944,57.2879,-111.6407,650.1,370.4,88.7,9.2,-5.4,16.96,27.46,697.7843,139.9927],
    [13780,1525551945,57.2878,-111.6394,648.2,367.2,88.4,9.1,-5.4,16.92,27.58,697.7896,139.9994],
    [13781,1525551946,57.2878,-111.6382,647.6,365.6,87.5,9.4,-6.2,17.51,27.21,697.788,140.0085],
    [13782,1525551947,57.2878,-111.6369,647.6,365.6,88.6,8.8,-5.2,16.99,27.59,697.8819,139.9937],
    [13783,1525551948,57.2877,-111.6356,648.1,365.1,90.2,8.3,-3.7,17.16,27.2,697.9227,140.0006],
    [13784,1525551949,57.2877,-111.6343,648.8,364.8,90.7,8.9,-3.7,17.08,27.24,698.1083,140.0024],
    [13785,1525551950,57.2877,-111.6331,649.0,363.3,90.3,9.3,-4.3,17.63,27.06,698.1752,139.9992],
    [13786,1525551951,57.2876,-111.6318,648.7,361.7,91.0,9.9,-4.1,17.43,26.62,698.4151,139.995],
    [13787,1525551952,57.2876,-111.6305,648.1,360.1,91.1,9.7,-4.2,16.98,28.02,698.4718,139.9939],
    [13788,1525551953,57.2875,-111.6293,647.4,359.4,91.6,9.4,-3.7,17.09,27.08,698.5941,140.0051],
    [13789,1525551954,57.2875,-111.6281,646.2,357.2,91.8,9.5,-3.5,16.83,27.36,698.6615,139.9954],
    [13790,1525551955,57.2874,-111.6268,644.0,353.9,91.4,7.8,-4.1,17.05,27.94,698.663,139.9948],
    [13791,1525551956,57.2874,-111.6254,642.2,351.2,91.6,7.7,-3.8,17.04,27.88,698.6515,139.9935],
    [13792,1525551957,57.2873,-111.6241,640.4,347.4,91.9,7.4,-3.6,17.64,26.99,698.4529,140.0012],
    [13793,1525551958,57.2873,-111.623,639.2,346.2,91.8,6.4,-3.8,16.89,27.74,698.4108,139.9903],
    [13794,1525551959,57.2872,-111.6216,637.8,344.6,93.0,5.9,-1.9,17.17,27.74,698.4333,139.9991],
    [13795,1525551960,57.2872,-111.6203,637.4,346.4,94.6,6.0,0.2,17.33,26.69,698.4048,140.0014],
    [13796,1525551961,57.2871,-111.6191,638.2,346.2,93.2,5.7,0.1,17.25,27.24,698.2242,139.9975],
    [13797,1525551962,57.2871,-111.6178,639.7,347.7,91.1,6.2,0.1,16.9,27.37,698.1288,139.9938],
    [13798,1525551963,57.2871,-111.6166,640.9,348.9,87.9,5.8,-0.1,17.09,27.04,698.063,139.9955],
    [13799,1525551964,57.2871,-111.6153,641.9,348.9,84.0,6.0,-0.7,17.0,28.01,698.0853,139.9926],
    [13800,1525551965,57.2872,-111.6142,642.1,349.1,80.4,6.7,0.0,16.76,27.3,698.2607,139.9987],
    [13801,1525551966,57.2874,-111.6129,643.2,349.3,74.2,6.8,-1.3,16.46,27.39,698.3793,139.9974],
    [13802,1525551967,57.2875,-111.6118,644.6,349.6,69.1,6.3,-2.0,16.7,27.39,698.7735,139.9899],
    [13803,1525551968,57.2878,-111.6106,646.3,351.3,64.1,6.8,-1.6,17.23,27.39,699.0224,139.9993],
    [13804,1525551969,57.288,-111.6095,646.6,351.6,58.6,7.3,-2.1,17.27,27.0,699.537,140.0016],
    [13805,1525551970,57.2883,-111.6085,645.5,350.5,52.9,7.4,-2.9,16.74,27.53,699.6681,139.998],
    [13806,1525551971,57.2887,-111.6076,642.9,347.9,48.2,7.1,-2.6,17.43,26.87,700.077,140.0],
    [13807,1525551972,57.289,-111.6067,639.5,344.5,43.6,6.4,-2.1,16.92,27.89,700.3285,140.0058],
    [13808,1525551973,57.2895,-111.6058,635.1,339.1,37.3,7.1,-2.8,16.42,27.8,700.6105,140.0024],
    [13809,1525551974,57.29,-111.6051,630.5,333.4,31.0,7.7,-3.5,16.88,28.09,700.717,140.0017],
    [13810,1525551975,57.2905,-111.6044,626.4,329.4,26.0,7.5,-3.5,16.7,27.73,700.841,140.002],
    [13811,1525551976,57.291,-111.6039,622.9,324.9,21.4,7.5,-3.3,16.83,27.6,700.9327,140.0002],
    [13812,1525551977,57.2915,-111.6034,619.3,321.5,16.7,7.3,-2.9,16.57,27.55,701.0109,140.0033],
    [13813,1525551978,57.2921,-111.603,616.6,318.6,11.6,7.7,-2.6,17.03,27.54,701.0577,139.9992],
    [13814,1525551979,57.2927,-111.6027,614.4,316.4,6.6,8.0,-3.0,16.9,27.28,701.3216,139.9976],
    [13815,1525551980,57.2932,-111.6025,612.8,314.9,361.6,8.4,-3.5,16.81,28.41,701.492,140.0046],
    [13816,1525551981,57.2938,-111.6023,611.6,314.6,356.9,8.2,-3.5,17.11,27.73,702.2337,139.9974],
    [13817,1525551982,57.2943,-111.6023,610.9,313.9,351.9,8.2,-3.1,16.95,27.48,702.5588,140.0047],
    [13818,1525551983,57.2949,-111.6024,610.0,313.0,347.4,7.4,-3.0,17.38,27.17,703.1794,140.0152],
    [13819,1525551984,57.2954,-111.6025,608.0,311.0,343.6,7.3,-3.3,16.95,27.22,703.5873,140.005],
    [13820,1525551985,57.296,-111.6028,604.1,307.1,338.2,8.0,-2.4,16.8,27.26,704.0314,140.0067],
    [13821,1525551986,57.2965,-111.6031,598.8,301.9,333.8,8.1,-2.3,16.94,27.24,704.2444,140.0018],
    [13822,1525551987,57.297,-111.6035,592.1,296.1,328.7,8.5,-2.4,17.07,27.15,704.6088,139.9898],
    [13823,1525551988,57.2974,-111.6039,585.9,289.9,323.0,8.8,-1.5,16.88,27.73,704.7831,140.0015],
    [13824,1525551989,57.2979,-111.6045,580.1,285.1,318.0,6.6,-2.0,16.45,27.32,704.9835,139.9981],
    [13825,1525551990,57.2982,-111.6051,576.2,281.2,314.4,4.4,-2.6,16.56,27.33,705.2169,140.0086],
    [13826,1525551991,57.2986,-111.6059,572.3,278.3,307.3,5.3,-1.8,16.95,27.59,705.2215,140.0023],
    [13827,1525551992,57.2989,-111.6067,568.1,274.1,302.4,5.9,-2.5,17.04,27.2,705.5574,139.9978],
    [13828,1525551993,57.2992,-111.6075,564.6,270.6,297.2,6.8,-2.3,16.94,27.62,705.919,140.0044],
    [13829,1525551994,57.2994,-111.6084,561.8,266.8,292.0,7.6,-2.0,16.65,27.3,706.2133,140.0069],
    [13830,1525551995,57.2996,-111.6093,559.2,264.2,288.1,7.0,-2.4,17.36,26.89,706.6766,140.0083],
    [13831,1525551996,57.2998,-111.6103,557.0,262.0,282.4,7.0,-0.9,16.53,27.39,706.827,140.0011],
    [13832,1525551997,57.2999,-111.6113,554.2,259.2,278.5,7.0,-1.1,17.03,27.4,706.8677,140.0036],
    [13833,1525551998,57.2999,-111.6122,550.5,255.5,274.7,7.0,-1.1,17.3,26.91,706.9502,139.9902],
    [13834,1525551999,57.2999,-111.6132,546.6,251.6,271.4,6.9,-0.8,16.78,27.72,707.2167,139.9915],
    [13835,1525552000,57.2999,-111.6142,542.6,247.6,269.1,6.2,-1.2,17.66,27.11,707.7429,140.0035],
    [13836,1525552001,57.2999,-111.6152,539.5,245.0,267.8,7.6,-1.3,17.09,28.02,708.2025,140.0019],
    [13837,1525552002,57.2999,-111.6162,538.0,244.0,266.3,7.7,0.1,17.34,27.2,708.7667,139.9901],
    [13838,1525552003,57.2998,-111.6171,537.3,243.3,267.8,8.0,-0.9,17.12,27.45,709.1568,140.0146],
    [13839,1525552004,57.2998,-111.6182,534.7,241.7,271.1,8.4,-2.6,17.52,26.91,709.2341,140.0075],
    [13840,1525552005,57.2998,-111.6192,530.1,237.1,273.0,8.2,-2.6,17.29,27.39,709.1877,139.9998],
    [13841,1525552006,57.2998,-111.6202,524.0,232.0,275.3,7.7,-2.9,17.26,27.31,709.2202,140.0079],
    [13842,1525552007,57.2999,-111.6212,517.4,225.4,279.2,7.5,-4.8,17.02,27.37,709.345,139.9969],
    [13843,1525552008,57.2999,-111.6223,512.2,221.2,279.6,8.3,-3.1,17.36,27.74,709.6339,140.0015],
    [13844,1525552009,57.3,-111.6232,510.5,219.5,279.4,8.1,-1.9,17.54,26.95,709.7764,139.9989],
    [13845,1525552010,57.3001,-111.6242,510.7,220.7,279.5,8.6,-1.8,17.9,26.77,709.8575,140.0009],
    [13846,1525552011,57.3002,-111.6252,510.5,220.5,279.0,8.4,-1.5,17.9,26.2,709.9307,140.0017],
    [13847,1525552012,57.3003,-111.6262,509.0,219.0,279.4,8.1,-2.0,17.56,26.83,710.0029,140.0012],
    [13848,1525552013,57.3003,-111.6272,506.3,216.3,278.2,8.9,-0.9,17.68,26.42,710.2477,140.0016],
    [13849,1525552014,57.3004,-111.6281,504.1,214.1,276.9,10.1,-0.1,17.3,26.84,710.4936,140.0047],
    [13850,1525552015,57.3005,-111.6291,503.1,213.1,276.7,10.5,-0.4,17.29,26.8,710.8198,140.0095],
    [13851,1525552016,57.3006,-111.6301,502.4,212.1,277.2,9.8,-0.9,17.64,26.63,710.9613,140.0057],
    [13852,1525552017,57.3006,-111.631,501.6,211.6,276.4,10.0,-0.4,17.58,26.83,711.1416,140.0028],
    [13853,1525552018,57.3007,-111.632,499.8,210.5,277.4,8.4,-1.9,17.75,26.55,711.2464,139.9979],
    [13854,1525552019,57.3008,-111.6329,496.6,207.6,278.4,7.5,-3.1,18.2,26.13,711.3151,139.9982],
    [13855,1525552020,57.3008,-111.6339,493.5,205.7,277.6,6.7,-2.6,17.41,26.57,711.5592,140.0046],
    [13856,1525552021,57.3009,-111.6349,491.1,204.1,276.6,8.0,-2.2,17.97,26.06,711.747,139.999],
    [13857,1525552022,57.3009,-111.6358,489.2,203.2,275.2,8.1,-1.5,17.83,26.78,712.038,139.992],
    [13858,1525552023,57.3009,-111.6368,487.5,202.5,274.4,8.3,-1.4,17.63,26.23,712.314,139.9968],
    [13859,1525552024,57.301,-111.6377,486.0,202.0,273.3,8.9,-1.4,17.49,26.24,712.6416,139.9979],
    [13860,1525552025,57.301,-111.6388,483.8,199.8,273.6,7.6,-2.5,17.92,26.68,713.0033,139.998],
    [13861,1525552026,57.301,-111.6396,481.6,197.6,271.8,8.0,-1.5,18.08,25.83,713.1897,140.0033],
    [13862,1525552027,57.301,-111.6406,478.3,195.3,270.7,9.1,-1.6,17.75,26.61,713.2388,139.9956],
    [13863,1525552028,57.301,-111.6416,475.0,192.0,269.8,9.3,-1.1,17.67,26.68,713.3275,140.0097],
    [13864,1525552029,57.301,-111.6426,471.7,188.7,269.8,9.0,-1.4,18.02,26.14,713.2648,140.0039],
    [13865,1525552030,57.301,-111.6436,467.5,184.5,271.5,9.1,-2.7,17.82,26.53,713.2489,140.0033],
    [13866,1525552031,57.301,-111.6446,464.1,182.1,272.7,9.3,-3.2,18.08,25.97,713.2538,140.003],
    [13867,1525552032,57.301,-111.6456,462.4,180.4,273.8,10.2,-4.3,17.99,26.3,713.3499,140.0024],
    [13868,1525552033,57.301,-111.6466,461.9,179.9,273.9,9.9,-4.1,17.31,26.04,713.4025,139.9988],
    [13869,1525552034,57.301,-111.6476,462.5,181.5,272.9,10.1,-3.4,17.96,26.7,713.5125,140.0004],
    [13870,1525552035,57.301,-111.6486,462.9,181.9,273.9,9.4,-4.7,17.96,26.23,713.617,140.0022],
    [13871,1525552036,57.301,-111.6495,462.8,181.8,273.6,9.3,-4.5,18.42,25.47,713.7485,140.0002],
    [13872,1525552037,57.301,-111.6505,462.1,181.4,273.1,9.3,-4.1,18.24,25.68,713.894,140.0021],
    [13873,1525552038,57.301,-111.6515,461.1,181.4,273.4,9.4,-4.8,17.84,25.74,714.3389,140.0021],
    [13874,1525552039,57.3009,-111.6525,459.9,181.2,272.6,9.7,-4.5,17.81,26.02,714.7342,140.0012],
    [13875,1525552040,57.3009,-111.6534,458.7,181.7,271.8,9.5,-4.6,18.11,25.93,715.0718,140.0029],
    [13876,1525552041,57.3009,-111.6544,457.1,180.9,271.2,8.4,-4.7,18.3,25.75,715.2525,140.0008],
    [13877,1525552042,57.3009,-111.6554,454.2,180.3,270.2,8.7,-4.4,17.58,26.01,715.5273,139.9983],
    [13878,1525552043,57.3008,-111.6564,450.3,177.5,270.3,8.4,-5.3,18.54,25.58,715.7149,139.9991],
    [13879,1525552044,57.3008,-111.6574,446.9,175.2,269.7,8.1,-4.9,17.99,26.05,715.742,140.0049],
    [13880,1525552045,57.3007,-111.6583,443.6,173.4,269.3,8.1,-4.5,17.97,25.66,715.8421,140.0051],
    [13881,1525552046,57.3007,-111.6594,439.6,172.9,270.0,8.0,-4.9,18.0,25.66,715.8961,139.9994],
    [13882,1525552047,57.3006,-111.6603,436.5,175.1,270.8,7.2,-5.1,18.08,25.68,715.9672,140.0095],
    [13883,1525552048,57.3006,-111.6614,434.3,179.9,271.1,7.8,-4.6,17.75,25.49,715.947,140.0005],
    [13884,1525552049,57.3006,-111.6622,433.6,186.9,271.7,7.8,-4.8,18.29,25.27,715.917,139.9974],
    [13885,1525552050,57.3006,-111.6632,432.8,191.5,272.0,7.5,-4.7,17.64,25.72,715.8831,139.9989],
    [13886,1525552051,57.3005,-111.6643,431.7,193.7,272.5,7.6,-5.3,18.12,25.52,715.7278,139.9984],
    [13887,1525552052,57.3005,-111.6654,430.8,193.8,273.1,8.0,-5.6,18.77,25.2,715.7424,139.996],
    [13888,1525552053,57.3005,-111.6663,430.7,194.7,272.6,8.1,-5.2,18.13,25.62,715.7108,140.0026],
    [13889,1525552054,57.3005,-111.6673,431.1,194.8,273.2,7.7,-5.6,18.29,25.41,715.6069,140.0094],
    [13890,1525552055,57.3005,-111.6684,431.8,194.8,273.3,7.6,-5.4,18.52,25.3,715.5495,139.994],
    [13891,1525552056,57.3005,-111.6693,432.6,195.6,273.3,7.6,-5.1,17.63,25.48,715.5839,139.9949],
    [13892,1525552057,57.3005,-111.6704,433.2,196.2,274.1,7.6,-5.6,18.12,25.29,715.7674,139.9921],
    [13893,1525552058,57.3004,-111.6714,433.4,196.4,274.4,7.6,-5.4,18.34,25.33,715.8196,140.0016],
    [13894,1525552059,57.3004,-111.6723,434.2,197.2,274.0,7.2,-4.6,18.11,25.44,715.8721,140.0017],
    [13895,1525552060,57.3004,-111.6733,434.9,197.9,273.6,7.7,-4.6,18.43,25.23,716.019,140.0023],
    [13896,1525552061,57.3004,-111.6743,434.7,198.7,273.5,8.6,-4.7,18.22,25.49,716.1202,140.0016],
    [13897,1525552062,57.3004,-111.6753,433.9,196.9,273.2,8.4,-4.4,17.67,25.45,716.1397,140.0033],
    [13898,1525552063,57.3004,-111.6763,432.7,193.7,273.3,8.4,-4.7,18.68,25.26,716.0812,140.0001],
    [13899,1525552064,57.3004,-111.6773,431.4,188.4,273.4,7.8,-5.0,18.29,25.77,715.9985,140.0009],
    [13900,1525552065,57.3004,-111.6784,430.1,182.5,273.0,7.7,-4.5,18.32,25.21,715.9633,139.9961],
    [13901,1525552066,57.3004,-111.6794,428.9,178.1,272.4,8.0,-3.6,18.34,25.6,715.9368,140.0039],
    [13902,1525552067,57.3004,-111.6804,428.6,176.6,272.2,7.6,-3.3,18.62,25.01,715.8913,140.0028],
    [13903,1525552068,57.3004,-111.6813,429.0,181.0,273.0,7.6,-4.0,17.85,25.23,715.8347,139.9971],
    [13904,1525552069,57.3004,-111.6824,429.9,186.3,273.3,7.4,-4.0,18.69,24.94,715.6924,140.0],
    [13905,1525552070,57.3004,-111.6834,430.5,189.6,272.9,7.8,-3.7,17.81,25.11,715.7916,139.9989],
    [13906,1525552071,57.3004,-111.6844,431.1,191.0,273.1,7.5,-4.0,18.74,24.58,715.8242,140.0053],
    [13907,1525552072,57.3004,-111.6854,431.6,193.6,272.6,8.3,-3.9,18.45,25.14,715.817,140.0006],
    [13908,1525552073,57.3004,-111.6864,431.8,194.8,273.8,7.3,-5.5,19.0,24.79,715.753,139.9998],
    [13909,1525552074,57.3004,-111.6874,432.3,194.0,273.5,8.6,-4.8,18.75,25.39,715.6243,140.0049],
    [13910,1525552075,57.3004,-111.6884,432.5,188.8,273.3,9.1,-4.7,19.24,24.75,715.5455,140.0],
    [13911,1525552076,57.3004,-111.6894,432.2,182.9,273.7,8.5,-5.0,18.43,25.32,715.3783,140.0026],
    [13912,1525552077,57.3004,-111.6903,432.3,173.3,273.4,9.2,-4.8,18.58,24.97,715.3373,139.9991],
    [13913,1525552078,57.3003,-111.6914,432.8,166.8,274.2,8.9,-5.5,18.84,25.13,715.2249,139.9984],
    [13914,1525552079,57.3003,-111.6924,433.7,161.4,273.7,8.9,-4.9,18.94,24.68,715.2182,140.002],
    [13915,1525552080,57.3003,-111.6934,435.4,159.7,274.0,8.8,-5.4,18.81,24.71,715.084,140.0028],
    [13916,1525552081,57.3003,-111.6944,436.9,159.9,274.0,8.8,-5.2,18.72,24.72,715.0193,140.0022],
    [13917,1525552082,57.3003,-111.6954,438.2,160.2,273.3,8.9,-4.6,18.42,25.12,714.9555,139.9972],
    [13918,1525552083,57.3003,-111.6963,439.2,160.2,273.4,8.9,-5.0,18.83,24.78,714.8285,139.9981],
    [13919,1525552084,57.3003,-111.6973,440.0,159.7,273.0,8.8,-4.8,18.74,24.66,714.7368,140.0011],
    [13920,1525552085,57.3003,-111.6982,441.0,158.9,272.4,8.5,-4.3,18.64,24.57,714.5977,140.0026],
    [13921,1525552086,57.3003,-111.6992,441.8,158.9,271.9,8.7,-4.1,18.52,25.13,714.5852,140.0007],
    [13922,1525552087,57.3003,-111.7001,442.3,157.2,272.5,9.1,-4.8,18.44,25.5,714.576,140.0024],
    [13923,1525552088,57.3002,-111.7011,443.2,157.3,271.3,9.3,-3.4,18.43,25.36,714.516,140.0008],
    [13924,1525552089,57.3002,-111.7021,444.8,156.8,271.4,9.9,-3.9,18.82,24.98,714.5501,139.9967],
    [13925,1525552090,57.3002,-111.703,446.5,158.5,271.9,9.7,-4.6,19.02,24.65,714.662,140.0019],
    [13926,1525552091,57.3002,-111.704,447.4,158.4,270.2,9.7,-3.2,18.26,25.21,714.6575,139.9994],
    [13927,1525552092,57.3002,-111.7049,447.8,158.8,269.2,8.4,-2.3,18.53,25.28,714.6197,139.9994],
    [13928,1525552093,57.3001,-111.7059,448.2,159.2,268.7,8.4,-1.6,19.0,24.73,714.6275,140.0091],
    [13929,1525552094,57.3001,-111.7068,447.8,157.8,270.2,8.6,-2.7,18.57,25.3,714.5134,139.9972],
    [13930,1525552095,57.3001,-111.7078,447.1,157.1,271.2,8.4,-3.2,18.9,24.45,714.5127,139.999],
    [13931,1525552096,57.3001,-111.7087,446.7,156.7,270.7,8.5,-2.7,18.64,25.22,714.5593,140.0012],
    [13932,1525552097,57.3001,-111.7096,446.8,156.8,270.5,8.9,-2.9,19.0,24.59,714.6465,140.001],
    [13933,1525552098,57.3,-111.7106,447.2,157.2,270.5,8.5,-3.4,18.43,24.96,714.8462,140.0032],
    [13934,1525552099,57.3,-111.7115,447.9,157.9,269.2,8.5,-2.6,18.58,25.51,714.9358,140.0016],
    [13935,1525552100,57.3,-111.7125,448.2,157.2,268.9,9.4,-2.5,18.81,24.82,714.9162,140.0046],
    [13936,1525552101,57.2999,-111.7134,447.7,156.7,269.5,9.1,-3.0,18.89,25.05,714.8837,139.9984],
    [13937,1525552102,57.2999,-111.7144,446.6,155.6,270.6,9.0,-3.8,18.44,25.3,714.9157,140.0056],
    [13938,1525552103,57.2999,-111.7153,445.1,154.1,270.9,9.0,-3.8,18.34,25.72,714.908,140.0033],
    [13939,1525552104,57.2999,-111.7162,443.6,152.6,270.8,8.4,-3.7,19.14,24.82,714.6049,140.0022],
    [13940,1525552105,57.2998,-111.7172,443.5,152.5,270.7,7.7,-3.3,18.54,25.34,714.5139,140.0028],
    [13941,1525552106,57.2998,-111.7181,443.7,152.5,270.4,8.4,-2.9,18.57,25.33,714.4631,139.9962],
    [13942,1525552107,57.2998,-111.7191,443.8,151.8,270.0,7.8,-2.7,18.54,25.2,714.2846,140.0048],
    [13943,1525552108,57.2998,-111.72,444.1,152.1,270.3,6.9,-3.2,18.28,25.27,714.2606,139.9958],
    [13944,1525552109,57.2997,-111.721,445.9,153.0,269.4,6.4,-2.3,18.42,25.74,714.2515,139.9863],
    [13945,1525552110,57.2997,-111.7219,447.6,154.6,268.7,6.3,-2.4,18.9,24.53,714.3359,139.9994],
    [13946,1525552111,57.2997,-111.7228,448.9,154.9,270.0,6.0,-4.3,18.4,25.38,714.434,140.0023],
    [13947,1525552112,57.2996,-111.7238,449.7,155.7,269.5,6.0,-3.7,18.49,25.52,714.4166,139.9999],
    [13948,1525552113,57.2996,-111.7247,450.6,155.6,268.0,6.4,-2.8,18.9,24.54,714.3221,140.0013],
    [13949,1525552114,57.2995,-111.7257,451.0,155.0,269.1,6.7,-4.0,18.39,25.68,714.1917,140.0004],
    [13950,1525552115,57.2995,-111.7267,450.5,153.5,268.8,6.2,-3.7,18.71,25.13,714.0518,139.9942],
    [13951,1525552116,57.2995,-111.7276,449.6,152.6,269.0,5.7,-4.1,18.75,25.07,714.0314,139.9999],
    [13952,1525552117,57.2994,-111.7286,449.4,151.4,268.6,6.1,-3.4,19.11,25.16,714.0278,139.9973],
    [13953,1525552118,57.2994,-111.7295,449.8,151.8,267.1,6.1,-1.7,18.93,25.1,714.0262,140.0022],
    [13954,1525552119,57.2993,-111.7304,451.1,152.1,267.2,5.9,-2.0,18.78,25.23,713.996,140.0002],
    [13955,1525552120,57.2993,-111.7315,452.6,152.5,268.7,5.4,-3.4,18.2,25.41,713.8644,139.9959],
    [13956,1525552121,57.2992,-111.7324,453.7,152.6,269.1,5.8,-3.1,18.88,25.22,713.771,140.0033],
    [13957,1525552122,57.2992,-111.7335,453.5,151.5,267.8,6.8,-1.6,19.1,24.95,713.7694,139.9996],
    [13958,1525552123,57.2992,-111.7344,452.6,150.6,267.5,6.7,-1.1,18.34,25.45,713.7752,139.9959],
    [13959,1525552124,57.2991,-111.7354,453.3,150.3,266.8,6.5,-0.9,18.74,26.08,713.8011,139.9959],
    [13960,1525552125,57.2991,-111.7364,455.2,152.2,268.6,5.9,-2.8,18.61,25.52,713.8591,139.9959],
    [13961,1525552126,57.299,-111.7373,456.6,153.6,267.1,5.8,-1.0,18.58,25.31,713.9286,139.9966],
    [13962,1525552127,57.299,-111.7383,456.9,153.9,267.2,5.4,-1.1,18.36,25.2,714.0001,140.0023],
    [13963,1525552128,57.299,-111.7393,456.8,153.8,268.1,6.0,-1.5,19.01,24.91,714.1503,139.9936],
    [13964,1525552129,57.2989,-111.7402,456.5,153.6,269.0,6.0,-1.7,18.6,25.81,714.1662,140.0106],
    [13965,1525552130,57.2989,-111.7412,455.8,153.8,270.5,5.8,-2.5,18.82,25.53,714.0233,139.9999],
    [13966,1525552131,57.2989,-111.7422,454.6,152.9,272.6,4.6,-3.0,18.11,25.42,713.6725,139.9907],
    [13967,1525552132,57.2989,-111.7432,453.7,152.7,272.4,5.7,-2.7,18.46,25.17,713.3867,139.9995],
    [13968,1525552133,57.2989,-111.7442,452.7,151.6,275.8,5.7,-6.0,18.7,25.25,713.3349,139.9985],
    [13969,1525552134,57.2989,-111.7451,451.8,150.7,276.0,4.8,-5.2,18.53,25.29,713.2714,139.9918],
    [13970,1525552135,57.2989,-111.7461,453.3,151.7,274.9,4.9,-3.6,18.59,25.26,713.25,139.9847],
    [13971,1525552136,57.299,-111.7472,456.8,154.8,275.1,5.9,-3.0,18.26,25.74,713.2701,139.994],
    [13972,1525552137,57.299,-111.7481,460.0,157.9,273.7,6.8,-1.6,18.59,25.5,713.2045,140.0063],
    [13973,1525552138,57.299,-111.7491,461.8,160.1,275.3,5.6,-3.2,18.57,25.54,713.2237,140.0113],
    [13974,1525552139,57.299,-111.7501,462.3,161.0,274.0,6.8,-2.4,18.43,25.37,713.1891,139.9896],
    [13975,1525552140,57.299,-111.751,462.4,161.4,273.2,9.8,-2.6,18.21,25.28,713.1223,139.9954],
    [13976,1525552141,57.2991,-111.752,462.2,161.2,273.2,10.4,-3.8,18.55,25.48,713.0838,140.0033],
    [13977,1525552142,57.2991,-111.7529,462.2,161.2,272.6,8.8,-3.7,18.48,25.32,712.9939,139.9946],
    [13978,1525552143,57.299,-111.7539,461.9,160.9,271.3,8.9,-2.7,18.0,25.45,713.0321,140.0104],
    [13979,1525552144,57.299,-111.7548,462.4,160.4,273.8,8.7,-4.8,18.82,24.81,713.1324,139.9991],
    [13980,1525552145,57.299,-111.7559,463.6,161.6,275.1,8.8,-5.2,18.63,25.68,713.1998,139.9913],
    [13981,1525552146,57.299,-111.7569,464.6,162.6,274.6,9.2,-4.6,18.61,24.92,713.2495,139.9944],
    [13982,1525552147,57.2991,-111.7578,464.9,162.9,274.1,9.2,-4.2,18.81,24.66,713.273,140.0087],
    [13983,1525552148,57.2991,-111.7588,464.8,162.8,273.2,9.0,-3.4,18.44,25.65,713.2953,139.9987],
    [13984,1525552149,57.2991,-111.7598,464.1,162.1,272.7,10.0,-3.0,18.19,25.2,713.2772,140.0055],
    [13985,1525552150,57.2991,-111.7607,463.2,161.2,273.7,10.7,-4.0,18.61,25.32,713.1468,139.9997],
    [13986,1525552151,57.2991,-111.7617,462.1,160.1,274.5,10.7,-4.2,18.2,25.17,712.8705,140.0033],
    [13987,1525552152,57.2991,-111.7627,461.5,158.5,273.7,11.0,-2.8,18.78,24.46,712.8489,140.0053],
    [13988,1525552153,57.2991,-111.7637,461.2,157.2,274.5,10.5,-3.4,18.76,24.8,712.7514,139.9968],
    [13989,1525552154,57.2991,-111.7646,461.8,156.8,273.5,10.8,-2.7,18.71,24.75,712.7097,139.9978],
    [13990,1525552155,57.2991,-111.7656,463.1,158.1,272.4,10.8,-2.1,18.8,24.56,713.0831,139.9922],
    [13991,1525552156,57.2991,-111.7665,465.1,159.1,272.7,10.1,-2.4,19.08,24.38,713.1548,139.9972],
    [13992,1525552157,57.2991,-111.7675,467.0,161.0,273.5,9.3,-3.2,18.55,25.49,713.2033,139.9999],
    [13993,1525552158,57.2992,-111.7684,467.9,162.9,275.0,8.2,-4.7,18.9,24.26,713.0991,139.9985],
    [13994,1525552159,57.2992,-111.7694,467.8,162.8,274.7,9.3,-4.6,18.5,24.69,713.0167,139.9899],
    [13995,1525552160,57.2992,-111.7704,465.9,160.9,273.7,8.8,-4.3,19.02,24.53,713.0418,139.998],
    [13996,1525552161,57.2992,-111.7713,463.8,159.8,272.6,9.7,-3.6,18.68,24.86,713.1934,139.994],
    [13997,1525552162,57.2992,-111.7723,463.1,159.1,271.5,10.1,-3.4,18.45,24.73,713.199,139.9973],
    [13998,1525552163,57.2991,-111.7733,464.2,160.2,272.1,9.5,-4.3,18.23,24.72,713.4845,140.013],
    [13999,1525552164,57.2991,-111.7742,465.7,161.7,271.5,9.5,-3.8,18.59,24.76,713.6456,140.0008],
    [14000,1525552165,57.2991,-111.7752,465.3,161.3,272.1,9.5,-4.4,18.59,24.46,713.6001,140.0036],
    [14001,1525552166,57.2991,-111.7761,463.8,158.8,272.6,9.7,-4.7,18.88,24.4,713.3954,139.9943],
    [14002,1525552167,57.2991,-111.7771,462.2,157.2,273.1,9.3,-4.7,19.16,23.73,713.251,140.0046],
    [14003,1525552168,57.2991,-111.778,460.0,154.0,273.2,8.3,-4.0,18.87,24.77,713.2233,139.9994],
    [14004,1525552169,57.2991,-111.779,458.0,151.0,273.7,8.0,-3.9,18.86,24.23,713.3339,140.0],
    [14005,1525552170,57.2991,-111.78,458.1,151.1,274.1,8.9,-3.9,19.24,24.08,713.3755,140.0032],
    [14006,1525552171,57.2991,-111.7809,459.1,151.1,274.3,10.2,-4.1,18.41,24.38,713.4533,139.9941],
    [14007,1525552172,57.2991,-111.782,461.2,153.3,274.3,11.0,-4.0,19.31,24.1,713.5259,140.005],
    [14008,1525552173,57.2991,-111.7829,462.1,153.1,273.9,10.3,-3.4,18.72,24.53,713.7158,139.9968],
    [14009,1525552174,57.2991,-111.7838,461.4,151.7,273.5,10.8,-2.9,18.46,24.82,713.8542,140.002],
    [14010,1525552175,57.2991,-111.7848,460.7,150.7,273.4,10.7,-3.2,18.93,23.7,713.9951,140.0006],
    [14011,1525552176,57.2991,-111.7858,460.1,149.1,274.7,10.0,-4.6,18.51,24.16,714.0657,140.0016],
    [14012,1525552177,57.2991,-111.7867,459.4,148.4,274.1,9.3,-3.6,18.5,24.09,714.1076,140.0018],
    [14013,1525552178,57.2992,-111.7876,458.2,146.5,273.4,8.9,-2.8,18.45,24.35,714.1271,140.0012],
    [14014,1525552179,57.2992,-111.7886,455.9,143.9,273.6,9.0,-2.8,18.58,25.16,714.1654,140.0106],
    [14015,1525552180,57.2992,-111.7895,454.2,143.2,273.3,9.1,-2.5,18.62,24.83,714.1404,139.9959],
    [14016,1525552181,57.2992,-111.7905,453.1,142.1,273.5,8.6,-2.8,18.81,24.05,714.0463,140.0],
    [14017,1525552182,57.2992,-111.7915,452.5,141.2,273.6,8.5,-3.1,19.36,23.87,713.9948,140.0002],
    [14018,1525552183,57.2992,-111.7924,452.3,140.3,273.6,8.6,-3.0,19.16,24.0,714.0598,139.9983],
    [14019,1525552184,57.2992,-111.7934,452.0,140.0,272.8,8.0,-2.6,18.56,24.22,714.0393,140.0045],
    [14020,1525552185,57.2992,-111.7944,452.1,140.1,273.5,7.2,-3.8,18.83,23.84,713.8896,139.9998],
    [14021,1525552186,57.2992,-111.7953,452.9,140.9,272.5,7.4,-3.0,18.45,24.11,713.9283,139.9925],
    [14022,1525552187,57.2992,-111.7963,453.5,141.5,272.2,7.3,-3.2,18.85,24.26,713.9768,139.9928],
    [14023,1525552188,57.2992,-111.7973,453.6,141.0,272.3,6.8,-3.7,19.31,23.99,714.0233,139.9958],
    [14024,1525552189,57.2992,-111.7983,453.8,140.8,272.2,6.8,-3.9,19.01,23.98,714.0912,140.0029],
    [14025,1525552190,57.2992,-111.7992,454.8,141.8,271.5,5.8,-3.6,18.69,24.64,714.0968,139.995],
    [14026,1525552191,57.2992,-111.8002,455.1,142.1,271.6,6.1,-4.2,18.69,24.46,714.1021,140.0024],
    [14027,1525552192,57.2991,-111.8011,454.5,141.2,270.5,6.7,-3.9,18.64,24.53,714.1024,139.9928],
    [14028,1525552193,57.2991,-111.8021,453.5,139.5,269.5,7.7,-3.7,18.26,24.52,714.2061,139.9939],
    [14029,1525552194,57.2991,-111.8029,452.9,138.9,269.0,7.4,-3.9,19.06,24.17,714.2479,139.9986],
    [14030,1525552195,57.299,-111.804,452.7,138.4,268.5,6.8,-4.1,18.61,24.48,714.3462,139.9991],
    [14031,1525552196,57.299,-111.8049,452.4,137.4,267.7,6.8,-3.8,18.66,24.85,714.407,140.003],
    [14032,1525552197,57.2989,-111.8059,452.1,136.4,268.3,7.1,-4.6,19.09,24.2,714.4141,140.0053],
    [14033,1525552198,57.2988,-111.8069,451.3,135.3,269.4,7.4,-5.0,18.49,24.83,714.3143,140.0045],
    [14034,1525552199,57.2988,-111.8079,450.5,135.5,269.2,7.9,-3.9,19.09,23.8,714.046,139.9999],
    [14035,1525552200,57.2988,-111.8089,449.6,134.6,270.8,7.9,-4.7,18.72,24.24,713.6468,139.9971],
    [14036,1525552201,57.2987,-111.8098,448.9,134.9,271.6,7.1,-4.5,18.81,24.66,713.296,140.001],
    [14037,1525552202,57.2987,-111.8107,448.8,134.8,271.3,7.3,-3.7,18.76,24.44,713.121,139.9985],
    [14038,1525552203,57.2987,-111.8118,450.0,136.0,272.5,6.9,-4.3,18.89,24.79,712.6908,140.0006],
    [14039,1525552204,57.2987,-111.8127,452.8,138.8,272.6,6.4,-4.1,18.7,24.76,712.5402,139.998],
    [14040,1525552205,57.2987,-111.8137,456.9,141.9,273.7,6.5,-4.9,18.53,24.45,712.2344,140.0008],
    [14041,1525552206,57.2987,-111.8147,460.6,145.6,273.2,7.2,-4.2,18.76,24.52,712.1496,140.0023],
    [14042,1525552207,57.2987,-111.8155,464.2,148.2,272.7,7.8,-3.6,18.59,24.63,712.0064,139.9959],
    [14043,1525552208,57.2987,-111.8165,467.9,151.6,272.7,7.4,-3.5,18.6,25.22,711.8539,140.0008],
    [14044,1525552209,57.2986,-111.8174,471.0,154.0,273.2,7.1,-4.1,18.79,24.33,711.5422,139.9991],
    [14045,1525552210,57.2986,-111.8184,474.0,156.0,273.5,6.3,-4.3,18.88,24.68,711.3557,140.0009],
    [14046,1525552211,57.2986,-111.8193,476.6,158.6,272.6,6.5,-3.6,19.22,24.62,711.1573,140.0039],
    [14047,1525552212,57.2986,-111.8202,478.6,159.6,272.4,6.9,-3.5,19.2,24.47,711.0262,139.9955],
    [14048,1525552213,57.2986,-111.8211,480.2,161.2,272.2,7.0,-3.2,18.73,24.71,710.7937,140.001],
    [14049,1525552214,57.2986,-111.8221,482.0,162.0,271.9,7.4,-2.9,18.29,25.15,710.7614,139.9905],
    [14050,1525552215,57.2986,-111.823,484.7,164.7,271.7,7.1,-2.6,19.0,24.46,710.7402,140.0027],
    [14051,1525552216,57.2986,-111.8239,487.7,167.7,272.1,6.9,-3.5,18.37,25.46,710.7684,139.9985],
    [14052,1525552217,57.2986,-111.8248,489.9,169.9,274.1,6.3,-5.3,18.6,24.96,710.8381,139.992],
    [14053,1525552218,57.2986,-111.8257,491.5,171.5,273.5,5.3,-3.7,18.43,25.21,710.6999,140.0037],
    [14054,1525552219,57.2986,-111.8267,492.8,172.8,273.9,5.6,-3.6,18.35,25.28,710.8028,139.9996],
    [14055,1525552220,57.2986,-111.8276,492.8,172.8,275.7,6.2,-4.7,18.53,25.38,710.9359,139.9998],
    [14056,1525552221,57.2986,-111.8285,492.3,172.3,274.8,7.3,-4.0,18.76,25.31,710.7963,140.0026],
    [14057,1525552222,57.2986,-111.8295,492.0,171.0,275.8,7.4,-5.2,18.23,25.39,710.6855,139.9929],
    [14058,1525552223,57.2986,-111.8304,492.4,171.4,274.7,7.0,-4.2,19.0,25.17,710.6305,140.0007],
    [14059,1525552224,57.2986,-111.8313,492.0,171.0,273.5,6.8,-3.6,18.51,26.21,710.7562,139.9899],
    [14060,1525552225,57.2986,-111.8323,491.3,170.0,273.7,5.9,-3.9,18.61,25.94,710.8846,140.0048],
    [14061,1525552226,57.2986,-111.8333,491.6,169.6,271.9,6.8,-1.8,18.72,26.26,710.662,139.9986],
    [14062,1525552227,57.2986,-111.8342,492.2,169.5,273.2,6.7,-2.8,18.6,25.83,710.4269,139.9783],
    [14063,1525552228,57.2987,-111.8351,492.3,169.3,273.2,7.2,-1.6,18.68,25.93,710.3533,140.0088],
    [14064,1525552229,57.2987,-111.8361,492.4,169.4,273.6,7.8,-1.8,19.16,25.04,710.2725,140.0019],
    [14065,1525552230,57.2987,-111.8371,491.8,168.8,275.7,6.7,-3.1,18.42,26.01,710.4008,139.9831],
    [14066,1525552231,57.2987,-111.838,492.7,169.7,273.5,7.7,-0.4,18.69,26.38,710.3742,139.9957],
    [14067,1525552232,57.2988,-111.839,494.4,171.4,274.8,8.0,-2.2,18.64,26.04,710.4115,139.9978],
    [14068,1525552233,57.2988,-111.84,496.2,173.2,274.5,7.1,-1.4,18.24,25.56,710.4035,140.0023],
    [14069,1525552234,57.2988,-111.841,497.1,174.1,272.7,6.8,-1.0,18.84,25.31,710.2844,139.999],
    [14070,1525552235,57.2988,-111.842,496.6,172.6,275.0,7.3,-4.1,18.5,25.37,710.2008,139.9956],
    [14071,1525552236,57.2989,-111.843,495.7,171.7,271.5,8.8,-0.8,18.52,25.61,710.1352,140.0028],
    [14072,1525552237,57.2989,-111.844,495.5,171.5,270.6,8.9,-0.5,18.69,25.62,710.2149,140.0059],
    [14073,1525552238,57.2989,-111.845,495.5,170.5,271.6,8.3,-1.5,18.98,24.53,710.2276,140.0058],
    [14074,1525552239,57.2989,-111.846,496.8,171.8,271.1,8.5,-1.0,18.59,25.14,710.2773,139.993],
    [14075,1525552240,57.2989,-111.847,497.9,172.9,271.7,8.9,-1.0,18.65,25.21,710.3393,140.0027],
    [14076,1525552241,57.2989,-111.848,498.7,173.7,272.1,9.0,-0.7,18.26,25.07,710.3001,140.0061],
    [14077,1525552242,57.2989,-111.849,498.6,173.4,273.4,8.8,-1.1,18.51,25.15,710.1561,139.9948],
    [14078,1525552243,57.2989,-111.85,498.2,172.2,273.6,8.7,-0.3,19.35,24.42,710.0395,140.0013],
    [14079,1525552244,57.299,-111.851,497.7,171.0,275.0,9.0,-1.3,18.6,25.02,709.901,139.9933],
    [14080,1525552245,57.299,-111.852,496.8,169.9,276.1,8.0,-1.5,18.34,25.11,709.7317,140.0085],
    [14081,1525552246,57.2991,-111.853,496.2,168.2,275.1,8.7,-0.1,18.36,24.84,709.6273,139.9974],
    [14082,1525552247,57.2991,-111.854,496.7,167.7,275.4,7.1,-0.5,18.82,25.17,709.5357,140.0034],
    [14083,1525552248,57.2992,-111.8549,499.1,170.1,275.7,7.6,-1.4,18.8,25.28,709.4773,139.9999],
    [14084,1525552249,57.2992,-111.8559,501.2,172.2,276.1,7.8,-2.0,18.52,24.69,709.51,139.9986],
    [14085,1525552250,57.2993,-111.8569,503.3,173.3,274.8,8.9,-0.8,18.67,24.78,709.4322,139.9971],
    [14086,1525552251,57.2993,-111.8579,505.0,175.0,274.1,9.0,-0.2,18.81,24.88,709.4169,139.9973],
    [14087,1525552252,57.2994,-111.8589,506.1,176.1,274.6,8.3,-1.1,18.17,24.65,709.4403,139.9932],
    [14088,1525552253,57.2994,-111.8598,507.0,176.0,274.1,7.8,-0.9,19.0,24.31,709.5592,140.0054],
    [14089,1525552254,57.2994,-111.8607,507.2,176.2,272.5,8.0,0.4,18.77,24.8,709.7196,139.9977],
    [14090,1525552255,57.2995,-111.8618,507.5,176.5,270.6,8.2,1.5,18.56,24.84,709.8724,139.9992],
    [14091,1525552256,57.2995,-111.8627,508.1,177.1,270.3,8.0,1.0,19.11,24.79,710.0131,140.0016],
    [14092,1525552257,57.2995,-111.8637,507.8,175.8,271.5,7.6,-0.5,18.49,24.85,710.0021,139.9993],
    [14093,1525552258,57.2995,-111.8647,506.6,174.6,270.6,7.5,0.3,19.07,24.27,709.9433,140.0001],
    [14094,1525552259,57.2995,-111.8657,504.9,171.9,270.3,7.2,0.5,18.73,24.39,709.9064,139.9899],
    [14095,1525552260,57.2995,-111.8666,502.6,169.6,271.2,7.4,-0.2,19.07,24.02,709.9325,140.0019],
    [14096,1525552261,57.2995,-111.8676,500.8,166.8,271.8,7.6,-0.5,18.65,25.09,709.931,139.9988],
    [14097,1525552262,57.2995,-111.8686,500.6,165.6,271.1,8.2,0.1,18.75,25.08,709.9104,140.0],
    [14098,1525552263,57.2995,-111.8696,501.1,165.1,271.2,8.0,-0.5,18.85,24.89,709.9185,140.009],
    [14099,1525552264,57.2995,-111.8705,501.5,165.5,271.6,8.7,-1.2,18.74,25.39,710.0024,139.9924],
    [14100,1525552265,57.2996,-111.8715,501.5,165.5,271.7,9.0,-1.1,18.66,25.04,710.0086,140.0],
    [14101,1525552266,57.2996,-111.8725,501.4,165.4,269.5,8.4,1.4,18.71,24.57,710.0012,140.0003],
    [14102,1525552267,57.2996,-111.8735,501.1,166.1,269.4,8.1,1.9,18.73,24.47,709.9144,140.0011],
    [14103,1525552268,57.2996,-111.8745,501.1,166.1,270.6,8.2,0.9,18.62,24.93,709.9639,139.9949],
    [14104,1525552269,57.2996,-111.8754,500.7,165.7,272.9,8.6,-0.9,18.35,24.8,709.9774,139.9925],
    [14105,1525552270,57.2996,-111.8764,500.3,165.3,273.0,10.1,-0.1,18.44,24.55,709.9763,139.9919],
    [14106,1525552271,57.2997,-111.8773,500.6,165.6,273.3,9.3,0.7,18.75,25.33,710.0159,140.0046],
    [14107,1525552272,57.2997,-111.8783,501.4,165.4,274.0,8.3,1.1,18.49,24.69,710.0347,140.0009],
    [14108,1525552273,57.2998,-111.8793,501.7,165.4,275.2,7.5,0.4,18.65,24.65,709.9697,140.0018],
    [14109,1525552274,57.2998,-111.8803,501.2,164.2,276.3,8.3,-1.1,18.89,24.33,710.1975,139.9992],
    [14110,1525552275,57.2999,-111.8813,500.9,163.9,276.2,8.8,-1.3,18.51,24.92,710.218,140.0084],
    [14111,1525552276,57.2999,-111.8822,501.1,163.1,274.3,7.8,0.2,18.62,24.79,710.1582,139.9959],
    [14112,1525552277,57.3,-111.8832,501.0,162.8,272.8,7.5,1.1,18.9,24.49,710.1399,140.0073],
    [14113,1525552278,57.3,-111.8841,500.9,161.8,272.1,8.0,1.1,18.27,24.68,710.01,139.9918],
    [14114,1525552279,57.3,-111.885,500.0,160.8,272.2,6.9,0.0,18.67,24.87,709.8755,140.0053],
    [14115,1525552280,57.3001,-111.8861,498.8,159.5,271.5,5.8,0.1,18.5,25.45,709.8589,139.9868],
    [14116,1525552281,57.3001,-111.887,499.0,159.7,269.1,6.6,1.2,18.37,24.85,709.8316,140.0031],
    [14117,1525552282,57.3001,-111.888,499.9,159.8,269.5,6.0,-0.1,18.67,25.13,709.8756,140.0009],
    [14118,1525552283,57.3001,-111.8889,501.0,161.7,269.1,6.7,-0.1,18.3,25.07,709.8107,140.0005],
    [14119,1525552284,57.3,-111.8899,502.1,163.1,267.3,6.7,1.7,18.71,24.89,709.7589,139.9965],
    [14120,1525552285,57.3,-111.8909,502.7,162.9,268.1,7.6,1.0,18.16,24.88,709.6272,140.0046],
    [14121,1525552286,57.3,-111.8919,503.4,162.7,269.9,6.4,-0.4,18.57,24.55,709.5427,140.0006],
    [14122,1525552287,57.3,-111.8929,503.0,161.0,271.6,6.2,-1.4,18.72,24.71,709.3884,140.0051],
    [14123,1525552288,57.3,-111.8939,503.0,161.0,272.6,6.7,-2.3,18.77,24.82,709.3932,139.9972],
    [14124,1525552289,57.3,-111.8948,503.2,160.2,273.8,5.7,-2.8,18.28,24.99,709.351,140.0093],
    [14125,1525552290,57.3001,-111.8958,504.4,161.4,271.0,6.7,0.0,18.64,25.6,709.157,140.0028],
    [14126,1525552291,57.3001,-111.8967,506.0,162.0,271.1,7.2,-1.2,18.88,25.08,708.79,139.9956],
    [14127,1525552292,57.3001,-111.8977,507.9,163.9,272.3,5.8,-2.7,18.07,25.15,708.3563,139.9926],
    [14128,1525552293,57.3001,-111.8987,508.9,164.9,271.8,5.7,-2.3,18.76,24.72,708.4343,139.9975],
    [14129,1525552294,57.3001,-111.8997,509.5,165.5,271.2,6.1,-1.3,18.6,25.78,708.3417,140.0025],
    [14130,1525552295,57.3001,-111.9007,510.7,166.7,269.9,6.9,-0.4,18.71,25.32,708.2854,139.9957],
    [14131,1525552296,57.3,-111.9016,513.3,169.3,269.3,8.1,0.0,19.04,24.8,708.3009,139.9964],
    [14132,1525552297,57.3,-111.9026,517.7,172.7,267.5,9.5,1.2,18.91,24.86,708.3595,140.0029],
    [14133,1525552298,57.3,-111.9035,520.0,173.9,269.6,9.0,-1.3,18.67,25.74,708.4064,139.9957],
    [14134,1525552299,57.3,-111.9046,520.8,174.8,267.4,7.6,0.3,18.21,25.0,708.3899,140.0032],
    [14135,1525552300,57.3,-111.9055,521.8,176.8,266.8,8.3,0.7,18.81,24.8,708.3704,140.0087],
    [14136,1525552301,57.2999,-111.9064,521.7,176.7,267.7,8.8,-0.1,18.42,25.4,708.3693,140.001],
    [14137,1525552302,57.2999,-111.9074,521.3,176.3,268.4,8.1,-0.4,18.95,25.06,708.226,139.9984],
    [14138,1525552303,57.2999,-111.9084,521.0,176.0,269.1,7.6,-0.8,18.88,24.57,708.2223,139.9915],
    [14139,1525552304,57.2999,-111.9093,520.8,175.8,269.7,7.1,-1.0,18.56,25.35,708.0354,139.9946],
    [14140,1525552305,57.2999,-111.9103,520.1,174.1,269.8,7.1,-0.5,18.6,25.15,707.9703,139.9989],
    [14141,1525552306,57.2999,-111.9112,520.1,174.1,270.7,6.1,-0.8,18.24,24.89,707.76,139.9911],
    [14142,1525552307,57.2999,-111.9122,522.0,176.0,273.3,5.2,-3.2,18.33,25.1,707.6421,140.0005],
    [14143,1525552308,57.2999,-111.9131,523.0,177.0,274.7,5.7,-3.3,18.61,25.63,707.3788,140.0095],
    [14144,1525552309,57.2999,-111.9141,524.2,178.2,272.6,7.4,-0.3,18.32,24.89,707.1028,139.9879],
    [14145,1525552310,57.2999,-111.9151,524.7,177.7,272.3,9.3,0.2,19.28,24.76,707.0291,139.9921],
    [14146,1525552311,57.3,-111.916,526.4,179.4,273.0,10.8,-0.4,18.62,25.21,707.1203,139.9931],
    [14147,1525552312,57.3,-111.9169,528.6,180.6,274.5,10.3,-1.6,18.55,25.3,707.2661,140.0058],
    [14148,1525552313,57.3,-111.9178,531.8,182.8,273.9,9.0,-0.2,18.29,25.09,707.2128,140.0071],
    [14149,1525552314,57.3001,-111.9188,534.8,185.8,273.6,7.9,-0.7,18.39,25.04,707.2311,139.996],
    [14150,1525552315,57.3001,-111.9197,536.5,187.2,276.0,8.7,-3.0,18.51,25.16,707.1966,140.0051],
    [14151,1525552316,57.3001,-111.9207,536.0,186.0,275.1,9.2,-2.3,18.82,24.85,707.0625,139.9993],
    [14152,1525552317,57.3002,-111.9216,534.7,184.7,274.7,8.8,-2.2,18.45,25.29,706.9753,140.0028],
    [14153,1525552318,57.3002,-111.9225,534.4,183.4,274.4,8.5,-2.3,18.11,25.19,706.8253,139.9969],
    [14154,1525552319,57.3002,-111.9235,534.6,183.6,273.5,8.6,-2.1,19.15,24.82,706.9287,139.9965],
    [14155,1525552320,57.3002,-111.9244,535.0,183.1,273.1,8.5,-2.2,18.25,25.24,706.9728,139.9976],
    [14156,1525552321,57.3002,-111.9253,536.1,184.1,271.8,9.1,-1.4,18.61,25.26,707.0248,139.994],
    [14157,1525552322,57.3002,-111.9262,537.6,184.9,271.4,9.0,-1.6,18.65,25.35,707.028,139.999],
    [14158,1525552323,57.3002,-111.9272,539.0,186.1,271.2,8.2,-1.7,18.33,25.4,707.1201,140.0062],
    [14159,1525552324,57.3002,-111.9281,538.9,184.9,270.3,8.1,-1.0,18.12,25.3,707.1071,139.9974],
    [14160,1525552325,57.3002,-111.9291,538.0,183.9,269.9,8.2,-0.7,18.14,25.39,707.0031,139.997],
    [14161,1525552326,57.3002,-111.9299,537.3,182.3,270.0,9.3,-0.7,18.47,25.9,706.9295,139.9921],
    [14162,1525552327,57.3002,-111.9309,536.8,180.7,270.0,9.3,-0.1,18.54,25.35,706.5166,140.0061],
    [14163,1525552328,57.3002,-111.9319,536.5,179.8,270.0,8.4,0.8,18.42,25.79,706.5107,139.994],
    [14164,1525552329,57.3002,-111.9328,536.1,179.1,271.0,7.8,0.4,18.65,25.28,706.4745,139.9964],
    [14165,1525552330,57.3002,-111.9337,536.5,178.5,272.3,8.7,0.1,18.41,25.85,706.4593,140.0034],
    [14166,1525552331,57.3003,-111.9347,537.4,179.4,272.9,10.3,0.0,18.49,25.32,706.6218,139.9912],
    [14167,1525552332,57.3003,-111.9356,539.2,180.2,272.8,10.5,0.9,18.23,25.29,706.6983,140.0066],
    [14168,1525552333,57.3003,-111.9366,541.6,181.6,274.5,11.4,-0.1,18.49,26.19,706.9325,139.9883],
    [14169,1525552334,57.3004,-111.9373,542.6,181.3,277.3,11.2,-1.7,17.81,25.71,707.1055,139.982],
    [14170,1525552335,57.3005,-111.9383,543.0,181.0,279.6,10.1,-1.4,18.33,25.51,707.4944,140.0031],
    [14171,1525552336,57.3006,-111.9393,542.0,179.0,282.9,9.2,-2.2,18.37,25.56,707.4021,139.9958],
    [14172,1525552337,57.3007,-111.9402,540.3,177.3,285.1,8.8,-1.5,18.41,25.53,707.4032,140.0016],
    [14173,1525552338,57.3009,-111.9411,537.4,174.4,287.2,10.0,-1.1,18.55,25.35,707.4924,139.9948],
    [14174,1525552339,57.301,-111.9419,534.2,171.2,291.4,11.2,-3.2,18.47,25.68,707.6376,139.9989],
    [14175,1525552340,57.3012,-111.9428,531.1,167.1,297.0,9.5,-4.6,18.38,25.51,707.7414,139.9983],
    [14176,1525552341,57.3015,-111.9436,530.8,166.8,299.7,10.8,-3.4,18.91,25.14,707.8465,140.0144],
    [14177,1525552342,57.3018,-111.9444,531.3,167.3,302.6,10.9,-3.3,18.15,25.36,707.771,140.0022],
    [14178,1525552343,57.3021,-111.9452,530.8,165.8,306.3,10.2,-3.8,18.08,25.47,707.5335,140.0017],
    [14179,1525552344,57.3024,-111.9459,529.6,163.5,308.6,10.3,-3.4,18.31,25.7,707.3169,139.9829],
    [14180,1525552345,57.3028,-111.9466,528.2,161.2,311.4,10.1,-3.3,18.43,26.27,707.3168,140.0129],
    [14181,1525552346,57.3032,-111.9473,527.2,159.2,313.8,9.1,-2.9,18.24,25.4,707.2991,139.9904],
    [14182,1525552347,57.3036,-111.9479,527.2,158.2,316.3,7.9,-3.2,18.4,26.22,707.1422,140.0052],
    [14183,1525552348,57.304,-111.9485,529.5,159.7,318.2,6.5,-3.5,19.04,25.14,707.1295,140.0014],
    [14184,1525552349,57.3044,-111.9491,531.3,161.3,320.0,6.5,-4.1,18.34,25.67,707.0937,139.9953],
    [14185,1525552350,57.3048,-111.9497,532.9,161.9,320.0,7.3,-2.3,19.06,25.01,706.9574,139.9956],
    [14186,1525552351,57.3052,-111.9502,533.8,162.8,321.5,7.0,-1.5,18.21,25.67,706.7175,140.0015],
    [14187,1525552352,57.3057,-111.9508,535.4,164.1,323.5,7.3,-1.6,18.93,25.16,706.6431,139.9945],
    [14188,1525552353,57.3061,-111.9512,535.5,163.5,321.6,10.2,-0.2,18.56,25.03,706.4627,139.9914],
    [14189,1525552354,57.3066,-111.9518,536.6,163.7,323.0,10.5,-0.9,18.62,25.03,706.3676,139.9931],
    [14190,1525552355,57.3071,-111.9522,538.4,164.4,325.3,9.5,-0.5,18.28,25.42,706.4984,139.9995],
    [14191,1525552356,57.3075,-111.9527,540.1,165.3,324.8,11.3,0.6,18.87,24.7,706.5825,139.9958],
    [14192,1525552357,57.308,-111.9531,541.7,166.7,326.3,11.8,-1.0,19.03,24.99,706.7341,139.9945],
    [14193,1525552358,57.3085,-111.9535,543.2,168.2,330.2,9.5,-2.0,18.49,25.95,706.9491,140.0151],
    [14194,1525552359,57.3089,-111.9538,544.2,169.2,332.1,8.8,-2.2,18.52,25.6,707.2075,140.0079],
    [14195,1525552360,57.3095,-111.9542,544.0,169.0,334.9,7.0,-1.5,18.58,25.09,707.1226,140.0035],
    [14196,1525552361,57.3099,-111.9545,542.7,167.7,336.9,6.2,-0.6,19.01,25.14,707.0718,140.0006],
    [14197,1525552362,57.3105,-111.9547,540.6,165.6,340.4,5.7,-2.9,18.33,25.19,706.9828,139.9904],
    [14198,1525552363,57.311,-111.955,538.3,163.3,339.5,8.7,-1.8,18.32,25.46,706.7587,139.9992],
    [14199,1525552364,57.3116,-111.9552,536.1,161.1,339.9,8.9,0.5,18.32,25.49,706.6593,139.992],
    [14200,1525552365,57.3121,-111.9554,535.2,159.2,341.2,9.1,-0.3,18.52,25.74,706.6944,139.9987],
    [14201,1525552366,57.3126,-111.9556,535.7,158.7,342.6,8.5,-1.1,18.82,25.31,706.9103,140.0045],
    [14202,1525552367,57.3132,-111.9558,537.6,159.5,346.0,6.7,-3.2,18.44,25.52,706.8388,139.9967],
    [14203,1525552368,57.3137,-111.9559,539.4,159.4,347.0,7.0,-3.6,18.74,25.35,706.6643,139.9798],
    [14204,1525552369,57.3143,-111.9561,540.3,159.4,346.6,8.0,-3.4,18.12,25.7,706.5054,140.0004],
    [14205,1525552370,57.3148,-111.9562,539.9,158.9,348.1,7.0,-3.7,18.1,25.24,706.3817,139.9927],
    [14206,1525552371,57.3154,-111.9563,538.5,157.5,348.7,6.7,-4.2,18.44,25.35,706.2936,140.0011],
    [14207,1525552372,57.316,-111.9564,538.8,157.5,348.7,6.2,-3.9,18.54,25.91,706.2484,140.0032],
    [14208,1525552373,57.3165,-111.9565,540.0,158.5,348.4,6.1,-4.4,17.87,25.46,706.2131,139.9964],
    [14209,1525552374,57.3171,-111.9566,542.1,160.1,346.1,8.4,-4.4,18.28,25.42,706.2574,140.0041],
    [14210,1525552375,57.3176,-111.9568,543.9,161.9,344.9,9.3,-4.8,17.99,25.29,706.2328,140.0029],
    [14211,1525552376,57.3181,-111.9569,544.9,162.8,345.7,8.6,-5.2,18.73,25.05,706.2208,139.9968],
    [14212,1525552377,57.3187,-111.957,545.4,162.4,344.9,9.6,-5.1,18.23,25.08,706.167,140.0056],
    [14213,1525552378,57.3193,-111.9572,545.7,162.7,345.7,9.1,-5.6,18.35,25.05,706.0433,140.0032],
    [14214,1525552379,57.3198,-111.9573,545.8,162.8,345.8,9.4,-5.2,18.97,24.93,705.8057,139.9942],
    [14215,1525552380,57.3203,-111.9574,546.2,163.2,345.7,9.2,-4.4,18.5,25.27,705.8039,139.9968],
    [14216,1525552381,57.3209,-111.9575,546.4,162.4,346.9,8.1,-4.3,18.2,25.75,705.6845,140.0084],
    [14217,1525552382,57.3214,-111.9576,546.9,163.0,346.1,9.1,-4.1,18.07,25.12,705.6481,139.9966],
    [14218,1525552383,57.322,-111.9578,548.0,163.0,345.6,9.5,-4.1,18.42,25.04,705.5169,139.9978],
    [14219,1525552384,57.3225,-111.9579,549.7,163.6,347.1,8.0,-4.2,18.46,25.29,705.3632,140.0002],
    [14220,1525552385,57.323,-111.958,551.5,165.5,349.5,6.2,-4.5,18.65,25.35,705.3202,140.0063],
    [14221,1525552386,57.3236,-111.9581,552.3,165.3,348.9,7.7,-3.8,18.39,25.24,705.2198,139.9984],
    [14222,1525552387,57.3241,-111.9581,553.5,166.2,346.6,10.1,-3.5,18.71,24.59,705.1412,139.9952],
    [14223,1525552388,57.3246,-111.9582,554.9,166.8,347.1,9.8,-3.9,18.36,25.25,704.8456,139.9999],
    [14224,1525552389,57.3252,-111.9583,556.2,168.2,345.9,10.8,-3.5,18.2,25.91,704.6056,140.0058],
    [14225,1525552390,57.3257,-111.9584,557.3,168.3,345.6,10.3,-3.3,18.55,24.9,704.5282,139.9947],
    [14226,1525552391,57.3262,-111.9585,558.2,169.3,346.7,8.8,-4.0,18.36,25.85,704.5743,140.0054],
    [14227,1525552392,57.3267,-111.9586,560.0,170.0,347.5,8.8,-4.9,18.12,25.39,704.7171,140.0006],
    [14228,1525552393,57.3273,-111.9586,562.8,171.8,347.5,10.0,-3.7,19.1,25.02,704.7357,140.0022],
    [14229,1525552394,57.3278,-111.9587,565.5,174.6,348.0,10.6,-3.8,18.24,25.4,704.8442,139.9971],
    [14230,1525552395,57.3283,-111.9587,566.9,174.6,349.7,9.7,-3.8,18.36,26.22,704.8971,140.0029],
    [14231,1525552396,57.3288,-111.9587,567.3,173.3,350.3,9.6,-3.5,18.18,26.41,704.8042,140.0029],
    [14232,1525552397,57.3293,-111.9588,566.3,170.6,349.7,10.1,-2.8,18.29,25.33,704.8086,139.9991],
    [14233,1525552398,57.3298,-111.9588,565.3,168.2,349.2,10.7,-2.3,18.55,24.94,704.7241,140.0002],
    [14234,1525552399,57.3303,-111.9588,564.5,167.5,349.5,10.5,-2.7,18.12,25.59,704.7371,140.0025],
    [14235,1525552400,57.3309,-111.9588,564.1,166.1,349.5,10.9,-2.8,18.11,25.99,704.7349,140.0042],
    [14236,1525552401,57.3314,-111.9588,564.2,165.2,349.1,11.3,-2.4,17.86,25.52,704.7824,140.0022],
    [14237,1525552402,57.3319,-111.9588,564.6,164.9,349.2,11.1,-2.1,18.48,25.07,704.9955,140.0075],
    [14238,1525552403,57.3324,-111.9588,565.2,164.9,348.4,11.8,-1.8,18.23,25.55,705.0554,140.001],
    [14239,1525552404,57.3329,-111.9588,565.4,164.4,347.9,12.0,-1.8,18.1,25.52,704.9778,139.9958],
    [14240,1525552405,57.3334,-111.9588,565.3,163.4,347.7,11.7,-0.9,18.15,25.65,705.0658,140.0011],
    [14241,1525552406,57.3339,-111.9588,564.5,161.5,346.6,12.1,-0.3,18.28,25.65,705.2062,139.9956],
    [14242,1525552407,57.3344,-111.9589,563.0,159.3,346.6,11.9,0.4,18.43,24.98,705.1275,139.9944],
    [14243,1525552408,57.3349,-111.9589,561.9,157.9,348.1,10.8,1.4,17.86,25.6,704.7948,139.9765],
    [14244,1525552409,57.3354,-111.9589,561.9,157.9,348.6,10.8,1.8,18.4,25.13,704.5271,139.9931],
    [14245,1525552410,57.336,-111.9589,561.2,157.0,348.1,11.5,1.6,17.91,25.51,704.2576,139.9971],
    [14246,1525552411,57.3365,-111.9589,559.9,154.9,349.7,9.9,0.7,17.84,26.07,704.3246,139.9972],
    [14247,1525552412,57.337,-111.9589,560.2,154.2,351.3,8.6,-0.8,17.88,25.6,704.2147,139.9995],
    [14248,1525552413,57.3375,-111.9589,563.5,157.2,350.7,9.3,-1.6,17.76,25.93,704.3148,140.0039],
    [14249,1525552414,57.338,-111.9589,567.0,160.0,350.2,9.9,-1.7,18.22,25.48,704.3071,140.0115],
    [14250,1525552415,57.3386,-111.9589,569.5,161.3,351.0,9.5,-3.7,17.92,26.0,704.3094,139.9939],
    [14251,1525552416,57.3391,-111.9589,570.5,160.9,351.7,9.4,-3.6,18.01,25.95,704.2523,139.9903],
    [14252,1525552417,57.3396,-111.9589,570.9,159.8,351.0,10.1,-2.3,18.49,25.8,704.4361,140.0018],
    [14253,1525552418,57.3401,-111.9589,570.8,158.6,351.1,10.2,-2.2,18.1,25.85,704.4609,140.0025],
    [14254,1525552419,57.3406,-111.9589,570.0,157.0,349.6,12.0,-1.7,17.58,25.84,704.5071,140.0011],
    [14255,1525552420,57.3411,-111.9589,569.5,155.5,349.4,12.5,-2.1,18.0,25.68,704.6915,140.007],
    [14256,1525552421,57.3417,-111.9588,570.0,155.0,352.9,9.7,-1.8,17.6,25.88,704.9263,140.0018],
    [14257,1525552422,57.3422,-111.9588,569.4,154.4,353.4,9.7,-1.3,17.88,26.37,705.1237,140.0049],
    [14258,1525552423,57.3427,-111.9588,568.5,152.5,352.1,10.9,-0.9,18.32,25.71,705.1059,139.9999],
    [14259,1525552424,57.3432,-111.9587,567.6,151.9,351.4,11.4,0.3,18.59,25.29,705.2732,139.9967],
    [14260,1525552425,57.3438,-111.9587,566.0,151.0,350.1,12.5,1.1,17.79,26.01,705.3035,139.9942],
    [14261,1525552426,57.3443,-111.9586,563.7,149.7,349.6,13.1,0.8,17.98,25.98,705.391,140.0027],
    [14262,1525552427,57.3448,-111.9586,561.4,148.4,350.2,12.7,1.0,17.47,26.02,705.3644,139.9946],
    [14263,1525552428,57.3454,-111.9585,560.1,148.8,349.9,13.6,1.1,18.39,25.22,705.271,139.9919],
    [14264,1525552429,57.3459,-111.9585,559.2,149.8,349.8,13.9,1.4,17.98,25.77,705.3137,139.9993],
    [14265,1525552430,57.3464,-111.9584,558.0,151.4,351.1,13.5,1.1,18.07,25.83,705.2462,140.0012],
    [14266,1525552431,57.347,-111.9583,557.0,151.9,351.4,13.7,0.4,17.92,25.98,705.1821,139.9932],
    [14267,1525552432,57.3475,-111.9583,556.7,152.8,352.2,13.1,0.5,18.6,25.51,705.075,140.0025],
    [14268,1525552433,57.348,-111.9582,557.7,153.7,353.4,11.7,0.6,17.97,25.97,704.9702,140.0031],
    [14269,1525552434,57.3486,-111.9581,558.2,153.0,354.1,11.1,0.3,18.32,25.26,704.9422,140.0032],
    [14270,1525552435,57.3491,-111.958,558.4,151.3,353.5,11.7,-0.1,17.92,25.84,704.4852,139.9878],
    [14271,1525552436,57.3497,-111.9579,558.9,150.9,353.9,11.2,-1.4,17.6,25.91,704.2948,139.9932],
    [14272,1525552437,57.3502,-111.9579,560.1,152.8,354.0,10.8,-1.2,17.91,26.6,704.0179,140.0086],
    [14273,1525552438,57.3508,-111.9578,561.5,155.5,353.6,10.8,-1.1,17.87,26.81,703.8669,139.9979],
    [14274,1525552439,57.3513,-111.9577,562.4,157.5,353.0,10.7,-2.6,17.88,26.73,703.8035,139.9966],
    [14275,1525552440,57.3518,-111.9577,565.4,159.7,353.0,9.2,-4.6,18.12,26.36,703.6881,140.0054],
    [14276,1525552441,57.3524,-111.9577,568.7,162.8,354.6,6.4,-4.1,18.02,25.84,703.5333,140.0011],
    [14277,1525552442,57.3529,-111.9577,571.7,164.6,352.1,8.3,-3.3,17.91,26.61,703.182,139.9979],
    [14278,1525552443,57.3534,-111.9577,574.0,167.1,349.9,9.9,-3.7,17.8,26.07,703.0842,140.0011],
    [14279,1525552444,57.354,-111.9577,575.6,170.2,351.4,8.3,-3.7,17.89,26.27,703.2113,140.0011],
    [14280,1525552445,57.3545,-111.9577,577.0,172.3,351.4,8.5,-3.1,18.14,25.87,703.2915,139.9991],
    [14281,1525552446,57.355,-111.9578,579.1,174.1,350.2,9.4,-2.8,17.28,26.07,703.2525,140.001],
    [14282,1525552447,57.3555,-111.9578,581.9,175.9,349.9,9.3,-1.5,17.8,26.38,703.0289,140.0024],
    [14283,1525552448,57.3561,-111.9578,583.8,176.9,349.1,10.0,-0.8,18.0,25.75,702.9098,140.0039],
    [14284,1525552449,57.3566,-111.9578,583.5,175.5,348.0,11.0,-0.7,17.58,26.48,702.7222,140.0031],
    [14285,1525552450,57.3571,-111.9578,582.8,173.8,349.1,10.5,-1.8,17.91,25.8,702.609,139.993],
    [14286,1525552451,57.3576,-111.9579,583.5,173.8,348.8,10.6,-2.2,18.12,25.39,702.8184,139.9959],
    [14287,1525552452,57.3582,-111.9579,585.2,174.9,348.0,10.7,-2.0,18.0,26.15,703.0365,140.0037],
    [14288,1525552453,57.3586,-111.9579,586.9,175.9,347.2,10.7,-1.4,17.86,26.05,703.1765,139.9928],
    [14289,1525552454,57.3591,-111.958,588.7,177.7,346.0,11.2,-1.2,17.87,26.3,703.1278,139.9991],
    [14290,1525552455,57.3596,-111.958,590.1,179.1,345.1,11.0,-0.9,18.01,25.81,703.1486,139.9984],
    [14291,1525552456,57.3601,-111.9581,589.1,177.2,344.6,10.9,-1.4,17.53,25.95,703.1135,139.9977],
    [14292,1525552457,57.3606,-111.9582,586.1,174.1,343.3,11.8,-1.9,17.55,25.92,703.0601,140.0001],
    [14293,1525552458,57.3612,-111.9583,584.2,172.2,342.1,11.8,-1.4,17.86,25.91,703.0224,140.001],
    [14294,1525552459,57.3617,-111.9584,583.4,171.4,341.5,11.7,-0.9,17.51,25.99,702.9867,139.994],
    [14295,1525552460,57.3622,-111.9586,583.4,171.4,339.2,13.2,-0.7,17.63,26.61,702.9597,139.995],
    [14296,1525552461,57.3627,-111.9587,584.0,172.0,339.4,12.4,-0.2,17.49,26.09,702.9732,140.0083],
    [14297,1525552462,57.3632,-111.9589,584.3,171.3,339.5,12.4,0.2,17.89,26.13,703.0886,139.9942],
    [14298,1525552463,57.3638,-111.959,584.4,171.4,339.5,12.4,0.6,17.72,26.53,703.029,139.9911],
    [14299,1525552464,57.3643,-111.9592,585.0,172.0,341.2,11.2,0.1,17.57,26.1,703.4395,140.0027],
    [14300,1525552465,57.3648,-111.9593,585.5,172.5,343.0,10.6,0.0,17.77,26.26,703.6785,139.9932],
    [14301,1525552466,57.3653,-111.9594,585.5,171.5,343.3,11.3,1.3,17.86,26.23,703.8708,139.9996],
    [14302,1525552467,57.3659,-111.9595,585.0,170.3,346.5,9.4,2.3,17.81,26.19,703.8312,139.9912],
    [14303,1525552468,57.3664,-111.9596,583.5,168.5,348.9,8.9,2.4,18.05,26.09,703.7713,139.9848],
    [14304,1525552469,57.367,-111.9596,581.0,165.0,350.5,8.4,1.6,17.2,26.46,703.6596,139.9929],
    [14305,1525552470,57.3675,-111.9596,577.9,161.9,354.5,5.2,1.6,17.77,26.34,703.6636,139.9915],
    [14306,1525552471,57.3681,-111.9596,575.5,158.4,356.9,4.0,2.2,17.89,26.26,703.6627,139.9965],
    [14307,1525552472,57.3687,-111.9596,574.6,157.6,355.3,6.4,1.8,18.09,26.03,703.8078,140.0185],
    [14308,1525552473,57.3692,-111.9596,574.9,158.8,356.4,5.4,-1.6,17.61,26.35,703.8066,140.0042],
    [14309,1525552474,57.3698,-111.9596,575.8,161.1,356.2,5.7,-2.4,17.91,25.98,703.6883,140.0058],
    [14310,1525552475,57.3704,-111.9595,576.2,162.2,353.4,8.2,-1.8,18.4,26.09,703.6481,139.9966],
    [14311,1525552476,57.371,-111.9595,576.3,162.4,352.4,9.4,-1.1,17.94,26.6,703.5897,139.9978],
    [14312,1525552477,57.3716,-111.9595,575.7,160.7,351.1,10.7,0.2,17.71,26.44,703.6527,139.9923],
    [14313,1525552478,57.3722,-111.9595,575.1,159.1,351.7,9.9,1.2,17.44,26.37,703.6161,139.9955],
    [14314,1525552479,57.3727,-111.9595,576.4,158.7,351.5,9.5,1.0,18.06,25.95,703.4972,139.9986],
    [14315,1525552480,57.3733,-111.9595,576.9,158.9,350.8,9.1,1.4,17.86,26.72,703.3983,139.9972],
    [14316,1525552481,57.3739,-111.9595,577.5,159.5,350.0,8.6,1.5,17.98,26.78,703.2884,140.0037],
    [14317,1525552482,57.3745,-111.9596,577.1,159.1,350.3,7.1,-0.1,17.83,26.2,703.3657,140.0085],
    [14318,1525552483,57.375,-111.9597,576.9,158.9,351.3,5.3,-0.9,18.14,26.14,703.8767,139.9884],
    [14319,1525552484,57.3756,-111.9598,577.5,159.2,349.9,6.2,-1.7,17.86,26.03,704.0626,139.992],
    [14320,1525552485,57.3762,-111.9599,578.6,159.6,350.3,5.2,-1.9,17.83,26.2,704.2231,139.9946],
    [14321,1525552486,57.3768,-111.96,579.6,159.6,350.2,6.0,-0.7,17.7,26.31,704.1547,140.002],
    [14322,1525552487,57.3774,-111.96,579.3,159.4,347.2,9.9,0.9,17.97,26.27,704.1204,139.9925],
    [14323,1525552488,57.3779,-111.9601,577.0,156.0,349.0,8.2,0.9,17.88,25.84,704.0527,139.9855],
    [14324,1525552489,57.3785,-111.9602,572.6,151.6,352.3,5.9,0.4,17.7,26.07,704.0884,140.001],
    [14325,1525552490,57.3791,-111.9602,569.9,148.9,351.8,6.6,0.4,17.67,26.21,704.0893,140.0055],
    [14326,1525552491,57.3797,-111.9603,569.9,149.2,352.2,6.2,1.2,18.26,26.08,703.6946,139.9883],
    [14327,1525552492,57.3803,-111.9603,570.4,149.4,354.2,5.0,-0.6,17.99,25.92,703.6676,140.0044],
    [14328,1525552493,57.3809,-111.9603,570.6,148.6,355.2,5.2,-1.9,17.82,26.29,703.378,140.0026],
    [14329,1525552494,57.3815,-111.9603,571.0,149.0,356.1,5.0,-0.6,17.82,26.19,702.9055,139.9962],
    [14330,1525552495,57.3821,-111.9603,570.7,148.7,355.7,6.3,0.1,17.4,26.25,702.7622,139.9978],
    [14331,1525552496,57.3827,-111.9603,572.7,152.6,356.2,6.3,-0.9,18.16,25.65,702.3764,140.0],
    [14332,1525552497,57.3833,-111.9602,575.4,159.4,357.5,5.6,-0.2,17.81,26.51,702.123,139.9978],
    [14333,1525552498,57.3838,-111.9602,577.6,167.7,356.0,7.9,-0.3,17.87,26.13,701.8913,139.9911],
    [14334,1525552499,57.3845,-111.9601,581.0,178.1,354.7,10.0,-1.1,18.01,26.38,701.9307,140.0043],
    [14335,1525552500,57.385,-111.9601,584.9,183.6,355.7,9.2,-1.1,17.51,26.45,701.7911,139.9986],
    [14336,1525552501,57.3857,-111.96,589.8,188.8,355.2,10.3,-0.4,17.88,26.12,701.5106,140.002],
    [14337,1525552502,57.3862,-111.9599,593.6,192.6,355.1,10.6,0.1,18.1,25.64,701.4375,140.0011],
    [14338,1525552503,57.3868,-111.9598,596.1,194.7,356.7,8.8,0.2,17.84,26.02,701.285,139.9951],
    [14339,1525552504,57.3874,-111.9597,597.3,194.3,357.2,8.9,0.4,17.98,26.18,701.0606,140.0071],
    [14340,1525552505,57.388,-111.9596,598.8,191.8,357.2,9.0,-1.1,17.64,26.36,700.8429,140.0036],
    [14341,1525552506,57.3886,-111.9595,601.1,188.8,358.6,7.8,-0.9,17.33,25.99,700.8411,140.0166],
    [14342,1525552507,57.3891,-111.9594,603.3,184.2,357.6,8.4,-0.8,18.02,25.87,700.5108,139.9989],
    [14343,1525552508,57.3897,-111.9593,605.2,181.9,358.4,7.2,-1.2,17.77,25.96,700.3167,139.9992],
    [14344,1525552509,57.3903,-111.9592,607.3,179.0,357.9,7.4,0.1,18.02,26.16,700.5201,140.0039],
    [14345,1525552510,57.3908,-111.9592,609.4,180.5,356.8,8.9,1.0,18.35,25.57,700.5362,139.9916],
    [14346,1525552511,57.3914,-111.9591,611.2,182.3,353.9,11.7,0.5,18.2,26.49,700.5892,139.9994],
    [14347,1525552512,57.3919,-111.959,612.2,182.2,354.1,10.6,0.1,17.92,26.05,700.4749,140.0104],
    [14348,1525552513,57.3925,-111.9589,613.8,183.8,356.5,8.5,0.9,17.56,26.09,700.3155,139.9984],
    [14349,1525552514,57.3931,-111.9588,614.4,184.4,353.0,12.2,0.5,17.88,26.7,700.2258,140.0132],
    [14350,1525552515,57.3937,-111.9588,614.7,184.7,352.5,11.8,-0.5,17.62,26.0,700.2598,139.9857],
    [14351,1525552516,57.3942,-111.9587,614.8,184.8,352.8,11.1,-0.9,18.19,25.96,700.284,139.9974],
    [14352,1525552517,57.3948,-111.9587,615.7,185.7,349.7,12.7,-0.3,17.28,26.38,700.4788,140.0002],
    [14353,1525552518,57.3953,-111.9587,617.1,187.1,349.3,11.3,0.6,17.79,26.22,700.7066,140.0097],
    [14354,1525552519,57.3958,-111.9587,617.7,187.7,347.9,10.8,2.3,17.88,26.63,700.7417,140.0082],
    [14355,1525552520,57.3964,-111.9587,617.8,187.8,346.5,9.6,2.3,17.77,26.15,700.6715,139.997],
    [14356,1525552521,57.397,-111.9588,617.0,187.0,347.3,8.7,1.2,17.63,26.52,700.6873,139.9922],
    [14357,1525552522,57.3975,-111.9589,615.1,185.1,346.8,9.9,1.5,17.84,26.08,700.7228,139.9962],
    [14358,1525552523,57.3981,-111.959,613.2,184.0,345.5,11.5,1.7,17.59,26.9,700.6504,140.0048],
    [14359,1525552524,57.3986,-111.959,612.2,183.2,344.7,12.1,2.6,17.83,26.56,700.6222,139.9882],
    [14360,1525552525,57.3992,-111.9591,612.1,183.1,343.6,12.6,2.9,17.87,26.11,700.691,139.9979],
    [14361,1525552526,57.3998,-111.9592,611.8,181.8,344.3,12.5,2.0,17.58,26.43,700.6896,140.0082],
    [14362,1525552527,57.4003,-111.9593,611.6,181.6,346.0,11.6,1.4,17.8,26.02,700.7941,140.0031],
    [14363,1525552528,57.4009,-111.9593,611.5,181.5,349.8,9.8,1.3,17.99,25.77,700.7895,140.0004],
    [14364,1525552529,57.4015,-111.9593,612.3,183.3,352.9,9.2,1.6,17.7,26.28,700.4915,140.004],
    [14365,1525552530,57.4021,-111.9593,612.3,183.3,359.0,6.3,2.2,17.03,26.67,700.6454,139.978],
    [14366,1525552531,57.4026,-111.9591,611.7,182.7,361.6,7.7,2.5,17.59,26.51,700.8517,140.0042],
    [14367,1525552532,57.4032,-111.9589,611.0,181.4,4.1,8.9,2.1,17.82,26.72,701.0467,140.0018],
    [14368,1525552533,57.4038,-111.9587,610.8,180.8,9.1,8.8,2.4,17.7,26.61,701.1437,139.9841],
    [14369,1525552534,57.4044,-111.9583,611.2,181.3,10.9,10.7,1.3,18.07,26.61,701.2755,140.0119],
    [14370,1525552535,57.4049,-111.9579,610.5,180.4,15.2,8.6,0.2,18.05,26.01,701.4453,140.0131],
    [14371,1525552536,57.4055,-111.9574,608.5,179.2,22.0,5.9,0.4,17.67,26.37,701.4954,140.0166],
    [14372,1525552537,57.406,-111.957,606.8,176.8,24.7,6.4,-0.9,18.12,26.26,701.5729,140.0146],
    [14373,1525552538,57.4065,-111.9563,605.4,176.4,31.5,3.9,-0.3,17.22,26.76,701.5883,140.0004],
    [14374,1525552539,57.4071,-111.9556,604.3,175.4,37.6,3.6,1.9,17.53,26.43,701.5612,140.0017],
    [14375,1525552540,57.4075,-111.9549,603.5,174.5,42.6,4.0,3.7,17.61,27.23,701.2917,139.997],
    [14376,1525552541,57.408,-111.954,601.6,173.7,47.8,5.3,3.7,17.87,26.18,701.1379,139.9972],
    [14377,1525552542,57.4084,-111.953,600.2,172.2,50.5,7.1,1.0,17.42,26.63,701.1944,139.9983],
    [14378,1525552543,57.4088,-111.952,600.1,173.1,55.2,7.4,0.7,17.92,26.48,701.3984,140.006],
    [14379,1525552544,57.4091,-111.951,600.6,174.4,60.2,7.2,0.7,18.16,26.3,701.4878,139.9934],
    [14380,1525552545,57.4094,-111.9498,601.9,175.9,63.1,6.8,-2.3,17.55,26.62,701.7358,139.9983],
    [14381,1525552546,57.4096,-111.9487,603.5,178.5,64.8,7.6,-3.8,17.46,26.63,701.9636,139.9873],
    [14382,1525552547,57.4098,-111.9476,603.8,179.8,68.4,8.2,-2.4,17.67,26.57,702.1711,139.9924],
    [14383,1525552548,57.41,-111.9464,601.6,178.6,71.0,8.4,-3.2,17.7,26.56,702.1519,140.0072],
    [14384,1525552549,57.4102,-111.9452,599.2,177.3,74.8,8.8,-3.5,17.87,26.64,701.8142,140.0018],
    [14385,1525552550,57.4103,-111.944,597.1,175.9,80.0,8.2,-0.8,17.59,26.94,701.3948,139.9846],
    [14386,1525552551,57.4103,-111.9427,593.5,172.5,88.2,8.1,3.9,17.82,27.11,701.5447,140.005],
    [14387,1525552552,57.4104,-111.9414,591.3,169.6,91.6,7.9,4.2,18.04,26.41,701.575,139.9877],
    [14388,1525552553,57.4104,-111.9401,591.8,169.8,93.4,8.6,4.9,17.81,26.54,701.7345,140.0029],
    [14389,1525552554,57.4104,-111.939,594.2,172.2,93.7,9.1,4.6,17.87,26.94,701.9071,139.9904],
    [14390,1525552555,57.4104,-111.9376,597.9,177.9,92.2,8.6,3.2,17.68,26.5,702.0822,139.9892],
    [14391,1525552556,57.4104,-111.9363,598.4,181.4,90.7,9.5,1.7,17.98,26.17,702.1172,140.0041],
    [14392,1525552557,57.4104,-111.935,597.6,181.6,92.7,10.0,4.3,18.03,26.55,702.2319,139.9973],
    [14393,1525552558,57.4104,-111.9338,595.9,179.9,92.3,10.0,3.2,18.04,26.23,702.1286,140.0088],
    [14394,1525552559,57.4104,-111.9325,594.4,178.4,90.2,8.5,1.5,18.3,25.69,702.1963,139.9914],
    [14395,1525552560,57.4104,-111.9311,592.5,177.5,92.6,8.0,3.7,17.83,26.37,702.3193,139.9876],
    [14396,1525552561,57.4104,-111.9298,591.2,176.2,90.7,6.9,2.0,18.36,26.06,702.4268,140.0087],
    [14397,1525552562,57.4104,-111.9285,590.3,176.3,91.8,6.8,3.8,17.78,26.09,702.4013,139.9931],
    [14398,1525552563,57.4105,-111.9271,590.5,177.5,89.9,7.0,2.1,17.75,26.2,702.4051,140.0014],
    [14399,1525552564,57.4105,-111.926,591.0,180.2,89.9,7.5,3.4,17.75,26.18,702.2925,140.0038],
    [14400,1525552565,57.4105,-111.9245,589.1,184.1,92.9,7.1,6.8,18.03,25.99,702.4134,139.9911],
    [14401,1525552566,57.4105,-111.9232,587.5,184.8,89.3,7.2,1.8,17.81,26.12,702.5464,140.0047],
    [14402,1525552567,57.4106,-111.9219,587.5,183.8,88.9,6.4,1.9,17.38,26.09,702.5792,140.0054],
    [14403,1525552568,57.4106,-111.9206,588.4,183.2,91.4,7.6,3.9,18.11,25.79,702.9664,139.992],
    [14404,1525552569,57.4106,-111.9191,589.5,181.2,89.8,8.7,1.9,18.24,25.8,703.1076,139.9964],
    [14405,1525552570,57.4106,-111.9179,589.3,180.6,92.2,9.4,4.0,17.92,25.89,703.1608,140.0102],
    [14406,1525552571,57.4106,-111.9165,588.0,179.6,91.6,9.3,2.4,17.83,25.94,702.9947,139.9989],
    [14407,1525552572,57.4106,-111.9152,586.3,177.6,91.9,9.7,2.4,18.2,25.88,702.7311,140.0079],
    [14408,1525552573,57.4106,-111.9138,583.5,174.4,93.3,9.8,3.0,17.85,25.91,702.6582,140.003],
    [14409,1525552574,57.4106,-111.9125,581.1,173.8,92.2,6.9,1.1,17.93,26.1,702.3951,139.9943],
    [14410,1525552575,57.4106,-111.9112,579.1,173.0,92.3,4.7,0.5,18.0,25.93,702.2334,139.9989],
    [14411,1525552576,57.4106,-111.9098,579.2,176.2,92.4,4.4,-0.6,17.95,25.97,701.9506,140.0018],
    [14412,1525552577,57.4105,-111.9085,582.0,181.3,93.7,4.2,1.0,17.92,25.92,701.838,139.9868],
    [14413,1525552578,57.4105,-111.9071,584.8,186.8,95.9,4.5,2.4,17.96,26.25,702.0305,139.9967],
    [14414,1525552579,57.4105,-111.9059,587.5,190.8,94.3,3.9,-0.2,18.17,25.84,702.0511,140.005],
    [14415,1525552580,57.4104,-111.9045,591.1,197.1,94.7,4.2,0.1,17.96,26.08,702.0623,140.0179],
    [14416,1525552581,57.4103,-111.9033,593.8,202.5,93.8,4.1,-0.6,17.74,26.3,702.3218,139.9863],
    [14417,1525552582,57.4103,-111.902,594.4,205.4,93.2,3.8,-0.9,17.49,26.07,702.4637,139.9976],
    [14418,1525552583,57.4103,-111.9007,594.0,207.0,93.0,4.4,-0.4,18.08,26.57,702.7032,140.0057],
    [14419,1525552584,57.4102,-111.8994,593.5,208.4,92.8,4.3,-0.6,18.64,25.76,703.0755,140.015],
    [14420,1525552585,57.4102,-111.8981,593.3,210.3,91.8,4.9,-1.5,17.58,26.18,703.1252,139.9971],
    [14421,1525552586,57.4102,-111.8968,591.6,209.6,93.0,6.5,0.3,18.22,25.99,703.1263,140.0136],
    [14422,1525552587,57.4101,-111.8955,589.0,208.0,93.1,5.7,1.1,18.37,25.84,703.5689,139.9892],
    [14423,1525552588,57.4101,-111.8942,586.0,206.0,90.5,6.2,-1.3,17.76,26.4,703.9045,139.9934],
    [14424,1525552589,57.4101,-111.8929,583.1,205.1,90.2,6.7,-0.5,18.02,26.15,704.5908,140.0112],
    [14425,1525552590,57.4101,-111.8916,581.5,206.3,90.8,6.0,0.4,17.79,26.2,704.7237,140.0068],
    [14426,1525552591,57.4101,-111.8905,580.8,208.4,89.2,7.2,-1.4,17.97,26.95,704.8819,140.0095],
    [14427,1525552592,57.4101,-111.8891,577.5,209.3,89.8,7.2,-0.3,17.92,26.24,705.056,140.0044],
    [14428,1525552593,57.4101,-111.8878,571.9,207.2,91.4,6.2,0.8,18.04,26.96,705.356,139.9987],
    [14429,1525552594,57.4101,-111.8864,566.4,203.8,89.0,5.3,-2.3,17.79,26.36,705.505,139.997],
    [14430,1525552595,57.4101,-111.8852,562.1,202.2,88.3,5.5,-2.6,18.43,25.57,705.5723,139.9982],
    [14431,1525552596,57.4101,-111.8839,559.8,200.9,88.7,6.7,-1.9,18.61,25.69,705.4558,139.9925],
    [14432,1525552597,57.4101,-111.8826,557.7,199.2,87.3,7.0,-3.4,17.87,26.32,705.7971,139.9914],
    [14433,1525552598,57.4101,-111.8812,554.9,197.2,86.8,6.7,-3.5,17.94,26.24,705.8708,139.9998],
    [14434,1525552599,57.4101,-111.8799,552.0,195.0,88.9,5.5,-1.1,17.8,26.22,706.208,139.9967],
    [14435,1525552600,57.4101,-111.8786,550.1,193.4,89.9,5.1,0.1,17.69,26.21,706.4548,139.9945],
    [14436,1525552601,57.4101,-111.8773,550.6,194.7,90.6,5.9,0.7,18.18,25.92,706.9732,140.0026],
    [14437,1525552602,57.4101,-111.876,549.5,193.5,87.5,5.8,-2.8,17.87,26.24,707.1433,140.0008],
    [14438,1525552603,57.4101,-111.8747,547.7,192.7,88.6,6.7,-0.8,18.06,26.59,707.3716,140.0028],
    [14439,1525552604,57.4101,-111.8734,544.6,190.6,88.3,6.3,-1.3,18.67,25.63,707.7216,139.9957],
    [14440,1525552605,57.4101,-111.8721,540.5,187.5,88.0,6.1,-1.8,18.11,26.27,708.157,139.9984],
    [14441,1525552606,57.4101,-111.8708,536.2,184.2,88.5,6.9,-2.0,18.4,25.94,708.3793,139.9996],
    [14442,1525552607,57.4101,-111.8695,532.8,181.8,87.5,6.8,-3.5,18.03,26.24,708.4876,139.9971],
    [14443,1525552608,57.4101,-111.8682,529.8,179.8,88.0,7.1,-3.1,18.42,26.26,708.6596,139.9959],
    [14444,1525552609,57.4101,-111.8668,526.2,178.3,88.5,6.3,-2.6,18.14,26.83,709.05,139.9978],
    [14445,1525552610,57.4101,-111.8655,521.9,176.9,90.1,6.4,-1.1,18.2,26.27,709.2322,140.0039],
    [14446,1525552611,57.4101,-111.8642,518.1,175.2,89.9,6.1,-2.4,18.37,25.57,709.4771,139.9944],
    [14447,1525552612,57.41,-111.8628,515.9,174.0,89.9,5.5,-2.3,17.78,26.15,709.5232,139.9869],
    [14448,1525552613,57.41,-111.8615,513.2,171.2,90.2,5.5,-1.8,18.56,25.68,709.7192,139.9968],
    [14449,1525552614,57.41,-111.8602,510.3,169.4,89.4,5.6,-2.1,18.54,25.84,709.8747,139.9947],
    [14450,1525552615,57.41,-111.8588,507.4,166.4,89.1,5.7,-1.6,18.79,25.4,710.1288,139.9967],
    [14451,1525552616,57.41,-111.8575,504.8,163.7,88.2,4.8,-1.9,18.15,25.84,710.1298,139.9979],
    [14452,1525552617,57.41,-111.8561,502.1,161.9,88.0,3.4,-1.1,17.99,25.87,710.3422,139.9932],
    [14453,1525552618,57.41,-111.8548,500.6,160.6,88.1,3.9,0.6,18.39,25.37,710.5773,139.996],
    [14454,1525552619,57.4101,-111.8534,498.2,158.8,87.8,3.1,1.0,18.78,25.61,710.8206,140.0068],
    [14455,1525552620,57.4101,-111.8522,495.3,156.3,85.6,3.3,-1.2,18.76,25.55,710.9516,140.0049],
    [14456,1525552621,57.4101,-111.8508,494.4,156.4,85.9,4.0,0.4,18.09,25.76,711.3631,140.0035],
    [14457,1525552622,57.4102,-111.8494,493.1,156.1,86.1,3.1,0.6,18.28,25.76,711.4568,140.008],
    [14458,1525552623,57.4102,-111.8481,489.9,152.8,85.2,3.5,-0.9,18.12,25.58,711.7795,140.0069],
    [14459,1525552624,57.4103,-111.8467,486.8,150.8,84.9,4.7,-1.2,18.22,25.85,711.7843,140.009],
    [14460,1525552625,57.4103,-111.8454,483.4,147.4,86.0,4.0,-0.1,18.46,25.9,711.7308,140.0069],
    [14461,1525552626,57.4104,-111.844,480.1,145.1,85.3,4.0,-1.1,18.49,25.93,711.8518,139.9981],
    [14462,1525552627,57.4104,-111.8427,478.5,143.5,86.5,3.3,0.9,18.53,26.05,711.7575,140.0034],
    [14463,1525552628,57.4105,-111.8414,476.3,141.3,88.2,3.2,2.1,18.69,25.27,711.5959,140.0058],
    [14464,1525552629,57.4105,-111.8401,475.9,142.0,87.9,4.1,0.7,19.06,25.14,711.4636,140.0076],
    [14465,1525552630,57.4105,-111.8388,476.2,143.2,89.5,4.4,1.7,18.87,24.72,711.2483,140.0005],
    [14466,1525552631,57.4106,-111.8374,475.7,144.7,90.7,4.4,2.2,18.62,25.68,710.8616,140.0062],
    [14467,1525552632,57.4106,-111.8361,476.1,147.2,91.8,4.2,2.1,18.87,24.37,710.6923,139.989],
    [14468,1525552633,57.4106,-111.8348,478.6,150.6,91.8,4.2,1.4,18.96,25.29,710.4747,140.0071],
    [14469,1525552634,57.4106,-111.8336,480.4,153.4,92.2,4.4,1.9,18.6,24.97,710.4949,140.001],
    [14470,1525552635,57.4105,-111.8323,482.7,155.7,93.0,3.8,2.7,19.13,24.53,710.6609,140.0017],
    [14471,1525552636,57.4105,-111.8311,485.9,159.9,92.3,4.0,1.5,19.17,24.61,710.7132,139.9959],
    [14472,1525552637,57.4105,-111.8299,488.8,163.8,92.7,4.2,2.3,18.68,25.79,710.6647,140.0023],
    [14473,1525552638,57.4105,-111.8286,491.8,167.8,94.2,4.6,3.5,18.5,25.02,710.7613,140.0006],
    [14474,1525552639,57.4105,-111.8273,493.1,169.1,92.2,5.8,1.2,18.03,25.11,710.8927,140.0011],
    [14475,1525552640,57.4105,-111.8261,492.5,167.5,92.2,5.8,1.2,18.46,25.6,711.003,140.003],
    [14476,1525552641,57.4105,-111.8249,490.8,165.8,92.9,5.3,2.0,18.69,25.33,711.053,140.0046],
    [14477,1525552642,57.4105,-111.8236,491.0,166.0,92.5,6.8,1.9,18.24,25.43,711.0302,140.0038],
    [14478,1525552643,57.4105,-111.8224,491.2,167.2,91.8,6.6,1.5,19.17,25.0,711.0831,140.0011],
    [14479,1525552644,57.4104,-111.8215,490.2,167.1,91.8,6.8,1.8,19.14,24.7,711.028,140.0023],
    [14480,1525552645,57.4104,-111.8201,488.5,167.8,92.5,7.5,2.5,18.85,25.02,710.9501,140.0048],
    [14481,1525552646,57.4104,-111.8187,487.7,169.7,92.0,8.1,2.0,18.04,25.34,710.9861,140.0045],
    [14482,1525552647,57.4104,-111.8175,487.7,169.7,91.7,8.1,1.8,19.21,25.01,710.9067,139.9944],
    [14483,1525552648,57.4104,-111.8163,487.1,168.1,91.4,7.9,1.7,18.5,25.73,710.7106,139.9999],
    [14484,1525552649,57.4104,-111.8152,487.1,168.1,90.4,7.6,0.8,19.08,24.74,710.8404,139.9986],
    [14485,1525552650,57.4104,-111.8139,487.9,167.9,89.9,7.6,0.5,18.45,25.9,710.5654,139.9955],
    [14486,1525552651,57.4105,-111.8126,487.9,167.9,89.9,8.2,0.3,18.07,25.5,710.5876,139.9961],
    [14487,1525552652,57.4105,-111.8114,488.4,168.4,89.1,7.4,-0.4,18.87,25.16,710.6592,140.0018],
    [14488,1525552653,57.4105,-111.8102,489.7,170.7,89.0,7.3,-0.2,18.56,26.31,710.6349,140.0011],
    [14489,1525552654,57.4105,-111.809,489.9,173.0,89.5,7.0,0.3,18.68,25.68,710.5669,140.0023],
    [14490,1525552655,57.4105,-111.8077,490.9,176.0,89.8,6.6,0.5,18.74,25.72,710.5939,139.9962],
    [14491,1525552656,57.4105,-111.8065,492.0,177.9,90.8,6.8,1.6,19.12,25.31,710.742,140.0035],
    [14492,1525552657,57.4105,-111.8053,492.2,180.2,91.2,6.9,1.7,18.89,24.9,710.8703,140.0029],
    [14493,1525552658,57.4105,-111.8042,492.3,180.3,91.0,7.1,1.6,18.23,25.45,711.1474,140.0012],
    [14494,1525552659,57.4105,-111.8029,492.7,180.7,92.0,7.0,2.1,18.47,25.6,711.2316,140.0077],
    [14495,1525552660,57.4105,-111.8017,492.4,179.4,93.0,6.8,2.7,18.01,25.74,711.3599,140.0084],
    [14496,1525552661,57.4105,-111.8004,490.8,177.8,92.5,7.2,1.3,18.76,25.21,711.4993,140.0063],
    [14497,1525552662,57.4105,-111.7992,488.8,174.8,91.4,6.8,0.1,18.79,26.1,711.4986,139.9999],
    [14498,1525552663,57.4104,-111.798,486.9,172.9,92.6,7.2,1.2,18.78,25.67,711.4459,139.9987],
    [14499,1525552664,57.4104,-111.7968,484.9,169.9,91.5,7.6,0.4,18.73,25.38,711.5556,139.9995],
    [14500,1525552665,57.4104,-111.7957,483.7,168.7,91.7,8.5,1.1,18.61,25.46,711.7488,139.9963],
    [14501,1525552666,57.4104,-111.7944,481.7,165.7,90.9,8.1,0.0,18.51,26.26,712.0571,139.9982],
    [14502,1525552667,57.4104,-111.7931,480.6,164.6,90.9,7.2,0.0,17.99,25.56,712.2238,140.0014],
    [14503,1525552668,57.4104,-111.7919,480.9,164.9,94.5,7.6,3.6,18.59,25.51,712.3448,139.9918],
    [14504,1525552669,57.4104,-111.7906,480.1,165.1,93.5,7.4,2.3,18.5,25.7,712.4728,139.9953],
    [14505,1525552670,57.4104,-111.7894,478.7,164.7,92.6,7.3,2.0,18.62,25.66,712.5176,140.0115],
    [14506,1525552671,57.4104,-111.7882,476.2,163.2,92.5,7.2,1.9,18.56,25.74,712.5068,139.9894],
    [14507,1525552672,57.4103,-111.787,473.7,160.7,91.1,6.9,0.7,18.87,24.77,712.3447,139.9947],
    [14508,1525552673,57.4103,-111.7857,471.2,159.2,91.3,5.5,1.2,18.57,25.67,712.0751,140.004],
    [14509,1525552674,57.4103,-111.7845,469.5,158.5,90.4,6.2,0.3,18.26,25.37,712.0772,140.0027],
    [14510,1525552675,57.4103,-111.7833,469.4,160.1,90.8,7.3,0.9,18.82,25.84,711.9268,140.0055],
    [14511,1525552676,57.4103,-111.782,468.8,161.8,92.4,6.8,2.6,18.4,26.07,711.8445,140.0037],
    [14512,1525552677,57.4103,-111.7807,469.9,163.9,92.4,5.6,2.7,19.03,25.27,711.8316,140.0009],
    [14513,1525552678,57.4103,-111.7795,472.4,167.4,91.8,5.6,2.6,18.66,25.69,711.9635,139.9938],
    [14514,1525552679,57.4103,-111.7783,474.4,169.4,90.8,5.9,1.7,18.74,26.17,711.9539,139.9943],
    [14515,1525552680,57.4103,-111.7772,475.9,171.9,89.7,6.6,0.5,18.64,26.59,711.9158,140.0029],
    [14516,1525552681,57.4104,-111.7759,477.4,174.5,89.7,7.7,0.5,18.65,26.58,712.0284,140.0013],
    [14517,1525552682,57.4104,-111.7746,477.4,175.4,91.0,8.9,1.8,18.35,25.77,711.9607,140.0059],
    [14518,1525552683,57.4104,-111.7733,476.4,176.4,91.1,7.5,1.5,18.67,25.82,712.0058,139.9971],
    [14519,1525552684,57.4104,-111.7722,475.7,178.7,90.9,7.1,1.0,18.73,26.09,711.9553,139.9977],
    [14520,1525552685,57.4104,-111.7709,476.1,182.1,90.8,7.8,0.7,18.74,25.33,711.8789,140.0035],
    [14521,1525552686,57.4104,-111.7697,476.2,183.2,90.5,8.3,0.3,18.78,26.04,711.9786,140.0058],
    [14522,1525552687,57.4104,-111.7685,475.9,182.9,89.1,7.7,-1.0,19.36,25.23,711.9888,139.9886],
    [14523,1525552688,57.4104,-111.7672,475.3,182.3,90.0,6.6,0.4,18.78,25.62,712.2057,140.003],
    [14524,1525552689,57.4104,-111.7661,475.8,183.8,92.2,6.8,2.4,18.62,25.78,712.2011,140.0029],
    [14525,1525552690,57.4104,-111.7649,476.3,184.3,92.0,7.6,1.5,18.62,25.65,712.0442,139.9803],
    [14526,1525552691,57.4104,-111.7638,475.8,183.8,90.8,8.1,0.1,18.69,26.31,711.8407,140.0013],
    [14527,1525552692,57.4104,-111.7626,475.0,183.0,91.8,7.0,1.2,18.62,25.91,711.4543,140.0055],
    [14528,1525552693,57.4103,-111.7613,474.0,181.0,91.0,5.9,0.9,18.52,25.32,711.418,140.0068],
    [14529,1525552694,57.4103,-111.7599,472.9,179.9,91.0,6.0,1.2,18.63,25.61,711.4262,139.9952],
    [14530,1525552695,57.4103,-111.7587,473.3,180.3,92.1,4.5,2.6,18.77,25.72,711.45,139.9998],
    [14531,1525552696,57.4103,-111.7575,475.9,181.9,93.3,4.7,3.9,18.68,25.47,711.5822,140.0024],
    [14532,1525552697,57.4103,-111.7563,479.1,184.1,93.1,4.9,3.8,18.3,25.57,711.8481,139.9936],
    [14533,1525552698,57.4103,-111.7551,481.1,183.8,92.6,5.1,3.0,18.98,25.14,711.8962,139.998],
    [14534,1525552699,57.4103,-111.7538,481.6,178.6,91.3,5.7,1.8,18.74,26.25,711.9678,140.0009],
    [14535,1525552700,57.4103,-111.7527,481.5,174.3,93.2,7.3,2.9,18.29,25.96,712.0284,140.0081],
    [14536,1525552701,57.4103,-111.7515,480.3,169.7,92.7,7.6,1.2,19.21,25.0,712.028,139.9955],
    [14537,1525552702,57.4103,-111.7503,478.0,165.1,93.7,7.7,1.1,18.62,25.71,711.9452,140.0031],
    [14538,1525552703,57.4103,-111.749,475.9,163.0,94.6,8.1,1.5,18.67,25.61,711.9041,140.0033],
    [14539,1525552704,57.4102,-111.7478,474.9,162.8,95.7,7.4,2.4,18.76,25.54,711.8633,139.9994],
    [14540,1525552705,57.4102,-111.7466,474.7,166.1,93.7,7.1,0.4,18.52,25.7,711.8188,140.0002],
    [14541,1525552706,57.4102,-111.7454,474.9,168.7,92.4,7.5,0.0,18.54,25.54,711.7312,139.9988],
    [14542,1525552707,57.4102,-111.7442,475.9,173.7,91.9,7.6,0.3,18.54,25.7,711.732,139.9962],
    [14543,1525552708,57.4101,-111.7431,476.8,175.7,90.0,7.8,-0.6,18.38,25.56,711.6973,140.0008],
    [14544,1525552709,57.4101,-111.7419,477.7,178.5,89.6,7.9,0.1,19.08,25.67,711.7874,139.9989],
    [14545,1525552710,57.4102,-111.7407,478.5,180.5,89.1,7.8,0.6,18.74,26.06,711.9207,140.0009],
    [14546,1525552711,57.4102,-111.7395,479.3,182.4,88.7,7.8,1.0,18.79,25.73,711.9462,139.9992],
    [14547,1525552712,57.4102,-111.7384,479.4,182.4,88.5,7.6,1.5,18.56,26.01,712.0384,140.0046],
    [14548,1525552713,57.4102,-111.7371,479.2,182.2,87.6,7.8,0.7,18.7,25.95,712.0045,140.0018],
    [14549,1525552714,57.4103,-111.736,478.9,182.0,87.0,8.0,0.5,18.72,25.47,712.0086,140.0022],
    [14550,1525552715,57.4103,-111.7347,477.9,179.2,87.6,8.3,0.8,18.66,25.51,712.0069,139.9982],
    [14551,1525552716,57.4103,-111.7336,476.9,174.6,87.7,7.9,0.8,18.56,25.61,711.958,139.9967],
    [14552,1525552717,57.4104,-111.7324,476.0,170.0,88.7,7.9,1.5,18.8,25.38,711.935,140.0026],
    [14553,1525552718,57.4104,-111.7312,475.6,168.6,88.2,7.9,0.7,19.17,25.22,711.843,139.993],
    [14554,1525552719,57.4104,-111.73,475.7,167.7,87.9,8.2,0.3,18.62,25.54,711.6918,140.0018],
    [14555,1525552720,57.4104,-111.7288,476.0,167.0,89.6,7.9,1.5,18.49,25.62,711.6693,140.0027],
    [14556,1525552721,57.4104,-111.7277,476.2,166.2,90.0,7.1,1.3,18.86,25.51,711.5709,139.9982],
    [14557,1525552722,57.4104,-111.7265,476.7,167.7,90.8,6.8,1.5,19.04,25.34,711.2147,140.0054],
    [14558,1525552723,57.4104,-111.7252,477.8,169.7,92.8,6.0,2.4,18.38,25.62,711.1785,140.0038],
    [14559,1525552724,57.4104,-111.7241,479.2,172.9,93.8,6.1,2.4,18.89,25.17,711.2638,139.9953],
    [14560,1525552725,57.4104,-111.7229,480.3,174.3,94.0,5.7,2.1,18.73,25.71,711.1976,140.0],
    [14561,1525552726,57.4104,-111.7217,481.6,177.9,93.6,5.7,1.2,18.73,25.59,711.1985,140.0003],
    [14562,1525552727,57.4104,-111.7205,483.9,184.9,91.0,4.4,-1.1,18.23,25.58,711.0979,139.9999],
    [14563,1525552728,57.4103,-111.7193,485.1,190.1,92.6,6.2,0.5,18.56,25.29,710.9639,140.0037],
    [14564,1525552729,57.4103,-111.7182,485.2,190.5,93.6,6.5,0.8,18.49,25.75,710.8346,140.0024],
    [14565,1525552730,57.4103,-111.717,485.3,189.3,94.3,6.1,1.2,18.39,26.08,710.5339,139.9971],
    [14566,1525552731,57.4103,-111.7158,485.7,190.9,94.3,6.1,1.4,18.61,25.7,710.4223,140.0006],
    [14567,1525552732,57.4102,-111.7147,486.4,186.0,93.6,5.1,1.2,18.62,25.77,710.4117,140.0001],
    [14568,1525552733,57.4102,-111.7135,487.6,182.6,91.8,4.5,-0.2,18.44,25.64,710.459,139.9998],
    [14569,1525552734,57.4102,-111.7124,489.3,180.3,90.9,5.0,-0.2,18.18,25.61,710.446,140.0032],
    [14570,1525552735,57.4102,-111.7112,491.7,184.8,91.5,4.9,1.3,18.66,25.66,710.4267,139.9979],
    [14571,1525552736,57.4102,-111.71,494.0,186.9,90.5,5.3,0.8,19.11,24.94,710.4351,139.9971],
    [14572,1525552737,57.4102,-111.7089,494.7,187.2,88.8,5.2,-0.4,18.31,25.96,710.4691,140.0026],
    [14573,1525552738,57.4102,-111.7077,494.9,183.1,88.9,5.4,0.2,18.42,25.64,710.3243,139.997],
    [14574,1525552739,57.4102,-111.7065,494.9,184.8,87.8,6.0,-0.5,18.75,26.17,710.4217,139.9927],
    [14575,1525552740,57.4102,-111.7054,495.1,189.3,86.9,6.1,-0.9,18.7,25.56,710.4586,139.9925],
    [14576,1525552741,57.4103,-111.7042,494.8,192.0,86.7,5.4,-0.7,18.62,25.9,710.4451,139.9963],
    [14577,1525552742,57.4103,-111.703,495.1,197.1,86.0,6.2,-1.0,19.09,25.58,710.4221,140.0092],
    [14578,1525552743,57.4103,-111.7019,495.6,199.7,84.9,5.9,-1.2,18.61,25.78,710.1007,139.9892],
    [14579,1525552744,57.4104,-111.7008,495.0,200.7,85.0,5.3,-0.7,18.55,25.55,709.8949,139.991],
    [14580,1525552745,57.4104,-111.6996,494.1,202.1,85.0,3.8,-1.2,18.85,25.26,709.8606,140.0001],
    [14581,1525552746,57.4104,-111.6984,493.9,205.0,86.6,3.7,-0.1,18.38,25.49,709.76,139.9996],
    [14582,1525552747,57.4105,-111.6972,494.7,209.4,88.4,4.6,0.8,18.39,26.17,709.7894,139.9982],
    [14583,1525552748,57.4105,-111.6961,497.1,214.1,89.7,3.2,1.2,18.6,26.12,709.9454,139.9989],
    [14584,1525552749,57.4105,-111.6949,499.6,218.3,90.1,2.5,0.8,18.54,25.58,710.1445,140.0031],
    [14585,1525552750,57.4105,-111.6938,500.9,220.9,88.9,2.7,-0.8,18.52,25.9,710.2565,139.9972],
    [14586,1525552751,57.4105,-111.6927,502.3,223.3,88.2,3.4,-1.5,18.77,25.44,710.4165,140.0033],
    [14587,1525552752,57.4105,-111.6915,502.4,224.0,87.4,3.5,-2.2,18.61,26.46,710.5257,139.9965],
    [14588,1525552753,57.4105,-111.6903,500.8,222.8,87.6,3.5,-1.4,18.68,25.87,710.5769,139.9998],
    [14589,1525552754,57.4105,-111.6892,498.9,221.9,87.1,4.0,-1.6,18.57,26.39,710.6363,139.9943],
    [14590,1525552755,57.4106,-111.688,496.8,220.8,86.2,3.7,-2.1,18.53,25.95,710.6035,140.0013],
    [14591,1525552756,57.4106,-111.6868,495.0,219.7,86.9,3.8,-1.1,18.37,25.98,710.5749,139.9908],
    [14592,1525552757,57.4106,-111.6856,493.2,218.7,87.3,4.0,-0.3,18.39,25.99,710.6002,139.9942],
    [14593,1525552758,57.4106,-111.6844,491.9,217.9,88.0,3.3,0.5,18.99,25.84,710.5268,140.0031],
    [14594,1525552759,57.4107,-111.6833,491.2,218.2,87.0,3.3,-0.3,18.27,25.81,710.5011,139.9981],
    [14595,1525552760,57.4107,-111.6821,491.4,218.3,86.8,4.7,-0.6,18.22,26.21,710.4266,140.0059],
    [14596,1525552761,57.4107,-111.6809,491.6,219.6,87.8,3.9,-0.4,18.52,25.91,710.4966,140.0037],
    [14597,1525552762,57.4107,-111.6797,491.5,220.5,90.1,3.2,0.8,18.25,25.88,710.6184,140.0005],
    [14598,1525552763,57.4107,-111.6785,491.6,220.4,90.2,2.5,0.1,18.62,26.1,710.8389,139.9962],
    [14599,1525552764,57.4107,-111.6773,491.8,221.8,89.7,2.7,-1.3,18.69,25.64,711.1158,140.0014],
    [14600,1525552765,57.4107,-111.6761,493.0,224.0,90.7,3.6,-1.4,18.38,25.93,711.4683,139.9987],
    [14601,1525552766,57.4107,-111.6749,492.9,223.9,93.5,3.9,-0.5,18.58,26.15,711.721,139.9988],
    [14602,1525552767,57.4106,-111.6737,491.5,223.2,97.8,3.8,0.5,18.51,25.95,712.1791,140.0145],
    [14603,1525552768,57.4105,-111.6726,489.5,221.5,102.4,3.8,1.0,18.49,26.86,712.8895,140.0012],
    [14604,1525552769,57.4104,-111.6714,486.3,218.3,106.1,3.9,1.0,18.64,25.69,713.158,140.0045],
    [14605,1525552770,57.4102,-111.6703,481.9,214.9,110.5,3.9,0.6,17.98,25.71,713.368,140.005],
    [14606,1525552771,57.41,-111.6692,478.0,211.0,114.8,3.6,0.2,18.65,25.17,713.4236,140.0047],
    [14607,1525552772,57.4097,-111.6681,472.6,207.3,120.2,4.6,0.2,18.46,25.68,713.3128,139.9968],
    [14608,1525552773,57.4093,-111.667,466.8,207.6,126.6,5.9,0.8,19.04,24.97,713.2398,139.9956],
    [14609,1525552774,57.409,-111.6661,461.8,212.8,133.6,7.5,1.9,18.25,25.87,713.1549,140.0047],
    [14610,1525552775,57.4085,-111.6651,458.9,219.5,138.0,6.9,1.0,19.02,24.87,713.2163,140.0051],
    [14611,1525552776,57.408,-111.6643,458.0,216.0,140.9,6.2,-0.1,18.33,25.79,713.2654,140.0018],
    [14612,1525552777,57.4076,-111.6635,458.9,211.5,143.9,5.9,-0.9,18.54,25.56,713.1955,140.0015],
    [14613,1525552778,57.4071,-111.6628,460.4,202.4,146.3,5.3,-1.4,18.13,25.79,713.0975,139.9993],
    [14614,1525552779,57.4066,-111.6621,461.5,197.1,149.1,5.3,-1.2,18.43,25.85,713.2961,139.9973],
    [14615,1525552780,57.406,-111.6614,460.8,194.8,152.9,5.7,-1.3,18.33,25.89,713.6952,140.0009],
    [14616,1525552781,57.4054,-111.6608,460.5,195.4,157.7,6.5,-1.3,18.81,25.41,713.924,139.9944],
    [14617,1525552782,57.4048,-111.6604,460.6,197.7,161.5,6.3,-1.4,18.7,25.38,714.271,140.0018],
    [14618,1525552783,57.4043,-111.66,461.5,201.3,164.5,5.7,-1.3,18.83,25.36,714.5871,140.0014],
    [14619,1525552784,57.4036,-111.6596,460.9,201.9,168.8,6.9,-1.2,18.92,25.31,715.0104,140.0003],
    [14620,1525552785,57.403,-111.6593,457.9,199.9,171.3,5.8,-1.9,19.0,25.75,715.2304,139.9976],
    [14621,1525552786,57.4024,-111.659,453.8,196.7,175.3,6.0,-1.8,18.71,25.68,715.3266,140.0015],
    [14622,1525552787,57.4018,-111.6589,449.5,193.2,180.6,6.3,-2.0,18.72,25.81,715.5452,139.9933],
    [14623,1525552788,57.4011,-111.6589,445.4,189.4,185.2,6.1,-2.2,18.01,25.75,715.5114,140.0067],
    [14624,1525552789,57.4005,-111.6589,441.5,185.2,190.0,6.6,-2.7,18.37,25.83,715.647,139.9928],
    [14625,1525552790,57.3999,-111.659,437.9,181.7,194.5,6.2,-2.9,18.88,25.6,715.6242,140.0047],
    [14626,1525552791,57.3993,-111.6593,434.9,178.2,198.2,6.2,-3.7,19.09,25.29,715.7412,140.0039],
    [14627,1525552792,57.3987,-111.6595,432.8,175.8,200.4,5.8,-3.6,18.45,25.92,715.7519,139.9982],
    [14628,1525552793,57.398,-111.6599,432.6,175.3,202.0,5.7,-3.4,18.86,25.65,715.7014,140.0035],
    [14629,1525552794,57.3975,-111.6602,432.0,174.0,202.4,5.6,-3.1,18.58,26.1,715.6439,139.995],
    [14630,1525552795,57.3969,-111.6605,431.9,172.9,202.3,5.4,-2.7,19.11,24.99,715.6324,140.0075],
    [14631,1525552796,57.3963,-111.6609,431.4,171.5,202.7,5.8,-3.3,18.65,26.43,715.5604,139.9872],
    [14632,1525552797,57.3957,-111.6612,431.0,169.9,203.1,6.2,-4.0,18.49,25.46,715.3777,140.0021],
    [14633,1525552798,57.3951,-111.6616,431.3,170.2,202.6,6.1,-3.7,18.72,25.43,715.0094,139.9919],
    [14634,1525552799,57.3945,-111.6619,431.5,170.8,201.4,5.6,-2.1,18.27,25.73,715.2052,139.9886],
    [14635,1525552800,57.3939,-111.6622,432.0,172.0,199.9,5.0,-1.9,18.62,25.94,715.2296,139.9929],
    [14636,1525552801,57.3933,-111.6625,432.7,172.6,201.5,7.2,-3.2,18.6,25.64,715.2215,140.0019],
    [14637,1525552802,57.3927,-111.6628,434.9,175.2,198.2,3.9,-1.6,18.68,25.82,715.3128,140.0011],
    [14638,1525552803,57.3921,-111.6631,437.0,178.0,195.2,2.7,-0.1,18.2,25.7,715.3979,140.0043],
    [14639,1525552804,57.3915,-111.6633,437.2,179.3,196.7,6.0,0.3,18.98,25.48,715.193,139.9998],
    [14640,1525552805,57.3909,-111.6636,436.7,180.2,195.8,6.2,0.6,18.19,25.66,715.2731,140.0021],
    [14641,1525552806,57.3903,-111.6638,436.5,181.8,194.1,5.7,0.4,18.13,25.64,715.1641,139.9918],
    [14642,1525552807,57.3897,-111.6639,435.6,181.6,194.3,6.8,0.0,18.83,25.75,715.0461,140.0011],
    [14643,1525552808,57.389,-111.6641,435.0,181.6,192.4,5.7,-0.6,18.45,25.79,714.7446,140.0011],
    [14644,1525552809,57.3884,-111.6643,436.1,182.4,193.2,6.7,-2.3,18.23,25.62,714.7004,139.9899],
    [14645,1525552810,57.3878,-111.6644,437.2,184.6,191.7,5.1,-2.3,18.69,25.84,714.6434,139.9943],
    [14646,1525552811,57.3872,-111.6645,437.3,184.3,189.0,3.1,-0.3,18.44,25.61,714.478,140.0101],
    [14647,1525552812,57.3866,-111.6647,438.7,186.6,189.4,3.8,-0.5,18.63,25.55,714.6295,139.9918],
    [14648,1525552813,57.386,-111.6648,440.9,189.1,190.3,4.5,-0.6,19.24,25.19,714.6832,140.0005],
    [14649,1525552814,57.3854,-111.6649,442.3,191.0,190.7,5.4,0.5,18.35,25.54,714.7967,139.9938],
    [14650,1525552815,57.3848,-111.665,442.8,190.1,192.2,7.2,0.3,18.4,25.53,714.9513,140.0139],
    [14651,1525552816,57.3842,-111.6651,443.7,191.1,191.1,6.4,0.3,18.47,25.48,715.1293,140.0087],
    [14652,1525552817,57.3836,-111.6653,443.8,191.1,192.6,8.5,-0.9,18.57,25.52,715.228,140.004],
    [14653,1525552818,57.3829,-111.6654,442.8,188.8,193.1,9.1,-1.3,18.71,25.58,715.2183,140.004],
    [14654,1525552819,57.3823,-111.6655,441.7,188.4,192.7,9.3,-0.9,18.83,25.59,715.2416,140.0009],
    [14655,1525552820,57.3816,-111.6656,440.7,187.2,192.6,9.6,-1.6,19.35,25.4,715.2326,139.9979],
    [14656,1525552821,57.3811,-111.6657,439.5,186.1,192.2,9.5,-3.3,18.76,25.82,715.191,139.9982],
    [14657,1525552822,57.3804,-111.6657,438.1,185.8,190.1,8.3,-3.5,19.0,26.46,715.1234,140.0006],
    [14658,1525552823,57.3799,-111.6658,437.4,185.8,187.0,7.0,-2.8,18.6,26.07,715.2129,140.0023],
    [14659,1525552824,57.3792,-111.6658,437.7,189.0,186.0,6.5,-2.8,18.89,25.8,715.1343,140.0001],
    [14660,1525552825,57.3786,-111.6658,437.8,190.7,185.0,5.9,-2.4,18.87,25.9,714.965,139.9975],
    [14661,1525552826,57.378,-111.6658,438.3,193.0,187.0,7.9,-3.6,18.52,25.74,714.9548,139.9982],
    [14662,1525552827,57.3773,-111.6658,438.7,194.7,186.6,7.2,-2.8,19.09,25.54,715.1909,139.9911],
    [14663,1525552828,57.3767,-111.6658,438.8,196.6,187.0,8.1,-1.2,19.12,25.18,715.2653,139.9924],
    [14664,1525552829,57.3761,-111.6658,439.2,200.7,188.3,9.0,-1.8,18.75,25.63,715.4973,140.0018],
    [14665,1525552830,57.3755,-111.6658,440.0,202.6,186.0,6.2,-1.4,18.54,25.69,715.8889,140.0045],
    [14666,1525552831,57.3748,-111.6658,441.7,205.2,185.3,6.1,1.1,19.37,25.36,715.9891,140.0027],
    [14667,1525552832,57.3743,-111.6658,440.3,203.8,186.5,7.7,1.6,19.04,25.93,716.1366,139.9981],
    [14668,1525552833,57.3736,-111.6658,437.3,203.0,186.5,8.4,1.6,18.48,25.42,716.1954,139.9972],
    [14669,1525552834,57.373,-111.6658,434.9,200.5,186.0,8.4,1.9,19.35,25.21,716.2837,140.0011],
    [14670,1525552835,57.3724,-111.6658,431.9,197.5,185.8,8.6,1.4,18.83,25.11,716.4877,140.0043],
    [14671,1525552836,57.3718,-111.6658,429.4,195.0,185.2,8.4,1.2,18.9,24.76,716.533,139.9991],
    [14672,1525552837,57.3712,-111.6657,427.3,193.3,185.4,9.1,1.8,19.01,24.66,716.5812,140.0076],
    [14673,1525552838,57.3705,-111.6657,425.8,191.8,185.0,9.3,2.5,18.68,24.57,716.5945,140.0025],
    [14674,1525552839,57.3699,-111.6656,424.3,190.8,185.3,10.1,2.2,18.88,24.63,716.6802,140.0003],
    [14675,1525552840,57.3693,-111.6656,422.5,189.3,186.4,11.6,1.9,18.38,24.55,716.8564,139.9969],
    [14676,1525552841,57.3687,-111.6655,421.6,188.6,186.8,11.9,1.5,18.96,24.37,717.1439,140.0029],
    [14677,1525552842,57.368,-111.6655,421.1,189.1,186.0,11.0,1.2,18.96,24.62,717.2889,139.9992],
    [14678,1525552843,57.3674,-111.6654,420.6,188.6,185.8,10.9,1.0,19.21,23.94,717.469,140.0019],
    [14679,1525552844,57.3668,-111.6653,419.6,187.6,186.0,11.1,1.2,19.62,24.08,717.3865,140.0009],
    [14680,1525552845,57.3662,-111.6653,417.5,185.5,185.9,10.9,1.3,18.83,24.3,717.2524,139.9987],
    [14681,1525552846,57.3655,-111.6652,414.4,182.4,185.8,10.7,1.1,19.47,23.72,717.3229,139.9872],
    [14682,1525552847,57.3649,-111.6652,411.4,179.4,186.4,11.1,1.7,19.38,24.36,717.4072,140.0031],
    [14683,1525552848,57.3643,-111.6651,409.9,177.9,186.7,10.4,1.6,19.1,24.5,717.5717,139.992],
    [14684,1525552849,57.3637,-111.6651,410.1,178.1,183.9,6.8,2.2,18.61,24.38,717.8557,140.0034],
    [14685,1525552850,57.3632,-111.6651,411.2,179.2,182.5,5.8,2.9,19.08,24.71,718.1592,140.0032],
    [14686,1525552851,57.3625,-111.665,411.5,179.5,184.9,8.9,2.1,19.22,24.94,718.2821,139.9994],
    [14687,1525552852,57.3618,-111.665,411.5,179.5,182.8,6.7,1.9,19.12,24.26,718.1644,140.0054],
    [14688,1525552853,57.3612,-111.6649,409.2,177.2,185.2,9.6,2.0,18.7,24.78,718.0507,140.0034],
    [14689,1525552854,57.3606,-111.6649,406.5,174.5,186.5,10.1,1.9,19.09,24.91,717.8481,140.0058],
    [14690,1525552855,57.3599,-111.6648,402.9,170.9,186.5,9.9,1.0,18.77,24.72,717.8041,139.9867],
    [14691,1525552856,57.3593,-111.6648,401.3,168.5,187.4,10.3,0.4,18.93,24.67,717.799,139.9941],
    [14692,1525552857,57.3588,-111.6648,401.6,168.6,186.3,9.3,1.0,19.07,24.53,717.6562,140.0005],
    [14693,1525552858,57.3581,-111.6647,403.7,170.7,187.1,10.0,0.1,19.9,23.95,717.6177,140.0045],
    [14694,1525552859,57.3575,-111.6647,405.6,172.6,185.5,7.6,-1.0,19.18,24.44,717.6082,140.0062],
    [14695,1525552860,57.3569,-111.6647,406.2,173.2,184.4,6.8,0.1,19.34,24.29,717.5672,140.005],
    [14696,1525552861,57.3563,-111.6647,406.6,172.6,186.7,9.1,0.5,19.36,24.59,717.3931,139.9958],
    [14697,1525552862,57.3557,-111.6647,407.3,173.3,185.1,6.7,1.0,19.39,24.29,717.3882,139.9956],
    [14698,1525552863,57.3551,-111.6647,408.6,174.6,184.9,6.9,1.4,19.32,24.22,716.9957,140.0091],
    [14699,1525552864,57.3545,-111.6646,408.9,174.9,186.2,7.7,1.2,18.9,24.32,716.9508,140.0101],
    [14700,1525552865,57.3539,-111.6646,409.5,174.5,185.0,6.5,0.8,19.36,24.71,717.1175,139.9942],
    [14701,1525552866,57.3533,-111.6646,410.8,175.8,185.8,7.4,0.6,19.02,24.54,717.358,140.0015],
    [14702,1525552867,57.3527,-111.6646,412.7,176.7,184.7,5.9,0.0,19.06,24.36,717.5504,139.9963],
    [14703,1525552868,57.3521,-111.6646,415.3,179.3,181.4,2.8,-0.8,19.53,24.25,717.5012,140.0037],
    [14704,1525552869,57.3515,-111.6646,416.8,181.5,182.6,4.7,-1.5,19.38,25.01,717.5257,140.0018],
    [14705,1525552870,57.3509,-111.6645,415.6,180.6,184.1,6.6,-1.1,19.51,24.02,717.6072,139.9974],
    [14706,1525552871,57.3503,-111.6645,412.8,176.8,184.9,8.0,-0.4,19.27,25.07,717.7257,140.0014],
    [14707,1525552872,57.3497,-111.6645,410.8,175.8,186.3,9.2,-0.4,19.7,24.28,717.7953,140.0108],
    [14708,1525552873,57.3492,-111.6644,410.9,175.9,184.4,7.6,-0.2,19.45,24.92,717.7537,140.0085],
    [14709,1525552874,57.3485,-111.6644,411.3,176.3,183.9,7.4,-0.9,19.92,23.98,717.689,140.0053],
    [14710,1525552875,57.3479,-111.6643,410.5,175.5,181.8,5.9,-1.3,18.99,24.48,717.1239,139.9953],
    [14711,1525552876,57.3473,-111.6643,409.6,174.6,181.5,6.7,-1.0,19.46,24.48,716.937,140.001],
    [14712,1525552877,57.3468,-111.6642,408.5,173.6,181.5,7.3,-0.7,19.2,24.41,716.6951,139.9948],
    [14713,1525552878,57.3462,-111.6641,408.5,172.4,180.1,6.5,-0.7,19.01,24.31,716.6152,140.0057],
    [14714,1525552879,57.3456,-111.664,410.7,174.2,179.1,5.9,-1.3,19.67,24.22,716.5155,140.0012],
    [14715,1525552880,57.345,-111.6638,414.3,176.3,178.3,5.4,-1.7,19.35,24.4,716.3816,140.006],
    [14716,1525552881,57.3444,-111.6637,417.8,178.5,178.3,5.4,-1.7,18.99,24.53,716.0531,139.9901],
    [14717,1525552882,57.3438,-111.6636,420.4,177.0,179.4,5.8,-1.5,19.93,23.87,715.8403,139.9993],
    [14718,1525552883,57.3433,-111.6635,422.6,177.1,181.0,6.6,-1.7,19.19,24.28,715.4677,139.9973],
    [14719,1525552884,57.3427,-111.6634,423.7,175.6,183.2,7.6,-2.0,19.01,24.69,715.3253,139.9981],
    [14720,1525552885,57.3421,-111.6634,425.3,175.7,184.1,7.2,-2.3,19.64,24.24,715.2973,140.0058],
    [14721,1525552886,57.3417,-111.6633,427.5,176.4,185.1,7.6,-2.1,18.98,24.34,715.2277,140.0017],
    [14722,1525552887,57.3411,-111.6633,431.0,172.9,187.3,8.9,-2.1,19.15,24.59,715.0294,139.9972],
    [14723,1525552888,57.3405,-111.6633,434.9,174.6,188.2,9.4,-2.3,19.02,24.54,714.9406,139.9995],
    [14724,1525552889,57.3399,-111.6633,437.2,176.3,188.6,9.6,-2.0,19.28,24.48,714.6573,139.9976],
    [14725,1525552890,57.3393,-111.6633,438.2,176.4,188.4,9.5,-2.3,18.9,24.62,714.4683,139.996],
    [14726,1525552891,57.3387,-111.6633,438.8,175.5,187.8,9.2,-2.6,19.16,24.33,714.2559,139.9916],
    [14727,1525552892,57.3382,-111.6632,440.6,175.6,187.1,8.7,-2.9,19.16,24.48,714.105,139.9972],
    [14728,1525552893,57.3376,-111.6632,443.0,176.1,187.8,9.1,-3.2,19.14,24.86,713.7293,139.9983],
    [14729,1525552894,57.337,-111.6632,445.9,177.6,187.7,8.3,-3.2,19.24,24.88,713.5171,139.9976],
    [14730,1525552895,57.3365,-111.6632,447.9,178.9,188.0,8.0,-2.6,19.52,24.18,713.3547,140.0002],
    [14731,1525552896,57.3359,-111.6632,449.0,179.3,188.5,7.6,-1.3,19.05,24.93,713.3225,140.0014],
    [14732,1525552897,57.3354,-111.6633,451.1,181.4,188.0,6.5,-0.6,19.38,24.21,713.1958,139.9954],
    [14733,1525552898,57.3348,-111.6633,454.7,185.1,188.3,6.9,-0.6,19.14,24.93,713.3837,139.991],
    [14734,1525552899,57.3343,-111.6633,458.6,190.9,189.6,8.2,-1.0,18.8,25.04,713.6873,140.0065],
    [14735,1525552900,57.3337,-111.6634,460.9,193.5,189.6,8.1,-1.3,18.91,24.48,713.9511,140.0068],
    [14736,1525552901,57.3332,-111.6634,461.9,194.4,189.1,7.6,-1.6,18.45,24.73,714.3936,140.0106],
    [14737,1525552902,57.3327,-111.6634,462.4,195.7,188.4,7.0,-1.2,19.52,24.22,714.3582,139.9957],
    [14738,1525552903,57.3321,-111.6635,460.9,194.5,188.7,7.8,-0.6,18.99,25.16,714.5603,139.9916],
    [14739,1525552904,57.3315,-111.6635,458.1,192.5,188.4,7.8,-0.9,19.5,24.1,714.6806,140.004],
    [14740,1525552905,57.331,-111.6635,454.8,189.4,187.4,7.2,-1.6,19.05,24.25,714.6278,139.9995],
    [14741,1525552906,57.3304,-111.6635,450.6,185.1,187.3,8.1,-2.0,19.46,24.29,714.7943,140.0007],
    [14742,1525552907,57.3298,-111.6635,448.5,182.3,187.0,8.4,-2.2,19.08,24.4,714.8886,139.9989],
    [14743,1525552908,57.3292,-111.6635,446.8,179.2,187.1,9.2,-1.3,19.11,24.72,714.9095,140.0013],
    [14744,1525552909,57.3287,-111.6635,445.3,176.9,187.1,9.1,-0.5,19.06,24.48,715.2166,140.0014],
    [14745,1525552910,57.3281,-111.6634,444.8,176.1,184.6,6.4,-0.4,18.96,24.83,715.3759,140.0038],
    [14746,1525552911,57.3275,-111.6634,444.1,175.5,185.9,7.5,-2.7,18.43,24.66,715.5606,139.9884],
    [14747,1525552912,57.3269,-111.6634,443.0,174.4,187.8,8.3,-4.5,19.0,25.31,715.5525,139.9963],
    [14748,1525552913,57.3264,-111.6634,442.2,173.5,185.8,6.1,-3.7,19.57,24.36,715.5925,139.9966],
    [14749,1525552914,57.3258,-111.6634,439.9,171.4,184.2,5.2,-3.7,19.21,24.59,715.61,139.9886],
    [14750,1525552915,57.3252,-111.6634,436.9,169.6,186.1,7.8,-4.3,18.57,24.88,715.5722,139.9961],
    [14751,1525552916,57.3246,-111.6634,434.7,167.0,188.0,9.8,-4.2,19.23,24.66,715.6828,139.992],
    [14752,1525552917,57.324,-111.6633,433.9,165.7,185.8,7.9,-3.5,19.36,24.63,715.5201,139.9987],
    [14753,1525552918,57.3234,-111.6633,433.9,163.3,184.2,7.5,-3.5,19.15,24.55,715.4898,139.9917],
    [14754,1525552919,57.3228,-111.6633,433.6,162.0,184.7,8.4,-3.2,18.44,24.91,715.227,139.9998],
    [14755,1525552920,57.3222,-111.6632,433.3,161.8,180.8,5.4,-2.1,19.0,24.5,715.2084,139.999],
    [14756,1525552921,57.3217,-111.6631,432.9,160.3,180.1,5.4,-1.4,18.86,24.7,715.0887,139.9959],
    [14757,1525552922,57.321,-111.663,433.5,158.6,178.7,4.0,-0.6,18.62,24.85,715.0277,139.998],
    [14758,1525552923,57.3204,-111.6629,434.2,158.2,180.1,5.3,-1.2,18.87,24.91,714.9765,139.9973],
    [14759,1525552924,57.3198,-111.6629,435.5,160.2,181.1,5.5,-0.9,18.82,25.02,714.9537,140.0061],
    [14760,1525552925,57.3192,-111.6628,436.9,160.5,181.8,6.2,-0.1,18.62,24.94,714.856,140.0075],
    [14761,1525552926,57.3186,-111.6627,437.8,161.9,183.5,8.4,0.3,19.38,24.51,714.9154,140.0026],
    [14762,1525552927,57.3181,-111.6627,438.3,163.0,184.7,10.0,1.1,19.15,24.94,715.1135,140.0083],
    [14763,1525552928,57.3174,-111.6626,438.9,163.5,186.4,11.9,1.4,18.87,25.05,715.4074,139.9979],
    [14764,1525552929,57.3167,-111.6625,439.7,164.7,185.9,10.3,0.6,19.07,25.57,715.3635,140.006],
    [14765,1525552930,57.3161,-111.6625,440.7,165.0,186.0,10.5,-0.4,18.65,25.08,715.2684,139.9909],
    [14766,1525552931,57.3155,-111.6624,440.5,164.8,189.3,13.4,-1.8,19.2,24.67,715.1622,140.0106],
    [14767,1525552932,57.3149,-111.6624,438.7,163.0,187.9,11.2,-0.9,19.33,24.41,715.1218,139.9981],
    [14768,1525552933,57.3143,-111.6624,436.5,160.8,188.5,11.2,-1.2,19.05,25.05,714.9813,140.0048],
    [14769,1525552934,57.3136,-111.6624,434.8,159.9,190.6,11.2,-1.7,18.99,24.66,714.8951,139.9933],
    [14770,1525552935,57.313,-111.6624,435.5,160.8,193.0,10.2,-2.2,19.23,24.3,714.9719,140.0028],
    [14771,1525552936,57.3124,-111.6625,437.3,163.9,193.7,7.3,-2.3,18.71,24.31,715.11,140.0033],
    [14772,1525552937,57.3118,-111.6627,438.7,165.3,195.7,6.7,-2.4,19.35,24.3,715.3381,139.9687],
    [14773,1525552938,57.3112,-111.6629,439.8,167.8,199.8,6.6,-4.4,19.09,24.61,715.4976,140.0017],
    [14774,1525552939,57.3106,-111.6632,440.4,169.7,201.9,5.9,-2.6,18.76,24.97,715.4055,139.9924],
    [14775,1525552940,57.31,-111.6635,440.5,171.4,206.5,8.0,-2.5,18.63,24.63,715.3629,139.9999],
    [14776,1525552941,57.3095,-111.664,438.2,173.6,211.2,8.4,-3.8,19.05,24.67,715.2989,139.9994],
    [14777,1525552942,57.3089,-111.6644,435.8,174.1,215.0,8.4,-2.3,19.28,24.63,715.2774,140.01],
    [14778,1525552943,57.3084,-111.665,434.6,181.2,221.3,9.3,-2.6,19.18,24.82,715.3689,139.9949],
    [14779,1525552944,57.3079,-111.6657,434.3,187.0,224.2,8.2,-0.8,19.15,24.34,715.4391,139.9971],
    [14780,1525552945,57.3075,-111.6663,435.1,192.5,227.9,8.9,-1.1,19.21,25.19,715.4233,140.003],
    [14781,1525552946,57.3071,-111.6671,436.0,198.0,231.7,9.2,-2.2,19.15,24.55,715.1796,139.9982],
    [14782,1525552947,57.3067,-111.6679,436.4,199.4,233.9,8.4,-2.2,18.66,24.87,714.9542,139.9972],
    [14783,1525552948,57.3063,-111.6687,435.8,198.8,237.5,8.5,-3.2,19.35,24.83,714.7698,140.0024],
    [14784,1525552949,57.306,-111.6695,435.1,198.1,241.8,8.8,-3.8,18.93,25.34,714.2561,140.0073],
    [14785,1525552950,57.3057,-111.6704,435.6,199.6,244.6,9.0,-2.6,18.94,24.76,714.0956,139.9905],
    [14786,1525552951,57.3054,-111.6713,437.3,201.3,248.2,9.7,-2.5,19.21,25.21,713.9085,140.0011],
    [14787,1525552952,57.3051,-111.6722,440.2,204.2,251.8,8.8,-3.3,19.04,24.49,713.9417,139.9986],
    [14788,1525552953,57.3049,-111.6731,444.1,209.1,252.9,6.6,-2.6,19.28,24.23,713.9999,139.9924],
    [14789,1525552954,57.3048,-111.6741,448.4,213.4,251.5,5.3,-0.7,19.78,23.8,713.9405,139.9984],
    [14790,1525552955,57.3046,-111.675,451.3,216.3,253.5,6.4,-2.4,19.34,24.5,713.8903,139.9998],
    [14791,1525552956,57.3044,-111.6759,452.5,217.5,253.6,6.2,-2.0,19.0,24.74,713.9583,139.9948],
    [14792,1525552957,57.3042,-111.6769,453.2,218.2,252.8,5.6,-1.3,19.38,24.74,713.9579,140.0059],
    [14793,1525552958,57.304,-111.6778,453.0,218.0,255.9,6.9,-4.1,18.65,25.03,714.0081,139.9951],
    [14794,1525552959,57.3038,-111.6787,453.0,218.0,255.8,8.0,-2.5,18.7,24.86,714.0611,140.005],
    [14795,1525552960,57.3037,-111.6797,453.3,217.3,254.6,8.5,-1.1,19.14,24.64,713.775,140.0074],
    [14796,1525552961,57.3035,-111.6806,453.1,216.1,257.2,9.4,-3.3,19.23,24.76,713.5588,139.9871],
    [14797,1525552962,57.3033,-111.6816,452.5,215.4,256.5,9.1,-1.4,19.5,24.76,713.1967,140.0008],
    [14798,1525552963,57.3032,-111.6825,452.4,211.3,258.0,8.7,-1.8,19.03,25.4,712.9666,139.9945],
    [14799,1525552964,57.3031,-111.6834,452.2,208.2,259.9,8.2,-2.2,19.2,24.66,712.8738,140.0035],
    [14800,1525552965,57.3029,-111.6845,454.1,205.1,260.6,7.8,-0.9,19.4,24.41,712.6497,140.0016],
    [14801,1525552966,57.3028,-111.6854,457.8,208.8,263.2,9.5,-2.0,19.23,24.32,712.4865,140.0043],
    [14802,1525552967,57.3028,-111.6864,461.6,216.5,265.0,10.4,-2.6,19.08,24.16,712.3017,140.0061],
    [14803,1525552968,57.3027,-111.6874,464.2,225.5,266.3,10.4,-3.3,19.58,23.61,711.857,139.9994],
    [14804,1525552969,57.3026,-111.6883,465.9,229.0,266.7,10.0,-2.9,19.36,24.03,711.4583,140.0046],
    [14805,1525552970,57.3026,-111.6893,467.8,228.9,266.7,10.2,-2.6,19.29,24.15,711.1639,140.001],
    [14806,1525552971,57.3025,-111.6903,470.7,227.2,266.7,10.0,-2.5,19.08,24.28,710.8412,140.0019],
    [14807,1525552972,57.3024,-111.6912,474.4,217.5,266.1,9.8,-2.1,19.45,23.76,710.5989,139.9981],
    [14808,1525552973,57.3024,-111.6921,478.5,210.5,266.1,9.8,-2.3,19.04,24.22,710.4619,139.9936],
    [14809,1525552974,57.3023,-111.693,482.6,210.3,265.6,9.6,-2.0,19.08,24.27,710.2802,140.0018],
    [14810,1525552975,57.3023,-111.6939,486.4,210.3,265.9,9.2,-2.5,19.14,24.2,710.2143,140.0041],
    [14811,1525552976,57.3022,-111.6948,489.9,212.9,266.4,8.6,-3.1,19.05,24.05,710.0677,139.9997],
    [14812,1525552977,57.3021,-111.6957,492.8,214.5,266.4,9.3,-2.8,18.79,24.45,709.7471,140.0001],
    [14813,1525552978,57.3021,-111.6966,494.9,214.8,266.0,10.0,-2.5,19.0,24.6,709.7137,139.9982],
    [14814,1525552979,57.302,-111.6976,497.0,216.1,264.9,10.6,-1.4,19.12,24.33,709.6878,140.0031],
    [14815,1525552980,57.3019,-111.6985,499.1,217.2,264.4,10.5,-1.0,19.5,24.44,709.5288,140.0042],
    [14816,1525552981,57.3019,-111.6993,501.2,218.3,264.6,10.1,-1.2,19.34,24.17,709.4272,139.9976],
    [14817,1525552982,57.3018,-111.7002,503.2,219.3,263.3,9.6,-0.1,18.88,24.53,709.3025,140.0056],
    [14818,1525552983,57.3018,-111.701,504.6,218.9,263.2,9.9,-0.1,18.91,24.38,709.1578,140.0025],
    [14819,1525552984,57.3017,-111.7019,505.4,218.6,265.6,9.4,-2.2,18.89,24.55,708.9756,140.0011],
    [14820,1525552985,57.3016,-111.7028,506.3,218.9,265.4,9.7,-1.2,18.93,24.62,708.7662,139.9992],
    [14821,1525552986,57.3016,-111.7036,508.0,220.0,265.8,9.8,-1.4,18.75,24.62,708.5809,140.0014],
    [14822,1525552987,57.3015,-111.7044,509.7,221.7,266.8,8.8,-2.1,18.9,24.95,708.3238,139.999],
    [14823,1525552988,57.3015,-111.7053,511.3,222.3,265.6,7.9,-1.1,18.77,24.87,707.9544,140.0014],
    [14824,1525552989,57.3014,-111.7061,513.1,224.1,264.5,7.5,-0.5,18.89,24.97,707.6904,140.0046],
    [14825,1525552990,57.3014,-111.7069,515.1,226.1,263.0,8.1,0.8,18.62,24.96,707.3845,139.9888],
    [14826,1525552991,57.3013,-111.7076,516.9,226.9,262.2,8.4,1.5,18.72,25.57,706.9496,139.9974],
    [14827,1525552992,57.3013,-111.7086,520.6,230.6,263.2,8.0,0.7,18.82,24.72,706.6023,139.9957],
    [14828,1525552993,57.3012,-111.7094,525.0,235.0,263.3,8.3,0.7,18.5,24.99,706.2928,139.9981],
    [14829,1525552994,57.3011,-111.7102,529.4,239.4,264.9,7.7,-1.0,18.6,25.08,705.9488,139.9912],
    [14830,1525552995,57.3011,-111.711,533.9,243.9,267.0,7.3,-2.5,18.65,25.39,705.775,139.9966],
    [14831,1525552996,57.301,-111.7119,538.4,248.4,266.2,7.3,-1.0,18.37,25.4,705.4822,140.0001],
    [14832,1525552997,57.301,-111.7126,541.7,251.7,265.2,7.3,0.6,18.11,25.44,705.102,140.0093],
    [14833,1525552998,57.301,-111.7135,545.5,255.5,267.2,6.8,-0.5,18.52,25.39,704.812,139.9852],
    [14834,1525552999,57.3009,-111.7142,549.2,259.0,270.4,7.5,-2.1,18.56,25.74,704.6731,140.0058],
    [14835,1525553000,57.3009,-111.7151,553.1,262.1,271.9,8.2,-2.1,18.49,25.33,704.2957,139.9924],
    [14836,1525553001,57.3009,-111.7159,556.4,265.4,274.4,7.6,-3.0,18.6,25.7,704.0419,140.0048],
    [14837,1525553002,57.301,-111.7166,559.3,268.3,275.0,6.3,-2.3,18.56,26.07,703.8891,139.9811],
    [14838,1525553003,57.301,-111.7175,563.5,272.5,274.7,6.5,-2.4,19.11,25.22,703.7306,139.991],
    [14839,1525553004,57.301,-111.7183,566.2,275.2,276.9,6.0,-4.7,19.22,25.13,703.4179,140.0079],
    [14840,1525553005,57.301,-111.7191,569.5,278.5,274.8,5.8,-3.6,19.07,25.09,703.2856,139.9908],
    [14841,1525553006,57.301,-111.7199,572.7,281.6,272.7,5.8,-2.8,18.26,25.52,703.2176,139.9966],
    [14842,1525553007,57.301,-111.7207,575.4,283.4,273.2,5.7,-4.1,18.02,25.89,703.1613,140.0027],
    [14843,1525553008,57.301,-111.7215,578.0,286.0,273.8,6.1,-5.1,18.32,25.76,703.1046,139.9897],
    [14844,1525553009,57.301,-111.7223,580.2,287.6,272.0,6.5,-3.6,17.9,25.9,703.1077,140.0032],
    [14845,1525553010,57.301,-111.7231,582.4,289.4,270.1,6.8,-2.7,18.22,25.89,702.7918,140.0025],
    [14846,1525553011,57.3009,-111.724,583.5,289.4,271.4,6.1,-4.3,17.73,25.98,702.8758,139.9852],
    [14847,1525553012,57.3009,-111.7248,584.1,290.1,270.6,6.6,-3.8,18.49,25.74,702.8052,139.9985],
    [14848,1525553013,57.3009,-111.7256,584.8,289.8,270.0,7.2,-4.0,18.25,26.21,702.8149,139.9969],
    [14849,1525553014,57.3008,-111.7265,585.3,289.3,270.0,6.6,-4.3,17.97,26.78,702.9269,139.9864],
    [14850,1525553015,57.3008,-111.7273,586.6,289.6,268.2,6.5,-2.8,18.22,26.94,703.0308,139.9886],
    [14851,1525553016,57.3008,-111.7282,587.8,289.8,269.3,7.2,-4.4,18.07,26.55,702.9898,139.9973],
    [14852,1525553017,57.3007,-111.7289,587.9,288.8,270.7,7.3,-5.6,18.18,26.91,702.9792,139.9976],
    [14853,1525553018,57.3007,-111.7299,587.9,288.4,268.4,7.2,-3.2,18.42,25.9,702.7817,139.9904],
    [14854,1525553019,57.3006,-111.7307,587.4,287.3,268.4,7.6,-3.0,17.9,26.41,702.726,139.9969],
    [14855,1525553020,57.3006,-111.7316,586.3,285.3,269.2,8.6,-3.1,17.86,26.78,702.5053,139.9939],
    [14856,1525553021,57.3006,-111.7325,585.8,283.8,270.4,8.6,-3.2,17.81,26.59,702.3502,139.9977],
    [14857,1525553022,57.3005,-111.7334,585.9,283.9,271.0,8.5,-3.3,18.11,27.1,702.3112,140.0049],
    [14858,1525553023,57.3005,-111.7343,587.3,285.3,270.9,10.2,-2.7,18.04,26.55,702.178,140.0005],
    [14859,1525553024,57.3005,-111.7352,589.1,286.1,270.3,10.1,-2.0,18.61,25.84,702.0896,139.9971],
    [14860,1525553025,57.3005,-111.7361,591.0,288.0,270.0,9.7,-1.9,17.71,26.47,702.0807,139.9951],
    [14861,1525553026,57.3005,-111.737,592.8,289.8,270.0,9.8,-2.2,18.44,26.24,701.8739,139.9939],
    [14862,1525553027,57.3005,-111.7379,593.8,290.8,270.3,9.1,-2.9,18.12,26.02,701.7595,139.9949],
    [14863,1525553028,57.3004,-111.7389,594.9,291.9,269.8,8.4,-2.9,18.35,26.01,701.5515,139.9958],
    [14864,1525553029,57.3004,-111.7397,595.8,293.8,269.4,9.3,-3.1,18.12,26.25,701.4295,139.9942],
    [14865,1525553030,57.3004,-111.7406,596.6,294.6,269.0,9.6,-2.9,17.87,26.36,701.2412,139.9955],
    [14866,1525553031,57.3003,-111.7415,597.9,295.9,267.3,9.6,-1.6,18.17,26.08,701.2324,139.9957],
    [14867,1525553032,57.3003,-111.7425,599.9,298.9,267.7,10.1,-2.2,18.1,26.12,701.3018,140.004],
    [14868,1525553033,57.3002,-111.7434,601.8,300.8,267.7,9.9,-2.3,18.02,25.92,701.2923,140.0014],
    [14869,1525553034,57.3002,-111.7441,603.2,302.2,268.3,10.0,-2.4,18.13,25.83,701.1789,139.9969],
    [14870,1525553035,57.3002,-111.7451,604.8,304.5,268.3,10.4,-1.4,17.89,26.16,701.2331,140.0003],
    [14871,1525553036,57.3001,-111.7461,605.9,304.9,269.2,11.0,-1.6,17.96,26.15,701.1999,140.0003],
    [14872,1525553037,57.3001,-111.747,605.8,304.8,270.3,10.8,-2.2,17.62,25.85,701.1451,139.9967],
    [14873,1525553038,57.3001,-111.7478,605.8,304.8,270.6,10.4,-2.2,17.84,26.06,701.0455,139.9942],
    [14874,1525553039,57.3001,-111.7488,606.2,305.2,270.4,10.2,-1.8,17.82,26.18,701.1708,139.9914],
    [14875,1525553040,57.3001,-111.7497,606.5,305.5,270.7,10.4,-1.9,17.8,25.77,701.3255,139.9957],
    [14876,1525553041,57.3001,-111.7505,606.9,305.9,271.7,9.8,-2.5,17.78,26.02,701.4654,140.0097],
    [14877,1525553042,57.3001,-111.7515,607.7,306.7,272.9,8.8,-3.1,17.66,26.03,701.6537,139.9971],
    [14878,1525553043,57.3001,-111.7524,608.0,307.0,272.9,9.5,-2.5,17.93,26.67,701.8723,140.0],
    [14879,1525553044,57.3001,-111.7533,607.4,306.2,272.6,9.9,-2.4,17.84,25.84,702.0923,139.9984],
    [14880,1525553045,57.3001,-111.7542,605.8,303.8,273.4,9.6,-3.3,18.07,26.4,702.1816,140.0],
    [14881,1525553046,57.3001,-111.7551,603.8,301.9,271.8,9.1,-1.9,18.21,25.34,702.3064,139.9944],
    [14882,1525553047,57.3001,-111.756,601.9,299.9,271.3,8.6,-2.2,17.8,26.02,702.2823,140.0025],
    [14883,1525553048,57.3001,-111.7569,599.2,297.2,272.1,8.4,-3.1,18.07,25.93,702.5017,140.0008],
    [14884,1525553049,57.3001,-111.7578,596.7,294.7,271.6,8.9,-2.7,17.7,26.13,702.4899,140.0047],
    [14885,1525553050,57.3001,-111.7588,594.6,292.6,271.7,9.1,-2.5,17.33,26.18,702.5416,139.9961],
    [14886,1525553051,57.3001,-111.7598,593.5,291.5,271.4,9.1,-2.4,17.8,26.22,702.5413,140.0039],
    [14887,1525553052,57.3,-111.7607,593.2,291.2,271.3,8.8,-2.4,17.62,26.34,702.611,140.0032],
    [14888,1525553053,57.3,-111.7617,592.1,290.1,270.7,8.5,-1.9,17.63,26.87,702.4692,139.9867],
    [14889,1525553054,57.3,-111.7626,590.9,288.7,270.4,8.3,-1.9,17.18,26.18,702.4305,139.9967],
    [14890,1525553055,57.3,-111.7636,590.3,287.3,270.2,7.7,-2.1,17.53,26.71,702.3455,139.9987],
    [14891,1525553056,57.3,-111.7645,590.0,286.0,269.3,7.1,-1.2,18.04,25.9,702.545,139.9935],
    [14892,1525553057,57.3,-111.7654,589.7,284.7,269.4,7.7,-0.9,17.68,26.21,702.5938,139.9983],
    [14893,1525553058,57.3,-111.7664,590.2,284.2,270.6,7.8,-1.6,17.24,26.18,702.7161,139.9934],
    [14894,1525553059,57.3,-111.7673,591.2,285.2,272.1,7.5,-2.3,18.45,25.54,702.837,139.9976],
    [14895,1525553060,57.3,-111.7683,591.8,286.7,271.8,8.0,-1.6,17.93,26.04,702.7948,139.9951],
    [14896,1525553061,57.3,-111.7693,590.9,285.9,271.8,8.7,-1.9,18.29,25.94,702.9136,139.9987],
    [14897,1525553062,57.3,-111.7703,589.6,284.6,271.7,8.6,-1.9,17.78,26.3,702.9651,140.0053],
    [14898,1525553063,57.3,-111.7712,588.4,284.1,271.3,7.9,-1.8,17.38,26.29,702.9589,140.007],
    [14899,1525553064,57.3,-111.7722,587.1,283.1,271.6,7.9,-2.1,17.8,26.76,702.9027,139.9991],
    [14900,1525553065,57.3,-111.7731,586.3,282.3,271.3,9.2,-2.1,17.97,26.13,702.7638,139.9982],
    [14901,1525553066,57.3,-111.7742,585.7,281.7,272.6,9.0,-3.5,17.82,26.64,702.5059,140.0111],
    [14902,1525553067,57.3,-111.7751,585.6,281.6,272.2,8.1,-3.0,17.62,26.18,702.268,140.0036],
    [14903,1525553068,57.3,-111.7761,585.6,280.6,271.7,8.0,-2.2,18.31,26.02,702.0451,140.0001],
    [14904,1525553069,57.3,-111.7771,585.8,280.8,271.6,8.6,-2.1,17.79,26.39,701.7343,139.9913],
    [14905,1525553070,57.3,-111.7781,587.1,281.3,272.8,8.9,-3.2,17.9,26.0,701.2582,140.0034],
    [14906,1525553071,57.3,-111.779,589.8,283.8,273.0,8.4,-3.4,17.31,26.3,700.9914,139.9925],
    [14907,1525553072,57.3,-111.7799,593.2,287.3,273.2,7.5,-3.4,18.47,25.71,700.8962,140.0002],
    [14908,1525553073,57.3,-111.7809,596.7,289.7,272.1,7.9,-2.4,18.59,25.79,700.786,140.0047],
    [14909,1525553074,57.3,-111.7818,599.9,293.0,273.0,8.4,-3.6,17.61,26.49,700.5967,139.998],
    [14910,1525553075,57.3,-111.7828,603.4,295.5,273.0,8.5,-3.4,17.71,27.09,700.4492,139.9944],
    [14911,1525553076,57.2999,-111.7837,607.4,298.4,271.8,8.9,-2.6,17.67,26.23,700.3274,140.0008],
    [14912,1525553077,57.2999,-111.7846,610.4,300.4,272.6,8.6,-3.4,17.81,26.53,700.2447,139.9931],
    [14913,1525553078,57.2999,-111.7855,612.1,302.1,271.8,7.8,-3.0,17.79,26.27,700.1681,139.9877],
    [14914,1525553079,57.2999,-111.7864,613.3,302.3,271.2,8.2,-2.7,18.19,25.85,700.4065,139.9993],
    [14915,1525553080,57.2999,-111.7873,615.2,304.2,271.3,8.4,-2.9,17.91,26.13,700.5017,139.9982],
    [14916,1525553081,57.2999,-111.7883,617.1,305.1,271.9,8.3,-3.1,17.81,26.36,700.6656,139.9877],
    [14917,1525553082,57.2999,-111.7891,618.3,307.3,273.0,8.5,-3.5,17.99,26.23,700.8786,140.0023],
    [14918,1525553083,57.2999,-111.7901,618.5,307.5,275.1,8.4,-4.6,17.61,26.39,700.9837,140.0055],
    [14919,1525553084,57.2999,-111.7909,616.8,305.8,276.8,8.3,-4.7,17.63,26.41,701.1125,140.0006],
    [14920,1525553085,57.3,-111.7919,615.1,304.1,276.8,8.9,-3.3,17.95,25.79,701.07,139.9985],
    [14921,1525553086,57.3,-111.7928,613.6,302.6,278.3,9.9,-4.7,18.32,25.99,700.9613,139.9975],
    [14922,1525553087,57.3,-111.7937,611.1,299.1,278.8,9.8,-5.0,17.66,26.62,700.8342,139.9943],
    [14923,1525553088,57.3001,-111.7947,609.4,297.4,277.1,9.7,-3.1,17.41,26.24,700.8749,139.9977],
    [14924,1525553089,57.3001,-111.7956,608.2,296.2,276.7,9.1,-2.9,17.69,26.54,700.8318,140.003],
    [14925,1525553090,57.3002,-111.7965,608.0,296.0,276.1,8.2,-2.5,17.9,26.39,700.9436,140.0033],
    [14926,1525553091,57.3002,-111.7975,608.7,295.7,275.3,8.7,-1.6,17.27,26.41,700.9154,139.9973],
    [14927,1525553092,57.3002,-111.7984,610.0,297.0,275.4,9.5,-2.8,17.8,26.46,700.9028,140.0047],
    [14928,1525553093,57.3003,-111.7993,610.2,297.2,275.6,9.5,-4.1,17.15,26.62,700.8504,139.9918],
    [14929,1525553094,57.3003,-111.8003,610.3,296.3,272.9,9.3,-2.8,17.87,26.63,700.8203,140.0002],
    [14930,1525553095,57.3003,-111.8013,610.0,296.0,272.6,8.3,-3.8,17.57,26.66,700.7725,140.0015],
    [14931,1525553096,57.3003,-111.8023,609.6,295.6,272.2,8.6,-4.0,17.73,26.62,700.7496,139.9849],
    [14932,1525553097,57.3003,-111.8032,609.3,294.3,270.0,9.0,-2.1,18.2,25.81,700.6559,139.9947],
    [14933,1525553098,57.3002,-111.8042,609.7,294.7,269.5,9.2,-2.0,17.36,26.27,700.6244,140.0101],
    [14934,1525553099,57.3002,-111.8052,610.5,295.5,269.9,8.9,-2.7,17.87,26.74,700.5855,139.9996],
    [14935,1525553100,57.3002,-111.8062,610.9,294.9,270.3,7.9,-3.3,17.73,26.29,700.4997,140.0024],
    [14936,1525553101,57.3002,-111.8072,611.2,295.2,271.4,7.9,-4.3,17.69,26.48,700.4577,139.9927],
    [14937,1525553102,57.3001,-111.8082,612.0,296.5,271.9,8.7,-3.7,17.47,26.06,700.3196,140.0012],
    [14938,1525553103,57.3001,-111.8092,612.7,297.7,271.7,8.6,-3.1,17.65,26.09,700.0906,139.9972],
    [14939,1525553104,57.3001,-111.8101,613.1,299.1,273.5,7.8,-4.3,17.3,26.24,700.0919,139.9928],
    [14940,1525553105,57.3001,-111.8112,614.0,300.0,274.1,7.1,-4.4,18.03,25.89,700.1483,140.0031],
    [14941,1525553106,57.3001,-111.8122,614.6,300.6,274.6,7.9,-4.4,17.5,26.14,700.1553,139.9997],
    [14942,1525553107,57.3002,-111.8132,615.7,301.7,274.9,8.2,-4.0,17.58,26.25,700.123,139.9937],
    [14943,1525553108,57.3002,-111.8142,617.9,302.9,274.8,8.1,-3.1,17.94,25.92,700.0896,140.0007],
    [14944,1525553109,57.3002,-111.8152,619.1,303.9,275.9,7.7,-3.9,18.33,25.48,700.1796,140.0046],
    [14945,1525553110,57.3002,-111.8162,618.9,302.9,275.7,7.2,-3.4,18.08,25.66,700.1901,139.9976],
    [14946,1525553111,57.3003,-111.8172,618.3,301.3,275.1,7.6,-3.0,17.97,25.86,699.9971,139.9928],
    [14947,1525553112,57.3003,-111.8182,618.3,301.0,275.7,7.8,-3.7,17.48,26.03,699.9037,139.9982],
    [14948,1525553113,57.3003,-111.8192,618.4,300.4,275.2,7.8,-3.1,17.94,26.02,699.8357,139.9959],
    [14949,1525553114,57.3003,-111.8201,618.0,299.0,274.7,8.1,-2.6,17.19,26.4,699.807,139.9988],
    [14950,1525553115,57.3004,-111.8212,617.8,298.8,275.4,8.0,-3.6,17.22,26.38,699.7739,140.0015],
    [14951,1525553116,57.3004,-111.8223,619.2,299.2,275.3,8.7,-3.6,17.77,26.48,699.7452,140.0018],
    [14952,1525553117,57.3004,-111.8234,620.5,300.5,273.2,9.3,-1.7,17.7,26.5,699.6667,140.0013],
    [14953,1525553118,57.3004,-111.8244,621.2,301.2,273.1,9.9,-2.0,17.76,26.98,699.6361,139.996],
    [14954,1525553119,57.3005,-111.8255,622.1,302.1,272.8,10.3,-2.4,17.24,26.14,699.5998,139.9956],
    [14955,1525553120,57.3005,-111.8265,622.6,302.6,273.3,9.8,-3.4,18.02,25.59,699.5718,139.9991],
    [14956,1525553121,57.3005,-111.8275,623.1,303.1,273.5,9.6,-3.9,18.39,25.7,699.4675,139.9906],
    [14957,1525553122,57.3005,-111.8285,623.6,303.6,273.4,9.7,-4.0,17.99,25.98,699.385,139.9879],
    [14958,1525553123,57.3005,-111.8296,624.2,304.2,273.2,9.4,-3.9,17.87,25.79,699.2852,140.0167],
    [14959,1525553124,57.3005,-111.8306,624.6,304.6,272.3,9.4,-2.9,17.86,26.31,699.2696,140.0138],
    [14960,1525553125,57.3005,-111.8316,624.9,304.6,272.8,10.0,-3.6,17.78,25.87,699.2333,139.9958],
    [14961,1525553126,57.3005,-111.8327,625.3,304.3,273.8,10.9,-4.7,17.84,25.78,699.21,139.9987],
    [14962,1525553127,57.3005,-111.8337,626.1,305.1,273.7,11.6,-4.8,17.45,26.27,699.2969,140.0128],
    [14963,1525553128,57.3005,-111.8347,627.5,306.5,273.5,11.0,-3.6,17.82,26.66,699.4333,139.987],
    [14964,1525553129,57.3005,-111.8357,628.5,307.5,271.2,10.3,-0.6,17.82,26.5,699.658,140.0028],
    [14965,1525553130,57.3005,-111.8368,628.9,307.9,271.6,10.7,-1.3,18.31,25.22,699.8337,140.0058],
    [14966,1525553131,57.3005,-111.8378,629.1,308.1,272.2,10.6,-1.8,17.79,26.36,699.9668,140.003],
    [14967,1525553132,57.3005,-111.8388,628.9,307.9,271.1,10.0,-0.3,18.43,25.35,700.2674,139.9959],
    [14968,1525553133,57.3005,-111.8399,626.8,305.8,271.6,10.6,-1.1,17.8,26.32,700.5539,140.0017],
    [14969,1525553134,57.3005,-111.8409,624.9,302.9,273.3,10.1,-3.0,17.77,25.7,700.623,139.9984],
    [14970,1525553135,57.3005,-111.8419,622.8,300.8,272.4,9.7,-1.9,17.75,26.42,700.6963,139.9982],
    [14971,1525553136,57.3006,-111.8428,620.3,297.3,270.6,10.1,-0.2,17.64,26.0,700.8949,139.998],
    [14972,1525553137,57.3006,-111.8439,617.2,294.2,271.0,10.3,-0.8,17.83,25.63,700.9896,140.0073],
    [14973,1525553138,57.3006,-111.845,614.7,291.6,272.1,9.4,-1.6,18.16,25.73,701.102,140.0012],
    [14974,1525553139,57.3006,-111.846,613.3,289.3,271.7,10.0,-0.8,17.91,25.67,701.1699,139.9969],
    [14975,1525553140,57.3006,-111.847,611.8,286.8,271.1,11.4,-0.4,18.21,25.13,701.1826,139.9973],
    [14976,1525553141,57.3006,-111.848,610.0,285.0,271.8,10.7,-1.3,17.99,25.46,701.0818,140.0016],
    [14977,1525553142,57.3006,-111.849,608.7,283.4,271.6,9.7,-0.7,17.64,25.75,700.9137,139.9998],
    [14978,1525553143,57.3006,-111.85,607.3,281.3,272.0,9.4,-1.2,17.69,26.24,700.7133,140.004],
    [14979,1525553144,57.3006,-111.8511,606.5,279.5,273.1,9.3,-2.5,17.74,25.39,700.6636,139.999],
    [14980,1525553145,57.3006,-111.8521,606.3,278.3,273.3,8.9,-2.5,17.7,25.82,700.518,139.996],
    [14981,1525553146,57.3007,-111.8531,607.7,278.7,271.9,9.1,-1.4,18.19,25.58,700.4229,139.9982],
    [14982,1525553147,57.3007,-111.8541,609.4,280.4,271.7,10.2,-1.6,17.67,25.38,700.3416,140.0208],
    [14983,1525553148,57.3007,-111.8551,611.0,281.0,271.8,10.4,-1.8,18.31,25.0,700.2928,139.9963],
    [14984,1525553149,57.3007,-111.8561,612.6,282.6,273.1,9.6,-2.9,17.93,25.69,700.3253,140.0015],
    [14985,1525553150,57.3007,-111.8571,614.1,283.1,273.9,10.4,-3.0,18.13,25.4,700.2637,139.9938],
    [14986,1525553151,57.3007,-111.8581,615.7,284.7,275.3,9.7,-3.9,17.85,25.76,700.192,139.9945],
    [14987,1525553152,57.3007,-111.8591,617.1,286.1,274.9,8.0,-2.8,17.73,26.23,700.0596,140.0028],
    [14988,1525553153,57.3008,-111.8601,617.5,286.5,273.7,7.7,-1.5,17.98,26.26,699.9053,140.0001],
    [14989,1525553154,57.3008,-111.8609,617.5,286.5,272.6,8.2,-0.7,17.42,25.93,699.9325,140.0073],
    [14990,1525553155,57.3008,-111.862,618.1,287.1,271.7,9.4,-0.1,17.66,25.93,699.8564,139.9966],
    [14991,1525553156,57.3008,-111.863,618.7,287.7,272.7,9.7,-1.5,17.98,25.77,699.8493,139.998],
    [14992,1525553157,57.3008,-111.864,620.0,288.0,272.7,9.3,-1.5,17.68,25.72,699.7143,140.0041],
    [14993,1525553158,57.3008,-111.865,621.7,288.8,272.2,8.9,-1.1,17.84,25.97,699.7409,140.0052],
    [14994,1525553159,57.3009,-111.8658,622.5,289.5,271.7,8.7,-0.5,17.62,25.84,699.6204,139.9982],
    [14995,1525553160,57.3009,-111.8669,623.1,289.1,271.1,9.0,-0.3,17.69,25.66,699.5372,139.9976],
    [14996,1525553161,57.3009,-111.8679,624.0,289.0,270.7,9.0,-0.1,17.32,25.98,699.4797,140.0032],
    [14997,1525553162,57.3009,-111.8688,624.9,289.9,269.0,8.9,0.7,18.35,25.6,699.3936,139.995],
    [14998,1525553163,57.3009,-111.8698,625.1,289.1,270.5,8.7,-1.1,18.15,25.43,699.4759,140.0021],
    [14999,1525553164,57.3009,-111.8707,626.2,290.1,270.5,8.3,-0.8,17.86,25.91,699.4568,140.0011],
    [15000,1525553165,57.3009,-111.8717,627.4,290.3,270.3,8.1,-0.9,17.8,26.22,699.5419,140.0033],
    [15001,1525553166,57.3009,-111.8726,628.1,292.2,269.7,7.7,-0.4,17.9,26.26,699.6754,139.9987],
    [15002,1525553167,57.3008,-111.8735,628.5,292.5,268.6,8.5,0.0,17.58,26.1,699.764,139.9952],
    [15003,1525553168,57.3008,-111.8744,628.5,293.2,269.6,8.1,-1.7,17.66,26.3,699.9159,139.9979],
    [15004,1525553169,57.3008,-111.8754,628.0,293.0,268.6,6.8,-1.3,17.89,25.97,699.8679,140.0031],
    [15005,1525553170,57.3008,-111.8763,627.0,292.0,267.7,6.1,-1.0,17.87,25.98,699.7878,139.9982],
    [15006,1525553171,57.3007,-111.8773,625.3,289.3,267.6,6.5,-1.3,17.63,26.62,699.6184,139.9928],
    [15007,1525553172,57.3007,-111.8782,623.9,287.9,267.9,7.2,-1.9,18.43,25.61,699.2067,140.009],
    [15008,1525553173,57.3007,-111.8791,622.8,286.0,269.2,6.2,-2.9,17.49,26.19,698.9389,139.9918],
    [15009,1525553174,57.3006,-111.8801,622.4,285.4,268.5,5.4,-2.0,17.68,26.46,698.9675,139.986],
    [15010,1525553175,57.3006,-111.881,623.0,286.0,267.9,5.3,-1.3,17.48,26.28,698.8858,139.9987],
    [15011,1525553176,57.3006,-111.882,625.7,288.7,268.3,4.6,-1.7,17.82,26.41,698.872,140.001],
    [15012,1525553177,57.3005,-111.883,629.3,291.3,267.3,4.9,0.0,17.72,26.42,698.8153,140.0068],
    [15013,1525553178,57.3005,-111.8839,632.5,294.5,265.1,6.8,2.3,17.71,26.89,698.551,139.9961],
    [15014,1525553179,57.3005,-111.8849,633.6,294.6,267.8,8.3,0.1,17.65,26.43,698.3347,139.9989],
    [15015,1525553180,57.3005,-111.8858,634.2,295.2,269.4,8.4,-1.0,17.49,26.42,698.0716,139.9932],
    [15016,1525553181,57.3005,-111.8867,635.1,296.1,270.2,8.1,-1.8,17.52,26.31,697.8841,139.9938],
    [15017,1525553182,57.3004,-111.8878,636.3,297.3,269.4,6.6,-1.0,17.96,26.03,697.6709,139.9939],
    [15018,1525553183,57.3004,-111.8887,638.3,299.3,268.6,6.4,-0.8,17.66,26.39,697.4814,140.0003],
    [15019,1525553184,57.3004,-111.8897,640.9,301.9,268.1,6.4,-0.7,17.59,26.93,697.2857,139.9969],
    [15020,1525553185,57.3004,-111.8906,643.4,304.4,266.1,7.6,1.1,17.65,26.65,697.234,139.9983],
    [15021,1525553186,57.3003,-111.8916,645.7,305.8,266.6,8.4,0.1,17.69,27.0,697.2292,139.993],
    [15022,1525553187,57.3003,-111.8925,648.5,306.8,268.5,8.8,-1.5,17.99,26.45,697.1861,139.9934],
    [15023,1525553188,57.3003,-111.8935,651.1,309.1,268.7,8.9,-1.0,17.81,26.77,697.1702,140.0086],
    [15024,1525553189,57.3003,-111.8944,653.1,310.1,268.8,8.5,-0.2,17.44,26.42,697.2886,139.9966],
    [15025,1525553190,57.3003,-111.8953,654.3,311.3,269.4,8.4,-0.3,17.46,26.77,697.2016,139.9839],
    [15026,1525553191,57.3002,-111.8962,654.7,311.4,270.9,7.8,-0.8,17.48,26.46,697.3651,140.0005],
    [15027,1525553192,57.3003,-111.8971,655.2,311.2,271.5,7.0,-0.7,17.4,26.52,697.501,139.9957],
    [15028,1525553193,57.3003,-111.8981,655.1,311.1,272.3,5.7,-1.0,17.66,27.29,697.6404,140.0072],
    [15029,1525553194,57.3003,-111.899,654.2,310.2,269.3,6.4,1.3,17.98,26.4,697.7787,140.0059],
    [15030,1525553195,57.3003,-111.9,653.7,309.7,266.9,9.3,2.3,17.15,26.47,697.8104,140.0002],
    [15031,1525553196,57.3003,-111.901,653.1,309.1,265.4,9.9,3.4,17.27,26.52,697.715,139.9988],
    [15032,1525553197,57.3002,-111.9019,651.8,307.8,266.1,9.5,2.5,18.34,26.19,697.7635,139.9932],
    [15033,1525553198,57.3002,-111.9028,650.2,304.5,266.7,8.7,2.4,17.41,26.64,697.9151,139.9888],
    [15034,1525553199,57.3002,-111.9038,648.7,302.7,266.0,7.7,3.0,17.65,27.14,698.1614,140.0052],
    [15035,1525553200,57.3002,-111.9048,648.2,302.0,266.3,6.9,2.4,18.02,26.35,698.617,139.9885],
    [15036,1525553201,57.3002,-111.9057,648.4,303.4,265.4,6.6,2.7,17.0,26.57,698.7066,139.9904],
    [15037,1525553202,57.3001,-111.9067,648.4,303.4,265.5,6.4,1.4,17.94,26.27,698.8678,140.0086],
    [15038,1525553203,57.3001,-111.9076,646.5,301.5,267.6,6.5,-1.2,18.16,26.02,699.0281,140.0089],
    [15039,1525553204,57.3001,-111.9086,643.4,298.4,266.7,6.6,-0.3,17.6,26.45,699.0107,139.9998],
    [15040,1525553205,57.3,-111.9096,639.4,293.3,266.6,7.8,-0.4,17.55,26.6,699.0634,139.9937],
    [15041,1525553206,57.3,-111.9105,636.5,290.5,267.6,8.4,-1.0,17.57,26.84,699.1192,140.009],
    [15042,1525553207,57.3,-111.9115,634.6,288.6,267.3,8.0,-0.1,17.13,26.82,699.1738,139.9931],
    [15043,1525553208,57.2999,-111.9125,633.3,287.3,269.1,7.6,-0.6,17.92,25.92,699.2862,140.0022],
    [15044,1525553209,57.2999,-111.9134,632.7,286.7,269.7,6.9,0.0,17.55,26.99,699.4178,140.0085],
    [15045,1525553210,57.2999,-111.9145,632.5,286.5,272.1,6.3,-1.7,17.5,26.71,699.4403,140.0024],
    [15046,1525553211,57.3,-111.9154,632.0,285.0,270.7,6.1,0.2,17.45,26.56,699.2999,139.9952],
    [15047,1525553212,57.3,-111.9164,631.4,284.1,269.9,6.1,0.7,17.34,26.67,699.1895,139.9911],
    [15048,1525553213,57.3,-111.9173,630.1,282.1,270.5,6.1,0.3,18.27,26.23,699.0224,139.9969],
    [15049,1525553214,57.3,-111.9183,628.7,279.7,269.7,5.2,0.9,17.53,26.63,699.1422,139.9939],
    [15050,1525553215,57.3,-111.9193,628.5,278.8,270.7,4.7,-0.1,17.5,26.9,699.0781,139.9935],
    [15051,1525553216,57.3,-111.9203,629.2,279.2,271.5,5.5,-0.6,17.05,26.89,698.9487,140.0036],
    [15052,1525553217,57.3,-111.9214,630.3,279.6,271.5,6.7,-0.4,17.47,26.75,698.7808,139.9973],
    [15053,1525553218,57.3,-111.9222,631.2,280.2,271.5,7.5,-0.1,17.5,26.86,698.6921,139.9957],
    [15054,1525553219,57.3,-111.9233,631.5,280.5,272.7,6.9,-1.5,17.38,27.07,698.4261,140.0073],
    [15055,1525553220,57.3,-111.9243,631.9,280.0,273.1,7.3,-1.3,17.11,26.78,698.1403,139.9989],
    [15056,1525553221,57.3001,-111.9252,633.4,281.4,271.3,7.4,1.0,17.3,27.06,697.7389,140.0054],
    [15057,1525553222,57.3001,-111.9262,635.2,282.5,272.2,6.5,-0.3,17.51,27.45,697.4293,139.9986],
    [15058,1525553223,57.3001,-111.9272,636.6,283.5,273.9,6.1,-1.7,17.39,26.78,696.9018,139.9977],
    [15059,1525553224,57.3001,-111.9282,638.3,284.3,271.5,6.6,0.6,17.48,26.82,696.4702,139.9961],
    [15060,1525553225,57.3001,-111.9291,641.7,287.6,271.6,6.7,0.1,17.68,26.66,696.2381,140.0004],
    [15061,1525553226,57.3002,-111.9301,646.1,291.2,271.8,6.9,0.1,17.05,26.78,695.429,139.9947],
    [15062,1525553227,57.3002,-111.9311,651.1,295.1,271.1,7.6,0.9,17.2,26.94,695.3693,139.997],
    [15063,1525553228,57.3002,-111.932,656.7,300.0,271.3,7.4,0.9,17.14,26.9,694.8257,139.9761],
    [15064,1525553229,57.3002,-111.933,662.5,305.5,270.7,7.7,1.6,17.58,27.47,694.7819,140.007],
    [15065,1525553230,57.3003,-111.9339,668.7,310.7,271.7,7.1,0.4,17.22,27.43,694.6636,139.9837],
    [15066,1525553231,57.3003,-111.9348,674.2,316.2,272.8,6.2,-0.6,17.41,27.73,694.4961,139.9916],
    [15067,1525553232,57.3003,-111.9358,678.9,319.9,271.0,6.4,0.7,17.16,26.88,694.6058,139.9988],
    [15068,1525553233,57.3003,-111.9367,682.8,322.1,271.0,7.4,-0.3,17.5,27.39,694.5363,140.0003],
    [15069,1525553234,57.3003,-111.9376,684.7,322.6,273.1,6.7,-2.9,17.62,26.9,694.2878,140.0053],
    [15070,1525553235,57.3003,-111.9386,685.8,323.8,274.4,6.3,-3.6,17.29,27.01,694.0476,140.0013],
    [15071,1525553236,57.3003,-111.9395,687.0,324.0,272.7,7.9,-1.2,17.41,27.25,694.019,139.9957],
    [15072,1525553237,57.3003,-111.9404,686.8,323.8,271.9,8.1,-0.2,17.48,26.97,693.7888,140.0035],
    [15073,1525553238,57.3004,-111.9414,687.9,324.9,273.4,7.3,-1.0,17.36,27.18,693.6931,139.9969],
    [15074,1525553239,57.3004,-111.9423,689.9,326.9,273.6,6.4,-0.5,17.36,26.67,693.5821,140.0052],
    [15075,1525553240,57.3004,-111.9433,692.1,328.1,274.0,6.1,-0.2,17.71,26.41,693.4838,139.9995],
    [15076,1525553241,57.3005,-111.9442,693.9,329.3,277.0,5.5,-2.2,17.48,27.4,693.0304,139.9957],
    [15077,1525553242,57.3005,-111.9452,695.6,329.9,281.9,5.0,-4.8,17.37,27.14,692.8323,139.9967],
    [15078,1525553243,57.3006,-111.9462,696.9,329.9,283.5,5.9,-4.3,17.84,26.7,692.4791,139.9968],
    [15079,1525553244,57.3007,-111.947,698.0,330.0,285.3,5.6,-3.6,16.78,27.16,692.3078,139.9978],
    [15080,1525553245,57.3009,-111.948,700.3,332.3,288.2,5.5,-3.1,17.73,26.84,692.2379,139.9917],
    [15081,1525553246,57.301,-111.9487,703.3,335.3,289.6,6.4,-2.0,17.32,27.59,692.2405,139.9918],
    [15082,1525553247,57.3012,-111.9497,706.6,337.6,291.8,6.8,-1.0,17.38,27.19,692.3559,139.9837],
    [15083,1525553248,57.3015,-111.9507,710.6,340.5,295.7,7.1,-1.2,17.0,27.22,692.601,140.0108],
    [15084,1525553249,57.3017,-111.9515,713.4,343.4,298.8,7.0,-1.3,17.41,26.93,692.6198,139.99],
    [15085,1525553250,57.302,-111.9523,714.8,343.8,299.2,7.9,0.1,17.61,27.13,692.637,139.9867],
    [15086,1525553251,57.3023,-111.9531,714.1,342.1,300.3,9.1,-0.1,17.32,27.79,692.6401,140.0054],
    [15087,1525553252,57.3026,-111.9539,712.6,339.8,305.5,8.6,-3.0,17.32,27.04,692.7169,140.0062],
    [15088,1525553253,57.3029,-111.9547,710.4,337.4,307.9,9.4,-1.8,16.72,27.26,692.6018,139.9897],
    [15089,1525553254,57.3033,-111.9554,709.8,335.8,308.9,10.8,0.1,17.33,27.9,692.6216,140.0034],
    [15090,1525553255,57.3037,-111.9561,709.5,334.8,312.9,10.4,-1.6,17.04,27.65,692.7603,139.996],
    [15091,1525553256,57.3042,-111.9567,708.6,333.6,316.2,11.0,-1.9,17.19,27.22,692.7657,140.0024],
    [15092,1525553257,57.3046,-111.9574,708.5,333.5,319.1,11.7,-1.1,17.52,27.47,692.9546,139.9788],
    [15093,1525553258,57.305,-111.9578,709.0,333.7,323.3,10.3,-1.3,17.04,27.12,693.0396,139.9909],
    [15094,1525553259,57.3056,-111.9583,709.5,333.5,326.9,10.1,-0.9,16.73,27.39,692.9955,140.0101],
    [15095,1525553260,57.3061,-111.9588,709.0,332.0,331.1,7.8,-0.2,17.71,26.65,692.9932,139.9919],
    [15096,1525553261,57.3067,-111.9592,707.9,329.8,332.9,9.4,1.0,17.26,27.03,692.9387,140.0114],
    [15097,1525553262,57.3072,-111.9595,706.0,327.0,336.0,10.2,-1.1,17.34,27.27,692.9032,139.9968],
    [15098,1525553263,57.3078,-111.9598,704.5,325.2,340.0,9.7,-1.2,17.12,27.88,692.7917,140.0018],
    [15099,1525553264,57.3084,-111.96,704.2,323.8,341.4,11.7,0.1,17.88,26.53,692.5809,139.9959],
    [15100,1525553265,57.309,-111.9602,704.7,323.8,345.1,10.6,-0.8,17.31,26.7,692.258,140.0011],
    [15101,1525553266,57.3096,-111.9603,705.2,323.1,346.5,12.4,-0.4,17.29,27.03,692.2182,140.0116],
    [15102,1525553267,57.3103,-111.9603,706.1,323.1,349.1,11.4,-0.2,17.14,27.06,692.7902,139.9918],
    [15103,1525553268,57.3109,-111.9603,707.2,324.2,351.4,11.1,-0.5,17.53,26.44,693.2623,140.0165],
    [15104,1525553269,57.3115,-111.9603,709.5,326.5,351.9,12.0,-0.3,17.28,27.63,693.547,139.987],
    [15105,1525553270,57.3121,-111.9602,711.8,328.8,353.3,11.7,0.0,16.83,26.89,693.4868,139.9877],
    [15106,1525553271,57.3127,-111.9602,712.6,329.6,354.4,10.5,1.2,16.95,26.79,693.5952,140.0012],
    [15107,1525553272,57.3133,-111.9601,709.9,326.9,355.9,9.6,1.7,17.36,26.88,693.5296,140.0105],
    [15108,1525553273,57.314,-111.96,703.6,319.5,353.4,12.4,2.3,17.22,27.1,693.6259,139.9982],
    [15109,1525553274,57.3146,-111.96,699.8,315.8,353.3,11.8,1.6,17.25,27.42,693.6036,139.9984],
    [15110,1525553275,57.3152,-111.9599,699.0,314.8,354.3,10.0,0.8,17.12,27.16,693.3958,140.0061],
    [15111,1525553276,57.3159,-111.9599,698.8,314.5,353.9,10.0,1.4,17.08,27.2,693.224,139.989],
    [15112,1525553277,57.3165,-111.9598,698.6,314.0,352.8,10.4,2.0,17.06,27.16,693.1627,139.9824],
    [15113,1525553278,57.3171,-111.9598,698.0,312.9,353.8,8.7,1.7,16.82,26.87,692.9924,139.9994],
    [15114,1525553279,57.3178,-111.9598,698.2,313.2,353.8,8.4,1.5,17.81,26.4,692.9626,139.9931],
    [15115,1525553280,57.3184,-111.9598,699.6,314.6,352.0,10.0,1.8,17.2,26.48,692.6748,140.0029],
    [15116,1525553281,57.319,-111.9598,701.3,316.3,351.5,9.9,0.6,16.5,27.03,692.5271,140.0022],
    [15117,1525553282,57.3196,-111.9598,702.7,316.6,351.7,9.3,-0.9,17.53,26.54,692.0083,140.0],
    [15118,1525553283,57.3202,-111.9598,704.1,318.2,352.5,7.8,-0.8,17.74,26.28,691.6297,139.9857],
    [15119,1525553284,57.3209,-111.9598,706.0,319.0,353.6,6.8,0.3,17.23,27.0,691.4487,139.9898],
    [15120,1525553285,57.3215,-111.9598,708.6,321.3,353.7,6.8,1.0,17.4,26.68,691.1853,140.0076],
    [15121,1525553286,57.3221,-111.9598,711.7,323.7,355.3,5.7,0.2,17.32,26.67,690.7276,139.9922],
    [15122,1525553287,57.3227,-111.9598,715.2,327.1,353.0,9.9,-0.8,16.8,26.99,690.3456,140.0042],
    [15123,1525553288,57.3233,-111.9598,718.4,329.4,350.7,12.2,-3.8,17.88,26.69,690.3369,139.9926],
    [15124,1525553289,57.324,-111.9598,721.0,330.9,354.8,8.1,-5.8,17.49,27.21,690.3296,139.9925],
    [15125,1525553290,57.3246,-111.9598,724.6,334.6,354.1,9.6,-5.7,17.23,27.8,690.3294,140.006],
    [15126,1525553291,57.3252,-111.9597,729.0,339.0,356.9,7.5,-5.6,17.21,27.13,690.3893,140.0038],
    [15127,1525553292,57.3258,-111.9596,733.2,343.2,357.5,7.7,-4.6,17.09,27.59,690.4208,139.9996],
    [15128,1525553293,57.3264,-111.9596,736.2,346.2,356.7,8.5,-4.4,17.2,27.1,690.4287,140.0064],
    [15129,1525553294,57.327,-111.9595,736.8,345.8,357.2,7.6,-3.5,16.75,27.16,690.3341,140.0024],
    [15130,1525553295,57.3276,-111.9594,737.0,345.5,356.8,8.3,-1.8,17.35,27.28,690.3219,140.0099],
    [15131,1525553296,57.3282,-111.9594,736.9,344.1,355.0,10.5,-1.6,16.93,27.25,690.1296,140.0076],
    [15132,1525553297,57.3288,-111.9593,736.3,342.4,355.4,9.9,-1.9,17.14,27.99,690.089,140.0],
    [15133,1525553298,57.3294,-111.9592,736.5,340.1,354.8,10.3,-1.6,17.2,27.63,689.9502,139.998],
    [15134,1525553299,57.33,-111.9591,737.5,340.5,352.2,12.1,-1.8,17.39,27.0,689.8598,139.999],
    [15135,1525553300,57.3305,-111.9591,738.2,340.1,351.8,11.2,-1.4,17.01,27.12,689.8288,139.9984],
    [15136,1525553301,57.3311,-111.9591,739.4,340.4,351.1,10.7,-0.6,16.65,27.32,689.8337,139.9979],
    [15137,1525553302,57.3317,-111.9591,740.7,340.6,350.0,10.5,-0.1,17.38,26.55,689.7818,139.9983],
    [15138,1525553303,57.3322,-111.9591,742.0,340.8,349.3,10.5,0.0,17.23,27.46,689.7691,139.9998],
    [15139,1525553304,57.3328,-111.9591,743.4,341.4,347.4,11.8,0.0,17.04,27.92,689.7744,140.0039],
    [15140,1525553305,57.3334,-111.9592,744.0,340.9,346.4,12.3,-0.6,16.73,27.6,689.6834,140.0048],
    [15141,1525553306,57.334,-111.9592,744.3,340.5,347.2,10.9,-1.0,16.89,27.26,689.8251,139.999],
    [15142,1525553307,57.3345,-111.9593,744.5,340.5,347.2,10.6,-1.3,16.86,27.22,689.8176,140.0038],
    [15143,1525553308,57.3351,-111.9594,744.9,340.9,346.3,11.5,-1.7,17.02,27.27,689.7941,140.0001],
    [15144,1525553309,57.3356,-111.9594,745.2,340.5,346.0,11.8,-1.2,16.7,27.56,690.0541,140.0001],
    [15145,1525553310,57.3362,-111.9595,745.4,340.4,345.6,12.2,-1.0,16.55,27.84,690.1519,140.0007],
    [15146,1525553311,57.3367,-111.9596,744.9,338.8,346.5,11.8,-1.4,16.87,27.8,690.2911,140.0047],
    [15147,1525553312,57.3373,-111.9596,744.2,337.1,346.5,12.5,-0.9,16.84,27.57,690.3784,139.9978],
    [15148,1525553313,57.3379,-111.9597,743.6,335.6,347.8,11.7,-1.0,16.24,27.62,690.3266,139.9988],
    [15149,1525553314,57.3384,-111.9597,742.1,333.1,349.7,10.7,-1.4,16.84,27.59,690.2559,140.002],
    [15150,1525553315,57.339,-111.9597,740.4,330.1,349.8,10.9,-1.6,16.99,27.64,690.147,139.9982],
    [15151,1525553316,57.3395,-111.9597,738.6,326.6,351.2,9.9,-2.4,16.75,27.77,690.1785,140.0021],
    [15152,1525553317,57.3401,-111.9597,737.6,323.9,353.3,8.5,-2.9,16.53,27.79,690.2642,139.9934],
    [15153,1525553318,57.3407,-111.9597,738.0,322.9,354.9,8.0,-2.1,17.07,27.28,690.2933,139.9917],
    [15154,1525553319,57.3412,-111.9596,739.2,323.2,354.4,8.5,-0.7,17.06,27.47,690.3719,140.0014],
    [15155,1525553320,57.3418,-111.9596,740.2,324.2,354.6,7.8,-0.3,16.54,27.9,690.4598,139.9992],
    [15156,1525553321,57.3423,-111.9595,740.1,324.1,353.6,8.6,-0.4,16.83,27.65,690.5125,139.9967],
    [15157,1525553322,57.3429,-111.9595,739.8,323.8,352.9,8.8,-0.6,16.53,28.2,690.4973,140.0019],
    [15158,1525553323,57.3434,-111.9595,739.0,324.0,353.0,8.4,-0.2,16.84,27.47,690.4848,140.0007],
    [15159,1525553324,57.344,-111.9595,738.1,324.2,351.5,9.8,0.6,16.68,27.87,690.4695,139.9973],
    [15160,1525553325,57.3446,-111.9595,737.2,325.2,350.9,10.2,0.4,16.65,28.54,690.381,139.9983],
    [15161,1525553326,57.3452,-111.9595,736.4,326.4,351.3,9.7,0.0,16.34,27.98,690.3053,139.9976],
    [15162,1525553327,57.3457,-111.9595,736.2,328.6,351.1,9.9,0.2,16.5,28.0,690.3083,139.9923],
    [15163,1525553328,57.3463,-111.9595,736.4,330.4,351.2,9.9,0.2,16.21,28.02,690.3543,139.9968],
    [15164,1525553329,57.3468,-111.9595,736.7,331.6,351.9,9.6,-0.1,16.7,28.43,690.4075,140.0045],
    [15165,1525553330,57.3474,-111.9595,737.3,332.9,351.6,10.2,-0.5,16.43,28.77,690.8951,139.9925],
    [15166,1525553331,57.348,-111.9595,738.2,332.2,352.1,9.6,-0.4,16.44,28.24,691.0173,140.0104],
    [15167,1525553332,57.3485,-111.9595,738.8,331.0,353.5,7.5,-0.1,16.0,28.29,691.2558,139.9812],
    [15168,1525553333,57.3491,-111.9595,738.0,328.9,352.5,7.3,0.8,16.35,27.93,691.3021,139.9855],
    [15169,1525553334,57.3497,-111.9595,736.1,326.1,348.5,9.8,1.4,16.47,28.07,691.4019,139.9736],
    [15170,1525553335,57.3503,-111.9595,732.7,323.7,348.5,8.8,1.2,16.84,27.94,691.3434,140.002],
    [15171,1525553336,57.3508,-111.9596,729.1,321.1,348.5,8.5,1.6,16.56,28.26,691.2721,140.0074],
    [15172,1525553337,57.3514,-111.9597,726.8,320.1,348.6,7.7,1.1,16.48,29.03,691.3751,140.0013],
    [15173,1525553338,57.352,-111.9598,725.2,318.2,350.4,6.9,-1.3,16.25,28.19,691.5852,139.9954],
    [15174,1525553339,57.3526,-111.9599,723.3,315.6,348.4,9.6,-3.1,16.77,28.05,691.6427,139.9934],
    [15175,1525553340,57.3532,-111.9599,723.4,315.4,349.0,9.4,-3.7,16.72,28.54,691.7834,140.0036],
    [15176,1525553341,57.3537,-111.96,723.6,315.6,346.3,12.8,-3.6,16.58,28.66,691.9024,140.0007],
    [15177,1525553342,57.3544,-111.9601,722.8,315.6,347.3,11.5,-3.6,16.02,28.29,691.9262,140.02],
    [15178,1525553343,57.355,-111.9601,721.7,315.1,348.9,10.0,-3.0,16.97,27.56,692.2326,139.9997],
    [15179,1525553344,57.3556,-111.9602,720.2,314.2,349.0,10.4,-3.8,16.44,28.02,692.3062,139.9969],
    [15180,1525553345,57.3561,-111.9602,719.7,313.7,349.8,9.5,-4.0,16.32,28.19,692.4042,139.9967],
    [15181,1525553346,57.3568,-111.9603,717.9,311.2,350.2,9.6,-2.5,16.47,27.97,692.6508,139.9992],
    [15182,1525553347,57.3574,-111.9603,716.2,307.9,348.5,11.4,-1.4,16.59,28.0,692.6395,140.0035],
    [15183,1525553348,57.358,-111.9604,713.9,303.9,348.8,11.6,-1.8,16.71,27.61,692.6369,139.9991],
    [15184,1525553349,57.3586,-111.9604,712.7,301.6,349.2,11.7,-2.5,16.9,27.48,692.551,139.9966],
    [15185,1525553350,57.3592,-111.9604,711.5,299.5,350.4,10.9,-2.4,16.47,27.58,692.5234,139.992],
    [15186,1525553351,57.3598,-111.9604,709.6,297.6,351.3,10.5,-1.8,16.6,27.49,692.4213,140.0132],
    [15187,1525553352,57.3604,-111.9604,708.4,296.4,352.6,10.2,-1.9,16.78,27.91,692.5805,140.0103],
    [15188,1525553353,57.361,-111.9604,708.4,295.4,352.3,11.2,-2.8,16.77,27.86,692.5007,140.0011],
    [15189,1525553354,57.3616,-111.9604,709.6,296.6,352.8,10.9,-3.0,17.4,27.02,692.4797,139.9928],
    [15190,1525553355,57.3622,-111.9603,710.4,297.4,352.8,10.7,-2.0,16.81,27.49,692.5525,140.0016],
    [15191,1525553356,57.3628,-111.9603,710.9,297.9,353.8,9.2,-1.3,16.57,27.5,692.5457,139.995],
    [15192,1525553357,57.3633,-111.9603,710.1,297.1,355.6,7.2,-0.9,17.33,26.85,692.3318,139.9908],
    [15193,1525553358,57.364,-111.9602,709.4,295.6,354.8,8.4,-0.7,17.01,27.38,691.9635,140.0022],
    [15194,1525553359,57.3646,-111.9602,710.3,296.3,355.3,7.7,-1.7,16.74,28.31,691.6328,139.998],
    [15195,1525553360,57.365,-111.9602,710.0,296.0,356.8,6.4,-2.1,16.81,28.05,691.4053,140.0028],
    [15196,1525553361,57.3657,-111.9601,709.4,294.5,358.3,5.8,-1.9,16.58,27.45,691.1942,140.0072],
    [15197,1525553362,57.3663,-111.96,711.8,296.8,358.5,5.6,-3.3,16.77,27.42,691.3727,139.9876],
    [15198,1525553363,57.367,-111.96,715.4,299.4,357.7,6.9,-3.9,16.49,27.35,691.3904,139.9987],
    [15199,1525553364,57.3676,-111.9599,718.6,302.7,355.2,9.7,-3.6,17.0,27.63,691.4133,140.0001],
    [15200,1525553365,57.3682,-111.9598,721.6,304.6,354.0,11.0,-2.5,17.22,27.22,691.4841,140.0061],
    [15201,1525553366,57.3688,-111.9598,724.2,307.2,355.0,9.2,-1.1,16.9,28.04,691.2559,140.0016],
    [15202,1525553367,57.3694,-111.9597,724.2,308.1,358.9,5.0,-1.8,16.83,28.14,691.2137,139.9996],
    [15203,1525553368,57.37,-111.9596,723.8,309.1,358.2,6.3,-3.2,17.03,27.33,691.1066,140.0067],
    [15204,1525553369,57.3705,-111.9596,723.8,309.8,355.5,8.3,-3.7,16.28,27.38,691.0648,139.9991],
    [15205,1525553370,57.3711,-111.9596,723.7,308.7,354.8,7.4,-3.5,16.32,27.4,691.0577,140.0042],
    [15206,1525553371,57.3717,-111.9596,724.8,309.1,351.5,8.9,-3.7,16.6,27.34,691.0237,139.9956],
    [15207,1525553372,57.3723,-111.9596,726.5,309.4,349.2,9.5,-3.8,17.24,27.13,691.0728,140.0074],
    [15208,1525553373,57.3728,-111.9597,727.4,309.4,348.1,9.3,-3.5,17.28,27.05,691.2045,139.9945],
    [15209,1525553374,57.3734,-111.9598,728.3,310.1,346.6,9.5,-3.2,17.13,27.31,691.26,140.0014],
    [15210,1525553375,57.374,-111.9599,729.0,310.8,346.3,8.9,-2.6,16.69,27.09,691.3666,140.0004],
    [15211,1525553376,57.3745,-111.96,729.3,311.3,345.4,9.3,-2.2,17.68,26.89,691.3925,140.0009],
    [15212,1525553377,57.3751,-111.9601,728.8,310.8,344.0,10.7,-1.6,16.49,27.92,691.478,140.0074],
    [15213,1525553378,57.3756,-111.9602,728.2,309.9,343.7,10.8,-1.1,16.91,27.49,691.559,139.9985],
    [15214,1525553379,57.3762,-111.9603,727.2,308.2,346.4,8.9,-0.8,17.34,26.88,691.6265,140.0003],
    [15215,1525553380,57.3767,-111.9604,726.1,306.1,348.5,8.4,-1.1,16.6,27.51,691.6614,140.002],
    [15216,1525553381,57.3773,-111.9605,725.5,305.6,350.2,8.5,-1.0,16.67,27.57,691.8121,140.006],
    [15217,1525553382,57.3779,-111.9605,724.9,303.9,350.7,9.5,-0.4,16.86,27.5,691.8955,139.9999],
    [15218,1525553383,57.3784,-111.9605,724.1,303.1,351.9,9.7,-0.3,17.29,27.21,691.915,140.0048],
    [15219,1525553384,57.379,-111.9605,723.3,302.3,353.3,9.5,-0.4,16.75,27.61,691.9087,139.9975],
    [15220,1525553385,57.3796,-111.9604,722.3,301.3,353.8,9.8,-0.1,16.89,28.25,692.0872,140.0054],
    [15221,1525553386,57.3801,-111.9604,721.5,300.5,353.6,10.1,0.4,16.95,27.24,691.9874,139.9932],
    [15222,1525553387,57.3807,-111.9603,720.3,299.0,354.5,9.5,0.5,16.78,27.91,691.9416,140.0102],
    [15223,1525553388,57.3812,-111.9603,719.7,298.0,354.6,9.8,0.7,16.7,27.73,691.93,139.9972],
    [15224,1525553389,57.3818,-111.9602,718.9,296.9,354.8,9.9,1.3,17.33,27.48,691.9924,140.0041],
    [15225,1525553390,57.3824,-111.9601,717.8,297.0,355.7,9.4,0.9,17.0,27.36,691.9018,140.0052],
    [15226,1525553391,57.3829,-111.9601,718.0,300.0,356.0,9.5,0.5,17.0,27.75,691.7949,139.9999],
    [15227,1525553392,57.3834,-111.96,718.8,306.1,355.4,10.3,0.9,16.65,28.21,691.7014,140.0075],
    [15228,1525553393,57.384,-111.9599,719.4,312.6,355.0,10.3,1.2,16.69,28.13,691.343,139.9951],
    [15229,1525553394,57.3846,-111.9598,719.5,316.4,355.2,10.1,1.4,16.94,27.5,691.359,139.9995],
    [15230,1525553395,57.3852,-111.9597,719.4,318.5,353.6,11.2,1.1,17.03,27.97,691.3767,140.0046],
    [15231,1525553396,57.3857,-111.9596,720.1,319.1,353.3,10.7,0.5,16.24,27.76,691.4216,139.9976],
    [15232,1525553397,57.3862,-111.9596,722.3,321.3,353.8,9.4,0.8,16.71,27.69,691.5156,139.9983],
    [15233,1525553398,57.3868,-111.9596,724.9,323.0,353.8,8.8,1.2,16.53,27.76,691.5898,140.0129],
    [15234,1525553399,57.3874,-111.9595,726.4,322.0,353.6,8.8,1.4,16.89,27.33,691.6149,140.0014],
    [15235,1525553400,57.3879,-111.9595,726.2,319.2,352.4,9.5,1.8,16.72,27.9,691.5747,140.0157],
    [15236,1525553401,57.3885,-111.9595,725.6,313.3,351.8,9.2,2.0,16.75,28.54,691.1715,139.9677],
    [15237,1525553402,57.389,-111.9595,724.3,306.6,350.1,10.3,1.3,16.63,28.5,691.1545,139.9948],
    [15238,1525553403,57.3895,-111.9595,723.0,300.0,347.4,11.8,1.5,16.62,27.99,691.1553,139.9928],
    [15239,1525553404,57.3901,-111.9595,722.2,295.5,345.7,12.0,2.3,16.61,28.73,691.0699,139.9912],
    [15240,1525553405,57.3905,-111.9595,722.6,294.6,345.8,10.8,3.0,16.53,28.16,691.0881,139.9976],
    [15241,1525553406,57.3911,-111.9596,724.3,294.3,346.4,8.6,2.8,16.57,28.32,691.0446,140.015],
    [15242,1525553407,57.3917,-111.9597,726.4,296.4,347.5,7.3,2.2,16.91,28.28,690.8813,139.9898],
    [15243,1525553408,57.3922,-111.9598,727.6,297.6,346.6,7.8,2.2,16.52,28.47,690.7616,140.0051],
    [15244,1525553409,57.3928,-111.9599,728.7,298.7,346.5,7.9,2.6,15.96,28.43,690.644,139.9948],
    [15245,1525553410,57.3933,-111.96,729.0,299.0,346.6,8.3,2.4,16.91,28.04,690.1346,139.9875],
    [15246,1525553411,57.3939,-111.9601,729.4,299.4,347.5,7.8,2.1,17.36,28.08,689.8369,139.9859],
    [15247,1525553412,57.3944,-111.9602,730.7,300.7,348.2,7.3,2.0,16.56,28.23,689.6227,139.992],
    [15248,1525553413,57.395,-111.9603,732.2,302.2,348.4,7.5,1.3,15.94,28.38,689.5414,139.9862],
    [15249,1525553414,57.3955,-111.9604,734.2,303.2,348.9,7.3,1.3,16.53,28.3,689.3676,140.0131],
    [15250,1525553415,57.3961,-111.9604,738.4,307.4,349.4,6.9,1.7,16.59,28.46,689.2977,139.9969],
    [15251,1525553416,57.3967,-111.9605,742.3,312.0,349.5,7.3,2.3,17.07,28.08,689.1771,139.9987],
    [15252,1525553417,57.3972,-111.9606,744.9,314.7,348.5,9.3,1.2,16.66,28.45,689.0341,139.9986],
    [15253,1525553418,57.3978,-111.9606,746.7,316.7,348.5,10.1,-1.2,17.12,28.07,688.9414,139.9976],
    [15254,1525553419,57.3983,-111.9606,748.0,318.0,350.6,10.2,-2.4,16.59,28.47,688.769,140.0022],
    [15255,1525553420,57.3989,-111.9606,749.8,319.8,350.9,12.3,-2.3,17.22,27.6,688.6626,139.9932],
    [15256,1525553421,57.3995,-111.9606,751.4,321.4,354.4,11.1,-2.5,16.88,27.66,688.6866,139.992],
    [15257,1525553422,57.4,-111.9605,753.3,323.3,358.5,10.3,-2.5,16.35,28.46,688.5659,139.9961],
    [15258,1525553423,57.4006,-111.9603,755.1,325.1,362.2,9.6,-1.7,16.96,27.73,688.6583,139.9932],
    [15259,1525553424,57.4011,-111.9601,756.6,326.6,5.0,10.1,-1.2,16.43,28.19,688.9158,140.0017],
    [15260,1525553425,57.4017,-111.9598,757.8,327.8,8.3,10.1,-2.1,17.1,27.92,688.998,140.01],
    [15261,1525553426,57.4023,-111.9594,758.5,329.5,11.6,9.4,-2.3,16.24,28.09,688.9756,139.9982],
    [15262,1525553427,57.4028,-111.959,758.9,329.9,14.4,9.8,-2.4,16.6,27.89,688.9322,140.0011],
    [15263,1525553428,57.4034,-111.9586,758.5,329.5,15.9,10.3,-2.7,16.54,27.88,688.8426,140.0104],
    [15264,1525553429,57.4039,-111.9581,756.3,327.3,19.1,9.6,-2.2,15.95,28.06,688.6952,139.9893],
    [15265,1525553430,57.4045,-111.9575,754.3,325.3,21.5,10.2,-2.4,15.95,28.01,688.6511,140.0032],
    [15266,1525553431,57.405,-111.9569,754.3,325.3,23.5,10.7,-2.7,16.51,27.25,688.8,140.0073],
    [15267,1525553432,57.4055,-111.9563,754.7,325.7,25.3,11.0,-3.1,16.27,27.58,689.0641,139.9965],
    [15268,1525553433,57.406,-111.9556,755.3,327.0,27.1,11.5,-3.1,16.78,27.3,689.2157,139.9987],
    [15269,1525553434,57.4064,-111.955,756.4,328.4,30.0,10.9,-1.7,16.3,27.58,689.4229,140.0007],
    [15270,1525553435,57.407,-111.9542,757.9,329.9,33.6,10.3,-0.1,16.63,27.58,689.5126,139.9919],
    [15271,1525553436,57.4074,-111.9534,756.7,329.0,34.1,12.1,-0.4,16.4,28.01,689.8151,139.9989],
    [15272,1525553437,57.4079,-111.9525,754.6,327.6,35.8,12.9,-1.1,16.42,27.63,690.2198,140.0014],
    [15273,1525553438,57.4084,-111.9517,752.3,325.5,39.1,12.2,-1.0,16.51,27.47,690.3563,139.9999],
    [15274,1525553439,57.4088,-111.9507,749.9,323.9,41.7,12.3,-1.4,16.33,27.55,690.7294,140.0031],
    [15275,1525553440,57.4092,-111.9498,747.7,321.7,44.3,12.1,-1.6,16.72,27.42,690.9231,140.004],
    [15276,1525553441,57.4096,-111.9488,744.8,319.8,47.9,11.4,-1.1,16.44,27.45,691.0256,140.0014],
    [15277,1525553442,57.41,-111.9479,741.7,317.4,50.6,11.5,-1.3,16.48,27.88,691.0974,139.9999],
    [15278,1525553443,57.4104,-111.9467,737.8,313.8,54.8,11.3,-1.1,16.25,27.44,691.228,139.9963],
    [15279,1525553444,57.4107,-111.9455,734.3,311.3,58.8,11.2,-0.9,17.13,27.14,691.2556,139.9995],
    [15280,1525553445,57.411,-111.9443,731.3,309.4,62.7,11.5,-0.6,16.09,27.46,691.3448,139.9992],
    [15281,1525553446,57.4113,-111.9431,729.2,307.2,66.7,11.7,0.0,17.01,26.64,691.4471,140.0034],
    [15282,1525553447,57.4115,-111.9419,727.9,304.8,69.9,12.0,-0.3,16.82,27.05,691.4777,139.9993],
    [15283,1525553448,57.4117,-111.9406,727.0,303.8,73.9,11.4,0.7,16.71,26.78,691.4489,140.0017],
    [15284,1525553449,57.4118,-111.9394,725.9,302.8,77.6,10.6,0.6,16.26,27.25,691.459,140.0015],
    [15285,1525553450,57.4119,-111.938,724.7,303.0,82.3,10.1,1.4,16.05,27.23,691.5147,139.9989],
    [15286,1525553451,57.412,-111.9367,723.5,303.5,86.5,10.2,1.7,16.48,27.28,691.6369,140.0039],
    [15287,1525553452,57.412,-111.9354,723.2,304.2,89.5,10.1,0.9,16.73,27.17,691.9774,140.0031],
    [15288,1525553453,57.412,-111.9341,723.5,305.5,92.8,10.5,1.3,16.85,27.15,692.0862,140.0019],
    [15289,1525553454,57.412,-111.9327,723.4,305.7,95.1,10.3,0.9,16.6,27.09,692.2755,140.0095],
    [15290,1525553455,57.4119,-111.9314,722.8,305.8,97.4,10.2,0.9,16.74,26.73,692.3221,139.9881],
    [15291,1525553456,57.4119,-111.9303,721.8,305.8,99.2,10.4,1.1,16.96,26.94,692.3849,140.0074],
    [15292,1525553457,57.4118,-111.9289,719.3,304.3,101.2,10.9,1.5,16.73,26.97,692.5628,140.0028],
    [15293,1525553458,57.4117,-111.9275,716.5,302.5,101.8,10.9,0.8,16.05,27.89,692.6019,140.0034],
    [15294,1525553459,57.4115,-111.9262,714.4,300.3,102.7,11.1,1.1,16.04,27.62,692.7071,139.9937],
    [15295,1525553460,57.4114,-111.9249,712.6,301.4,103.8,10.8,1.6,17.2,27.22,692.7761,140.0002],
    [15296,1525553461,57.4113,-111.9237,711.8,306.8,103.1,10.7,0.8,16.47,28.2,692.7133,140.0021],
    [15297,1525553462,57.4111,-111.9223,710.3,309.0,104.1,12.1,1.5,16.37,27.85,692.8213,140.0009],
    [15298,1525553463,57.411,-111.921,708.7,305.8,102.7,11.6,-0.2,16.49,27.79,692.7038,140.0048],
    [15299,1525553464,57.4109,-111.9196,707.5,302.8,102.9,11.6,0.8,16.44,27.77,692.5426,139.9989],
    [15300,1525553465,57.4107,-111.9184,706.8,298.2,102.9,11.3,1.0,16.82,27.22,692.3629,139.9936],
    [15301,1525553466,57.4106,-111.917,706.7,298.4,102.2,10.2,0.3,16.11,28.15,692.3438,139.9906],
    [15302,1525553467,57.4105,-111.9157,705.7,295.7,103.0,10.9,0.7,16.38,27.93,692.1207,139.9965],
    [15303,1525553468,57.4103,-111.9144,706.5,297.6,104.6,11.6,1.7,16.35,27.91,691.8082,139.9949],
    [15304,1525553469,57.4102,-111.9132,708.0,300.0,103.8,11.0,0.6,16.2,27.71,691.5824,139.9994],
    [15305,1525553470,57.41,-111.9117,711.0,305.0,104.7,10.9,2.1,16.21,27.65,691.477,140.0021],
    [15306,1525553471,57.4099,-111.9105,712.7,308.6,105.5,11.1,3.0,16.91,27.6,691.3415,140.0022],
    [15307,1525553472,57.4098,-111.9093,714.1,312.1,103.6,10.5,0.8,17.07,27.12,691.2342,140.0004],
    [15308,1525553473,57.4096,-111.9079,717.2,317.2,102.6,9.5,0.1,16.32,27.99,690.9924,139.9999],
    [15309,1525553474,57.4095,-111.9066,719.7,321.7,104.5,10.1,2.1,16.74,27.44,690.9096,139.9979],
    [15310,1525553475,57.4093,-111.9053,721.9,325.9,104.4,10.3,1.8,16.39,27.63,690.9063,140.0099],
    [15311,1525553476,57.4092,-111.9041,723.6,329.4,103.9,10.0,1.8,16.59,27.81,690.7237,139.9989],
    [15312,1525553477,57.4091,-111.9027,725.8,334.8,103.5,10.2,2.1,17.22,27.03,690.7828,139.9947],
    [15313,1525553478,57.409,-111.9015,728.0,338.9,101.3,10.0,1.0,16.48,27.46,690.8261,139.9965],
    [15314,1525553479,57.4089,-111.9003,729.8,342.8,99.1,9.7,0.4,16.48,27.41,690.8995,139.9989],
    [15315,1525553480,57.4088,-111.899,730.7,345.4,97.9,10.9,1.0,16.72,27.31,691.0679,139.996],
    [15316,1525553481,57.4087,-111.8978,731.7,347.7,94.6,11.2,-0.4,16.42,27.22,691.4081,140.0026],
    [15317,1525553482,57.4087,-111.8964,732.3,349.3,91.9,10.9,-0.8,16.6,27.5,691.5973,139.993],
    [15318,1525553483,57.4087,-111.8952,731.6,350.7,91.4,10.7,-0.4,16.34,27.29,691.7253,140.0002],
    [15319,1525553484,57.4087,-111.894,730.6,351.3,90.0,10.2,-1.0,16.67,27.3,691.7888,140.0041],
    [15320,1525553485,57.4086,-111.8926,728.8,351.8,90.9,10.5,0.4,17.0,27.16,691.9576,139.9994],
    [15321,1525553486,57.4086,-111.8913,726.0,351.0,90.7,10.8,0.2,16.32,27.43,692.126,139.9996],
    [15322,1525553487,57.4086,-111.8901,723.0,350.3,90.4,10.3,-0.5,17.09,27.16,692.4081,139.9972],
    [15323,1525553488,57.4086,-111.8888,721.0,351.0,90.5,10.0,-0.9,16.68,27.47,692.5297,139.9976],
    [15324,1525553489,57.4086,-111.8875,719.7,352.1,91.2,10.5,-0.6,16.99,26.91,693.122,139.9952],
    [15325,1525553490,57.4086,-111.8862,718.3,353.0,92.0,11.0,0.0,16.38,27.78,693.34,139.9993],
    [15326,1525553491,57.4086,-111.8849,715.9,353.3,91.7,10.4,-0.4,16.59,27.41,693.9102,139.9877],
    [15327,1525553492,57.4085,-111.8837,713.1,352.1,91.8,9.7,-0.3,16.28,27.6,694.1028,139.9928],
    [15328,1525553493,57.4085,-111.8823,709.8,351.7,92.6,9.8,0.4,16.71,27.55,694.5806,139.9959],
    [15329,1525553494,57.4085,-111.881,705.5,349.5,92.0,9.7,0.2,16.33,27.46,694.9097,139.993],
    [15330,1525553495,57.4085,-111.8796,700.2,346.4,92.2,10.3,0.9,17.14,27.43,695.4979,140.0137],
    [15331,1525553496,57.4085,-111.8783,694.7,341.6,91.2,9.7,0.5,16.65,27.94,695.7051,139.9961],
    [15332,1525553497,57.4085,-111.8769,690.1,337.1,90.3,9.2,0.4,16.48,27.4,696.058,140.0011],
    [15333,1525553498,57.4085,-111.8756,684.9,331.9,88.5,9.6,-0.9,16.74,27.5,696.494,140.0132],
    [15334,1525553499,57.4085,-111.8742,681.0,328.0,87.6,9.5,-1.0,16.92,27.42,696.7924,140.0051],
    [15335,1525553500,57.4085,-111.8729,676.5,323.8,88.4,9.8,-0.3,16.16,27.81,697.0227,140.0055],
    [15336,1525553501,57.4085,-111.8715,671.0,319.0,88.0,9.2,-1.1,16.72,27.33,697.0905,139.9964],
    [15337,1525553502,57.4085,-111.8701,666.2,314.5,88.7,9.0,-0.7,16.92,27.25,697.1136,139.9985],
    [15338,1525553503,57.4085,-111.8688,662.5,311.5,88.8,10.0,-0.8,17.24,27.08,697.2048,140.0039],
    [15339,1525553504,57.4085,-111.8674,658.8,309.8,89.3,10.3,-0.2,16.07,27.73,697.2317,140.001],
    [15340,1525553505,57.4085,-111.8661,655.5,309.0,89.3,9.7,-0.5,17.16,27.35,697.3278,140.0014],
    [15341,1525553506,57.4085,-111.8647,654.0,310.3,88.6,9.0,-1.4,17.11,27.2,697.4133,140.0018],
    [15342,1525553507,57.4085,-111.8633,653.3,312.0,89.3,9.2,-0.8,16.66,27.39,697.5443,140.0132],
    [15343,1525553508,57.4085,-111.862,652.4,311.4,89.0,8.8,-1.0,16.72,27.43,697.6185,140.0027],
    [15344,1525553509,57.4086,-111.8605,651.9,311.9,88.4,8.0,-0.8,17.26,26.69,697.8442,140.0001],
    [15345,1525553510,57.4086,-111.8592,651.5,312.6,87.0,7.8,-1.3,16.66,27.24,697.8529,140.0131],
    [15346,1525553511,57.4086,-111.8579,650.8,311.8,85.2,8.3,-1.6,17.17,26.34,697.9948,140.0005],
    [15347,1525553512,57.4086,-111.8566,650.0,311.0,84.3,9.2,-1.3,16.82,27.11,698.1567,140.0022],
    [15348,1525553513,57.4087,-111.8553,648.4,310.4,83.6,9.4,-1.1,16.31,27.23,698.2606,140.006],
    [15349,1525553514,57.4088,-111.854,646.5,308.5,84.1,9.2,-0.3,17.18,26.52,698.3281,140.0003],
    [15350,1525553515,57.4088,-111.8526,645.4,308.4,83.7,9.4,-1.0,16.6,27.0,698.4358,140.004],
    [15351,1525553516,57.4089,-111.8513,644.2,308.2,84.3,9.8,-0.3,16.7,27.23,698.5017,139.9995],
    [15352,1525553517,57.4089,-111.8501,643.1,307.1,85.4,9.4,0.4,16.78,27.11,698.3553,139.9829],
    [15353,1525553518,57.409,-111.8487,641.4,305.3,86.1,9.6,0.6,16.87,27.43,698.2472,139.9807],
    [15354,1525553519,57.409,-111.8474,640.1,305.2,87.2,10.0,1.3,17.35,26.89,698.0437,139.9943],
    [15355,1525553520,57.4091,-111.8461,639.1,304.9,87.3,10.1,1.3,16.62,27.08,697.9094,139.9985],
    [15356,1525553521,57.4091,-111.8448,638.3,304.3,87.5,10.3,1.3,17.0,27.31,697.7362,139.9982],
    [15357,1525553522,57.4092,-111.8435,638.7,304.6,86.9,8.0,0.5,16.63,27.04,697.588,139.9999],
    [15358,1525553523,57.4092,-111.8423,639.2,305.2,86.1,5.4,-1.3,17.48,26.34,697.4441,140.0039],
    [15359,1525553524,57.4092,-111.8408,640.7,306.7,84.6,4.4,-3.4,17.12,27.34,697.4117,139.9971],
    [15360,1525553525,57.4093,-111.8396,643.1,309.4,85.9,4.3,-2.1,16.8,27.83,697.296,139.9938],
    [15361,1525553526,57.4093,-111.8383,645.1,312.8,85.6,4.6,-2.4,17.3,26.83,697.3351,140.0028],
    [15362,1525553527,57.4093,-111.8371,646.5,315.6,84.9,4.4,-2.5,17.67,26.89,697.3159,140.0019],
    [15363,1525553528,57.4094,-111.8357,648.1,318.1,85.3,4.1,-2.1,17.14,28.06,697.5507,139.9965],
    [15364,1525553529,57.4094,-111.8344,648.8,319.7,85.1,3.5,-2.5,16.9,27.25,697.6409,140.0109],
    [15365,1525553530,57.4094,-111.8334,649.8,320.7,86.3,2.8,-1.0,16.88,27.32,697.9655,140.0061],
    [15366,1525553531,57.4094,-111.832,650.7,322.7,86.7,3.2,-1.1,17.71,27.03,698.1737,140.0042],
    [15367,1525553532,57.4095,-111.8306,650.6,322.6,85.5,4.0,-2.3,16.99,27.35,698.2275,140.0154],
    [15368,1525553533,57.4095,-111.8294,649.3,322.3,84.9,3.9,-2.8,17.0,27.3,698.4043,140.0006],
    [15369,1525553534,57.4095,-111.8281,647.2,321.2,84.3,3.7,-3.0,17.75,27.02,698.415,139.9875],
    [15370,1525553535,57.4096,-111.8269,644.5,319.5,86.4,4.3,0.0,17.21,27.29,698.6006,139.9954],
    [15371,1525553536,57.4096,-111.8258,642.3,316.3,88.4,5.8,2.2,17.14,27.23,698.6327,139.9999],
    [15372,1525553537,57.4097,-111.8244,640.4,314.4,88.0,6.9,1.3,17.03,27.42,698.6683,140.0013],
    [15373,1525553538,57.4097,-111.823,638.8,312.8,88.0,7.5,-0.1,17.62,27.08,698.6226,140.0028],
    [15374,1525553539,57.4097,-111.8218,637.3,312.3,86.8,6.0,-2.5,17.11,27.38,698.5458,140.0116],
    [15375,1525553540,57.4097,-111.8205,635.7,312.7,88.6,4.8,-0.4,17.93,27.01,698.364,140.0027],
    [15376,1525553541,57.4097,-111.8192,634.7,314.0,90.4,5.3,1.1,17.21,27.4,698.3782,140.0002],
    [15377,1525553542,57.4097,-111.8179,634.3,316.3,89.6,4.5,-0.3,17.25,27.33,698.3729,140.0074],
    [15378,1525553543,57.4097,-111.8166,634.9,317.1,89.3,4.9,-1.2,17.53,27.23,698.3889,139.9941],
    [15379,1525553544,57.4097,-111.8154,636.7,319.7,88.2,6.6,-3.1,17.37,27.19,698.3882,140.0044],
    [15380,1525553545,57.4097,-111.8141,638.1,320.1,87.1,6.9,-3.7,17.74,26.93,698.5007,140.0039],
    [15381,1525553546,57.4097,-111.8129,639.1,321.1,89.6,7.1,-1.1,17.23,26.92,698.5726,139.9995],
    [15382,1525553547,57.4097,-111.8116,638.8,320.8,87.9,7.4,-3.0,18.04,26.69,698.8103,140.0024],
    [15383,1525553548,57.4097,-111.8104,638.6,321.6,88.0,7.4,-2.7,17.31,27.51,698.9642,140.0007],
    [15384,1525553549,57.4097,-111.8091,638.5,322.5,87.7,7.0,-3.1,17.07,27.04,699.1935,140.007],
    [15385,1525553550,57.4097,-111.8078,637.8,322.8,88.3,6.8,-2.4,17.35,27.1,699.2607,140.0054],
    [15386,1525553551,57.4097,-111.8066,636.3,323.3,90.6,7.5,-0.1,17.65,26.94,699.6879,139.9967],
    [15387,1525553552,57.4097,-111.8053,634.3,322.3,90.1,7.3,-1.3,17.33,27.1,699.853,139.9992],
    [15388,1525553553,57.4097,-111.8041,631.8,319.8,90.4,6.6,-1.8,17.1,27.77,700.1298,140.0016],
    [15389,1525553554,57.4096,-111.8028,629.5,317.5,91.1,6.9,-1.8,17.25,27.1,700.3203,140.0003],
    [15390,1525553555,57.4096,-111.8016,627.3,314.6,92.0,7.5,-1.5,16.96,27.16,700.6783,140.0045],
    [15391,1525553556,57.4096,-111.8003,624.6,311.6,92.9,7.4,-1.3,17.37,27.04,700.7274,139.9987],
    [15392,1525553557,57.4095,-111.799,621.4,307.7,93.4,7.2,-2.0,17.23,26.91,700.7042,139.995],
    [15393,1525553558,57.4095,-111.7978,618.6,304.6,93.4,6.5,-2.3,17.76,26.74,700.6581,140.0029],
    [15394,1525553559,57.4094,-111.7965,615.2,301.2,94.9,6.5,-0.2,17.34,27.43,700.7184,139.9994],
    [15395,1525553560,57.4094,-111.7953,612.4,298.4,93.6,6.7,-0.7,17.25,27.06,700.7258,140.0061],
    [15396,1525553561,57.4093,-111.794,610.4,295.4,91.1,6.3,-1.7,17.16,27.06,700.705,139.9982],
    [15397,1525553562,57.4093,-111.7927,610.1,294.2,89.7,5.6,-1.4,17.32,27.65,700.7036,139.9978],
    [15398,1525553563,57.4093,-111.7914,610.4,295.4,88.2,5.5,-1.7,17.85,26.66,700.7841,139.9996],
    [15399,1525553564,57.4093,-111.7902,610.5,296.5,86.3,6.1,-2.5,17.41,26.93,700.8758,140.0057],
    [15400,1525553565,57.4093,-111.789,610.6,297.6,84.3,6.5,-3.2,17.32,27.06,700.9493,139.9992],
    [15401,1525553566,57.4094,-111.7878,610.8,298.8,82.2,6.8,-3.9,18.0,26.34,700.9774,140.0021],
    [15402,1525553567,57.4094,-111.7865,610.6,299.6,81.3,7.1,-3.6,17.55,26.86,701.063,139.9997],
    [15403,1525553568,57.4095,-111.7852,610.2,299.2,79.9,7.5,-4.6,17.42,27.13,701.0503,140.0015],
    [15404,1525553569,57.4096,-111.784,610.1,298.8,80.8,7.7,-3.3,17.23,27.05,701.0503,140.0015],
    [15405,1525553570,57.4096,-111.7828,609.1,299.1,82.0,7.6,-2.4,16.96,27.12,700.9258,140.0026],
    [15406,1525553571,57.4097,-111.7817,608.3,299.3,82.4,6.9,-2.2,17.16,26.99,700.8396,139.9978],
    [15407,1525553572,57.4097,-111.7804,607.3,300.4,82.9,6.4,-2.5,17.25,27.42,700.9488,140.0151],
    [15408,1525553573,57.4098,-111.7792,607.2,301.3,82.6,6.0,-3.3,17.37,27.15,700.7679,140.0028],
    [15409,1525553574,57.4098,-111.778,607.9,302.2,83.2,6.1,-3.1,17.29,26.79,700.8329,139.9877],
    [15410,1525553575,57.4099,-111.7768,608.7,303.8,83.4,6.5,-3.1,17.27,26.78,700.8799,139.9946],
    [15411,1525553576,57.4099,-111.7756,609.4,305.5,83.4,6.4,-3.2,17.32,27.68,701.0957,140.0043],
    [15412,1525553577,57.4099,-111.7744,609.4,307.0,83.2,6.4,-3.5,17.32,27.1,701.1838,140.0029],
    [15413,1525553578,57.41,-111.7733,609.9,309.6,83.0,6.0,-3.9,18.0,26.46,701.0806,140.0094],
    [15414,1525553579,57.41,-111.7721,609.8,312.8,84.3,5.1,-2.2,17.35,27.2,700.8714,139.9976],
    [15415,1525553580,57.4101,-111.7709,608.5,314.5,87.6,4.2,0.8,17.34,27.96,701.0808,140.0065],
    [15416,1525553581,57.4101,-111.7698,606.2,313.2,88.2,4.2,1.0,17.35,27.32,700.887,140.0098],
    [15417,1525553582,57.4101,-111.7684,605.5,312.5,87.3,5.8,-0.5,17.29,27.53,700.9458,139.9977],
    [15418,1525553583,57.4101,-111.7673,606.6,313.6,85.1,7.4,-2.7,17.06,27.33,701.0312,139.9964],
    [15419,1525553584,57.4102,-111.766,607.7,315.7,85.2,7.3,-2.7,17.18,27.33,701.1309,140.004],
    [15420,1525553585,57.4102,-111.7649,607.9,315.9,87.6,7.7,-1.4,17.15,27.29,701.1439,139.9967],
    [15421,1525553586,57.4102,-111.7637,608.2,315.2,86.5,9.1,-3.6,17.29,27.13,701.2193,140.0021],
    [15422,1525553587,57.4102,-111.7624,608.9,315.9,88.4,10.1,-2.2,17.04,27.58,701.1118,140.0034],
    [15423,1525553588,57.4102,-111.7612,608.4,315.4,87.3,9.9,-4.0,17.18,27.36,701.205,140.0028],
    [15424,1525553589,57.4102,-111.76,607.1,314.1,86.3,8.8,-5.5,17.84,26.98,701.2717,140.0089],
    [15425,1525553590,57.4102,-111.7588,606.2,313.2,88.2,8.3,-4.0,16.77,27.37,701.366,140.0004],
    [15426,1525553591,57.4101,-111.7577,605.6,311.8,89.9,7.8,-2.7,17.15,27.61,701.419,140.0007],
    [15427,1525553592,57.4101,-111.7564,605.7,311.2,91.1,7.2,-1.6,17.39,27.23,701.4664,139.9926],
    [15428,1525553593,57.4101,-111.7552,605.9,308.7,92.1,7.4,-0.5,17.32,27.32,701.6009,139.9987],
    [15429,1525553594,57.4101,-111.754,605.2,303.8,91.4,8.7,-1.1,17.45,27.33,701.5746,140.0074],
    [15430,1525553595,57.41,-111.7528,604.4,297.5,91.0,8.7,-1.5,16.84,27.42,701.5658,139.9983],
    [15431,1525553596,57.41,-111.7516,603.4,293.0,90.7,7.5,-2.1,17.5,27.18,701.637,139.996],
    [15432,1525553597,57.41,-111.7505,602.6,290.7,92.0,6.8,-0.6,17.36,27.36,701.5643,139.9922],
    [15433,1525553598,57.41,-111.7492,601.7,289.5,92.0,7.2,-1.1,17.23,27.68,701.3072,139.9976],
    [15434,1525553599,57.4099,-111.748,601.5,289.5,89.4,7.2,-4.1,17.34,28.16,701.1905,140.0004],
    [15435,1525553600,57.4099,-111.7469,601.2,291.3,90.5,6.2,-2.7,17.43,27.03,700.9186,140.0032],
    [15436,1525553601,57.4099,-111.7457,600.8,292.8,91.9,6.1,-1.2,18.04,26.95,700.6519,140.0047],
    [15437,1525553602,57.4098,-111.7445,601.6,296.9,90.8,5.4,-1.4,16.93,27.23,700.5231,139.9918],
    [15438,1525553603,57.4098,-111.7435,603.5,301.2,91.1,5.2,-0.5,17.45,27.48,700.5287,140.0024],
    [15439,1525553604,57.4098,-111.7422,606.7,306.8,90.0,5.4,-1.3,17.91,26.41,700.5952,139.9978],
    [15440,1525553605,57.4098,-111.7411,609.4,310.4,89.4,5.7,-1.6,17.71,26.77,700.6992,140.0002],
    [15441,1525553606,57.4098,-111.7399,612.1,314.0,88.8,6.3,-2.3,18.14,26.76,700.9603,140.0005],
    [15442,1525553607,57.4098,-111.7387,614.1,317.1,90.4,6.3,-0.9,17.81,26.84,701.0651,139.9953],
    [15443,1525553608,57.4098,-111.7376,614.9,317.8,91.2,6.5,-0.8,17.43,27.74,701.4348,139.995],
    [15444,1525553609,57.4097,-111.7365,614.4,317.3,90.5,6.4,-1.7,17.64,26.77,701.5578,140.0026],
    [15445,1525553610,57.4097,-111.7354,612.9,316.0,91.1,6.7,-1.5,17.45,27.25,701.7788,140.0025],
    [15446,1525553611,57.4097,-111.7342,610.7,312.4,90.5,7.0,-2.5,16.93,27.23,701.7254,140.0039],
    [15447,1525553612,57.4097,-111.7331,607.9,306.2,90.5,6.9,-2.9,17.48,27.17,701.7313,140.0001],
    [15448,1525553613,57.4096,-111.732,604.4,299.4,92.0,6.3,-2.2,17.66,27.04,701.7146,140.0012],
    [15449,1525553614,57.4096,-111.7308,601.3,295.3,92.5,4.8,-1.8,17.75,27.27,701.6756,140.004],
    [15450,1525553615,57.4096,-111.7297,599.4,292.4,94.8,5.0,0.6,16.79,27.23,701.658,140.0017],
    [15451,1525553616,57.4095,-111.7285,598.9,291.9,93.7,4.8,-0.6,17.03,27.2,701.6011,139.9958],
    [15452,1525553617,57.4095,-111.7274,599.2,291.2,92.4,3.9,-1.0,17.58,26.87,701.4893,139.9994],
    [15453,1525553618,57.4094,-111.7262,599.5,292.8,93.7,4.2,0.6,17.42,27.55,701.4815,139.9991],
    [15454,1525553619,57.4094,-111.7251,599.7,293.0,92.0,4.2,-0.9,17.03,27.21,701.3085,139.994],
    [15455,1525553620,57.4094,-111.724,600.3,294.6,92.0,4.2,-0.3,17.33,27.54,701.2745,140.0031],
    [15456,1525553621,57.4094,-111.7229,601.0,296.0,92.4,4.5,0.3,17.9,26.82,701.2417,140.0012],
    [15457,1525553622,57.4093,-111.7217,601.7,298.2,90.6,4.0,-0.8,17.91,26.78,701.2342,140.0101],
    [15458,1525553623,57.4093,-111.7205,602.5,303.5,91.0,3.9,0.1,17.26,26.98,701.1493,139.9997],
    [15459,1525553624,57.4093,-111.7194,603.8,312.2,90.8,4.2,0.0,17.25,27.05,701.1034,140.002],
    [15460,1525553625,57.4093,-111.7183,604.9,315.9,90.4,4.5,0.0,17.74,26.82,700.9341,140.0003],
    [15461,1525553626,57.4093,-111.7171,605.5,316.8,90.2,4.9,-0.1,16.84,27.18,700.8921,139.9992],
    [15462,1525553627,57.4093,-111.7161,605.9,318.4,89.5,4.9,-0.3,17.58,26.88,700.7432,139.9945],
    [15463,1525553628,57.4093,-111.7149,606.6,314.8,89.2,5.1,0.2,16.96,27.02,700.5973,139.992],
    [15464,1525553629,57.4093,-111.7137,607.3,308.9,88.2,5.3,0.0,17.13,27.03,700.7219,140.0013],
    [15465,1525553630,57.4094,-111.7127,608.3,304.8,87.5,5.7,0.1,18.0,26.75,700.9252,140.0033],
    [15466,1525553631,57.4094,-111.7115,609.7,305.1,86.8,5.6,-0.1,17.47,27.64,700.9227,139.9929],
    [15467,1525553632,57.4094,-111.7106,610.7,305.8,86.3,5.1,-0.5,17.44,27.43,701.2205,140.0024],
    [15468,1525553633,57.4094,-111.7093,611.9,308.3,87.4,5.1,0.2,17.84,26.32,701.3065,140.0084],
    [15469,1525553634,57.4095,-111.7081,612.0,305.3,88.4,5.0,0.2,17.22,27.01,701.339,140.0038],
    [15470,1525553635,57.4095,-111.7071,611.0,304.0,88.8,5.4,-0.2,17.48,26.96,701.3066,140.0076],
    [15471,1525553636,57.4095,-111.706,609.4,305.4,89.9,6.1,0.4,17.34,27.09,701.2257,140.0035],
    [15472,1525553637,57.4095,-111.7048,607.2,305.9,90.3,6.3,0.5,16.99,27.16,701.1774,139.9968],
    [15473,1525553638,57.4095,-111.7037,605.4,306.4,90.7,6.0,0.6,17.99,26.53,701.1366,140.0021],
    [15474,1525553639,57.4095,-111.7025,604.7,309.8,90.9,6.4,0.5,17.82,26.57,701.1211,140.0031],
    [15475,1525553640,57.4095,-111.7014,604.9,313.0,91.3,7.1,0.4,17.23,27.18,701.1145,139.9989],
    [15476,1525553641,57.4095,-111.7003,605.8,315.8,91.8,7.3,0.5,17.16,27.16,701.0767,139.9946],
    [15477,1525553642,57.4095,-111.6992,606.6,317.9,92.6,6.9,0.6,17.16,27.13,701.0333,140.0039],
    [15478,1525553643,57.4094,-111.698,607.3,322.4,92.5,6.9,0.2,17.71,26.91,700.95,139.999],
    [15479,1525553644,57.4094,-111.697,607.8,323.8,91.9,7.4,-0.6,17.69,26.97,700.902,139.9947],
    [15480,1525553645,57.4094,-111.6958,607.7,325.7,90.6,6.9,-1.4,17.18,27.13,700.9885,139.9953],
    [15481,1525553646,57.4094,-111.6947,608.1,327.1,91.3,6.3,0.0,17.57,27.05,700.9178,140.0032],
    [15482,1525553647,57.4094,-111.6937,608.7,328.7,91.7,7.2,0.8,17.34,27.24,700.8719,139.9967],
    [15483,1525553648,57.4094,-111.6925,609.4,331.1,90.0,7.7,0.0,17.31,27.54,700.6455,140.0011],
    [15484,1525553649,57.4094,-111.6914,610.3,332.3,89.2,7.3,0.3,17.15,27.07,700.5694,139.9997],
    [15485,1525553650,57.4094,-111.6902,610.0,333.0,88.5,7.0,0.4,17.21,27.46,700.4408,139.9976],
    [15486,1525553651,57.4094,-111.6891,610.0,333.9,87.4,7.0,-0.2,17.43,27.19,700.2959,139.9972],
    [15487,1525553652,57.4094,-111.688,611.3,336.4,87.9,7.2,0.1,17.72,27.02,700.2387,140.0045],
    [15488,1525553653,57.4094,-111.6869,613.1,339.1,88.0,7.5,-0.3,17.81,26.87,700.1721,140.0026],
    [15489,1525553654,57.4095,-111.686,614.4,340.3,88.0,7.7,-0.5,17.31,27.4,700.0657,140.0007],
    [15490,1525553655,57.4095,-111.6848,616.0,343.0,88.1,7.5,-0.3,17.2,27.21,699.9791,140.0053],
    [15491,1525553656,57.4095,-111.6836,617.5,344.8,87.8,7.6,-0.6,16.86,27.17,700.0482,139.9964],
    [15492,1525553657,57.4095,-111.6825,618.8,346.8,88.0,8.2,-0.5,17.23,27.16,700.041,140.0025],
    [15493,1525553658,57.4095,-111.6814,619.8,348.9,88.5,9.0,0.0,17.03,27.49,699.8961,139.9984],
    [15494,1525553659,57.4095,-111.6804,620.9,349.9,88.9,9.3,0.3,17.38,28.03,699.8079,140.0016],
    [15495,1525553660,57.4095,-111.6792,621.6,351.6,88.2,9.3,-0.6,17.99,26.93,699.6968,140.0019],
    [15496,1525553661,57.4095,-111.6781,621.5,352.2,89.0,9.1,0.0,17.36,27.87,699.5596,139.9964],
    [15497,1525553662,57.4096,-111.677,621.6,352.6,89.0,9.2,-0.2,17.34,27.54,699.5239,140.002],
    [15498,1525553663,57.4096,-111.6759,622.7,354.7,87.7,9.4,-1.1,17.18,27.23,699.3464,140.0072],
    [15499,1525553664,57.4096,-111.6748,624.2,356.2,88.4,9.3,-0.2,17.23,27.34,699.3308,139.9941],
    [15500,1525553665,57.4096,-111.6737,625.4,357.4,89.5,9.9,0.2,17.75,27.15,699.3903,139.9913],
    [15501,1525553666,57.4096,-111.6726,626.6,359.6,90.2,10.6,0.4,17.25,27.45,699.4115,140.0007],
    [15502,1525553667,57.4096,-111.6715,627.5,360.5,92.0,10.9,0.9,16.99,27.36,699.7087,140.0053],
    [15503,1525553668,57.4096,-111.6704,628.2,361.2,92.5,10.0,-0.4,17.64,27.25,699.7738,140.0032],
    [15504,1525553669,57.4095,-111.6693,629.4,362.4,95.6,9.5,0.4,17.88,27.01,699.8282,139.9938],
    [15505,1525553670,57.4095,-111.6683,629.8,364.5,101.4,10.1,2.3,17.09,27.5,700.2016,140.002],
    [15506,1525553671,57.4094,-111.6672,629.2,370.0,105.4,9.6,1.7,17.21,27.02,700.7333,140.0],
    [15507,1525553672,57.4092,-111.6661,627.8,374.2,109.8,9.4,1.1,17.24,27.66,701.0727,139.9991],
    [15508,1525553673,57.409,-111.6651,625.7,380.0,116.1,10.4,1.3,16.98,27.47,701.5961,139.9966],
    [15509,1525553674,57.4088,-111.6641,623.5,382.6,120.6,10.5,0.2,17.13,27.4,702.4568,140.0042],
    [15510,1525553675,57.4086,-111.6633,620.5,379.7,123.9,9.7,0.5,17.13,27.56,703.0615,140.0028],
    [15511,1525553676,57.4083,-111.6623,614.5,373.1,132.9,11.0,2.5,17.03,27.53,703.4595,140.0005],
    [15512,1525553677,57.4079,-111.6614,608.4,362.4,140.1,11.2,2.1,17.39,27.35,703.9165,139.9995],
    [15513,1525553678,57.4074,-111.6605,601.8,345.9,145.3,10.8,1.8,17.3,28.04,704.7425,139.9986],
    [15514,1525553679,57.407,-111.6599,594.2,335.2,151.4,11.2,2.1,16.99,27.57,705.5342,140.0073],
    [15515,1525553680,57.4065,-111.6592,586.0,325.5,157.7,10.8,1.4,16.54,27.6,706.3352,139.9993],
    [15516,1525553681,57.406,-111.6587,578.6,319.6,163.9,10.9,0.4,17.42,27.21,706.8016,139.9995],
    [15517,1525553682,57.4055,-111.6583,572.2,315.8,168.5,10.7,0.4,17.56,26.88,707.287,140.0152],
    [15518,1525553683,57.4048,-111.6579,563.6,308.6,175.3,12.7,0.9,17.05,27.83,707.7509,139.9948],
    [15519,1525553684,57.4043,-111.6577,555.7,301.9,180.1,13.1,0.2,16.96,27.51,708.0551,139.9944],
    [15520,1525553685,57.4037,-111.6575,546.9,293.8,185.5,13.6,-0.2,16.87,27.87,708.4039,140.0023],
    [15521,1525553686,57.4031,-111.6574,540.3,288.0,189.5,13.6,-0.4,17.06,27.5,708.662,140.0013],
    [15522,1525553687,57.4025,-111.6574,533.4,281.2,191.0,10.9,-0.1,17.62,26.43,708.8553,140.0035],
    [15523,1525553688,57.4019,-111.6575,527.8,275.8,194.4,11.3,-0.1,17.06,27.17,708.8187,140.0053],
    [15524,1525553689,57.4013,-111.6576,523.2,270.5,198.4,11.7,-0.7,17.64,26.94,708.9058,139.9953],
    [15525,1525553690,57.4007,-111.6578,519.3,266.3,200.1,10.3,-0.9,17.16,27.18,708.8538,140.0082],
    [15526,1525553691,57.4002,-111.658,516.4,263.4,202.0,10.1,-1.2,17.47,26.96,708.9376,139.9975],
    [15527,1525553692,57.3996,-111.6583,514.4,261.1,203.6,10.4,-1.5,17.64,27.23,708.9472,140.0024],
    [15528,1525553693,57.399,-111.6586,513.6,259.7,204.1,10.3,-1.8,17.3,27.01,708.9312,139.9981],
    [15529,1525553694,57.3984,-111.6589,513.3,257.9,204.0,9.9,-2.0,17.38,26.81,708.8883,140.0007],
    [15530,1525553695,57.3979,-111.6592,513.3,257.7,201.9,8.1,-1.5,17.79,26.67,708.8516,139.994],
    [15531,1525553696,57.3973,-111.6595,513.1,257.1,202.0,9.0,-1.6,17.59,27.12,708.9863,139.9986],
    [15532,1525553697,57.3967,-111.6597,512.8,256.0,202.4,9.7,-2.1,17.37,27.07,709.0837,140.0004],
    [15533,1525553698,57.3961,-111.66,513.1,256.7,201.3,8.9,-2.8,17.18,26.65,709.1074,139.9972],
    [15534,1525553699,57.3956,-111.6602,513.5,255.7,200.4,8.2,-2.9,17.66,26.64,709.0972,140.0009],
    [15535,1525553700,57.395,-111.6605,513.6,255.6,199.8,8.0,-2.2,17.82,26.66,709.1473,139.9962],
    [15536,1525553701,57.3944,-111.6607,512.9,255.1,199.4,7.8,-1.4,17.78,26.69,709.0021,140.0],
    [15537,1525553702,57.3938,-111.661,511.9,254.1,198.5,6.9,-1.1,17.73,26.45,708.9067,140.0047],
    [15538,1525553703,57.3932,-111.6612,511.2,254.1,198.7,7.3,-1.7,17.46,26.81,708.9245,139.9988],
    [15539,1525553704,57.3926,-111.6615,510.9,254.1,198.3,7.1,-1.5,17.6,26.5,709.0249,139.9873],
    [15540,1525553705,57.392,-111.6617,510.8,255.2,197.0,6.3,-1.0,17.64,26.41,709.0072,139.9961],
    [15541,1525553706,57.3914,-111.6619,511.6,259.3,196.1,5.6,-0.7,17.46,26.55,709.1045,140.0003],
    [15542,1525553707,57.3908,-111.6621,512.4,261.1,195.4,4.9,-0.8,17.8,26.68,709.1696,139.9978],
    [15543,1525553708,57.3902,-111.6623,512.7,261.4,196.1,5.6,-1.3,17.63,26.45,709.1575,140.0028],
    [15544,1525553709,57.3897,-111.6625,512.0,261.3,195.4,5.4,-0.3,18.38,26.38,709.1185,140.0046],
    [15545,1525553710,57.389,-111.6628,511.3,261.3,194.7,5.5,0.1,18.45,25.95,709.1936,140.0006],
    [15546,1525553711,57.3884,-111.663,510.9,262.9,194.9,6.2,-0.4,17.77,26.55,709.2178,140.0041],
    [15547,1525553712,57.3878,-111.6632,510.2,262.5,194.8,6.4,-0.4,17.52,26.26,709.2638,139.9987],
    [15548,1525553713,57.3872,-111.6633,510.1,262.5,193.8,5.7,-0.1,18.04,26.16,709.098,139.9994],
    [15549,1525553714,57.3867,-111.6635,510.6,263.5,194.3,6.5,-0.8,18.24,25.91,708.8854,140.0047],
    [15550,1525553715,57.386,-111.6637,510.5,263.8,194.7,7.0,-1.3,17.97,26.26,708.7672,140.0026],
    [15551,1525553716,57.3854,-111.6639,509.7,264.7,193.9,6.7,-1.1,18.13,25.67,708.6722,140.01],
    [15552,1525553717,57.3848,-111.664,509.3,263.3,194.6,8.0,-1.0,18.39,25.9,708.4381,140.0009],
    [15553,1525553718,57.3842,-111.6642,510.5,266.0,194.3,7.8,-0.6,17.93,26.44,708.3007,140.0084],
    [15554,1525553719,57.3836,-111.6643,513.0,267.7,193.6,7.2,-0.2,18.06,25.86,708.29,140.0014],
    [15555,1525553720,57.383,-111.6644,515.0,268.0,194.8,8.0,-1.6,17.63,26.17,708.0328,139.999],
    [15556,1525553721,57.3825,-111.6646,516.7,270.7,195.7,8.2,-2.6,17.73,25.97,707.9579,140.0003],
    [15557,1525553722,57.3819,-111.6648,518.6,270.1,194.7,7.1,-1.8,18.63,25.7,707.7437,139.9975],
    [15558,1525553723,57.3813,-111.6649,520.2,272.4,192.7,5.2,-0.9,18.44,25.86,707.6683,139.9966],
    [15559,1525553724,57.3808,-111.665,521.6,272.3,193.1,5.6,-0.5,17.94,26.2,707.545,139.9983],
    [15560,1525553725,57.3802,-111.6652,523.5,274.3,194.6,6.4,-0.4,18.45,26.15,707.2838,139.9988],
    [15561,1525553726,57.3796,-111.6654,525.1,276.1,194.6,6.2,0.0,18.48,25.85,707.4042,139.9949],
    [15562,1525553727,57.3791,-111.6655,526.5,279.1,194.9,6.3,0.3,17.54,26.09,707.5013,140.0001],
    [15563,1525553728,57.3785,-111.6657,528.6,281.5,193.3,5.4,0.5,18.43,26.17,707.6495,140.0016],
    [15564,1525553729,57.3779,-111.6659,530.6,283.3,193.0,5.4,-0.6,18.61,25.78,707.8157,140.0025],
    [15565,1525553730,57.3774,-111.666,532.8,287.0,190.3,3.4,-1.1,17.83,26.4,707.9015,139.9948],
    [15566,1525553731,57.3768,-111.6661,533.5,286.8,190.2,4.3,-1.5,17.79,26.92,707.945,140.0059],
    [15567,1525553732,57.3762,-111.6662,532.2,287.2,191.1,6.5,-2.2,18.01,26.46,707.9398,140.0073],
    [15568,1525553733,57.3756,-111.6663,530.0,287.7,189.3,6.5,-2.5,18.47,26.13,707.7631,139.9874],
    [15569,1525553734,57.3751,-111.6664,527.6,287.0,186.8,5.8,-1.6,18.01,26.84,707.8257,140.0011],
    [15570,1525553735,57.3744,-111.6664,526.0,287.3,184.6,5.3,-1.5,18.03,26.32,707.8161,139.9992],
    [15571,1525553736,57.3739,-111.6664,525.8,288.8,183.9,5.1,-2.2,17.53,26.75,707.871,139.996],
    [15572,1525553737,57.3732,-111.6663,525.5,288.4,181.9,4.3,-2.5,17.86,26.79,708.0959,139.9986],
    [15573,1525553738,57.3726,-111.6663,526.2,290.2,181.5,5.9,-2.2,18.46,26.28,708.2408,140.0025],
    [15574,1525553739,57.372,-111.6662,526.3,290.3,180.2,5.9,-1.8,18.47,26.26,708.0342,139.9997],
    [15575,1525553740,57.3714,-111.6661,525.8,290.8,178.0,4.8,-1.9,18.39,25.96,707.6958,139.9994],
    [15576,1525553741,57.3708,-111.666,524.8,290.2,178.5,5.5,-1.5,18.57,25.96,707.7072,139.9976],
    [15577,1525553742,57.3702,-111.6659,522.5,288.1,179.2,5.7,-1.2,18.1,26.06,707.6941,140.0026],
    [15578,1525553743,57.3696,-111.6658,521.6,288.3,181.0,6.8,-1.3,17.41,26.51,707.6522,139.9983],
    [15579,1525553744,57.3689,-111.6657,522.5,289.5,182.4,6.9,-0.9,17.57,26.44,707.7127,140.0082],
    [15580,1525553745,57.3683,-111.6656,525.1,292.1,182.9,6.7,0.5,18.6,26.13,707.6748,140.0047],
    [15581,1525553746,57.3677,-111.6656,526.6,293.5,183.6,6.9,0.6,18.21,26.84,707.668,140.0004],
    [15582,1525553747,57.3671,-111.6655,527.1,295.1,183.0,5.9,0.3,17.66,26.32,707.6476,139.9992],
    [15583,1525553748,57.3664,-111.6655,527.8,295.8,182.6,5.6,-0.1,18.38,25.74,707.598,140.0007],
    [15584,1525553749,57.3659,-111.6655,528.1,296.1,183.7,6.7,-0.7,17.89,26.25,707.6078,140.0031],
    [15585,1525553750,57.3653,-111.6654,528.1,296.1,183.0,6.1,-1.4,17.85,25.94,707.5758,140.0014],
    [15586,1525553751,57.3647,-111.6654,528.1,296.1,182.7,6.1,-1.3,18.39,25.68,707.427,140.0086],
    [15587,1525553752,57.3641,-111.6653,527.9,295.9,182.7,6.2,-1.1,17.81,26.59,707.3354,139.9959],
    [15588,1525553753,57.3634,-111.6653,528.1,296.1,182.5,5.8,-1.1,18.07,26.58,707.3443,140.0006],
    [15589,1525553754,57.3628,-111.6652,528.7,296.7,182.2,5.5,-1.2,17.91,25.89,707.3224,139.9975],
    [15590,1525553755,57.3622,-111.6652,529.3,297.3,182.8,5.9,-1.8,18.67,25.66,707.3385,139.9985],
    [15591,1525553756,57.3616,-111.6651,530.6,298.6,181.9,5.1,-2.6,17.71,26.09,707.4282,139.9934],
    [15592,1525553757,57.361,-111.6651,531.9,299.9,182.7,6.1,-3.0,17.99,25.91,707.5147,139.9996],
    [15593,1525553758,57.3604,-111.665,532.3,300.3,183.5,6.4,-3.2,18.25,26.53,707.5608,139.9954],
    [15594,1525553759,57.3598,-111.665,532.6,300.6,183.3,5.9,-2.8,18.26,25.83,707.4649,140.0055],
    [15595,1525553760,57.3592,-111.665,532.6,299.8,184.0,6.4,-2.5,18.13,25.87,707.5833,139.9875],
    [15596,1525553761,57.3586,-111.6649,531.9,298.9,184.1,6.5,-2.6,18.12,25.98,707.5759,139.9994],
    [15597,1525553762,57.358,-111.6649,531.0,298.0,183.6,6.2,-2.9,17.67,25.93,707.3478,139.9997],
    [15598,1525553763,57.3573,-111.6649,529.8,296.8,182.8,5.6,-3.8,18.36,25.87,707.2843,140.0018],
    [15599,1525553764,57.3568,-111.6648,529.8,296.8,179.5,2.5,-3.5,18.13,26.16,707.2008,140.0005],
    [15600,1525553765,57.3561,-111.6647,529.2,295.2,178.4,3.0,-2.1,18.53,25.52,707.1813,140.005],
    [15601,1525553766,57.3555,-111.6647,529.2,295.2,179.5,5.3,-1.5,17.77,26.11,707.2111,139.9981],
    [15602,1525553767,57.3548,-111.6646,530.4,296.4,178.9,5.3,-1.4,18.29,25.92,706.8315,140.0001],
    [15603,1525553768,57.3542,-111.6644,531.9,296.9,178.4,5.2,-1.6,18.1,26.1,706.5666,139.9987],
    [15604,1525553769,57.3535,-111.6643,532.6,297.6,177.9,4.7,-1.4,18.14,26.63,706.1799,140.0014],
    [15605,1525553770,57.3529,-111.6642,533.6,297.6,177.6,4.9,-1.2,18.15,26.7,705.875,140.0017],
    [15606,1525553771,57.3523,-111.6641,534.2,298.2,179.8,6.8,-1.5,18.17,26.14,705.6431,139.9873],
    [15607,1525553772,57.3517,-111.664,536.5,301.2,179.9,5.7,-0.9,18.07,26.82,705.2054,139.9946],
    [15608,1525553773,57.351,-111.6639,540.6,305.6,180.9,5.6,-0.2,18.15,26.51,704.9471,139.9919],
    [15609,1525553774,57.3504,-111.6638,544.5,308.5,184.5,7.9,-1.2,17.77,26.13,704.6069,140.0034],
    [15610,1525553775,57.3498,-111.6638,547.9,311.9,186.5,8.8,-1.5,18.16,26.05,703.7791,140.0114],
    [15611,1525553776,57.3491,-111.6638,550.7,315.7,186.6,7.8,0.4,18.26,25.98,703.2043,140.0028],
    [15612,1525553777,57.3485,-111.6638,554.2,319.2,185.2,6.2,2.4,18.2,26.27,702.5414,140.0006],
    [15613,1525553778,57.3479,-111.6638,558.9,323.9,185.2,5.9,3.3,18.77,25.67,702.5099,140.0009],
    [15614,1525553779,57.3473,-111.6638,565.1,329.1,184.7,6.0,3.3,17.86,26.11,701.9526,139.9973],
    [15615,1525553780,57.3467,-111.6638,572.1,336.1,184.6,6.2,2.2,18.2,26.36,701.49,140.0012],
    [15616,1525553781,57.3461,-111.6638,579.0,343.0,183.7,5.9,1.1,18.69,25.6,701.3752,139.9936],
    [15617,1525553782,57.3455,-111.6637,585.5,347.5,183.9,6.6,1.1,18.15,26.15,701.3254,139.995],
    [15618,1525553783,57.3449,-111.6637,591.9,353.9,183.3,6.9,1.5,18.68,25.88,701.2713,139.9956],
    [15619,1525553784,57.3443,-111.6636,597.0,357.7,184.3,8.6,0.7,18.17,26.15,701.2282,139.9927],
    [15620,1525553785,57.3437,-111.6636,601.5,358.1,183.4,8.3,-0.1,17.82,25.92,701.2299,140.0059],
    [15621,1525553786,57.3431,-111.6635,604.6,359.1,183.2,8.7,-0.5,17.89,26.45,701.3456,140.0007],
    [15622,1525553787,57.3426,-111.6634,605.5,357.4,182.1,8.1,-0.6,18.08,26.07,701.4943,139.9996],
    [15623,1525553788,57.342,-111.6633,605.9,352.9,180.4,7.1,-0.4,18.45,25.28,701.5371,139.9989],
    [15624,1525553789,57.3414,-111.6632,606.5,350.9,181.2,7.9,-0.4,17.89,25.81,701.5712,139.9984],
    [15625,1525553790,57.3408,-111.6631,606.4,347.5,181.2,7.7,-0.8,18.28,25.39,701.5706,140.0034],
    [15626,1525553791,57.3403,-111.663,605.5,342.5,182.3,8.8,-0.7,18.17,25.86,701.7549,140.0052],
    [15627,1525553792,57.3397,-111.6629,604.1,340.1,184.0,10.0,-0.8,17.77,26.41,701.7296,139.9984],
    [15628,1525553793,57.3391,-111.6628,603.2,338.2,184.4,9.5,-1.2,18.06,26.61,701.7307,139.993],
    [15629,1525553794,57.3385,-111.6627,602.8,334.2,184.9,9.0,-1.3,18.0,26.24,701.5889,139.9969],
    [15630,1525553795,57.3379,-111.6627,602.4,331.9,185.5,8.9,-1.1,17.84,26.65,701.5022,139.9858],
    [15631,1525553796,57.3373,-111.6627,601.3,329.9,186.5,9.2,-1.3,17.51,25.89,701.4664,139.9922],
    [15632,1525553797,57.3367,-111.6626,600.0,328.4,187.2,9.3,-1.4,18.01,25.84,701.2986,139.9864],
    [15633,1525553798,57.3361,-111.6626,600.1,327.7,187.7,9.2,-1.1,18.13,25.64,701.2015,139.9996],
    [15634,1525553799,57.3355,-111.6626,600.9,328.5,188.3,9.3,-1.0,17.56,25.95,701.03,140.0063],
    [15635,1525553800,57.3349,-111.6626,601.7,329.3,188.9,9.5,0.4,17.35,25.97,701.0704,139.9956],
    [15636,1525553801,57.3343,-111.6627,602.1,329.7,187.7,7.6,2.2,17.73,25.87,701.2838,139.9987],
    [15637,1525553802,57.3337,-111.6627,603.3,331.0,187.4,7.1,2.0,18.35,25.74,701.338,139.9968],
    [15638,1525553803,57.3331,-111.6627,605.0,331.4,189.4,8.7,1.3,17.77,26.67,701.4299,140.0007],
    [15639,1525553804,57.3325,-111.6628,606.5,334.2,187.7,7.0,1.1,17.87,26.06,701.538,139.9879],
    [15640,1525553805,57.3318,-111.6628,606.6,336.6,188.4,8.4,0.4,17.9,25.88,701.531,140.0041],
    [15641,1525553806,57.3312,-111.6628,605.0,336.0,188.3,8.9,0.3,18.29,25.64,701.5534,139.9842],
    [15642,1525553807,57.3306,-111.6628,603.9,334.9,187.0,8.4,0.6,17.79,26.14,701.7167,139.9922],
    [15643,1525553808,57.33,-111.6628,602.5,333.2,186.4,8.4,1.1,18.06,26.01,701.7512,139.9876],
    [15644,1525553809,57.3294,-111.6628,601.0,329.7,185.3,8.2,1.7,17.38,26.12,701.7417,139.9949],
    [15645,1525553810,57.3287,-111.6628,600.4,328.4,184.7,7.6,1.5,17.6,26.17,701.6489,140.0042],
    [15646,1525553811,57.3281,-111.6628,600.2,325.8,182.8,6.1,1.5,17.91,26.92,701.6379,140.0048],
    [15647,1525553812,57.3275,-111.6627,599.2,324.8,183.9,7.9,2.3,18.19,26.2,701.6674,140.0017],
    [15648,1525553813,57.3269,-111.6627,597.4,323.1,184.6,10.0,2.4,17.79,26.22,701.7676,139.9996],
    [15649,1525553814,57.3262,-111.6626,597.7,323.2,185.3,11.2,1.9,17.84,26.23,701.9385,140.0073],
    [15650,1525553815,57.3256,-111.6625,598.4,326.1,184.8,11.1,2.3,17.86,26.19,701.842,139.9981],
    [15651,1525553816,57.3249,-111.6624,599.0,326.1,185.0,11.9,1.5,17.93,26.72,701.8032,139.9925],
    [15652,1525553817,57.3243,-111.6623,598.9,325.1,185.1,11.6,0.9,17.64,25.95,701.826,140.0107],
    [15653,1525553818,57.3236,-111.6622,598.1,323.5,183.7,9.6,1.3,17.71,26.01,701.4975,140.0217],
    [15654,1525553819,57.3229,-111.6622,597.1,321.1,184.6,9.6,0.2,18.27,25.47,701.3949,140.0056],
    [15655,1525553820,57.3224,-111.6621,596.9,319.9,185.1,9.5,0.1,17.78,26.04,701.5893,140.0082],
    [15656,1525553821,57.3217,-111.6621,597.1,320.1,187.6,11.9,0.3,17.87,26.03,701.7183,139.9941],
    [15657,1525553822,57.321,-111.662,597.0,319.0,187.5,11.5,-0.3,17.86,26.22,701.7046,139.9958],
    [15658,1525553823,57.3204,-111.662,598.2,320.2,185.4,9.8,-0.5,17.77,26.02,701.4439,139.9983],
    [15659,1525553824,57.3198,-111.6619,599.5,320.4,189.4,14.7,-0.8,17.7,25.82,701.3048,140.0042],
    [15660,1525553825,57.3191,-111.6619,599.9,321.6,187.8,11.8,-0.2,17.8,25.82,701.035,139.9944],
    [15661,1525553826,57.3185,-111.6619,598.8,320.8,186.4,10.6,-0.7,18.28,25.37,701.0001,139.9972],
    [15662,1525553827,57.3179,-111.6618,599.0,321.0,189.0,13.3,-1.6,17.75,25.84,701.0845,140.0006],
    [15663,1525553828,57.3172,-111.6618,601.2,323.9,186.0,10.8,-0.7,17.8,26.3,701.1019,140.0026],
    [15664,1525553829,57.3165,-111.6617,604.9,327.9,185.5,11.3,-1.7,17.54,25.67,701.1613,140.0093],
    [15665,1525553830,57.3159,-111.6616,607.1,329.4,186.5,12.3,-2.8,17.39,25.75,701.0635,140.0032],
    [15666,1525553831,57.3152,-111.6615,607.5,329.7,186.7,12.4,-1.6,17.86,25.78,701.2038,139.9925],
    [15667,1525553832,57.3146,-111.6615,607.1,329.1,187.1,12.6,-1.2,17.77,25.53,701.2943,140.0022],
    [15668,1525553833,57.3139,-111.6614,606.4,328.7,185.5,10.4,-1.5,17.53,25.87,701.2871,140.0116],
    [15669,1525553834,57.3134,-111.6614,606.1,328.1,185.4,9.2,-1.6,18.02,25.9,701.3219,139.9977],
    [15670,1525553835,57.3127,-111.6613,605.3,327.3,187.0,8.6,-1.2,17.89,25.78,701.2755,140.0009],
    [15671,1525553836,57.3121,-111.6614,605.5,327.5,192.0,11.8,-0.6,18.08,25.72,701.2866,139.9965],
    [15672,1525553837,57.3115,-111.6615,605.1,328.3,197.6,14.0,-2.3,17.53,25.65,701.3534,140.0046],
    [15673,1525553838,57.3108,-111.6616,604.8,328.9,200.3,12.6,-2.8,17.35,25.64,701.5492,140.0038],
    [15674,1525553839,57.3102,-111.6618,605.1,331.4,204.6,13.0,-3.2,17.94,25.69,701.7024,140.0024],
    [15675,1525553840,57.3096,-111.6621,605.4,333.4,208.1,13.0,-3.3,17.35,25.57,701.7271,140.0052],
    [15676,1525553841,57.3091,-111.6625,605.2,335.0,212.8,13.3,-4.1,17.94,25.52,701.8018,139.9996],
    [15677,1525553842,57.3086,-111.6629,604.4,336.4,217.3,12.6,-5.1,17.97,25.52,701.8358,140.0002],
    [15678,1525553843,57.308,-111.6634,602.9,337.6,220.5,11.1,-4.2,18.58,24.75,701.815,140.0012],
    [15679,1525553844,57.3076,-111.664,601.8,339.7,225.2,11.4,-4.1,17.9,25.43,701.7816,139.9968],
    [15680,1525553845,57.3071,-111.6646,600.8,345.8,229.7,11.3,-4.1,17.89,25.58,701.7698,139.9986],
    [15681,1525553846,57.3067,-111.6653,600.1,355.1,234.4,11.1,-4.2,17.73,25.54,701.7743,140.0027],
    [15682,1525553847,57.3063,-111.666,599.6,359.4,238.7,10.9,-4.5,17.92,25.45,701.7179,140.0034],
    [15683,1525553848,57.306,-111.6668,599.7,361.7,241.8,10.4,-4.0,18.24,25.22,701.6068,139.9997],
    [15684,1525553849,57.3057,-111.6676,600.0,363.0,245.1,10.4,-3.9,17.94,26.07,701.5536,139.996],
    [15685,1525553850,57.3055,-111.6684,600.3,363.3,247.9,10.4,-3.7,17.68,25.52,701.4859,140.0077],
    [15686,1525553851,57.3052,-111.6692,600.7,364.5,250.0,10.2,-3.5,17.44,25.69,701.4027,140.0067],
    [15687,1525553852,57.305,-111.6701,601.1,365.1,252.9,10.2,-4.4,17.87,26.06,701.3839,139.9958],
    [15688,1525553853,57.3048,-111.671,601.9,365.9,254.5,10.4,-4.2,17.75,25.54,701.3926,140.0023],
    [15689,1525553854,57.3046,-111.6718,602.5,366.5,255.9,10.9,-4.6,17.81,25.44,701.33,140.0045],
    [15690,1525553855,57.3044,-111.6727,603.1,367.5,256.9,10.8,-4.4,18.3,25.52,701.2892,139.989],
    [15691,1525553856,57.3043,-111.6735,603.9,368.9,255.6,10.2,-2.5,17.87,26.03,701.3071,139.9999],
    [15692,1525553857,57.3041,-111.6744,604.4,369.4,257.0,10.4,-4.0,18.25,25.06,701.2901,139.9954],
    [15693,1525553858,57.3039,-111.6753,604.4,369.4,257.2,9.7,-4.0,18.16,25.1,701.2702,139.9855],
    [15694,1525553859,57.3038,-111.6761,604.9,369.9,255.7,9.1,-2.7,18.18,25.25,701.0222,140.011],
    [15695,1525553860,57.3036,-111.6771,605.4,370.4,256.8,9.5,-3.8,17.81,25.61,700.7423,139.9885],
    [15696,1525553861,57.3034,-111.678,604.9,369.9,257.6,9.7,-3.7,18.14,25.53,699.8679,140.0005],
    [15697,1525553862,57.3033,-111.6789,604.7,369.7,258.1,10.0,-2.9,17.73,26.21,699.5603,139.9975],
    [15698,1525553863,57.3031,-111.6799,605.1,369.1,260.4,10.9,-3.8,17.34,25.8,699.0747,140.0032],
    [15699,1525553864,57.303,-111.6807,606.6,369.6,261.5,11.0,-3.6,17.36,26.08,698.462,140.0031],
    [15700,1525553865,57.3029,-111.6817,610.9,372.0,261.9,11.0,-3.3,17.58,25.77,697.9427,140.0079],
    [15701,1525553866,57.3028,-111.6825,616.8,374.1,262.7,11.6,-3.3,17.81,26.21,697.6874,140.0035],
    [15702,1525553867,57.3027,-111.6835,623.8,374.6,262.4,11.5,-2.6,17.82,25.94,697.3553,139.9995],
    [15703,1525553868,57.3026,-111.6843,629.8,379.5,262.2,11.2,-2.3,17.61,25.96,696.9243,140.0021],
    [15704,1525553869,57.3025,-111.6853,637.3,386.1,261.3,10.6,-1.2,17.24,26.12,696.3856,139.9898],
    [15705,1525553870,57.3024,-111.6861,643.5,397.8,261.3,9.9,-0.8,17.41,26.45,695.8482,139.9988],
    [15706,1525553871,57.3023,-111.6869,648.4,406.2,261.7,9.3,-0.8,18.35,25.38,695.2516,139.9945],
    [15707,1525553872,57.3022,-111.6878,653.1,414.1,263.4,8.5,-1.7,17.97,26.68,694.9985,139.999],
    [15708,1525553873,57.3021,-111.6887,657.6,418.6,265.0,9.1,-2.6,17.81,26.1,694.4475,140.007],
    [15709,1525553874,57.3021,-111.6895,663.6,420.6,265.3,10.3,-2.0,18.45,25.98,694.2371,139.996],
    [15710,1525553875,57.302,-111.6904,670.6,421.6,265.3,10.3,-1.4,17.67,26.11,693.8301,139.9947],
    [15711,1525553876,57.302,-111.6912,676.8,418.8,267.2,9.9,-2.7,18.29,25.63,693.5593,139.999],
    [15712,1525553877,57.3019,-111.6921,682.2,414.2,267.1,8.7,-2.1,17.49,26.25,692.9315,139.996],
    [15713,1525553878,57.3019,-111.6928,686.7,413.6,265.0,7.8,0.0,18.16,26.12,692.6713,139.9987],
    [15714,1525553879,57.3018,-111.6937,691.1,416.1,266.3,8.4,-1.0,17.64,26.56,692.0873,139.9971],
    [15715,1525553880,57.3018,-111.6944,695.3,418.3,268.8,9.2,-2.9,17.99,26.26,691.6943,140.0046],
    [15716,1525553881,57.3018,-111.6953,700.0,422.2,268.7,9.6,-2.7,18.19,26.23,691.1686,140.0],
    [15717,1525553882,57.3017,-111.6961,704.9,425.9,269.5,10.0,-3.7,17.46,26.72,690.5695,139.9873],
    [15718,1525553883,57.3017,-111.6969,710.0,429.2,269.6,10.1,-3.7,17.56,26.55,690.2181,139.9902],
    [15719,1525553884,57.3016,-111.6977,715.4,433.7,268.2,9.5,-2.4,17.63,27.39,690.0489,140.0029],
    [15720,1525553885,57.3016,-111.6985,721.3,439.4,266.4,9.8,-1.1,17.8,26.41,689.7424,139.9888],
    [15721,1525553886,57.3016,-111.6993,727.9,445.0,265.3,10.2,-0.6,17.97,26.31,689.6327,139.9919],
    [15722,1525553887,57.3015,-111.7001,734.7,450.2,266.2,9.8,-1.6,17.03,26.91,689.6188,139.9906],
    [15723,1525553888,57.3015,-111.7008,739.7,454.7,266.3,10.3,-1.4,17.4,27.55,689.784,140.0046],
    [15724,1525553889,57.3014,-111.7016,743.0,456.8,266.0,9.8,-0.9,17.28,26.97,689.7581,140.0025],
    [15725,1525553890,57.3014,-111.7024,745.3,458.0,265.9,8.6,-0.2,17.06,27.23,689.638,139.9999],
    [15726,1525553891,57.3013,-111.7032,747.8,459.8,266.2,8.7,0.1,17.64,26.79,689.5313,139.9983],
    [15727,1525553892,57.3013,-111.704,748.5,460.2,267.5,9.6,-0.3,17.08,27.26,689.7081,139.989],
    [15728,1525553893,57.3013,-111.7048,747.5,458.5,269.1,10.0,-1.3,16.93,27.31,689.7311,140.0082],
    [15729,1525553894,57.3013,-111.7056,747.0,458.0,270.1,7.4,-2.1,16.78,27.57,689.6985,139.9974],
    [15730,1525553895,57.3013,-111.7064,748.1,459.1,270.0,5.2,-2.0,16.86,27.3,689.5573,139.984],
    [15731,1525553896,57.3012,-111.7072,748.8,458.8,267.8,5.7,0.0,17.17,27.81,689.2688,139.9968],
    [15732,1525553897,57.3012,-111.708,747.8,457.8,267.9,7.0,-0.2,16.9,27.67,689.0186,139.995],
    [15733,1525553898,57.3012,-111.7089,746.8,456.8,268.6,7.3,-0.6,16.8,27.56,688.7256,140.0011],
    [15734,1525553899,57.3012,-111.7097,746.7,456.7,268.6,7.9,-0.7,16.61,27.77,688.5591,140.0012],
    [15735,1525553900,57.3012,-111.7106,748.2,458.2,269.5,9.3,-1.8,17.4,26.93,688.4495,139.9988],
    [15736,1525553901,57.3011,-111.7114,749.9,459.9,269.8,10.1,-2.3,17.44,26.99,688.1733,139.9904],
    [15737,1525553902,57.3011,-111.7123,753.8,463.8,269.0,10.1,-2.0,17.26,27.5,688.0377,139.9994],
    [15738,1525553903,57.3011,-111.713,757.4,467.4,268.7,9.5,-2.1,16.66,27.87,687.8884,139.9965],
    [15739,1525553904,57.301,-111.7139,760.3,470.3,268.1,8.9,-1.8,16.84,27.7,687.8675,140.0016],
    [15740,1525553905,57.301,-111.7148,762.5,472.0,268.6,8.7,-2.3,16.8,27.65,687.7431,139.9976],
    [15741,1525553906,57.301,-111.7155,764.5,473.5,269.7,8.5,-3.4,17.15,27.23,687.5479,139.9975],
    [15742,1525553907,57.301,-111.7164,766.5,475.5,270.4,8.1,-4.0,17.03,27.93,687.4125,140.0011],
    [15743,1525553908,57.3009,-111.7173,767.9,476.9,269.3,7.9,-3.1,16.59,27.81,687.0725,139.9855],
    [15744,1525553909,57.3009,-111.7182,769.4,478.4,268.3,7.7,-2.3,16.82,27.77,687.0145,139.9986],
    [15745,1525553910,57.3008,-111.7191,770.6,479.6,268.1,7.8,-2.4,16.49,27.77,687.0057,140.0099],
    [15746,1525553911,57.3008,-111.7199,772.3,480.5,267.9,8.0,-2.8,16.95,27.68,687.1421,139.9864],
    [15747,1525553912,57.3008,-111.7208,774.6,482.6,267.1,8.3,-2.6,16.71,28.01,687.1522,139.9932],
    [15748,1525553913,57.3007,-111.7217,777.3,485.3,268.3,8.3,-3.9,16.7,28.06,687.071,140.0006],
    [15749,1525553914,57.3006,-111.7226,778.5,485.5,267.4,8.1,-2.7,16.66,28.09,687.1975,139.9988],
    [15750,1525553915,57.3006,-111.7234,778.2,485.2,264.7,8.3,0.0,17.23,27.56,687.1951,140.0021],
    [15751,1525553916,57.3005,-111.7244,777.8,483.8,264.8,8.7,-0.6,16.79,28.17,687.1333,140.0003],
    [15752,1525553917,57.3005,-111.7253,777.4,482.4,267.5,9.1,-3.0,17.07,27.78,687.2427,139.9952],
    [15753,1525553918,57.3004,-111.7261,777.5,481.5,266.0,9.4,-1.2,16.69,28.04,687.3527,139.9975],
    [15754,1525553919,57.3004,-111.7271,777.2,480.2,264.9,9.3,-0.4,16.98,27.85,687.3572,139.9999],
    [15755,1525553920,57.3003,-111.728,776.8,478.8,265.2,9.0,-0.5,16.95,27.32,687.4589,139.9985],
    [15756,1525553921,57.3003,-111.7288,777.0,479.0,265.2,9.3,-0.5,16.42,28.03,687.5483,140.0036],
    [15757,1525553922,57.3002,-111.7298,776.1,477.1,266.6,10.5,-1.4,16.29,27.92,687.5664,139.9985],
    [15758,1525553923,57.3002,-111.7307,775.1,475.3,267.7,11.0,-2.2,16.17,27.92,687.6667,140.0066],
    [15759,1525553924,57.3001,-111.7316,774.3,474.2,268.0,10.8,-2.3,16.56,28.03,687.7887,140.0035],
    [15760,1525553925,57.3001,-111.7325,773.5,471.6,268.3,10.6,-2.4,16.26,28.0,687.9629,139.9952],
    [15761,1525553926,57.3001,-111.7335,772.6,470.6,268.8,10.0,-3.1,16.41,28.08,688.0043,140.0003],
    [15762,1525553927,57.3,-111.7344,771.7,469.7,269.2,8.9,-3.4,16.52,28.06,688.0781,139.9987],
    [15763,1525553928,57.3,-111.7353,770.2,467.2,267.9,8.4,-1.9,16.34,27.88,688.0959,139.9863],
    [15764,1525553929,57.2999,-111.7363,768.7,465.7,267.1,8.4,-1.3,16.54,28.27,688.0575,140.0019],
    [15765,1525553930,57.2999,-111.7372,767.4,464.4,268.2,8.6,-2.5,16.65,28.27,688.0816,139.9945],
    [15766,1525553931,57.2999,-111.7381,766.5,463.5,269.1,8.7,-2.9,16.69,28.33,688.0633,139.9915],
    [15767,1525553932,57.2998,-111.7391,765.4,462.4,270.3,8.6,-3.4,16.62,27.92,687.9525,139.993],
    [15768,1525553933,57.2998,-111.7401,764.9,462.9,270.9,9.3,-3.3,16.45,28.23,687.9332,139.9994],
    [15769,1525553934,57.2998,-111.7411,764.7,462.7,270.0,9.4,-1.4,16.18,27.82,687.9777,140.0001],
    [15770,1525553935,57.2998,-111.7419,765.0,463.0,270.4,9.1,-1.3,16.58,27.93,687.9724,139.997],
    [15771,1525553936,57.2998,-111.743,765.3,464.3,272.1,10.4,-2.5,16.29,28.12,688.0337,139.9967],
    [15772,1525553937,57.2998,-111.744,766.2,465.2,273.0,10.8,-2.9,16.15,27.97,688.0795,139.9901],
    [15773,1525553938,57.2998,-111.745,766.7,465.6,273.6,10.6,-3.2,16.47,27.55,688.0712,140.001],
    [15774,1525553939,57.2998,-111.746,766.5,465.5,274.0,10.2,-3.4,16.52,28.68,687.9838,139.9983],
    [15775,1525553940,57.2998,-111.747,766.1,465.1,273.8,10.0,-3.0,16.45,27.84,687.8433,140.0063],
    [15776,1525553941,57.2998,-111.748,765.4,464.4,273.3,10.6,-2.6,15.85,27.95,687.7922,140.005],
    [15777,1525553942,57.2998,-111.749,764.7,463.7,273.5,11.2,-2.8,16.36,27.76,687.6838,140.0051],
    [15778,1525553943,57.2999,-111.75,764.4,463.4,272.7,11.2,-2.1,16.45,28.14,687.6052,140.0015],
    [15779,1525553944,57.2999,-111.751,765.1,464.1,273.0,10.6,-2.7,16.49,27.74,687.258,139.9995],
    [15780,1525553945,57.2999,-111.752,766.5,465.5,272.6,9.7,-2.6,16.36,27.76,687.1206,140.0013],
    [15781,1525553946,57.2999,-111.753,767.9,466.9,270.9,9.4,-1.0,16.3,27.93,686.8622,139.991],
    [15782,1525553947,57.2999,-111.754,769.0,467.0,269.9,9.4,-0.4,16.98,27.75,686.3163,139.9971],
    [15783,1525553948,57.2999,-111.7551,770.3,468.3,270.3,9.1,-1.1,16.1,27.82,686.058,139.9914],
    [15784,1525553949,57.2999,-111.7561,772.2,470.2,270.4,9.3,-1.4,16.87,27.02,685.8194,140.0068],
    [15785,1525553950,57.2999,-111.7571,775.5,473.5,270.7,8.7,-2.0,16.58,27.54,685.708,139.9737],
    [15786,1525553951,57.2999,-111.7581,779.1,477.1,270.7,8.2,-1.6,16.38,28.0,685.8028,140.0198],
    [15787,1525553952,57.2998,-111.7592,783.4,481.4,266.8,8.5,2.0,16.05,28.13,686.0243,139.9883],
    [15788,1525553953,57.2998,-111.7602,787.5,485.5,266.5,8.6,2.0,16.6,27.59,686.2663,140.0027],
    [15789,1525553954,57.2998,-111.7612,790.6,488.6,265.2,8.5,3.8,16.35,28.51,686.2118,140.0017],
    [15790,1525553955,57.2998,-111.7622,792.1,490.1,266.2,8.3,2.6,16.76,27.31,686.1668,139.9997],
    [15791,1525553956,57.2998,-111.7632,792.0,489.0,267.0,7.7,2.3,16.32,27.83,686.3021,140.0006],
    [15792,1525553957,57.2998,-111.7643,789.7,485.7,267.2,7.4,2.1,16.33,27.87,686.5492,139.9966],
    [15793,1525553958,57.2997,-111.7653,787.8,482.8,268.6,8.0,1.1,17.18,27.6,686.7719,139.9987],
    [15794,1525553959,57.2997,-111.7663,787.6,481.6,267.8,8.2,2.3,16.58,27.91,687.0056,140.0071],
    [15795,1525553960,57.2997,-111.7673,788.3,482.3,268.6,7.8,1.8,15.79,27.94,687.124,139.9971],
    [15796,1525553961,57.2997,-111.7682,787.4,481.6,268.6,7.9,2.3,16.38,28.05,687.1295,139.9961],
    [15797,1525553962,57.2998,-111.7693,785.1,480.1,269.6,8.1,1.1,16.43,27.91,687.2135,139.9942],
    [15798,1525553963,57.2998,-111.7704,781.9,476.9,271.5,8.5,-0.4,16.56,28.06,687.427,140.0009],
    [15799,1525553964,57.2998,-111.7714,778.5,474.5,271.4,8.2,0.5,16.51,28.22,687.544,140.0036],
    [15800,1525553965,57.2998,-111.7725,776.7,472.7,271.0,7.5,0.9,16.51,28.03,687.5356,140.0143],
    [15801,1525553966,57.2998,-111.7735,775.9,471.9,271.7,8.1,0.2,16.54,28.19,687.9949,140.0154],
    [15802,1525553967,57.2998,-111.7746,775.1,471.1,271.2,9.0,1.1,16.21,28.0,688.0389,139.9918],
    [15803,1525553968,57.2999,-111.7756,773.3,468.3,271.7,8.9,0.6,16.42,28.44,688.1197,139.9946],
    [15804,1525553969,57.2999,-111.7766,772.0,467.0,272.8,8.1,-0.2,16.26,28.53,688.2012,139.9973],
    [15805,1525553970,57.2999,-111.7776,770.9,465.5,271.6,7.5,1.1,16.96,27.59,688.1712,140.0119],
    [15806,1525553971,57.2999,-111.7787,768.5,462.5,272.0,5.9,0.0,16.43,28.67,688.1729,140.0061],
    [15807,1525553972,57.3,-111.7798,766.1,460.3,273.7,5.0,-3.1,16.44,28.08,688.1471,139.9972],
    [15808,1525553973,57.3,-111.7807,765.1,458.4,272.9,6.0,-3.0,16.5,27.94,688.0792,139.9947],
    [15809,1525553974,57.3,-111.7818,763.9,457.0,272.2,6.5,-2.9,16.31,28.01,687.9639,140.0008],
    [15810,1525553975,57.3,-111.7829,763.5,455.5,270.6,6.3,-1.3,16.44,28.61,687.7941,139.9936],
    [15811,1525553976,57.3,-111.7839,764.0,455.0,270.3,6.0,-1.6,16.12,27.88,687.7268,140.0009],
    [15812,1525553977,57.2999,-111.7849,764.7,454.7,270.6,6.1,-2.4,16.27,28.01,687.7132,139.9941],
    [15813,1525553978,57.2999,-111.786,765.4,454.4,271.3,6.1,-3.7,16.45,27.85,687.6134,139.9969],
    [15814,1525553979,57.2999,-111.787,766.5,455.5,271.2,6.2,-3.5,16.77,27.46,687.5206,140.0018],
    [15815,1525553980,57.2999,-111.788,767.8,455.7,271.0,6.2,-3.2,16.49,28.32,687.5403,139.9962],
    [15816,1525553981,57.2999,-111.7891,769.0,458.0,271.2,6.4,-3.0,16.44,27.97,687.5809,140.0027],
    [15817,1525553982,57.2999,-111.7901,769.5,458.5,271.7,7.4,-3.5,16.49,27.86,687.5697,139.9977],
    [15818,1525553983,57.2999,-111.7911,770.2,459.2,272.3,7.6,-4.0,16.2,28.0,687.5095,139.9984],
    [15819,1525553984,57.2998,-111.7922,771.4,460.4,271.9,7.3,-3.4,16.41,28.0,687.5183,140.0012],
    [15820,1525553985,57.2998,-111.7932,771.7,460.7,271.7,7.6,-3.2,16.39,28.46,687.5326,139.9949],
    [15821,1525553986,57.2998,-111.7942,771.1,459.1,272.0,7.9,-3.3,16.14,28.01,687.509,139.9958],
    [15822,1525553987,57.2998,-111.7952,771.1,459.1,271.5,7.6,-2.2,16.52,27.64,687.595,139.9945],
    [15823,1525553988,57.2998,-111.7963,771.4,459.4,272.5,7.1,-2.8,16.4,28.73,687.6555,140.0034],
    [15824,1525553989,57.2998,-111.7973,771.6,459.1,274.3,6.9,-4.1,16.47,27.62,687.6289,139.9933],
    [15825,1525553990,57.2998,-111.7983,771.6,458.6,273.9,7.1,-2.7,16.85,27.54,687.6497,140.0066],
    [15826,1525553991,57.2999,-111.7993,771.4,458.4,273.7,7.2,-2.2,15.99,28.27,687.5221,140.0003],
    [15827,1525553992,57.2999,-111.8003,770.8,456.7,274.9,7.0,-3.2,16.67,28.06,687.4076,139.9997],
    [15828,1525553993,57.2999,-111.8014,770.1,456.1,274.5,6.7,-2.7,15.87,28.42,687.3523,139.9967],
    [15829,1525553994,57.2999,-111.8024,769.5,455.5,275.0,6.6,-3.3,16.44,28.16,687.2909,139.9963],
    [15830,1525553995,57.3,-111.8035,769.6,454.6,274.6,7.1,-2.6,16.94,27.97,687.0967,139.9976],
    [15831,1525553996,57.3,-111.8046,770.8,455.8,274.5,7.1,-2.6,16.4,28.55,686.852,140.0054],
    [15832,1525553997,57.3,-111.8056,772.1,456.3,274.8,6.7,-3.2,16.64,27.98,686.749,139.9917],
    [15833,1525553998,57.3,-111.8067,773.0,457.0,274.8,6.9,-3.6,16.85,27.85,686.4751,139.9991],
    [15834,1525553999,57.3,-111.8077,773.7,457.7,274.0,7.2,-3.2,16.45,28.29,686.2822,139.9982],
    [15835,1525554000,57.3001,-111.8088,775.7,460.7,272.0,6.8,-1.2,15.73,28.29,686.2733,140.0026],
    [15836,1525554001,57.3001,-111.8098,778.2,463.5,268.6,6.7,2.3,16.16,28.12,685.8979,139.9899],
    [15837,1525554002,57.3001,-111.8108,780.5,466.5,268.6,7.0,1.6,16.37,28.52,685.8489,139.9857],
    [15838,1525554003,57.3001,-111.812,783.0,469.0,269.5,7.5,0.1,16.47,28.26,685.8471,140.0041],
    [15839,1525554004,57.3001,-111.813,785.2,471.2,271.4,6.4,-2.4,16.38,28.81,685.7137,140.0073],
    [15840,1525554005,57.3001,-111.814,786.8,471.8,272.6,5.4,-3.1,16.42,28.8,685.8144,140.0031],
    [15841,1525554006,57.3001,-111.8151,789.6,474.5,271.5,5.7,-2.0,17.03,27.97,685.905,140.019],
    [15842,1525554007,57.3001,-111.8162,791.5,475.5,272.7,6.6,-3.8,15.95,28.65,686.0189,139.9948],
    [15843,1525554008,57.3001,-111.8173,792.3,475.3,272.7,6.6,-3.7,16.27,28.26,686.3914,139.9912],
    [15844,1525554009,57.3,-111.8183,793.4,475.4,271.4,5.9,-2.5,16.87,28.0,686.5485,140.0022],
    [15845,1525554010,57.3,-111.8194,793.2,475.2,271.6,4.8,-2.6,16.44,29.11,686.8006,139.9996],
    [15846,1525554011,57.3,-111.8205,791.8,472.8,269.7,3.9,-0.5,16.37,28.16,686.8278,140.006],
    [15847,1525554012,57.3,-111.8216,789.7,470.7,270.0,4.9,-1.5,16.22,28.38,686.8186,139.9975],
    [15848,1525554013,57.3,-111.8227,786.8,466.8,271.5,5.6,-3.2,16.62,28.13,686.8465,140.0079],
    [15849,1525554014,57.3,-111.8237,783.4,463.4,270.5,6.7,-2.3,16.58,28.29,686.6254,139.9952],
    [15850,1525554015,57.3,-111.8248,780.8,460.8,271.7,6.6,-3.9,16.12,28.58,686.5334,139.9876],
    [15851,1525554016,57.3,-111.8259,779.5,459.5,270.5,6.5,-2.7,16.82,28.09,686.3571,140.0035],
    [15852,1525554017,57.2999,-111.827,779.2,459.2,271.5,5.8,-4.2,15.91,28.43,686.1278,139.9974],
    [15853,1525554018,57.2999,-111.8281,779.6,459.6,272.3,4.6,-5.0,16.39,28.72,685.8251,139.9839],
    [15854,1525554019,57.2999,-111.8292,780.5,460.5,271.9,5.0,-4.5,16.37,28.4,685.6349,139.9933],
    [15855,1525554020,57.2999,-111.8303,782.2,462.2,272.4,5.6,-4.8,16.68,28.55,685.3647,139.9936],
    [15856,1525554021,57.2999,-111.8314,784.4,463.4,272.8,5.1,-4.1,16.38,29.16,685.2528,140.0022],
    [15857,1525554022,57.2999,-111.8324,787.3,466.3,273.1,4.5,-3.6,16.65,28.5,684.9598,139.9953],
    [15858,1525554023,57.2999,-111.8335,790.4,469.4,274.9,5.2,-5.0,16.42,29.11,685.0043,140.0002],
    [15859,1525554024,57.2999,-111.8347,793.5,472.5,275.8,5.9,-5.0,16.54,28.43,684.7867,140.0028],
    [15860,1525554025,57.2999,-111.8358,796.0,475.0,276.4,5.6,-5.1,16.34,28.71,684.6387,139.9944],
    [15861,1525554026,57.3,-111.8368,798.1,477.1,277.9,3.9,-6.1,15.93,28.6,684.4903,139.9848],
    [15862,1525554027,57.3,-111.838,800.4,479.4,275.7,3.4,-3.3,16.15,28.83,684.1778,140.0007],
    [15863,1525554028,57.3,-111.8391,802.0,481.0,274.4,4.8,-2.0,16.33,28.69,684.0125,140.0025],
    [15864,1525554029,57.3001,-111.8402,803.3,481.4,274.1,5.1,-1.1,16.66,28.64,683.8105,139.9943],
    [15865,1525554030,57.3001,-111.8413,805.3,483.3,273.4,6.7,-0.2,16.45,28.77,683.7653,139.9989],
    [15866,1525554031,57.3001,-111.8424,807.8,485.8,275.3,7.7,-2.0,16.23,28.38,683.6891,139.9972],
    [15867,1525554032,57.3002,-111.8434,810.4,487.4,274.6,7.8,-1.5,16.44,28.48,683.7834,139.9881],
    [15868,1525554033,57.3002,-111.8445,813.2,490.2,275.1,7.9,-2.1,17.0,28.11,683.8413,139.9966],
    [15869,1525554034,57.3002,-111.8454,815.0,491.0,274.4,8.4,-1.6,16.61,28.29,683.9463,140.0112],
    [15870,1525554035,57.3003,-111.8466,817.0,493.0,275.1,8.0,-2.3,16.15,28.44,683.9855,140.0053],
    [15871,1525554036,57.3003,-111.8478,817.6,492.6,275.1,8.2,-2.5,16.0,28.78,684.2623,140.005],
    [15872,1525554037,57.3004,-111.8488,817.2,492.2,274.6,9.0,-2.6,16.3,28.4,684.4599,140.0014],
    [15873,1525554038,57.3004,-111.85,816.0,490.0,273.6,8.9,-2.4,16.31,28.33,684.9014,140.0009],
    [15874,1525554039,57.3004,-111.851,815.4,488.4,272.7,8.4,-2.0,15.94,28.17,685.148,140.0074],
    [15875,1525554040,57.3004,-111.8521,814.5,486.5,272.3,8.0,-2.4,15.74,28.17,685.3237,140.0063],
    [15876,1525554041,57.3004,-111.8531,812.8,483.8,271.8,7.4,-2.6,16.03,28.31,685.4802,140.0047],
    [15877,1525554042,57.3004,-111.8542,809.4,480.4,269.8,7.8,-1.8,16.28,28.15,685.5611,139.9989],
    [15878,1525554043,57.3004,-111.8552,805.4,475.4,269.6,7.8,-3.2,16.25,28.58,685.5672,139.9873],
    [15879,1525554044,57.3003,-111.8563,801.7,471.7,267.9,7.3,-3.1,16.37,28.13,685.5045,140.0],
    [15880,1525554045,57.3003,-111.8574,798.8,468.8,266.8,7.1,-3.1,16.8,27.87,685.4285,139.9984],
    [15881,1525554046,57.3002,-111.8585,796.7,465.7,266.4,7.4,-2.9,16.28,28.47,685.4189,139.9983],
    [15882,1525554047,57.3001,-111.8595,795.3,464.3,267.2,8.3,-2.9,16.27,28.22,685.3527,139.9974],
    [15883,1525554048,57.3001,-111.8605,794.8,463.8,269.4,8.9,-3.9,16.38,28.17,685.0694,139.999],
    [15884,1525554049,57.3001,-111.8616,795.2,464.2,271.7,8.8,-4.6,16.17,28.13,684.9139,140.0037],
    [15885,1525554050,57.3,-111.8626,795.8,464.8,273.3,9.0,-5.0,15.96,28.11,684.8106,139.9955],
    [15886,1525554051,57.3,-111.8637,796.4,464.4,273.7,9.4,-4.5,16.83,27.85,684.7554,140.0092],
    [15887,1525554052,57.3,-111.8647,797.6,465.6,274.1,10.0,-4.3,15.74,28.03,684.6982,139.9945],
    [15888,1525554053,57.3001,-111.8657,799.5,466.5,274.2,10.5,-3.7,16.07,28.16,684.7052,140.0018],
    [15889,1525554054,57.3001,-111.8668,801.6,467.7,273.5,11.0,-2.8,16.5,27.61,684.7748,139.9995],
    [15890,1525554055,57.3001,-111.8677,803.3,469.3,274.6,10.9,-3.3,16.11,28.68,684.6994,140.0013],
    [15891,1525554056,57.3001,-111.8688,804.7,469.7,273.1,10.3,-0.8,16.43,27.97,684.7689,139.9952],
    [15892,1525554057,57.3001,-111.8698,805.2,469.2,272.9,9.9,-0.9,16.01,28.19,684.7341,140.0051],
    [15893,1525554058,57.3002,-111.8708,805.7,469.7,273.8,9.3,-2.4,16.23,28.14,684.447,139.9928],
    [15894,1525554059,57.3002,-111.8718,805.2,469.2,274.5,9.5,-3.3,16.17,27.93,684.4248,139.9919],
    [15895,1525554060,57.3002,-111.8728,805.0,469.0,273.7,10.1,-2.2,16.04,28.13,684.4426,140.0084],
    [15896,1525554061,57.3002,-111.8738,804.9,469.9,273.4,10.6,-2.1,16.27,28.45,684.5393,140.0051],
    [15897,1525554062,57.3002,-111.8748,805.5,470.5,272.8,10.9,-1.8,16.51,27.91,684.5515,140.0071],
    [15898,1525554063,57.3003,-111.8758,806.9,471.9,272.5,11.4,-2.0,16.12,28.31,684.5685,139.9874],
    [15899,1525554064,57.3003,-111.8768,808.1,473.1,274.1,11.3,-4.0,16.91,27.53,684.6663,139.9949],
    [15900,1525554065,57.3003,-111.8778,808.4,472.4,274.1,10.5,-3.6,16.0,28.13,684.8439,139.9928],
    [15901,1525554066,57.3003,-111.8788,807.5,470.5,274.1,9.6,-3.9,16.1,28.29,685.0683,139.9984],
    [15902,1525554067,57.3003,-111.8798,806.9,469.9,273.7,9.2,-3.7,16.21,28.43,685.2421,140.0103],
    [15903,1525554068,57.3003,-111.8808,806.8,469.8,273.4,10.1,-3.6,16.13,28.28,685.3537,140.0034],
    [15904,1525554069,57.3003,-111.8818,805.3,468.3,272.1,11.8,-2.2,16.15,28.91,685.3036,140.0021],
    [15905,1525554070,57.3003,-111.8827,803.3,465.2,271.8,11.9,-2.5,16.8,28.05,685.297,140.0059],
    [15906,1525554071,57.3003,-111.8837,801.4,463.4,272.2,11.1,-3.3,16.2,28.49,685.4487,139.9987],
    [15907,1525554072,57.3003,-111.8848,799.3,460.3,271.9,10.9,-3.3,15.82,28.16,685.5465,140.0115],
    [15908,1525554073,57.3003,-111.8858,797.4,458.4,271.7,10.7,-3.2,16.35,27.87,685.7577,139.9944],
    [15909,1525554074,57.3003,-111.8866,797.4,458.1,270.7,11.1,-2.3,15.82,28.56,686.1248,140.0033],
    [15910,1525554075,57.3003,-111.8877,797.6,457.5,269.1,11.9,-0.9,16.09,28.22,686.4633,140.0011],
    [15911,1525554076,57.3002,-111.8888,796.7,457.4,268.8,12.2,-1.2,16.16,28.22,686.644,140.0027],
    [15912,1525554077,57.3002,-111.8898,795.2,456.2,267.5,11.5,-0.6,16.1,28.15,686.9767,140.0053],
    [15913,1525554078,57.3002,-111.8908,792.5,453.5,268.5,11.2,-2.2,16.17,28.49,687.4964,139.9984],
    [15914,1525554079,57.3001,-111.8918,789.5,448.8,268.3,11.2,-2.1,16.04,28.23,687.9249,140.0122],
    [15915,1525554080,57.3001,-111.8928,785.8,443.8,268.6,10.6,-2.7,16.0,28.12,688.2456,140.0141],
    [15916,1525554081,57.3001,-111.8938,782.0,440.0,268.9,9.8,-3.1,16.44,28.05,688.4392,139.9997],
    [15917,1525554082,57.3,-111.8947,779.3,436.3,268.7,9.0,-2.8,16.69,27.87,688.3614,140.0011],
    [15918,1525554083,57.3,-111.8958,774.7,431.7,269.4,8.9,-3.3,16.24,28.87,688.7192,139.9937],
    [15919,1525554084,57.2999,-111.8969,768.9,424.9,270.0,8.5,-3.5,15.99,28.78,689.237,140.0028],
    [15920,1525554085,57.2999,-111.898,764.0,420.0,269.7,8.1,-2.4,15.68,28.38,689.4645,140.0101],
    [15921,1525554086,57.2999,-111.8989,761.0,417.0,271.3,8.0,-3.0,16.0,28.95,689.7418,140.0074],
    [15922,1525554087,57.2999,-111.9,760.2,416.2,271.9,8.0,-2.4,16.46,28.25,689.9116,139.9984],
    [15923,1525554088,57.2999,-111.901,757.9,413.9,273.0,7.7,-3.5,16.19,28.99,689.8103,139.9963],
    [15924,1525554089,57.2999,-111.9021,753.5,409.2,272.8,7.1,-3.4,16.1,28.64,689.8723,139.9998],
    [15925,1525554090,57.2999,-111.9031,749.1,403.8,271.2,6.5,-2.3,16.32,28.2,689.9796,140.0122],
    [15926,1525554091,57.2999,-111.9042,745.0,399.0,270.8,6.0,-2.3,16.32,28.87,689.8478,139.9982],
    [15927,1525554092,57.2999,-111.9052,742.6,396.6,271.1,6.6,-2.4,16.46,28.39,689.6936,139.998],
    [15928,1525554093,57.2999,-111.9062,742.7,397.7,270.6,6.8,-1.7,15.91,28.31,689.4177,139.9995],
    [15929,1525554094,57.2999,-111.9072,742.8,397.8,271.5,7.0,-2.5,16.68,28.16,689.3182,139.997],
    [15930,1525554095,57.2998,-111.9083,742.0,397.0,271.0,7.0,-1.9,16.26,28.1,689.1618,140.0021],
    [15931,1525554096,57.2998,-111.9093,742.7,397.7,270.8,7.0,-1.6,15.61,28.38,688.8076,139.9986],
    [15932,1525554097,57.2998,-111.9103,744.8,398.8,271.9,6.7,-2.4,16.86,27.86,688.6351,139.9937],
    [15933,1525554098,57.2998,-111.9114,747.1,401.1,271.4,6.0,-1.3,15.66,28.46,688.3229,139.9954],
    [15934,1525554099,57.2998,-111.9124,749.0,403.0,270.9,6.1,-0.5,16.08,28.94,688.2001,140.0008],
    [15935,1525554100,57.2998,-111.9134,751.4,405.4,269.4,7.0,1.3,16.47,27.85,688.0902,140.0056],
    [15936,1525554101,57.2998,-111.9144,754.5,408.5,268.6,7.6,1.9,16.51,28.02,687.8981,140.0038],
    [15937,1525554102,57.2998,-111.9153,757.5,410.5,269.0,7.8,1.2,16.42,28.23,687.6085,139.9924],
    [15938,1525554103,57.2998,-111.9163,760.5,413.5,268.9,7.7,1.1,16.3,28.42,687.414,139.9964],
    [15939,1525554104,57.2998,-111.9173,762.7,414.7,269.3,7.5,0.1,16.23,28.21,687.3622,139.9946],
    [15940,1525554105,57.2998,-111.9182,765.0,416.0,269.8,6.8,-0.4,16.33,28.39,687.0407,140.0095],
    [15941,1525554106,57.2998,-111.9192,767.1,417.4,269.6,6.2,-0.1,16.4,28.35,686.9201,139.9924],
    [15942,1525554107,57.2998,-111.9202,770.2,420.2,270.2,6.1,-0.4,16.19,28.54,686.6902,139.9957],
    [15943,1525554108,57.2998,-111.9211,773.0,422.3,269.6,6.8,0.2,16.2,28.46,686.4457,140.0079],
    [15944,1525554109,57.2998,-111.9221,774.9,423.9,270.6,7.0,-0.9,16.47,28.11,686.3713,139.9948],
    [15945,1525554110,57.2998,-111.923,777.3,426.3,271.0,7.2,-1.2,16.45,28.51,686.2371,139.9979],
    [15946,1525554111,57.2998,-111.924,780.1,428.3,272.5,8.5,-3.4,16.11,28.35,685.7973,140.0049],
    [15947,1525554112,57.2998,-111.925,782.7,430.7,274.8,8.3,-5.0,16.74,27.82,685.6471,140.0023],
    [15948,1525554113,57.2998,-111.9259,784.8,432.8,273.0,8.5,-2.5,16.76,28.61,685.2913,139.9942],
    [15949,1525554114,57.2998,-111.9268,786.9,434.1,274.3,8.1,-3.7,16.45,28.21,685.2098,139.9955],
    [15950,1525554115,57.2998,-111.9278,790.2,437.3,274.5,7.3,-3.8,16.41,28.69,685.1315,139.9966],
    [15951,1525554116,57.2999,-111.9287,793.3,440.0,272.8,7.0,-2.5,16.26,28.31,685.0799,140.0064],
    [15952,1525554117,57.2999,-111.9296,796.2,441.9,272.4,6.8,-2.8,16.25,28.52,685.065,139.9918],
    [15953,1525554118,57.2999,-111.9305,798.9,443.9,272.6,7.1,-2.9,16.42,28.25,685.1285,140.0022],
    [15954,1525554119,57.2999,-111.9315,801.3,445.2,272.9,7.7,-3.3,16.54,28.68,685.0108,139.9964],
    [15955,1525554120,57.2999,-111.9323,802.3,446.0,273.5,7.7,-3.4,16.2,28.81,684.9437,140.0015],
    [15956,1525554121,57.2999,-111.9333,802.8,445.9,272.4,7.8,-1.8,16.14,28.45,684.8838,139.9944],
    [15957,1525554122,57.2999,-111.9342,802.9,444.9,274.2,8.2,-2.2,16.11,28.57,684.7743,139.9993],
    [15958,1525554123,57.2999,-111.9351,802.9,443.9,276.7,8.0,-2.7,16.39,27.95,684.5529,139.993],
    [15959,1525554124,57.3,-111.936,803.2,443.5,278.9,7.9,-2.4,15.83,28.85,684.5076,139.9997],
    [15960,1525554125,57.3,-111.9369,804.0,443.0,280.9,8.3,-2.5,16.32,29.18,684.3758,139.9958],
    [15961,1525554126,57.3001,-111.9378,804.8,442.8,283.9,8.6,-3.3,16.08,28.69,684.2397,139.9985],
    [15962,1525554127,57.3003,-111.9387,805.8,443.8,286.5,9.0,-3.4,16.69,28.48,684.3323,139.9978],
    [15963,1525554128,57.3004,-111.9396,807.6,444.6,289.7,8.7,-3.4,16.24,28.74,684.4892,139.9998],
    [15964,1525554129,57.3006,-111.9404,809.5,446.5,291.8,8.2,-2.6,16.23,28.56,684.7153,140.0015],
    [15965,1525554130,57.3008,-111.9412,811.0,448.0,293.7,8.1,-2.3,15.93,28.58,684.6974,139.9888],
    [15966,1525554131,57.301,-111.9421,812.1,449.1,296.1,8.1,-2.2,16.07,28.47,684.7583,139.9985],
    [15967,1525554132,57.3012,-111.9428,812.1,448.1,297.5,8.5,-1.9,16.28,29.04,684.7679,139.9975],
    [15968,1525554133,57.3015,-111.9437,810.3,446.3,299.4,8.1,-1.6,16.14,28.66,684.8581,139.9993],
    [15969,1525554134,57.3018,-111.9445,807.8,443.8,301.5,8.0,-1.8,16.18,28.66,684.8892,139.9982],
    [15970,1525554135,57.3021,-111.9452,806.7,441.7,303.5,8.6,-2.4,16.59,28.41,684.911,140.0043],
    [15971,1525554136,57.3023,-111.9458,806.5,440.9,304.9,9.2,-2.7,15.92,28.64,684.8773,140.0051],
    [15972,1525554137,57.3027,-111.9467,806.0,439.1,305.9,9.2,-1.8,15.88,28.59,685.009,139.9971],
    [15973,1525554138,57.303,-111.9474,805.2,437.2,307.2,9.1,-2.3,16.24,28.43,685.0937,140.0014],
    [15974,1525554139,57.3034,-111.9481,804.7,435.7,308.6,8.4,-3.0,16.11,29.01,685.2297,140.0014],
    [15975,1525554140,57.3037,-111.9488,804.6,434.6,308.9,8.0,-2.2,16.24,28.05,685.3448,139.9972],
    [15976,1525554141,57.304,-111.9495,804.4,434.4,307.6,8.3,-0.4,16.28,28.35,685.3588,139.9909],
    [15977,1525554142,57.3044,-111.9502,803.4,432.4,308.3,8.1,-1.0,16.11,28.84,685.0912,139.9995],
    [15978,1525554143,57.3047,-111.9509,801.7,429.7,309.6,7.7,-1.5,16.09,28.97,684.7466,139.9951],
    [15979,1525554144,57.3051,-111.9516,800.4,428.2,310.7,7.8,-1.4,16.05,29.04,684.5048,139.9916],
    [15980,1525554145,57.3055,-111.9523,799.3,426.4,312.9,8.1,-1.8,16.12,28.54,684.1291,139.9974],
    [15981,1525554146,57.3059,-111.9529,798.7,424.7,316.0,8.6,-2.9,16.09,29.5,684.0555,140.0037],
    [15982,1525554147,57.3063,-111.9535,800.1,425.1,318.6,9.2,-3.4,16.57,28.45,683.9899,140.0049],
    [15983,1525554148,57.3067,-111.9541,804.7,429.5,321.9,8.6,-3.6,16.0,29.05,683.7727,140.0072],
    [15984,1525554149,57.3071,-111.9546,809.1,433.1,324.6,7.9,-4.1,16.05,29.1,683.6794,139.9952],
    [15985,1525554150,57.3076,-111.955,812.0,436.0,325.7,9.4,-3.9,16.36,28.42,683.4397,140.0019],
    [15986,1525554151,57.308,-111.9555,814.3,438.3,326.0,10.2,-2.5,15.69,28.77,683.4266,140.0],
    [15987,1525554152,57.3084,-111.9558,815.8,439.8,327.9,9.6,-2.0,16.47,28.69,683.3557,139.9994],
    [15988,1525554153,57.309,-111.9563,817.7,441.7,329.2,10.1,-1.7,16.85,28.29,683.3123,140.0071],
    [15989,1525554154,57.3094,-111.9566,819.5,443.2,330.9,9.6,-1.3,16.16,28.64,683.3138,139.9977],
    [15990,1525554155,57.3099,-111.9569,821.2,444.2,332.7,9.3,-1.1,16.58,28.57,683.2206,139.9961],
    [15991,1525554156,57.3104,-111.9572,822.8,444.7,333.8,9.7,-0.9,15.97,28.72,683.1306,139.99],
    [15992,1525554157,57.3109,-111.9575,824.0,445.3,335.8,9.7,-0.6,15.76,28.73,683.1202,140.0002],
    [15993,1525554158,57.3114,-111.9577,824.6,445.9,337.4,9.9,-0.5,16.35,28.22,683.1104,140.0006],
    [15994,1525554159,57.3119,-111.958,824.7,445.0,340.5,9.1,-0.6,16.01,28.76,683.0723,139.9998],
    [15995,1525554160,57.3124,-111.9581,825.5,445.2,342.2,9.5,-0.4,15.9,28.81,683.0057,140.0006],
    [15996,1525554161,57.3129,-111.9583,826.5,445.5,343.3,10.1,-0.9,16.37,29.02,682.8116,139.9938],
    [15997,1525554162,57.3134,-111.9584,827.1,445.1,345.1,9.8,-0.9,15.99,29.68,682.6275,140.0018],
    [15998,1525554163,57.3139,-111.9584,827.2,444.4,347.2,9.4,-1.0,16.04,29.31,682.6076,139.992],
    [15999,1525554164,57.3145,-111.9585,827.7,444.7,349.4,9.1,-1.6,15.57,28.84,682.6114,139.9955],
    [16000,1525554165,57.315,-111.9585,829.0,446.0,350.4,9.3,-1.8,15.86,28.69,682.5895,140.0021],
    [16001,1525554166,57.3155,-111.9585,830.6,447.6,351.9,8.4,-2.1,15.98,28.89,682.5915,140.0014],
    [16002,1525554167,57.3161,-111.9585,832.2,449.2,352.4,8.5,-1.8,15.44,29.07,682.6527,139.9998],
    [16003,1525554168,57.3166,-111.9585,833.1,450.1,351.8,9.1,-1.9,15.54,29.04,682.6559,140.0021],
    [16004,1525554169,57.3171,-111.9585,833.3,450.4,353.3,7.9,-2.5,15.68,29.08,682.7794,140.0027],
    [16005,1525554170,57.3177,-111.9585,833.2,450.4,353.4,8.1,-2.8,16.26,29.35,682.816,140.0032],
    [16006,1525554171,57.3182,-111.9585,833.4,449.6,353.3,8.1,-3.1,15.4,29.19,682.9077,140.0032],
    [16007,1525554172,57.3187,-111.9585,833.2,449.2,353.9,7.6,-2.9,15.72,29.22,682.9309,140.0046],
    [16008,1525554173,57.3192,-111.9585,832.6,448.6,352.8,8.4,-2.8,15.42,29.37,683.0138,140.0029],
    [16009,1525554174,57.3198,-111.9585,832.0,447.8,352.9,7.9,-2.5,15.25,29.58,683.1518,140.0023],
    [16010,1525554175,57.3203,-111.9584,831.3,446.2,353.4,7.3,-1.6,15.89,29.56,683.2251,140.0032],
    [16011,1525554176,57.3208,-111.9584,830.6,445.6,353.0,7.4,-1.0,15.91,29.22,683.2252,139.9981],
    [16012,1525554177,57.3214,-111.9584,829.8,444.9,351.8,8.1,-0.4,15.61,29.5,683.2631,140.0056],
    [16013,1525554178,57.3219,-111.9585,828.8,442.7,350.6,8.7,0.2,15.6,29.3,683.3167,140.0029],
    [16014,1525554179,57.3224,-111.9585,827.4,441.2,350.7,8.2,-0.7,15.24,29.58,683.7132,140.0036],
    [16015,1525554180,57.3228,-111.9585,826.1,439.1,351.4,7.6,-1.1,15.92,29.82,683.9472,140.0133],
    [16016,1525554181,57.3234,-111.9585,825.3,437.8,350.5,8.1,-0.2,15.93,29.3,684.1418,139.9955],
    [16017,1525554182,57.324,-111.9586,824.3,436.3,349.4,9.8,0.6,16.31,29.02,684.3448,139.9926],
    [16018,1525554183,57.3245,-111.9586,823.8,435.8,347.7,10.8,1.2,15.94,29.15,684.4419,140.0016],
    [16019,1525554184,57.3251,-111.9586,821.7,433.2,351.2,7.3,1.5,15.54,29.63,684.6764,140.0076],
    [16020,1525554185,57.3256,-111.9586,818.4,429.4,351.8,6.8,1.9,16.24,29.2,684.6714,140.01],
    [16021,1525554186,57.3261,-111.9587,815.1,425.1,352.5,6.3,1.5,15.91,29.68,684.511,139.9964],
    [16022,1525554187,57.3267,-111.9587,812.5,422.5,353.3,5.4,1.8,15.2,29.73,684.258,139.9994],
    [16023,1525554188,57.3272,-111.9587,811.0,421.0,351.5,6.7,2.3,15.64,30.46,684.1686,139.9859],
    [16024,1525554189,57.3277,-111.9587,808.9,417.9,349.9,8.0,1.8,16.22,29.04,683.9405,139.9985],
    [16025,1525554190,57.3283,-111.9588,807.3,415.0,349.2,9.1,1.1,15.66,29.9,683.8012,140.0007],
    [16026,1525554191,57.3288,-111.9588,808.5,414.5,348.6,9.7,1.8,15.44,30.06,683.6112,139.9925],
    [16027,1525554192,57.3294,-111.9588,810.9,415.2,349.5,9.3,2.3,16.05,29.12,683.5687,139.9956],
    [16028,1525554193,57.3299,-111.9589,813.4,416.4,352.6,6.9,1.5,15.34,29.9,683.1561,139.9925],
    [16029,1525554194,57.3305,-111.9589,815.9,418.9,356.7,4.7,2.1,15.92,29.62,682.9682,139.998],
    [16030,1525554195,57.331,-111.9588,818.5,420.6,355.6,6.8,1.7,15.64,29.5,682.799,139.996],
    [16031,1525554196,57.3316,-111.9588,820.7,421.8,355.3,7.3,0.1,15.75,30.26,682.6326,140.0018],
    [16032,1525554197,57.3321,-111.9588,822.3,422.3,355.7,6.9,-0.3,15.88,30.23,682.4307,139.9946],
    [16033,1525554198,57.3326,-111.9587,824.7,423.7,353.6,8.5,-0.3,16.09,29.44,682.3394,139.9957],
    [16034,1525554199,57.3332,-111.9587,828.3,426.2,351.5,9.2,-0.9,16.35,29.65,682.4698,140.0058],
    [16035,1525554200,57.3337,-111.9587,830.7,427.7,351.9,8.2,-0.8,15.58,29.89,682.408,140.002],
    [16036,1525554201,57.3343,-111.9587,832.5,428.8,351.4,8.4,-1.4,16.28,29.21,682.5238,140.0086],
    [16037,1525554202,57.3348,-111.9587,834.1,430.1,351.0,8.9,-1.6,15.54,29.67,682.3643,139.9967],
    [16038,1525554203,57.3354,-111.9588,835.4,431.4,350.3,9.4,-1.4,15.63,29.98,682.3832,140.0002],
    [16039,1525554204,57.3359,-111.9588,835.1,431.2,351.4,8.5,-1.2,15.94,29.55,682.2997,139.9963],
    [16040,1525554205,57.3364,-111.9588,834.4,429.4,351.7,8.6,-0.2,16.08,29.04,682.2347,139.9967],
    [16041,1525554206,57.337,-111.9588,834.2,428.2,351.8,8.3,-0.1,15.67,29.77,682.0583,140.0072],
    [16042,1525554207,57.3376,-111.9588,834.8,428.1,351.1,7.9,0.0,16.23,29.04,681.893,139.9885],
    [16043,1525554208,57.3381,-111.9589,835.0,427.7,350.8,7.1,0.4,15.69,30.22,681.9291,139.9974],
    [16044,1525554209,57.3387,-111.9589,835.7,426.7,350.9,6.2,0.7,15.83,29.56,681.895,139.9973],
    [16045,1525554210,57.3392,-111.959,836.8,426.6,351.4,5.2,-0.1,15.81,30.24,681.8007,139.9897],
    [16046,1525554211,57.3398,-111.9591,838.2,426.6,351.6,5.1,-0.2,15.93,29.18,681.5911,140.0006],
    [16047,1525554212,57.3404,-111.9591,839.6,426.6,349.8,6.8,0.1,16.57,29.27,681.381,139.9887],
    [16048,1525554213,57.341,-111.9592,840.2,425.3,350.0,7.0,-1.2,16.15,29.45,681.116,140.0095],
    [16049,1525554214,57.3415,-111.9593,840.3,424.4,349.2,8.2,-2.0,16.02,29.22,680.9385,139.9995],
    [16050,1525554215,57.3421,-111.9594,841.2,425.2,350.1,7.4,-3.2,15.81,29.93,680.7399,140.0005],
    [16051,1525554216,57.3427,-111.9594,842.7,426.7,350.3,7.8,-3.5,15.84,29.25,680.7422,139.9932],
    [16052,1525554217,57.3433,-111.9595,845.4,430.5,350.9,7.9,-4.1,16.09,29.31,680.7719,139.9979],
    [16053,1525554218,57.3439,-111.9595,848.7,433.7,351.7,7.9,-4.6,15.96,29.23,680.842,140.0054],
    [16054,1525554219,57.3445,-111.9596,851.0,439.0,353.2,7.3,-4.3,16.02,29.18,680.8969,140.0058],
    [16055,1525554220,57.3451,-111.9596,852.2,442.1,353.9,7.4,-3.7,16.07,29.16,680.8716,139.9986],
    [16056,1525554221,57.3457,-111.9596,853.1,445.4,355.0,7.1,-3.6,15.78,30.05,680.8601,139.9992],
    [16057,1525554222,57.3463,-111.9595,853.2,447.2,355.6,7.2,-4.0,15.67,29.58,680.88,139.9929],
    [16058,1525554223,57.3468,-111.9595,852.7,447.6,355.1,8.1,-3.4,15.81,29.14,681.1035,140.0104],
    [16059,1525554224,57.3474,-111.9595,852.1,447.8,355.1,7.9,-2.1,15.96,29.03,681.1281,140.0078],
    [16060,1525554225,57.3481,-111.9594,852.1,446.0,355.1,8.5,-1.6,15.87,29.81,681.1361,140.0049],
    [16061,1525554226,57.3487,-111.9594,852.4,444.4,353.5,10.5,-2.5,15.64,29.05,681.1434,140.0028],
    [16062,1525554227,57.3493,-111.9593,851.6,442.7,354.2,9.9,-2.8,15.75,28.71,681.2183,140.0041],
    [16063,1525554228,57.3498,-111.9593,850.1,441.2,354.4,10.4,-2.2,15.61,29.08,681.2387,140.0087],
    [16064,1525554229,57.3504,-111.9592,849.3,440.2,353.6,11.9,-2.0,15.83,29.27,681.2264,140.0036],
    [16065,1525554230,57.351,-111.9592,849.2,442.2,353.9,12.2,-1.9,15.75,29.26,681.3176,140.0018],
    [16066,1525554231,57.3516,-111.9591,849.1,443.2,354.0,12.3,-1.6,15.48,29.28,681.2029,139.9958],
    [16067,1525554232,57.3522,-111.959,848.6,442.6,354.8,11.6,-1.3,15.66,29.16,681.0668,140.0064],
    [16068,1525554233,57.3528,-111.9589,848.6,441.7,354.8,11.6,-0.9,16.06,28.68,680.9826,140.0013],
    [16069,1525554234,57.3534,-111.9588,848.5,440.4,354.5,11.6,-1.1,15.86,28.55,680.9464,140.0012],
    [16070,1525554235,57.354,-111.9587,848.0,441.0,353.8,12.1,-1.9,15.68,28.98,680.936,140.0009],
    [16071,1525554236,57.3546,-111.9586,848.1,442.1,353.1,12.4,-3.0,16.12,29.23,680.9229,139.9979],
    [16072,1525554237,57.3552,-111.9586,850.1,444.1,352.7,12.3,-2.0,15.79,28.93,680.8901,139.9978],
    [16073,1525554238,57.3558,-111.9585,851.9,445.8,352.8,11.9,-1.4,16.16,28.7,680.9366,140.0014],
    [16074,1525554239,57.3563,-111.9584,852.5,445.6,353.1,11.6,-1.5,15.62,29.66,680.9607,140.0024],
    [16075,1525554240,57.3569,-111.9584,852.9,444.9,353.1,11.5,-1.6,15.72,29.63,680.981,140.0027],
    [16076,1525554241,57.3575,-111.9583,853.4,444.4,353.9,10.6,-1.7,16.17,28.57,681.0572,139.9998],
    [16077,1525554242,57.358,-111.9583,853.9,443.9,353.9,10.5,-1.6,15.55,28.94,681.0384,140.0004],
    [16078,1525554243,57.3586,-111.9582,853.6,442.6,353.8,10.4,-1.4,16.23,28.74,681.1496,140.0085],
    [16079,1525554244,57.3591,-111.9581,852.9,441.9,353.2,11.0,-1.0,15.76,29.22,681.2153,140.0077],
    [16080,1525554245,57.3597,-111.9581,852.6,441.6,352.3,11.4,-0.9,15.6,28.81,681.2274,140.0],
    [16081,1525554246,57.3603,-111.958,852.1,441.1,352.3,11.0,-1.1,15.69,29.17,681.2192,140.0028],
    [16082,1525554247,57.3608,-111.958,851.8,439.8,351.4,11.5,-0.8,15.42,29.35,681.1859,140.0028],
    [16083,1525554248,57.3614,-111.958,851.0,439.0,350.9,11.7,-0.4,16.16,28.87,681.2303,140.0082],
    [16084,1525554249,57.3619,-111.958,850.0,438.0,351.0,11.0,-0.4,16.26,28.43,681.2578,140.0024],
    [16085,1525554250,57.3625,-111.9579,849.8,437.8,352.4,9.2,-0.2,15.38,29.25,681.2763,140.0002],
    [16086,1525554251,57.3631,-111.9579,850.1,438.1,351.8,9.5,0.3,15.54,29.13,681.1966,139.9936],
    [16087,1525554252,57.3635,-111.9579,850.5,438.5,350.3,10.6,0.2,15.4,29.25,681.1281,139.9911],
    [16088,1525554253,57.3641,-111.9579,850.1,438.1,349.2,11.1,0.2,15.45,29.15,681.0315,140.0023],
    [16089,1525554254,57.3647,-111.9579,849.7,437.7,349.3,10.7,-0.2,15.07,29.17,680.9617,139.9838],
    [16090,1525554255,57.3652,-111.958,849.6,436.9,349.7,10.2,-0.5,15.34,29.33,680.9332,140.0053],
    [16091,1525554256,57.3658,-111.958,850.1,437.1,350.4,9.1,-0.3,15.39,29.79,680.9338,140.0108],
    [16092,1525554257,57.3663,-111.958,851.0,437.0,351.7,8.0,-1.0,16.15,28.6,681.0189,139.9998],
    [16093,1525554258,57.3669,-111.958,852.1,438.1,350.7,8.8,-1.2,15.75,30.12,681.0067,140.0099],
    [16094,1525554259,57.3674,-111.958,852.6,437.6,350.4,9.1,-1.6,15.77,29.59,681.0789,139.9947],
    [16095,1525554260,57.368,-111.958,852.9,437.9,349.2,10.8,-2.0,15.76,29.19,681.1091,139.9965],
    [16096,1525554261,57.3685,-111.9581,853.0,437.6,347.1,12.5,-1.6,15.78,29.19,681.0101,139.9992],
    [16097,1525554262,57.369,-111.9581,852.7,437.9,348.3,11.4,-1.0,15.93,28.98,681.005,140.0001],
    [16098,1525554263,57.3696,-111.9581,852.2,439.2,348.9,11.3,-0.6,15.79,29.31,680.964,139.9935],
    [16099,1525554264,57.3701,-111.9581,852.0,440.1,350.3,10.3,-0.6,15.02,29.64,680.8119,139.9933],
    [16100,1525554265,57.3706,-111.9581,851.7,439.8,351.5,9.8,-0.8,15.37,29.5,680.9214,139.9986],
    [16101,1525554266,57.3711,-111.9581,851.9,438.6,351.0,10.3,-1.2,16.25,29.05,681.1008,140.0089],
    [16102,1525554267,57.3717,-111.9581,852.4,436.7,352.1,8.9,-1.1,15.15,29.56,681.0657,140.0062],
    [16103,1525554268,57.3722,-111.9581,852.9,436.9,352.9,8.1,-1.4,15.43,29.62,681.072,140.001],
    [16104,1525554269,57.3728,-111.9581,854.2,436.5,350.2,11.2,-2.1,15.77,29.78,681.0434,140.0066],
    [16105,1525554270,57.3733,-111.9581,854.1,436.1,347.7,13.2,-1.7,15.24,29.51,681.0977,140.009],
    [16106,1525554271,57.3738,-111.9581,852.7,434.7,348.8,11.4,-0.8,15.66,29.98,681.0359,139.9986],
    [16107,1525554272,57.3744,-111.9581,851.8,433.8,348.2,11.4,0.2,15.8,29.38,681.0327,139.997],
    [16108,1525554273,57.3749,-111.9581,851.7,433.7,347.2,11.8,1.0,15.94,29.46,681.0171,140.0001],
    [16109,1525554274,57.3754,-111.9581,851.4,433.4,346.6,12.1,1.5,16.25,29.25,680.8432,140.0095],
    [16110,1525554275,57.376,-111.9582,850.8,432.8,347.1,11.4,1.6,15.44,29.59,680.5906,139.9929],
    [16111,1525554276,57.3765,-111.9582,851.0,432.7,348.6,10.6,1.7,15.83,29.78,680.4441,139.993],
    [16112,1525554277,57.377,-111.9582,851.9,433.6,350.4,9.4,1.9,16.05,29.28,680.0683,139.9903],
    [16113,1525554278,57.3776,-111.9582,852.4,434.1,352.8,7.5,2.3,15.4,30.04,680.0265,140.0033],
    [16114,1525554279,57.3781,-111.9582,853.6,435.7,353.5,6.7,3.2,16.11,29.12,680.196,140.0049],
    [16115,1525554280,57.3786,-111.9582,856.3,438.3,353.0,6.5,3.9,15.63,29.61,680.2552,140.0036],
    [16116,1525554281,57.3792,-111.9582,859.3,441.2,352.7,6.2,3.9,16.09,29.25,680.1358,139.9828],
    [16117,1525554282,57.3797,-111.9582,861.9,443.8,350.9,7.8,3.4,15.51,30.39,680.0558,139.9951],
    [16118,1525554283,57.3803,-111.9583,862.9,444.9,347.4,10.5,4.1,15.0,29.81,679.9676,139.9939],
    [16119,1525554284,57.3808,-111.9583,861.9,443.9,345.7,11.1,4.3,15.5,30.34,679.8358,140.0046],
    [16120,1525554285,57.3814,-111.9584,861.1,441.2,345.4,10.8,4.0,15.23,29.72,679.7509,139.9929],
    [16121,1525554286,57.3819,-111.9584,861.4,441.3,345.3,11.6,2.6,15.49,30.19,679.7927,140.0113],
    [16122,1525554287,57.3825,-111.9585,862.8,443.0,345.4,12.1,1.7,15.82,29.68,679.9119,140.0073],
    [16123,1525554288,57.3831,-111.9585,864.0,449.7,348.1,10.4,1.8,15.9,29.41,680.2202,140.0012],
    [16124,1525554289,57.3836,-111.9586,865.5,453.7,348.8,10.8,2.3,15.27,30.0,680.3998,140.0006],
    [16125,1525554290,57.3842,-111.9586,866.4,461.2,350.0,10.6,1.9,15.47,30.03,680.4595,140.0132],
    [16126,1525554291,57.3847,-111.9586,866.0,466.4,350.2,11.9,2.6,15.25,29.87,680.512,139.9924],
    [16127,1525554292,57.3853,-111.9585,864.4,465.5,346.9,15.1,3.5,15.13,29.64,680.3882,139.9883],
    [16128,1525554293,57.3859,-111.9585,862.3,462.3,348.9,12.3,2.1,15.54,29.86,680.2353,139.9988],
    [16129,1525554294,57.3864,-111.9585,860.2,459.0,351.8,9.4,2.2,15.66,30.1,680.154,140.0026],
    [16130,1525554295,57.387,-111.9585,859.0,452.9,349.3,11.5,2.8,16.23,29.36,679.8543,140.0],
    [16131,1525554296,57.3875,-111.9585,858.7,446.3,348.3,11.9,1.3,15.53,30.27,679.6568,139.9959],
    [16132,1525554297,57.388,-111.9585,859.7,444.3,348.8,11.4,0.3,15.56,30.32,679.2382,140.0018],
    [16133,1525554298,57.3886,-111.9585,861.6,441.8,347.9,12.0,0.1,15.64,29.4,678.9257,139.9956],
    [16134,1525554299,57.3891,-111.9585,863.6,439.8,347.5,12.3,0.2,15.51,30.51,678.6225,139.9934],
    [16135,1525554300,57.3897,-111.9586,866.4,439.0,347.1,12.4,0.2,15.2,29.6,678.4578,139.9982],
    [16136,1525554301,57.3902,-111.9586,869.6,440.4,347.8,11.9,-0.4,15.51,29.49,678.4734,140.0022],
    [16137,1525554302,57.3907,-111.9586,873.3,443.3,347.3,12.6,-0.5,15.65,29.92,678.4935,140.0049],
    [16138,1525554303,57.3912,-111.9586,877.3,448.0,347.0,12.9,-0.5,16.15,29.17,678.4693,140.0073],
    [16139,1525554304,57.3917,-111.9586,881.4,452.4,347.4,12.8,-0.3,15.53,29.96,678.4457,139.9989],
    [16140,1525554305,57.3922,-111.9586,883.8,454.8,347.0,13.3,0.0,15.77,29.45,678.4543,140.0003],
    [16141,1525554306,57.3927,-111.9586,884.5,454.6,347.1,13.3,0.2,15.97,28.99,678.4551,139.9997],
    [16142,1525554307,57.3932,-111.9585,884.5,454.5,347.5,12.8,0.6,14.98,29.48,678.4673,140.0085],
    [16143,1525554308,57.3937,-111.9585,884.6,454.6,347.2,12.9,0.7,15.45,29.5,678.442,140.0005],
    [16144,1525554309,57.3942,-111.9585,884.9,454.9,347.0,12.6,0.6,15.2,29.53,678.3983,140.0],
    [16145,1525554310,57.3947,-111.9585,884.9,454.9,346.9,12.4,0.7,15.23,29.52,678.3189,140.0002],
    [16146,1525554311,57.3952,-111.9585,884.6,454.6,346.5,12.4,0.5,15.59,29.81,678.2629,139.9989],
    [16147,1525554312,57.3956,-111.9585,884.6,454.6,346.1,12.4,0.6,15.42,29.81,678.3098,139.9928],
    [16148,1525554313,57.3961,-111.9586,885.0,455.0,345.7,12.3,0.8,15.72,29.54,678.3774,140.0029],
    [16149,1525554314,57.3966,-111.9586,885.5,455.5,345.1,12.4,1.1,15.68,29.18,678.3567,140.0103],
    [16150,1525554315,57.3971,-111.9586,886.3,456.3,344.4,12.8,1.2,15.31,29.8,678.2372,139.9949],
    [16151,1525554316,57.3976,-111.9587,886.9,457.6,345.0,12.5,1.5,15.1,30.16,678.0646,139.9928],
    [16152,1525554317,57.3981,-111.9587,886.8,457.8,346.3,11.6,1.6,14.78,30.07,677.9268,139.9951],
    [16153,1525554318,57.3985,-111.9587,886.3,457.3,346.8,11.2,1.4,15.42,30.02,677.7692,140.0011],
    [16154,1525554319,57.399,-111.9587,886.1,457.1,345.5,12.0,2.0,14.78,30.02,677.5746,140.0031],
    [16155,1525554320,57.3995,-111.9587,886.9,457.9,345.0,12.2,2.2,15.29,30.05,677.3802,140.0053],
    [16156,1525554321,57.4,-111.9588,888.5,459.5,345.3,12.0,1.9,14.59,30.15,677.2566,139.9983],
    [16157,1525554322,57.4005,-111.9588,890.7,461.7,345.1,12.3,1.8,15.19,30.38,677.2006,139.9966],
    [16158,1525554323,57.401,-111.9588,892.8,463.8,345.0,12.1,2.1,14.9,30.29,677.2193,139.9954],
    [16159,1525554324,57.4015,-111.9589,894.8,465.8,344.5,12.5,2.7,15.43,30.68,677.3017,139.9951],
    [16160,1525554325,57.402,-111.9589,896.9,467.9,343.7,13.2,3.3,14.97,30.7,677.2545,140.0049],
    [16161,1525554326,57.4025,-111.9589,898.6,469.6,344.7,13.7,3.2,14.95,30.48,677.3742,139.993],
    [16162,1525554327,57.403,-111.9589,899.6,470.6,347.3,13.8,2.7,14.74,30.45,677.5409,139.9978],
    [16163,1525554328,57.4034,-111.9589,899.7,470.0,351.4,13.2,2.2,14.88,31.03,677.7112,140.0005],
    [16164,1525554329,57.404,-111.9587,899.1,469.1,357.0,12.0,2.0,15.26,30.25,677.9711,139.9955],
    [16165,1525554330,57.4045,-111.9585,898.2,468.2,360.9,12.7,1.8,15.59,30.38,678.2554,140.0002],
    [16166,1525554331,57.405,-111.9583,897.4,467.4,5.1,12.7,1.9,15.07,31.08,678.4037,140.0049],
    [16167,1525554332,57.4055,-111.958,896.1,466.1,10.6,11.7,2.7,15.18,30.45,678.7681,140.0031],
    [16168,1525554333,57.406,-111.9575,893.6,463.6,15.7,11.8,2.7,15.74,30.27,678.9308,139.9996],
    [16169,1525554334,57.4065,-111.9571,890.9,460.9,20.7,11.4,3.0,14.99,30.4,678.9797,139.9938],
    [16170,1525554335,57.407,-111.9565,887.8,457.8,26.5,10.9,3.4,14.44,30.74,679.0071,139.9959],
    [16171,1525554336,57.4075,-111.9558,884.0,454.0,31.6,11.2,3.3,14.69,30.77,678.9908,140.0029],
    [16172,1525554337,57.408,-111.9551,880.6,451.7,37.0,10.7,3.6,15.03,30.77,678.987,140.0014],
    [16173,1525554338,57.4084,-111.9543,878.1,449.1,41.9,11.1,3.5,15.09,31.18,678.9501,140.008],
    [16174,1525554339,57.4088,-111.9534,877.2,449.2,45.5,11.4,3.3,15.49,30.65,678.8472,140.0014],
    [16175,1525554340,57.4092,-111.9526,876.7,448.7,49.0,11.5,3.6,14.81,31.28,678.6163,139.9971],
    [16176,1525554341,57.4096,-111.9516,876.5,449.5,51.9,11.9,3.4,14.93,30.7,678.4037,140.0],
    [16177,1525554342,57.4099,-111.9506,876.7,449.7,55.6,11.3,4.0,14.55,30.67,678.3375,139.9944],
    [16178,1525554343,57.4103,-111.9495,877.1,451.1,59.2,10.8,4.3,14.87,30.85,678.1323,139.9994],
    [16179,1525554344,57.4106,-111.9485,878.1,453.0,61.0,11.0,3.7,14.97,31.23,678.0569,140.0023],
    [16180,1525554345,57.4108,-111.9474,880.2,455.2,63.3,10.5,3.5,15.15,30.59,678.0999,139.9967],
    [16181,1525554346,57.4111,-111.9464,882.7,458.7,64.3,11.1,3.1,14.99,30.97,678.0385,140.0],
    [16182,1525554347,57.4114,-111.9453,885.5,462.5,65.7,11.4,3.3,14.73,30.88,677.9968,140.0026],
    [16183,1525554348,57.4116,-111.9441,887.0,464.0,66.9,11.6,2.9,14.57,30.68,677.6539,139.9892],
    [16184,1525554349,57.4118,-111.943,887.8,464.8,68.1,11.7,2.5,14.92,30.67,677.5323,139.994],
    [16185,1525554350,57.412,-111.942,888.1,465.1,70.8,11.1,3.5,14.85,30.66,677.473,139.9999],
    [16186,1525554351,57.4122,-111.9409,888.5,464.5,73.7,10.4,4.0,15.47,29.99,677.4394,140.0004],
    [16187,1525554352,57.4124,-111.9397,889.5,465.5,74.5,10.0,2.6,14.74,30.63,677.3768,140.0],
    [16188,1525554353,57.4126,-111.9385,891.8,469.0,76.3,8.8,2.7,14.62,30.51,677.3692,140.0],
    [16189,1525554354,57.4127,-111.9373,894.2,472.9,78.0,8.9,3.3,14.64,31.01,677.13,139.999],
    [16190,1525554355,57.4129,-111.9362,895.3,475.3,78.5,8.5,2.3,15.57,30.25,676.979,140.0023],
    [16191,1525554356,57.413,-111.9351,895.7,476.7,79.7,8.0,2.2,14.77,30.34,676.7624,139.9967],
    [16192,1525554357,57.4131,-111.9339,896.3,478.3,82.2,7.9,3.2,15.1,30.88,676.7655,139.9991],
    [16193,1525554358,57.4132,-111.9327,897.6,480.6,83.0,7.9,2.6,15.07,30.72,676.9642,139.9961],
    [16194,1525554359,57.4133,-111.9315,899.6,483.6,83.4,7.5,2.0,15.09,30.59,677.0198,140.0123],
    [16195,1525554360,57.4134,-111.9303,901.8,486.8,85.1,8.0,3.1,15.12,30.34,677.0634,139.9947],
    [16196,1525554361,57.4134,-111.9292,903.4,489.4,85.5,9.0,2.4,15.14,30.32,676.9066,139.9911],
    [16197,1525554362,57.4135,-111.928,903.8,489.8,85.7,9.0,1.6,14.91,30.35,677.0866,139.9972],
    [16198,1525554363,57.4136,-111.9269,902.8,488.8,88.3,9.0,2.5,14.97,30.54,677.128,139.9863],
    [16199,1525554364,57.4136,-111.9257,901.4,487.4,91.0,8.9,2.6,14.99,30.91,677.1059,139.9869],
    [16200,1525554365,57.4136,-111.9245,900.7,486.7,92.6,9.1,1.5,15.74,30.17,677.1961,140.0043],
    [16201,1525554366,57.4136,-111.9233,900.7,487.7,94.2,9.2,1.0,15.09,30.37,677.255,140.003],
    [16202,1525554367,57.4135,-111.9221,900.0,488.9,94.7,9.2,-0.1,14.45,30.74,677.2256,139.9841],
    [16203,1525554368,57.4135,-111.9209,898.8,488.9,94.6,6.9,-1.1,15.62,29.87,677.6199,139.9987],
    [16204,1525554369,57.4134,-111.9196,898.7,489.6,96.4,5.9,-0.5,14.88,30.33,677.8326,140.0067],
    [16205,1525554370,57.4133,-111.9185,898.5,490.4,96.7,6.0,-1.1,15.58,30.04,677.9351,140.0005],
    [16206,1525554371,57.4132,-111.9172,897.8,490.1,98.2,6.4,-0.4,15.38,30.68,678.1561,140.0055],
    [16207,1525554372,57.4131,-111.9161,896.7,493.7,99.7,5.9,0.5,15.36,29.99,678.2035,140.004],
    [16208,1525554373,57.413,-111.9148,893.9,496.0,100.4,4.5,0.6,14.81,31.11,678.4065,140.0034],
    [16209,1525554374,57.4129,-111.9136,890.8,494.9,101.4,4.9,1.2,15.24,30.37,678.4513,140.0013],
    [16210,1525554375,57.4128,-111.9124,888.6,494.3,101.6,5.6,0.8,15.78,29.88,678.5221,139.9957],
    [16211,1525554376,57.4127,-111.9112,886.9,490.2,99.9,5.1,-0.9,15.21,30.38,678.8909,140.014],
    [16212,1525554377,57.4126,-111.91,885.6,490.8,99.8,5.2,-0.5,14.78,30.45,679.2251,140.0083],
    [16213,1525554378,57.4125,-111.9088,884.1,491.5,100.0,6.3,0.0,15.13,30.71,679.3765,140.0013],
    [16214,1525554379,57.4124,-111.9075,882.3,493.1,98.6,6.2,-0.8,14.66,30.3,679.7094,139.9999],
    [16215,1525554380,57.4123,-111.9063,880.8,494.9,98.0,5.6,-0.8,15.33,29.96,679.9765,140.0084],
    [16216,1525554381,57.4122,-111.9052,878.5,493.6,97.3,5.7,-0.6,15.26,30.24,680.145,140.0064],
    [16217,1525554382,57.4121,-111.9039,874.7,491.4,97.9,7.0,1.0,15.04,30.37,680.4151,140.0077],
    [16218,1525554383,57.412,-111.9027,871.3,489.3,95.9,7.4,-0.5,15.13,30.53,680.6319,140.0041],
    [16219,1525554384,57.412,-111.9015,867.9,486.9,93.9,7.2,-1.8,15.24,29.88,681.0373,140.0071],
    [16220,1525554385,57.4119,-111.9003,864.7,483.4,93.6,7.4,-2.0,15.36,30.07,681.1001,140.0107],
    [16221,1525554386,57.4119,-111.8992,862.1,482.3,92.7,7.9,-2.5,15.15,30.64,681.3242,140.0022],
    [16222,1525554387,57.4118,-111.898,859.3,481.3,93.1,8.3,-1.4,14.96,30.24,681.481,140.0007],
    [16223,1525554388,57.4118,-111.8968,856.2,478.0,93.2,8.8,-0.6,14.75,30.15,681.6464,140.007],
    [16224,1525554389,57.4118,-111.8955,852.6,473.2,91.4,8.7,-1.7,15.06,30.52,681.6269,139.9868],
    [16225,1525554390,57.4117,-111.8943,850.2,471.9,90.5,8.7,-1.6,14.77,30.18,681.8055,140.0031],
    [16226,1525554391,57.4117,-111.8931,848.1,472.6,91.0,9.0,-0.7,14.98,30.23,681.8935,140.0084],
    [16227,1525554392,57.4117,-111.8919,846.1,474.3,89.6,9.2,-2.3,14.79,30.34,682.2743,139.9907],
    [16228,1525554393,57.4117,-111.8907,844.8,475.7,88.4,8.9,-3.7,15.55,29.93,682.7094,140.0187],
    [16229,1525554394,57.4117,-111.8896,843.4,475.8,90.1,7.7,-2.0,15.1,30.01,683.043,140.0025],
    [16230,1525554395,57.4117,-111.8884,842.1,475.8,92.7,6.6,0.1,14.69,30.1,683.4001,139.9951],
    [16231,1525554396,57.4116,-111.8872,839.7,474.4,91.5,7.8,-1.6,15.81,29.55,683.6921,140.0081],
    [16232,1525554397,57.4116,-111.8861,837.3,473.0,92.7,7.7,-0.5,14.58,30.24,684.2354,140.0002],
    [16233,1525554398,57.4116,-111.8849,832.7,469.4,94.6,8.1,1.2,15.31,29.54,684.3931,139.9978],
    [16234,1525554399,57.4115,-111.8837,828.0,465.7,93.8,9.0,0.1,15.29,30.1,684.5758,140.005],
    [16235,1525554400,57.4115,-111.8824,823.5,462.4,94.8,8.3,1.3,15.34,29.7,684.7094,139.9977],
    [16236,1525554401,57.4114,-111.8812,819.6,459.6,94.9,8.4,0.6,15.02,30.54,684.9144,140.0064],
    [16237,1525554402,57.4114,-111.88,815.9,456.9,94.1,8.7,-0.1,15.29,30.66,685.1991,140.003],
    [16238,1525554403,57.4114,-111.879,812.3,454.3,97.1,9.1,2.9,15.34,30.35,685.3738,140.0035],
    [16239,1525554404,57.4113,-111.8777,808.9,451.9,98.0,8.2,3.3,16.03,29.71,685.5957,140.0002],
    [16240,1525554405,57.4113,-111.8764,807.0,451.0,97.3,8.0,2.7,15.41,29.86,685.7874,140.0083],
    [16241,1525554406,57.4112,-111.8752,804.8,449.8,97.6,8.4,3.0,15.02,29.9,685.9094,139.9988],
    [16242,1525554407,57.4112,-111.8741,802.2,447.9,96.9,8.9,2.3,14.94,30.12,686.2807,140.0019],
    [16243,1525554408,57.4111,-111.8729,799.5,445.5,95.4,8.5,1.0,15.47,29.52,686.506,139.9991],
    [16244,1525554409,57.4111,-111.8718,797.1,444.1,93.8,8.6,0.0,16.14,29.34,686.5468,139.9996],
    [16245,1525554410,57.411,-111.8705,794.1,442.1,92.9,9.0,0.0,15.83,29.48,686.7941,139.9952],
    [16246,1525554411,57.411,-111.8693,791.9,440.9,91.9,9.3,-0.3,15.34,30.56,687.0312,140.0084],
    [16247,1525554412,57.411,-111.8681,789.3,439.3,92.3,10.2,0.1,15.85,29.74,687.0896,139.9976],
    [16248,1525554413,57.411,-111.8669,786.6,438.6,94.5,10.6,2.0,16.08,29.3,687.1251,139.9999],
    [16249,1525554414,57.4109,-111.8657,783.6,437.5,96.1,10.5,2.7,15.41,29.76,687.2083,140.0072],
    [16250,1525554415,57.4109,-111.8645,781.1,436.4,95.3,10.3,1.3,15.39,29.61,687.2264,140.0039],
    [16251,1525554416,57.4109,-111.8633,778.8,435.6,96.5,10.0,2.5,15.74,29.32,687.1613,139.9994],
    [16252,1525554417,57.4108,-111.8622,777.8,434.7,97.2,10.3,3.1,16.04,29.14,687.0851,139.9998],
    [16253,1525554418,57.4108,-111.8609,776.8,434.0,95.8,10.0,2.2,15.35,29.81,687.0736,139.9935],
    [16254,1525554419,57.4108,-111.8597,776.3,434.0,94.9,10.1,1.8,15.95,29.17,686.9813,139.9952],
    [16255,1525554420,57.4107,-111.8585,776.4,434.4,93.8,9.7,1.5,15.73,29.03,686.9724,139.998],
    [16256,1525554421,57.4107,-111.8574,776.8,434.8,93.7,9.7,2.0,15.9,29.14,686.9789,139.9978],
    [16257,1525554422,57.4107,-111.8562,777.5,436.6,93.5,9.6,2.3,15.51,29.59,687.2327,140.0026],
    [16258,1525554423,57.4107,-111.855,778.0,437.6,92.2,9.2,1.7,15.71,29.36,687.4675,140.0203],
    [16259,1525554424,57.4107,-111.8538,778.8,438.8,90.7,9.7,1.1,15.58,29.46,687.3322,139.9985],
    [16260,1525554425,57.4107,-111.8526,779.1,440.1,89.8,10.9,0.9,15.74,29.09,687.2054,139.98],
    [16261,1525554426,57.4107,-111.8515,778.1,440.1,89.2,10.6,0.6,15.01,29.37,687.2907,139.9867],
    [16262,1525554427,57.4107,-111.8503,776.2,438.8,90.5,10.8,1.8,15.26,29.91,687.5082,140.0079],
    [16263,1525554428,57.4107,-111.8491,774.2,437.1,90.3,11.3,1.7,15.55,29.42,687.5939,139.9958],
    [16264,1525554429,57.4107,-111.8479,773.2,437.3,88.7,11.9,0.1,15.37,29.44,687.5856,139.9982],
    [16265,1525554430,57.4107,-111.8468,774.6,438.6,88.7,11.8,0.4,15.72,28.91,687.4777,139.9987],
    [16266,1525554431,57.4108,-111.8456,774.7,439.0,90.4,11.4,1.6,15.82,29.0,687.2662,139.9974],
    [16267,1525554432,57.4108,-111.8444,772.8,437.8,89.3,10.9,0.2,15.44,29.47,686.9953,139.9901],
    [16268,1525554433,57.4108,-111.8432,771.7,436.7,89.3,10.9,0.6,15.86,29.19,686.9363,139.9995],
    [16269,1525554434,57.4108,-111.842,771.6,436.6,89.8,10.6,1.1,16.0,29.47,686.8551,139.9957],
    [16270,1525554435,57.4108,-111.8409,772.3,437.3,88.5,9.8,0.4,15.7,30.1,686.7126,139.9994],
    [16271,1525554436,57.4108,-111.8397,773.6,439.6,87.6,9.9,-0.1,15.7,29.63,686.5078,139.9951],
    [16272,1525554437,57.4109,-111.8385,776.5,443.8,86.1,9.7,-1.2,16.29,29.02,686.3886,140.0035],
    [16273,1525554438,57.4109,-111.8372,778.6,447.6,86.0,8.8,-0.9,15.74,29.29,686.1888,140.0],
    [16274,1525554439,57.4109,-111.8361,779.7,450.8,86.8,8.2,-0.7,15.54,29.74,685.9972,140.0064],
    [16275,1525554440,57.4109,-111.8349,781.3,453.3,87.7,7.8,-0.6,15.75,30.04,685.6739,139.9986],
    [16276,1525554441,57.4109,-111.8337,783.3,456.3,90.1,8.4,0.7,15.98,29.38,685.5472,139.9977],
    [16277,1525554442,57.4109,-111.8325,785.2,458.8,90.4,7.9,0.1,15.67,29.43,685.4413,139.9994],
    [16278,1525554443,57.4109,-111.8314,787.4,461.5,91.1,7.4,0.3,15.62,29.47,685.4019,140.003],
    [16279,1525554444,57.4109,-111.8302,790.1,465.3,92.0,7.8,0.7,15.8,30.01,685.3818,139.9996],
    [16280,1525554445,57.4109,-111.8292,792.7,468.8,92.1,7.9,0.6,15.79,29.79,685.3997,139.999],
    [16281,1525554446,57.4109,-111.828,795.9,472.0,92.6,8.0,0.5,15.68,28.99,685.3966,139.9991],
    [16282,1525554447,57.4109,-111.8268,797.8,473.6,93.4,8.4,0.6,15.25,29.15,685.3562,139.9955],
    [16283,1525554448,57.4108,-111.8256,798.6,473.6,93.2,8.5,0.0,16.21,29.0,685.5457,139.9986],
    [16284,1525554449,57.4108,-111.8244,799.0,474.0,92.9,8.6,-0.1,15.79,29.33,685.7108,140.0056],
    [16285,1525554450,57.4108,-111.8233,798.9,475.0,92.2,8.9,-0.2,15.85,29.46,686.0059,140.0034],
    [16286,1525554451,57.4108,-111.8222,799.1,476.1,91.3,8.9,-0.4,15.86,29.34,686.1925,140.0059],
    [16287,1525554452,57.4108,-111.8212,799.0,477.3,90.4,9.1,-0.5,16.0,29.13,686.3291,139.9954],
    [16288,1525554453,57.4108,-111.8199,797.9,478.0,88.8,9.8,-1.1,15.69,29.32,686.3277,139.9974],
    [16289,1525554454,57.4108,-111.8188,795.5,477.2,88.1,10.3,-1.0,15.75,29.26,686.4814,139.9926],
    [16290,1525554455,57.4108,-111.8177,792.5,473.4,88.1,10.4,-0.7,15.76,29.12,686.5357,139.9999],
    [16291,1525554456,57.4108,-111.8165,789.7,470.4,87.6,10.5,-1.1,16.62,28.62,686.5844,139.9941],
    [16292,1525554457,57.4108,-111.8154,788.1,468.0,87.7,10.9,-1.1,16.52,28.49,686.663,140.0094],
    [16293,1525554458,57.4108,-111.8142,787.0,466.9,87.6,11.0,-1.5,15.78,29.85,686.6358,139.9928],
    [16294,1525554459,57.4108,-111.8131,786.1,465.8,88.2,10.7,-1.1,15.58,29.23,686.6434,140.0001],
    [16295,1525554460,57.4108,-111.8119,784.7,464.8,90.2,10.0,-0.1,15.88,29.48,686.4916,139.998],
    [16296,1525554461,57.4108,-111.8107,783.7,463.6,91.5,10.0,0.2,15.78,29.21,686.4386,140.0019],
    [16297,1525554462,57.4108,-111.8096,783.3,465.0,92.4,10.2,0.1,15.82,29.79,686.2249,140.0022],
    [16298,1525554463,57.4108,-111.8084,783.3,466.2,93.0,10.5,0.3,15.78,29.3,686.1636,139.9996],
    [16299,1525554464,57.4107,-111.8072,783.8,468.8,94.1,10.6,0.9,15.56,29.08,686.0697,139.9963],
    [16300,1525554465,57.4107,-111.8061,784.7,471.7,93.9,10.3,0.1,15.96,28.87,686.0631,139.9945],
    [16301,1525554466,57.4107,-111.8049,786.1,474.1,93.1,10.0,-0.8,15.75,29.36,686.0815,140.0009],
    [16302,1525554467,57.4106,-111.8037,787.8,475.8,93.8,10.6,-0.3,16.19,29.13,686.1033,139.9966],
    [16303,1525554468,57.4106,-111.8025,789.1,477.1,94.2,10.7,-0.2,15.53,29.35,686.1521,140.0004],
    [16304,1525554469,57.4105,-111.8014,790.1,477.1,93.8,10.2,-0.4,15.79,29.24,686.0478,140.0093],
    [16305,1525554470,57.4105,-111.8002,790.5,477.5,93.8,10.2,0.1,15.79,29.38,686.2015,140.0038],
    [16306,1525554471,57.4105,-111.799,790.4,476.4,92.9,10.2,-0.3,15.77,29.66,686.222,139.9901],
    [16307,1525554472,57.4104,-111.7978,790.4,476.4,93.5,9.6,0.9,16.05,28.59,686.6634,140.0096],
    [16308,1525554473,57.4104,-111.7967,790.2,475.2,94.0,9.6,1.7,16.02,28.97,686.6695,139.9857],
    [16309,1525554474,57.4104,-111.7954,789.6,474.6,91.8,9.5,0.0,15.39,29.2,686.5807,139.9869],
    [16310,1525554475,57.4104,-111.7942,789.1,473.1,91.5,10.2,0.8,15.78,29.6,686.415,139.9968],
    [16311,1525554476,57.4104,-111.793,787.1,471.1,93.1,11.6,2.4,16.25,29.17,686.4234,140.0052],
    [16312,1525554477,57.4104,-111.7918,784.0,468.0,89.6,10.6,-0.5,15.99,29.08,686.5323,139.9901],
    [16313,1525554478,57.4104,-111.7906,782.6,467.6,86.3,9.5,-2.5,15.96,29.03,686.1319,139.9964],
    [16314,1525554479,57.4104,-111.7894,782.9,468.9,87.0,7.4,-1.0,15.8,29.66,685.8101,139.9935],
    [16315,1525554480,57.4104,-111.7881,784.0,471.1,87.3,7.6,-0.2,15.35,29.28,685.8731,139.9917],
    [16316,1525554481,57.4105,-111.7869,784.1,471.1,88.7,8.1,1.6,15.8,29.45,686.0263,140.0024],
    [16317,1525554482,57.4105,-111.7856,784.3,472.3,88.7,8.1,0.8,15.59,29.68,686.0227,140.0048],
    [16318,1525554483,57.4105,-111.7845,786.7,475.7,86.9,7.7,-1.2,15.83,29.59,686.112,140.0096],
    [16319,1525554484,57.4105,-111.7833,790.1,480.2,87.7,7.7,-0.1,15.64,29.37,686.5874,139.9934],
    [16320,1525554485,57.4105,-111.782,791.8,484.8,88.8,8.6,0.8,15.95,28.82,686.8232,140.0033],
    [16321,1525554486,57.4106,-111.7808,790.8,485.0,87.4,8.4,-0.6,15.87,29.32,687.0039,140.0053],
    [16322,1525554487,57.4106,-111.7795,789.5,484.5,86.8,9.4,-1.4,15.93,29.17,687.3359,140.0025],
    [16323,1525554488,57.4106,-111.7783,787.9,484.0,86.2,10.0,-1.8,15.9,29.75,687.4755,140.0046],
    [16324,1525554489,57.4106,-111.777,784.3,480.3,88.7,9.6,0.3,16.11,28.56,687.6112,140.0017],
    [16325,1525554490,57.4106,-111.7758,780.9,477.9,88.6,9.5,-0.1,16.27,28.38,687.7271,139.9981],
    [16326,1525554491,57.4107,-111.7746,778.0,477.0,88.1,9.5,-0.3,16.3,28.6,687.7498,139.996],
    [16327,1525554492,57.4107,-111.7734,775.2,475.7,89.9,9.8,1.5,16.57,28.49,687.6633,139.994],
    [16328,1525554493,57.4107,-111.7721,772.0,475.3,90.3,10.1,1.4,15.6,29.16,687.5263,139.9965],
    [16329,1525554494,57.4107,-111.7708,770.7,476.7,89.3,9.8,0.5,16.13,28.38,687.6792,140.0044],
    [16330,1525554495,57.4107,-111.7696,769.8,476.8,89.9,9.7,1.2,15.79,29.21,687.7082,140.0058],
    [16331,1525554496,57.4107,-111.7684,768.9,475.9,90.6,9.1,1.5,15.99,28.99,687.7442,140.0038],
    [16332,1525554497,57.4107,-111.7671,769.3,477.0,90.7,7.8,1.5,15.71,29.47,687.7396,139.9943],
    [16333,1525554498,57.4107,-111.7659,770.2,478.2,92.2,7.5,3.1,15.87,28.95,687.7341,139.9972],
    [16334,1525554499,57.4107,-111.7646,770.0,478.0,92.5,7.8,2.6,15.96,28.62,687.7819,139.996],
    [16335,1525554500,57.4107,-111.7633,769.5,477.5,91.3,8.5,1.1,16.51,28.2,687.7333,140.0026],
    [16336,1525554501,57.4107,-111.7621,769.2,477.3,92.1,9.1,1.7,15.76,28.94,687.7111,139.9891],
    [16337,1525554502,57.4107,-111.7608,769.0,476.0,92.9,9.2,2.2,15.61,28.68,687.8687,140.0065],
    [16338,1525554503,57.4107,-111.7597,768.6,475.6,92.8,8.6,1.8,15.7,29.05,688.2856,140.0123],
    [16339,1525554504,57.4107,-111.7583,768.2,474.2,93.6,7.9,2.2,15.78,28.46,688.315,140.0074],
    [16340,1525554505,57.4107,-111.757,767.8,473.5,92.1,7.3,0.2,15.73,28.32,688.3794,140.0051],
    [16341,1525554506,57.4106,-111.7558,767.3,470.4,92.7,6.8,0.8,16.1,29.03,688.2681,140.0124],
    [16342,1525554507,57.4106,-111.7545,766.1,465.8,95.0,6.9,3.4,16.12,28.21,688.0337,139.9998],
    [16343,1525554508,57.4106,-111.7533,763.3,457.7,95.5,7.9,3.5,15.58,28.64,687.9832,139.9954],
    [16344,1525554509,57.4106,-111.752,761.6,451.6,93.0,8.0,0.3,16.58,28.49,688.0021,139.9942],
    [16345,1525554510,57.4105,-111.7507,761.3,448.7,91.9,8.0,-1.2,15.64,28.6,688.0329,140.0013],
    [16346,1525554511,57.4105,-111.7496,761.9,449.0,91.9,8.4,-1.7,16.68,28.21,688.0827,139.9939],
    [16347,1525554512,57.4105,-111.7483,764.3,452.3,92.2,8.4,-1.7,16.39,28.48,688.1644,140.0009],
    [16348,1525554513,57.4104,-111.747,765.8,455.9,93.7,8.4,-0.2,15.29,28.76,688.2325,139.9994],
    [16349,1525554514,57.4104,-111.7459,766.1,460.1,95.0,7.7,1.1,16.25,28.16,688.0932,139.9949],
    [16350,1525554515,57.4103,-111.7447,765.8,463.8,95.2,7.5,1.0,15.97,29.2,687.9028,139.9929],
    [16351,1525554516,57.4103,-111.7434,764.8,464.9,95.8,7.0,1.7,16.34,28.11,687.5064,139.9958],
    [16352,1525554517,57.4102,-111.7423,764.0,463.9,96.1,7.3,1.9,15.94,28.73,687.2837,139.9904],
    [16353,1525554518,57.4102,-111.741,763.1,465.0,95.7,6.7,1.6,16.0,29.45,687.3695,140.0012],
    [16354,1525554519,57.4102,-111.7398,763.2,465.1,94.0,5.6,-0.5,15.85,28.77,687.2092,139.9861],
    [16355,1525554520,57.4101,-111.7386,766.1,469.1,93.3,5.1,-0.8,15.83,28.8,686.9226,139.9947],
    [16356,1525554521,57.4101,-111.7374,770.3,473.3,94.5,5.8,0.9,15.9,29.22,686.7716,139.9973],
    [16357,1525554522,57.41,-111.7362,772.8,475.8,93.7,5.9,0.7,16.43,28.3,686.5328,139.9993],
    [16358,1525554523,57.41,-111.735,772.9,475.1,93.1,4.5,0.4,15.92,28.98,686.5982,139.9963],
    [16359,1525554524,57.41,-111.7337,774.0,474.0,91.4,3.7,-0.7,16.1,29.77,686.6036,140.0011],
    [16360,1525554525,57.41,-111.7326,776.8,472.7,91.4,2.3,-0.2,16.39,28.56,686.5952,140.0023],
    [16361,1525554526,57.4099,-111.7314,779.2,473.3,92.4,3.1,0.8,16.04,29.01,686.6142,139.9975],
    [16362,1525554527,57.4099,-111.7302,781.3,474.3,92.1,4.0,0.8,16.15,29.38,686.6095,140.001],
    [16363,1525554528,57.4099,-111.7289,782.5,474.4,90.9,5.1,0.0,16.16,29.51,686.547,139.9995],
    [16364,1525554529,57.4099,-111.7277,782.9,474.6,88.3,5.9,-2.1,16.32,28.65,686.6799,140.0013],
    [16365,1525554530,57.4099,-111.7265,782.7,474.5,86.7,6.3,-2.9,15.92,29.21,686.7447,140.0034],
    [16366,1525554531,57.4099,-111.7253,782.5,474.4,86.8,6.1,-2.4,15.83,29.4,686.6028,140.0049],
    [16367,1525554532,57.4099,-111.7241,782.6,475.6,86.4,5.7,-2.6,16.45,28.8,686.243,140.0044],
    [16368,1525554533,57.4099,-111.7229,783.1,477.1,86.8,6.0,-2.0,16.0,28.83,686.04,139.9985],
    [16369,1525554534,57.41,-111.7218,782.7,479.1,86.8,6.2,-2.1,16.11,29.04,685.4299,140.0036],
    [16370,1525554535,57.41,-111.7205,781.0,482.0,87.1,5.7,-2.0,15.77,29.33,685.1238,139.9877],
    [16371,1525554536,57.41,-111.7193,781.8,489.1,86.3,5.3,-2.7,16.11,29.15,684.9585,139.9921],
    [16372,1525554537,57.41,-111.7181,785.0,492.4,85.3,5.4,-2.9,16.12,29.4,684.8422,140.0008],
    [16373,1525554538,57.41,-111.7169,790.2,495.9,85.1,5.3,-1.6,15.77,28.93,684.6992,139.9962],
    [16374,1525554539,57.4101,-111.7157,795.8,500.9,84.1,5.6,-2.1,16.12,28.94,684.5568,140.0008],
    [16375,1525554540,57.4101,-111.7145,799.7,499.4,84.2,5.5,-1.7,15.94,28.97,684.3417,139.9991],
    [16376,1525554541,57.4102,-111.7133,802.8,497.8,86.3,5.2,-0.3,16.13,29.66,684.4255,139.9939],
    [16377,1525554542,57.4102,-111.7122,805.0,496.0,87.1,5.5,-0.6,15.85,28.82,684.5657,139.9965],
    [16378,1525554543,57.4102,-111.711,807.0,499.9,88.9,5.6,-0.6,16.12,29.34,685.0334,140.0077],
    [16379,1525554544,57.4102,-111.71,808.2,501.1,90.0,6.2,-1.8,16.46,28.53,685.168,140.0089],
    [16380,1525554545,57.4102,-111.7087,810.1,502.6,91.5,6.5,-3.1,16.13,29.6,685.3105,139.9959],
    [16381,1525554546,57.4101,-111.7076,810.0,498.3,94.5,5.7,-2.0,16.48,28.77,685.4598,139.9962],
    [16382,1525554547,57.41,-111.7065,808.0,497.9,97.9,5.5,-1.4,15.9,29.03,685.7808,140.005],
    [16383,1525554548,57.4099,-111.7053,804.6,500.2,102.4,7.2,0.1,16.22,29.07,685.9704,140.0099],
    [16384,1525554549,57.4098,-111.7042,801.4,500.1,105.2,7.7,-0.4,16.11,29.74,685.9619,139.9956],
    [16385,1525554550,57.4096,-111.7031,799.3,503.3,105.5,6.7,-1.1,15.83,29.12,685.9679,139.996],
    [16386,1525554551,57.4095,-111.7019,796.9,504.2,106.3,6.9,-0.1,16.45,28.51,686.0657,139.9965],
    [16387,1525554552,57.4093,-111.7008,794.0,504.2,103.7,6.7,-1.3,16.2,29.14,685.9969,140.0078],
    [16388,1525554553,57.4092,-111.6996,791.8,504.2,99.9,6.0,-2.6,16.2,29.65,686.1379,139.9977],
    [16389,1525554554,57.4091,-111.6985,791.2,506.0,98.5,6.3,-1.7,16.36,28.64,686.0123,139.9904],
    [16390,1525554555,57.409,-111.6973,791.0,506.9,95.9,6.1,-2.5,16.19,29.63,686.1968,140.005],
    [16391,1525554556,57.4089,-111.6961,790.1,507.1,93.0,5.4,-3.5,16.15,29.26,686.27,139.9996],
    [16392,1525554557,57.4089,-111.695,789.1,508.1,91.2,4.9,-3.8,16.0,29.18,686.3068,140.0019],
    [16393,1525554558,57.4088,-111.6938,789.0,509.0,91.3,4.5,-2.1,15.86,29.23,686.5991,140.0135],
    [16394,1525554559,57.4088,-111.6927,789.0,510.0,91.9,5.1,-1.5,16.18,28.81,686.9674,140.0029],
    [16395,1525554560,57.4088,-111.6915,788.1,510.1,90.2,4.4,-3.3,15.98,29.31,687.1676,140.0089],
    [16396,1525554561,57.4087,-111.6904,786.7,509.7,91.4,4.8,-2.4,15.79,29.1,687.5261,140.006],
    [16397,1525554562,57.4087,-111.6892,785.3,509.3,92.7,4.9,-2.6,16.01,29.94,687.7901,140.0074],
    [16398,1525554563,57.4086,-111.688,783.1,508.1,94.5,4.8,-2.2,15.81,29.07,688.0444,140.0018],
    [16399,1525554564,57.4085,-111.6869,780.0,507.0,98.9,5.3,-0.4,15.53,29.22,688.458,140.0097],
    [16400,1525554565,57.4084,-111.6857,776.6,504.7,102.8,6.1,-0.6,15.86,29.59,688.9473,140.009],
    [16401,1525554566,57.4083,-111.6846,773.2,501.2,106.1,6.7,-0.6,15.91,30.06,688.9821,140.0016],
    [16402,1525554567,57.4081,-111.6834,769.0,497.8,109.5,7.8,-1.0,15.87,29.73,689.3207,139.9937],
    [16403,1525554568,57.4079,-111.6823,764.8,493.8,112.1,7.4,-2.4,15.6,29.33,689.5449,139.9958],
    [16404,1525554569,57.4076,-111.6812,760.5,490.5,115.4,7.5,-2.4,16.24,28.75,689.9721,140.0006],
    [16405,1525554570,57.4073,-111.6802,756.4,487.4,121.1,9.1,-1.4,16.27,29.05,690.0472,139.9979],
    [16406,1525554571,57.407,-111.6792,754.1,486.1,124.2,9.0,-2.4,15.74,29.22,690.1713,139.9972],
    [16407,1525554572,57.4067,-111.6781,750.8,483.8,126.7,8.3,-2.4,16.19,29.0,690.4839,140.0063],
    [16408,1525554573,57.4063,-111.6773,747.2,481.2,129.7,8.1,-1.6,15.89,29.28,690.7723,140.0034],
    [16409,1525554574,57.4059,-111.6763,742.9,478.2,132.8,7.0,-1.3,15.46,29.25,690.8458,140.0077],
    [16410,1525554575,57.4055,-111.6754,740.7,483.7,135.6,6.5,-1.6,15.96,29.19,691.0092,139.9937],
    [16411,1525554576,57.405,-111.6745,738.9,488.6,138.2,6.6,-1.9,15.87,29.94,691.0492,140.0005],
    [16412,1525554577,57.4045,-111.6736,735.7,482.7,141.3,6.9,-2.0,15.85,29.55,691.3929,140.0003],
    [16413,1525554578,57.4041,-111.6729,733.1,468.5,144.4,7.2,-2.1,15.49,29.02,691.6077,140.0076],
    [16414,1525554579,57.4036,-111.6722,730.6,461.6,147.1,6.7,-2.9,15.79,29.09,691.8086,140.0031],
    [16415,1525554580,57.403,-111.6715,729.1,461.1,149.7,6.1,-2.9,15.92,29.02,691.8425,139.9985],
    [16416,1525554581,57.4024,-111.6708,727.8,459.8,152.2,5.9,-2.4,15.58,28.99,692.0772,140.0062],
    [16417,1525554582,57.4019,-111.6703,725.4,458.4,154.8,6.4,-1.8,16.03,29.0,692.1249,140.0053],
    [16418,1525554583,57.4013,-111.6697,721.9,454.9,158.4,6.9,-1.8,15.75,28.74,692.2592,139.9996],
    [16419,1525554584,57.4008,-111.6692,719.7,453.7,160.4,5.7,-1.7,16.6,28.64,692.4911,140.003],
    [16420,1525554585,57.4001,-111.6687,718.1,452.1,163.8,6.5,-1.8,16.26,28.58,692.6092,140.0067],
    [16421,1525554586,57.3995,-111.6683,716.6,450.6,166.2,6.6,-2.3,15.87,28.86,692.8464,139.9953],
    [16422,1525554587,57.3989,-111.668,715.0,449.0,168.4,6.7,-2.5,16.07,28.77,692.9738,139.9965],
    [16423,1525554588,57.3984,-111.6677,713.6,447.6,170.3,7.5,-2.6,15.93,28.66,693.1217,140.0039],
    [16424,1525554589,57.3977,-111.6674,711.5,446.5,171.2,7.5,-3.1,15.78,29.2,693.3649,140.0016],
    [16425,1525554590,57.3971,-111.6671,709.1,444.1,170.7,6.3,-3.1,15.75,28.78,693.4814,140.0021],
    [16426,1525554591,57.3965,-111.6668,706.7,441.8,171.0,6.1,-1.9,16.2,29.25,693.5706,139.9978],
    [16427,1525554592,57.3959,-111.6665,704.8,440.8,172.4,6.6,-1.5,15.58,28.76,693.5913,139.9985],
    [16428,1525554593,57.3953,-111.6663,702.9,440.0,173.0,5.9,-1.5,16.01,29.5,693.6292,139.9954],
    [16429,1525554594,57.3946,-111.6661,700.8,437.8,173.9,5.6,-2.2,15.72,28.73,693.6241,139.9968],
    [16430,1525554595,57.394,-111.6659,698.8,435.8,175.3,5.3,-2.4,16.56,28.27,693.6246,140.0055],
    [16431,1525554596,57.3934,-111.6657,697.6,435.7,176.8,5.8,-2.3,17.01,28.18,693.4724,139.9902],
    [16432,1525554597,57.3927,-111.6656,697.1,436.4,177.8,5.6,-1.9,16.6,28.57,693.1921,139.9858],
    [16433,1525554598,57.392,-111.6654,697.3,437.3,177.6,5.2,-2.3,16.34,29.27,693.0998,139.9928],
    [16434,1525554599,57.3914,-111.6653,696.8,437.7,177.0,5.1,-2.5,15.92,28.56,692.9684,140.0063],
    [16435,1525554600,57.3908,-111.6651,696.5,438.5,175.8,4.4,-1.5,16.21,28.79,692.7754,140.0026],
    [16436,1525554601,57.3901,-111.665,697.5,440.3,176.5,5.0,-1.1,16.39,28.63,692.5494,139.9951],
    [16437,1525554602,57.3895,-111.6648,699.7,443.5,178.2,6.0,0.4,16.2,28.59,692.3224,140.0069],
    [16438,1525554603,57.3889,-111.6647,701.9,446.9,181.1,8.6,1.7,16.48,29.01,692.1274,140.0],
    [16439,1525554604,57.3882,-111.6646,703.9,449.9,183.5,9.7,0.3,16.5,28.39,691.9695,140.0005],
    [16440,1525554605,57.3876,-111.6645,706.2,452.6,184.3,8.7,0.1,16.78,28.23,691.7865,139.998],
    [16441,1525554606,57.3869,-111.6645,709.0,456.0,186.2,9.0,0.2,16.23,28.45,691.6157,139.9885],
    [16442,1525554607,57.3863,-111.6645,711.5,460.5,186.7,8.1,0.5,17.17,27.74,691.5033,139.9979],
    [16443,1525554608,57.3857,-111.6645,714.2,464.2,187.2,7.9,0.5,16.81,27.65,691.549,139.9989],
    [16444,1525554609,57.3851,-111.6645,716.6,466.6,188.3,8.6,0.8,16.48,28.21,691.4858,140.0036],
    [16445,1525554610,57.3845,-111.6645,718.4,469.4,188.7,8.7,1.3,15.94,28.04,691.3736,140.0073],
    [16446,1525554611,57.3839,-111.6646,720.1,472.1,190.6,10.7,2.6,16.81,27.75,691.29,140.0024],
    [16447,1525554612,57.3833,-111.6646,721.1,473.8,190.4,10.0,3.0,16.64,28.21,691.1428,139.9957],
    [16448,1525554613,57.3827,-111.6646,721.7,475.1,190.3,10.0,2.9,16.55,28.02,691.2009,140.0063],
    [16449,1525554614,57.3821,-111.6647,723.0,477.0,190.2,10.1,1.9,16.39,27.78,691.4062,139.9944],
    [16450,1525554615,57.3816,-111.6647,724.0,478.9,188.7,9.3,1.1,17.1,27.57,691.6953,140.0079],
    [16451,1525554616,57.3809,-111.6647,725.7,481.7,187.1,8.8,1.0,16.15,27.78,691.9358,139.9965],
    [16452,1525554617,57.3803,-111.6647,726.9,483.3,186.3,8.5,0.9,17.24,27.41,692.2053,139.9924],
    [16453,1525554618,57.3797,-111.6647,727.2,485.2,186.4,8.9,0.6,16.68,28.02,692.1942,140.002],
    [16454,1525554619,57.3791,-111.6647,725.2,484.1,188.2,10.7,-1.0,17.31,27.46,692.6837,139.9958],
    [16455,1525554620,57.3785,-111.6646,722.4,483.4,187.8,9.9,-1.3,16.63,27.91,692.955,139.9907],
    [16456,1525554621,57.3779,-111.6646,718.7,480.7,186.8,9.0,-1.0,16.89,27.38,692.8627,140.0034],
    [16457,1525554622,57.3773,-111.6646,716.1,479.8,187.4,9.7,-1.1,16.43,27.91,693.233,139.9992],
    [16458,1525554623,57.3767,-111.6646,713.7,479.1,186.5,8.5,-1.6,16.34,27.63,693.2398,140.0156],
    [16459,1525554624,57.376,-111.6646,709.9,476.8,186.5,8.9,-1.1,16.82,27.24,693.208,139.9942],
    [16460,1525554625,57.3754,-111.6646,705.7,473.7,187.3,8.8,-0.8,16.57,28.45,693.1738,139.986],
    [16461,1525554626,57.3749,-111.6646,703.6,471.6,184.8,5.4,0.3,16.67,28.35,693.1299,139.994],
    [16462,1525554627,57.3742,-111.6646,701.2,469.2,188.5,9.3,-0.2,16.42,27.85,693.198,139.993],
    [16463,1525554628,57.3736,-111.6646,701.0,469.0,188.6,7.7,-2.5,16.97,27.4,693.1968,140.006],
    [16464,1525554629,57.3729,-111.6646,701.9,469.9,188.0,7.2,-2.6,16.97,27.9,693.1239,140.0012],
    [16465,1525554630,57.3723,-111.6647,702.0,470.0,189.8,9.1,-2.2,17.15,27.34,693.1174,140.0011],
    [16466,1525554631,57.3717,-111.6647,702.1,470.1,189.6,9.8,-0.4,16.15,28.01,693.0703,139.9959],
    [16467,1525554632,57.3711,-111.6648,701.5,469.2,189.4,9.8,0.2,16.78,27.61,693.0327,140.0018],
    [16468,1525554633,57.3704,-111.6648,701.7,469.4,186.8,7.5,-0.2,16.7,27.76,693.1045,139.994],
    [16469,1525554634,57.3698,-111.6648,702.1,470.1,186.8,8.1,-0.4,16.49,27.81,693.257,140.0036],
    [16470,1525554635,57.3692,-111.6648,702.5,470.5,186.4,7.9,-0.5,17.19,27.62,693.3189,140.0022],
    [16471,1525554636,57.3686,-111.6648,702.8,470.8,186.6,8.4,-0.8,16.44,27.86,693.3905,139.9933],
    [16472,1525554637,57.3679,-111.6648,703.0,471.0,186.6,8.4,-0.8,16.72,28.26,693.6334,140.0037],
    [16473,1525554638,57.3673,-111.6648,702.3,470.3,186.6,9.0,-0.2,16.75,28.16,693.7259,140.0025],
    [16474,1525554639,57.3666,-111.6648,701.2,469.2,186.9,9.8,-0.7,17.32,27.03,693.8267,140.0141],
    [16475,1525554640,57.366,-111.6647,699.7,467.7,186.0,9.2,0.0,17.11,26.98,693.8454,140.0036],
    [16476,1525554641,57.3653,-111.6647,698.1,466.1,186.1,9.6,0.9,17.27,27.09,693.9347,139.9987],
    [16477,1525554642,57.3647,-111.6647,696.4,464.4,185.8,9.2,0.9,17.06,27.24,693.9611,140.001],
    [16478,1525554643,57.3641,-111.6646,695.3,463.3,185.9,8.9,0.5,16.75,27.54,694.0546,140.001],
    [16479,1525554644,57.3635,-111.6646,694.4,462.4,186.0,8.6,-0.4,16.81,27.53,694.1113,139.998],
    [16480,1525554645,57.3628,-111.6646,693.7,461.7,186.8,9.2,-0.2,16.87,27.33,694.308,140.0033],
    [16481,1525554646,57.3622,-111.6646,693.0,461.0,187.7,10.1,-0.2,16.19,27.29,694.414,140.0032],
    [16482,1525554647,57.3615,-111.6646,692.4,460.4,187.5,9.8,-0.1,16.83,27.55,694.6308,140.006],
    [16483,1525554648,57.3609,-111.6646,691.5,459.5,187.3,9.8,-0.1,16.81,27.48,694.8075,140.0008],
    [16484,1525554649,57.3603,-111.6646,690.3,458.3,187.6,10.5,0.0,16.62,27.26,694.9237,140.0026],
    [16485,1525554650,57.3596,-111.6645,688.7,455.7,187.3,10.3,-0.1,16.25,27.16,694.9929,140.0044],
    [16486,1525554651,57.359,-111.6645,687.2,454.2,187.0,9.8,-0.2,16.38,27.37,694.9631,140.0036],
    [16487,1525554652,57.3584,-111.6645,684.9,451.9,187.0,9.6,-0.1,16.96,26.77,694.8523,139.9994],
    [16488,1525554653,57.3577,-111.6645,682.9,449.9,187.4,9.6,-0.4,16.66,26.91,694.8202,140.0004],
    [16489,1525554654,57.3571,-111.6645,681.2,448.2,187.8,9.7,-0.5,16.72,27.22,694.716,139.9975],
    [16490,1525554655,57.3565,-111.6645,680.5,447.5,188.1,9.8,-0.4,16.82,27.7,694.604,139.9998],
    [16491,1525554656,57.3558,-111.6645,680.7,446.7,188.0,9.6,0.1,16.68,26.9,694.6025,140.0069],
    [16492,1525554657,57.3552,-111.6645,681.4,447.4,187.2,8.7,0.5,16.36,27.0,694.4722,139.9934],
    [16493,1525554658,57.3546,-111.6645,682.4,448.4,187.7,9.0,0.7,16.57,27.36,694.4282,139.9924],
    [16494,1525554659,57.354,-111.6645,683.3,448.3,188.8,9.8,0.9,16.96,27.19,694.2721,139.9978],
    [16495,1525554660,57.3534,-111.6645,684.5,449.5,189.7,10.3,0.9,16.62,27.04,694.0507,139.9986],
    [16496,1525554661,57.3528,-111.6646,685.1,449.1,189.9,9.3,-0.6,16.42,27.13,693.9065,140.0018],
    [16497,1525554662,57.3522,-111.6646,685.2,449.2,189.1,7.9,-0.5,16.79,27.0,693.7303,140.0085],
    [16498,1525554663,57.3516,-111.6646,687.0,451.7,190.3,8.9,0.3,17.23,26.42,693.5763,139.9967],
    [16499,1525554664,57.351,-111.6647,689.0,454.1,192.5,10.8,0.0,17.03,26.63,693.5262,139.9992],
    [16500,1525554665,57.3504,-111.6648,691.1,455.4,191.9,9.8,0.3,16.38,26.88,693.5468,140.0072],
    [16501,1525554666,57.3498,-111.6648,693.8,458.8,190.7,8.6,0.5,16.74,27.06,693.5719,139.9927],
    [16502,1525554667,57.3492,-111.6649,695.7,460.7,189.3,7.2,-0.6,17.29,26.77,693.7248,139.9998],
    [16503,1525554668,57.3486,-111.665,697.5,462.5,187.9,7.0,-1.6,16.9,27.35,693.743,140.0073],
    [16504,1525554669,57.348,-111.665,698.5,464.5,188.5,8.4,-1.0,16.65,27.11,693.3272,139.9849],
    [16505,1525554670,57.3474,-111.665,698.4,464.4,187.7,8.1,-0.7,17.23,27.08,693.4645,140.0056],
    [16506,1525554671,57.3468,-111.665,697.9,463.9,188.7,9.3,-0.6,16.87,27.14,693.4412,140.0139],
    [16507,1525554672,57.3462,-111.665,696.6,462.3,188.0,8.4,-0.6,16.49,27.06,693.2013,140.0033],
    [16508,1525554673,57.3456,-111.665,696.0,461.0,187.2,7.8,-0.8,16.88,27.17,692.9509,140.0002],
    [16509,1525554674,57.345,-111.665,698.2,463.2,187.3,8.3,-0.2,17.05,27.2,692.7942,139.9943],
    [16510,1525554675,57.3444,-111.665,699.9,464.9,187.4,8.7,0.6,16.71,27.31,692.6639,139.9931],
    [16511,1525554676,57.3438,-111.665,699.9,463.8,187.2,8.8,-0.9,16.82,27.49,692.6896,139.9982],
    [16512,1525554677,57.3432,-111.665,702.1,465.3,186.0,7.7,-2.5,17.1,27.29,692.8587,139.9989],
    [16513,1525554678,57.3426,-111.665,705.2,468.1,185.1,7.0,-3.3,16.97,27.96,692.9357,139.9986],
    [16514,1525554679,57.342,-111.665,707.5,468.8,184.4,7.3,-3.1,16.43,27.71,692.8938,139.9998],
    [16515,1525554680,57.3414,-111.6649,709.2,469.1,183.2,7.2,-3.2,17.45,26.81,692.7552,140.0014],
    [16516,1525554681,57.3408,-111.6649,709.7,466.7,182.2,7.0,-3.3,17.01,28.12,692.8126,139.9959],
    [16517,1525554682,57.3402,-111.6648,709.0,464.2,182.9,7.9,-3.6,16.81,27.63,692.6235,139.9989],
    [16518,1525554683,57.3396,-111.6647,707.4,458.4,183.6,8.3,-3.6,16.89,27.58,692.5003,139.995],
    [16519,1525554684,57.339,-111.6646,707.1,457.2,183.1,7.2,-3.4,16.94,27.5,692.0195,140.0058],
    [16520,1525554685,57.3383,-111.6646,707.9,455.9,182.8,6.8,-3.5,16.78,27.63,691.8691,139.9887],
    [16521,1525554686,57.3378,-111.6645,708.0,452.6,185.0,9.0,-3.5,17.55,27.16,691.7263,139.9961],
    [16522,1525554687,57.3371,-111.6645,708.7,451.7,184.7,8.9,-3.2,16.61,27.62,691.3552,139.9992],
    [16523,1525554688,57.3365,-111.6644,712.3,451.1,183.3,8.4,-1.9,17.0,27.6,691.1183,139.9919],
    [16524,1525554689,57.3359,-111.6643,715.6,453.1,183.3,8.8,0.0,16.85,27.68,690.9167,140.0098],
    [16525,1525554690,57.3352,-111.6642,717.6,455.2,184.5,10.8,0.8,16.51,27.88,690.6913,140.0097],
    [16526,1525554691,57.3346,-111.6642,719.8,456.2,185.2,11.4,1.2,16.46,27.74,690.6201,139.9971],
    [16527,1525554692,57.334,-111.6641,723.0,459.4,185.4,11.1,1.1,16.91,27.47,690.5012,139.9918],
    [16528,1525554693,57.3334,-111.664,726.4,463.0,185.9,11.2,1.9,16.93,27.48,690.1888,140.005],
    [16529,1525554694,57.3328,-111.6639,729.4,467.1,186.2,11.0,1.1,16.97,27.55,690.111,139.996],
    [16530,1525554695,57.3322,-111.6639,731.7,467.7,185.7,10.1,0.8,16.91,27.42,690.0753,139.9857],
    [16531,1525554696,57.3316,-111.6638,733.4,469.3,185.9,10.6,0.6,17.15,26.91,689.9019,140.0041],
    [16532,1525554697,57.331,-111.6638,735.0,472.0,187.6,12.3,0.7,16.89,27.61,690.0259,139.9937],
    [16533,1525554698,57.3304,-111.6637,737.5,474.5,186.5,10.3,1.1,16.46,27.36,690.1306,140.0171],
    [16534,1525554699,57.3297,-111.6637,739.6,475.7,186.8,10.8,2.1,16.71,27.25,690.318,140.0025],
    [16535,1525554700,57.3292,-111.6636,741.3,475.6,189.3,13.0,1.7,16.8,28.0,690.6218,140.0091],
    [16536,1525554701,57.3286,-111.6636,742.7,476.7,189.0,12.1,0.4,16.59,27.37,690.8447,139.9966],
    [16537,1525554702,57.3279,-111.6636,741.3,472.6,189.4,12.2,0.0,16.6,27.44,691.1751,140.0072],
    [16538,1525554703,57.3273,-111.6636,740.0,471.3,187.0,9.6,-0.2,16.92,27.23,691.3403,140.002],
    [16539,1525554704,57.3267,-111.6636,737.4,468.7,187.0,10.0,-0.6,17.1,27.72,691.3661,140.0019],
    [16540,1525554705,57.3261,-111.6635,735.0,466.3,187.2,10.0,-0.5,16.97,27.47,691.4693,140.0061],
    [16541,1525554706,57.3255,-111.6635,731.6,463.9,188.0,10.4,-1.1,16.67,27.4,691.503,139.997],
    [16542,1525554707,57.3249,-111.6635,728.4,461.1,188.7,10.6,-0.7,16.76,27.36,691.643,140.0053],
    [16543,1525554708,57.3243,-111.6635,726.0,457.5,189.7,11.5,-0.4,17.32,26.74,691.7482,140.0024],
    [16544,1525554709,57.3237,-111.6635,724.7,455.3,190.0,11.4,-0.5,16.99,27.75,691.8923,140.0042],
    [16545,1525554710,57.3231,-111.6635,724.1,454.6,189.2,10.8,-0.7,16.71,27.45,692.0723,139.9979],
    [16546,1525554711,57.3225,-111.6635,723.5,453.2,190.4,12.3,-1.1,16.98,27.08,692.2164,140.0023],
    [16547,1525554712,57.3219,-111.6635,722.6,451.2,189.9,11.8,-1.2,17.05,26.75,692.349,140.0044],
    [16548,1525554713,57.3213,-111.6635,721.4,449.0,189.3,11.3,-1.3,16.65,27.33,692.4087,140.005],
    [16549,1525554714,57.3207,-111.6635,719.6,447.3,189.5,11.2,-1.5,17.16,26.72,692.4987,139.9993],
    [16550,1525554715,57.32,-111.6635,717.9,445.6,189.5,11.0,-1.4,17.16,26.78,692.5236,139.9991],
    [16551,1525554716,57.3194,-111.6635,716.1,443.7,190.7,11.6,-1.7,16.88,27.62,692.6285,140.0084],
    [16552,1525554717,57.3188,-111.6635,714.5,442.1,190.8,11.5,-1.9,16.83,27.66,692.6933,139.996],
    [16553,1525554718,57.3183,-111.6635,713.3,441.0,190.7,11.3,-2.3,17.23,27.16,692.8175,140.0014],
    [16554,1525554719,57.3176,-111.6635,712.3,440.9,190.1,10.7,-2.1,16.54,27.49,692.8465,140.0033],
    [16555,1525554720,57.317,-111.6636,711.4,440.0,190.9,11.4,-2.2,16.59,27.1,692.8802,139.9996],
    [16556,1525554721,57.3164,-111.6636,710.6,439.3,190.5,10.6,-2.6,17.13,26.27,692.961,140.0002],
    [16557,1525554722,57.3158,-111.6636,709.7,439.0,190.6,10.6,-2.5,17.01,26.76,692.9706,139.9975],
    [16558,1525554723,57.3152,-111.6636,708.9,439.9,191.3,11.2,-2.4,17.49,26.62,692.928,140.0029],
    [16559,1525554724,57.3146,-111.6637,708.0,439.0,190.8,10.8,-2.5,16.99,26.59,692.8598,140.0017],
    [16560,1525554725,57.314,-111.6637,707.2,438.2,190.8,11.0,-2.8,16.82,27.34,692.7844,139.9965],
    [16561,1525554726,57.3134,-111.6637,706.7,437.7,190.6,10.9,-2.5,16.71,26.89,692.7003,140.0019],
    [16562,1525554727,57.3128,-111.6637,706.5,438.5,190.4,10.8,-2.2,16.63,26.96,692.6078,139.9975],
    [16563,1525554728,57.3123,-111.6637,706.8,439.8,190.1,10.3,-2.2,16.68,26.95,692.3677,140.0047],
    [16564,1525554729,57.3116,-111.6638,707.7,440.8,189.6,9.4,-2.1,16.64,26.87,692.3596,140.0076],
    [16565,1525554730,57.311,-111.6638,708.7,440.4,189.9,9.1,-1.7,16.18,27.06,692.4549,139.9979],
    [16566,1525554731,57.3104,-111.6638,709.6,441.6,190.6,9.2,-1.3,16.87,27.0,692.3983,140.0075],
    [16567,1525554732,57.3098,-111.6639,711.0,445.6,191.6,9.1,-1.5,17.4,26.46,692.3269,140.0087],
    [16568,1525554733,57.3092,-111.664,712.7,448.3,192.5,8.5,-1.6,16.87,27.04,692.1954,139.9968],
    [16569,1525554734,57.3086,-111.6641,713.1,449.8,194.6,8.5,-1.7,16.67,27.27,692.1403,140.0062],
    [16570,1525554735,57.3081,-111.6642,712.8,452.0,198.4,9.6,-1.2,16.83,27.7,692.0901,140.0062],
    [16571,1525554736,57.3075,-111.6645,712.8,456.1,203.0,9.3,-2.2,16.8,27.87,692.2405,139.9908],
    [16572,1525554737,57.307,-111.6648,714.3,463.1,206.3,7.6,-2.8,16.63,27.26,692.4265,139.9951],
    [16573,1525554738,57.3065,-111.6651,715.8,468.8,210.9,8.1,-3.5,17.13,27.29,692.7777,140.0056],
    [16574,1525554739,57.3059,-111.6656,716.8,475.1,215.0,8.0,-4.0,16.81,28.21,692.8317,139.993],
    [16575,1525554740,57.3055,-111.6661,716.9,476.8,217.7,7.0,-3.5,17.26,27.18,693.0456,139.9969],
    [16576,1525554741,57.305,-111.6666,715.6,477.7,222.3,8.7,-3.5,16.8,27.91,693.1837,139.9984],
    [16577,1525554742,57.3046,-111.6672,713.1,476.1,228.1,9.8,-4.7,16.98,27.49,693.392,140.008],
    [16578,1525554743,57.3042,-111.6678,710.5,473.5,231.9,9.5,-4.7,16.2,27.83,693.5587,139.9988],
    [16579,1525554744,57.3038,-111.6686,708.2,471.2,235.8,9.1,-3.5,16.81,28.04,693.7997,140.006],
    [16580,1525554745,57.3034,-111.6693,706.5,469.5,239.7,9.3,-3.0,16.93,27.76,693.8544,139.9969],
    [16581,1525554746,57.3031,-111.6701,704.6,467.6,243.5,8.9,-3.1,16.31,27.91,694.1218,139.9966],
    [16582,1525554747,57.3029,-111.6709,702.4,465.4,246.5,8.3,-2.5,16.51,27.59,694.306,139.9972],
    [16583,1525554748,57.3026,-111.6718,700.3,463.3,250.3,7.5,-2.7,17.01,28.09,694.5748,139.9984],
    [16584,1525554749,57.3024,-111.6727,697.9,460.9,253.3,7.0,-1.9,16.74,27.79,694.757,139.9928],
    [16585,1525554750,57.3023,-111.6736,695.5,459.5,255.3,6.9,-1.1,16.67,27.56,694.942,140.002],
    [16586,1525554751,57.3021,-111.6745,693.1,457.1,258.9,7.2,-2.3,17.42,26.96,695.1114,139.9973],
    [16587,1525554752,57.302,-111.6755,690.2,454.2,262.3,7.1,-3.2,16.79,28.42,695.4736,139.9947],
    [16588,1525554753,57.3019,-111.6763,687.6,451.3,264.3,7.3,-3.6,17.09,27.31,695.5845,140.0004],
    [16589,1525554754,57.3018,-111.6774,684.6,446.4,265.8,7.2,-4.0,16.82,28.17,695.6481,140.0021],
    [16590,1525554755,57.3017,-111.6783,682.0,442.3,265.3,7.2,-3.1,16.81,27.81,695.7778,139.9995],
    [16591,1525554756,57.3017,-111.6793,679.4,437.8,264.4,6.7,-2.7,17.44,26.73,695.642,140.0087],
    [16592,1525554757,57.3016,-111.6803,676.4,431.0,265.6,7.7,-4.0,17.0,27.09,695.6206,140.0117],
    [16593,1525554758,57.3015,-111.6812,673.8,427.0,265.1,8.0,-3.3,16.6,27.26,695.5143,139.9991],
    [16594,1525554759,57.3014,-111.6822,672.5,423.6,264.3,8.7,-2.9,16.8,27.38,695.3633,140.0008],
    [16595,1525554760,57.3013,-111.6832,671.8,422.8,265.7,8.1,-4.4,16.97,26.99,695.2977,140.0006],
    [16596,1525554761,57.3013,-111.6842,672.3,424.9,265.1,7.7,-3.5,16.15,27.39,695.0718,139.998],
    [16597,1525554762,57.3012,-111.6852,673.4,430.1,265.1,6.5,-3.0,17.09,27.23,695.0093,139.9971],
    [16598,1525554763,57.3011,-111.6861,674.3,434.5,266.2,6.4,-3.6,17.25,27.17,695.0331,139.9974],
    [16599,1525554764,57.301,-111.6872,676.2,436.5,266.7,6.1,-3.4,16.5,27.43,694.9959,139.9993],
    [16600,1525554765,57.301,-111.6882,677.5,434.9,267.1,5.6,-3.4,16.78,27.35,694.9052,140.005],
    [16601,1525554766,57.3009,-111.6892,679.3,432.3,268.5,6.1,-3.8,17.29,26.87,694.6941,140.0042],
    [16602,1525554767,57.3009,-111.6901,680.5,423.8,269.7,6.9,-3.8,16.78,27.51,694.5442,140.0036],
    [16603,1525554768,57.3008,-111.6911,680.7,415.3,271.4,7.3,-3.9,16.95,27.36,694.2702,140.0039],
    [16604,1525554769,57.3008,-111.6921,681.1,410.0,273.4,7.8,-4.1,17.22,26.9,694.0671,139.9994],
    [16605,1525554770,57.3008,-111.6931,682.2,407.7,274.5,8.0,-3.5,16.9,27.4,693.8687,140.0048],
    [16606,1525554771,57.3009,-111.6941,684.1,407.8,275.6,8.0,-3.7,16.66,27.25,693.773,139.9967],
    [16607,1525554772,57.3009,-111.6949,686.2,409.3,276.7,7.5,-4.0,16.91,27.55,693.6647,139.9991],
    [16608,1525554773,57.3009,-111.6959,689.1,410.1,276.3,7.1,-3.3,16.72,27.27,693.458,140.0065],
    [16609,1525554774,57.301,-111.6969,692.2,412.3,275.9,6.7,-2.8,16.69,27.1,693.3185,140.0005],
    [16610,1525554775,57.301,-111.6979,694.4,412.3,274.7,7.0,-2.4,17.41,26.63,693.3137,139.9972],
    [16611,1525554776,57.301,-111.6988,696.2,413.2,274.2,6.9,-3.5,16.71,27.62,693.2943,140.0058],
    [16612,1525554777,57.301,-111.6998,697.9,413.8,273.9,6.7,-4.6,16.88,27.81,693.324,140.0011],
    [16613,1525554778,57.301,-111.7007,699.7,414.4,270.9,6.2,-2.9,16.93,27.55,693.3205,140.0029],
    [16614,1525554779,57.301,-111.7016,701.4,414.3,269.0,5.4,-2.5,17.64,26.6,693.1887,140.0015],
    [16615,1525554780,57.3009,-111.7025,702.0,414.0,269.7,5.3,-3.2,16.79,27.2,692.9311,139.9982],
    [16616,1525554781,57.3009,-111.7034,702.0,414.0,268.9,5.2,-2.3,16.35,27.22,692.8397,139.997],
    [16617,1525554782,57.3009,-111.7044,702.1,413.1,268.2,5.6,-1.5,17.12,27.2,692.5766,140.0016],
    [16618,1525554783,57.3009,-111.7054,702.4,413.4,269.0,5.9,-2.1,17.19,26.72,692.3599,139.9984],
    [16619,1525554784,57.3008,-111.7063,703.4,414.4,268.4,6.2,-1.5,16.73,27.33,692.1169,140.0028],
    [16620,1525554785,57.3008,-111.7072,705.6,415.6,266.9,6.6,-0.4,17.15,27.25,691.9838,140.0011],
    [16621,1525554786,57.3008,-111.7081,707.6,417.6,267.5,7.3,-1.2,16.98,28.16,691.9327,139.9998],
    [16622,1525554787,57.3007,-111.709,710.0,420.0,267.6,7.9,-1.2,16.98,27.14,691.9156,139.9996],
    [16623,1525554788,57.3007,-111.71,712.9,422.9,268.0,8.3,-1.8,17.59,27.07,691.944,139.9945],
    [16624,1525554789,57.3007,-111.7108,715.7,425.7,269.0,7.9,-2.6,16.85,27.66,691.9091,140.0036],
    [16625,1525554790,57.3006,-111.7118,717.8,427.8,268.4,7.7,-1.9,16.41,27.43,691.8097,140.0071],
    [16626,1525554791,57.3006,-111.7127,718.9,428.9,269.1,7.4,-2.5,16.93,28.03,691.4392,140.0043],
    [16627,1525554792,57.3006,-111.7135,719.2,429.2,270.6,7.2,-3.2,16.95,28.07,691.0848,139.9869],
    [16628,1525554793,57.3005,-111.7144,719.1,428.1,271.7,7.4,-3.3,16.86,27.71,690.914,139.9793],
    [16629,1525554794,57.3005,-111.7153,719.4,428.4,273.0,7.3,-3.7,16.39,27.5,690.4839,139.9981],
    [16630,1525554795,57.3005,-111.7162,720.4,429.4,273.5,7.0,-3.3,16.86,28.36,690.3115,139.9997],
    [16631,1525554796,57.3005,-111.7171,722.8,431.8,272.8,7.7,-2.0,16.8,27.86,690.159,140.0024],
    [16632,1525554797,57.3006,-111.718,726.8,435.8,271.7,8.5,-0.3,17.01,27.43,689.922,140.0021],
    [16633,1525554798,57.3006,-111.7187,731.1,440.1,272.8,10.2,-1.0,17.42,27.39,689.7645,140.0045],
    [16634,1525554799,57.3006,-111.7197,735.0,443.3,274.4,10.9,-1.8,17.06,27.27,689.7049,140.0049],
    [16635,1525554800,57.3006,-111.7205,737.7,445.7,275.7,11.1,-2.6,16.63,27.85,689.5677,139.9879],
    [16636,1525554801,57.3007,-111.7214,740.4,448.4,276.6,10.7,-2.4,17.17,27.44,689.574,139.9998],
    [16637,1525554802,57.3007,-111.7222,743.0,450.3,277.3,9.9,-2.1,16.9,27.84,689.6226,140.0088],
    [16638,1525554803,57.3008,-111.723,744.9,451.9,277.7,9.5,-2.0,17.51,27.4,689.7356,139.9978],
    [16639,1525554804,57.3008,-111.7239,746.5,452.5,276.1,9.3,-0.7,17.21,26.99,689.6799,140.0026],
    [16640,1525554805,57.3009,-111.7247,747.5,453.5,275.5,9.2,-1.1,17.07,27.88,689.7876,140.0066],
    [16641,1525554806,57.3009,-111.7255,748.1,453.1,274.7,9.3,-1.2,16.89,27.55,689.8257,139.9907],
    [16642,1525554807,57.3009,-111.7263,747.8,451.8,272.6,9.0,-0.4,16.8,27.85,689.6584,139.9981],
    [16643,1525554808,57.3009,-111.7272,746.6,449.6,271.4,8.8,-0.9,16.63,28.08,689.3345,139.9853],
    [16644,1525554809,57.3009,-111.728,745.7,447.7,270.1,9.2,-0.7,16.94,27.73,689.1293,140.0002],
    [16645,1525554810,57.3009,-111.7289,744.6,445.6,267.9,8.7,-0.1,16.53,27.93,688.9589,140.008],
    [16646,1525554811,57.3009,-111.7296,744.3,444.3,268.1,8.2,-1.9,16.95,27.25,688.9482,139.998],
    [16647,1525554812,57.3009,-111.7305,745.4,445.5,268.4,8.7,-3.2,16.63,27.87,688.8536,139.9897],
    [16648,1525554813,57.3008,-111.7314,748.6,447.6,267.1,9.4,-2.8,16.51,28.07,688.9005,139.9969],
    [16649,1525554814,57.3008,-111.7321,751.5,450.5,267.2,8.1,-2.7,16.76,28.54,688.9785,140.0065],
    [16650,1525554815,57.3007,-111.7331,754.1,452.1,265.0,6.9,-0.3,16.82,28.18,689.1149,139.9916],
    [16651,1525554816,57.3007,-111.7339,755.2,453.2,265.4,7.1,-0.7,16.9,28.14,689.2029,140.0007],
    [16652,1525554817,57.3006,-111.7348,756.0,453.7,267.5,7.9,-2.8,17.29,28.02,689.1343,140.0042],
    [16653,1525554818,57.3006,-111.7357,755.7,452.7,269.2,7.7,-3.5,16.63,28.45,689.0864,140.0008],
    [16654,1525554819,57.3005,-111.7366,754.8,451.8,268.9,7.8,-2.7,16.31,28.68,688.9242,139.9903],
    [16655,1525554820,57.3005,-111.7375,753.7,450.7,270.6,8.1,-3.7,16.67,28.94,688.8078,139.9919],
    [16656,1525554821,57.3005,-111.7384,752.7,449.7,271.2,8.4,-3.6,16.63,28.54,688.6569,139.9944],
    [16657,1525554822,57.3004,-111.7393,752.7,450.3,270.9,8.2,-3.0,16.69,28.67,688.5828,139.9955],
    [16658,1525554823,57.3004,-111.7402,753.4,451.4,270.5,7.6,-2.7,17.06,27.89,688.4396,140.0029],
    [16659,1525554824,57.3004,-111.7411,755.0,453.0,271.3,7.8,-3.2,16.67,28.15,688.3424,140.0051],
    [16660,1525554825,57.3004,-111.7419,756.6,455.3,271.5,9.2,-3.1,16.87,27.91,688.2384,139.9975],
    [16661,1525554826,57.3004,-111.7428,758.1,457.1,272.2,9.7,-3.1,16.84,27.69,688.172,139.9909],
    [16662,1525554827,57.3004,-111.7437,759.5,458.5,272.6,9.9,-3.4,16.67,28.78,687.957,139.9925],
    [16663,1525554828,57.3004,-111.7446,760.8,459.8,273.8,9.8,-4.5,16.78,28.23,687.9111,139.9941],
    [16664,1525554829,57.3004,-111.7455,761.7,461.6,273.4,10.1,-3.8,15.99,28.27,687.7776,139.9977],
    [16665,1525554830,57.3004,-111.7465,763.0,462.0,273.4,9.7,-3.6,16.61,28.5,687.5775,139.9954],
    [16666,1525554831,57.3004,-111.7474,764.4,463.4,274.2,9.6,-4.4,16.95,27.83,687.3204,140.0006],
    [16667,1525554832,57.3004,-111.7482,765.3,464.3,273.7,9.5,-3.9,16.62,28.04,687.0489,139.9886],
    [16668,1525554833,57.3004,-111.7492,766.9,465.9,272.7,10.0,-3.3,16.76,27.6,686.6469,139.983],
    [16669,1525554834,57.3004,-111.75,768.5,467.5,273.3,10.1,-4.1,16.68,28.18,686.5156,139.9916],
    [16670,1525554835,57.3004,-111.751,770.4,469.4,273.1,11.0,-3.5,16.24,27.96,686.4826,140.0078],
    [16671,1525554836,57.3004,-111.7519,772.5,471.5,271.9,12.2,-2.0,16.61,28.27,686.2755,140.0046],
    [16672,1525554837,57.3004,-111.7528,775.7,474.7,272.5,12.8,-2.5,17.01,27.57,686.3292,139.9974],
    [16673,1525554838,57.3004,-111.7537,779.1,477.1,274.1,13.8,-3.7,16.25,28.03,686.3411,140.0051],
    [16674,1525554839,57.3004,-111.7546,782.0,480.0,274.5,12.9,-3.8,16.51,27.85,686.4519,139.9925],
    [16675,1525554840,57.3004,-111.7555,783.3,481.3,272.8,11.1,-0.9,17.15,27.3,686.546,139.9986],
    [16676,1525554841,57.3004,-111.7564,784.7,482.7,270.1,12.8,1.7,16.33,28.16,686.6229,140.0039],
    [16677,1525554842,57.3005,-111.7573,785.7,483.7,273.6,12.0,-2.4,16.21,27.96,686.6624,139.9986],
    [16678,1525554843,57.3005,-111.7583,785.7,483.7,272.9,11.2,-2.0,16.93,27.53,686.8284,140.0054],
    [16679,1525554844,57.3005,-111.7591,784.9,482.9,272.6,11.3,-2.6,17.08,27.87,687.0213,139.9984],
    [16680,1525554845,57.3005,-111.7601,783.9,481.9,271.9,11.3,-2.8,16.41,28.06,687.2664,140.0018],
    [16681,1525554846,57.3005,-111.7611,783.3,482.3,270.4,11.0,-2.0,16.75,27.77,687.3114,140.0039],
    [16682,1525554847,57.3005,-111.762,781.7,479.7,270.8,10.5,-3.0,17.36,27.51,687.5313,139.9947],
    [16683,1525554848,57.3004,-111.7629,780.1,477.1,269.8,9.9,-1.7,16.44,27.73,687.5709,139.9932],
    [16684,1525554849,57.3004,-111.7639,778.1,475.1,268.6,9.6,-0.7,16.57,28.1,687.9094,140.0062],
    [16685,1525554850,57.3004,-111.7648,775.7,471.4,269.5,9.7,-1.7,16.33,28.06,687.9583,139.9983],
    [16686,1525554851,57.3004,-111.7657,773.6,468.6,268.6,9.5,-0.9,16.38,28.55,688.1259,140.0141],
    [16687,1525554852,57.3004,-111.7667,772.0,466.0,268.9,10.0,-1.2,16.2,28.14,688.1272,140.0092],
    [16688,1525554853,57.3003,-111.7677,769.6,463.6,269.4,10.4,-1.5,16.74,27.69,688.1144,139.9956],
    [16689,1525554854,57.3003,-111.7687,767.3,462.3,268.4,10.0,-0.2,16.63,27.92,688.0976,140.0002],
    [16690,1525554855,57.3003,-111.7696,766.0,461.0,269.8,9.7,-2.0,16.7,28.27,688.1424,140.0005],
    [16691,1525554856,57.3003,-111.7706,764.6,459.6,270.6,9.3,-2.5,16.81,27.7,688.139,139.9961],
    [16692,1525554857,57.3003,-111.7716,763.7,459.7,269.0,9.6,-1.0,16.02,27.92,688.4515,139.9976],
    [16693,1525554858,57.3002,-111.7726,763.8,459.8,270.5,9.8,-2.8,16.53,28.51,688.7611,140.0025],
    [16694,1525554859,57.3002,-111.7736,764.5,460.5,269.8,9.5,-1.9,16.27,27.8,689.0195,140.002],
    [16695,1525554860,57.3002,-111.7745,764.3,460.3,269.3,9.2,-1.4,16.54,28.51,689.3385,140.009],
    [16696,1525554861,57.3002,-111.7755,762.9,458.9,269.9,9.0,-2.2,16.88,27.85,689.4538,140.0025],
    [16697,1525554862,57.3002,-111.7765,760.0,455.0,270.2,9.6,-2.1,16.45,27.94,689.546,140.0095],
    [16698,1525554863,57.3001,-111.7775,757.0,452.0,270.3,9.9,-1.3,16.56,28.37,689.4591,140.0024],
    [16699,1525554864,57.3001,-111.7784,754.3,449.0,271.7,9.5,-2.1,16.23,27.69,689.1237,139.9952],
    [16700,1525554865,57.3001,-111.7794,751.4,445.3,273.5,8.7,-2.9,16.42,27.71,689.0433,140.0054],
    [16701,1525554866,57.3002,-111.7804,748.7,442.7,273.6,8.3,-2.1,16.56,27.92,688.8557,140.002],
    [16702,1525554867,57.3002,-111.7814,747.2,440.9,273.8,8.9,-1.9,16.51,27.63,688.5779,140.0],
    [16703,1525554868,57.3002,-111.7823,747.2,440.2,272.7,9.0,-0.8,16.77,27.45,688.4785,140.0088],
    [16704,1525554869,57.3002,-111.7833,748.9,440.9,272.7,9.3,-1.3,16.13,27.83,688.3002,139.9992],
    [16705,1525554870,57.3002,-111.7843,751.4,442.5,272.8,9.4,-1.5,16.08,27.56,688.2639,139.9946],
    [16706,1525554871,57.3003,-111.7853,754.9,444.9,273.5,9.2,-2.5,16.53,27.53,688.1375,139.9999],
    [16707,1525554872,57.3003,-111.7862,758.3,447.3,275.5,9.0,-3.9,16.93,27.27,688.0308,139.9974],
    [16708,1525554873,57.3003,-111.7872,760.3,449.3,273.8,8.4,-1.4,16.53,27.55,687.8167,140.0039],
    [16709,1525554874,57.3003,-111.7881,762.3,451.3,272.5,8.0,-0.4,16.78,27.24,687.8384,139.9985],
    [16710,1525554875,57.3003,-111.7891,763.4,452.4,273.9,8.3,-2.3,16.58,27.64,687.8585,140.0014],
    [16711,1525554876,57.3004,-111.79,764.3,453.3,273.2,8.4,-1.8,16.65,27.22,687.9107,140.0018],
    [16712,1525554877,57.3004,-111.7909,765.5,454.5,272.5,9.2,-1.6,16.51,27.61,688.0052,139.9951],
    [16713,1525554878,57.3004,-111.7917,767.1,456.1,272.1,8.8,-1.2,16.11,27.54,688.0455,140.0022],
    [16714,1525554879,57.3004,-111.7927,768.4,457.4,272.4,8.6,-2.2,16.83,27.35,688.058,140.0012],
    [16715,1525554880,57.3004,-111.7937,768.2,456.2,272.2,8.0,-2.0,16.75,27.77,687.997,140.0028],
    [16716,1525554881,57.3004,-111.7946,767.8,455.8,270.6,8.9,-0.6,16.81,27.37,687.9656,139.9974],
    [16717,1525554882,57.3004,-111.7956,766.8,454.8,271.1,9.0,-1.4,16.54,27.62,687.9709,139.9949],
    [16718,1525554883,57.3004,-111.7966,765.9,453.9,271.0,9.3,-1.6,16.55,27.89,688.0279,140.0],
    [16719,1525554884,57.3004,-111.7975,765.8,452.8,271.4,8.9,-2.2,16.54,27.7,688.0826,140.0007],
    [16720,1525554885,57.3004,-111.7984,766.4,453.4,271.1,9.1,-1.9,16.8,27.99,688.2685,140.0037],
    [16721,1525554886,57.3004,-111.7993,766.7,453.7,270.8,9.5,-1.8,16.3,27.76,688.3788,139.9989],
    [16722,1525554887,57.3004,-111.8002,766.6,452.6,271.3,9.8,-2.3,16.37,27.98,688.5285,140.0075],
    [16723,1525554888,57.3004,-111.8012,765.9,451.9,270.5,10.4,-1.2,16.15,28.0,688.5063,140.0077],
    [16724,1525554889,57.3004,-111.802,765.1,451.1,270.5,10.2,-1.1,16.54,27.78,688.5316,140.0096],
    [16725,1525554890,57.3004,-111.8031,763.3,448.3,270.7,9.5,-0.6,16.8,27.62,688.5186,139.9995],
    [16726,1525554891,57.3004,-111.804,761.9,446.9,270.9,9.8,-0.9,16.25,27.74,688.52,140.0009],
    [16727,1525554892,57.3004,-111.8049,760.7,445.7,272.8,10.3,-2.6,16.5,27.99,688.5101,140.0034],
    [16728,1525554893,57.3004,-111.8059,760.5,444.5,271.7,9.8,-1.4,16.11,27.74,688.5779,140.0056],
    [16729,1525554894,57.3004,-111.8067,760.5,444.5,271.0,9.0,-0.9,16.9,27.45,688.5982,140.004],
    [16730,1525554895,57.3004,-111.8077,760.5,444.5,271.0,8.5,-1.2,17.17,27.41,688.4803,139.9976],
    [16731,1525554896,57.3004,-111.8086,760.8,445.8,271.6,8.0,-1.8,16.3,27.81,688.4363,140.0015],
    [16732,1525554897,57.3004,-111.8094,760.8,445.8,271.5,7.3,-1.5,16.87,27.26,688.4454,139.9955],
    [16733,1525554898,57.3004,-111.8105,760.0,446.0,270.0,7.4,0.0,16.4,27.9,688.4701,139.9965],
    [16734,1525554899,57.3004,-111.8114,759.8,445.8,269.7,7.6,-0.1,16.99,27.86,688.5294,139.9971],
    [16735,1525554900,57.3004,-111.8123,760.7,446.7,270.3,7.3,-0.8,16.83,27.53,688.657,140.0005],
    [16736,1525554901,57.3004,-111.8132,761.5,447.5,269.6,7.3,-0.1,16.5,28.31,688.9674,139.9974],
    [16737,1525554902,57.3004,-111.8141,761.7,446.7,269.2,7.3,0.1,16.17,28.43,689.059,140.0061],
    [16738,1525554903,57.3004,-111.8151,761.1,446.1,270.3,7.2,-1.0,16.65,27.84,689.0797,139.9997],
    [16739,1525554904,57.3004,-111.8159,760.3,444.3,270.6,6.5,-1.1,17.03,27.7,689.1039,140.0037],
    [16740,1525554905,57.3004,-111.8169,758.9,442.2,271.4,6.8,-1.4,16.69,27.85,689.0563,139.9942],
    [16741,1525554906,57.3004,-111.8179,755.8,438.8,272.8,7.2,-2.2,16.51,28.5,689.1216,139.9968],
    [16742,1525554907,57.3004,-111.8188,753.8,435.8,272.5,8.0,-1.7,16.81,27.53,689.1273,140.002],
    [16743,1525554908,57.3004,-111.8196,753.6,435.6,271.7,8.3,-0.8,16.43,28.2,689.1358,139.9979],
    [16744,1525554909,57.3004,-111.8206,753.3,434.3,271.6,8.3,-0.5,16.47,28.13,689.1261,139.9987],
    [16745,1525554910,57.3004,-111.8216,753.1,434.1,271.0,8.7,0.1,16.2,28.09,689.0911,139.997],
    [16746,1525554911,57.3004,-111.8225,752.8,432.8,271.4,9.9,-0.8,16.93,27.83,689.0922,140.0106],
    [16747,1525554912,57.3004,-111.8234,752.7,432.7,272.0,9.4,-1.9,16.61,27.97,689.0396,140.0092],
    [16748,1525554913,57.3004,-111.8244,752.5,432.5,271.4,9.0,-1.7,16.4,28.99,688.9284,140.008],
    [16749,1525554914,57.3004,-111.8253,752.3,432.3,270.0,9.5,-1.0,16.46,28.16,688.8488,140.0014],
    [16750,1525554915,57.3004,-111.8262,752.6,432.6,269.9,10.1,-1.5,16.58,28.03,688.8116,140.0023],
    [16751,1525554916,57.3004,-111.8271,753.2,433.2,269.2,10.3,-1.4,16.48,28.6,688.7643,139.9983],
    [16752,1525554917,57.3004,-111.8281,753.9,433.9,268.5,9.1,-1.3,16.65,27.71,688.5548,139.9952],
    [16753,1525554918,57.3003,-111.829,754.9,434.9,268.0,8.4,-1.4,16.39,27.94,688.5299,139.9952],
    [16754,1525554919,57.3003,-111.8299,756.3,436.3,267.8,8.1,-1.6,16.64,27.94,688.4311,140.0061],
    [16755,1525554920,57.3003,-111.8308,756.9,436.9,267.9,8.3,-1.8,16.6,28.75,688.4182,140.0025],
    [16756,1525554921,57.3002,-111.8318,757.6,436.6,268.3,8.1,-2.0,16.22,28.35,688.4193,139.9914],
    [16757,1525554922,57.3002,-111.8327,758.8,437.8,267.7,8.0,-0.9,16.26,28.19,688.4155,140.0077],
    [16758,1525554923,57.3002,-111.8336,760.2,439.2,268.3,8.2,-1.2,16.48,27.6,688.0499,139.9942],
    [16759,1525554924,57.3001,-111.8344,761.4,440.4,268.8,7.1,-0.6,16.44,27.97,688.0751,139.9825],
    [16760,1525554925,57.3001,-111.8354,761.9,440.9,268.2,7.0,0.6,16.76,27.61,688.0118,140.0052],
    [16761,1525554926,57.3001,-111.8364,762.1,441.1,270.7,6.8,-1.7,16.96,27.54,687.8488,140.0014],
    [16762,1525554927,57.3001,-111.8373,762.6,441.6,271.6,6.3,-2.0,15.89,28.01,687.813,139.9911],
    [16763,1525554928,57.3001,-111.8382,764.0,443.0,269.8,6.8,-0.2,16.46,28.13,687.721,139.9883],
    [16764,1525554929,57.3001,-111.8391,765.5,444.5,270.3,8.3,-1.1,16.24,28.68,687.4568,140.0044],
    [16765,1525554930,57.3001,-111.8401,766.4,444.5,270.5,8.1,-1.3,16.43,28.23,687.2976,139.9888],
    [16766,1525554931,57.3001,-111.841,767.5,445.5,269.0,7.7,-0.5,16.45,28.19,687.0144,139.997],
    [16767,1525554932,57.3001,-111.8419,768.1,446.1,270.0,7.3,-2.1,16.46,28.29,686.9433,140.0012],
    [16768,1525554933,57.3,-111.8428,769.7,446.7,269.6,7.2,-2.2,16.63,28.29,687.0062,139.9988],
    [16769,1525554934,57.3,-111.8437,772.1,449.1,268.3,6.9,-1.5,16.36,28.43,686.863,140.0038],
    [16770,1525554935,57.3,-111.8447,775.0,451.3,269.5,6.3,-3.5,16.85,27.72,686.7733,140.0049],
    [16771,1525554936,57.2999,-111.8455,777.0,453.0,269.6,5.7,-3.3,16.51,28.67,686.7166,139.9994],
    [16772,1525554937,57.2999,-111.8465,778.8,454.8,266.6,6.8,-0.2,15.88,28.45,686.5612,139.9918],
    [16773,1525554938,57.2999,-111.8474,779.3,454.3,267.2,6.7,-1.0,16.49,28.84,686.3072,139.9976],
    [16774,1525554939,57.2998,-111.8484,780.6,455.6,266.9,5.2,-1.1,16.61,28.39,686.1234,139.9958],
    [16775,1525554940,57.2998,-111.8493,781.6,455.6,266.3,4.9,-0.7,16.05,28.48,685.9856,139.9886],
    [16776,1525554941,57.2997,-111.8502,782.8,456.8,266.9,5.1,-1.1,16.5,28.63,685.8872,139.9942],
    [16777,1525554942,57.2997,-111.8511,784.4,457.4,267.5,5.5,-1.7,16.79,28.43,685.8434,139.9856],
    [16778,1525554943,57.2997,-111.852,786.3,458.3,267.7,7.8,-1.1,16.85,28.28,686.0044,139.9971],
    [16779,1525554944,57.2996,-111.853,788.3,460.3,268.2,8.1,-0.6,16.52,29.06,686.0304,139.9971],
    [16780,1525554945,57.2996,-111.8539,790.6,461.6,270.4,7.8,-1.5,16.43,28.39,686.1643,139.9961],
    [16781,1525554946,57.2996,-111.8548,791.9,462.9,272.5,7.8,-2.3,16.14,28.97,686.1545,140.0067],
    [16782,1525554947,57.2996,-111.8557,792.1,463.1,274.7,7.8,-3.3,16.0,28.47,686.1962,139.9969],
    [16783,1525554948,57.2997,-111.8566,791.1,461.1,275.3,7.5,-2.7,16.38,29.14,686.2134,139.997],
    [16784,1525554949,57.2997,-111.8576,789.8,459.8,275.5,8.8,-2.7,16.85,28.01,686.077,140.0017],
    [16785,1525554950,57.2997,-111.8586,788.7,457.8,276.3,9.3,-3.3,16.18,28.66,686.1454,140.0],
    [16786,1525554951,57.2998,-111.8595,788.0,457.0,274.7,9.0,-2.0,16.49,28.48,686.1409,140.0086],
    [16787,1525554952,57.2998,-111.8605,787.8,456.8,274.4,8.9,-2.4,16.53,29.03,686.113,140.0014],
    [16788,1525554953,57.2998,-111.8614,787.6,456.6,274.5,9.4,-3.0,15.9,28.5,686.0205,139.9962],
    [16789,1525554954,57.2998,-111.8623,787.9,456.9,272.9,9.4,-1.8,16.54,28.31,685.667,139.9977],
    [16790,1525554955,57.2998,-111.8633,788.1,456.8,272.9,8.6,-2.1,16.71,28.13,685.4986,139.9932],
    [16791,1525554956,57.2998,-111.8642,788.0,456.0,272.0,8.1,-1.5,15.76,28.4,685.4111,139.9963],
    [16792,1525554957,57.2999,-111.8652,788.7,456.7,271.8,8.2,-2.1,15.88,28.36,685.28,139.9973],
    [16793,1525554958,57.2999,-111.8661,790.2,457.2,272.6,8.1,-3.0,17.05,27.97,685.261,139.9988],
    [16794,1525554959,57.2999,-111.8671,792.9,458.9,271.3,8.2,-1.4,16.02,28.31,685.0689,139.992],
    [16795,1525554960,57.2999,-111.868,795.5,461.2,271.3,8.8,-1.4,16.34,28.9,685.0045,139.995],
    [16796,1525554961,57.2999,-111.869,797.4,461.8,271.3,8.1,-1.2,16.38,29.15,684.811,139.9969],
    [16797,1525554962,57.2999,-111.8699,798.2,462.2,271.3,8.2,-1.3,16.0,28.73,684.795,140.002],
    [16798,1525554963,57.2999,-111.8709,798.6,462.6,272.1,8.7,-2.1,15.9,28.32,684.7698,139.9978],
    [16799,1525554964,57.2999,-111.8718,799.3,463.3,272.5,9.2,-2.3,16.6,28.13,684.8615,139.9997],
    [16800,1525554965,57.2999,-111.8727,801.1,465.1,272.0,8.8,-1.3,16.49,28.27,684.8396,140.0018],
    [16801,1525554966,57.2999,-111.8737,803.2,468.2,270.4,8.8,0.5,16.24,27.97,684.9263,140.0064],
    [16802,1525554967,57.2999,-111.8746,804.4,469.4,270.0,8.7,1.1,16.38,28.38,684.8146,140.0036],
    [16803,1525554968,57.2999,-111.8756,804.6,469.6,270.6,8.0,0.5,16.28,28.35,684.8299,139.9992],
    [16804,1525554969,57.2999,-111.8765,804.0,469.0,270.4,8.6,1.2,16.43,28.29,684.823,140.0027],
    [16805,1525554970,57.2999,-111.8775,803.7,468.4,269.0,9.8,2.2,16.46,28.87,684.5235,139.9942],
    [16806,1525554971,57.2999,-111.8785,803.6,467.6,270.0,8.9,0.8,17.06,28.05,684.2708,139.9953],
    [16807,1525554972,57.2999,-111.8794,804.2,467.9,268.5,8.0,2.0,16.35,28.21,684.1526,139.9945],
    [16808,1525554973,57.2999,-111.8803,805.0,468.0,267.9,7.9,1.9,16.53,28.53,684.1298,139.9944],
    [16809,1525554974,57.2999,-111.8813,806.1,469.1,267.3,6.6,2.0,16.86,27.66,684.235,140.004],
    [16810,1525554975,57.2999,-111.8822,808.0,470.0,265.9,7.2,3.1,16.59,28.02,684.2613,140.0024],
    [16811,1525554976,57.2999,-111.8832,810.5,472.3,265.9,7.8,2.9,16.36,29.38,684.47,139.9995],
    [16812,1525554977,57.2999,-111.8842,812.6,473.6,266.5,8.0,1.5,16.59,28.71,684.3865,139.9987],
    [16813,1525554978,57.2999,-111.8851,813.4,473.4,267.1,7.4,0.2,16.15,28.57,684.5033,140.0019],
    [16814,1525554979,57.2998,-111.8861,812.1,472.1,265.8,8.1,1.1,16.28,28.35,684.5124,139.9997],
    [16815,1525554980,57.2998,-111.887,810.7,470.7,264.1,8.0,2.0,16.13,28.52,684.6144,139.9917],
    [16816,1525554981,57.2997,-111.888,809.5,469.5,264.9,7.7,0.3,16.88,27.99,684.9009,140.0004],
    [16817,1525554982,57.2997,-111.889,809.6,469.6,264.5,7.4,0.4,16.35,28.46,684.8819,140.0046],
    [16818,1525554983,57.2996,-111.89,808.9,468.9,264.4,7.7,1.0,16.44,28.82,684.7015,139.9969],
    [16819,1525554984,57.2996,-111.891,807.8,467.8,263.6,7.7,2.4,16.03,28.64,684.686,139.9973],
    [16820,1525554985,57.2995,-111.892,806.1,465.1,266.0,9.6,0.6,17.0,27.74,684.8184,139.9994],
    [16821,1525554986,57.2995,-111.893,803.7,461.7,269.1,9.7,-1.3,16.48,28.08,684.854,140.0145],
    [16822,1525554987,57.2995,-111.8939,803.3,461.3,269.5,9.5,-0.3,16.28,28.23,684.8446,139.9962],
    [16823,1525554988,57.2995,-111.8949,804.4,461.4,269.6,9.2,0.7,16.43,28.36,684.9904,139.996],
    [16824,1525554989,57.2995,-111.8959,805.1,461.4,270.6,9.7,0.3,16.41,28.04,685.3027,140.0005],
    [16825,1525554990,57.2995,-111.8969,804.4,460.4,270.8,10.2,1.1,16.89,27.41,685.4052,139.9944],
    [16826,1525554991,57.2995,-111.8979,803.9,459.9,270.6,9.2,1.9,16.79,28.33,685.6577,140.0123],
    [16827,1525554992,57.2996,-111.8989,803.7,459.7,271.7,8.6,1.2,16.96,27.57,685.7137,139.9971],
    [16828,1525554993,57.2996,-111.8999,802.3,458.3,273.2,8.6,0.4,16.54,28.46,685.8306,139.9917],
    [16829,1525554994,57.2996,-111.9009,799.7,455.7,274.3,8.5,0.1,16.86,27.83,685.9787,140.0069],
    [16830,1525554995,57.2997,-111.9019,797.2,453.2,274.9,8.0,0.3,16.03,28.12,685.9579,140.0007],
    [16831,1525554996,57.2997,-111.9029,795.1,450.1,275.5,8.5,0.5,16.27,27.92,685.833,140.0024],
    [16832,1525554997,57.2998,-111.9038,792.7,446.7,275.0,8.0,1.5,16.34,28.02,685.7441,140.0022],
    [16833,1525554998,57.2999,-111.9048,791.5,445.5,276.3,9.3,0.0,16.73,27.69,685.6697,139.9945],
    [16834,1525554999,57.2999,-111.9058,790.3,445.3,275.3,10.3,0.9,16.41,28.41,685.6373,140.0012],
    [16835,1525555000,57.3,-111.9068,790.2,445.2,273.4,10.8,1.3,16.05,28.24,685.7219,139.9982],
    [16836,1525555001,57.3,-111.9078,791.6,446.6,273.5,9.6,-0.9,16.42,27.99,685.7066,140.0107],
    [16837,1525555002,57.3001,-111.9088,793.1,448.1,272.7,8.7,-1.7,17.02,27.37,685.754,139.9923],
    [16838,1525555003,57.3001,-111.9098,793.9,447.9,269.8,9.4,-0.1,15.94,27.95,685.7512,139.9971],
    [16839,1525555004,57.3001,-111.9108,794.0,448.0,269.0,9.6,-0.5,16.06,27.95,685.6295,140.0026],
    [16840,1525555005,57.3,-111.9118,793.7,447.7,269.3,9.7,-1.0,16.27,28.23,685.5321,139.9955],
    [16841,1525555006,57.3,-111.9128,793.5,447.5,267.9,8.6,0.5,16.89,27.24,685.5871,139.9988],
    [16842,1525555007,57.3,-111.9138,793.2,447.2,269.0,8.7,-0.9,16.1,27.99,685.57,140.0004],
    [16843,1525555008,57.3,-111.9148,793.1,446.1,269.4,8.7,-1.0,16.37,28.07,685.5636,139.9891],
    [16844,1525555009,57.3,-111.9159,794.0,447.0,268.0,8.5,1.0,16.16,28.09,685.5264,140.0162],
    [16845,1525555010,57.3,-111.9169,795.0,447.0,269.5,7.9,-0.5,16.26,28.05,685.3917,139.9942],
    [16846,1525555011,57.3,-111.9179,794.9,445.9,269.3,7.8,0.2,15.78,27.97,685.1788,139.9843],
    [16847,1525555012,57.2999,-111.919,794.8,445.7,268.2,8.5,1.6,16.45,27.94,684.8823,140.0],
    [16848,1525555013,57.2999,-111.92,794.9,444.9,270.2,7.9,-0.3,16.4,27.93,684.7711,139.9942],
    [16849,1525555014,57.2999,-111.921,795.6,445.6,270.6,6.8,-0.1,16.2,27.99,684.794,140.0082],
    [16850,1525555015,57.3,-111.9221,797.0,446.0,270.0,7.3,0.3,16.32,27.86,684.6447,140.0008],
    [16851,1525555016,57.3,-111.9231,799.0,448.0,272.1,7.9,-1.7,16.37,28.15,684.4958,140.0012],
    [16852,1525555017,57.3,-111.9242,801.1,449.1,271.3,8.1,-0.9,15.84,28.13,684.3565,139.988],
    [16853,1525555018,57.3,-111.925,803.2,451.2,272.0,7.5,-2.0,15.89,27.99,684.2902,139.9984],
    [16854,1525555019,57.3,-111.9261,805.1,453.2,274.4,5.7,-4.6,16.41,27.81,684.2981,140.0151],
    [16855,1525555020,57.3,-111.9273,806.2,453.2,275.2,5.6,-5.1,16.15,27.91,683.9593,139.9869],
    [16856,1525555021,57.3,-111.9284,807.6,453.6,274.9,5.6,-4.4,16.76,27.73,683.9086,139.9976],
    [16857,1525555022,57.3,-111.9295,808.7,453.7,274.9,6.2,-4.3,16.79,27.82,683.8947,139.9953],
    [16858,1525555023,57.3,-111.9306,809.5,453.7,275.4,6.5,-4.7,16.21,28.17,683.7686,139.9891],
    [16859,1525555024,57.3001,-111.9316,810.4,454.3,274.2,6.0,-3.0,16.71,27.76,683.6893,139.9972],
    [16860,1525555025,57.3001,-111.9327,812.5,455.5,274.2,7.2,-2.7,16.28,27.83,683.5873,140.0047],
    [16861,1525555026,57.3001,-111.9337,814.3,456.3,274.2,7.3,-2.6,16.53,27.64,683.2577,140.0019],
    [16862,1525555027,57.3001,-111.9348,814.6,456.7,274.1,7.8,-2.8,16.5,28.54,683.2467,139.9923],
    [16863,1525555028,57.3001,-111.9359,815.2,456.1,274.2,8.2,-2.7,16.42,27.98,683.1558,140.0063],
    [16864,1525555029,57.3002,-111.937,816.8,455.8,272.9,8.7,-1.0,15.81,27.99,683.0057,140.0098],
    [16865,1525555030,57.3002,-111.9381,818.3,456.3,272.2,8.6,0.1,16.81,27.7,682.7579,139.9973],
    [16866,1525555031,57.3002,-111.9392,820.3,457.3,273.9,8.3,-0.9,16.62,27.71,682.651,139.9901],
    [16867,1525555032,57.3003,-111.9402,822.4,459.4,275.8,8.1,-1.2,16.41,27.86,682.3677,140.0022],
    [16868,1525555033,57.3003,-111.9413,824.1,461.1,278.7,7.4,-1.4,16.39,27.86,682.1796,140.0161],
    [16869,1525555034,57.3004,-111.9424,826.0,463.0,282.0,6.7,-1.4,16.32,28.01,681.8632,140.0004],
    [16870,1525555035,57.3006,-111.9433,827.7,463.7,284.4,6.5,-0.5,17.22,27.5,681.6353,140.0031],
    [16871,1525555036,57.3007,-111.9443,830.1,466.1,288.1,7.8,-1.8,16.52,27.87,681.4568,139.9969],
    [16872,1525555037,57.3009,-111.9453,833.0,466.9,291.7,6.7,-2.2,16.46,28.05,681.3187,139.9981],
    [16873,1525555038,57.3012,-111.9463,836.1,470.1,293.3,7.7,-1.1,16.13,28.34,680.819,140.0],
    [16874,1525555039,57.3014,-111.9472,839.6,472.6,296.8,6.8,-1.9,16.37,28.06,680.5033,139.9893],
    [16875,1525555040,57.3017,-111.9481,842.7,474.7,299.4,6.5,-1.5,16.81,27.42,680.1515,140.0132],
    [16876,1525555041,57.302,-111.9489,845.7,476.6,301.3,5.9,-0.5,16.45,28.56,679.9563,140.0095],
    [16877,1525555042,57.3023,-111.9497,848.8,479.2,304.0,6.0,-0.2,16.46,28.14,679.4731,139.9846],
    [16878,1525555043,57.3026,-111.9505,853.1,483.1,305.8,6.8,0.7,16.44,28.38,679.2044,139.9958],
    [16879,1525555044,57.303,-111.9513,857.0,486.0,309.9,6.1,-0.9,15.71,28.16,678.6844,139.9928],
    [16880,1525555045,57.3034,-111.952,859.9,487.9,313.3,5.7,-1.2,16.36,28.36,678.0032,140.0038],
    [16881,1525555046,57.3037,-111.9526,863.7,491.8,313.9,8.2,0.4,16.62,27.67,677.7297,140.0027],
    [16882,1525555047,57.3042,-111.9532,869.1,496.1,317.2,7.0,-0.2,16.36,28.78,677.2383,139.9947],
    [16883,1525555048,57.3046,-111.9538,873.9,499.9,320.2,6.5,-0.4,16.86,28.25,676.6249,139.9987],
    [16884,1525555049,57.305,-111.9543,878.9,503.9,321.5,6.9,0.4,16.32,28.65,676.3337,139.995],
    [16885,1525555050,57.3055,-111.9549,884.8,509.8,323.3,7.5,0.3,16.12,28.49,676.0965,140.0009],
    [16886,1525555051,57.3059,-111.9553,890.8,514.8,324.0,8.3,1.2,16.03,28.75,675.5698,139.9925],
    [16887,1525555052,57.3064,-111.9558,897.7,521.7,325.6,8.1,1.5,16.19,28.64,675.1237,139.991],
    [16888,1525555053,57.3069,-111.9562,904.0,528.0,328.3,7.1,1.3,16.43,28.61,674.6465,139.9984],
    [16889,1525555054,57.3073,-111.9566,909.1,532.1,329.6,7.4,1.4,15.53,28.67,674.1696,139.993],
    [16890,1525555055,57.3078,-111.9569,914.0,537.0,330.8,7.8,1.7,16.15,29.0,673.9155,139.9929],
    [16891,1525555056,57.3083,-111.9573,918.4,541.4,332.7,8.5,0.6,16.07,29.47,673.4042,140.0102],
    [16892,1525555057,57.3088,-111.9576,923.1,545.4,333.5,10.4,-0.3,15.98,29.07,673.2557,140.0066],
    [16893,1525555058,57.3092,-111.9578,928.5,550.5,334.5,11.2,-0.6,16.57,28.56,672.9892,140.0016],
    [16894,1525555059,57.3098,-111.9581,934.7,555.6,335.7,11.3,-1.0,15.97,29.49,672.4895,139.9954],
    [16895,1525555060,57.3102,-111.9583,939.4,560.4,337.2,10.9,-0.9,15.9,28.91,672.2267,139.9877],
    [16896,1525555061,57.3107,-111.9585,943.8,563.8,338.9,10.6,-0.7,15.87,28.94,672.1703,139.999],
    [16897,1525555062,57.3112,-111.9587,948.4,567.4,340.8,10.0,-0.2,15.84,29.25,671.8912,140.0003],
    [16898,1525555063,57.3117,-111.9588,953.0,572.0,343.0,9.3,-0.6,15.11,29.15,671.4633,139.9991],
    [16899,1525555064,57.3122,-111.9589,957.2,575.9,345.6,8.2,-1.6,15.85,29.28,670.9291,139.9934],
    [16900,1525555065,57.3127,-111.959,960.4,578.4,348.2,6.7,-2.0,15.74,29.14,670.794,139.9949],
    [16901,1525555066,57.3132,-111.9591,962.8,580.8,350.0,6.4,-2.7,15.28,29.32,670.5205,139.991],
    [16902,1525555067,57.3137,-111.9591,965.5,582.4,351.4,6.3,-3.2,15.01,29.24,670.4627,139.9939],
    [16903,1525555068,57.3142,-111.9592,969.8,586.9,352.9,5.8,-2.7,15.73,29.31,670.4277,139.996],
    [16904,1525555069,57.3146,-111.9592,974.0,590.7,352.9,6.2,-1.9,15.66,29.26,670.5077,140.0055],
    [16905,1525555070,57.3151,-111.9592,979.3,595.3,352.4,7.0,-1.4,15.2,29.52,670.6185,139.9971],
    [16906,1525555071,57.3156,-111.9592,982.2,598.2,352.8,6.9,-1.4,15.61,29.23,670.6354,140.0058],
    [16907,1525555072,57.3161,-111.9592,984.0,600.0,354.6,5.6,-0.8,15.41,29.93,670.6439,139.9888],
    [16908,1525555073,57.3165,-111.9592,984.5,600.4,354.4,6.2,-0.8,15.39,30.09,670.7237,139.9951],
    [16909,1525555074,57.317,-111.9591,983.9,599.9,352.5,7.8,-1.4,15.52,29.84,670.8762,140.0054],
    [16910,1525555075,57.3175,-111.9591,982.8,598.8,353.5,6.9,-1.0,15.3,30.19,670.9505,140.0009],
    [16911,1525555076,57.318,-111.9591,982.3,598.3,352.9,7.6,-1.1,15.27,30.44,671.1172,139.9945],
    [16912,1525555077,57.3185,-111.9591,982.2,598.2,351.8,8.5,-1.2,15.19,30.37,671.2161,140.0067],
    [16913,1525555078,57.319,-111.9591,981.2,597.2,352.1,8.5,-1.6,15.24,30.29,671.128,140.0005],
    [16914,1525555079,57.3195,-111.9591,979.9,594.8,351.7,8.8,-1.1,14.95,31.17,670.9938,139.9935],
    [16915,1525555080,57.32,-111.9591,978.4,593.4,351.4,9.1,-0.8,14.82,30.52,670.8794,140.0007],
    [16916,1525555081,57.3205,-111.9591,976.7,591.4,351.1,9.2,-1.3,15.09,30.42,670.7858,139.998],
    [16917,1525555082,57.3209,-111.9591,975.3,589.3,351.9,9.0,-2.3,14.66,30.52,670.7278,139.9976],
    [16918,1525555083,57.3215,-111.959,975.3,589.0,351.6,9.7,-2.2,14.85,30.54,670.7027,140.0036],
    [16919,1525555084,57.3219,-111.959,977.0,590.0,351.6,10.0,-2.1,14.56,30.55,670.5831,139.9965],
    [16920,1525555085,57.3224,-111.959,978.7,591.8,351.7,10.1,-1.9,14.88,30.72,670.5859,140.0003],
    [16921,1525555086,57.3229,-111.959,980.2,592.2,351.3,10.6,-2.0,14.95,30.92,670.5929,140.0093],
    [16922,1525555087,57.3234,-111.9589,981.3,593.4,352.4,9.7,-1.4,14.96,30.41,670.5348,139.9976],
    [16923,1525555088,57.3239,-111.9589,981.9,593.9,352.5,9.8,-1.5,15.64,30.56,670.509,139.9945],
    [16924,1525555089,57.3244,-111.9588,982.7,594.7,352.5,9.8,-0.8,14.87,31.65,670.6533,140.0063],
    [16925,1525555090,57.3249,-111.9588,983.2,594.1,352.7,9.5,-0.3,14.69,31.21,670.8196,139.9999],
    [16926,1525555091,57.3253,-111.9588,983.3,594.3,352.6,9.3,0.2,14.86,31.78,670.8177,140.0031],
    [16927,1525555092,57.3258,-111.9587,983.8,594.8,352.4,9.2,0.5,15.46,30.85,670.7865,139.9996],
    [16928,1525555093,57.3264,-111.9587,983.7,593.7,352.9,8.7,0.4,15.44,30.86,670.8104,140.0106],
    [16929,1525555094,57.3268,-111.9587,982.4,592.4,353.4,8.0,-0.8,14.96,31.13,671.0307,140.0041],
    [16930,1525555095,57.3273,-111.9586,980.8,589.7,354.7,6.8,-1.9,15.61,31.09,671.0822,140.0075],
    [16931,1525555096,57.3278,-111.9586,980.2,588.2,354.0,7.8,-1.0,15.02,31.29,671.0273,139.9975],
    [16932,1525555097,57.3283,-111.9586,980.3,588.0,352.1,9.4,-1.0,15.23,30.85,670.9911,140.004],
    [16933,1525555098,57.3288,-111.9586,979.9,585.9,352.3,8.7,-1.0,14.76,31.32,670.8593,140.0062],
    [16934,1525555099,57.3293,-111.9585,978.4,582.7,352.7,8.0,-0.6,14.66,32.04,670.6944,139.992],
    [16935,1525555100,57.3298,-111.9585,977.4,581.2,351.3,9.1,-0.3,14.49,31.38,670.4405,140.0003],
    [16936,1525555101,57.3303,-111.9585,977.6,580.6,350.0,9.8,0.3,14.79,31.8,670.3409,140.0057],
    [16937,1525555102,57.3308,-111.9585,978.1,580.8,350.0,9.4,0.7,14.69,31.33,670.2187,139.9873],
    [16938,1525555103,57.3313,-111.9585,979.0,581.1,349.4,9.5,0.8,14.43,31.81,670.2326,140.001],
    [16939,1525555104,57.3318,-111.9586,981.5,582.7,348.7,9.7,0.7,14.34,31.6,670.151,139.9991],
    [16940,1525555105,57.3323,-111.9586,983.8,583.6,349.0,9.1,0.4,14.52,31.68,670.0873,139.9947],
    [16941,1525555106,57.3328,-111.9586,985.2,584.2,348.7,9.1,0.5,14.6,31.95,669.9342,140.0013],
    [16942,1525555107,57.3333,-111.9587,986.7,584.6,349.0,7.9,0.9,14.88,31.31,669.826,140.0049],
    [16943,1525555108,57.3338,-111.9587,987.5,584.5,350.2,7.0,1.1,14.5,32.03,669.672,139.991],
    [16944,1525555109,57.3343,-111.9587,988.1,584.4,349.5,7.8,1.1,14.33,32.31,669.6555,140.0034],
    [16945,1525555110,57.3349,-111.9588,988.9,584.9,350.1,7.3,1.2,14.36,32.31,669.6834,139.9992],
    [16946,1525555111,57.3353,-111.9588,989.7,585.7,350.5,7.2,1.3,15.12,31.5,669.7121,140.0019],
    [16947,1525555112,57.3359,-111.9589,991.6,587.6,349.4,8.0,2.1,14.55,32.33,669.7039,140.0009],
    [16948,1525555113,57.3364,-111.9589,993.1,588.1,349.4,7.8,1.5,14.3,31.92,669.6025,139.994],
    [16949,1525555114,57.3369,-111.959,994.0,588.9,349.6,7.4,1.7,14.51,32.51,669.44,140.0049],
    [16950,1525555115,57.3374,-111.959,993.9,587.6,350.6,6.4,2.1,14.07,31.83,669.0663,139.9954],
    [16951,1525555116,57.338,-111.959,993.7,586.7,351.2,6.1,2.1,14.48,32.14,668.7594,139.9928],
    [16952,1525555117,57.3385,-111.9591,993.8,585.7,351.5,6.0,1.4,14.18,31.97,668.7586,139.9917],
    [16953,1525555118,57.339,-111.9591,994.7,585.2,352.4,5.7,1.8,14.81,31.71,668.7988,139.9944],
    [16954,1525555119,57.3395,-111.9591,996.7,585.7,351.5,7.0,2.0,14.31,32.33,668.754,140.0004],
    [16955,1525555120,57.34,-111.9592,999.6,587.4,351.2,8.1,2.2,14.93,31.44,668.6481,140.0011],
    [16956,1525555121,57.3405,-111.9592,1003.0,590.0,351.0,8.6,2.6,14.61,32.08,668.3723,139.9878],
    [16957,1525555122,57.3411,-111.9592,1004.8,589.9,352.7,7.1,2.3,14.65,31.78,668.166,139.9955],
    [16958,1525555123,57.3416,-111.9592,1004.8,588.9,353.4,6.6,2.1,14.47,31.93,668.0585,139.9937],
    [16959,1525555124,57.342,-111.9592,1005.0,589.0,352.2,7.7,1.9,14.34,31.88,667.7582,139.9984],
    [16960,1525555125,57.3426,-111.9592,1006.6,590.6,351.7,7.8,1.4,14.14,32.04,667.5885,140.0056],
    [16961,1525555126,57.3431,-111.9592,1008.6,592.9,351.4,8.4,0.2,14.22,32.1,667.0171,139.9889],
    [16962,1525555127,57.3437,-111.9592,1011.1,596.1,351.5,8.2,0.6,13.94,32.1,666.4982,139.9893],
    [16963,1525555128,57.3442,-111.9592,1013.2,599.7,354.1,6.3,0.8,13.76,32.24,666.3381,139.9923],
    [16964,1525555129,57.3448,-111.9592,1015.9,604.1,355.1,6.5,0.4,14.04,32.17,665.9857,139.9962],
    [16965,1525555130,57.3453,-111.9592,1019.7,608.9,354.3,7.1,-0.4,14.4,32.4,665.8453,140.0071],
    [16966,1525555131,57.3458,-111.9591,1024.7,615.4,354.2,7.0,-1.3,14.35,32.29,665.8582,140.0052],
    [16967,1525555132,57.3464,-111.9591,1030.2,623.3,352.7,8.0,-1.7,14.2,32.16,665.9826,140.0089],
    [16968,1525555133,57.3468,-111.9591,1034.8,629.5,352.9,7.3,-1.8,14.32,32.46,666.1246,139.9987],
    [16969,1525555134,57.3474,-111.9591,1038.7,634.7,353.3,6.6,-1.2,14.42,32.52,666.264,139.9999],
    [16970,1525555135,57.348,-111.9591,1040.5,635.4,352.2,8.1,-1.2,13.87,32.26,666.1828,139.9912],
    [16971,1525555136,57.3485,-111.9592,1041.2,634.4,352.3,8.0,-0.1,15.01,31.97,665.9893,139.9901],
    [16972,1525555137,57.349,-111.9592,1040.2,631.9,352.3,7.8,0.6,14.12,31.9,665.9801,140.0006],
    [16973,1525555138,57.3495,-111.9592,1038.3,629.3,351.4,8.2,0.3,14.64,31.63,665.8998,140.0118],
    [16974,1525555139,57.3501,-111.9592,1036.2,627.2,351.6,7.8,-0.4,14.24,32.57,665.7735,139.9843],
    [16975,1525555140,57.3506,-111.9592,1036.1,628.2,350.9,9.0,-2.6,14.08,32.44,666.0726,140.0054],
    [16976,1525555141,57.3512,-111.9592,1037.7,630.7,351.5,8.3,-3.9,14.89,31.92,666.0653,140.008],
    [16977,1525555142,57.3517,-111.9592,1038.6,632.6,352.1,7.7,-3.0,14.24,32.56,666.1438,139.9863],
    [16978,1525555143,57.3523,-111.9593,1039.3,632.2,350.9,8.7,-2.9,14.42,31.96,666.2358,140.0025],
    [16979,1525555144,57.3528,-111.9593,1039.8,631.8,351.7,7.3,-3.1,13.93,32.25,666.28,139.9994],
    [16980,1525555145,57.3534,-111.9593,1038.7,630.7,352.8,6.2,-2.3,13.6,32.33,666.4869,139.9854],
    [16981,1525555146,57.3539,-111.9594,1037.1,629.7,350.4,8.2,-2.4,14.04,32.2,666.4754,140.0073],
    [16982,1525555147,57.3545,-111.9594,1036.4,629.4,350.3,7.9,-3.4,14.63,31.53,666.4615,139.994],
    [16983,1525555148,57.3551,-111.9595,1035.2,629.2,350.1,8.0,-3.0,14.22,32.11,666.6691,140.0026],
    [16984,1525555149,57.3557,-111.9595,1033.4,627.4,349.2,9.1,-3.3,14.23,32.4,666.7523,139.994],
    [16985,1525555150,57.3562,-111.9596,1031.7,625.7,351.4,7.6,-4.0,14.69,31.55,667.0505,140.0009],
    [16986,1525555151,57.3568,-111.9596,1030.8,623.9,352.1,8.3,-3.6,14.22,32.52,667.1324,139.995],
    [16987,1525555152,57.3574,-111.9596,1030.8,622.4,352.1,8.8,-3.6,13.77,31.85,667.2018,139.9908],
    [16988,1525555153,57.358,-111.9597,1029.8,619.8,353.1,8.1,-3.6,14.65,31.5,667.1152,140.0067],
    [16989,1525555154,57.3586,-111.9597,1027.6,616.6,354.1,7.5,-3.8,14.76,31.42,667.0683,140.0009],
    [16990,1525555155,57.3592,-111.9596,1025.1,613.1,354.7,7.5,-3.9,14.09,32.11,666.8327,139.9871],
    [16991,1525555156,57.3598,-111.9596,1023.1,611.1,354.9,7.6,-3.2,14.39,31.27,666.7411,139.9939],
    [16992,1525555157,57.3604,-111.9596,1022.2,610.2,356.4,6.0,-3.3,14.42,31.27,666.5385,139.993],
    [16993,1525555158,57.361,-111.9596,1022.3,610.3,355.8,6.8,-2.4,14.2,31.85,666.6445,140.0089],
    [16994,1525555159,57.3616,-111.9595,1023.1,610.8,354.7,8.0,-3.0,14.25,30.94,666.5626,139.9891],
    [16995,1525555160,57.3622,-111.9595,1024.7,611.7,355.5,7.7,-3.4,14.65,30.96,666.4178,139.996],
    [16996,1525555161,57.3629,-111.9595,1027.4,614.4,355.6,8.3,-2.1,13.96,31.36,666.4886,140.0052],
    [16997,1525555162,57.3634,-111.9594,1028.6,615.6,356.0,8.1,-1.9,14.54,30.68,666.4688,140.0099],
    [16998,1525555163,57.3641,-111.9594,1029.1,616.1,356.4,8.5,-2.8,14.22,31.2,666.4381,139.9801],
    [16999,1525555164,57.3646,-111.9593,1028.9,615.9,355.6,9.8,-2.9,14.0,31.3,666.4784,140.0],
    [17000,1525555165,57.3652,-111.9592,1029.9,616.5,356.5,9.0,-3.6,14.31,31.01,666.3823,140.004],
    [17001,1525555166,57.3659,-111.9591,1030.7,616.7,356.6,8.6,-3.0,14.22,31.36,666.2808,140.0094],
    [17002,1525555167,57.3665,-111.9591,1031.0,615.8,355.2,9.5,-2.3,14.2,31.13,666.1046,139.9937],
    [17003,1525555168,57.3671,-111.959,1031.0,616.0,354.6,9.5,-2.9,13.96,31.04,665.9466,139.9967],
    [17004,1525555169,57.3677,-111.959,1031.0,615.0,354.4,9.3,-4.2,14.26,31.29,665.8239,139.9888],
    [17005,1525555170,57.3683,-111.959,1031.2,615.2,354.1,8.9,-4.1,14.1,31.5,665.9136,140.0028],
    [17006,1525555171,57.3689,-111.9589,1032.5,616.7,353.0,9.7,-3.4,14.27,30.74,665.715,139.9989],
    [17007,1525555172,57.3696,-111.9589,1034.6,620.3,351.9,10.4,-3.3,14.32,31.0,665.6932,139.9943],
    [17008,1525555173,57.3701,-111.9589,1036.6,623.6,351.6,10.4,-3.5,14.36,30.71,665.6606,140.004],
    [17009,1525555174,57.3708,-111.9589,1037.7,624.8,351.5,10.3,-3.7,14.2,31.18,665.5679,139.9909],
    [17010,1525555175,57.3714,-111.9589,1037.9,623.9,349.8,12.0,-3.9,14.16,31.28,665.72,140.008],
    [17011,1525555176,57.372,-111.959,1039.0,623.0,348.8,12.3,-3.6,13.71,30.94,665.7319,140.0057],
    [17012,1525555177,57.3726,-111.959,1040.1,622.4,349.5,11.3,-4.1,14.78,30.15,665.9559,140.0053],
    [17013,1525555178,57.3732,-111.959,1040.6,622.6,349.4,11.0,-4.3,14.79,30.56,666.0416,140.0041],
    [17014,1525555179,57.3738,-111.9591,1040.9,622.9,350.0,10.4,-4.8,14.56,31.07,666.3814,140.0026],
    [17015,1525555180,57.3744,-111.9591,1040.2,622.2,350.3,10.2,-4.0,13.73,30.87,666.6476,140.0053],
    [17016,1525555181,57.3749,-111.9591,1039.3,621.3,350.1,10.6,-3.7,13.86,30.83,666.8837,140.0001],
    [17017,1525555182,57.3756,-111.9591,1037.9,619.9,350.0,10.6,-3.6,14.25,31.07,667.1292,139.9952],
    [17018,1525555183,57.3761,-111.9592,1036.2,617.2,350.2,10.3,-2.7,14.28,31.06,667.3431,140.0004],
    [17019,1525555184,57.3767,-111.9592,1033.6,614.1,351.1,9.1,-2.7,13.91,30.82,667.5296,140.0057],
    [17020,1525555185,57.3773,-111.9592,1029.5,609.4,351.8,8.5,-2.3,14.28,31.28,667.7242,140.0019],
    [17021,1525555186,57.3779,-111.9593,1026.1,606.1,351.2,9.2,-2.7,14.19,30.8,667.8558,140.0047],
    [17022,1525555187,57.3786,-111.9593,1023.2,603.2,351.1,9.3,-2.8,14.09,30.93,667.957,140.0029],
    [17023,1525555188,57.3792,-111.9593,1020.4,600.7,350.3,10.4,-3.7,14.06,31.42,667.9349,139.9973],
    [17024,1525555189,57.3797,-111.9593,1018.1,598.4,349.7,11.1,-3.2,14.19,30.95,667.9796,140.0079],
    [17025,1525555190,57.3804,-111.9594,1015.9,596.2,350.4,10.6,-2.5,14.0,30.86,668.0009,139.9996],
    [17026,1525555191,57.381,-111.9594,1014.2,594.3,350.5,11.0,-2.3,14.67,30.57,668.0015,139.9997],
    [17027,1525555192,57.3816,-111.9594,1013.1,592.3,350.8,11.2,-2.7,14.8,30.21,667.9641,140.0061],
    [17028,1525555193,57.3822,-111.9594,1012.6,591.6,351.2,11.1,-2.7,13.7,30.65,667.9702,140.0021],
    [17029,1525555194,57.3828,-111.9594,1012.4,595.4,350.8,12.0,-2.3,14.53,30.25,668.0173,140.0052],
    [17030,1525555195,57.3834,-111.9594,1012.1,600.5,350.4,12.4,-2.1,14.75,30.19,667.8983,139.997],
    [17031,1525555196,57.384,-111.9594,1012.1,605.7,351.1,11.4,-2.4,14.57,29.73,667.9077,139.9969],
    [17032,1525555197,57.3846,-111.9594,1012.4,610.4,351.2,11.1,-1.9,14.56,30.23,667.9161,140.0025],
    [17033,1525555198,57.3852,-111.9594,1012.5,612.3,351.0,11.0,-1.3,14.16,30.38,667.8718,140.0013],
    [17034,1525555199,57.3858,-111.9594,1012.3,611.8,350.9,11.0,-1.5,14.21,30.44,667.8174,140.0078],
    [17035,1525555200,57.3865,-111.9594,1012.8,611.6,350.5,11.2,-1.4,14.21,29.92,667.8482,140.009],
    [17036,1525555201,57.3871,-111.9594,1013.2,609.9,351.4,10.2,-1.7,14.35,30.97,667.9904,139.9991],
    [17037,1525555202,57.3877,-111.9594,1013.2,606.1,350.6,11.0,-1.5,14.2,30.63,668.0042,140.0042],
    [17038,1525555203,57.3882,-111.9594,1013.7,602.5,349.6,11.8,-1.6,13.98,30.26,668.0717,140.0077],
    [17039,1525555204,57.3888,-111.9594,1014.3,598.0,349.0,12.2,-0.8,14.34,30.2,668.1003,140.0041],
    [17040,1525555205,57.3894,-111.9594,1014.1,592.3,349.4,11.7,-0.8,14.04,30.44,667.9636,140.0003],
    [17041,1525555206,57.3899,-111.9594,1013.3,587.5,349.9,11.3,-0.9,14.78,30.0,667.9459,139.9981],
    [17042,1525555207,57.3906,-111.9594,1012.4,583.3,349.9,11.3,-1.4,14.04,30.28,667.8463,140.0094],
    [17043,1525555208,57.3912,-111.9594,1011.5,581.8,349.8,10.8,-1.1,14.07,30.36,667.7829,139.9946],
    [17044,1525555209,57.3918,-111.9595,1011.4,581.4,349.4,10.9,-0.7,14.26,30.2,667.786,140.0042],
    [17045,1525555210,57.3924,-111.9595,1012.4,582.4,348.4,11.6,-1.0,14.82,29.72,667.7638,140.0036],
    [17046,1525555211,57.3929,-111.9595,1013.7,583.7,349.6,10.2,-0.6,14.82,29.96,667.939,139.9823],
    [17047,1525555212,57.3935,-111.9595,1014.5,584.5,350.2,10.2,-0.7,14.55,30.37,668.0195,139.9956],
    [17048,1525555213,57.3941,-111.9595,1014.7,584.7,350.5,10.5,0.3,14.91,30.03,668.1907,140.0047],
    [17049,1525555214,57.3946,-111.9595,1014.9,584.9,351.0,10.5,0.5,14.26,30.72,668.0992,140.0058],
    [17050,1525555215,57.3952,-111.9595,1014.5,584.5,351.0,10.5,2.0,14.48,30.58,667.9113,139.9921],
    [17051,1525555216,57.3958,-111.9595,1013.5,583.5,352.4,9.2,0.5,14.4,30.64,667.5507,140.0029],
    [17052,1525555217,57.3964,-111.9595,1012.0,582.0,352.8,9.4,0.5,14.38,30.81,667.1973,139.991],
    [17053,1525555218,57.397,-111.9595,1010.8,580.8,351.9,10.2,0.7,14.26,31.02,667.0105,139.996],
    [17054,1525555219,57.3976,-111.9595,1010.5,580.5,352.8,9.5,0.9,14.27,31.53,666.5236,139.9767],
    [17055,1525555220,57.3982,-111.9595,1013.0,583.0,352.9,9.5,0.9,14.22,31.03,666.291,140.0077],
    [17056,1525555221,57.3988,-111.9594,1016.2,586.5,352.4,9.6,-0.7,14.43,31.2,665.8123,140.0076],
    [17057,1525555222,57.3994,-111.9594,1020.1,590.4,355.6,5.8,-0.6,14.28,31.44,665.648,139.9747],
    [17058,1525555223,57.4,-111.9594,1024.5,594.5,356.3,5.4,0.1,14.49,30.88,665.253,140.0033],
    [17059,1525555224,57.4006,-111.9594,1028.6,598.6,356.0,6.3,0.3,14.85,30.83,665.1782,140.0071],
    [17060,1525555225,57.4012,-111.9594,1032.6,603.7,356.2,7.6,-1.2,13.96,31.18,664.7882,139.9782],
    [17061,1525555226,57.4018,-111.9593,1036.6,607.6,355.8,9.4,-1.1,14.26,31.14,664.8796,140.0043],
    [17062,1525555227,57.4024,-111.9592,1040.7,611.7,359.8,7.0,-1.5,14.18,30.9,664.9576,140.0029],
    [17063,1525555228,57.403,-111.9591,1044.2,615.2,2.9,7.4,-2.4,14.69,31.05,665.104,139.9969],
    [17064,1525555229,57.4036,-111.9589,1047.2,617.5,3.7,9.7,-2.6,14.34,31.2,665.3518,140.0098],
    [17065,1525555230,57.4042,-111.9586,1050.1,620.1,8.5,8.4,-2.2,14.22,31.59,665.4709,139.9997],
    [17066,1525555231,57.4048,-111.9582,1051.1,621.1,12.6,7.0,-1.4,13.59,31.36,665.5215,140.0085],
    [17067,1525555232,57.4054,-111.9578,1050.2,620.2,16.2,7.4,-0.7,14.24,31.24,665.5455,139.9959],
    [17068,1525555233,57.4059,-111.9574,1048.4,618.4,20.2,7.3,-0.5,14.15,32.1,665.5939,139.9958],
    [17069,1525555234,57.4065,-111.9568,1046.1,616.1,24.3,6.6,-0.9,13.83,31.26,665.5869,140.0164],
    [17070,1525555235,57.407,-111.9562,1044.0,614.0,28.2,6.7,-1.1,14.38,31.17,665.6127,139.9915],
    [17071,1525555236,57.4075,-111.9555,1042.6,613.6,31.2,8.8,-3.1,14.48,31.4,665.6532,139.9958],
    [17072,1525555237,57.408,-111.9547,1042.4,613.4,34.0,9.9,-4.3,14.24,32.11,665.8684,140.002],
    [17073,1525555238,57.4085,-111.9539,1042.4,613.7,39.3,9.2,-2.9,13.79,31.36,666.0457,139.9949],
    [17074,1525555239,57.4089,-111.953,1042.1,614.1,42.1,9.8,-3.5,14.24,31.39,666.2654,139.9983],
    [17075,1525555240,57.4093,-111.9521,1041.9,613.9,45.5,9.4,-3.9,14.56,31.08,666.6084,139.9949],
    [17076,1525555241,57.4097,-111.9511,1041.5,614.5,50.3,8.9,-2.7,14.09,31.2,666.7576,139.9978],
    [17077,1525555242,57.4101,-111.95,1040.0,613.6,53.9,9.6,-2.5,14.84,31.06,667.3386,140.009],
    [17078,1525555243,57.4104,-111.9489,1037.6,611.6,58.8,8.8,-1.9,14.25,31.42,667.7317,140.0025],
    [17079,1525555244,57.4107,-111.9478,1034.6,609.6,62.6,8.7,-2.0,14.14,31.19,668.0289,140.0019],
    [17080,1525555245,57.4109,-111.9465,1030.7,606.7,66.5,9.1,-2.2,14.23,31.12,668.5179,140.0061],
    [17081,1525555246,57.4111,-111.9453,1026.7,603.7,70.3,8.9,-2.1,14.07,31.31,668.7572,140.0027],
    [17082,1525555247,57.4113,-111.9441,1022.1,600.2,73.9,9.0,-1.9,14.18,31.23,668.954,140.0069],
    [17083,1525555248,57.4114,-111.9428,1017.3,595.0,77.7,9.9,-1.7,14.1,31.56,668.9074,140.0042],
    [17084,1525555249,57.4115,-111.9415,1012.6,589.6,81.4,10.0,-1.5,14.16,31.31,668.7365,139.9993],
    [17085,1525555250,57.4116,-111.9401,1007.0,584.1,85.0,10.0,-1.4,13.87,31.18,668.6592,139.9859],
    [17086,1525555251,57.4116,-111.9387,1002.4,580.4,88.6,10.2,-0.6,14.57,31.15,668.6518,140.003],
    [17087,1525555252,57.4116,-111.9373,1000.0,579.4,91.0,10.8,-0.2,13.71,31.46,668.6084,140.0027],
    [17088,1525555253,57.4116,-111.9361,1000.2,581.3,91.4,10.5,-1.0,13.95,31.45,668.4463,139.9987],
    [17089,1525555254,57.4116,-111.9347,1001.8,583.7,92.6,10.8,-0.4,13.7,31.39,668.4077,140.0002],
    [17090,1525555255,57.4115,-111.9333,1002.7,585.4,94.0,9.7,0.8,14.12,31.25,668.3327,139.9941],
    [17091,1525555256,57.4115,-111.932,1003.4,586.4,94.0,10.1,-0.2,13.79,31.11,668.2987,140.0016],
    [17092,1525555257,57.4115,-111.9306,1004.5,588.5,93.3,9.7,-1.6,14.17,30.98,667.9711,140.0012],
    [17093,1525555258,57.4114,-111.9292,1005.8,590.8,94.5,9.9,-0.8,14.12,31.77,667.7929,139.983],
    [17094,1525555259,57.4113,-111.9279,1006.4,592.4,94.4,9.5,-1.3,14.23,30.97,667.561,139.9868],
    [17095,1525555260,57.4113,-111.9266,1007.0,592.9,94.5,9.2,-1.4,14.31,31.12,667.5107,140.0015],
    [17096,1525555261,57.4112,-111.9252,1008.5,597.9,94.5,8.8,-1.4,14.16,30.9,667.3574,139.9967],
    [17097,1525555262,57.4112,-111.924,1011.1,604.7,94.2,10.3,-1.5,13.82,31.46,667.4326,139.9985],
    [17098,1525555263,57.4111,-111.9226,1013.8,611.8,95.0,9.4,0.0,14.66,30.73,667.5793,140.0051],
    [17099,1525555264,57.411,-111.9213,1015.9,613.6,94.6,8.4,-0.6,14.25,31.44,667.8284,140.0104],
    [17100,1525555265,57.411,-111.9199,1017.2,612.6,93.2,8.2,-2.5,14.19,31.24,668.1005,139.9952],
    [17101,1525555266,57.4109,-111.9188,1018.2,611.5,93.9,8.2,-1.9,14.48,31.0,668.3813,139.9984],
    [17102,1525555267,57.4109,-111.9173,1018.3,611.9,94.1,8.9,-2.1,14.4,31.01,668.8009,139.9984],
    [17103,1525555268,57.4108,-111.9159,1016.8,608.5,93.7,9.5,-2.7,14.17,31.04,669.046,140.0031],
    [17104,1525555269,57.4107,-111.9146,1014.0,605.0,94.1,10.6,-2.6,14.26,31.45,669.3436,140.0075],
    [17105,1525555270,57.4107,-111.9132,1011.1,602.8,94.2,11.0,-2.7,14.98,30.72,669.4789,139.9985],
    [17106,1525555271,57.4106,-111.9119,1007.7,600.9,94.8,10.4,-2.2,14.02,30.81,669.8913,140.0025],
    [17107,1525555272,57.4105,-111.9107,1003.4,599.1,94.5,10.3,-2.6,14.47,30.72,670.2038,140.0091],
    [17108,1525555273,57.4104,-111.9092,999.2,597.3,94.1,9.8,-2.6,14.22,31.31,670.6425,139.9975],
    [17109,1525555274,57.4104,-111.9079,996.2,596.2,94.4,10.5,-2.0,14.18,31.19,670.7883,139.9997],
    [17110,1525555275,57.4103,-111.9065,993.1,595.8,94.2,11.0,-1.8,13.82,31.25,671.2274,140.0019],
    [17111,1525555276,57.4102,-111.9052,989.4,594.3,93.7,11.3,-1.9,14.51,30.33,671.4316,140.0022],
    [17112,1525555277,57.4102,-111.904,985.8,592.5,92.1,11.1,-2.7,13.91,30.69,671.5062,140.0054],
    [17113,1525555278,57.4102,-111.9025,981.2,591.1,91.2,11.4,-2.4,14.1,30.67,671.467,140.0051],
    [17114,1525555279,57.4101,-111.9011,977.0,589.2,90.8,11.1,-1.8,14.42,30.61,671.5329,140.0043],
    [17115,1525555280,57.4101,-111.8997,972.4,586.9,89.6,11.2,-2.3,14.43,30.52,671.6215,140.0002],
    [17116,1525555281,57.4101,-111.8983,969.1,586.1,89.7,10.4,-1.0,14.25,30.82,671.7843,140.002],
    [17117,1525555282,57.4101,-111.897,967.7,585.7,89.1,10.7,-1.3,14.11,31.09,671.8554,140.0068],
    [17118,1525555283,57.4101,-111.8956,967.8,586.8,88.4,10.5,-1.6,14.22,30.73,671.7901,140.0095],
    [17119,1525555284,57.4101,-111.8942,967.6,587.6,88.5,10.7,-1.3,14.2,31.02,671.6371,140.0007],
    [17120,1525555285,57.4101,-111.8929,966.5,588.5,88.0,10.6,-1.5,14.15,30.73,671.5282,140.003],
    [17121,1525555286,57.4101,-111.8915,965.0,589.8,87.9,10.3,-1.4,14.18,31.19,671.5252,140.0063],
    [17122,1525555287,57.4101,-111.8901,963.8,592.7,87.7,10.0,-1.5,13.94,30.73,671.5452,140.0011],
    [17123,1525555288,57.4101,-111.8888,964.4,597.1,87.6,9.7,-1.6,14.53,30.26,671.6247,139.9974],
    [17124,1525555289,57.4101,-111.8874,966.1,602.0,87.7,9.7,-1.5,14.17,31.3,671.667,140.0056],
    [17125,1525555290,57.4102,-111.8862,967.3,605.3,87.7,10.4,-1.5,14.85,30.1,671.6227,140.0079],
    [17126,1525555291,57.4102,-111.8848,968.1,608.1,87.7,11.0,-1.8,14.17,30.67,671.5404,139.9988],
    [17127,1525555292,57.4102,-111.8835,967.9,608.9,87.2,11.3,-2.4,14.04,30.47,671.8068,140.0007],
    [17128,1525555293,57.4102,-111.8821,967.1,609.1,87.3,10.3,-2.2,14.64,30.77,671.8742,140.0003],
    [17129,1525555294,57.4102,-111.8808,966.8,609.6,88.0,10.5,-1.6,14.42,30.29,672.0599,139.9969],
    [17130,1525555295,57.4102,-111.8795,967.2,610.2,88.0,11.4,-1.8,14.61,30.28,672.1601,139.9968],
    [17131,1525555296,57.4102,-111.8782,967.3,611.1,88.1,11.7,-1.7,13.91,30.45,672.1588,140.008],
    [17132,1525555297,57.4102,-111.8769,965.6,609.6,88.5,12.2,-1.4,14.17,30.44,672.0803,139.9886],
    [17133,1525555298,57.4102,-111.8756,963.5,607.7,87.3,11.1,-2.3,14.38,30.9,672.0029,139.9877],
    [17134,1525555299,57.4102,-111.8743,962.0,607.3,88.8,10.3,-0.3,14.95,29.84,672.1895,140.0063],
    [17135,1525555300,57.4102,-111.8731,960.7,606.7,90.2,10.4,1.0,14.92,30.43,672.3429,140.005],
    [17136,1525555301,57.4102,-111.8718,960.5,607.5,88.8,11.2,-0.7,14.51,30.44,672.5403,140.0125],
    [17137,1525555302,57.4102,-111.8703,961.0,609.0,87.9,10.9,-1.5,14.49,30.43,672.5326,140.0123],
    [17138,1525555303,57.4103,-111.869,961.0,610.0,88.8,9.7,-0.5,14.92,29.82,672.4371,139.9926],
    [17139,1525555304,57.4103,-111.8677,960.1,611.2,88.6,10.1,-1.2,14.29,30.44,672.3729,139.9943],
    [17140,1525555305,57.4103,-111.8664,958.3,611.3,88.4,10.1,-1.8,14.51,30.77,672.1817,139.9997],
    [17141,1525555306,57.4103,-111.8651,956.3,611.3,88.4,10.1,-2.3,14.35,30.89,672.0163,139.9973],
    [17142,1525555307,57.4103,-111.8638,955.5,612.5,88.6,10.5,-2.3,14.75,30.81,671.9001,139.9965],
    [17143,1525555308,57.4102,-111.8624,956.5,614.5,90.1,10.6,-0.8,14.13,30.78,671.956,139.9954],
    [17144,1525555309,57.4102,-111.8611,957.8,615.8,90.4,9.6,-1.0,14.4,30.91,671.9896,139.997],
    [17145,1525555310,57.4102,-111.8598,959.7,618.0,90.3,8.8,-1.6,15.04,30.52,672.0371,140.0029],
    [17146,1525555311,57.4102,-111.8584,961.7,620.8,90.5,8.7,-1.7,14.88,30.6,672.1496,140.0057],
    [17147,1525555312,57.4102,-111.8572,962.9,621.8,90.5,8.5,-1.9,14.94,30.58,672.2263,140.0054],
    [17148,1525555313,57.4102,-111.8558,963.0,622.3,90.4,7.9,-2.0,14.58,30.61,672.4429,140.0036],
    [17149,1525555314,57.4101,-111.8545,962.7,622.7,90.9,8.4,-1.7,14.41,31.03,672.4795,140.0078],
    [17150,1525555315,57.4101,-111.8532,961.8,622.8,91.6,8.1,-1.3,14.2,30.86,672.6535,140.0093],
    [17151,1525555316,57.4101,-111.8519,960.8,622.1,92.1,9.1,-1.1,14.64,30.44,672.557,139.9846],
    [17152,1525555317,57.41,-111.8506,959.5,621.5,92.4,9.4,-0.9,14.4,31.04,672.5693,139.9964],
    [17153,1525555318,57.41,-111.8493,957.6,620.6,92.7,9.7,-0.5,14.22,30.83,672.7153,139.9923],
    [17154,1525555319,57.41,-111.8479,956.2,619.9,91.7,10.4,-0.9,14.55,30.44,672.7777,140.0077],
    [17155,1525555320,57.41,-111.8465,954.8,618.8,92.1,11.1,0.7,14.15,31.16,672.9308,139.9973],
    [17156,1525555321,57.4099,-111.8452,954.4,619.1,91.1,11.4,0.8,15.16,30.36,672.9705,139.9948],
    [17157,1525555322,57.4099,-111.8439,954.2,619.2,87.4,9.3,-2.0,14.92,30.26,672.973,140.0022],
    [17158,1525555323,57.41,-111.8426,953.0,617.9,86.9,10.8,-1.1,14.18,30.85,673.0474,139.9964],
    [17159,1525555324,57.41,-111.8415,952.3,618.0,84.7,10.7,-2.4,14.05,30.91,673.2943,140.0049],
    [17160,1525555325,57.41,-111.8399,950.5,616.5,82.9,10.1,-3.0,14.59,31.04,673.2832,139.994],
    [17161,1525555326,57.4101,-111.8385,949.1,616.4,83.4,9.7,-2.3,14.81,30.67,673.2882,139.9961],
    [17162,1525555327,57.4101,-111.8372,948.8,617.7,83.8,10.1,-2.9,14.5,31.04,673.1629,139.9965],
    [17163,1525555328,57.4102,-111.8358,948.0,619.0,84.4,9.9,-3.4,14.38,30.99,673.2533,139.9985],
    [17164,1525555329,57.4102,-111.8345,946.3,618.3,86.5,10.6,-2.6,14.64,31.53,673.1313,139.988],
    [17165,1525555330,57.4102,-111.8332,944.9,617.6,87.2,9.6,-3.7,14.95,30.19,673.1226,139.9899],
    [17166,1525555331,57.4102,-111.8318,944.3,617.4,88.7,8.5,-3.4,14.09,30.7,672.954,140.007],
    [17167,1525555332,57.4102,-111.8305,944.7,618.6,89.6,8.4,-3.2,14.81,30.81,672.6792,140.0077],
    [17168,1525555333,57.4102,-111.8292,944.6,620.1,92.2,8.9,-0.6,14.57,30.81,672.4101,140.0036],
    [17169,1525555334,57.4101,-111.8277,944.7,620.4,93.9,8.9,1.4,14.71,30.91,672.309,139.9971],
    [17170,1525555335,57.4101,-111.8261,946.3,621.2,97.3,8.3,5.6,14.89,30.51,672.1879,140.0043],
    [17171,1525555336,57.41,-111.8247,948.6,623.7,97.2,9.9,4.4,15.09,30.0,672.0629,139.9913],
    [17172,1525555337,57.41,-111.8233,951.5,626.5,95.5,10.0,2.2,14.73,30.49,672.0746,139.9954],
    [17173,1525555338,57.41,-111.8221,954.3,629.3,96.5,11.3,3.0,14.14,30.55,672.003,140.0024],
    [17174,1525555339,57.4099,-111.8206,956.3,633.6,95.9,11.6,1.7,14.76,30.3,672.0172,139.9975],
    [17175,1525555340,57.4099,-111.8192,957.9,638.0,93.6,9.7,-0.7,14.85,30.22,672.0875,139.9893],
    [17176,1525555341,57.4098,-111.8178,959.1,641.1,94.9,9.7,1.5,14.73,30.53,672.0944,139.986],
    [17177,1525555342,57.4098,-111.8164,959.7,641.9,95.4,10.9,2.2,15.42,29.8,672.0413,140.0039],
    [17178,1525555343,57.4097,-111.815,960.3,642.3,93.3,10.3,0.7,14.2,30.51,671.9972,140.0072],
    [17179,1525555344,57.4097,-111.8137,960.4,642.4,92.9,10.3,0.9,14.38,30.41,672.0422,139.9964],
    [17180,1525555345,57.4097,-111.8122,959.9,641.9,92.7,9.4,1.7,15.18,30.21,672.101,139.9999],
    [17181,1525555346,57.4097,-111.8108,959.2,641.9,93.1,8.4,2.7,15.26,29.95,672.313,140.0049],
    [17182,1525555347,57.4097,-111.8095,959.4,642.4,92.0,9.0,2.0,15.39,29.89,672.2571,140.0034],
    [17183,1525555348,57.4097,-111.808,959.8,644.8,91.7,8.5,1.8,15.26,29.87,672.2566,139.9978],
    [17184,1525555349,57.4097,-111.8066,959.2,646.1,91.8,7.8,2.1,14.22,30.29,672.2517,139.9975],
    [17185,1525555350,57.4096,-111.8054,958.0,646.0,91.8,8.0,2.2,14.92,30.2,672.1905,139.9968],
    [17186,1525555351,57.4097,-111.8038,956.7,644.7,91.2,8.1,2.0,14.85,30.86,672.1053,140.0061],
    [17187,1525555352,57.4097,-111.8025,956.7,644.7,91.4,9.0,2.4,14.66,30.15,672.0379,139.9945],
    [17188,1525555353,57.4097,-111.801,956.7,643.7,91.4,8.2,2.3,14.83,30.56,672.1283,139.9905],
    [17189,1525555354,57.4097,-111.7997,956.9,643.9,91.9,7.7,3.0,14.84,30.71,672.2724,140.002],
    [17190,1525555355,57.4097,-111.7983,957.2,643.2,92.0,6.8,2.9,15.01,30.62,672.4142,140.0025],
    [17191,1525555356,57.4097,-111.7969,958.3,644.3,90.6,7.4,1.5,14.91,30.21,672.2728,139.9906],
    [17192,1525555357,57.4097,-111.7954,958.9,643.9,91.9,7.0,3.3,14.3,30.17,672.1642,140.002],
    [17193,1525555358,57.4097,-111.794,957.8,642.8,92.0,6.2,3.3,15.0,30.28,671.9107,139.9972],
    [17194,1525555359,57.4097,-111.7926,956.2,640.2,91.7,5.8,2.6,14.95,29.67,671.7336,139.9997],
    [17195,1525555360,57.4097,-111.7913,955.1,640.1,92.1,5.9,2.6,14.49,30.01,671.729,139.9982],
    [17196,1525555361,57.4097,-111.79,955.0,641.0,92.4,4.0,2.2,14.8,29.94,671.7685,139.9897],
    [17197,1525555362,57.4097,-111.7885,956.2,643.2,90.7,4.3,-1.1,15.3,29.85,671.8134,139.9886],
    [17198,1525555363,57.4097,-111.7872,958.7,646.7,90.9,4.4,-1.2,15.46,29.61,672.1752,140.0049],
    [17199,1525555364,57.4096,-111.7857,961.6,650.6,93.2,6.1,0.7,15.31,29.92,672.2587,139.9974],
    [17200,1525555365,57.4096,-111.7844,963.2,651.1,92.8,5.9,-0.1,14.89,30.24,672.3797,140.0014],
    [17201,1525555366,57.4096,-111.783,963.0,653.0,92.8,5.3,-0.5,14.87,30.1,672.5567,139.9965],
    [17202,1525555367,57.4095,-111.7817,962.1,653.1,92.9,5.0,-0.4,14.98,30.71,672.7977,139.9997],
    [17203,1525555368,57.4095,-111.7803,959.4,651.4,92.7,5.4,-0.7,15.13,29.6,673.13,140.014],
    [17204,1525555369,57.4094,-111.7789,957.5,650.2,91.1,5.1,-1.9,14.76,29.96,673.3558,140.0055],
    [17205,1525555370,57.4094,-111.7776,955.8,648.8,90.3,4.8,-1.8,14.64,30.09,673.5279,140.0134],
    [17206,1525555371,57.4094,-111.7763,953.5,647.5,89.5,4.5,-1.6,15.21,29.73,674.043,140.0066],
    [17207,1525555372,57.4094,-111.7749,950.3,646.3,88.8,4.2,-1.7,15.36,29.82,674.626,140.009],
    [17208,1525555373,57.4094,-111.7737,947.2,645.2,87.7,4.8,-2.7,14.66,30.35,674.8967,139.9983],
    [17209,1525555374,57.4094,-111.7722,943.7,645.5,87.5,5.0,-3.2,14.68,30.68,675.1119,140.0103],
    [17210,1525555375,57.4094,-111.7709,940.9,646.2,88.1,6.1,-2.9,14.5,30.17,675.3842,140.0144],
    [17211,1525555376,57.4094,-111.7695,936.3,643.3,90.0,6.9,-0.8,14.74,30.71,675.3334,140.0065],
    [17212,1525555377,57.4094,-111.7682,930.9,637.9,90.4,7.2,-0.8,15.45,29.98,674.9805,140.0039],
    [17213,1525555378,57.4094,-111.7669,926.5,634.5,89.4,6.9,-2.0,14.71,30.25,674.9091,139.9957],
    [17214,1525555379,57.4094,-111.7656,923.5,631.2,90.1,7.0,-1.2,14.94,30.37,674.8903,140.0033],
    [17215,1525555380,57.4094,-111.7642,920.3,627.3,90.2,7.3,-0.7,14.76,29.95,674.846,140.0026],
    [17216,1525555381,57.4093,-111.7629,919.5,626.2,89.2,7.6,-1.7,15.52,29.9,674.7805,140.0075],
    [17217,1525555382,57.4093,-111.7616,922.0,629.0,87.8,6.8,-2.7,14.68,30.78,674.6222,139.9923],
    [17218,1525555383,57.4093,-111.7604,924.3,631.3,88.4,7.1,-1.9,14.82,30.56,674.5743,139.9889],
    [17219,1525555384,57.4093,-111.759,925.7,632.7,87.7,7.2,-2.1,14.85,30.38,674.6973,140.0063],
    [17220,1525555385,57.4094,-111.7577,926.1,633.1,88.3,7.3,-1.4,14.82,31.04,674.8964,140.0057],
    [17221,1525555386,57.4094,-111.7564,926.5,633.5,87.5,6.8,-2.3,14.92,30.39,674.9859,140.005],
    [17222,1525555387,57.4094,-111.7551,927.7,632.4,86.7,6.3,-2.0,15.03,30.83,675.1274,140.0099],
    [17223,1525555388,57.4094,-111.7539,929.3,628.6,88.2,5.8,0.3,14.9,30.27,675.1025,139.9956],
    [17224,1525555389,57.4094,-111.7527,928.7,623.8,86.6,6.5,-1.2,14.71,30.53,675.2258,140.0122],
    [17225,1525555390,57.4094,-111.7514,927.0,617.1,86.3,6.8,-1.1,14.81,30.94,675.2941,140.0065],
    [17226,1525555391,57.4095,-111.7501,925.4,614.2,86.9,6.5,-0.6,14.86,30.53,675.2082,139.9905],
    [17227,1525555392,57.4095,-111.7489,924.1,612.2,86.9,6.8,-0.9,14.74,30.51,675.253,139.9947],
    [17228,1525555393,57.4095,-111.7477,923.2,611.5,87.4,7.0,-0.9,14.91,30.27,675.3271,140.0079],
    [17229,1525555394,57.4095,-111.7464,922.7,612.6,87.4,6.8,-1.5,14.75,30.35,675.2718,140.009],
    [17230,1525555395,57.4096,-111.745,921.6,614.6,87.1,7.5,-1.8,14.85,30.49,675.2666,139.9964],
    [17231,1525555396,57.4096,-111.7438,921.1,617.1,88.7,7.0,0.3,15.32,30.17,675.2836,139.9997],
    [17232,1525555397,57.4096,-111.7426,921.4,619.4,89.3,6.7,1.1,14.88,30.43,675.2159,140.0],
    [17233,1525555398,57.4096,-111.7413,921.0,622.0,88.4,6.0,0.2,15.32,29.81,675.1531,140.0069],
    [17234,1525555399,57.4096,-111.7399,920.9,622.8,86.6,7.1,-1.6,14.75,30.42,675.1211,140.0034],
    [17235,1525555400,57.4097,-111.7387,921.1,624.1,87.4,7.0,-0.6,15.08,30.64,674.9879,140.0007],
    [17236,1525555401,57.4097,-111.7374,921.3,625.3,87.7,7.1,-0.2,14.98,30.83,674.7582,139.9841],
    [17237,1525555402,57.4097,-111.7362,921.7,624.7,87.4,8.0,0.0,14.85,30.54,674.6,139.9946],
    [17238,1525555403,57.4097,-111.7349,922.3,624.2,86.2,8.6,-0.5,14.98,30.98,674.4993,140.0049],
    [17239,1525555404,57.4098,-111.7337,923.2,623.2,85.4,8.4,-0.2,14.99,30.33,674.215,139.9919],
    [17240,1525555405,57.4098,-111.7324,924.5,619.7,85.7,7.9,0.3,14.91,30.54,674.0632,139.998],
    [17241,1525555406,57.4099,-111.7311,926.1,619.8,85.3,6.8,-0.2,15.11,30.27,674.0321,139.9947],
    [17242,1525555407,57.4099,-111.7299,928.4,621.2,85.1,6.1,-1.2,14.86,30.48,674.0667,140.007],
    [17243,1525555408,57.41,-111.7286,931.3,623.1,83.6,7.7,-3.4,14.63,30.41,674.4129,140.0157],
    [17244,1525555409,57.41,-111.7274,933.7,625.4,85.0,7.1,-2.2,14.57,30.39,674.4922,140.0024],
    [17245,1525555410,57.41,-111.726,935.1,626.6,85.8,7.6,-2.1,14.73,30.29,674.5881,139.9944],
    [17246,1525555411,57.4101,-111.7247,935.7,628.4,85.9,7.9,-2.1,14.9,30.22,674.6176,139.9948],
    [17247,1525555412,57.4101,-111.7236,935.4,628.5,87.1,9.0,-1.6,14.49,30.41,674.514,139.9957],
    [17248,1525555413,57.4101,-111.7222,932.7,627.6,86.7,10.5,-3.1,14.64,30.63,674.3786,139.9981],
    [17249,1525555414,57.4101,-111.7209,930.5,629.9,89.7,10.5,-0.5,14.92,30.65,674.435,140.0069],
    [17250,1525555415,57.4101,-111.7197,929.2,634.6,92.0,10.9,0.8,14.59,30.52,674.4819,139.9982],
    [17251,1525555416,57.4101,-111.7184,928.8,636.4,90.2,9.9,-1.1,15.49,30.3,674.6096,139.9891],
    [17252,1525555417,57.4101,-111.7171,929.5,635.9,91.9,10.3,0.7,14.83,30.68,674.6764,140.0088],
    [17253,1525555418,57.41,-111.7157,930.8,635.9,91.8,10.3,0.1,14.92,30.5,674.7021,139.9997],
    [17254,1525555419,57.41,-111.7145,931.0,630.7,91.4,10.5,-0.9,14.82,30.99,674.6913,139.9943],
    [17255,1525555420,57.41,-111.7131,930.2,625.1,91.1,10.8,-1.3,14.48,30.71,674.8353,140.0],
    [17256,1525555421,57.41,-111.7118,928.8,620.9,93.4,11.4,0.9,14.87,30.83,674.7633,140.0021],
    [17257,1525555422,57.4099,-111.7104,927.5,621.5,91.5,10.8,-1.8,15.33,30.67,674.7811,140.0047],
    [17258,1525555423,57.4099,-111.7091,927.3,621.3,89.5,9.8,-3.2,14.76,30.55,674.8769,139.9973],
    [17259,1525555424,57.4099,-111.708,927.3,617.9,91.6,10.7,-0.5,14.76,30.72,675.0099,139.9972],
    [17260,1525555425,57.4099,-111.7066,926.6,618.5,91.2,10.3,-0.3,14.7,30.54,675.1026,139.9948],
    [17261,1525555426,57.4099,-111.7052,926.5,622.3,90.0,9.9,-0.2,14.66,30.61,675.2563,140.0014],
    [17262,1525555427,57.4099,-111.7039,926.0,624.7,90.1,10.2,0.6,14.41,30.51,675.3156,140.0024],
    [17263,1525555428,57.4099,-111.7026,925.0,628.1,89.5,9.8,0.3,15.08,30.31,675.5463,140.0074],
    [17264,1525555429,57.4099,-111.7013,923.8,630.4,90.5,9.2,1.1,15.21,30.63,675.6621,140.0154],
    [17265,1525555430,57.4099,-111.7,922.3,631.0,90.8,8.6,1.0,15.05,31.04,675.8287,140.0058],
    [17266,1525555431,57.4099,-111.6986,920.6,632.3,90.1,7.1,0.3,14.83,30.77,675.9268,140.0039],
    [17267,1525555432,57.4099,-111.6974,919.0,634.0,91.0,6.9,1.4,14.51,30.59,676.0844,140.0046],
    [17268,1525555433,57.4099,-111.696,917.4,634.3,91.0,7.7,0.9,15.24,30.44,676.1952,139.9945],
    [17269,1525555434,57.4099,-111.6948,915.7,634.4,90.8,8.6,-0.3,15.57,30.11,676.6555,140.0045],
    [17270,1525555435,57.4099,-111.6934,914.1,634.0,92.8,8.5,0.3,14.91,30.64,676.8111,140.0142],
    [17271,1525555436,57.4098,-111.6921,912.6,634.3,97.2,9.7,1.9,14.78,30.42,676.9737,139.9975],
    [17272,1525555437,57.4097,-111.691,911.3,633.3,99.1,9.6,0.8,15.12,31.03,677.2475,140.0024],
    [17273,1525555438,57.4096,-111.6896,908.8,631.8,102.3,9.2,0.7,14.96,30.38,677.2477,139.995],
    [17274,1525555439,57.4095,-111.6883,905.5,629.5,105.6,9.0,0.8,14.72,30.6,677.7063,140.0139],
    [17275,1525555440,57.4093,-111.6871,902.0,628.0,109.2,8.9,1.1,15.47,30.23,678.0224,140.0003],
    [17276,1525555441,57.4091,-111.6858,899.7,626.7,113.6,9.7,1.8,14.49,30.47,678.2247,140.0089],
    [17277,1525555442,57.4088,-111.6846,897.7,625.7,116.2,10.1,1.3,14.98,30.04,678.6931,140.0072],
    [17278,1525555443,57.4086,-111.6835,895.5,623.6,119.1,10.4,1.3,15.07,30.58,678.7842,140.0063],
    [17279,1525555444,57.4083,-111.6824,892.3,621.3,122.4,11.0,1.9,15.18,30.34,679.0651,140.0045],
    [17280,1525555445,57.4079,-111.6812,888.0,618.0,125.9,10.9,1.8,14.97,31.16,679.1565,140.0073],
    [17281,1525555446,57.4076,-111.6801,884.0,615.0,128.5,10.6,1.4,14.96,30.79,679.1505,140.0102],
    [17282,1525555447,57.4072,-111.6791,880.4,612.4,132.0,10.9,1.9,14.49,30.51,679.1132,140.0076],
    [17283,1525555448,57.4067,-111.6779,877.0,610.0,135.8,11.2,1.8,14.39,30.41,679.2819,139.9959],
    [17284,1525555449,57.4063,-111.677,874.5,608.5,138.8,11.4,1.6,14.7,30.69,679.4145,139.9966],
    [17285,1525555450,57.4058,-111.6761,873.1,608.9,141.0,11.1,0.6,15.57,30.01,679.7238,140.0005],
    [17286,1525555451,57.4054,-111.6752,872.9,617.2,142.4,9.7,-0.7,14.65,30.28,679.888,139.9947],
    [17287,1525555452,57.4048,-111.6744,873.1,624.2,145.3,9.8,-1.3,15.02,30.37,680.3086,139.9991],
    [17288,1525555453,57.4043,-111.6736,872.0,613.5,149.4,10.8,-0.7,14.95,30.19,680.4209,140.0042],
    [17289,1525555454,57.4038,-111.6729,869.8,603.8,152.7,10.3,-0.2,14.78,30.28,680.8113,140.0046],
    [17290,1525555455,57.4033,-111.6722,867.1,598.6,155.2,9.2,-0.3,15.35,29.76,680.8822,140.0039],
    [17291,1525555456,57.4027,-111.6716,863.9,595.9,159.1,9.6,0.0,14.9,30.36,681.0632,139.9978],
    [17292,1525555457,57.4021,-111.6711,860.5,592.5,162.5,10.1,0.4,15.04,30.14,681.2032,140.0071],
    [17293,1525555458,57.4015,-111.6706,856.3,589.3,166.3,11.3,0.2,15.39,30.15,681.3416,139.9989],
    [17294,1525555459,57.4009,-111.6702,853.0,586.0,168.6,10.8,-0.8,15.12,30.12,681.6703,140.0096],
    [17295,1525555460,57.4003,-111.6698,851.3,584.3,170.2,10.2,-0.6,15.12,30.35,681.8253,140.0015],
    [17296,1525555461,57.3997,-111.6694,849.5,582.8,172.4,10.9,-0.3,15.07,29.97,681.8544,139.9929],
    [17297,1525555462,57.3991,-111.6691,847.6,581.6,173.4,10.9,0.4,15.32,30.1,682.008,140.007],
    [17298,1525555463,57.3984,-111.6688,845.3,579.3,174.9,12.4,1.0,15.32,29.92,681.9078,140.0112],
    [17299,1525555464,57.3978,-111.6685,842.7,576.7,174.3,11.5,-0.9,15.34,29.87,681.753,140.0008],
    [17300,1525555465,57.3972,-111.6682,840.5,574.5,170.4,7.2,-0.7,15.78,29.36,681.6321,140.0069],
    [17301,1525555466,57.3965,-111.6679,839.1,574.1,170.4,7.3,0.5,15.19,29.93,681.5987,139.9979],
    [17302,1525555467,57.3959,-111.6676,837.8,572.8,171.0,7.7,0.8,15.3,29.62,681.4946,140.0002],
    [17303,1525555468,57.3953,-111.6673,838.4,574.4,170.5,6.7,0.1,15.32,29.85,681.4672,139.9975],
    [17304,1525555469,57.3948,-111.667,839.9,575.9,171.2,6.9,-0.2,15.33,30.36,681.5045,140.0027],
    [17305,1525555470,57.3941,-111.6667,841.8,578.8,172.3,7.2,-0.1,15.19,29.8,681.6065,140.0079],
    [17306,1525555471,57.3935,-111.6664,842.5,579.8,174.1,8.0,0.1,15.51,29.16,681.5922,140.0067],
    [17307,1525555472,57.3928,-111.6662,843.4,581.4,175.4,7.6,0.0,15.93,29.29,681.4489,139.9961],
    [17308,1525555473,57.3922,-111.666,844.1,583.8,177.1,8.1,-0.1,14.97,29.67,681.3417,139.9973],
    [17309,1525555474,57.3916,-111.6658,843.8,584.8,178.7,9.0,-0.2,15.38,29.84,681.1937,139.994],
    [17310,1525555475,57.391,-111.6656,843.2,584.1,179.6,9.3,-0.8,14.62,29.77,681.1169,140.0047],
    [17311,1525555476,57.3904,-111.6655,843.2,585.2,180.3,9.2,-1.3,15.24,29.73,680.9105,139.9958],
    [17312,1525555477,57.3898,-111.6653,844.2,586.2,180.0,8.3,0.2,15.36,29.59,680.8538,139.9987],
    [17313,1525555478,57.3892,-111.6652,845.5,588.7,180.8,9.0,1.1,15.18,29.5,680.8086,139.9832],
    [17314,1525555479,57.3886,-111.6651,846.5,590.0,182.5,10.7,2.0,15.2,29.61,680.7012,139.9996],
    [17315,1525555480,57.388,-111.665,848.2,594.0,183.7,11.5,0.4,15.3,29.61,680.5086,139.9957],
    [17316,1525555481,57.3874,-111.6648,850.2,596.7,184.1,11.2,-1.0,15.59,29.55,680.2053,139.9993],
    [17317,1525555482,57.3868,-111.6647,851.3,598.5,184.3,10.7,-0.7,16.0,29.02,679.7197,139.9965],
    [17318,1525555483,57.3861,-111.6646,851.7,600.7,183.6,9.8,1.1,15.84,29.56,679.5983,140.0154],
    [17319,1525555484,57.3855,-111.6646,853.2,603.2,184.7,10.3,1.9,15.52,30.27,679.8162,139.9962],
    [17320,1525555485,57.3849,-111.6645,855.7,606.4,183.7,8.1,0.4,15.79,29.11,679.8026,139.991],
    [17321,1525555486,57.3843,-111.6644,859.9,612.9,181.6,5.3,0.6,15.56,30.15,680.0005,140.0],
    [17322,1525555487,57.3837,-111.6644,863.6,618.3,181.4,4.9,0.7,15.47,29.65,680.0089,140.0088],
    [17323,1525555488,57.3831,-111.6643,866.1,621.6,182.6,5.5,-1.3,15.51,29.93,680.1342,139.9967],
    [17324,1525555489,57.3825,-111.6643,866.0,622.9,183.6,6.3,-0.8,15.58,29.92,680.0759,140.0087],
    [17325,1525555490,57.3818,-111.6643,864.9,623.1,187.0,9.4,-1.0,15.54,29.44,680.2187,139.9964],
    [17326,1525555491,57.3812,-111.6643,863.8,622.8,188.0,9.9,-1.8,15.04,29.81,680.4438,140.0021],
    [17327,1525555492,57.3806,-111.6643,863.4,622.3,188.0,9.4,-2.7,15.57,29.55,680.5142,139.9972],
    [17328,1525555493,57.38,-111.6643,862.6,622.5,187.3,8.3,-3.9,15.73,29.39,680.5336,139.9963],
    [17329,1525555494,57.3794,-111.6643,862.1,623.1,186.9,7.9,-4.5,15.89,28.75,680.7071,139.9907],
    [17330,1525555495,57.3788,-111.6643,860.9,623.3,187.0,8.1,-4.0,15.79,29.31,680.8311,140.0023],
    [17331,1525555496,57.3781,-111.6642,858.9,622.3,189.1,10.1,-3.9,15.64,29.58,680.8472,139.9954],
    [17332,1525555497,57.3776,-111.6643,857.2,621.6,190.2,10.5,-4.0,15.07,29.58,681.0079,139.9862],
    [17333,1525555498,57.3769,-111.6643,856.1,622.2,189.7,9.7,-3.0,15.67,29.57,681.4306,139.9967],
    [17334,1525555499,57.3763,-111.6643,855.5,622.5,191.0,11.1,-2.4,16.04,28.87,681.5588,140.006],
    [17335,1525555500,57.3757,-111.6643,854.2,622.2,192.1,11.4,-2.5,15.34,29.49,681.6733,139.9941],
    [17336,1525555501,57.3751,-111.6644,852.7,620.7,191.2,10.0,-0.7,15.53,29.89,681.7457,139.9969],
    [17337,1525555502,57.3744,-111.6645,850.2,618.2,192.7,11.1,0.3,15.67,29.7,682.2308,139.9982],
    [17338,1525555503,57.3738,-111.6645,847.0,615.0,193.3,11.1,0.1,15.11,29.38,682.3706,140.0004],
    [17339,1525555504,57.3732,-111.6646,844.6,612.6,193.1,10.3,-0.5,15.83,29.27,682.5308,140.0095],
    [17340,1525555505,57.3726,-111.6647,842.8,610.8,193.6,11.2,-0.6,15.58,29.24,682.6699,140.0099],
    [17341,1525555506,57.372,-111.6648,840.7,608.7,193.2,11.1,-0.8,16.07,28.64,682.8951,139.9963],
    [17342,1525555507,57.3714,-111.6649,837.3,605.0,191.2,9.7,0.3,15.3,29.2,683.2029,140.0104],
    [17343,1525555508,57.3708,-111.6649,834.5,602.2,190.3,9.4,1.1,16.12,28.94,683.2963,140.0058],
    [17344,1525555509,57.3701,-111.665,832.5,599.5,190.3,9.1,-0.1,15.66,29.25,683.3835,140.0067],
    [17345,1525555510,57.3695,-111.6651,830.8,598.1,189.7,7.9,-1.1,15.6,29.94,683.3569,140.005],
    [17346,1525555511,57.3688,-111.6651,828.4,596.4,191.6,9.7,-1.4,15.24,29.6,683.2609,140.0021],
    [17347,1525555512,57.3682,-111.6652,825.6,593.6,192.3,10.2,-1.7,15.05,29.04,683.2814,140.004],
    [17348,1525555513,57.3676,-111.6653,823.2,591.2,191.7,9.8,-2.1,15.31,29.01,683.3379,140.0055],
    [17349,1525555514,57.367,-111.6654,822.0,590.0,191.3,9.9,-1.7,15.86,28.52,683.1375,140.002],
    [17350,1525555515,57.3663,-111.6654,822.1,590.1,190.0,9.6,-1.4,15.81,28.71,683.1422,140.0057],
    [17351,1525555516,57.3657,-111.6654,822.8,590.8,188.5,9.3,-1.2,15.43,28.74,683.1326,140.0006],
    [17352,1525555517,57.3651,-111.6654,822.9,590.9,187.0,8.8,-1.3,15.72,28.59,683.1565,140.0037],
    [17353,1525555518,57.3645,-111.6654,822.9,590.9,185.3,8.7,-1.2,15.01,28.94,683.2265,139.9994],
    [17354,1525555519,57.3638,-111.6654,824.1,592.1,184.1,8.6,-1.3,15.84,28.27,683.1796,140.0025],
    [17355,1525555520,57.3632,-111.6653,825.2,593.2,182.8,8.1,-1.7,15.93,29.11,683.1571,140.0005],
    [17356,1525555521,57.3626,-111.6652,825.4,593.4,182.0,7.5,-1.7,15.47,28.86,683.1728,139.9929],
    [17357,1525555522,57.362,-111.6651,825.0,593.0,182.1,7.3,-1.6,15.48,28.78,683.1276,140.0003],
    [17358,1525555523,57.3614,-111.6651,824.6,592.6,183.8,8.3,-1.8,15.07,28.8,683.1048,139.9995],
    [17359,1525555524,57.3608,-111.665,824.8,592.8,184.7,8.0,-1.7,16.09,28.5,683.2429,140.0045],
    [17360,1525555525,57.3602,-111.665,825.1,593.1,185.6,8.2,-1.9,15.33,29.17,683.2107,139.9942],
    [17361,1525555526,57.3596,-111.6649,825.3,592.6,187.0,8.8,-2.0,15.71,29.11,683.1046,140.0025],
    [17362,1525555527,57.359,-111.6649,825.5,592.5,186.7,7.7,-2.1,15.4,28.88,682.8173,140.0046],
    [17363,1525555528,57.3584,-111.6649,825.4,592.4,186.8,7.8,-1.8,15.28,28.8,682.5815,140.0034],
    [17364,1525555529,57.3578,-111.6649,824.7,591.7,187.8,8.6,-1.1,15.74,28.67,682.387,140.0016],
    [17365,1525555530,57.3572,-111.665,824.4,591.4,187.6,8.1,-0.5,15.35,28.81,682.4121,139.9959],
    [17366,1525555531,57.3566,-111.665,825.4,592.4,188.0,8.2,0.2,15.68,29.07,682.4386,140.0096],
    [17367,1525555532,57.356,-111.665,827.7,593.7,188.2,8.2,-0.1,15.67,28.93,682.4033,139.997],
    [17368,1525555533,57.3554,-111.665,830.8,596.8,188.8,8.7,-0.8,15.77,29.12,682.1929,139.9993],
    [17369,1525555534,57.3549,-111.665,833.4,599.4,188.6,8.5,-1.5,15.92,28.64,682.004,140.0004],
    [17370,1525555535,57.3542,-111.6651,834.9,600.6,189.3,9.2,-1.7,15.13,29.12,681.8993,140.0053],
    [17371,1525555536,57.3536,-111.6651,834.6,599.6,188.2,8.0,-1.5,15.42,29.4,681.8897,140.006],
    [17372,1525555537,57.353,-111.6651,835.0,600.0,187.7,7.9,-2.0,15.08,28.89,681.6883,140.002],
    [17373,1525555538,57.3524,-111.6651,836.7,600.7,187.6,8.0,-1.6,15.64,28.53,681.5886,140.0002],
    [17374,1525555539,57.3519,-111.6651,838.9,602.9,186.1,6.8,-1.3,15.24,28.95,681.4494,139.9993],
    [17375,1525555540,57.3513,-111.6651,840.7,605.7,186.1,7.2,-1.8,15.21,29.01,681.4851,140.0022],
    [17376,1525555541,57.3507,-111.6651,842.0,607.0,186.5,7.5,-2.3,15.74,28.83,681.5449,140.0046],
    [17377,1525555542,57.3501,-111.6651,843.7,608.4,185.6,6.8,-2.3,16.3,28.64,681.5628,139.9962],
    [17378,1525555543,57.3495,-111.6651,845.6,610.6,184.8,6.6,-2.5,15.69,29.79,681.4393,140.0017],
    [17379,1525555544,57.3489,-111.665,846.5,611.5,184.8,7.1,-2.7,15.93,28.68,681.4972,139.9955],
    [17380,1525555545,57.3484,-111.665,846.2,612.1,184.9,7.0,-3.0,15.79,29.04,681.4673,140.0011],
    [17381,1525555546,57.3478,-111.665,845.9,611.9,184.8,6.9,-2.3,15.56,29.18,681.369,139.9959],
    [17382,1525555547,57.3472,-111.665,845.7,611.7,186.0,7.7,-1.9,15.52,29.74,681.1824,140.0079],
    [17383,1525555548,57.3467,-111.6649,845.7,610.8,184.7,6.0,-0.1,15.31,29.55,681.0679,140.0095],
    [17384,1525555549,57.346,-111.6649,845.4,610.4,183.7,5.3,0.5,15.6,29.18,680.8691,139.9965],
    [17385,1525555550,57.3456,-111.6649,845.6,610.6,183.9,5.9,0.4,15.89,28.9,680.6769,139.9962],
    [17386,1525555551,57.3449,-111.6649,847.7,612.7,183.5,6.2,0.1,15.68,29.23,680.65,139.9972],
    [17387,1525555552,57.3443,-111.6648,850.0,614.2,182.4,5.4,-1.3,15.34,29.45,680.6389,139.9994],
    [17388,1525555553,57.3438,-111.6648,852.1,615.4,181.0,4.5,-2.1,15.54,29.28,680.6126,140.0045],
    [17389,1525555554,57.3432,-111.6647,854.3,616.4,180.8,5.0,-1.6,15.58,29.35,680.3799,139.9945],
    [17390,1525555555,57.3426,-111.6646,855.7,616.8,180.6,5.7,0.1,15.51,29.87,680.2551,139.9932],
    [17391,1525555556,57.342,-111.6646,856.2,616.2,181.2,7.0,0.9,16.21,29.01,680.2522,139.9989],
    [17392,1525555557,57.3415,-111.6645,856.2,614.6,180.9,7.7,0.7,15.71,29.46,680.1119,140.0048],
    [17393,1525555558,57.3408,-111.6643,856.8,610.9,180.7,7.8,0.4,15.66,29.89,679.989,139.9863],
    [17394,1525555559,57.3403,-111.6642,858.1,609.3,180.5,7.4,0.8,15.8,29.4,680.0754,139.9908],
    [17395,1525555560,57.3397,-111.6641,860.2,607.2,182.1,8.9,1.3,16.19,28.84,680.1669,139.998],
    [17396,1525555561,57.3391,-111.664,861.9,607.0,182.2,8.8,0.4,15.97,29.05,679.9554,139.9986],
    [17397,1525555562,57.3386,-111.6639,863.1,606.5,181.0,8.0,0.4,16.3,29.26,679.7437,139.9929],
    [17398,1525555563,57.338,-111.6638,863.5,601.5,182.4,9.1,-0.3,15.78,29.81,679.5232,140.0027],
    [17399,1525555564,57.3374,-111.6637,863.2,599.5,183.1,9.5,2.2,15.75,29.34,679.3845,140.0013],
    [17400,1525555565,57.3369,-111.6636,862.5,595.5,184.6,10.5,2.1,15.54,29.46,679.3099,139.9998],
    [17401,1525555566,57.3363,-111.6635,863.6,595.9,184.2,9.4,1.9,15.54,29.92,679.2052,140.0029],
    [17402,1525555567,57.3357,-111.6634,865.8,597.3,183.7,8.6,1.2,15.43,29.83,678.9929,139.9999],
    [17403,1525555568,57.3351,-111.6634,868.6,600.4,183.1,7.7,1.2,15.65,29.95,678.9298,139.9935],
    [17404,1525555569,57.3345,-111.6633,871.3,601.6,182.3,6.9,1.2,15.21,29.73,679.0055,140.0056],
    [17405,1525555570,57.3339,-111.6632,873.1,603.4,184.1,8.5,0.4,16.12,29.47,678.9909,139.9982],
    [17406,1525555571,57.3334,-111.6632,874.8,605.5,185.0,8.7,-0.3,15.66,29.86,678.9636,140.0056],
    [17407,1525555572,57.3328,-111.6631,876.5,607.3,185.6,8.7,0.5,15.61,29.93,679.1836,139.9954],
    [17408,1525555573,57.3322,-111.6631,877.1,608.8,186.5,9.1,0.6,15.59,29.65,679.4491,140.0026],
    [17409,1525555574,57.3316,-111.6631,876.9,609.1,186.7,8.7,0.7,15.65,29.98,679.7717,140.0099],
    [17410,1525555575,57.331,-111.6631,876.8,609.5,187.5,8.7,1.1,16.35,29.32,680.0526,140.0018],
    [17411,1525555576,57.3305,-111.6631,876.8,609.5,188.1,8.5,-0.1,15.38,29.71,680.0463,139.9981],
    [17412,1525555577,57.3299,-111.6631,875.6,607.5,190.1,10.1,0.0,15.84,29.9,680.0248,139.9939],
    [17413,1525555578,57.3294,-111.6631,872.6,603.1,191.2,10.6,-0.6,15.28,29.49,680.0406,140.0037],
    [17414,1525555579,57.3287,-111.6631,868.1,597.7,190.4,10.0,-0.1,15.1,29.65,680.1465,140.0001],
    [17415,1525555580,57.3281,-111.6632,864.6,594.0,190.3,10.5,0.2,15.54,29.67,680.1421,140.0011],
    [17416,1525555581,57.3276,-111.6632,863.4,592.0,190.5,10.5,0.1,15.37,29.88,680.0616,139.993],
    [17417,1525555582,57.327,-111.6632,863.5,592.2,189.7,9.8,0.8,16.26,29.18,680.0623,139.9978],
    [17418,1525555583,57.3264,-111.6633,863.5,592.8,189.9,10.0,0.4,15.24,29.96,680.1389,140.0024],
    [17419,1525555584,57.3258,-111.6633,863.0,593.1,189.9,9.9,0.0,15.46,29.95,680.0901,139.9974],
    [17420,1525555585,57.3252,-111.6633,862.6,593.3,189.2,9.5,0.3,15.2,30.02,680.0574,139.9983],
    [17421,1525555586,57.3246,-111.6633,862.7,593.0,189.3,10.3,0.4,15.62,30.44,680.0948,140.0034],
    [17422,1525555587,57.324,-111.6633,862.8,593.3,189.5,10.6,0.5,15.11,29.9,680.0072,139.9987],
    [17423,1525555588,57.3235,-111.6633,862.7,593.3,188.6,9.3,0.1,15.51,29.99,679.8219,139.994],
    [17424,1525555589,57.3228,-111.6633,862.7,592.4,187.7,8.1,0.3,15.69,30.22,679.6848,140.0069],
    [17425,1525555590,57.3222,-111.6634,862.9,591.4,188.5,8.4,0.4,15.69,30.32,679.6408,140.0074],
    [17426,1525555591,57.3216,-111.6634,863.0,591.5,188.3,7.9,0.8,15.43,30.78,679.2452,140.0004],
    [17427,1525555592,57.321,-111.6634,863.9,591.6,188.7,8.0,0.2,15.53,30.41,679.0209,140.0013],
    [17428,1525555593,57.3204,-111.6635,865.4,593.1,188.7,8.0,1.3,15.41,29.87,678.5723,139.9914],
    [17429,1525555594,57.3198,-111.6635,867.1,594.7,189.6,8.7,1.4,15.39,29.76,678.5216,139.9965],
    [17430,1525555595,57.3192,-111.6636,868.8,596.5,190.1,8.8,0.8,15.71,29.77,678.3194,139.9973],
    [17431,1525555596,57.3186,-111.6636,871.9,600.8,189.2,8.2,1.8,15.93,29.18,678.1888,140.0029],
    [17432,1525555597,57.318,-111.6637,876.2,606.2,188.2,7.3,1.6,15.56,30.2,678.0855,140.0037],
    [17433,1525555598,57.3175,-111.6637,879.3,609.3,188.2,7.4,0.9,15.52,29.72,677.9935,140.0035],
    [17434,1525555599,57.3168,-111.6637,882.0,612.0,189.4,9.0,1.4,15.28,29.75,677.8184,140.002],
    [17435,1525555600,57.3162,-111.6638,884.1,614.1,191.2,10.8,0.3,15.94,28.93,677.7756,139.9931],
    [17436,1525555601,57.3156,-111.6638,886.0,616.7,193.2,12.4,0.1,15.32,29.77,677.7529,140.0],
    [17437,1525555602,57.3151,-111.6639,887.7,618.7,191.8,10.4,-0.7,15.63,29.61,678.0586,139.9969],
    [17438,1525555603,57.3144,-111.6639,889.3,621.6,190.6,9.2,-1.5,15.78,29.14,678.514,139.9932],
    [17439,1525555604,57.3139,-111.664,890.7,623.0,189.8,9.5,-0.7,15.92,29.34,679.0088,140.0113],
    [17440,1525555605,57.3133,-111.664,891.2,623.7,190.8,11.0,-1.4,15.63,29.69,679.4819,139.9932],
    [17441,1525555606,57.3127,-111.664,891.1,625.0,189.2,9.2,-1.3,15.5,30.06,679.7232,140.0098],
    [17442,1525555607,57.3121,-111.664,888.5,623.2,189.5,9.0,-1.2,15.4,29.56,680.1801,140.0042],
    [17443,1525555608,57.3115,-111.6641,883.7,618.1,192.4,10.2,-1.3,15.66,29.38,680.4321,140.0053],
    [17444,1525555609,57.3109,-111.6642,877.6,613.1,194.1,9.5,-1.3,15.29,29.71,680.5656,139.9954],
    [17445,1525555610,57.3103,-111.6643,871.8,607.1,198.2,10.6,-1.4,15.49,29.71,680.7956,140.0002],
    [17446,1525555611,57.3097,-111.6645,866.6,606.6,201.9,10.7,-2.0,15.14,29.56,680.926,140.002],
    [17447,1525555612,57.3091,-111.6648,862.2,605.7,205.6,11.1,-0.4,15.6,29.63,680.9992,139.9902],
    [17448,1525555613,57.3086,-111.6652,859.4,606.0,210.1,10.9,-0.8,15.15,29.67,681.569,140.0027],
    [17449,1525555614,57.3082,-111.6655,857.6,607.2,213.0,10.9,-0.7,15.56,30.37,681.6566,139.9998],
    [17450,1525555615,57.3076,-111.666,854.7,610.4,218.1,11.4,-1.4,15.27,29.55,681.9217,139.9933],
    [17451,1525555616,57.307,-111.6667,852.6,612.7,221.6,10.3,-0.6,15.72,29.04,682.2662,140.0063],
    [17452,1525555617,57.3066,-111.6673,850.5,613.5,225.3,10.8,-1.6,14.97,29.52,682.4178,140.0089],
    [17453,1525555618,57.3061,-111.6679,846.9,609.9,228.3,10.5,-2.2,15.67,29.5,682.5776,140.0103],
    [17454,1525555619,57.3057,-111.6686,843.1,606.1,230.4,10.5,-1.1,15.73,29.11,682.5383,140.0045],
    [17455,1525555620,57.3053,-111.6693,840.0,602.9,233.9,11.5,-1.7,15.43,29.11,682.5347,140.0057],
    [17456,1525555621,57.3049,-111.6701,836.7,600.7,237.4,11.2,-2.7,15.62,29.89,682.5362,140.0047],
    [17457,1525555622,57.3046,-111.6709,834.3,598.3,239.3,11.0,-2.0,15.46,29.06,682.5399,140.0025],
    [17458,1525555623,57.3043,-111.6717,832.4,596.4,241.0,10.2,-1.9,15.23,28.98,682.3927,139.9981],
    [17459,1525555624,57.3039,-111.6727,831.9,595.9,242.4,9.4,-1.6,15.76,29.18,682.3938,140.0034],
    [17460,1525555625,57.3037,-111.6734,832.1,596.8,243.4,9.2,-1.6,15.5,28.98,682.4835,140.0039],
    [17461,1525555626,57.3034,-111.6744,832.1,597.1,244.4,9.7,-0.1,16.33,28.5,682.5639,140.0093],
    [17462,1525555627,57.3031,-111.6752,832.7,597.7,245.8,9.8,0.3,15.91,28.67,682.5608,139.9955],
    [17463,1525555628,57.3029,-111.6762,833.6,597.6,248.1,10.4,0.2,15.7,29.38,682.6039,140.0135],
    [17464,1525555629,57.3027,-111.6771,834.1,598.1,250.6,10.5,-0.7,16.02,28.6,682.6198,140.0031],
    [17465,1525555630,57.3025,-111.6779,833.8,597.2,253.8,10.4,-2.3,15.64,28.84,682.5861,140.0034],
    [17466,1525555631,57.3023,-111.6789,833.2,595.5,255.4,9.7,-2.0,15.38,28.82,682.4042,139.9988],
    [17467,1525555632,57.3021,-111.6798,832.8,592.8,256.9,9.9,-2.0,15.52,29.55,682.2257,140.0041],
    [17468,1525555633,57.302,-111.6807,832.5,591.2,258.8,10.0,-2.4,15.54,29.24,681.8955,139.9987],
    [17469,1525555634,57.3018,-111.6816,832.4,586.4,259.2,9.7,-1.7,15.83,28.71,681.5723,140.0016],
    [17470,1525555635,57.3017,-111.6825,832.6,583.9,259.9,10.1,-1.2,15.66,28.66,681.1669,140.0029],
    [17471,1525555636,57.3016,-111.6834,834.0,582.8,260.1,10.1,-0.7,16.13,28.51,680.9179,139.9995],
    [17472,1525555637,57.3015,-111.6843,836.7,587.2,260.6,10.6,-0.5,16.27,28.44,680.6396,139.9942],
    [17473,1525555638,57.3014,-111.6852,840.6,594.6,261.1,10.5,-0.4,16.02,28.52,680.2449,140.0029],
    [17474,1525555639,57.3013,-111.6861,844.8,602.8,262.1,10.3,-0.8,15.91,28.23,680.2739,139.9991],
    [17475,1525555640,57.3012,-111.6869,849.1,608.1,262.9,10.5,-0.9,15.63,28.64,680.2245,139.9986],
    [17476,1525555641,57.3012,-111.6878,853.4,612.4,263.1,10.4,-0.7,15.73,28.83,680.2376,140.001],
    [17477,1525555642,57.3011,-111.6887,857.9,612.8,264.2,10.5,-1.2,15.71,28.67,680.253,140.005],
    [17478,1525555643,57.301,-111.6895,860.9,609.5,264.3,10.0,-0.9,15.78,29.25,680.3044,139.9973],
    [17479,1525555644,57.301,-111.6904,861.8,602.3,265.7,10.1,-1.5,16.12,28.26,680.3393,139.9983],
    [17480,1525555645,57.3009,-111.6911,861.9,596.5,267.4,10.2,-1.9,16.1,28.63,680.3622,140.0],
    [17481,1525555646,57.3009,-111.6921,862.0,591.0,268.8,10.6,-1.8,15.55,28.98,680.4096,140.0016],
    [17482,1525555647,57.3009,-111.6929,861.8,587.7,270.1,10.2,-1.8,15.62,28.5,680.399,140.0015],
    [17483,1525555648,57.3009,-111.6938,861.5,585.5,272.3,10.4,-2.6,15.94,28.29,680.3695,140.0069],
    [17484,1525555649,57.3009,-111.6947,860.7,583.7,273.8,10.3,-2.9,15.85,28.79,680.3011,139.9923],
    [17485,1525555650,57.3009,-111.6955,860.2,582.2,274.4,11.0,-2.7,16.05,28.34,680.355,140.002],
    [17486,1525555651,57.3009,-111.6963,859.9,580.9,275.2,10.7,-2.9,15.25,28.88,680.2681,140.0051],
    [17487,1525555652,57.3009,-111.6972,860.2,579.5,275.6,10.7,-3.3,15.73,28.71,680.2892,139.9959],
    [17488,1525555653,57.301,-111.698,860.4,578.4,274.8,10.5,-2.8,15.5,28.79,680.3119,140.0093],
    [17489,1525555654,57.301,-111.6987,860.8,577.8,273.6,11.7,-2.2,15.58,28.87,680.2814,139.9985],
    [17490,1525555655,57.301,-111.6997,861.1,577.1,273.9,11.6,-2.8,15.88,29.38,680.2614,139.9967],
    [17491,1525555656,57.301,-111.7006,861.1,575.8,272.5,11.7,-1.6,15.46,29.19,680.1804,140.0098],
    [17492,1525555657,57.301,-111.7014,861.6,574.5,271.5,10.6,-1.4,15.67,29.01,680.2886,140.0024],
    [17493,1525555658,57.301,-111.7022,861.4,573.4,272.0,10.7,-2.1,15.23,28.99,680.3215,140.0033],
    [17494,1525555659,57.301,-111.703,861.3,573.3,270.4,11.2,-0.7,15.6,29.13,680.2631,139.9968],
    [17495,1525555660,57.301,-111.704,862.0,573.0,270.2,10.5,-0.8,15.13,29.22,680.2563,140.0003],
    [17496,1525555661,57.301,-111.7048,862.4,573.4,268.7,10.7,0.8,15.64,29.26,680.2001,139.9994],
    [17497,1525555662,57.301,-111.7056,862.3,573.3,268.5,9.9,0.6,15.45,29.35,680.2053,139.9944],
    [17498,1525555663,57.301,-111.7065,861.8,572.8,268.9,8.7,0.1,15.27,29.33,680.0979,139.9933],
    [17499,1525555664,57.301,-111.7073,862.0,572.0,268.1,8.5,0.2,15.68,29.1,680.1918,139.9949],
    [17500,1525555665,57.3009,-111.7081,862.3,572.3,268.5,8.3,-0.8,15.07,29.31,680.2075,139.999],
    [17501,1525555666,57.3009,-111.709,862.6,572.6,268.1,8.7,-0.8,15.9,28.7,680.3057,140.0053],
    [17502,1525555667,57.3009,-111.7098,862.9,572.9,268.0,9.5,-0.8,15.61,29.43,680.2537,139.9959],
    [17503,1525555668,57.3009,-111.7107,863.3,573.3,268.5,9.4,-0.9,15.07,29.46,680.1117,139.9936],
    [17504,1525555669,57.3009,-111.7115,863.4,573.4,270.3,8.7,-1.6,15.19,29.52,680.1828,140.0045],
    [17505,1525555670,57.3009,-111.7123,863.3,573.3,271.2,8.4,-1.5,15.4,29.62,680.088,140.0021],
    [17506,1525555671,57.3009,-111.7133,862.4,572.4,272.6,8.1,-2.4,15.28,29.59,679.9404,139.9948],
    [17507,1525555672,57.3009,-111.7142,862.3,572.1,272.9,7.6,-2.4,15.12,29.69,680.062,139.9885],
    [17508,1525555673,57.3009,-111.7151,863.4,572.4,272.0,7.5,-1.3,15.98,29.0,680.0648,140.0035],
    [17509,1525555674,57.3009,-111.7159,863.8,572.8,272.2,7.7,-1.3,15.62,29.68,680.0918,140.0069],
    [17510,1525555675,57.3009,-111.7168,864.5,573.5,272.7,5.9,-1.4,15.72,29.89,680.1729,139.9988],
    [17511,1525555676,57.3009,-111.7177,865.3,574.3,272.4,7.2,-1.4,15.37,29.98,680.0029,140.0025],
    [17512,1525555677,57.3009,-111.7185,864.8,573.8,273.2,8.8,-2.3,15.62,30.03,679.9617,139.9964],
    [17513,1525555678,57.3009,-111.7194,864.2,573.2,271.7,8.7,-0.9,14.84,29.85,679.9377,139.9963],
    [17514,1525555679,57.3009,-111.7204,863.9,571.8,269.4,8.9,0.8,15.05,29.85,679.6945,139.9944],
    [17515,1525555680,57.3009,-111.7213,863.5,571.5,269.9,8.6,-0.4,15.76,29.6,679.7309,140.0021],
    [17516,1525555681,57.3009,-111.7222,864.3,572.3,268.8,8.5,0.3,15.21,29.82,679.7091,140.0061],
    [17517,1525555682,57.3009,-111.7231,865.3,572.3,267.2,9.2,1.3,15.78,29.75,679.7773,139.9855],
    [17518,1525555683,57.3009,-111.7239,866.5,572.4,267.7,10.1,0.8,15.7,29.96,679.8655,140.0099],
    [17519,1525555684,57.3009,-111.7249,868.3,574.2,267.5,7.9,0.8,15.56,29.61,679.843,139.9892],
    [17520,1525555685,57.3008,-111.7257,868.7,573.7,267.3,6.9,0.8,15.77,29.79,679.8088,139.9919],
    [17521,1525555686,57.3008,-111.7266,867.9,571.7,264.7,5.9,3.2,15.43,29.52,679.6885,139.998],
    [17522,1525555687,57.3008,-111.7275,867.1,569.4,264.0,7.8,3.4,15.25,29.73,679.5696,139.9996],
    [17523,1525555688,57.3008,-111.7284,865.8,567.6,265.7,6.8,2.2,15.07,30.1,679.4827,139.9963],
    [17524,1525555689,57.3008,-111.7293,866.3,567.3,265.6,8.3,2.6,15.54,30.2,679.4988,139.9978],
    [17525,1525555690,57.3007,-111.7302,867.7,567.7,268.4,8.3,0.0,15.61,29.93,679.5186,139.9905],
    [17526,1525555691,57.3007,-111.7311,869.4,568.4,269.9,7.4,-0.9,15.29,29.66,679.4518,140.0036],
    [17527,1525555692,57.3007,-111.732,870.7,569.7,270.5,6.4,-0.9,15.75,30.08,679.3463,140.0005],
    [17528,1525555693,57.3007,-111.7329,871.5,569.5,270.8,5.8,-0.5,15.44,29.97,679.2414,139.9992],
    [17529,1525555694,57.3007,-111.7338,871.7,569.7,270.6,7.0,-0.1,15.9,29.21,679.1604,139.9953],
    [17530,1525555695,57.3007,-111.7347,871.9,569.6,271.2,6.9,-1.1,15.41,29.49,679.1484,140.0044],
    [17531,1525555696,57.3007,-111.7356,872.2,569.2,270.7,6.7,-1.0,15.5,30.39,679.0932,139.9892],
    [17532,1525555697,57.3007,-111.7366,873.0,570.0,269.8,6.8,-0.7,15.03,30.05,678.9897,140.001],
    [17533,1525555698,57.3007,-111.7375,874.2,571.2,269.6,5.9,-1.0,15.3,29.77,678.8841,139.9973],
    [17534,1525555699,57.3007,-111.7384,875.4,572.4,268.9,5.5,-0.6,15.27,29.9,678.6539,140.004],
    [17535,1525555700,57.3007,-111.7393,875.8,573.8,267.5,6.3,0.7,16.02,29.63,678.4443,139.9887],
    [17536,1525555701,57.3007,-111.7403,876.4,574.4,267.7,6.8,0.2,15.44,30.09,678.2256,140.0],
    [17537,1525555702,57.3006,-111.7412,877.5,575.5,268.7,7.0,-0.4,15.52,30.21,677.8604,140.0026],
    [17538,1525555703,57.3006,-111.7421,878.9,577.9,268.6,7.1,-0.3,14.96,30.05,677.5926,139.9982],
    [17539,1525555704,57.3006,-111.7431,881.2,580.2,268.7,7.4,-0.5,15.37,30.16,677.3272,139.9955],
    [17540,1525555705,57.3006,-111.744,883.9,582.9,268.6,7.6,-1.0,15.4,30.02,676.95,139.9896],
    [17541,1525555706,57.3006,-111.7449,887.2,587.2,268.0,7.8,-0.4,15.03,30.38,676.981,139.9861],
    [17542,1525555707,57.3005,-111.7458,890.6,590.3,267.0,8.4,0.6,15.26,30.0,676.9955,139.9968],
    [17543,1525555708,57.3005,-111.7467,894.4,593.4,267.2,7.9,0.5,15.32,30.67,677.0566,140.0047],
    [17544,1525555709,57.3005,-111.7475,898.4,597.4,267.4,8.2,0.5,15.33,30.23,676.9877,140.0005],
    [17545,1525555710,57.3005,-111.7484,901.7,600.7,267.2,8.1,0.6,14.98,30.26,676.8749,139.9968],
    [17546,1525555711,57.3005,-111.7493,902.8,601.8,268.9,9.2,-0.9,15.29,30.13,676.6479,139.9945],
    [17547,1525555712,57.3004,-111.7502,902.5,601.5,269.6,10.1,-1.2,15.4,30.1,676.5356,139.9929],
    [17548,1525555713,57.3004,-111.7511,902.0,601.0,269.9,11.0,-1.2,15.19,29.88,676.6318,140.0127],
    [17549,1525555714,57.3004,-111.7519,902.4,601.3,269.9,10.2,-1.1,15.69,29.51,676.4505,139.9962],
    [17550,1525555715,57.3004,-111.7528,903.0,602.0,270.1,10.7,-1.5,15.2,29.92,676.4971,140.0031],
    [17551,1525555716,57.3004,-111.7538,904.8,602.8,269.8,11.3,-1.3,15.35,30.12,676.56,140.0045],
    [17552,1525555717,57.3004,-111.7546,907.0,605.0,269.6,11.2,-1.2,15.07,30.1,676.662,139.9995],
    [17553,1525555718,57.3004,-111.7555,907.8,605.8,269.9,9.3,-1.7,15.52,29.66,676.7351,140.0009],
    [17554,1525555719,57.3003,-111.7564,908.6,606.6,269.8,9.1,-1.7,15.09,30.15,676.7584,140.0021],
    [17555,1525555720,57.3003,-111.7573,908.9,606.9,269.4,9.4,-1.2,15.82,29.66,676.7267,139.9993],
    [17556,1525555721,57.3003,-111.7583,907.9,605.9,268.4,8.8,-0.3,14.83,30.02,676.6332,140.0043],
    [17557,1525555722,57.3003,-111.7591,906.8,604.8,268.5,8.8,-0.5,15.76,29.69,676.5865,139.9953],
    [17558,1525555723,57.3003,-111.76,905.8,603.8,269.0,9.1,-1.1,15.24,29.99,676.6232,139.997],
    [17559,1525555724,57.3003,-111.7609,905.5,604.0,269.6,8.8,-1.7,15.32,30.06,676.665,140.0005],
    [17560,1525555725,57.3002,-111.7618,905.8,603.7,268.7,8.8,-0.4,15.53,30.32,676.7712,140.0035],
    [17561,1525555726,57.3002,-111.7628,906.7,604.6,266.5,9.2,1.9,15.94,29.52,676.8168,139.9998],
    [17562,1525555727,57.3002,-111.7637,907.1,603.1,267.7,8.8,0.6,15.76,29.31,676.8589,139.9994],
    [17563,1525555728,57.3002,-111.7645,906.8,602.8,268.6,8.9,-0.1,14.72,30.0,676.8343,139.9993],
    [17564,1525555729,57.3002,-111.7655,906.5,601.5,269.2,8.7,-0.2,14.72,30.06,676.8439,139.9955],
    [17565,1525555730,57.3002,-111.7664,905.9,599.9,269.9,8.2,-0.3,15.11,30.0,676.8684,140.0064],
    [17566,1525555731,57.3002,-111.7672,905.0,599.0,270.4,7.7,-0.2,15.09,30.22,676.8446,140.001],
    [17567,1525555732,57.3002,-111.7682,904.4,598.4,269.8,7.6,0.7,14.67,30.14,676.7026,139.9926],
    [17568,1525555733,57.3002,-111.7691,904.2,599.2,269.5,7.8,1.2,14.72,29.98,676.7431,139.9981],
    [17569,1525555734,57.3002,-111.77,904.2,599.2,269.6,8.1,1.3,15.24,30.53,676.7273,139.9989],
    [17570,1525555735,57.3002,-111.771,904.2,599.2,270.1,7.6,1.2,15.14,30.18,676.5999,140.0024],
    [17571,1525555736,57.3002,-111.7719,904.3,600.3,270.3,7.2,1.1,15.22,30.47,676.5287,139.9928],
    [17572,1525555737,57.3002,-111.7728,904.7,600.7,271.0,7.5,0.6,15.31,30.34,676.4342,140.0015],
    [17573,1525555738,57.3002,-111.7737,904.9,600.9,271.1,9.0,0.6,14.95,30.02,676.2871,140.0007],
    [17574,1525555739,57.3003,-111.7746,905.5,601.5,271.4,8.0,0.5,15.34,29.94,676.2348,140.0005],
    [17575,1525555740,57.3003,-111.7756,906.3,601.3,271.3,8.1,0.2,15.05,30.27,676.0467,140.0045],
    [17576,1525555741,57.3003,-111.7765,907.7,602.7,270.9,8.2,0.1,14.59,30.01,675.8926,139.9991],
    [17577,1525555742,57.3003,-111.7774,909.0,604.0,271.0,8.2,-0.1,14.87,30.03,675.6736,139.9872],
    [17578,1525555743,57.3003,-111.7783,910.0,605.0,270.9,8.6,0.3,15.34,29.59,675.4454,139.9988],
    [17579,1525555744,57.3003,-111.7792,911.1,606.2,272.0,8.6,-0.3,15.64,29.37,675.1908,139.9975],
    [17580,1525555745,57.3003,-111.7802,912.8,606.8,272.7,7.8,-0.2,15.16,29.85,675.1017,139.9971],
    [17581,1525555746,57.3004,-111.7811,915.3,609.3,272.8,7.9,-0.1,14.69,30.2,674.9121,140.0044],
    [17582,1525555747,57.3004,-111.782,917.9,610.9,274.3,7.4,-1.6,15.2,29.95,674.796,139.9983],
    [17583,1525555748,57.3004,-111.7829,920.3,613.3,274.3,7.1,-1.3,15.39,29.58,674.7169,140.0027],
    [17584,1525555749,57.3005,-111.7839,923.2,614.1,272.3,8.3,0.2,15.08,30.11,674.6238,139.9965],
    [17585,1525555750,57.3005,-111.7848,925.5,615.5,272.6,8.0,-0.7,15.15,30.12,674.6162,139.996],
    [17586,1525555751,57.3005,-111.7857,927.5,617.2,272.6,6.9,-1.4,14.74,30.38,674.5411,140.0038],
    [17587,1525555752,57.3005,-111.7867,929.3,618.3,272.1,6.7,-2.0,15.15,30.15,674.4517,139.9973],
    [17588,1525555753,57.3005,-111.7876,930.3,619.3,271.7,6.8,-2.3,15.22,30.2,674.481,139.9929],
    [17589,1525555754,57.3005,-111.7885,931.1,620.1,271.2,6.2,-2.1,15.05,30.18,674.4443,140.0025],
    [17590,1525555755,57.3005,-111.7895,931.9,620.9,270.6,6.3,-1.7,15.24,30.75,674.5049,139.989],
    [17591,1525555756,57.3005,-111.7904,932.5,621.5,270.1,6.7,-1.0,14.95,30.21,674.5056,140.0017],
    [17592,1525555757,57.3005,-111.7912,933.2,622.2,269.5,7.4,-0.6,15.23,30.88,674.4377,139.9988],
    [17593,1525555758,57.3005,-111.7923,933.3,622.3,271.3,7.1,-2.4,15.22,30.91,674.311,139.9947],
    [17594,1525555759,57.3004,-111.7932,933.0,622.0,270.9,7.1,-1.7,15.76,30.03,674.1704,140.0034],
    [17595,1525555760,57.3004,-111.7942,932.7,620.7,270.7,7.9,-1.8,15.69,30.32,674.0692,139.9987],
    [17596,1525555761,57.3004,-111.7951,932.5,620.5,272.5,7.3,-3.6,15.22,30.45,673.9664,140.0004],
    [17597,1525555762,57.3004,-111.796,933.3,621.3,272.1,7.9,-3.2,15.51,29.96,673.7042,139.9966],
    [17598,1525555763,57.3004,-111.797,934.7,621.7,271.7,8.0,-2.9,15.44,30.62,673.644,139.9918],
    [17599,1525555764,57.3004,-111.7979,935.8,622.8,271.5,7.7,-2.7,14.93,30.45,673.7068,139.9928],
    [17600,1525555765,57.3004,-111.7989,937.6,624.6,271.2,7.6,-2.6,15.31,30.31,673.8479,139.9944],
    [17601,1525555766,57.3004,-111.7998,939.4,626.1,271.1,7.5,-2.5,15.13,30.71,673.9661,140.0036],
    [17602,1525555767,57.3004,-111.8009,941.4,627.4,270.7,7.5,-2.4,15.03,30.47,674.1333,139.999],
    [17603,1525555768,57.3004,-111.8018,942.6,628.6,271.2,7.7,-2.9,15.61,30.2,674.2359,139.9973],
    [17604,1525555769,57.3003,-111.8028,942.2,627.5,271.5,8.0,-3.2,15.18,30.64,674.2875,139.9965],
    [17605,1525555770,57.3003,-111.8037,940.7,625.7,271.4,9.0,-2.8,15.09,30.5,674.4315,139.9984],
    [17606,1525555771,57.3003,-111.8046,939.3,624.3,270.7,7.7,-1.8,14.63,30.59,674.4698,139.9994],
    [17607,1525555772,57.3003,-111.8057,938.1,622.1,269.8,7.9,-1.1,15.3,30.3,674.4711,139.996],
    [17608,1525555773,57.3003,-111.8067,936.0,620.0,270.5,7.6,-2.2,15.26,30.84,674.5149,140.001],
    [17609,1525555774,57.3003,-111.8076,934.7,618.7,269.3,7.8,-1.3,15.29,30.3,674.6053,140.0006],
    [17610,1525555775,57.3003,-111.8087,933.8,618.8,268.6,8.1,-1.1,15.19,30.45,674.6987,140.0045],
    [17611,1525555776,57.3002,-111.8096,932.8,617.8,269.1,6.9,-1.9,15.1,30.28,674.7694,139.9957],
    [17612,1525555777,57.3002,-111.8107,932.6,618.6,268.3,7.0,-1.3,15.22,30.37,674.797,139.9972],
    [17613,1525555778,57.3002,-111.8117,932.0,618.0,267.9,7.4,-1.0,15.27,30.78,674.7801,140.0012],
    [17614,1525555779,57.3001,-111.8127,930.9,616.9,268.7,6.9,-1.7,15.42,29.64,674.7935,139.9982],
    [17615,1525555780,57.3001,-111.8137,929.8,614.8,269.4,6.7,-1.7,15.19,30.36,674.7457,139.997],
    [17616,1525555781,57.3001,-111.8148,928.9,613.9,270.0,6.6,-1.6,15.29,30.12,674.7499,139.9953],
    [17617,1525555782,57.3001,-111.8158,928.5,612.5,271.7,6.5,-2.1,15.22,30.94,674.7521,139.9994],
    [17618,1525555783,57.3001,-111.8169,928.3,611.6,272.6,6.1,-1.9,15.4,30.03,674.7213,140.0012],
    [17619,1525555784,57.3001,-111.8179,928.3,611.3,273.9,5.8,-2.1,15.11,30.54,674.7765,139.9928],
    [17620,1525555785,57.3001,-111.819,928.5,610.5,274.2,6.0,-1.8,14.87,30.11,674.7862,139.9996],
    [17621,1525555786,57.3002,-111.82,928.7,609.7,275.2,6.4,-2.8,14.72,30.14,674.7691,140.0006],
    [17622,1525555787,57.3002,-111.821,928.5,609.5,275.2,6.1,-2.8,15.14,30.43,674.8297,139.9987],
    [17623,1525555788,57.3002,-111.8221,928.7,608.7,273.7,7.5,-1.7,15.13,30.66,674.8965,140.0037],
    [17624,1525555789,57.3003,-111.8231,928.3,608.3,273.2,7.2,-2.0,14.55,30.06,674.915,140.0031],
    [17625,1525555790,57.3003,-111.8242,928.1,608.1,272.5,7.6,-2.0,15.1,30.27,675.023,140.0029],
    [17626,1525555791,57.3003,-111.8252,928.2,608.2,271.4,8.1,-1.3,14.84,30.05,675.0196,140.0012],
    [17627,1525555792,57.3003,-111.8263,927.6,607.6,271.7,8.2,-1.7,15.22,30.03,675.0168,139.9966],
    [17628,1525555793,57.3003,-111.8273,927.2,607.2,271.6,7.8,-1.6,15.53,29.78,674.9877,139.9936],
    [17629,1525555794,57.3003,-111.8284,926.9,606.9,271.9,6.9,-2.1,15.29,29.67,675.0275,139.992],
    [17630,1525555795,57.3003,-111.8294,925.8,605.8,272.3,7.0,-2.6,14.7,29.92,675.0844,139.9987],
    [17631,1525555796,57.3003,-111.8303,925.5,605.5,271.7,7.5,-2.3,15.4,29.35,675.1407,140.0072],
    [17632,1525555797,57.3003,-111.8314,925.4,605.1,271.5,6.9,-2.6,15.21,29.63,675.13,139.998],
    [17633,1525555798,57.3003,-111.8325,925.2,604.2,270.5,7.5,-1.6,14.52,30.05,675.1744,140.0013],
    [17634,1525555799,57.3003,-111.8334,924.8,603.8,270.5,8.9,-1.8,15.12,29.61,675.1901,139.993],
    [17635,1525555800,57.3003,-111.8346,924.1,603.1,270.7,8.6,-2.0,15.9,29.57,675.3124,140.0016],
    [17636,1525555801,57.3002,-111.8356,924.0,603.0,269.3,7.4,-0.3,15.44,29.86,675.3847,140.0018],
    [17637,1525555802,57.3002,-111.8367,923.4,602.4,269.0,7.6,0.0,15.16,29.96,675.4166,139.999],
    [17638,1525555803,57.3002,-111.8377,923.0,602.0,268.8,8.3,0.3,15.15,29.68,675.5914,140.0065],
    [17639,1525555804,57.3002,-111.8387,922.6,601.6,269.3,8.7,-0.1,14.72,29.79,675.6235,139.9934],
    [17640,1525555805,57.3002,-111.8398,921.9,600.9,269.6,8.7,-0.1,14.63,29.96,675.5083,139.9964],
    [17641,1525555806,57.3002,-111.8408,920.6,598.6,269.5,8.5,0.6,15.42,29.41,675.2415,139.9942],
    [17642,1525555807,57.3002,-111.8419,919.5,597.5,270.2,7.9,-0.1,15.12,29.89,675.2758,140.0016],
    [17643,1525555808,57.3002,-111.8429,918.1,595.1,270.3,7.4,0.3,15.37,29.38,675.0886,140.0075],
    [17644,1525555809,57.3002,-111.844,917.3,594.3,270.2,8.8,0.4,15.15,29.86,675.0671,139.9965],
    [17645,1525555810,57.3002,-111.845,918.0,594.6,271.4,8.3,-0.5,14.74,29.76,674.9332,140.0058],
    [17646,1525555811,57.3002,-111.8461,920.2,596.2,272.1,9.4,-1.1,15.28,30.06,674.8338,139.9991],
    [17647,1525555812,57.3003,-111.8471,921.5,596.5,272.5,9.0,-1.2,15.29,29.62,674.6448,139.9852],
    [17648,1525555813,57.3003,-111.8482,923.1,598.1,271.6,9.0,-0.2,14.85,29.86,674.5692,140.0018],
    [17649,1525555814,57.3003,-111.8493,924.6,598.6,271.4,8.8,0.1,15.86,29.29,674.3406,139.9981],
    [17650,1525555815,57.3003,-111.8502,926.1,600.1,270.6,8.5,0.9,14.54,29.79,674.4797,139.9936],
    [17651,1525555816,57.3003,-111.8514,927.6,600.6,270.4,8.5,0.8,15.19,29.81,674.5868,140.0022],
    [17652,1525555817,57.3003,-111.8524,928.6,600.6,270.4,9.9,0.6,15.17,29.56,674.653,139.9983],
    [17653,1525555818,57.3003,-111.8534,929.7,600.7,270.2,10.6,0.8,14.92,29.49,674.8088,140.0141],
    [17654,1525555819,57.3003,-111.8545,930.9,601.9,269.9,10.6,1.1,15.78,28.61,674.8432,139.9928],
    [17655,1525555820,57.3004,-111.8555,930.8,600.8,271.0,11.0,-0.1,15.26,29.48,674.8933,140.0052],
    [17656,1525555821,57.3004,-111.8565,929.9,599.9,270.6,10.7,0.6,15.13,29.28,674.9615,140.0007],
    [17657,1525555822,57.3004,-111.8575,928.2,597.2,271.1,11.5,0.1,15.63,28.81,675.0502,140.005],
    [17658,1525555823,57.3004,-111.8586,927.0,596.0,271.1,11.5,0.2,15.35,29.86,675.2295,140.007],
    [17659,1525555824,57.3004,-111.8596,926.1,595.1,271.2,11.0,-0.6,15.17,29.12,675.179,140.0237],
    [17660,1525555825,57.3004,-111.8606,925.3,594.3,270.8,10.9,0.2,14.7,29.44,675.1721,140.0068],
    [17661,1525555826,57.3004,-111.8617,924.5,593.5,268.8,10.9,2.0,15.03,29.2,675.1502,139.9921],
    [17662,1525555827,57.3004,-111.8627,923.3,592.3,270.5,11.0,-0.2,14.55,29.24,675.1118,140.0099],
    [17663,1525555828,57.3004,-111.8637,921.1,589.1,269.9,10.3,-0.1,14.8,29.05,675.0175,139.993],
    [17664,1525555829,57.3004,-111.8647,920.6,588.6,269.2,9.9,0.4,15.19,29.04,675.0101,140.0067],
    [17665,1525555830,57.3004,-111.8658,921.6,588.6,269.1,9.1,-0.6,14.66,29.14,674.9143,139.9996],
    [17666,1525555831,57.3004,-111.8667,922.5,588.5,271.6,8.2,-3.6,15.3,29.7,674.8116,139.9959],
    [17667,1525555832,57.3004,-111.8679,923.4,588.4,269.9,7.8,-2.3,14.59,29.21,674.6536,139.9953],
    [17668,1525555833,57.3004,-111.8688,924.0,589.0,269.2,8.4,-2.3,15.28,28.92,674.4953,139.996],
    [17669,1525555834,57.3003,-111.87,924.9,588.9,269.0,8.4,-2.2,14.95,29.58,674.3701,139.9985],
    [17670,1525555835,57.3003,-111.8709,925.6,589.6,269.1,6.9,-2.2,15.13,29.35,674.2739,140.0048],
    [17671,1525555836,57.3003,-111.872,927.3,591.3,270.0,7.4,-2.7,15.01,29.37,674.163,139.9963],
    [17672,1525555837,57.3002,-111.8731,928.9,592.9,269.9,8.8,-2.0,15.35,29.85,673.9652,139.9907],
    [17673,1525555838,57.3002,-111.8741,930.6,595.6,269.4,9.6,-1.3,15.05,29.39,673.888,140.0075],
    [17674,1525555839,57.3002,-111.8752,932.2,597.2,270.4,10.0,-2.4,15.32,29.79,673.8079,139.9908],
    [17675,1525555840,57.3002,-111.8761,933.5,598.5,270.5,9.9,-2.2,14.88,29.31,673.7321,140.0023],
    [17676,1525555841,57.3002,-111.8772,935.5,599.7,271.1,10.2,-2.6,15.34,29.83,673.572,139.9923],
    [17677,1525555842,57.3002,-111.8783,937.2,601.2,273.3,9.9,-4.3,15.43,29.08,673.4388,139.9931],
    [17678,1525555843,57.3002,-111.8793,938.5,601.4,272.9,10.0,-2.5,15.45,28.68,673.4118,140.0057],
    [17679,1525555844,57.3002,-111.8803,939.3,602.3,272.3,11.0,-1.0,15.26,29.89,673.3692,140.0049],
    [17680,1525555845,57.3002,-111.8813,940.4,603.4,272.6,10.9,-0.7,15.33,29.76,673.2864,140.0038],
    [17681,1525555846,57.3002,-111.8824,941.9,603.8,272.4,11.4,-0.3,15.23,29.11,673.2522,140.004],
    [17682,1525555847,57.3003,-111.8834,943.1,605.0,273.0,12.4,-0.9,15.55,28.98,673.2625,140.0031],
    [17683,1525555848,57.3003,-111.8845,944.1,605.1,272.1,12.4,0.2,15.35,28.94,673.3177,140.0019],
    [17684,1525555849,57.3003,-111.8855,945.1,606.1,272.1,12.1,0.1,15.64,28.81,673.3763,140.006],
    [17685,1525555850,57.3003,-111.8865,946.0,607.0,272.5,11.6,-0.1,15.11,28.93,673.4542,140.0013],
    [17686,1525555851,57.3004,-111.8875,946.6,607.6,272.3,11.2,0.1,15.39,29.28,673.4579,139.9999],
    [17687,1525555852,57.3004,-111.8885,946.3,607.3,271.9,10.9,0.3,15.33,29.25,673.519,139.9927],
    [17688,1525555853,57.3004,-111.8895,945.6,606.6,270.9,11.1,0.6,14.78,28.74,673.4865,140.0041],
    [17689,1525555854,57.3004,-111.8905,945.1,606.1,270.9,10.1,-0.3,15.56,28.67,673.4996,140.0075],
    [17690,1525555855,57.3004,-111.8915,944.4,604.4,269.8,9.7,-0.3,15.19,28.64,673.4742,140.001],
    [17691,1525555856,57.3004,-111.8926,943.9,602.2,268.4,10.3,0.2,15.31,29.07,673.4706,139.9962],
    [17692,1525555857,57.3004,-111.8936,943.2,601.2,267.8,11.1,0.4,14.83,28.49,673.5868,140.0005],
    [17693,1525555858,57.3004,-111.8945,942.8,599.8,266.6,11.8,1.5,15.64,28.38,673.6931,139.9965],
    [17694,1525555859,57.3003,-111.8956,942.8,599.8,266.8,11.4,1.6,15.85,28.3,673.7379,139.9897],
    [17695,1525555860,57.3003,-111.8965,943.3,600.3,266.8,10.6,1.6,15.56,28.33,673.8925,139.9917],
    [17696,1525555861,57.3003,-111.8976,943.2,600.2,268.7,10.9,-0.2,15.11,28.69,673.8833,140.0049],
    [17697,1525555862,57.3003,-111.8986,942.5,599.5,269.7,10.4,-0.7,15.2,28.73,673.9622,139.9908],
    [17698,1525555863,57.3003,-111.8996,941.2,598.2,270.5,10.2,-1.1,15.16,28.83,673.8608,139.9934],
    [17699,1525555864,57.3003,-111.9006,940.1,596.8,271.6,10.2,-1.9,15.19,28.77,673.7469,140.0086],
    [17700,1525555865,57.3003,-111.9016,938.8,594.8,271.8,10.3,-2.1,15.95,28.22,673.5914,140.0005],
    [17701,1525555866,57.3003,-111.9027,936.8,591.8,271.6,10.5,-1.3,15.73,28.07,673.5034,139.9949],
    [17702,1525555867,57.3003,-111.9037,936.4,590.4,271.4,11.5,-1.0,15.45,28.87,673.2987,140.0047],
    [17703,1525555868,57.3003,-111.9048,937.5,592.5,274.2,11.2,-4.1,15.93,28.08,673.2226,140.0051],
    [17704,1525555869,57.3003,-111.9058,938.8,593.8,273.4,12.1,-2.4,15.24,29.42,673.0575,139.9934],
    [17705,1525555870,57.3003,-111.9068,940.8,595.8,271.5,12.6,-0.4,15.62,28.43,672.9488,139.9945],
    [17706,1525555871,57.3004,-111.9078,943.1,598.1,272.7,11.9,-1.9,15.17,28.55,672.8135,139.9988],
    [17707,1525555872,57.3004,-111.9088,945.2,600.2,272.2,11.7,-1.2,15.26,28.96,672.7245,140.0047],
    [17708,1525555873,57.3004,-111.9099,946.8,600.8,271.7,11.0,-0.5,15.3,29.0,672.2462,140.0011],
    [17709,1525555874,57.3004,-111.9109,948.3,602.3,272.8,11.0,-1.3,15.07,28.64,671.9847,140.0009],
    [17710,1525555875,57.3004,-111.9119,949.1,603.1,273.0,12.3,-1.0,15.77,27.86,671.9337,139.9992],
    [17711,1525555876,57.3004,-111.9129,950.6,604.6,273.5,13.6,-1.1,15.67,27.91,671.8732,139.9955],
    [17712,1525555877,57.3005,-111.9139,953.4,607.4,273.1,13.7,-0.5,15.86,27.95,671.9899,140.0004],
    [17713,1525555878,57.3005,-111.9148,957.2,610.2,273.0,12.3,-0.6,15.34,28.77,672.05,139.9981],
    [17714,1525555879,57.3005,-111.9158,961.3,614.3,272.7,12.2,-0.3,14.92,28.56,672.1907,140.0086],
    [17715,1525555880,57.3006,-111.9167,963.4,615.4,272.9,11.9,-0.3,15.09,28.57,672.2035,139.9992],
    [17716,1525555881,57.3006,-111.9177,963.9,615.9,273.7,11.7,-0.7,15.31,28.41,672.1598,140.0034],
    [17717,1525555882,57.3006,-111.9187,963.4,614.4,274.8,11.1,-0.9,15.39,29.22,672.073,140.0036],
    [17718,1525555883,57.3007,-111.9196,962.4,613.4,276.0,10.7,-1.3,15.14,28.85,672.0499,139.9944],
    [17719,1525555884,57.3007,-111.9206,961.1,611.3,275.7,10.0,-0.7,15.33,28.86,672.0309,140.0095],
    [17720,1525555885,57.3008,-111.9216,960.5,610.5,274.5,10.1,0.1,15.56,28.11,671.769,139.9976],
    [17721,1525555886,57.3008,-111.9225,960.9,610.9,274.3,9.8,-0.1,15.27,28.64,671.6925,140.0056],
    [17722,1525555887,57.3009,-111.9235,961.9,610.9,273.4,9.1,0.2,15.81,28.48,671.5317,139.9976],
    [17723,1525555888,57.3009,-111.9245,962.2,610.2,272.9,9.7,0.1,15.55,28.31,671.4922,139.9907],
    [17724,1525555889,57.3009,-111.9254,962.0,609.3,271.8,10.1,0.7,15.12,29.53,671.4245,140.003],
    [17725,1525555890,57.301,-111.9264,963.4,609.6,270.3,9.4,1.5,15.51,28.48,671.3471,140.0014],
    [17726,1525555891,57.301,-111.9274,966.0,611.9,269.0,8.7,2.5,15.01,29.01,671.1548,139.9959],
    [17727,1525555892,57.301,-111.9284,967.5,612.6,269.5,9.9,1.4,14.92,28.95,670.977,139.9996],
    [17728,1525555893,57.301,-111.9294,968.7,612.8,270.3,9.8,0.3,14.77,29.19,670.8281,140.0031],
    [17729,1525555894,57.301,-111.9303,969.6,612.9,269.9,9.7,0.6,15.87,28.87,670.7356,140.0017],
    [17730,1525555895,57.301,-111.9313,970.9,613.9,269.7,9.1,0.6,15.21,29.13,670.5443,139.9865],
    [17731,1525555896,57.301,-111.9323,972.6,615.6,270.1,9.6,0.1,15.46,28.75,670.5573,139.9977],
    [17732,1525555897,57.301,-111.9332,974.4,617.4,269.7,9.4,0.8,14.84,28.96,670.5127,139.9813],
    [17733,1525555898,57.301,-111.9342,976.3,618.2,269.9,9.8,0.9,15.35,29.23,670.3636,139.9896],
    [17734,1525555899,57.301,-111.9352,977.8,619.9,271.1,9.1,-0.2,15.67,28.43,670.0056,140.0114],
    [17735,1525555900,57.301,-111.9362,979.0,618.9,272.5,8.7,-1.9,15.47,28.54,670.3636,140.0008],
    [17736,1525555901,57.301,-111.9371,979.9,618.9,272.2,8.8,-1.9,15.04,29.13,670.2348,140.0104],
    [17737,1525555902,57.301,-111.9381,980.7,618.7,271.0,9.4,-2.1,15.2,29.36,670.1763,140.0034],
    [17738,1525555903,57.301,-111.9392,981.9,619.3,270.8,10.6,-2.8,16.0,28.6,669.9382,139.9981],
    [17739,1525555904,57.301,-111.9401,983.2,620.2,268.1,10.8,-0.6,15.06,29.24,669.5899,140.0076],
    [17740,1525555905,57.301,-111.9411,983.1,620.1,269.2,9.9,-2.3,15.87,28.92,669.1603,140.0018],
    [17741,1525555906,57.301,-111.9421,983.4,620.4,270.1,9.5,-2.2,15.25,29.15,668.7266,139.9931],
    [17742,1525555907,57.3009,-111.9431,985.0,621.0,270.7,10.1,-1.3,15.31,28.92,668.0974,140.0003],
    [17743,1525555908,57.3009,-111.9441,987.9,623.9,273.1,9.9,-1.7,15.79,28.58,667.8484,139.9986],
    [17744,1525555909,57.301,-111.9451,991.8,626.6,275.1,10.0,-1.1,15.16,28.99,667.2208,139.9985],
    [17745,1525555910,57.301,-111.9461,996.5,630.4,277.5,9.8,-1.1,14.65,29.41,667.0115,139.9998],
    [17746,1525555911,57.3011,-111.947,1002.8,635.8,279.8,9.6,-0.6,15.07,29.31,666.5563,139.9999],
    [17747,1525555912,57.3012,-111.948,1009.7,641.7,282.1,9.5,-0.4,15.19,29.59,666.385,140.0091],
    [17748,1525555913,57.3014,-111.9488,1015.2,647.2,284.9,10.3,-1.0,15.21,29.15,665.913,139.991],
    [17749,1525555914,57.3015,-111.9497,1020.1,651.1,288.1,9.7,-1.4,14.8,29.49,665.6916,139.991],
    [17750,1525555915,57.3017,-111.9506,1024.7,654.7,291.3,9.6,-1.4,14.54,29.23,664.9736,140.0001],
    [17751,1525555916,57.3019,-111.9514,1028.8,658.8,294.3,9.5,-1.3,15.32,29.44,664.8038,139.9967],
    [17752,1525555917,57.3021,-111.9522,1032.7,661.7,297.4,9.1,-1.3,14.82,29.49,664.3841,139.9999],
    [17753,1525555918,57.3024,-111.9529,1037.1,665.1,300.7,9.2,-1.6,15.15,29.29,664.2652,139.996],
    [17754,1525555919,57.3027,-111.9536,1043.1,671.1,303.2,9.8,-0.9,15.24,29.7,664.1568,140.0041],
    [17755,1525555920,57.303,-111.9542,1048.1,675.1,303.8,10.0,0.5,14.81,29.44,664.1459,140.0048],
    [17756,1525555921,57.3033,-111.9549,1053.5,679.9,307.3,8.9,-0.6,15.22,29.03,663.9033,139.9914],
    [17757,1525555922,57.3036,-111.9556,1057.3,683.3,310.2,8.9,-0.2,14.57,29.52,663.6124,139.9964],
    [17758,1525555923,57.304,-111.9562,1060.2,685.2,311.5,10.4,-0.2,14.72,29.7,663.1591,139.9893],
    [17759,1525555924,57.3044,-111.9567,1061.6,686.6,316.2,8.9,-0.9,14.42,29.72,663.0205,139.9864],
    [17760,1525555925,57.3048,-111.9572,1062.8,687.7,318.9,9.9,-0.3,14.8,29.93,662.6947,139.9979],
    [17761,1525555926,57.3052,-111.9577,1064.7,688.7,321.3,11.2,-0.8,15.0,29.56,662.3636,139.9975],
    [17762,1525555927,57.3056,-111.9581,1068.0,691.9,326.4,10.2,-1.3,14.9,30.39,662.1735,140.0002],
    [17763,1525555928,57.306,-111.9584,1072.1,695.0,329.1,10.4,-0.9,15.3,29.79,662.0114,139.991],
    [17764,1525555929,57.3065,-111.9588,1076.7,699.7,331.6,10.5,-0.6,14.71,30.73,661.8221,140.0048],
    [17765,1525555930,57.3069,-111.959,1080.1,702.1,333.9,10.7,-0.6,15.35,30.01,661.6436,140.0001],
    [17766,1525555931,57.3074,-111.9593,1083.4,705.2,336.0,11.3,-0.5,14.97,30.15,661.3134,139.9967],
    [17767,1525555932,57.3079,-111.9595,1086.4,707.4,338.4,11.5,0.1,14.58,30.71,661.1086,140.0],
    [17768,1525555933,57.3084,-111.9596,1089.1,709.1,341.7,10.8,-0.6,14.44,30.74,660.9482,139.997],
    [17769,1525555934,57.3089,-111.9597,1091.2,711.2,344.7,10.3,-0.3,14.48,30.78,660.4785,139.9964],
    [17770,1525555935,57.3094,-111.9598,1093.8,712.9,346.5,10.9,0.0,14.5,30.78,660.2683,139.9923],
    [17771,1525555936,57.3099,-111.9598,1097.1,715.0,349.1,10.4,-0.2,14.78,30.52,660.2123,139.9928],
    [17772,1525555937,57.3104,-111.9598,1100.5,718.5,350.4,10.9,0.1,15.01,30.55,660.1048,139.99],
    [17773,1525555938,57.3109,-111.9598,1104.1,721.8,351.2,11.4,0.4,14.18,30.91,660.2352,140.0011],
    [17774,1525555939,57.3114,-111.9597,1107.5,725.5,352.4,11.4,0.3,14.4,31.02,660.3153,140.0031],
    [17775,1525555940,57.3119,-111.9596,1110.6,728.6,352.9,11.7,0.6,14.85,30.45,660.3322,140.0],
    [17776,1525555941,57.3125,-111.9595,1112.6,730.6,353.4,11.6,1.0,14.41,30.84,660.2961,140.0023],
    [17777,1525555942,57.3129,-111.9595,1113.5,730.5,353.4,11.8,1.2,14.5,31.01,660.2942,140.0096],
    [17778,1525555943,57.3135,-111.9594,1112.9,730.0,353.2,11.7,0.9,13.88,31.45,660.0943,140.0018],
    [17779,1525555944,57.314,-111.9593,1111.8,728.8,352.6,11.7,0.9,14.75,31.15,659.8951,139.9978],
    [17780,1525555945,57.3145,-111.9592,1111.2,727.1,351.1,11.9,1.0,13.72,31.56,659.3678,139.9937],
    [17781,1525555946,57.315,-111.9592,1111.1,727.1,349.9,11.5,1.0,14.38,31.27,659.2521,139.9904],
    [17782,1525555947,57.3155,-111.9592,1111.6,727.6,347.7,12.0,1.0,13.74,31.58,658.7831,140.0084],
    [17783,1525555948,57.3161,-111.9592,1113.6,729.6,345.2,12.6,1.1,14.27,31.32,658.6218,139.9988],
    [17784,1525555949,57.3166,-111.9593,1116.7,732.7,344.7,11.8,1.5,13.48,31.68,658.3532,140.0012],
    [17785,1525555950,57.3171,-111.9593,1120.7,736.7,344.1,11.8,1.1,14.02,32.15,658.0066,139.9933],
    [17786,1525555951,57.3176,-111.9594,1125.0,741.1,344.5,11.0,1.4,14.07,32.34,657.3418,139.9666],
    [17787,1525555952,57.3181,-111.9595,1128.3,743.3,344.4,11.2,2.2,13.86,31.84,657.0998,139.9952],
    [17788,1525555953,57.3186,-111.9595,1132.0,747.0,343.3,12.0,3.0,13.76,32.31,656.7285,139.9605],
    [17789,1525555954,57.3191,-111.9596,1135.1,750.1,343.1,11.7,4.0,14.27,31.16,656.614,140.0087],
    [17790,1525555955,57.3196,-111.9597,1138.8,753.8,343.0,11.7,3.1,13.59,31.93,656.4807,139.9962],
    [17791,1525555956,57.3201,-111.9598,1143.9,758.0,342.8,12.1,1.4,13.62,31.97,656.5112,139.988],
    [17792,1525555957,57.3206,-111.9598,1149.4,762.2,342.7,13.1,-1.2,14.16,31.46,656.287,140.0027],
    [17793,1525555958,57.3212,-111.9599,1154.7,767.8,345.5,9.6,-1.2,14.35,31.77,656.253,139.9965],
    [17794,1525555959,57.3217,-111.96,1157.5,769.5,349.0,7.2,-0.2,14.39,31.8,656.1008,139.9817],
    [17795,1525555960,57.3222,-111.9601,1158.8,770.7,348.9,8.3,0.6,13.61,32.86,655.8508,139.9935],
    [17796,1525555961,57.3228,-111.9601,1159.6,770.6,352.2,6.5,0.6,13.6,32.63,655.709,139.9905],
    [17797,1525555962,57.3233,-111.9601,1160.7,771.8,352.4,7.7,0.1,13.83,33.32,655.5881,139.9945],
    [17798,1525555963,57.3239,-111.9601,1161.2,771.1,353.0,7.6,-1.6,14.24,32.43,655.2444,139.9872],
    [17799,1525555964,57.3244,-111.9601,1162.7,772.9,355.1,6.5,-2.3,13.83,32.65,655.1677,139.9912],
    [17800,1525555965,57.325,-111.9601,1165.4,774.7,355.3,6.4,-1.5,13.68,33.63,655.0757,139.9998],
    [17801,1525555966,57.3255,-111.9601,1167.6,776.9,357.0,4.5,-1.7,13.14,33.04,655.0473,139.9933],
    [17802,1525555967,57.3261,-111.9601,1169.6,778.9,357.0,4.9,-1.9,13.9,32.89,655.0731,140.0004],
    [17803,1525555968,57.3267,-111.9601,1172.3,781.2,355.5,6.4,-1.7,13.7,32.94,655.0323,139.9923],
    [17804,1525555969,57.3272,-111.96,1174.4,782.5,355.6,6.3,-1.4,13.54,33.27,654.9571,140.0023],
    [17805,1525555970,57.3278,-111.96,1175.4,782.3,354.3,7.8,-1.2,13.31,33.39,654.9716,140.0002],
    [17806,1525555971,57.3284,-111.96,1175.8,782.1,353.6,8.4,-2.2,13.52,33.71,654.9779,139.9953],
    [17807,1525555972,57.3289,-111.96,1175.7,779.6,353.6,8.0,-1.7,14.02,32.97,655.0245,139.9891],
    [17808,1525555973,57.3295,-111.96,1175.9,778.9,352.1,9.2,-1.7,13.38,33.53,655.1866,139.9989],
    [17809,1525555974,57.3301,-111.96,1176.2,778.3,350.3,10.9,-1.9,13.35,33.93,655.2451,140.0101],
    [17810,1525555975,57.3307,-111.96,1176.6,777.6,350.2,10.3,-1.3,13.25,33.46,655.4809,139.9853],
    [17811,1525555976,57.3312,-111.96,1176.6,776.6,351.3,9.0,-0.3,13.23,33.74,655.6202,140.0064],
    [17812,1525555977,57.3318,-111.96,1175.8,774.8,350.3,10.5,-1.5,13.42,33.68,655.8121,139.9967],
    [17813,1525555978,57.3324,-111.96,1174.3,772.3,349.9,11.4,-1.8,13.19,33.53,655.9647,139.9926],
    [17814,1525555979,57.333,-111.96,1172.8,769.8,349.9,11.8,-2.3,13.93,32.77,656.0148,140.0128],
    [17815,1525555980,57.3336,-111.9601,1170.7,767.0,352.1,9.2,-3.6,13.53,33.93,656.2338,139.9984],
    [17816,1525555981,57.3342,-111.9601,1167.8,763.9,353.6,7.8,-3.8,13.3,33.51,656.4356,140.006],
    [17817,1525555982,57.3348,-111.9601,1165.8,760.8,352.7,8.3,-3.7,12.69,33.68,656.4578,140.0042],
    [17818,1525555983,57.3354,-111.9601,1163.8,758.8,354.2,6.3,-3.5,13.33,33.43,656.4649,139.9992],
    [17819,1525555984,57.336,-111.9601,1161.6,756.7,352.4,8.2,-2.8,13.76,32.83,656.557,140.0027],
    [17820,1525555985,57.3366,-111.9601,1159.8,753.7,352.2,8.1,-3.4,12.91,33.43,656.5618,139.9988],
    [17821,1525555986,57.3372,-111.9601,1157.7,750.7,353.8,6.5,-3.5,13.22,33.89,656.553,139.9983],
    [17822,1525555987,57.3379,-111.9602,1156.6,748.7,352.9,7.8,-2.9,13.45,34.06,656.3952,139.9976],
    [17823,1525555988,57.3385,-111.9602,1156.4,746.7,353.5,7.1,-2.9,13.25,33.47,656.2953,139.9913],
    [17824,1525555989,57.3391,-111.9602,1156.0,744.7,353.8,7.0,-2.5,13.77,32.81,656.1672,140.0061],
    [17825,1525555990,57.3397,-111.9602,1155.6,742.7,352.6,8.2,-2.6,13.18,33.59,655.9607,139.9931],
    [17826,1525555991,57.3403,-111.9602,1155.7,740.8,353.1,8.2,-2.5,13.21,33.46,655.959,140.0039],
    [17827,1525555992,57.341,-111.9602,1157.1,741.1,353.4,8.3,-2.4,12.99,33.46,656.1123,140.0043],
    [17828,1525555993,57.3416,-111.9602,1158.6,742.6,354.8,7.4,-2.2,13.19,33.67,656.157,140.0077],
    [17829,1525555994,57.3422,-111.9602,1160.2,744.2,354.5,8.3,-2.3,12.64,33.44,656.3344,139.9975],
    [17830,1525555995,57.3428,-111.9602,1162.2,747.3,354.9,7.8,-2.3,13.49,33.68,656.6159,140.0048],
    [17831,1525555996,57.3434,-111.9602,1163.2,748.6,355.5,7.0,-1.2,13.85,32.79,656.7573,140.0069],
    [17832,1525555997,57.344,-111.9601,1162.2,749.3,355.3,7.2,-0.7,13.38,33.67,656.9405,139.9989],
    [17833,1525555998,57.3447,-111.9601,1160.9,749.9,353.9,8.6,0.2,13.35,33.94,657.0091,140.0033],
    [17834,1525555999,57.3453,-111.9601,1159.2,750.8,354.1,8.3,-0.7,13.33,33.25,657.1667,139.9997],
    [17835,1525556000,57.3459,-111.9601,1156.6,750.5,355.0,7.3,-0.9,13.23,33.29,657.2835,139.9978],
    [17836,1525556001,57.3464,-111.96,1154.4,749.4,354.1,8.4,-1.2,13.15,33.37,657.3653,140.0028],
    [17837,1525556002,57.3471,-111.96,1152.4,747.4,354.8,7.4,-0.5,12.98,33.73,657.4009,140.0061],
    [17838,1525556003,57.3478,-111.96,1150.6,744.8,354.4,7.7,-0.5,13.39,33.94,657.4717,140.0057],
    [17839,1525556004,57.3484,-111.96,1149.0,740.3,354.2,7.6,-0.4,13.27,33.29,657.4208,140.0078],
    [17840,1525556005,57.349,-111.96,1147.3,738.0,354.5,7.3,-0.8,13.12,33.37,657.2903,139.998],
    [17841,1525556006,57.3497,-111.96,1146.2,736.2,354.7,7.1,-0.7,13.24,33.51,657.326,140.0011],
    [17842,1525556007,57.3503,-111.96,1145.7,736.4,354.6,7.2,-0.2,13.15,33.4,657.3308,140.0036],
    [17843,1525556008,57.3509,-111.96,1145.0,736.8,354.6,7.3,-0.4,13.15,33.32,657.334,140.0074],
    [17844,1525556009,57.3515,-111.96,1144.9,737.9,353.8,8.1,0.2,13.92,32.71,657.2303,139.9963],
    [17845,1525556010,57.3521,-111.96,1145.9,738.9,353.6,8.2,0.6,13.74,32.52,657.1837,139.9986],
    [17846,1525556011,57.3528,-111.9599,1146.5,738.5,352.7,9.4,0.9,13.96,32.84,657.0237,139.9943],
    [17847,1525556012,57.3534,-111.9599,1146.7,738.7,352.0,10.1,1.0,13.47,33.76,656.8635,140.0145],
    [17848,1525556013,57.354,-111.9599,1146.8,739.0,352.1,10.2,1.1,13.38,33.16,656.7432,139.9895],
    [17849,1525556014,57.3546,-111.9599,1147.2,740.2,352.4,10.3,1.0,13.45,32.83,656.5978,140.0026],
    [17850,1525556015,57.3553,-111.9599,1148.4,742.5,353.0,10.2,0.4,13.3,33.78,656.5399,139.9957],
    [17851,1525556016,57.3559,-111.9598,1150.0,744.0,354.1,9.7,0.1,13.37,33.02,656.6038,140.0025],
    [17852,1525556017,57.3565,-111.9598,1151.8,745.6,353.8,10.7,0.6,13.33,33.05,656.4626,140.0088],
    [17853,1525556018,57.3571,-111.9597,1153.8,745.7,354.9,9.8,0.4,13.25,33.62,656.666,139.9989],
    [17854,1525556019,57.3577,-111.9597,1155.4,746.5,355.6,9.3,0.1,13.25,33.22,656.6646,140.0056],
    [17855,1525556020,57.3583,-111.9596,1156.5,746.2,355.8,8.6,0.1,13.62,32.61,656.5359,139.9808],
    [17856,1525556021,57.3589,-111.9596,1156.5,745.5,355.7,8.4,0.3,13.18,33.21,656.0342,139.9864],
    [17857,1525556022,57.3595,-111.9595,1156.2,744.2,354.4,9.2,2.6,13.66,32.44,655.8954,139.9791],
    [17858,1525556023,57.3601,-111.9595,1155.4,743.4,355.5,8.0,0.7,13.2,33.2,655.9032,139.9948],
    [17859,1525556024,57.3607,-111.9594,1155.3,743.3,355.6,7.7,1.2,13.3,33.82,655.7677,139.9918],
    [17860,1525556025,57.3613,-111.9594,1156.6,744.6,356.4,6.9,-0.5,13.73,32.84,655.6183,139.998],
    [17861,1525556026,57.3619,-111.9593,1159.2,746.8,355.1,8.4,-2.0,13.3,33.02,655.6075,139.9944],
    [17862,1525556027,57.3625,-111.9593,1162.9,749.9,354.1,8.6,-3.1,13.26,33.71,655.5035,140.0064],
    [17863,1525556028,57.3631,-111.9593,1164.2,751.2,354.9,7.5,-3.4,13.56,33.11,655.2843,139.9918],
    [17864,1525556029,57.3637,-111.9592,1165.2,752.2,354.4,8.2,-2.2,12.51,33.3,655.183,139.9987],
    [17865,1525556030,57.3643,-111.9592,1166.6,753.6,353.2,9.7,-3.4,13.27,33.46,655.0918,139.9944],
    [17866,1525556031,57.3649,-111.9592,1167.4,754.4,354.2,8.6,-3.3,12.89,33.08,655.1444,140.0018],
    [17867,1525556032,57.3656,-111.9592,1169.2,755.2,354.4,8.4,-2.2,13.19,33.05,655.2472,140.0056],
    [17868,1525556033,57.3662,-111.9592,1171.3,757.4,355.0,7.9,-3.0,13.08,33.15,655.439,140.002],
    [17869,1525556034,57.3668,-111.9591,1172.8,757.8,353.9,9.3,-2.6,12.6,33.13,655.5891,140.0066],
    [17870,1525556035,57.3673,-111.9591,1173.9,757.7,352.5,10.4,-2.3,13.68,33.14,655.809,140.0064],
    [17871,1525556036,57.368,-111.9591,1174.1,758.1,352.3,9.9,-2.4,13.27,33.62,655.9424,140.0079],
    [17872,1525556037,57.3686,-111.9591,1173.0,757.0,352.0,9.7,-1.9,12.95,32.94,656.0184,140.0063],
    [17873,1525556038,57.3692,-111.9591,1171.4,756.2,351.1,10.1,-1.5,13.23,33.06,656.21,140.0116],
    [17874,1525556039,57.3698,-111.9591,1169.2,755.4,351.0,9.8,-1.2,13.03,32.94,656.3407,139.9997],
    [17875,1525556040,57.3704,-111.9591,1166.8,753.8,350.8,10.1,-1.3,13.15,33.13,656.4985,140.0042],
    [17876,1525556041,57.371,-111.9591,1164.0,750.3,350.7,10.1,-1.0,13.21,33.16,656.5112,139.9991],
    [17877,1525556042,57.3716,-111.9592,1161.9,746.7,350.7,10.1,-0.4,13.39,33.28,656.4818,140.0024],
    [17878,1525556043,57.3722,-111.9592,1160.4,743.3,350.7,10.2,0.2,13.15,33.0,656.4473,139.9917],
    [17879,1525556044,57.3728,-111.9592,1159.0,741.0,351.5,9.6,-0.3,13.27,33.89,656.592,140.0013],
    [17880,1525556045,57.3734,-111.9592,1157.3,739.3,352.4,8.9,-0.6,13.24,33.36,656.4974,140.0031],
    [17881,1525556046,57.374,-111.9592,1156.8,738.8,352.7,9.1,-0.6,13.21,33.28,656.4895,139.9922],
    [17882,1525556047,57.3746,-111.9592,1156.9,738.9,352.8,8.8,-0.7,13.45,33.17,656.4496,139.9922],
    [17883,1525556048,57.3752,-111.9592,1157.2,739.2,354.5,6.7,-1.2,13.3,33.74,656.1518,140.0098],
    [17884,1525556049,57.3758,-111.9592,1156.7,738.5,355.4,5.7,-1.1,13.37,32.81,655.5789,140.0002],
    [17885,1525556050,57.3764,-111.9592,1156.1,737.1,354.7,6.9,-2.0,12.74,33.06,655.389,139.9943],
    [17886,1525556051,57.3769,-111.9592,1157.0,738.0,353.4,8.4,-2.1,13.87,32.7,655.1437,139.9806],
    [17887,1525556052,57.3776,-111.9591,1158.0,738.7,353.3,8.7,-3.4,13.47,32.92,654.6716,139.995],
    [17888,1525556053,57.3782,-111.9591,1160.7,741.4,352.5,9.5,-3.1,12.91,33.08,654.3704,139.9934],
    [17889,1525556054,57.3787,-111.9591,1165.0,746.1,353.0,9.2,-3.1,12.82,33.05,654.2704,139.9961],
    [17890,1525556055,57.3793,-111.9591,1169.4,750.4,354.1,7.9,-2.6,12.57,33.03,654.2162,140.0001],
    [17891,1525556056,57.3799,-111.9591,1173.8,754.8,356.2,6.2,-1.9,13.46,33.15,654.0072,139.9902],
    [17892,1525556057,57.3805,-111.9591,1178.2,759.3,355.1,8.2,-3.6,13.19,33.26,653.9422,140.0047],
    [17893,1525556058,57.381,-111.959,1181.8,761.9,354.9,8.8,-3.8,13.2,33.43,653.8764,140.004],
    [17894,1525556059,57.3816,-111.959,1184.6,764.5,355.8,8.5,-3.5,13.37,32.94,653.8064,139.9939],
    [17895,1525556060,57.3822,-111.9589,1186.6,765.6,355.4,9.1,-3.1,13.17,32.96,653.8107,140.0038],
    [17896,1525556061,57.3827,-111.9588,1188.3,770.0,356.2,8.3,-3.3,13.11,33.42,653.9223,140.0002],
    [17897,1525556062,57.3833,-111.9588,1189.5,775.2,356.1,8.1,-2.7,12.8,32.97,654.1046,140.005],
    [17898,1525556063,57.3839,-111.9587,1190.3,782.3,354.9,9.0,-2.6,12.72,32.9,654.295,140.0096],
    [17899,1525556064,57.3845,-111.9587,1190.8,789.8,354.4,9.0,-2.5,13.83,32.34,654.3721,140.006],
    [17900,1525556065,57.385,-111.9586,1190.9,791.6,353.8,9.2,-2.0,13.18,33.01,654.4824,140.0025],
    [17901,1525556066,57.3856,-111.9586,1190.1,790.9,353.0,9.8,-1.7,13.02,32.88,654.6823,140.0133],
    [17902,1525556067,57.3862,-111.9586,1188.4,787.4,352.9,9.4,-2.1,12.98,33.09,654.8261,139.9932],
    [17903,1525556068,57.3867,-111.9586,1186.0,782.7,353.0,8.8,-1.3,12.98,32.8,654.9031,140.0006],
    [17904,1525556069,57.3873,-111.9586,1184.2,775.1,351.3,10.0,-0.8,12.94,32.8,655.1481,140.0108],
    [17905,1525556070,57.3879,-111.9586,1182.6,767.1,350.7,10.1,-0.6,13.51,32.7,655.2848,139.9913],
    [17906,1525556071,57.3885,-111.9586,1180.8,761.0,350.6,10.3,-0.3,13.14,33.76,655.3308,139.9923],
    [17907,1525556072,57.3891,-111.9586,1179.0,755.2,350.9,10.2,-1.0,13.14,33.5,655.3465,139.9952],
    [17908,1525556073,57.3897,-111.9586,1177.0,749.6,351.9,9.3,-0.5,12.84,33.03,655.3734,140.0039],
    [17909,1525556074,57.3903,-111.9586,1174.8,744.8,351.6,9.7,0.4,13.12,33.05,655.4532,139.9954],
    [17910,1525556075,57.3909,-111.9586,1173.0,743.0,351.0,10.6,0.0,12.8,33.05,655.5313,140.0],
    [17911,1525556076,57.3914,-111.9586,1171.8,742.8,350.1,11.8,-0.9,13.07,33.19,655.5962,140.0045],
    [17912,1525556077,57.392,-111.9586,1171.2,742.2,349.6,11.9,-0.5,12.58,33.15,655.6013,140.0014],
    [17913,1525556078,57.3926,-111.9586,1170.7,740.7,350.1,11.2,-0.1,13.4,33.03,655.4688,140.0061],
    [17914,1525556079,57.3932,-111.9586,1169.9,739.9,349.9,11.5,-0.8,12.49,33.23,655.3933,139.9993],
    [17915,1525556080,57.3938,-111.9586,1169.5,739.5,350.2,11.2,-1.0,12.73,33.15,655.2622,140.0017],
    [17916,1525556081,57.3943,-111.9586,1168.7,738.7,350.4,11.0,-0.9,12.57,33.17,655.1399,140.005],
    [17917,1525556082,57.395,-111.9586,1168.7,738.7,350.5,11.2,-1.4,13.12,33.2,655.1035,139.9962],
    [17918,1525556083,57.3955,-111.9586,1169.7,739.7,350.4,11.5,-1.2,13.21,33.6,655.0742,140.0071],
    [17919,1525556084,57.3961,-111.9586,1171.2,741.2,350.8,11.3,-1.6,12.99,33.23,655.1695,140.0042],
    [17920,1525556085,57.3967,-111.9586,1173.0,743.0,351.3,11.2,-1.2,13.2,32.96,655.2328,139.9943],
    [17921,1525556086,57.3973,-111.9585,1174.6,745.6,351.3,11.6,0.0,12.88,33.68,655.4097,140.009],
    [17922,1525556087,57.3978,-111.9585,1175.4,746.4,352.3,11.2,-0.3,12.9,33.58,655.4457,140.0118],
    [17923,1525556088,57.3984,-111.9585,1175.2,746.2,352.7,11.7,-0.6,13.43,32.69,655.695,139.9972],
    [17924,1525556089,57.399,-111.9584,1175.0,746.0,353.6,12.0,-0.7,13.01,33.32,655.8305,140.0034],
    [17925,1525556090,57.3995,-111.9583,1173.7,744.7,356.8,10.7,-0.6,12.93,33.13,655.8679,139.9964],
    [17926,1525556091,57.4001,-111.9581,1172.0,743.0,359.4,10.8,-0.6,12.63,33.44,655.9319,139.9967],
    [17927,1525556092,57.4007,-111.958,1170.3,741.3,361.4,11.9,-0.5,13.63,32.84,656.1753,140.0044],
    [17928,1525556093,57.4013,-111.9577,1168.3,739.3,5.3,11.1,-0.3,13.03,32.97,656.1641,140.0111],
    [17929,1525556094,57.4018,-111.9574,1166.2,737.2,9.1,11.3,-0.3,13.13,33.0,656.3724,139.9992],
    [17930,1525556095,57.4023,-111.957,1165.2,737.2,11.0,12.5,-1.9,13.03,33.29,656.3537,139.9983],
    [17931,1525556096,57.4029,-111.9565,1164.2,736.2,15.3,11.7,-1.9,13.46,32.71,656.255,140.0119],
    [17932,1525556097,57.4035,-111.956,1162.4,735.5,19.9,10.5,-2.1,12.45,33.03,656.2454,139.997],
    [17933,1525556098,57.404,-111.9554,1160.7,733.7,22.9,10.8,-2.2,13.01,32.92,656.1946,140.0039],
    [17934,1525556099,57.4045,-111.9548,1159.5,732.5,27.4,10.1,-1.8,12.72,33.15,656.1381,140.0075],
    [17935,1525556100,57.405,-111.9541,1158.9,732.0,31.1,10.6,-1.9,12.57,33.3,656.1036,140.0006],
    [17936,1525556101,57.4055,-111.9533,1159.2,733.2,32.9,12.7,-3.2,13.02,33.0,655.9786,140.0003],
    [17937,1525556102,57.4059,-111.9525,1160.3,734.3,37.0,12.2,-1.9,12.83,33.2,655.8283,139.9983],
    [17938,1525556103,57.4064,-111.9516,1160.8,735.8,41.0,11.9,-0.7,12.94,33.59,655.8042,140.007],
    [17939,1525556104,57.4068,-111.9507,1161.5,736.5,42.4,11.7,-2.3,13.29,33.03,655.6846,139.9954],
    [17940,1525556105,57.4072,-111.9498,1162.5,738.5,45.9,10.2,-1.3,13.03,33.14,655.5214,139.9942],
    [17941,1525556106,57.4076,-111.9488,1163.9,739.9,48.7,10.3,-0.3,12.84,33.19,655.5254,140.0071],
    [17942,1525556107,57.408,-111.9478,1165.4,742.4,50.1,10.7,-0.5,12.85,33.25,655.5272,140.0018],
    [17943,1525556108,57.4083,-111.9469,1166.4,743.6,52.1,10.7,-0.6,13.14,33.68,655.8611,139.9986],
    [17944,1525556109,57.4086,-111.9458,1167.8,745.8,53.3,10.4,-1.6,13.06,33.78,656.0375,139.9998],
    [17945,1525556110,57.409,-111.9448,1169.3,748.0,55.3,10.3,-1.1,12.57,33.23,656.5294,140.0096],
    [17946,1525556111,57.4093,-111.9437,1169.8,748.8,56.9,11.3,-0.6,13.0,33.37,656.7468,140.0074],
    [17947,1525556112,57.4095,-111.9427,1169.3,748.3,58.8,11.2,-0.7,13.6,32.89,657.0413,140.0087],
    [17948,1525556113,57.4098,-111.9417,1167.2,746.2,61.6,10.5,-0.7,12.79,33.64,657.2762,140.0148],
    [17949,1525556114,57.4101,-111.9405,1163.2,741.2,65.8,10.3,0.2,13.13,33.31,657.3311,140.0155],
    [17950,1525556115,57.4103,-111.9393,1158.8,736.8,69.1,11.2,0.5,12.98,33.08,657.2838,140.0072],
    [17951,1525556116,57.4105,-111.9381,1155.0,734.0,72.6,11.4,0.8,13.0,33.39,656.987,139.9994],
    [17952,1525556117,57.4106,-111.9369,1151.5,733.6,75.7,11.5,1.0,12.9,33.27,656.8849,139.9875],
    [17953,1525556118,57.4108,-111.9357,1148.5,732.0,78.7,11.6,0.9,13.4,32.73,656.75,139.9892],
    [17954,1525556119,57.4109,-111.9345,1147.0,730.3,81.5,11.9,0.5,12.97,33.07,656.7628,140.0008],
    [17955,1525556120,57.411,-111.9333,1147.5,730.8,84.5,11.9,0.5,13.1,33.07,656.6969,140.014],
    [17956,1525556121,57.411,-111.932,1149.8,733.9,86.7,12.1,0.1,13.13,33.12,656.4947,139.9931],
    [17957,1525556122,57.411,-111.9308,1152.1,736.3,88.3,11.7,-0.2,13.3,32.66,656.4182,140.001],
    [17958,1525556123,57.411,-111.9296,1153.5,738.5,90.1,11.0,0.0,12.93,33.16,656.381,140.0027],
    [17959,1525556124,57.411,-111.9284,1154.2,739.5,92.0,10.8,0.4,12.89,33.07,656.3593,139.9941],
    [17960,1525556125,57.411,-111.9273,1154.7,740.7,93.4,11.4,0.5,12.48,33.06,656.3548,139.9959],
    [17961,1525556126,57.411,-111.9262,1156.3,743.7,93.9,10.8,-0.1,12.95,33.9,656.4105,140.0062],
    [17962,1525556127,57.4109,-111.9247,1158.1,749.0,94.9,10.9,0.0,13.3,32.71,656.4601,139.9918],
    [17963,1525556128,57.4109,-111.9235,1158.9,756.1,95.7,11.2,0.3,13.07,32.87,656.7058,139.9974],
    [17964,1525556129,57.4108,-111.9223,1159.2,756.5,96.2,10.6,0.3,12.85,33.02,656.9439,140.0075],
    [17965,1525556130,57.4107,-111.9211,1159.1,754.2,96.0,9.8,-0.3,12.77,32.99,657.1113,139.9939],
    [17966,1525556131,57.4107,-111.9199,1159.1,752.1,94.4,11.2,-1.9,13.33,32.7,657.3789,139.9976],
    [17967,1525556132,57.4106,-111.9187,1158.0,749.4,94.2,12.3,-1.5,13.3,32.89,657.5284,140.0018],
    [17968,1525556133,57.4106,-111.9175,1155.4,746.8,94.7,11.8,-0.1,12.95,33.18,657.7342,139.9992],
    [17969,1525556134,57.4105,-111.9163,1152.0,742.0,95.2,11.6,0.9,12.92,33.55,657.8033,139.9969],
    [17970,1525556135,57.4105,-111.915,1149.3,739.3,94.9,11.0,0.9,12.94,33.01,657.8491,140.002],
    [17971,1525556136,57.4105,-111.9138,1147.0,738.0,95.3,11.5,1.5,13.03,33.75,657.8827,139.9941],
    [17972,1525556137,57.4104,-111.9126,1144.7,737.0,95.0,11.4,1.3,12.98,33.29,657.9237,139.998],
    [17973,1525556138,57.4104,-111.9114,1142.8,736.7,94.0,11.2,0.6,12.94,33.4,657.9268,139.9954],
    [17974,1525556139,57.4103,-111.9101,1141.2,737.5,94.3,11.5,1.1,13.66,32.73,657.8986,139.9965],
    [17975,1525556140,57.4103,-111.9088,1140.3,739.3,93.9,11.4,0.9,13.06,33.25,657.7642,139.9991],
    [17976,1525556141,57.4103,-111.9076,1139.7,740.8,94.2,11.4,1.4,12.94,32.96,657.854,139.9986],
    [17977,1525556142,57.4103,-111.9063,1139.4,742.4,94.5,11.3,1.8,13.01,33.23,657.8843,140.0086],
    [17978,1525556143,57.4102,-111.9052,1139.3,744.2,94.0,11.1,1.3,12.48,33.25,657.6423,139.98],
    [17979,1525556144,57.4102,-111.9038,1139.4,746.4,94.0,10.9,1.1,12.72,33.11,657.34,139.9882],
    [17980,1525556145,57.4102,-111.9026,1140.1,749.2,93.8,10.6,0.6,12.74,33.14,657.3305,139.9994],
    [17981,1525556146,57.4101,-111.9013,1140.1,752.1,93.7,10.4,0.6,12.76,33.42,657.1607,140.0051],
    [17982,1525556147,57.4101,-111.9,1139.3,753.7,93.4,10.4,0.2,12.76,33.11,657.2368,140.0004],
    [17983,1525556148,57.4101,-111.8987,1140.4,756.4,92.2,9.3,-0.9,12.5,33.12,657.3331,140.0079],
    [17984,1525556149,57.41,-111.8974,1143.5,760.9,91.2,8.9,-1.6,13.0,33.7,657.393,140.0074],
    [17985,1525556150,57.41,-111.8962,1145.6,763.6,92.2,10.0,-0.2,12.95,33.17,657.7455,140.0009],
    [17986,1525556151,57.41,-111.8949,1146.4,765.3,91.7,10.3,-0.4,13.53,32.78,657.9743,139.9958],
    [17987,1525556152,57.41,-111.8936,1147.3,768.3,91.7,11.1,0.1,13.37,32.33,658.0173,139.9965],
    [17988,1525556153,57.4099,-111.8923,1146.8,769.8,92.9,12.9,0.9,12.89,33.09,658.1269,140.0],
    [17989,1525556154,57.4099,-111.891,1145.1,771.2,91.5,11.9,-0.7,12.92,32.9,658.1927,140.0036],
    [17990,1525556155,57.4099,-111.8897,1142.4,771.2,92.5,10.9,0.6,12.82,32.93,658.23,140.0061],
    [17991,1525556156,57.4099,-111.8884,1139.1,771.6,94.3,10.9,2.3,12.81,32.87,658.215,139.9998],
    [17992,1525556157,57.4099,-111.8871,1137.4,773.5,93.6,9.6,1.6,12.9,33.05,658.3028,140.0036],
    [17993,1525556158,57.4098,-111.8858,1136.3,775.3,94.1,9.8,2.2,12.95,32.89,658.4091,139.9984],
    [17994,1525556159,57.4098,-111.8845,1135.6,775.6,94.1,10.3,2.0,13.19,32.55,658.3936,140.0025],
    [17995,1525556160,57.4098,-111.8832,1135.3,777.2,93.7,10.2,1.3,13.01,32.77,658.2924,139.9993],
    [17996,1525556161,57.4098,-111.882,1135.0,777.7,94.1,10.6,1.6,13.01,32.74,658.2431,139.9952],
    [17997,1525556162,57.4097,-111.8806,1134.3,777.2,94.2,11.1,1.5,13.25,32.62,658.0837,139.9971],
    [17998,1525556163,57.4097,-111.8793,1133.3,777.3,94.3,11.7,1.4,12.63,32.65,658.0034,139.998],
    [17999,1525556164,57.4097,-111.878,1133.3,778.3,94.8,12.4,1.7,13.65,32.29,657.7144,139.9903],
    [18000,1525556165,57.4096,-111.8767,1134.2,779.2,94.7,12.1,1.9,13.11,32.53,657.5596,140.0103],
    [18001,1525556166,57.4096,-111.8753,1134.8,779.8,94.6,10.5,2.4,13.32,32.18,657.5766,140.006],
    [18002,1525556167,57.4096,-111.8741,1135.7,781.7,93.2,10.2,1.7,13.07,33.3,657.6013,139.9899],
    [18003,1525556168,57.4096,-111.8727,1137.7,784.8,92.0,10.6,1.2,13.04,32.86,657.4262,139.9829],
    [18004,1525556169,57.4095,-111.8714,1140.4,787.4,92.0,10.9,1.2,12.97,32.83,657.3328,139.9892],
    [18005,1525556170,57.4095,-111.8701,1142.3,790.3,90.5,11.3,-0.6,12.93,32.75,657.5792,139.9968],
    [18006,1525556171,57.4095,-111.8687,1142.9,791.9,91.6,10.8,1.2,13.5,32.44,657.7566,140.0026],
    [18007,1525556172,57.4095,-111.8674,1143.1,794.1,92.5,10.0,2.5,13.86,32.14,657.7444,139.9989],
    [18008,1525556173,57.4095,-111.8661,1144.0,797.3,90.4,10.3,0.7,13.69,32.12,657.908,139.9906],
    [18009,1525556174,57.4095,-111.8648,1144.6,800.3,89.3,8.5,0.4,13.61,32.37,657.8619,140.0049],
    [18010,1525556175,57.4095,-111.8634,1143.8,801.8,90.0,9.2,1.9,13.09,33.47,657.8572,140.005],
    [18011,1525556176,57.4096,-111.8623,1141.6,800.3,90.1,9.2,2.5,13.3,32.55,657.8424,140.0033],
    [18012,1525556177,57.4096,-111.8608,1139.6,798.6,88.1,9.8,0.4,13.48,32.04,657.98,139.9867],
    [18013,1525556178,57.4096,-111.8594,1137.8,796.8,88.4,8.0,0.3,13.3,33.06,658.2325,140.0062],
    [18014,1525556179,57.4096,-111.858,1137.8,797.8,89.9,8.8,1.1,12.91,32.74,658.2943,140.0026],
    [18015,1525556180,57.4096,-111.8566,1138.3,798.3,91.4,9.8,1.4,13.06,32.85,658.4352,139.9993],
    [18016,1525556181,57.4096,-111.8553,1138.1,798.1,91.4,8.9,0.2,13.12,32.98,658.4895,140.0048],
    [18017,1525556182,57.4096,-111.8539,1136.8,797.8,92.5,8.8,1.1,12.89,32.76,658.6473,140.0008],
    [18018,1525556183,57.4096,-111.8525,1134.9,797.0,93.2,7.5,1.2,13.54,32.75,658.7282,140.0098],
    [18019,1525556184,57.4095,-111.8511,1132.7,794.7,92.0,7.4,-0.5,13.15,33.52,658.76,140.0069],
    [18020,1525556185,57.4095,-111.8498,1130.9,793.9,92.2,7.2,-0.4,12.96,32.64,658.9456,139.9965],
    [18021,1525556186,57.4095,-111.8484,1129.6,793.6,91.7,7.8,-0.9,13.03,32.78,659.0695,139.9934],
    [18022,1525556187,57.4095,-111.847,1128.5,792.5,92.2,7.6,-0.4,13.03,32.71,659.3022,140.0104],
    [18023,1525556188,57.4094,-111.8457,1127.2,792.2,91.4,7.7,-1.3,13.18,32.49,659.4451,140.0033],
    [18024,1525556189,57.4094,-111.8444,1126.0,791.3,91.3,8.1,-1.0,13.19,33.04,659.6331,140.0033],
    [18025,1525556190,57.4094,-111.8429,1124.3,790.3,91.5,8.2,-0.7,13.29,32.35,659.8187,140.001],
    [18026,1525556191,57.4094,-111.8416,1122.7,788.7,90.5,7.9,-1.4,13.14,32.57,659.9587,140.007],
    [18027,1525556192,57.4093,-111.8402,1120.6,786.6,89.8,8.4,-1.9,13.17,33.25,660.1006,140.0065],
    [18028,1525556193,57.4093,-111.8389,1117.9,784.9,89.1,8.3,-2.2,12.78,32.68,660.1624,139.9983],
    [18029,1525556194,57.4093,-111.8375,1115.5,783.5,88.5,8.4,-2.0,13.44,31.92,660.2512,139.9987],
    [18030,1525556195,57.4093,-111.836,1113.5,783.5,88.1,7.8,-1.4,13.04,32.12,660.4417,140.0037],
    [18031,1525556196,57.4093,-111.8347,1111.7,782.7,87.0,8.6,-1.6,12.49,32.63,660.4713,140.0054],
    [18032,1525556197,57.4094,-111.8333,1110.0,781.0,85.6,8.8,-2.3,13.18,32.21,660.663,140.0082],
    [18033,1525556198,57.4094,-111.8319,1108.5,779.7,84.8,8.2,-2.2,13.28,32.24,660.7071,139.9991],
    [18034,1525556199,57.4095,-111.8305,1106.9,778.9,85.4,8.3,-0.9,13.16,32.93,660.8525,140.0083],
    [18035,1525556200,57.4095,-111.8291,1105.3,778.2,84.5,8.1,-1.8,13.24,32.39,660.9713,139.9967],
    [18036,1525556201,57.4096,-111.8277,1104.1,778.1,83.9,7.9,-2.4,12.67,32.33,661.2027,140.006],
    [18037,1525556202,57.4096,-111.8263,1103.1,777.1,85.0,8.2,-1.5,13.33,32.38,661.3611,140.0071],
    [18038,1525556203,57.4096,-111.825,1102.1,776.1,86.2,8.5,-1.0,13.34,32.21,661.629,140.0043],
    [18039,1525556204,57.4097,-111.8236,1101.0,775.0,87.2,9.4,-1.0,13.46,32.43,661.7057,140.0078],
    [18040,1525556205,57.4097,-111.8222,1099.1,774.1,88.1,8.8,-0.8,13.26,32.32,662.0544,140.0072],
    [18041,1525556206,57.4097,-111.8208,1096.7,772.7,88.9,8.8,-0.8,13.17,32.22,662.2079,139.9987],
    [18042,1525556207,57.4097,-111.8195,1094.3,773.3,88.5,8.3,-1.6,13.12,32.57,662.4486,140.004],
    [18043,1525556208,57.4097,-111.8182,1091.8,772.7,89.0,8.3,-0.9,13.24,32.33,662.6516,140.0063],
    [18044,1525556209,57.4097,-111.8168,1089.0,772.0,89.1,8.9,-0.8,13.32,32.0,662.8911,139.9981],
    [18045,1525556210,57.4097,-111.8154,1086.0,769.0,88.1,8.7,-1.6,14.07,31.81,663.286,140.0097],
    [18046,1525556211,57.4097,-111.814,1083.6,765.3,87.5,8.5,-1.7,14.13,31.9,663.4018,140.0134],
    [18047,1525556212,57.4097,-111.8127,1080.8,761.9,87.2,8.3,-1.8,13.34,32.28,663.4639,140.0089],
    [18048,1525556213,57.4098,-111.8114,1077.8,759.5,86.3,7.7,-2.5,13.29,32.39,663.731,140.0005],
    [18049,1525556214,57.4098,-111.81,1074.9,757.1,86.0,8.3,-2.3,13.43,32.52,663.8294,140.0071],
    [18050,1525556215,57.4098,-111.8086,1071.9,756.0,86.0,7.7,-2.3,12.69,32.37,663.9674,140.0114],
    [18051,1525556216,57.4098,-111.8073,1069.5,755.4,85.1,9.6,-3.2,13.46,32.36,663.9656,140.0112],
    [18052,1525556217,57.4099,-111.8059,1067.5,755.4,84.3,9.7,-3.9,13.4,32.05,663.7758,139.9985],
    [18053,1525556218,57.4099,-111.8046,1065.2,753.2,84.8,8.9,-3.4,13.32,32.14,663.6212,139.998],
    [18054,1525556219,57.4099,-111.8033,1063.1,751.1,84.6,8.7,-4.0,13.62,31.95,663.3074,140.0072],
    [18055,1525556220,57.4099,-111.802,1061.9,749.9,84.7,9.1,-3.9,13.57,32.54,663.0675,139.9909],
    [18056,1525556221,57.41,-111.8007,1062.2,749.2,85.4,8.5,-3.1,13.9,32.08,662.9713,139.9941],
    [18057,1525556222,57.41,-111.7994,1064.3,750.8,85.5,7.2,-3.2,14.2,31.83,663.0891,140.0017],
    [18058,1525556223,57.41,-111.7981,1067.3,753.3,85.4,7.2,-3.5,13.72,31.76,663.3084,140.0163],
    [18059,1525556224,57.41,-111.7968,1070.1,755.3,85.5,8.4,-3.6,14.23,31.68,663.2467,140.0011],
    [18060,1525556225,57.41,-111.7955,1072.9,757.9,86.2,7.8,-3.4,13.75,31.5,663.282,140.0035],
    [18061,1525556226,57.41,-111.7943,1073.8,758.9,86.6,7.2,-3.2,13.11,32.01,663.3509,140.0055],
    [18062,1525556227,57.41,-111.7931,1072.7,756.7,86.9,6.0,-3.1,13.79,31.97,663.3303,140.0049],
    [18063,1525556228,57.41,-111.7919,1070.8,755.2,86.7,7.0,-3.5,13.17,32.29,663.2766,139.9973],
    [18064,1525556229,57.4101,-111.7906,1070.7,755.9,86.9,6.9,-3.0,13.53,32.69,663.2474,140.0127],
    [18065,1525556230,57.4101,-111.7894,1071.1,757.1,89.2,7.6,-0.1,13.09,32.36,663.456,140.0109],
    [18066,1525556231,57.4101,-111.7882,1070.4,757.3,88.9,7.9,-0.4,13.42,32.12,663.3958,140.0005],
    [18067,1525556232,57.4101,-111.7869,1070.5,758.6,87.0,7.5,-2.2,13.97,32.36,663.4875,139.9882],
    [18068,1525556233,57.4101,-111.7857,1071.2,759.4,87.9,7.7,-1.5,13.24,32.13,663.598,140.0089],
    [18069,1525556234,57.4101,-111.7846,1071.1,760.1,88.5,6.9,-1.7,13.28,32.29,663.5831,140.0099],
    [18070,1525556235,57.4101,-111.7833,1070.3,760.8,89.8,8.4,-1.1,13.6,32.48,663.5645,140.0126],
    [18071,1525556236,57.4101,-111.7821,1069.6,761.6,92.2,9.9,-0.1,14.07,32.25,663.4622,140.0001],
    [18072,1525556237,57.41,-111.7808,1068.8,762.0,93.8,8.0,0.7,14.12,31.94,663.4888,139.9956],
    [18073,1525556238,57.41,-111.7799,1067.8,761.8,94.3,7.0,0.6,13.53,32.52,663.5682,139.9952],
    [18074,1525556239,57.41,-111.7785,1067.8,761.8,94.2,7.7,0.0,13.55,32.43,663.662,139.9951],
    [18075,1525556240,57.4099,-111.7772,1068.4,763.3,94.0,8.9,-0.3,13.1,32.44,663.6031,139.9997],
    [18076,1525556241,57.4099,-111.776,1069.1,764.6,93.8,10.5,-0.3,14.0,32.27,663.5384,139.9974],
    [18077,1525556242,57.4098,-111.7749,1069.0,765.8,93.3,9.2,-1.0,13.17,32.73,663.4645,139.9965],
    [18078,1525556243,57.4098,-111.7736,1068.4,766.7,92.1,8.4,-1.7,13.31,32.47,663.0077,140.004],
    [18079,1525556244,57.4098,-111.7724,1067.4,769.6,93.7,8.3,0.0,13.5,33.0,662.9356,139.9972],
    [18080,1525556245,57.4097,-111.7712,1067.1,772.1,92.6,8.3,-0.9,13.5,32.32,662.8528,139.9995],
    [18081,1525556246,57.4097,-111.77,1068.2,775.2,92.2,7.7,-1.0,14.01,32.47,662.6725,139.9944],
    [18082,1525556247,57.4097,-111.7689,1070.5,777.5,91.6,7.4,-1.8,13.46,32.75,662.8196,139.9981],
    [18083,1525556248,57.4096,-111.7677,1073.4,780.4,89.9,7.8,-3.4,13.98,32.33,662.8751,140.0112],
    [18084,1525556249,57.4096,-111.7665,1076.0,784.0,90.1,8.2,-2.7,13.49,32.51,662.956,139.9975],
    [18085,1525556250,57.4096,-111.7653,1077.3,785.3,90.0,8.5,-2.6,13.45,32.4,663.0872,140.0051],
    [18086,1525556251,57.4096,-111.7641,1078.1,785.1,89.7,7.2,-2.6,13.88,31.85,663.1313,139.9962],
    [18087,1525556252,57.4095,-111.7629,1077.3,784.3,91.1,7.3,-1.2,13.8,32.19,663.2537,139.9996],
    [18088,1525556253,57.4095,-111.7618,1076.4,783.4,90.9,7.8,-1.2,13.13,32.56,663.186,140.0026],
    [18089,1525556254,57.4095,-111.7606,1075.9,782.9,90.9,8.8,-0.2,13.62,32.63,663.1372,139.9971],
    [18090,1525556255,57.4095,-111.7594,1074.8,781.8,90.3,9.5,-0.5,13.46,33.06,663.0402,139.9938],
    [18091,1525556256,57.4095,-111.7582,1074.0,781.0,88.7,9.6,-2.1,13.23,32.61,662.9634,140.0008],
    [18092,1525556257,57.4095,-111.757,1073.1,780.1,90.3,9.4,-0.4,14.02,32.24,662.8353,140.0045],
    [18093,1525556258,57.4095,-111.7558,1072.6,777.8,89.7,8.7,-1.0,13.45,32.46,662.8115,140.001],
    [18094,1525556259,57.4095,-111.7546,1073.4,775.3,87.3,8.2,-2.8,13.37,32.39,662.6926,140.0033],
    [18095,1525556260,57.4095,-111.7536,1074.5,772.1,87.3,8.1,-2.6,13.05,32.64,662.5463,139.9859],
    [18096,1525556261,57.4095,-111.7522,1075.8,769.3,87.2,8.2,-2.3,13.8,32.22,662.5128,139.9876],
    [18097,1525556262,57.4095,-111.751,1076.8,766.5,86.6,8.3,-2.8,13.65,32.44,662.5192,140.0023],
    [18098,1525556263,57.4095,-111.7498,1077.9,766.4,86.3,9.1,-3.0,14.03,32.16,662.6003,139.9955],
    [18099,1525556264,57.4095,-111.7489,1078.9,767.1,86.6,9.4,-2.7,13.46,32.61,662.7874,139.9945],
    [18100,1525556265,57.4095,-111.7476,1079.9,768.2,86.9,8.6,-2.5,13.55,33.05,663.1862,140.0049],
    [18101,1525556266,57.4095,-111.7463,1080.8,770.8,88.2,7.2,-1.0,13.11,32.63,663.3851,140.0114],
    [18102,1525556267,57.4095,-111.7451,1081.1,774.1,88.8,8.2,-0.4,13.3,32.6,663.6819,140.0022],
    [18103,1525556268,57.4095,-111.744,1080.4,776.1,88.9,8.1,-0.2,13.43,32.51,663.7783,140.0046],
    [18104,1525556269,57.4095,-111.7428,1078.3,775.3,89.4,7.2,0.3,13.98,32.4,663.9054,140.0025],
    [18105,1525556270,57.4096,-111.7416,1074.7,774.7,89.4,7.5,0.2,13.31,32.86,663.962,140.003],
    [18106,1525556271,57.4096,-111.7404,1071.3,773.3,89.6,7.7,0.3,13.58,32.5,663.8882,140.0026],
    [18107,1525556272,57.4096,-111.7392,1068.0,771.0,89.9,7.2,0.7,13.9,32.21,663.8649,140.0011],
    [18108,1525556273,57.4096,-111.738,1065.8,768.8,89.1,7.3,0.0,13.44,32.38,663.8575,140.0044],
    [18109,1525556274,57.4096,-111.7368,1064.4,768.4,88.4,7.2,-0.2,13.69,32.35,663.8011,140.0016],
    [18110,1525556275,57.4096,-111.7356,1063.7,766.7,88.5,7.0,0.2,13.13,32.43,663.9065,139.9996],
    [18111,1525556276,57.4096,-111.7345,1063.8,765.8,88.2,7.3,0.0,13.39,32.32,664.007,140.0128],
    [18112,1525556277,57.4096,-111.7332,1064.5,762.9,88.5,7.5,0.4,13.24,32.28,664.1177,139.9975],
    [18113,1525556278,57.4097,-111.732,1065.0,760.0,89.1,8.5,0.8,13.03,32.45,663.9948,139.9965],
    [18114,1525556279,57.4097,-111.7308,1065.1,759.1,88.7,8.2,0.4,13.49,32.02,663.8214,139.9876],
    [18115,1525556280,57.4097,-111.7296,1064.2,757.2,89.2,7.9,0.8,13.46,32.77,663.7637,139.9882],
    [18116,1525556281,57.4097,-111.7285,1062.6,755.6,89.7,8.8,1.1,13.98,31.98,663.6664,140.0032],
    [18117,1525556282,57.4097,-111.7272,1061.7,753.7,90.4,8.8,1.3,13.49,32.19,663.586,139.9954],
    [18118,1525556283,57.4097,-111.726,1062.2,755.2,90.3,8.5,0.4,13.33,32.84,663.1904,139.9981],
    [18119,1525556284,57.4097,-111.7248,1063.6,756.6,90.9,8.1,0.6,13.38,32.29,663.0906,139.9989],
    [18120,1525556285,57.4097,-111.7236,1064.9,759.0,92.6,7.7,1.8,13.43,32.23,663.0321,140.001],
    [18121,1525556286,57.4097,-111.7224,1066.0,760.7,92.1,7.4,0.6,13.75,32.59,662.9801,140.0096],
    [18122,1525556287,57.4097,-111.7212,1067.2,765.2,92.6,7.1,0.5,13.49,32.27,662.9653,140.0034],
    [18123,1525556288,57.4096,-111.72,1069.1,773.7,93.1,7.0,0.2,13.32,32.48,663.0977,140.0062],
    [18124,1525556289,57.4096,-111.7187,1072.2,782.2,93.5,5.9,0.2,13.3,32.94,663.1637,140.001],
    [18125,1525556290,57.4096,-111.7175,1073.9,783.9,96.1,7.0,2.1,13.53,32.76,663.2323,139.992],
    [18126,1525556291,57.4095,-111.7163,1074.6,784.6,96.1,7.6,1.1,13.79,32.65,663.1675,139.9975],
    [18127,1525556292,57.4095,-111.7151,1074.9,782.5,95.9,7.7,1.0,14.0,32.47,663.1681,139.9993],
    [18128,1525556293,57.4094,-111.7139,1074.2,775.9,95.3,9.0,0.6,13.24,32.64,663.2251,139.9945],
    [18129,1525556294,57.4094,-111.7127,1073.2,769.7,92.6,8.2,-0.9,13.17,32.55,663.2103,140.0061],
    [18130,1525556295,57.4094,-111.7115,1072.3,767.7,91.7,7.1,-0.5,13.6,33.06,663.3548,139.9965],
    [18131,1525556296,57.4093,-111.7103,1071.7,766.8,92.0,7.6,0.8,13.91,32.37,663.4381,140.0029],
    [18132,1525556297,57.4093,-111.7091,1071.6,767.9,90.8,7.8,1.0,13.89,31.83,663.5901,139.998],
    [18133,1525556298,57.4093,-111.7079,1071.4,767.1,90.7,7.2,1.8,13.8,32.79,663.6785,140.0052],
    [18134,1525556299,57.4093,-111.7067,1071.2,768.2,89.6,7.7,1.1,13.6,32.75,663.5295,139.991],
    [18135,1525556300,57.4094,-111.7055,1070.4,770.1,90.2,8.9,1.8,13.98,32.34,663.3963,139.9891],
    [18136,1525556301,57.4094,-111.7043,1068.8,770.7,90.0,9.3,1.5,13.59,33.53,663.1385,139.9991],
    [18137,1525556302,57.4094,-111.703,1066.7,772.4,88.5,9.3,0.2,13.19,32.96,662.9125,139.9969],
    [18138,1525556303,57.4094,-111.7017,1065.8,774.5,87.3,9.8,-0.8,13.31,33.47,662.5456,140.0009],
    [18139,1525556304,57.4094,-111.7007,1066.7,777.0,86.3,9.6,-1.5,13.44,33.74,662.3228,140.0006],
    [18140,1525556305,57.4095,-111.6992,1069.1,780.4,86.2,8.4,-1.7,13.75,32.66,662.1293,140.0054],
    [18141,1525556306,57.4095,-111.698,1071.8,785.8,85.7,8.0,-2.5,13.66,33.47,662.0375,139.9873],
    [18142,1525556307,57.4095,-111.6967,1075.1,791.1,85.2,7.9,-3.3,13.58,32.8,661.7726,140.0023],
    [18143,1525556308,57.4095,-111.6955,1078.9,796.9,84.9,7.7,-4.5,13.78,32.41,661.6055,140.005],
    [18144,1525556309,57.4095,-111.6943,1082.4,801.7,86.7,7.6,-3.8,13.92,32.66,661.4022,139.997],
    [18145,1525556310,57.4095,-111.693,1084.5,805.5,89.6,9.0,-3.0,13.4,32.92,661.3558,139.9929],
    [18146,1525556311,57.4095,-111.6919,1086.1,808.1,92.7,5.6,-2.4,13.04,32.85,661.4447,139.9939],
    [18147,1525556312,57.4094,-111.6906,1088.6,811.3,96.5,6.5,-2.0,13.29,33.0,661.5886,140.0011],
    [18148,1525556313,57.4093,-111.6894,1091.9,815.0,99.1,6.9,-2.9,13.28,33.33,661.9526,140.0113],
    [18149,1525556314,57.4092,-111.6882,1094.2,818.4,102.6,7.0,-1.7,13.01,32.84,662.238,139.9993],
    [18150,1525556315,57.409,-111.687,1094.7,820.7,106.9,7.5,-1.1,13.61,32.9,662.5272,139.9982],
    [18151,1525556316,57.4088,-111.6858,1094.5,821.5,110.5,7.0,-0.6,13.68,33.15,662.6253,139.9987],
    [18152,1525556317,57.4086,-111.6847,1092.6,820.6,114.8,7.8,-0.1,13.32,33.2,662.9144,139.998],
    [18153,1525556318,57.4083,-111.6836,1089.3,818.1,118.3,7.9,-0.6,13.51,32.94,662.9435,139.9963],
    [18154,1525556319,57.408,-111.6825,1085.8,814.7,122.3,8.3,-0.7,13.3,32.86,662.9539,140.0099],
    [18155,1525556320,57.4077,-111.6814,1082.5,812.5,126.3,8.7,-0.3,13.74,32.87,662.9453,140.0021],
    [18156,1525556321,57.4073,-111.6804,1079.3,810.3,130.1,8.8,-0.1,14.13,32.81,662.7747,140.0052],
    [18157,1525556322,57.4069,-111.6794,1076.6,808.6,132.8,7.3,-0.1,13.25,33.09,662.9,139.9876],
    [18158,1525556323,57.4064,-111.6784,1074.7,807.7,136.3,6.4,0.6,13.03,32.99,663.1128,139.9998],
    [18159,1525556324,57.4059,-111.6775,1074.1,809.3,139.5,6.1,0.4,13.31,33.02,663.3666,140.0057],
    [18160,1525556325,57.4055,-111.6767,1074.6,814.6,142.7,6.7,0.0,13.8,32.58,663.7828,139.9945],
    [18161,1525556326,57.4049,-111.6759,1075.5,822.1,145.3,6.3,-1.0,13.04,33.11,664.024,139.9949],
    [18162,1525556327,57.4044,-111.6752,1075.2,824.9,147.1,5.4,0.1,12.91,33.0,664.3068,139.993],
    [18163,1525556328,57.4038,-111.6744,1072.6,814.2,151.6,7.1,0.7,14.15,32.64,664.3847,139.9888],
    [18164,1525556329,57.4033,-111.6738,1069.3,803.6,153.6,6.3,0.1,13.6,32.96,664.5413,140.0025],
    [18165,1525556330,57.4027,-111.6731,1064.7,796.6,157.0,6.7,0.0,13.08,32.87,664.6806,140.0064],
    [18166,1525556331,57.4021,-111.6726,1059.9,791.9,160.1,6.1,1.8,14.01,32.6,664.7788,140.0023],
    [18167,1525556332,57.4014,-111.6721,1056.1,788.1,163.6,5.6,1.6,13.57,33.12,665.0068,140.0104],
    [18168,1525556333,57.4008,-111.6717,1053.9,785.9,168.3,7.3,2.9,13.64,32.98,665.1378,139.9934],
    [18169,1525556334,57.4001,-111.6714,1052.5,784.5,172.2,8.5,2.2,13.49,32.97,665.1686,139.9951],
    [18170,1525556335,57.3995,-111.6711,1051.2,784.2,174.8,8.4,2.1,13.44,32.74,665.3081,139.9844],
    [18171,1525556336,57.3988,-111.6709,1049.3,781.6,176.1,7.2,1.8,13.17,32.59,665.478,139.9952],
    [18172,1525556337,57.3981,-111.6707,1046.7,779.7,177.0,5.6,2.5,13.51,32.5,665.8903,140.0139],
    [18173,1525556338,57.3974,-111.6705,1045.2,778.2,180.2,7.3,1.9,12.97,32.5,666.0345,140.0108],
    [18174,1525556339,57.3968,-111.6704,1044.6,777.6,182.2,7.7,1.2,13.58,32.22,666.5793,140.0154],
    [18175,1525556340,57.3961,-111.6704,1043.1,776.1,183.8,8.5,2.2,13.76,32.58,666.7267,140.0049],
    [18176,1525556341,57.3954,-111.6703,1040.2,773.2,185.5,9.8,1.7,13.49,32.35,666.9034,140.0018],
    [18177,1525556342,57.3947,-111.6703,1036.0,769.0,185.1,9.3,1.2,13.57,32.71,667.2208,140.0057],
    [18178,1525556343,57.394,-111.6703,1031.7,765.7,184.9,9.4,0.7,13.27,32.1,667.5076,140.014],
    [18179,1525556344,57.3933,-111.6702,1027.9,762.0,184.5,9.7,0.4,13.4,32.0,667.7963,140.0003],
    [18180,1525556345,57.3926,-111.6701,1025.0,760.0,183.7,9.5,0.2,14.2,31.24,668.2971,140.0095],
    [18181,1525556346,57.3919,-111.6701,1023.0,759.0,182.8,9.7,0.2,13.99,32.21,668.3254,140.0098],
    [18182,1525556347,57.3912,-111.67,1020.5,757.6,182.3,10.3,-1.2,14.31,31.69,668.7874,140.0008],
    [18183,1525556348,57.3905,-111.6698,1017.0,753.7,180.3,9.3,-1.7,14.19,31.93,668.9679,140.0067],
    [18184,1525556349,57.3898,-111.6697,1013.1,750.1,178.8,9.0,-1.5,13.15,31.82,669.4135,140.0067],
    [18185,1525556350,57.3891,-111.6695,1008.3,745.3,177.7,9.2,-1.1,14.09,31.3,669.5279,140.0058],
    [18186,1525556351,57.3884,-111.6693,1004.4,741.3,176.3,8.6,-1.0,13.98,31.73,669.8431,140.0153],
    [18187,1525556352,57.3877,-111.669,1000.4,738.4,176.8,9.7,-0.8,14.18,31.58,670.0153,140.0194],
    [18188,1525556353,57.387,-111.6688,997.0,735.0,177.5,10.3,-0.7,14.43,31.43,670.1533,140.0011],
    [18189,1525556354,57.3863,-111.6686,993.4,732.5,178.1,10.3,-0.9,14.32,31.03,670.1623,140.0017],
    [18190,1525556355,57.3856,-111.6684,990.6,729.6,178.8,10.3,-0.4,14.0,31.8,670.1507,140.0072],
    [18191,1525556356,57.3849,-111.6682,987.8,726.8,180.3,11.0,-0.9,13.95,31.23,670.1663,140.0061],
    [18192,1525556357,57.3842,-111.668,984.9,723.9,180.8,10.2,-1.9,14.21,31.08,670.0098,140.006],
    [18193,1525556358,57.3836,-111.6679,983.6,723.7,181.6,10.3,-2.3,14.3,31.59,669.9155,140.0042],
    [18194,1525556359,57.3828,-111.6677,983.2,723.5,182.0,9.9,-1.7,13.76,31.13,669.7856,139.9923],
    [18195,1525556360,57.3822,-111.6676,983.0,725.0,182.7,10.3,-0.4,14.19,31.09,669.864,140.0062],
    [18196,1525556361,57.3815,-111.6675,982.9,725.2,184.2,11.4,-0.4,14.2,30.82,669.8105,140.0055],
    [18197,1525556362,57.3808,-111.6674,984.6,727.5,184.5,11.0,-1.2,14.39,30.49,669.7727,140.0127],
    [18198,1525556363,57.3801,-111.6673,986.5,730.2,184.1,10.5,-1.0,14.29,31.12,669.62,139.9995],
    [18199,1525556364,57.3795,-111.6673,987.4,731.4,184.3,10.5,-0.8,13.84,30.59,669.4711,139.9787],
    [18200,1525556365,57.3788,-111.6672,987.6,733.6,183.7,9.6,-1.1,14.14,30.42,669.2803,140.0186],
    [18201,1525556366,57.3781,-111.6671,987.9,734.9,183.7,9.8,-1.1,14.06,30.19,669.1816,139.9976],
    [18202,1525556367,57.3775,-111.667,988.8,735.7,184.6,10.4,-1.5,14.38,30.64,668.7849,140.0083],
    [18203,1525556368,57.3768,-111.6669,990.6,740.0,185.2,11.1,-1.0,14.97,29.83,668.543,139.9903],
    [18204,1525556369,57.3761,-111.6669,992.6,744.4,187.0,12.3,-0.5,14.36,30.68,668.3324,140.0013],
    [18205,1525556370,57.3755,-111.6668,994.4,748.0,185.3,10.0,-0.8,13.92,30.61,668.2175,140.0072],
    [18206,1525556371,57.3748,-111.6668,997.0,752.5,185.9,11.0,-1.5,14.55,29.81,667.9908,139.985],
    [18207,1525556372,57.3742,-111.6667,1000.1,757.6,184.2,8.8,-2.1,14.18,30.27,667.7745,139.9963],
    [18208,1525556373,57.3735,-111.6666,1003.2,764.9,181.7,6.6,-1.2,14.31,30.29,667.1774,139.9873],
    [18209,1525556374,57.3729,-111.6666,1005.3,768.0,182.5,7.0,-1.7,13.87,30.3,667.3438,139.9885],
    [18210,1525556375,57.3723,-111.6665,1007.7,770.3,181.0,5.2,-0.6,14.98,30.12,667.3624,140.0118],
    [18211,1525556376,57.3717,-111.6664,1010.2,772.8,183.7,8.3,-0.2,14.35,30.46,667.5093,139.987],
    [18212,1525556377,57.371,-111.6664,1013.7,777.7,185.8,9.5,-0.4,14.63,30.25,667.5334,140.0059],
    [18213,1525556378,57.3704,-111.6663,1017.7,782.7,185.2,8.7,-0.3,14.53,30.61,667.4612,140.0024],
    [18214,1525556379,57.3698,-111.6663,1019.6,784.6,186.7,9.4,-0.2,14.45,30.67,667.3428,139.994],
    [18215,1525556380,57.3691,-111.6663,1019.2,785.2,183.9,6.3,-1.0,14.67,31.04,667.3428,139.994],
    [18216,1525556381,57.3686,-111.6663,1018.1,784.1,185.8,8.7,-1.2,14.42,30.77,667.3882,139.9941],
    [18217,1525556382,57.3679,-111.6662,1017.5,784.5,186.4,9.1,-0.9,14.53,31.25,667.3472,139.9983],
    [18218,1525556383,57.3672,-111.6662,1018.5,785.5,186.6,9.4,-1.9,14.38,30.58,667.2977,139.9914],
    [18219,1525556384,57.3666,-111.6662,1019.5,786.4,187.0,10.3,-1.3,14.34,30.85,667.4063,139.9994],
    [18220,1525556385,57.3659,-111.6661,1020.0,788.0,186.1,9.9,0.1,13.89,30.77,667.5412,140.0081],
    [18221,1525556386,57.3654,-111.6661,1019.6,787.6,186.3,10.6,-0.1,13.87,30.83,667.6134,140.0041],
    [18222,1525556387,57.3647,-111.6661,1019.7,787.7,185.6,10.4,0.7,14.05,30.97,667.7496,140.003],
    [18223,1525556388,57.3641,-111.666,1019.9,787.9,184.7,10.0,1.7,14.4,31.28,667.8521,140.0059],
    [18224,1525556389,57.3634,-111.6659,1019.2,787.2,184.3,9.7,1.4,14.55,30.65,667.9928,140.0052],
    [18225,1525556390,57.3628,-111.6658,1018.1,786.1,183.3,9.2,0.8,14.42,30.7,668.1624,140.0072],
    [18226,1525556391,57.3621,-111.6657,1016.4,784.4,184.1,10.7,0.6,14.4,31.06,668.1994,140.0161],
    [18227,1525556392,57.3615,-111.6657,1014.7,782.7,184.8,11.7,0.6,15.15,30.48,668.1964,140.011],
    [18228,1525556393,57.3609,-111.6656,1013.2,781.2,183.9,11.6,1.4,14.15,30.89,668.0727,139.9943],
    [18229,1525556394,57.3603,-111.6654,1012.2,780.2,184.1,12.5,0.9,14.42,31.29,667.9902,139.9966],
    [18230,1525556395,57.3596,-111.6653,1010.6,778.6,182.1,10.9,0.3,14.98,30.55,667.7836,140.0],
    [18231,1525556396,57.359,-111.6652,1009.5,776.7,180.1,9.5,-0.1,15.04,30.37,667.6687,140.001],
    [18232,1525556397,57.3584,-111.665,1009.4,776.4,178.8,8.7,-0.8,14.33,30.85,667.3414,139.9992],
    [18233,1525556398,57.3578,-111.6648,1010.0,777.0,179.7,9.6,1.0,14.4,31.44,667.2716,140.0049],
    [18234,1525556399,57.3571,-111.6647,1011.4,778.4,179.3,9.3,2.7,14.7,30.74,667.1148,140.0175],
    [18235,1525556400,57.3565,-111.6645,1013.4,780.4,179.8,9.5,2.3,14.37,30.98,666.7166,139.994],
    [18236,1525556401,57.3558,-111.6643,1015.3,781.3,179.9,8.1,2.2,14.99,30.15,666.6255,139.9929],
    [18237,1525556402,57.3552,-111.6642,1018.1,784.1,180.2,6.7,3.0,14.18,30.7,666.2941,140.0048],
    [18238,1525556403,57.3546,-111.6641,1020.7,785.7,182.4,7.4,1.2,14.22,31.03,666.1054,139.9927],
    [18239,1525556404,57.354,-111.6641,1022.8,787.8,183.5,6.6,-0.3,14.87,30.27,665.9037,140.0005],
    [18240,1525556405,57.3534,-111.664,1025.8,790.8,184.6,7.5,-1.3,14.35,30.88,665.7801,139.9996],
    [18241,1525556406,57.3528,-111.664,1029.7,793.7,185.9,9.0,-1.7,14.41,30.93,665.6978,139.9908],
    [18242,1525556407,57.3521,-111.664,1032.9,796.9,184.8,8.5,-2.8,14.11,31.27,665.6602,140.0009],
    [18243,1525556408,57.3515,-111.6639,1036.2,800.9,185.9,10.2,-2.8,14.26,30.99,665.5055,140.0029],
    [18244,1525556409,57.3509,-111.6639,1038.0,803.0,186.8,11.1,-3.2,14.59,30.52,665.4529,139.9868],
    [18245,1525556410,57.3503,-111.6638,1040.0,804.0,185.3,10.0,-1.5,14.15,30.7,665.3706,140.0023],
    [18246,1525556411,57.3497,-111.6637,1041.3,806.3,187.5,12.4,-2.5,14.71,30.4,665.4847,139.9955],
    [18247,1525556412,57.3491,-111.6637,1042.4,807.4,187.8,12.2,-3.1,14.35,30.84,665.5769,139.9908],
    [18248,1525556413,57.3485,-111.6636,1043.5,808.5,185.8,10.0,-2.4,14.4,31.0,665.6,140.0001],
    [18249,1525556414,57.3478,-111.6636,1044.3,808.2,186.9,11.2,-2.3,14.29,30.95,665.5758,139.9959],
    [18250,1525556415,57.3472,-111.6635,1044.8,808.5,187.2,10.9,-2.1,13.98,31.29,665.6585,139.9963],
    [18251,1525556416,57.3466,-111.6635,1044.2,807.2,186.2,10.1,-1.1,14.39,31.55,665.9367,140.0033],
    [18252,1525556417,57.346,-111.6634,1043.2,805.6,188.4,12.1,-0.7,14.29,30.74,666.1374,140.0072],
    [18253,1525556418,57.3454,-111.6634,1042.6,804.4,188.3,11.4,-1.1,14.25,31.16,666.2728,140.0079],
    [18254,1525556419,57.3447,-111.6634,1042.6,803.4,187.5,10.5,-0.3,14.15,30.93,666.2879,140.0031],
    [18255,1525556420,57.3441,-111.6634,1041.1,799.2,187.9,11.0,-0.1,14.33,31.39,666.2867,140.0038],
    [18256,1525556421,57.3435,-111.6633,1039.0,792.4,187.7,10.7,-0.4,14.48,30.46,666.1274,139.9995],
    [18257,1525556422,57.3429,-111.6633,1036.7,787.4,187.5,10.4,-0.8,13.88,31.13,665.9969,140.0048],
    [18258,1525556423,57.3422,-111.6633,1034.7,782.7,187.3,9.9,-1.7,13.82,31.03,665.9669,140.0008],
    [18259,1525556424,57.3416,-111.6633,1033.5,777.9,186.3,8.7,-1.1,14.07,31.24,665.9401,139.9991],
    [18260,1525556425,57.341,-111.6632,1033.5,775.4,185.8,8.6,-1.1,14.09,31.21,665.8186,139.9992],
    [18261,1525556426,57.3404,-111.6632,1034.7,774.4,186.6,9.3,-1.5,13.83,31.13,665.7263,139.9932],
    [18262,1525556427,57.3398,-111.6632,1036.8,775.8,185.4,7.8,-1.8,14.44,30.86,665.6064,139.9989],
    [18263,1525556428,57.3391,-111.6632,1037.8,775.4,185.4,7.9,-2.0,14.18,30.98,665.4993,139.9928],
    [18264,1525556429,57.3385,-111.6632,1038.5,774.0,186.0,8.4,-2.0,14.38,30.96,665.5108,139.9995],
    [18265,1525556430,57.3379,-111.6631,1039.8,773.4,186.0,8.7,-1.8,13.88,31.1,665.4632,140.0061],
    [18266,1525556431,57.3373,-111.6631,1041.2,773.7,186.7,9.2,-1.6,14.5,30.54,665.3077,140.007],
    [18267,1525556432,57.3367,-111.6631,1042.6,773.6,186.6,8.8,-0.6,14.29,31.04,665.2143,139.994],
    [18268,1525556433,57.3361,-111.6631,1043.8,774.1,186.7,8.8,-1.0,14.11,31.31,665.0818,140.0036],
    [18269,1525556434,57.3354,-111.6631,1044.4,774.8,187.4,9.3,-0.6,14.03,31.11,664.9543,139.9955],
    [18270,1525556435,57.3348,-111.6631,1044.9,773.9,186.3,7.7,-0.2,13.98,31.09,664.8878,139.9912],
    [18271,1525556436,57.3342,-111.6631,1046.0,775.0,184.5,5.4,-0.6,14.14,31.29,664.8204,140.0006],
    [18272,1525556437,57.3336,-111.663,1047.4,776.4,185.5,6.7,-0.9,14.46,30.56,664.9414,139.9935],
    [18273,1525556438,57.333,-111.663,1049.0,778.0,187.5,8.1,-3.1,14.01,32.05,664.9827,140.0025],
    [18274,1525556439,57.3324,-111.6631,1050.5,781.9,185.6,6.3,-1.6,14.52,31.19,665.0602,139.9979],
    [18275,1525556440,57.3317,-111.6631,1051.4,783.0,185.9,7.0,-1.2,14.8,31.29,665.3263,140.0014],
    [18276,1525556441,57.3311,-111.6631,1051.6,782.6,183.9,5.4,-2.0,13.96,32.06,665.3747,140.0074],
    [18277,1525556442,57.3305,-111.663,1051.1,782.1,183.7,5.9,-0.7,14.29,31.45,665.4038,140.0058],
    [18278,1525556443,57.3299,-111.663,1050.1,780.2,183.3,5.4,-1.9,14.14,31.71,665.3537,140.005],
    [18279,1525556444,57.3292,-111.663,1048.9,777.6,182.9,5.4,-0.7,14.07,31.98,665.2775,139.9983],
    [18280,1525556445,57.3286,-111.6629,1047.3,775.3,184.4,7.1,-0.1,14.44,31.33,665.1259,139.9971],
    [18281,1525556446,57.328,-111.6629,1045.3,772.3,185.1,7.2,-0.3,13.49,32.2,665.1022,139.9964],
    [18282,1525556447,57.3274,-111.6629,1045.1,772.1,186.0,8.1,-1.0,14.15,31.95,665.2138,139.9996],
    [18283,1525556448,57.3267,-111.6629,1045.7,772.7,186.4,8.5,-1.1,14.07,31.9,665.3058,139.9939],
    [18284,1525556449,57.3261,-111.6629,1046.9,774.9,186.9,8.9,-1.3,13.6,31.96,665.4141,140.005],
    [18285,1525556450,57.3255,-111.6629,1048.1,777.1,187.0,8.8,-1.4,13.98,32.07,665.4423,140.003],
    [18286,1525556451,57.3249,-111.6629,1048.5,777.5,186.8,8.7,-1.1,14.25,32.05,665.3571,139.9946],
    [18287,1525556452,57.3242,-111.6629,1047.5,776.6,187.2,8.0,-1.4,13.64,32.01,665.3854,139.9976],
    [18288,1525556453,57.3236,-111.6629,1046.4,774.1,185.6,6.2,-0.3,14.07,31.78,665.5378,140.021],
    [18289,1525556454,57.3229,-111.6629,1045.3,772.3,185.9,6.5,-0.8,14.56,31.59,665.5498,140.0211],
    [18290,1525556455,57.3224,-111.6629,1044.8,771.9,185.1,6.1,0.0,14.1,32.36,665.7456,140.0004],
    [18291,1525556456,57.3217,-111.6629,1045.4,771.4,185.0,7.0,1.1,14.63,31.69,665.7264,140.0102],
    [18292,1525556457,57.3211,-111.6629,1045.3,770.3,185.2,8.1,1.3,14.23,31.81,665.7265,140.0018],
    [18293,1525556458,57.3205,-111.6628,1044.1,768.1,184.8,8.0,0.5,14.06,32.06,665.7756,140.002],
    [18294,1525556459,57.3198,-111.6628,1043.2,767.9,182.7,6.1,-1.1,14.49,31.29,665.777,139.9998],
    [18295,1525556460,57.3192,-111.6627,1042.3,766.0,183.5,7.2,-1.0,14.09,31.87,665.8438,140.0058],
    [18296,1525556461,57.3186,-111.6627,1041.5,765.7,182.9,6.6,0.1,13.98,32.72,666.0846,140.0152],
    [18297,1525556462,57.318,-111.6626,1041.5,766.1,182.6,6.5,-0.3,14.22,31.52,666.1926,139.996],
    [18298,1525556463,57.3174,-111.6626,1041.4,766.0,184.1,7.8,-1.2,13.95,32.82,666.3329,139.9974],
    [18299,1525556464,57.3168,-111.6625,1041.3,766.3,184.5,7.9,-1.4,13.85,32.01,666.4706,140.0043],
    [18300,1525556465,57.3162,-111.6625,1040.8,765.1,184.4,7.7,-1.7,14.47,31.54,666.603,139.9989],
    [18301,1525556466,57.3156,-111.6625,1039.0,763.3,184.4,7.9,-1.5,13.51,31.86,666.6932,140.0073],
    [18302,1525556467,57.315,-111.6624,1037.0,761.3,183.5,7.4,-2.2,14.08,31.72,666.8088,140.0078],
    [18303,1525556468,57.3144,-111.6623,1035.0,759.3,183.9,8.2,-1.7,14.13,32.59,666.8503,139.9957],
    [18304,1525556469,57.3138,-111.6623,1032.8,757.8,184.2,8.3,-1.3,13.68,31.84,666.9094,139.9942],
    [18305,1525556470,57.3131,-111.6622,1031.3,756.6,185.0,8.5,-1.1,14.09,32.37,666.9776,139.999],
    [18306,1525556471,57.3125,-111.6622,1030.0,754.0,186.7,9.2,-1.1,14.57,31.27,667.2733,140.0064],
    [18307,1525556472,57.312,-111.6622,1028.6,753.6,188.1,9.1,-1.3,13.68,31.84,667.3353,139.9981],
    [18308,1525556473,57.3114,-111.6622,1027.6,752.6,189.9,8.7,-0.5,13.99,32.64,667.4887,139.9966],
    [18309,1525556474,57.3108,-111.6623,1027.0,753.2,193.3,9.7,-0.7,13.5,31.84,667.5408,140.0079],
    [18310,1525556475,57.3102,-111.6624,1025.6,753.2,196.6,9.9,-0.8,14.03,31.87,667.7342,140.0022],
    [18311,1525556476,57.3096,-111.6626,1023.8,753.5,199.4,9.7,-0.4,14.58,31.53,667.8022,140.0061],
    [18312,1525556477,57.309,-111.6628,1022.0,752.9,202.0,9.3,0.1,14.07,31.65,667.859,140.001],
    [18313,1525556478,57.3085,-111.6631,1020.3,752.8,205.3,10.0,0.1,14.44,31.16,667.7712,140.0059],
    [18314,1525556479,57.3079,-111.6635,1018.7,753.3,208.3,9.8,-0.3,13.69,31.92,667.6638,140.0001],
    [18315,1525556480,57.3074,-111.6639,1017.4,754.4,210.9,9.9,-0.4,14.42,31.17,667.7134,139.9937],
    [18316,1525556481,57.3069,-111.6643,1016.2,759.8,213.7,10.0,-1.0,13.97,32.04,667.8126,139.9996],
    [18317,1525556482,57.3064,-111.6648,1015.3,766.0,216.2,9.9,-0.6,14.7,31.27,667.8692,139.9991],
    [18318,1525556483,57.3059,-111.6653,1015.6,772.7,217.6,9.0,0.3,14.18,31.91,667.9982,140.0134],
    [18319,1525556484,57.3055,-111.6658,1016.5,775.9,219.1,8.2,0.5,14.49,31.42,667.9963,139.9999],
    [18320,1525556485,57.305,-111.6664,1016.9,778.6,222.7,9.6,-0.5,14.09,31.48,668.0391,139.9966],
    [18321,1525556486,57.3046,-111.667,1016.3,779.3,225.8,9.9,-1.2,13.34,31.62,668.0143,140.0085],
    [18322,1525556487,57.3041,-111.6676,1015.3,778.3,228.5,10.0,-1.4,13.89,32.34,668.0045,140.0046],
    [18323,1525556488,57.3037,-111.6683,1014.0,777.0,230.9,9.5,-1.6,14.25,31.43,668.0356,140.0001],
    [18324,1525556489,57.3034,-111.669,1013.4,776.4,232.6,8.7,-0.9,14.02,31.61,667.9158,139.997],
    [18325,1525556490,57.303,-111.6697,1013.3,776.3,235.5,8.7,-1.5,14.21,31.36,667.7697,139.9967],
    [18326,1525556491,57.3027,-111.6705,1013.4,776.4,237.8,8.7,-0.7,13.85,31.45,667.7346,139.9941],
    [18327,1525556492,57.3024,-111.6712,1013.2,776.2,240.4,9.1,-0.3,14.38,31.27,667.6796,140.0004],
    [18328,1525556493,57.3021,-111.672,1013.0,776.0,244.4,9.4,-1.3,13.83,31.47,667.7152,139.9969],
    [18329,1525556494,57.3019,-111.6729,1013.8,776.8,248.3,9.3,-0.8,14.24,31.17,667.8728,139.9967],
    [18330,1525556495,57.3017,-111.6738,1015.8,778.8,251.5,9.0,-0.4,14.12,32.15,667.9692,139.9973],
    [18331,1525556496,57.3015,-111.6746,1016.9,780.9,255.5,8.8,-1.3,13.59,31.5,668.0835,140.0037],
    [18332,1525556497,57.3013,-111.6756,1017.4,780.4,258.6,8.5,-0.7,13.59,31.48,668.0785,140.0011],
    [18333,1525556498,57.3012,-111.6765,1017.1,779.1,261.4,8.4,-0.6,14.17,31.33,668.0531,140.0003],
    [18334,1525556499,57.3012,-111.6774,1015.9,775.8,264.3,8.9,-0.8,13.9,31.47,667.9975,140.001],
    [18335,1525556500,57.3011,-111.6784,1014.4,770.7,266.6,9.0,-0.9,14.1,32.11,668.0955,139.9979],
    [18336,1525556501,57.3011,-111.6793,1013.1,765.6,268.5,8.5,-1.1,14.12,31.44,668.1282,139.9992],
    [18337,1525556502,57.3011,-111.6803,1012.5,763.0,269.8,8.7,-1.6,14.25,31.33,668.2244,140.0091],
    [18338,1525556503,57.301,-111.6812,1012.6,765.3,270.7,9.0,-2.0,14.16,31.45,668.2274,140.0058],
    [18339,1525556504,57.301,-111.6821,1013.2,765.8,270.1,8.4,-1.2,14.11,31.88,668.2443,140.0002],
    [18340,1525556505,57.301,-111.683,1013.1,766.9,270.6,8.7,-1.8,14.11,32.33,668.1537,140.0048],
    [18341,1525556506,57.301,-111.684,1011.7,766.4,271.1,8.6,-2.0,13.65,31.9,667.992,139.9966],
    [18342,1525556507,57.301,-111.685,1010.6,768.1,270.5,8.2,-1.1,14.15,32.24,667.8613,139.9912],
    [18343,1525556508,57.301,-111.6859,1010.4,770.6,271.1,8.4,-1.8,14.62,31.25,667.7979,139.993],
    [18344,1525556509,57.301,-111.6869,1010.7,771.0,271.3,8.0,-1.8,14.25,32.15,667.7258,140.0002],
    [18345,1525556510,57.301,-111.6878,1011.2,769.1,270.1,7.9,-0.6,13.8,31.81,667.5018,139.9987],
    [18346,1525556511,57.301,-111.6888,1012.5,767.4,270.2,7.1,-0.6,14.08,32.17,667.3494,139.9973],
    [18347,1525556512,57.301,-111.6897,1014.0,759.9,270.4,8.0,-0.5,14.13,32.36,666.9771,139.9932],
    [18348,1525556513,57.301,-111.6907,1015.5,754.4,271.6,8.1,-1.7,13.98,32.15,666.9239,139.996],
    [18349,1525556514,57.301,-111.6916,1016.8,748.9,271.9,8.5,-1.9,14.05,31.7,666.786,139.9962],
    [18350,1525556515,57.301,-111.6926,1018.6,745.6,271.7,9.0,-1.8,13.75,31.98,666.7439,140.0014],
    [18351,1525556516,57.301,-111.6936,1020.8,745.0,271.2,9.6,-1.6,14.03,32.11,666.5085,139.9948],
    [18352,1525556517,57.301,-111.6946,1023.8,746.8,271.8,8.6,-2.4,13.52,31.98,666.4282,139.9976],
    [18353,1525556518,57.301,-111.6955,1026.2,748.2,271.9,9.1,-2.2,14.51,31.67,666.1657,140.0029],
    [18354,1525556519,57.301,-111.6964,1027.4,747.6,272.4,9.6,-2.5,14.18,32.03,665.9426,139.9974],
    [18355,1525556520,57.301,-111.6974,1028.8,747.7,273.9,8.7,-3.7,14.28,32.0,665.7717,140.0017],
    [18356,1525556521,57.301,-111.6984,1030.7,748.8,273.9,8.7,-3.4,13.64,31.83,665.6758,140.0035],
    [18357,1525556522,57.301,-111.6993,1033.0,749.2,273.2,8.9,-2.6,14.0,31.84,665.5259,139.9902],
    [18358,1525556523,57.301,-111.7003,1035.1,750.1,272.2,8.9,-1.6,13.89,31.98,665.4963,140.0016],
    [18359,1525556524,57.301,-111.7013,1037.4,751.5,271.5,9.7,-1.0,14.86,31.16,665.38,140.0039],
    [18360,1525556525,57.3011,-111.7021,1039.4,752.4,271.6,9.9,-1.0,14.79,31.39,665.2695,139.9965],
    [18361,1525556526,57.3011,-111.7032,1041.9,753.9,271.6,8.7,-0.7,14.43,31.16,665.0588,140.0007],
    [18362,1525556527,57.3011,-111.7041,1043.2,754.2,273.1,9.6,-2.0,14.07,31.67,664.9682,139.9974],
    [18363,1525556528,57.3011,-111.7051,1044.3,755.3,272.8,9.4,-1.2,13.64,31.78,664.8282,139.9932],
    [18364,1525556529,57.3011,-111.7061,1045.5,756.5,271.2,9.6,0.1,14.57,31.55,664.7868,139.9966],
    [18365,1525556530,57.3011,-111.707,1047.2,757.2,271.6,9.6,-0.4,13.83,31.5,664.6297,140.0061],
    [18366,1525556531,57.3011,-111.708,1049.1,759.1,271.7,9.2,-0.4,14.57,31.27,664.4963,140.0031],
    [18367,1525556532,57.3011,-111.7089,1050.9,760.9,272.5,9.2,-1.1,14.73,30.87,664.3679,140.001],
    [18368,1525556533,57.3012,-111.7099,1052.4,762.4,273.0,9.4,-1.5,14.03,31.33,664.3763,140.0096],
    [18369,1525556534,57.3012,-111.7108,1053.6,763.6,273.0,9.7,-1.3,14.11,31.29,664.1792,139.9972],
    [18370,1525556535,57.3012,-111.7118,1055.2,765.2,272.3,8.6,-0.3,14.8,30.72,664.028,139.9936],
    [18371,1525556536,57.3012,-111.7127,1056.6,766.6,272.4,9.9,-0.3,13.91,31.2,663.8946,139.9916],
    [18372,1525556537,57.3013,-111.7137,1057.9,767.9,273.1,9.5,-1.0,13.67,31.35,663.8595,139.9999],
    [18373,1525556538,57.3013,-111.7147,1058.9,768.9,272.4,9.0,-0.1,13.79,31.01,663.743,139.9929],
    [18374,1525556539,57.3013,-111.7156,1060.5,769.4,272.0,9.3,0.5,13.96,31.6,663.7028,139.9935],
    [18375,1525556540,57.3013,-111.7166,1062.5,771.5,272.0,8.9,0.5,14.57,30.59,663.7608,139.9938],
    [18376,1525556541,57.3014,-111.7175,1064.1,773.1,272.6,10.2,-0.6,14.13,31.16,663.7846,140.0027],
    [18377,1525556542,57.3014,-111.7184,1065.1,774.1,272.5,9.6,-0.4,14.88,30.57,663.8051,139.9963],
    [18378,1525556543,57.3014,-111.7194,1066.3,775.3,271.7,8.7,0.0,14.14,30.91,663.7631,140.0033],
    [18379,1525556544,57.3014,-111.7204,1066.8,775.8,271.8,9.0,-0.5,14.13,31.13,663.7195,139.9951],
    [18380,1525556545,57.3014,-111.7212,1066.4,774.4,271.3,9.7,-0.6,14.13,31.64,663.7007,139.9983],
    [18381,1525556546,57.3014,-111.7223,1065.7,773.7,270.6,9.6,-0.7,14.56,30.96,663.6126,140.0028],
    [18382,1525556547,57.3014,-111.7232,1065.3,772.3,270.4,10.0,-1.2,14.11,31.27,663.7322,139.9953],
    [18383,1525556548,57.3014,-111.7242,1065.4,771.5,269.3,9.4,-0.8,14.49,31.0,663.9645,140.0073],
    [18384,1525556549,57.3014,-111.725,1066.3,772.3,268.1,9.3,-0.4,14.24,30.94,664.2205,140.0003],
    [18385,1525556550,57.3014,-111.726,1067.2,771.5,268.0,9.2,-0.9,14.0,31.06,664.3176,140.0031],
    [18386,1525556551,57.3013,-111.727,1067.5,770.5,267.3,9.0,-0.4,13.62,31.16,664.3387,140.0063],
    [18387,1525556552,57.3013,-111.728,1066.2,768.2,267.1,8.9,-0.4,14.12,31.1,664.3106,139.9969],
    [18388,1525556553,57.3013,-111.729,1063.8,764.9,266.5,8.8,0.4,14.4,31.17,664.156,139.993],
    [18389,1525556554,57.3012,-111.73,1061.4,761.4,266.8,9.0,0.3,13.81,31.41,664.0838,139.9939],
    [18390,1525556555,57.3012,-111.7309,1059.3,758.3,267.3,8.8,0.2,13.94,31.44,664.0916,140.0012],
    [18391,1525556556,57.3012,-111.7319,1058.3,757.3,266.8,9.3,1.2,13.86,31.38,664.062,139.9996],
    [18392,1525556557,57.3012,-111.7329,1058.6,756.6,267.5,9.1,0.7,13.95,31.44,664.0491,139.9952],
    [18393,1525556558,57.3011,-111.7339,1060.1,758.1,268.0,8.8,0.8,13.91,31.38,664.0754,139.9954],
    [18394,1525556559,57.3011,-111.7349,1061.3,759.0,267.9,9.3,1.3,14.13,31.22,664.0487,140.0065],
    [18395,1525556560,57.3011,-111.7359,1061.6,758.6,269.4,9.8,0.1,14.7,31.2,663.9864,139.998],
    [18396,1525556561,57.3011,-111.7368,1061.7,758.7,269.9,9.5,0.1,14.06,31.55,663.8879,140.0016],
    [18397,1525556562,57.3011,-111.7379,1061.8,758.8,270.3,9.8,-0.1,14.19,31.27,663.7167,140.0003],
    [18398,1525556563,57.3011,-111.7389,1061.6,758.6,271.0,9.0,-0.4,14.09,31.63,663.5484,139.9982],
    [18399,1525556564,57.3011,-111.7398,1061.3,759.3,271.5,8.9,-0.5,13.92,31.44,663.5529,139.9881],
    [18400,1525556565,57.3011,-111.7409,1061.6,760.6,272.1,10.5,-1.0,13.83,31.37,663.5442,140.0123],
    [18401,1525556566,57.3012,-111.7419,1062.8,761.8,273.4,10.6,-1.4,13.49,31.37,663.4349,139.9937],
    [18402,1525556567,57.3012,-111.7429,1064.2,763.2,270.3,9.8,2.6,14.03,31.36,663.2889,140.0082],
    [18403,1525556568,57.3012,-111.7439,1066.6,765.9,270.4,9.8,2.0,13.88,31.88,663.2479,139.9974],
    [18404,1525556569,57.3012,-111.7449,1067.6,767.6,272.3,10.2,-0.6,14.19,31.13,663.1848,140.0027],
    [18405,1525556570,57.3013,-111.7459,1068.0,768.0,271.1,9.5,0.4,14.1,31.92,663.1073,140.0],
    [18406,1525556571,57.3013,-111.7469,1069.1,769.1,271.1,9.6,0.1,14.07,31.54,663.0178,140.0024],
    [18407,1525556572,57.3013,-111.7477,1070.7,769.8,271.3,8.0,0.0,14.03,31.24,662.8977,139.9967],
    [18408,1525556573,57.3013,-111.7489,1072.0,771.0,271.2,8.8,-0.2,14.3,30.85,662.8367,140.0066],
    [18409,1525556574,57.3013,-111.7498,1072.7,771.7,270.8,8.1,-0.4,14.18,31.13,662.7324,140.0033],
    [18410,1525556575,57.3013,-111.7508,1073.6,772.6,270.2,8.3,-0.4,13.36,31.37,662.7311,139.9992],
    [18411,1525556576,57.3013,-111.7519,1074.8,772.8,269.1,8.0,0.1,14.0,31.22,662.8214,140.0045],
    [18412,1525556577,57.3013,-111.7529,1076.0,774.1,268.3,8.2,0.2,13.94,31.08,662.8556,139.9924],
    [18413,1525556578,57.3013,-111.7539,1076.9,774.9,268.2,8.8,-0.3,13.67,31.29,663.0815,139.9991],
    [18414,1525556579,57.3012,-111.7549,1077.8,775.8,267.7,7.6,-0.6,14.2,31.16,663.1723,139.9993],
    [18415,1525556580,57.3012,-111.7559,1078.5,776.5,268.0,7.3,-1.2,14.05,31.68,663.2296,140.0031],
    [18416,1525556581,57.3012,-111.7568,1078.2,776.2,268.0,6.8,-1.4,14.13,31.61,663.3406,140.0009],
    [18417,1525556582,57.3011,-111.7577,1077.1,775.1,268.4,6.7,-1.8,13.94,32.52,663.5744,140.0035],
    [18418,1525556583,57.3011,-111.7588,1074.5,772.5,269.0,7.6,-1.9,13.8,32.22,663.668,140.002],
    [18419,1525556584,57.3011,-111.7598,1072.6,770.8,268.7,8.7,-0.7,13.72,31.73,663.7072,139.9916],
    [18420,1525556585,57.3011,-111.7608,1072.1,771.1,268.7,7.8,0.0,13.98,31.68,663.739,139.9979],
    [18421,1525556586,57.3011,-111.7619,1070.6,769.6,269.2,8.1,0.1,13.93,31.78,663.6669,139.9995],
    [18422,1525556587,57.3011,-111.7629,1068.6,766.6,270.0,8.4,-0.5,13.51,31.76,663.5075,139.9984],
    [18423,1525556588,57.3011,-111.7637,1066.9,763.9,270.4,7.4,-0.9,14.13,32.09,663.4349,139.9955],
    [18424,1525556589,57.301,-111.7649,1065.8,761.9,270.9,7.1,-1.8,13.97,32.39,663.3602,139.9955],
    [18425,1525556590,57.301,-111.7661,1065.4,760.4,270.9,6.7,-2.2,13.76,31.81,663.3442,139.9976],
    [18426,1525556591,57.301,-111.7672,1065.7,759.7,270.3,8.7,-1.7,14.03,31.81,663.3025,140.0077],
    [18427,1525556592,57.301,-111.7682,1067.0,761.0,269.9,8.0,-1.6,14.0,31.72,663.1617,139.9971],
    [18428,1525556593,57.301,-111.7693,1068.4,763.4,270.8,7.5,-2.6,13.43,31.77,663.1913,139.9911],
    [18429,1525556594,57.301,-111.7702,1069.4,764.4,270.3,9.0,-2.0,13.44,32.02,663.1656,140.0072],
    [18430,1525556595,57.301,-111.7714,1070.0,765.8,269.7,8.5,-1.6,14.22,31.45,662.9976,139.9903],
    [18431,1525556596,57.301,-111.7724,1070.6,766.6,269.1,7.8,-0.5,13.94,32.45,662.9281,140.0011],
    [18432,1525556597,57.3009,-111.7734,1071.3,767.3,267.9,8.8,0.8,13.93,31.75,662.782,140.0046],
    [18433,1525556598,57.3009,-111.7745,1071.7,767.7,269.1,9.8,-0.3,14.63,31.28,662.673,139.9967],
    [18434,1525556599,57.3009,-111.7756,1072.3,768.3,268.3,8.8,1.3,13.73,31.68,662.6253,140.0068],
    [18435,1525556600,57.3009,-111.7766,1073.5,768.5,267.7,8.9,2.2,14.14,31.7,662.4834,139.9974],
    [18436,1525556601,57.3009,-111.7777,1075.0,770.0,268.4,8.7,1.5,13.96,31.61,662.4473,140.0002],
    [18437,1525556602,57.3009,-111.7787,1076.6,771.6,268.3,8.5,1.4,13.98,32.44,662.374,140.0013],
    [18438,1525556603,57.3009,-111.7798,1078.0,773.0,268.4,8.6,1.3,13.96,31.69,662.1332,139.9996],
    [18439,1525556604,57.3009,-111.7808,1079.0,773.0,267.8,8.8,1.9,14.24,31.23,661.8261,139.9943],
    [18440,1525556605,57.3009,-111.7819,1080.1,774.1,268.3,8.4,1.3,14.66,31.02,661.6028,139.9947],
    [18441,1525556606,57.3009,-111.7829,1080.9,773.9,268.2,8.5,1.3,14.01,32.16,661.4608,139.9983],
    [18442,1525556607,57.3009,-111.784,1081.9,772.8,267.8,8.7,1.2,13.88,31.39,661.2156,139.9985],
    [18443,1525556608,57.3008,-111.785,1084.5,774.5,267.8,8.0,0.4,14.4,31.03,661.1543,139.9924],
    [18444,1525556609,57.3008,-111.786,1087.6,776.6,267.4,8.6,0.7,13.59,31.45,661.1813,140.0022],
    [18445,1525556610,57.3008,-111.7871,1091.0,780.0,266.0,8.7,1.9,14.56,30.85,661.2106,139.9948],
    [18446,1525556611,57.3008,-111.788,1093.6,782.6,266.5,8.2,1.3,13.83,31.21,661.2178,139.9978],
    [18447,1525556612,57.3007,-111.7891,1096.2,785.2,266.8,6.6,1.0,13.95,31.3,661.1793,139.9948],
    [18448,1525556613,57.3007,-111.7902,1097.6,786.6,267.5,6.8,0.1,14.52,31.04,661.2077,139.9892],
    [18449,1525556614,57.3007,-111.7912,1097.8,786.8,268.4,7.3,-0.9,14.4,31.16,661.3924,139.9941],
    [18450,1525556615,57.3007,-111.7922,1097.2,786.2,268.6,7.5,-1.3,13.93,31.49,661.5,140.0022],
    [18451,1525556616,57.3006,-111.7933,1097.2,786.2,268.8,7.1,-1.5,13.58,31.62,661.6182,140.0029],
    [18452,1525556617,57.3006,-111.7943,1097.4,785.4,268.1,6.3,-0.5,14.28,31.38,661.7875,140.0029],
    [18453,1525556618,57.3006,-111.7953,1096.4,784.4,267.7,8.9,0.3,14.04,31.87,661.9537,139.984],
    [18454,1525556619,57.3006,-111.7964,1094.8,782.8,268.7,9.0,-1.0,14.51,31.25,662.0278,139.9923],
    [18455,1525556620,57.3005,-111.7975,1093.6,780.6,271.1,8.1,-3.4,14.49,31.43,662.1588,140.0037],
    [18456,1525556621,57.3005,-111.7985,1092.0,779.0,271.3,7.6,-3.3,13.98,32.32,662.2493,140.0015],
    [18457,1525556622,57.3005,-111.7996,1090.1,777.1,271.2,8.1,-2.3,13.98,32.18,662.287,139.9938],
    [18458,1525556623,57.3005,-111.8007,1087.9,773.9,271.9,8.4,-2.4,13.7,32.19,662.3308,140.0066],
    [18459,1525556624,57.3005,-111.8018,1086.0,772.0,272.3,10.0,-2.0,14.62,31.43,662.5666,140.0037],
    [18460,1525556625,57.3005,-111.8029,1084.0,769.0,271.7,9.9,-0.9,13.58,31.99,662.7193,139.9998],
    [18461,1525556626,57.3005,-111.804,1083.2,768.2,272.1,10.0,-1.3,13.84,31.9,662.8074,140.0036],
    [18462,1525556627,57.3005,-111.8049,1082.7,767.7,273.2,9.9,-2.8,13.89,31.87,663.1406,140.0106],
    [18463,1525556628,57.3006,-111.806,1081.5,765.5,273.0,10.0,-2.8,14.13,31.59,663.3897,140.0009],
    [18464,1525556629,57.3006,-111.8071,1079.6,763.6,272.6,9.7,-3.1,13.98,32.35,663.5628,139.9986],
    [18465,1525556630,57.3006,-111.8083,1077.4,761.4,271.8,10.2,-2.8,13.88,31.38,663.716,140.002],
    [18466,1525556631,57.3006,-111.8093,1075.1,760.1,270.9,9.7,-2.5,14.46,31.54,663.7405,140.0121],
    [18467,1525556632,57.3005,-111.8103,1072.4,758.4,270.2,9.0,-2.5,14.17,31.56,663.6745,139.9986],
    [18468,1525556633,57.3005,-111.8114,1069.4,755.4,268.8,9.5,-1.7,14.07,31.51,663.5969,139.9983],
    [18469,1525556634,57.3005,-111.8125,1066.4,752.4,268.7,9.6,-2.7,13.46,31.49,663.4969,140.006],
    [18470,1525556635,57.3004,-111.8136,1064.2,750.2,267.8,10.0,-2.1,14.15,31.11,663.4154,139.9868],
    [18471,1525556636,57.3004,-111.8148,1063.2,748.2,265.5,9.6,0.2,13.36,31.48,663.3975,140.0038],
    [18472,1525556637,57.3003,-111.8158,1063.6,747.6,265.0,10.2,0.6,14.11,31.43,663.4228,139.998],
    [18473,1525556638,57.3003,-111.8169,1064.8,748.1,265.7,10.6,0.0,14.54,30.55,663.4064,140.0113],
    [18474,1525556639,57.3002,-111.818,1066.1,749.1,266.1,9.8,0.2,14.01,31.49,663.2468,140.0031],
    [18475,1525556640,57.3002,-111.8191,1066.9,748.9,267.8,10.1,-0.8,13.99,31.72,663.0507,140.0047],
    [18476,1525556641,57.3002,-111.8201,1067.6,748.6,268.4,10.1,-0.7,14.05,30.98,662.8881,140.0106],
    [18477,1525556642,57.3001,-111.8212,1068.1,749.1,269.3,9.6,-1.7,13.81,30.98,662.7907,139.9879],
    [18478,1525556643,57.3001,-111.8223,1068.8,748.8,269.5,8.3,-1.7,13.77,31.67,662.7504,139.9872],
    [18479,1525556644,57.3001,-111.8233,1069.9,749.9,268.6,10.1,-0.9,13.94,31.32,662.7186,140.0176],
    [18480,1525556645,57.3001,-111.8244,1072.2,752.2,270.0,9.4,-2.4,13.47,30.97,662.7372,139.9925],
    [18481,1525556646,57.3001,-111.8254,1073.8,753.8,269.7,8.6,-1.4,13.94,30.92,662.6283,139.9926],
    [18482,1525556647,57.3,-111.8264,1075.4,755.4,269.5,9.6,-0.9,13.84,31.7,662.5,139.9851],
    [18483,1525556648,57.3,-111.8277,1076.5,756.5,272.8,9.1,-4.0,14.43,30.48,662.3423,139.991],
    [18484,1525556649,57.3,-111.8287,1076.9,756.9,271.7,7.8,-1.4,14.16,30.79,662.2029,140.0042],
    [18485,1525556650,57.3,-111.8296,1077.4,757.4,270.5,8.8,0.4,14.04,31.0,662.1365,140.0024],
    [18486,1525556651,57.3001,-111.8308,1078.0,757.8,272.2,8.4,-1.1,13.98,31.4,661.9159,140.0017],
    [18487,1525556652,57.3001,-111.832,1079.7,758.7,272.4,10.6,-1.3,13.44,31.07,661.8487,139.9904],
    [18488,1525556653,57.3001,-111.8331,1081.3,760.3,272.9,10.8,-1.8,13.99,31.41,661.8166,140.0088],
    [18489,1525556654,57.3001,-111.8341,1082.8,761.8,272.9,10.5,-2.0,14.07,31.78,661.5601,140.0007],
    [18490,1525556655,57.3001,-111.8352,1084.0,763.0,272.6,10.0,-1.1,14.32,30.69,661.5194,140.001],
    [18491,1525556656,57.3001,-111.8361,1085.7,764.7,271.3,11.2,0.3,13.56,30.91,661.266,140.0032],
    [18492,1525556657,57.3002,-111.8373,1087.9,766.9,273.7,10.1,-2.5,14.51,30.5,661.2653,139.9977],
    [18493,1525556658,57.3002,-111.8384,1089.9,768.9,273.5,8.8,-1.3,14.13,31.01,661.1608,139.9912],
    [18494,1525556659,57.3002,-111.8394,1091.8,770.8,273.0,8.9,-0.6,13.57,30.98,661.0563,140.0114],
    [18495,1525556660,57.3002,-111.8405,1093.1,771.1,273.7,8.5,-0.7,14.75,30.47,660.9031,139.9974],
    [18496,1525556661,57.3003,-111.8415,1094.7,772.7,272.6,9.1,1.2,14.08,30.99,660.8876,140.0036],
    [18497,1525556662,57.3003,-111.8426,1095.8,773.1,272.6,9.5,1.2,14.01,31.43,660.8906,139.9956],
    [18498,1525556663,57.3004,-111.8437,1097.1,774.1,273.1,10.5,0.5,14.08,31.47,660.9933,139.996],
    [18499,1525556664,57.3004,-111.8447,1098.8,775.8,271.7,9.5,2.1,14.0,30.98,661.0974,140.0025],
    [18500,1525556665,57.3004,-111.8458,1100.2,776.2,271.2,9.1,2.2,13.87,31.28,661.2517,139.9986],
    [18501,1525556666,57.3005,-111.8468,1100.8,776.8,270.5,9.3,2.5,13.53,30.92,661.3063,140.0048],
    [18502,1525556667,57.3005,-111.8478,1100.9,775.9,269.8,10.2,2.4,14.45,30.63,661.5467,140.0057],
    [18503,1525556668,57.3005,-111.8489,1099.8,774.5,270.4,9.7,1.0,14.06,30.93,661.6117,140.0061],
    [18504,1525556669,57.3005,-111.85,1098.4,772.4,268.8,10.4,1.9,14.32,30.57,661.6049,139.9932],
    [18505,1525556670,57.3005,-111.851,1096.8,769.8,268.4,10.8,1.4,14.45,30.63,661.7043,140.0058],
    [18506,1525556671,57.3005,-111.852,1095.0,767.0,268.6,10.5,0.2,14.0,30.8,661.6989,139.9971],
    [18507,1525556672,57.3005,-111.8531,1093.5,764.5,268.7,8.9,-0.9,14.12,30.6,661.6953,139.999],
    [18508,1525556673,57.3005,-111.8542,1092.5,763.5,268.1,8.9,-0.8,14.68,30.26,661.6904,140.0015],
    [18509,1525556674,57.3004,-111.8552,1091.9,761.9,267.2,8.8,-0.2,14.12,30.96,661.5318,140.0002],
    [18510,1525556675,57.3004,-111.8561,1091.3,761.3,266.7,9.5,0.2,14.0,30.62,661.5054,140.0069],
    [18511,1525556676,57.3004,-111.8572,1090.7,760.7,266.7,9.6,-0.2,14.26,30.27,661.35,139.9979],
    [18512,1525556677,57.3003,-111.8583,1090.3,759.3,267.3,9.7,-0.8,13.68,30.79,661.3103,140.0011],
    [18513,1525556678,57.3003,-111.8594,1090.7,759.7,266.6,9.3,0.4,14.06,31.43,660.951,139.9953],
    [18514,1525556679,57.3003,-111.8604,1091.8,760.8,267.0,9.4,0.3,13.75,30.84,660.7572,139.9937],
    [18515,1525556680,57.3002,-111.8615,1092.9,761.9,268.3,9.1,-0.4,13.97,30.58,660.4435,140.0075],
    [18516,1525556681,57.3002,-111.8626,1094.4,763.4,269.5,8.8,-0.8,14.49,30.0,660.1984,139.9956],
    [18517,1525556682,57.3002,-111.8636,1096.4,764.4,269.8,8.3,0.0,13.92,30.64,659.8638,139.9895],
    [18518,1525556683,57.3002,-111.8646,1098.8,766.8,270.0,8.9,0.3,13.89,30.66,659.7408,140.0061],
    [18519,1525556684,57.3002,-111.8657,1101.5,768.5,271.3,9.0,-1.1,14.06,30.46,659.6556,139.9967],
    [18520,1525556685,57.3002,-111.8667,1104.6,770.6,272.0,9.0,-1.8,14.25,30.43,659.5932,140.0047],
    [18521,1525556686,57.3002,-111.8678,1108.7,773.7,272.1,9.4,-2.0,14.14,30.71,659.5076,139.997],
    [18522,1525556687,57.3002,-111.8689,1112.5,777.5,273.1,9.2,-3.2,14.58,30.14,659.5105,139.9996],
    [18523,1525556688,57.3002,-111.87,1114.8,778.8,272.7,8.7,-2.6,13.79,30.87,659.4928,139.999],
    [18524,1525556689,57.3002,-111.871,1116.5,780.5,272.8,8.4,-2.6,14.52,30.24,659.5063,139.9973],
    [18525,1525556690,57.3002,-111.8721,1117.6,781.6,272.4,7.8,-2.2,14.24,31.19,659.5712,140.0116],
    [18526,1525556691,57.3002,-111.8731,1118.2,782.8,271.6,8.7,-1.7,13.84,31.02,659.573,140.0041],
    [18527,1525556692,57.3002,-111.8742,1118.6,783.6,270.6,8.5,-1.2,13.95,30.92,659.6202,139.995],
    [18528,1525556693,57.3002,-111.8752,1118.6,783.6,270.0,8.8,-1.3,13.76,30.98,659.5997,139.9993],
    [18529,1525556694,57.3002,-111.8763,1118.5,783.5,270.0,8.5,-2.3,14.52,30.88,659.5571,139.9956],
    [18530,1525556695,57.3002,-111.8773,1118.2,782.4,269.2,7.6,-2.0,14.15,31.36,659.7089,140.0044],
    [18531,1525556696,57.3002,-111.8784,1117.8,781.8,268.2,7.8,-1.4,13.86,31.12,659.8143,140.0047],
    [18532,1525556697,57.3001,-111.8794,1117.3,780.3,268.9,7.7,-2.5,14.27,30.96,659.8587,139.9797],
    [18533,1525556698,57.3001,-111.8805,1117.3,780.3,269.7,7.7,-3.1,14.24,30.97,659.9423,140.0192],
    [18534,1525556699,57.3001,-111.8816,1117.3,780.2,270.4,8.1,-3.3,13.43,31.14,660.1002,140.0099],
    [18535,1525556700,57.3001,-111.8826,1116.4,778.4,270.5,7.9,-2.7,13.79,31.88,660.3606,139.998],
    [18536,1525556701,57.3,-111.8837,1115.0,775.9,271.0,7.7,-2.4,13.88,31.18,660.6098,140.0054],
    [18537,1525556702,57.3,-111.8847,1113.5,774.5,272.0,9.1,-2.8,14.09,31.55,660.7595,139.9939],
    [18538,1525556703,57.3,-111.8858,1112.4,773.1,272.0,8.2,-1.1,14.46,30.96,660.8056,140.0094],
    [18539,1525556704,57.3001,-111.8869,1110.9,771.6,270.3,7.1,1.4,13.77,31.22,660.8288,139.9883],
    [18540,1525556705,57.3001,-111.888,1108.7,768.6,272.1,6.6,-0.2,14.69,30.76,660.7487,140.0096],
    [18541,1525556706,57.3001,-111.8891,1106.0,766.7,272.1,6.8,-0.3,14.62,30.58,660.6533,139.9965],
    [18542,1525556707,57.3001,-111.8902,1103.4,764.4,272.9,7.0,-1.8,14.02,31.86,660.4775,140.0068],
    [18543,1525556708,57.3001,-111.8913,1101.8,761.8,272.1,7.1,-1.1,13.27,31.27,660.5294,140.0181],
    [18544,1525556709,57.3001,-111.8923,1101.2,760.2,271.7,8.4,-1.6,14.2,31.23,660.2352,140.0017],
    [18545,1525556710,57.3001,-111.8935,1101.4,759.4,271.3,8.3,-1.6,14.03,31.58,660.3633,140.0001],
    [18546,1525556711,57.3001,-111.8946,1102.6,759.6,269.8,8.9,-0.6,14.08,31.19,660.3828,140.0006],
    [18547,1525556712,57.3001,-111.8957,1104.4,761.4,269.6,8.4,-0.6,14.14,30.9,660.3927,139.9943],
    [18548,1525556713,57.3001,-111.8968,1105.9,761.9,269.0,6.9,0.0,13.66,31.28,660.3997,140.0088],
    [18549,1525556714,57.3001,-111.8979,1107.6,763.6,269.0,6.9,0.2,14.31,31.06,660.2412,140.0033],
    [18550,1525556715,57.3001,-111.899,1108.0,764.0,269.5,6.8,0.1,13.91,31.31,660.3404,140.0003],
    [18551,1525556716,57.3001,-111.9001,1107.4,763.4,269.8,6.6,0.1,13.77,31.22,660.3161,139.9936],
    [18552,1525556717,57.3001,-111.9011,1107.0,763.0,270.9,7.4,-1.2,13.96,31.22,660.361,139.9975],
    [18553,1525556718,57.3001,-111.9022,1107.2,762.2,271.3,6.8,-1.4,13.95,31.46,660.2751,139.9902],
    [18554,1525556719,57.3001,-111.9033,1108.2,762.2,271.0,6.4,-0.9,13.73,32.06,660.2725,139.9967],
    [18555,1525556720,57.3001,-111.9044,1108.4,762.4,271.9,6.3,-1.6,14.53,30.89,660.228,140.0153],
    [18556,1525556721,57.3001,-111.9055,1108.1,763.1,271.4,7.1,-0.7,13.8,31.39,660.028,139.9859],
    [18557,1525556722,57.3001,-111.9066,1107.5,762.5,271.0,7.3,0.1,13.74,32.2,659.8093,139.9932],
    [18558,1525556723,57.3001,-111.9077,1107.5,762.5,270.3,8.9,0.9,13.95,30.95,659.4096,140.002],
    [18559,1525556724,57.3002,-111.9088,1108.1,763.1,270.8,9.1,0.9,14.21,31.08,659.2467,139.9959],
    [18560,1525556725,57.3002,-111.9099,1108.6,762.6,270.3,9.4,2.0,14.2,31.19,658.9973,139.9975],
    [18561,1525556726,57.3002,-111.911,1110.3,764.3,272.7,11.2,-0.1,14.3,31.23,659.0114,140.0004],
    [18562,1525556727,57.3002,-111.912,1112.6,766.6,273.6,11.2,-0.2,14.03,31.3,658.8261,139.9985],
    [18563,1525556728,57.3003,-111.9131,1116.2,770.2,273.0,11.1,1.4,13.48,31.4,658.8138,139.9963],
    [18564,1525556729,57.3003,-111.9141,1119.7,773.4,272.5,11.6,2.1,13.41,31.37,658.8273,140.0053],
    [18565,1525556730,57.3004,-111.9152,1122.6,775.6,272.4,11.5,1.9,13.77,31.51,658.7923,139.9948],
    [18566,1525556731,57.3004,-111.9162,1124.5,777.5,271.7,11.2,2.4,14.54,30.8,658.9384,140.0045],
    [18567,1525556732,57.3005,-111.9172,1125.9,777.9,269.8,11.6,3.5,14.03,31.25,659.2089,139.9967],
    [18568,1525556733,57.3005,-111.9183,1127.0,778.0,270.3,10.6,1.7,13.64,31.21,659.4481,140.0018],
    [18569,1525556734,57.3005,-111.9193,1127.3,778.3,269.6,10.4,1.5,13.85,31.96,659.5952,140.0071],
    [18570,1525556735,57.3005,-111.9203,1126.8,776.8,269.0,10.4,1.5,13.54,31.04,659.8082,140.0073],
    [18571,1525556736,57.3005,-111.9213,1125.3,775.3,268.5,10.3,1.9,13.91,30.9,660.101,140.0159],
    [18572,1525556737,57.3005,-111.9223,1122.7,771.7,268.2,10.6,1.9,13.59,30.91,660.0156,140.0029],
    [18573,1525556738,57.3005,-111.9233,1119.9,768.9,268.8,10.5,1.3,13.87,30.82,659.9968,139.9897],
    [18574,1525556739,57.3005,-111.9245,1116.6,764.6,268.5,9.7,1.7,14.55,30.35,660.0065,139.991],
    [18575,1525556740,57.3005,-111.9255,1114.1,762.1,268.5,10.0,1.5,13.88,30.76,659.8702,140.0018],
    [18576,1525556741,57.3005,-111.9266,1111.8,758.8,268.5,9.3,1.5,13.38,30.79,659.7112,139.9974],
    [18577,1525556742,57.3005,-111.9276,1110.8,756.8,267.9,10.5,2.4,13.6,30.98,659.6061,140.0058],
    [18578,1525556743,57.3005,-111.9286,1111.3,756.3,269.1,10.2,1.0,13.88,30.85,659.6292,140.0029],
    [18579,1525556744,57.3005,-111.9297,1111.6,756.6,269.4,10.8,0.7,14.25,30.61,659.4689,139.9974],
    [18580,1525556745,57.3005,-111.9307,1112.5,756.5,269.2,11.1,0.5,14.09,30.67,659.4469,139.9993],
    [18581,1525556746,57.3005,-111.9318,1114.0,757.0,270.5,10.7,-1.1,13.83,30.85,659.303,139.9967],
    [18582,1525556747,57.3005,-111.9329,1115.9,758.9,270.6,9.5,-0.9,14.04,30.45,659.1176,140.0048],
    [18583,1525556748,57.3005,-111.9339,1116.5,758.5,271.1,8.9,-1.7,14.23,30.57,658.7373,140.0121],
    [18584,1525556749,57.3005,-111.935,1117.1,759.2,271.2,7.4,-2.1,13.92,31.27,658.4165,140.0059],
    [18585,1525556750,57.3005,-111.936,1117.6,758.7,269.2,9.5,-0.5,14.31,30.29,658.0452,139.9955],
    [18586,1525556751,57.3004,-111.9372,1119.4,758.4,268.9,10.2,-1.2,13.69,30.9,657.5554,140.0049],
    [18587,1525556752,57.3004,-111.9383,1122.3,760.3,268.8,9.2,-1.4,13.84,31.13,656.9771,140.0079],
    [18588,1525556753,57.3004,-111.9394,1126.3,763.3,268.8,9.4,-0.5,13.77,31.13,655.7983,139.9993],
    [18589,1525556754,57.3004,-111.9404,1130.1,767.1,270.3,7.7,-0.2,13.79,31.58,655.7165,139.9992],
    [18590,1525556755,57.3004,-111.9415,1135.9,772.9,272.7,8.0,0.1,13.71,31.13,654.9097,139.9993],
    [18591,1525556756,57.3004,-111.9425,1142.5,779.5,275.2,8.4,0.3,13.82,31.02,654.4977,139.9863],
    [18592,1525556757,57.3005,-111.9435,1150.7,786.7,276.9,9.0,1.7,14.47,30.84,654.1466,139.9961],
    [18593,1525556758,57.3006,-111.9444,1159.8,795.8,279.3,8.3,2.0,13.89,31.87,653.4258,139.9939],
    [18594,1525556759,57.3007,-111.9454,1168.6,802.6,282.2,7.9,1.4,13.81,31.72,652.9139,139.981],
    [18595,1525556760,57.3009,-111.9464,1175.9,808.8,285.6,6.3,1.1,13.92,31.96,652.1387,140.0008],
    [18596,1525556761,57.3011,-111.9473,1182.8,815.2,288.4,9.3,0.0,13.9,31.54,651.8617,139.9929],
    [18597,1525556762,57.3013,-111.9482,1189.4,821.4,290.6,10.1,0.6,13.7,31.4,651.65,139.9894],
    [18598,1525556763,57.3015,-111.949,1196.6,828.5,293.0,10.3,0.8,14.28,31.14,650.9568,139.997],
    [18599,1525556764,57.3018,-111.9499,1203.7,834.7,296.4,11.0,-0.2,14.35,31.25,650.5736,139.9983],
    [18600,1525556765,57.302,-111.9506,1209.9,839.9,298.8,11.9,-0.2,13.56,31.59,650.2443,139.9816],
    [18601,1525556766,57.3023,-111.9513,1215.6,845.3,301.6,11.7,-0.6,13.74,31.47,649.9344,140.0013],
    [18602,1525556767,57.3027,-111.9521,1221.8,850.8,304.9,12.1,-0.8,13.74,31.62,649.4159,139.9881],
    [18603,1525556768,57.303,-111.9527,1227.1,855.1,306.7,12.3,0.1,13.3,31.6,649.1403,139.9964],
    [18604,1525556769,57.3033,-111.9533,1232.2,860.2,309.5,13.0,-1.2,13.01,31.7,648.7987,140.0029],
    [18605,1525556770,57.3037,-111.9539,1236.3,863.3,314.4,10.6,-2.2,13.6,31.73,648.7443,139.9955],
    [18606,1525556771,57.3041,-111.9544,1241.5,867.5,317.7,10.8,-2.6,13.14,31.78,648.6091,139.9901],
    [18607,1525556772,57.3044,-111.9548,1245.9,871.9,319.4,10.9,-2.2,13.17,31.87,648.5495,139.998],
    [18608,1525556773,57.3049,-111.9554,1251.4,876.4,323.4,9.0,-1.1,13.38,32.0,648.3698,139.9986],
    [18609,1525556774,57.3053,-111.9558,1254.8,879.5,324.5,10.9,-0.7,14.05,31.58,648.2571,139.9942],
    [18610,1525556775,57.3057,-111.9562,1257.4,881.4,327.8,9.9,-1.3,13.73,32.24,647.9158,139.9998],
    [18611,1525556776,57.3062,-111.9565,1258.7,882.7,332.4,8.3,-1.7,13.03,32.24,647.6775,139.9863],
    [18612,1525556777,57.3066,-111.9568,1259.9,883.7,333.7,10.0,-1.8,13.43,32.81,647.5258,139.9879],
    [18613,1525556778,57.3071,-111.9571,1262.0,885.0,334.4,11.8,-0.9,12.72,32.46,647.4014,139.993],
    [18614,1525556779,57.3076,-111.9573,1264.4,887.4,337.6,10.8,-0.8,13.23,32.49,647.3387,139.9929],
    [18615,1525556780,57.3081,-111.9575,1267.2,890.2,339.1,11.3,-0.7,13.57,32.38,647.1157,140.0039],
    [18616,1525556781,57.3086,-111.9576,1270.2,892.5,341.4,11.2,-1.4,12.68,32.66,646.8567,139.9957],
    [18617,1525556782,57.3091,-111.9578,1273.0,895.3,343.2,10.7,-1.1,13.24,32.42,646.8188,139.9985],
    [18618,1525556783,57.3096,-111.9579,1274.5,896.5,345.3,9.5,-1.8,12.96,32.77,646.7303,139.9873],
    [18619,1525556784,57.3102,-111.958,1276.0,897.3,346.4,9.3,-1.6,13.09,33.16,646.5865,140.0009],
    [18620,1525556785,57.3107,-111.958,1277.6,898.6,344.5,10.9,-0.7,12.99,32.95,646.3806,139.9942],
    [18621,1525556786,57.3112,-111.9581,1279.7,899.7,344.3,10.8,0.0,12.62,33.06,646.3715,139.9905],
    [18622,1525556787,57.3117,-111.9582,1281.4,901.4,344.8,10.2,0.3,12.98,33.15,646.2839,140.004],
    [18623,1525556788,57.3123,-111.9583,1282.7,902.4,345.6,9.5,-0.1,13.03,33.47,646.1719,140.0006],
    [18624,1525556789,57.3128,-111.9584,1284.3,903.3,346.0,9.5,-0.5,13.1,32.79,646.2103,140.0102],
    [18625,1525556790,57.3134,-111.9585,1286.2,904.2,346.1,9.3,0.0,13.3,32.55,646.0196,140.0063],
    [18626,1525556791,57.3139,-111.9586,1287.4,905.4,348.5,7.1,0.1,12.55,33.52,645.7569,139.9902],
    [18627,1525556792,57.3144,-111.9587,1288.1,905.1,348.5,7.6,0.1,12.8,34.11,645.622,140.0018],
    [18628,1525556793,57.315,-111.9588,1289.1,906.1,346.8,9.2,-0.7,12.21,33.49,645.3476,139.9919],
    [18629,1525556794,57.3155,-111.9588,1289.7,906.7,348.2,7.5,0.1,13.21,33.21,645.2397,140.006],
    [18630,1525556795,57.3161,-111.9589,1291.6,907.5,347.8,7.6,0.2,12.48,33.49,645.1682,139.9829],
    [18631,1525556796,57.3166,-111.959,1294.3,910.2,346.9,8.4,-0.1,12.63,34.2,645.1692,139.9969],
    [18632,1525556797,57.3172,-111.9591,1297.1,913.1,346.0,8.2,1.5,13.06,33.16,644.8145,139.9999],
    [18633,1525556798,57.3177,-111.9592,1299.3,915.4,346.5,7.5,1.4,12.67,34.32,644.9431,140.0018],
    [18634,1525556799,57.3181,-111.9593,1300.4,916.5,346.1,8.3,0.9,12.79,34.6,644.8491,140.0049],
    [18635,1525556800,57.3187,-111.9594,1301.6,916.6,346.3,8.7,0.5,12.37,34.33,644.5098,139.9802],
    [18636,1525556801,57.3194,-111.9596,1302.8,917.8,349.1,6.9,0.5,12.63,34.04,644.313,139.9997],
    [18637,1525556802,57.3199,-111.9596,1304.3,918.2,348.8,7.9,0.1,12.81,34.05,644.0001,139.9868],
    [18638,1525556803,57.3205,-111.9597,1305.1,919.1,349.1,7.4,0.8,13.23,33.86,643.9604,139.9958],
    [18639,1525556804,57.3211,-111.9598,1306.3,919.3,349.2,7.5,0.2,12.92,33.98,643.7952,139.9978],
    [18640,1525556805,57.3216,-111.9599,1309.1,921.8,349.6,7.4,-0.1,12.52,34.38,644.0471,140.0296],
    [18641,1525556806,57.3223,-111.9599,1312.5,924.5,350.5,6.8,0.6,12.38,34.39,644.1204,140.0116],
    [18642,1525556807,57.3228,-111.96,1315.2,926.1,351.9,5.8,0.8,12.82,34.44,644.1051,140.0008],
    [18643,1525556808,57.3234,-111.96,1317.2,927.8,353.6,4.7,0.6,12.36,34.52,644.0312,139.9775],
    [18644,1525556809,57.324,-111.9601,1317.9,928.0,353.7,5.0,1.5,12.53,34.69,643.6536,139.9696],
    [18645,1525556810,57.3246,-111.9601,1316.8,926.1,352.6,6.7,1.4,12.49,34.62,643.6449,139.9785],
    [18646,1525556811,57.3252,-111.9601,1315.4,924.7,351.4,8.7,2.5,12.5,34.53,643.5791,140.0135],
    [18647,1525556812,57.3257,-111.9602,1315.0,924.3,351.0,9.8,2.8,12.28,34.72,643.5499,140.0079],
    [18648,1525556813,57.3264,-111.9602,1315.7,925.1,351.2,10.4,2.2,12.38,34.59,643.5073,139.9965],
    [18649,1525556814,57.3271,-111.9602,1318.3,927.4,351.6,10.4,-0.2,12.17,34.72,643.4927,139.9996],
    [18650,1525556815,57.3277,-111.9601,1320.2,928.4,353.2,9.0,-1.5,12.53,34.49,643.5068,139.9982],
    [18651,1525556816,57.3282,-111.9601,1320.9,927.7,353.0,9.8,-1.7,12.46,34.3,643.4835,139.9958],
    [18652,1525556817,57.3289,-111.9601,1321.6,925.3,351.3,11.8,-0.8,12.39,34.67,643.4955,139.9961],
    [18653,1525556818,57.3295,-111.9601,1322.1,924.4,352.2,11.3,-1.3,12.21,34.82,643.6263,139.9896],
    [18654,1525556819,57.3301,-111.96,1322.3,923.8,353.4,10.9,-1.2,12.33,35.36,643.7371,140.0032],
    [18655,1525556820,57.3307,-111.96,1322.3,923.3,352.9,12.5,-1.4,12.02,34.55,643.7281,139.9965],
    [18656,1525556821,57.3314,-111.9599,1322.0,922.0,353.9,12.0,-0.4,12.57,34.66,643.8844,140.0029],
    [18657,1525556822,57.332,-111.9598,1321.7,920.7,355.1,10.7,-1.1,12.39,35.3,643.9276,140.0086],
    [18658,1525556823,57.3326,-111.9598,1320.6,918.8,357.2,7.9,-1.9,12.37,35.03,644.083,139.9996],
    [18659,1525556824,57.3333,-111.9597,1319.2,916.1,357.8,7.3,-0.6,12.39,34.78,644.1106,140.0036],
    [18660,1525556825,57.3339,-111.9596,1318.3,915.3,356.0,9.3,-1.4,12.58,34.44,644.123,139.9952],
    [18661,1525556826,57.3345,-111.9596,1317.3,913.3,356.5,8.6,-1.9,12.04,34.46,644.0828,139.9888],
    [18662,1525556827,57.3352,-111.9595,1315.6,911.7,355.4,9.4,-1.6,12.11,34.79,644.0942,140.0203],
    [18663,1525556828,57.3358,-111.9594,1314.0,909.3,355.7,8.2,-1.2,12.46,34.09,643.9743,140.0258],
    [18664,1525556829,57.3365,-111.9594,1313.0,907.8,355.6,7.4,-0.9,12.17,34.48,644.0769,140.0002],
    [18665,1525556830,57.3371,-111.9594,1312.7,906.7,354.4,7.6,-2.4,12.32,34.69,644.038,140.0037],
    [18666,1525556831,57.3378,-111.9594,1313.2,906.2,353.5,7.5,-2.7,11.94,34.48,643.9609,139.9897],
    [18667,1525556832,57.3384,-111.9594,1313.9,905.2,352.8,7.6,-1.1,12.26,34.93,643.9687,139.9912],
    [18668,1525556833,57.339,-111.9594,1314.7,904.4,351.3,8.1,1.7,12.21,34.6,644.0506,140.0067],
    [18669,1525556834,57.3397,-111.9595,1314.5,902.5,351.8,7.3,0.8,12.44,34.46,644.0173,140.0065],
    [18670,1525556835,57.3404,-111.9596,1314.6,900.6,351.0,8.4,1.0,12.25,34.64,643.9794,139.9967],
    [18671,1525556836,57.341,-111.9596,1314.8,899.9,350.7,8.8,1.0,12.05,34.72,643.9678,140.0109],
    [18672,1525556837,57.3417,-111.9597,1314.9,898.9,351.6,8.0,-0.4,12.25,34.85,644.0116,139.9872],
    [18673,1525556838,57.3423,-111.9597,1314.5,898.5,351.6,8.0,0.5,12.08,35.32,644.0522,140.0055],
    [18674,1525556839,57.343,-111.9597,1314.5,898.8,350.6,9.0,0.9,12.28,34.75,643.8759,139.9962],
    [18675,1525556840,57.3436,-111.9598,1314.9,900.9,351.6,8.4,0.9,12.41,34.68,643.8321,139.9796],
    [18676,1525556841,57.3443,-111.9598,1314.9,902.7,351.4,9.4,0.9,12.78,34.17,643.8025,140.0116],
    [18677,1525556842,57.3449,-111.9598,1314.6,904.3,353.0,8.1,0.6,12.24,34.6,643.5618,139.985],
    [18678,1525556843,57.3456,-111.9598,1314.4,907.6,355.0,6.8,1.3,12.81,34.26,643.5021,139.9978],
    [18679,1525556844,57.3463,-111.9598,1315.3,909.6,353.9,8.7,-1.1,11.99,34.67,643.4114,140.0014],
    [18680,1525556845,57.347,-111.9598,1316.2,911.9,355.2,7.4,-1.8,12.46,34.16,643.2404,139.9958],
    [18681,1525556846,57.3476,-111.9598,1317.1,911.9,355.1,7.6,-0.7,12.72,34.5,643.2446,139.9982],
    [18682,1525556847,57.3483,-111.9598,1318.9,911.7,355.1,7.2,-1.5,12.21,34.8,643.1557,139.9995],
    [18683,1525556848,57.3489,-111.9598,1320.3,911.0,355.4,6.9,-1.2,12.43,34.44,643.1029,140.0069],
    [18684,1525556849,57.3496,-111.9598,1321.4,911.4,354.9,7.5,-2.4,12.5,34.08,643.1749,139.9961],
    [18685,1525556850,57.3502,-111.9597,1323.2,913.9,355.6,7.1,-2.5,12.1,34.76,643.1588,139.9974],
    [18686,1525556851,57.3509,-111.9597,1324.5,917.2,355.8,7.1,-1.7,11.79,34.86,643.1358,139.9982],
    [18687,1525556852,57.3516,-111.9597,1325.0,918.3,355.8,7.2,-2.0,12.56,34.03,643.1576,140.0024],
    [18688,1525556853,57.3522,-111.9597,1325.3,918.3,355.1,8.3,-2.5,12.21,34.71,643.1838,140.0041],
    [18689,1525556854,57.3527,-111.9596,1325.4,917.7,355.0,8.1,-2.2,12.65,34.1,643.1748,140.004],
    [18690,1525556855,57.3534,-111.9596,1325.2,917.2,356.6,6.1,-1.4,12.86,34.45,643.3285,140.0011],
    [18691,1525556856,57.3541,-111.9596,1325.0,917.3,355.7,7.5,-3.0,11.66,34.74,643.4105,140.011],
    [18692,1525556857,57.3548,-111.9595,1324.9,919.0,354.0,9.6,-2.7,12.4,34.53,643.5526,140.0019],
    [18693,1525556858,57.3554,-111.9595,1325.0,919.0,352.7,11.0,-1.4,11.6,34.69,643.6242,140.0034],
    [18694,1525556859,57.3561,-111.9595,1324.8,918.8,352.7,10.7,-1.2,12.25,34.63,643.5778,139.9971],
    [18695,1525556860,57.3567,-111.9595,1323.9,917.0,353.3,10.0,-0.7,12.8,34.27,643.548,140.0006],
    [18696,1525556861,57.3574,-111.9594,1322.2,913.9,353.1,10.3,-0.3,12.01,35.01,643.4338,139.9929],
    [18697,1525556862,57.358,-111.9594,1320.6,910.6,353.2,10.4,-0.5,11.95,34.71,643.3157,139.9966],
    [18698,1525556863,57.3587,-111.9594,1319.7,908.7,353.3,10.3,-0.1,12.11,34.78,643.1393,139.9994],
    [18699,1525556864,57.3594,-111.9594,1319.8,907.9,353.6,9.5,-0.1,12.02,34.91,643.0427,139.9963],
    [18700,1525556865,57.36,-111.9593,1320.5,908.5,353.0,10.0,-0.1,12.09,34.65,642.9695,140.0051],
    [18701,1525556866,57.3607,-111.9593,1321.5,909.5,352.1,10.6,-0.6,11.88,34.96,643.1835,139.9999],
    [18702,1525556867,57.3613,-111.9593,1322.9,910.9,352.1,10.1,-0.2,11.8,34.49,643.2732,140.0033],
    [18703,1525556868,57.3619,-111.9593,1324.9,912.4,351.1,10.6,0.1,12.16,34.79,643.3347,139.996],
    [18704,1525556869,57.3626,-111.9593,1326.3,913.3,350.6,11.1,0.2,12.07,34.87,643.4119,139.9991],
    [18705,1525556870,57.3632,-111.9594,1327.0,914.0,350.6,11.3,-0.9,12.78,33.91,643.6536,140.0146],
    [18706,1525556871,57.3639,-111.9594,1325.6,912.6,352.5,9.1,-0.4,11.74,34.71,643.7911,140.008],
    [18707,1525556872,57.3645,-111.9594,1324.6,911.6,352.9,8.8,-0.8,12.17,34.71,643.7966,140.0076],
    [18708,1525556873,57.3651,-111.9594,1323.3,909.9,353.0,8.4,-0.4,12.2,34.26,643.746,139.9951],
    [18709,1525556874,57.3658,-111.9594,1321.8,907.8,353.4,8.0,-0.7,12.22,34.55,643.663,139.9996],
    [18710,1525556875,57.3664,-111.9594,1319.9,904.8,353.1,8.1,-0.6,11.51,34.58,643.5372,139.9982],
    [18711,1525556876,57.3671,-111.9594,1318.1,902.4,353.2,8.2,-0.7,12.44,34.19,643.5934,140.0034],
    [18712,1525556877,57.3677,-111.9594,1317.3,901.3,353.1,8.7,-0.6,12.38,34.22,643.538,140.0037],
    [18713,1525556878,57.3683,-111.9594,1317.6,900.9,353.5,8.6,-0.8,12.29,34.79,643.4489,139.9985],
    [18714,1525556879,57.369,-111.9594,1318.8,902.8,354.4,8.1,-0.8,11.89,34.65,643.3157,139.9991],
    [18715,1525556880,57.3696,-111.9594,1320.1,905.1,354.8,7.9,-0.6,12.55,34.5,643.0979,139.9979],
    [18716,1525556881,57.3702,-111.9593,1320.5,906.7,355.6,7.3,-0.3,12.14,34.57,642.8797,139.9857],
    [18717,1525556882,57.3708,-111.9593,1321.0,907.3,355.6,7.3,-0.3,12.85,34.27,642.6617,140.0043],
    [18718,1525556883,57.3715,-111.9593,1321.8,906.7,355.7,7.2,-1.0,12.2,34.98,642.4786,139.9911],
    [18719,1525556884,57.3721,-111.9592,1323.0,907.0,356.7,6.4,-0.7,11.64,34.64,642.3912,140.0019],
    [18720,1525556885,57.3727,-111.9592,1325.3,907.6,356.4,7.1,-2.0,12.17,34.96,642.3005,140.0063],
    [18721,1525556886,57.3733,-111.9591,1328.2,910.2,357.7,5.5,-2.3,11.59,34.85,642.2317,139.999],
    [18722,1525556887,57.3739,-111.9591,1330.9,912.9,357.9,5.8,-1.9,12.26,34.25,642.0755,139.9991],
    [18723,1525556888,57.3745,-111.959,1333.1,915.1,357.2,6.7,-2.8,12.12,35.47,641.888,139.9951],
    [18724,1525556889,57.3752,-111.959,1335.1,917.1,358.6,5.5,-2.0,12.09,35.03,641.5733,140.0009],
    [18725,1525556890,57.3758,-111.9589,1336.7,918.7,359.1,5.4,-1.5,11.92,34.89,641.5582,140.0033],
    [18726,1525556891,57.3764,-111.9588,1337.9,918.9,358.8,5.8,-1.9,12.02,34.97,641.3462,139.9944],
    [18727,1525556892,57.377,-111.9588,1340.0,921.0,358.1,6.8,-1.0,11.9,34.75,641.0715,140.0],
    [18728,1525556893,57.3776,-111.9587,1341.9,922.9,357.8,6.9,-0.9,11.94,35.47,640.8843,139.9938],
    [18729,1525556894,57.3782,-111.9586,1343.9,924.9,357.7,7.0,-0.5,11.95,35.26,640.7493,139.9894],
    [18730,1525556895,57.3788,-111.9586,1346.3,927.6,356.9,7.6,-0.9,12.17,34.65,640.5964,140.0006],
    [18731,1525556896,57.3794,-111.9585,1348.4,930.5,358.0,6.1,-3.3,11.62,34.82,640.6385,140.0045],
    [18732,1525556897,57.3801,-111.9584,1351.2,933.3,357.5,6.5,-2.1,11.69,34.72,640.7597,140.0021],
    [18733,1525556898,57.3806,-111.9584,1354.2,935.3,356.7,6.7,-2.1,11.98,34.6,640.6926,139.9825],
    [18734,1525556899,57.3812,-111.9584,1356.3,937.3,356.4,6.1,-1.8,12.01,35.33,640.8818,140.0126],
    [18735,1525556900,57.3818,-111.9583,1358.0,938.0,353.8,7.6,-0.9,12.52,34.47,640.8543,139.9966],
    [18736,1525556901,57.3824,-111.9583,1358.0,938.3,352.0,8.3,-0.7,11.97,35.19,640.8794,140.0013],
    [18737,1525556902,57.3831,-111.9584,1356.7,939.6,350.6,8.9,-0.8,12.02,34.82,640.9204,139.9951],
    [18738,1525556903,57.3837,-111.9584,1356.0,948.0,349.3,9.5,-1.5,12.53,34.5,641.0029,140.0126],
    [18739,1525556904,57.3843,-111.9585,1355.3,952.7,349.1,9.9,-1.5,12.19,35.03,641.0283,140.0108],
    [18740,1525556905,57.3849,-111.9585,1354.5,954.9,346.8,13.2,-2.4,11.92,34.68,641.172,139.9982],
    [18741,1525556906,57.3855,-111.9586,1354.3,955.3,346.1,14.0,-1.5,11.74,34.63,641.417,140.0061],
    [18742,1525556907,57.3861,-111.9586,1354.3,954.4,348.0,12.3,-1.2,11.68,34.64,641.7162,140.0039],
    [18743,1525556908,57.3866,-111.9587,1354.0,952.7,347.9,12.9,-0.3,11.89,34.74,641.8718,140.0078],
    [18744,1525556909,57.3872,-111.9587,1353.5,948.5,347.0,13.7,0.2,12.43,34.35,642.0394,140.0093],
    [18745,1525556910,57.3879,-111.9587,1351.9,938.9,348.3,12.1,-0.1,11.38,34.45,642.1787,139.9966],
    [18746,1525556911,57.3885,-111.9588,1349.1,931.5,348.0,12.5,-0.3,12.02,33.83,642.4777,140.0003],
    [18747,1525556912,57.389,-111.9588,1346.5,924.1,347.6,12.7,-0.4,12.04,33.86,642.6437,140.0031],
    [18748,1525556913,57.3897,-111.9588,1343.5,917.5,348.6,11.6,-0.2,11.52,34.22,643.0228,140.0078],
    [18749,1525556914,57.3903,-111.9589,1341.2,912.2,348.2,12.0,0.1,11.82,34.04,643.1891,140.006],
    [18750,1525556915,57.3909,-111.9589,1339.2,910.3,349.2,11.2,0.0,11.53,33.96,643.2387,140.0053],
    [18751,1525556916,57.3915,-111.9589,1336.9,907.9,350.0,10.8,-0.3,12.17,33.81,643.709,140.0172],
    [18752,1525556917,57.3922,-111.959,1333.0,902.9,350.2,10.9,-0.4,12.14,33.61,643.8671,140.0],
    [18753,1525556918,57.3928,-111.959,1329.3,899.3,350.0,11.3,0.0,12.12,33.23,643.9215,139.9984],
    [18754,1525556919,57.3934,-111.959,1325.8,895.8,350.1,11.1,0.0,12.0,33.53,643.9292,139.9988],
    [18755,1525556920,57.3941,-111.959,1322.6,892.6,350.5,10.7,-0.1,12.23,33.27,644.0751,139.9968],
    [18756,1525556921,57.3947,-111.959,1319.6,889.6,350.1,11.2,0.7,11.82,34.49,644.37,140.0027],
    [18757,1525556922,57.3953,-111.959,1317.6,887.6,349.8,11.7,0.8,11.34,33.75,644.6094,140.0069],
    [18758,1525556923,57.3959,-111.959,1316.1,886.1,350.3,11.6,0.7,11.8,33.72,644.7365,140.0018],
    [18759,1525556924,57.3965,-111.959,1315.3,885.3,350.7,11.7,0.6,11.98,33.9,644.9608,140.0032],
    [18760,1525556925,57.3972,-111.959,1313.6,883.6,351.8,11.6,0.0,11.52,34.01,645.1747,139.9939],
    [18761,1525556926,57.3978,-111.959,1311.3,882.0,352.3,11.8,-0.1,12.51,33.57,645.2681,139.9973],
    [18762,1525556927,57.3985,-111.9589,1308.0,879.0,353.0,12.3,0.2,11.95,34.31,645.4407,140.0073],
    [18763,1525556928,57.3991,-111.9589,1305.0,876.0,354.7,12.0,0.6,11.82,34.46,645.6462,140.0076],
    [18764,1525556929,57.3997,-111.9588,1302.2,873.2,356.4,12.4,0.6,11.84,33.74,645.7262,139.9951],
    [18765,1525556930,57.4004,-111.9586,1299.9,870.9,358.8,12.1,-0.6,11.76,34.04,645.8223,140.011],
    [18766,1525556931,57.4011,-111.9584,1297.5,868.5,362.2,11.2,0.3,12.46,33.66,645.8608,139.9953],
    [18767,1525556932,57.4017,-111.9582,1295.3,866.3,5.0,11.6,0.8,11.64,33.86,645.8031,140.0092],
    [18768,1525556933,57.4024,-111.9578,1293.2,864.5,8.4,12.1,0.2,11.65,33.84,645.6432,139.9941],
    [18769,1525556934,57.403,-111.9574,1291.9,863.9,13.0,11.2,0.7,11.65,33.94,645.5993,140.0049],
    [18770,1525556935,57.4036,-111.9569,1290.8,862.8,16.4,11.5,0.9,11.86,34.18,645.5367,139.9995],
    [18771,1525556936,57.4043,-111.9563,1290.2,862.2,20.4,10.7,0.5,11.78,34.66,645.5044,140.0052],
    [18772,1525556937,57.4049,-111.9557,1290.5,862.5,23.3,11.4,1.0,11.77,33.66,645.2946,139.9949],
    [18773,1525556938,57.4055,-111.955,1292.3,864.9,26.3,11.5,1.2,11.85,34.58,645.2399,140.0029],
    [18774,1525556939,57.406,-111.9543,1293.5,866.5,28.9,11.1,0.5,11.88,34.11,645.234,139.9975],
    [18775,1525556940,57.4066,-111.9535,1294.1,867.1,31.8,10.8,0.3,11.67,33.99,645.2949,139.984],
    [18776,1525556941,57.4071,-111.9527,1294.8,867.7,34.9,10.6,0.1,12.0,33.75,645.4526,140.0211],
    [18777,1525556942,57.4076,-111.9518,1296.8,870.8,37.8,11.0,0.1,11.86,33.68,645.6258,140.004],
    [18778,1525556943,57.4082,-111.9508,1298.2,872.2,41.1,11.1,1.8,11.47,33.89,645.6514,139.9986],
    [18779,1525556944,57.4086,-111.9499,1297.9,872.9,42.8,11.7,1.3,11.23,33.97,645.6223,140.0],
    [18780,1525556945,57.4091,-111.9489,1297.0,872.0,45.3,9.6,0.4,12.4,33.5,645.6074,140.0097],
    [18781,1525556946,57.4095,-111.9478,1295.2,871.2,47.8,10.0,1.2,11.87,34.44,645.512,139.9892],
    [18782,1525556947,57.41,-111.9468,1293.5,869.8,50.1,10.0,1.2,11.99,34.42,645.4949,140.0002],
    [18783,1525556948,57.4104,-111.9457,1292.4,869.4,52.2,9.5,-0.1,11.95,34.74,645.5337,139.9908],
    [18784,1525556949,57.4107,-111.9446,1291.6,869.6,54.7,8.8,-1.9,11.55,34.25,645.8067,139.9868],
    [18785,1525556950,57.4111,-111.9434,1292.4,870.4,58.2,10.3,-1.6,11.88,34.51,645.9655,140.0121],
    [18786,1525556951,57.4114,-111.9423,1294.0,872.0,61.4,10.3,-1.6,11.58,34.58,645.9964,140.0094],
    [18787,1525556952,57.4117,-111.941,1294.3,871.4,64.3,10.1,-2.1,11.91,34.4,645.837,140.0069],
    [18788,1525556953,57.4119,-111.9399,1293.5,869.8,68.3,8.9,-0.9,11.47,34.5,645.6829,140.004],
    [18789,1525556954,57.4121,-111.9385,1290.7,868.0,74.3,7.5,1.3,12.39,34.28,645.4978,139.9927],
    [18790,1525556955,57.4123,-111.9372,1288.1,866.8,76.1,7.6,-1.1,11.65,35.0,645.4291,140.0044],
    [18791,1525556956,57.4124,-111.9359,1287.3,867.3,79.8,7.5,-0.5,12.15,34.4,645.3704,140.0033],
    [18792,1525556957,57.4125,-111.9347,1288.7,869.7,82.9,9.1,-0.2,12.72,34.36,645.0328,140.0047],
    [18793,1525556958,57.4126,-111.9332,1292.0,873.8,85.7,9.1,0.1,11.97,34.78,644.7851,139.9917],
    [18794,1525556959,57.4126,-111.9318,1294.0,877.2,88.9,9.2,1.1,12.27,34.19,644.4425,139.9915],
    [18795,1525556960,57.4126,-111.9304,1295.3,880.0,90.9,8.7,1.4,11.94,34.86,643.9075,139.9943],
    [18796,1525556961,57.4126,-111.9291,1295.9,881.9,93.8,9.2,1.7,11.73,34.74,643.7016,139.9935],
    [18797,1525556962,57.4126,-111.9277,1298.1,884.1,95.0,8.2,-0.3,12.2,34.6,643.6522,139.9927],
    [18798,1525556963,57.4125,-111.9264,1302.6,888.6,97.1,8.0,-0.8,11.4,34.81,643.7726,140.0025],
    [18799,1525556964,57.4124,-111.9251,1308.6,894.7,99.6,7.8,-0.1,12.68,34.42,643.7714,140.0062],
    [18800,1525556965,57.4123,-111.9238,1313.9,902.8,100.5,7.7,-0.3,12.24,34.35,643.6552,140.003],
    [18801,1525556966,57.4121,-111.9225,1316.6,912.3,101.2,8.0,-0.3,12.24,34.7,643.5366,140.0036],
    [18802,1525556967,57.412,-111.9212,1318.0,915.0,102.2,8.2,0.4,11.48,34.93,643.3066,140.0027],
    [18803,1525556968,57.4119,-111.9199,1317.7,916.1,102.2,7.9,0.4,11.67,34.48,643.1581,139.9927],
    [18804,1525556969,57.4118,-111.9187,1317.5,915.5,101.5,8.3,-0.2,12.09,34.67,642.9912,139.9961],
    [18805,1525556970,57.4116,-111.9174,1318.5,915.8,100.6,8.8,-0.6,12.05,35.19,642.9561,139.9967],
    [18806,1525556971,57.4115,-111.916,1320.2,919.0,100.2,9.5,-0.5,12.07,35.41,642.882,140.002],
    [18807,1525556972,57.4114,-111.9147,1322.5,918.9,99.3,9.8,-0.7,12.6,34.59,642.9252,140.0047],
    [18808,1525556973,57.4113,-111.9134,1325.0,916.9,99.8,9.8,0.8,11.44,34.89,642.8255,140.0004],
    [18809,1525556974,57.4112,-111.9121,1326.9,919.9,99.6,9.7,1.3,12.0,34.8,642.8822,139.9864],
    [18810,1525556975,57.4111,-111.9108,1328.2,923.0,99.2,10.2,1.3,12.13,35.57,643.0429,140.0001],
    [18811,1525556976,57.411,-111.9094,1329.1,927.9,98.7,10.5,1.1,12.68,34.56,643.0506,139.996],
    [18812,1525556977,57.4109,-111.9082,1329.2,930.6,98.2,11.3,0.7,12.63,34.64,643.0342,140.0005],
    [18813,1525556978,57.4109,-111.9069,1329.4,933.4,97.5,11.4,0.5,11.87,35.05,642.8832,139.9879],
    [18814,1525556979,57.4108,-111.9055,1329.2,934.6,98.3,11.5,1.9,12.14,34.88,642.9395,139.9949],
    [18815,1525556980,57.4107,-111.9041,1327.8,935.8,97.6,11.1,1.9,11.35,35.09,643.0595,140.0029],
    [18816,1525556981,57.4106,-111.9028,1327.0,937.3,96.2,10.4,1.4,11.83,34.99,643.1624,140.0022],
    [18817,1525556982,57.4106,-111.9014,1327.1,939.4,94.6,9.8,0.8,11.57,35.43,643.289,140.0035],
    [18818,1525556983,57.4106,-111.9001,1328.3,943.6,93.9,9.7,0.9,12.32,34.81,643.5131,139.9991],
    [18819,1525556984,57.4105,-111.8988,1328.3,944.3,92.8,10.1,0.3,12.06,35.04,643.5955,140.0012],
    [18820,1525556985,57.4105,-111.8974,1327.1,945.1,91.7,10.1,-0.2,11.79,35.27,643.7229,140.0025],
    [18821,1525556986,57.4105,-111.896,1325.6,944.7,91.0,10.5,-0.4,12.45,34.97,643.846,139.9974],
    [18822,1525556987,57.4105,-111.8947,1323.6,943.6,90.6,10.7,0.0,11.91,35.48,643.9193,139.9989],
    [18823,1525556988,57.4105,-111.8933,1321.4,942.3,90.9,10.9,0.9,12.02,35.04,643.9569,140.007],
    [18824,1525556989,57.4105,-111.8919,1319.6,943.8,90.4,10.8,0.5,11.88,35.28,644.046,139.9908],
    [18825,1525556990,57.4105,-111.8906,1317.8,945.7,90.1,10.2,0.2,11.99,35.05,644.1128,139.9976],
    [18826,1525556991,57.4105,-111.8891,1315.8,948.5,92.0,10.2,1.9,11.96,35.23,644.2086,139.9931],
    [18827,1525556992,57.4105,-111.8877,1314.9,950.2,92.5,10.3,1.5,11.92,35.15,644.3264,140.0157],
    [18828,1525556993,57.4104,-111.8863,1314.3,952.3,91.7,10.0,-0.4,11.9,35.71,644.4603,139.9942],
    [18829,1525556994,57.4104,-111.8849,1313.3,953.3,92.7,9.8,0.2,12.24,34.95,644.5025,140.004],
    [18830,1525556995,57.4104,-111.8835,1312.3,953.3,93.3,9.4,0.6,11.63,35.33,644.4868,139.9989],
    [18831,1525556996,57.4103,-111.8821,1310.9,951.9,93.9,8.7,1.0,11.63,35.23,644.5318,139.9956],
    [18832,1525556997,57.4103,-111.8807,1309.3,951.3,93.3,8.8,-0.1,11.88,34.9,644.5141,139.9967],
    [18833,1525556998,57.4103,-111.8793,1308.2,951.1,94.2,9.1,1.1,11.89,34.93,644.5357,139.9976],
    [18834,1525556999,57.4102,-111.8779,1307.1,951.2,94.4,8.8,1.0,11.57,34.97,644.5538,139.9993],
    [18835,1525557000,57.4102,-111.8766,1306.8,950.8,94.3,8.9,1.0,11.87,35.54,644.6211,139.9998],
    [18836,1525557001,57.4101,-111.8751,1306.6,951.6,94.8,9.6,1.5,11.78,35.0,644.7918,140.0027],
    [18837,1525557002,57.4101,-111.8736,1306.5,952.5,94.2,8.7,1.3,11.45,34.83,644.8975,140.0058],
    [18838,1525557003,57.4101,-111.8722,1306.3,953.3,94.7,8.6,2.3,11.66,35.55,645.0543,140.0015],
    [18839,1525557004,57.41,-111.8708,1306.1,954.1,94.4,8.5,2.4,11.9,35.07,645.1792,140.0101],
    [18840,1525557005,57.41,-111.8694,1305.5,954.5,94.1,8.7,2.6,12.45,34.15,645.4475,140.0042],
    [18841,1525557006,57.41,-111.868,1304.2,954.2,94.0,9.3,2.9,11.75,34.7,645.722,140.0014],
    [18842,1525557007,57.41,-111.8666,1302.7,955.4,93.1,9.7,2.2,11.9,35.03,645.9099,140.0062],
    [18843,1525557008,57.4099,-111.8652,1301.2,956.1,92.2,9.7,1.6,12.0,34.26,646.1029,140.0042],
    [18844,1525557009,57.4099,-111.8638,1299.0,956.7,91.6,9.8,1.3,11.42,34.41,646.3707,140.0014],
    [18845,1525557010,57.4099,-111.8624,1296.2,954.2,91.1,9.7,0.9,12.21,33.76,646.5156,140.0],
    [18846,1525557011,57.4099,-111.8611,1293.5,952.2,90.0,9.0,0.0,11.82,34.54,646.6347,140.0106],
    [18847,1525557012,57.4099,-111.8596,1289.9,948.9,89.2,9.1,-0.2,11.85,34.45,646.7021,139.9878],
    [18848,1525557013,57.4099,-111.8582,1286.8,945.7,89.4,8.9,0.7,11.97,34.26,647.0012,140.0125],
    [18849,1525557014,57.41,-111.8567,1283.5,943.2,89.5,7.9,1.5,11.6,34.33,647.0756,140.009],
    [18850,1525557015,57.41,-111.8554,1281.4,941.5,89.3,8.2,1.4,12.51,34.17,647.1653,139.9993],
    [18851,1525557016,57.41,-111.854,1279.9,940.6,87.9,8.3,-0.1,11.92,34.29,647.223,140.0041],
    [18852,1525557017,57.41,-111.8525,1278.3,939.3,88.6,8.1,1.0,11.88,34.53,647.3477,140.0029],
    [18853,1525557018,57.41,-111.8511,1276.2,938.2,89.2,8.7,1.2,12.34,33.98,647.4544,139.9962],
    [18854,1525557019,57.4101,-111.8497,1274.4,937.1,88.1,8.7,-0.1,11.78,34.46,647.5263,139.9908],
    [18855,1525557020,57.4101,-111.8483,1273.3,936.2,89.4,9.0,1.4,11.26,34.59,647.8727,140.002],
    [18856,1525557021,57.4101,-111.8469,1272.6,936.6,88.8,9.3,0.4,11.88,34.66,648.0998,140.0009],
    [18857,1525557022,57.4101,-111.8455,1271.4,935.4,87.8,9.8,-1.0,11.88,34.66,648.2437,140.005],
    [18858,1525557023,57.4101,-111.8441,1269.4,934.4,88.7,9.4,0.0,11.93,34.72,648.2958,140.009],
    [18859,1525557024,57.4102,-111.8427,1266.7,931.7,89.2,9.3,0.1,11.79,34.66,648.3748,140.0],
    [18860,1525557025,57.4102,-111.8413,1263.6,928.6,88.2,7.8,-1.3,11.5,34.61,648.5565,140.0134],
    [18861,1525557026,57.4102,-111.8399,1260.3,926.3,89.9,6.8,0.7,11.92,34.53,648.6077,140.0027],
    [18862,1525557027,57.4102,-111.8385,1258.4,925.7,90.6,6.7,1.0,12.17,34.46,648.7254,140.0081],
    [18863,1525557028,57.4102,-111.8371,1258.1,927.1,89.6,7.4,-0.3,12.56,34.36,648.706,140.0151],
    [18864,1525557029,57.4102,-111.8357,1257.1,928.0,90.1,7.6,0.3,12.62,33.93,648.8023,140.0118],
    [18865,1525557030,57.4102,-111.8343,1255.4,927.4,90.0,7.3,-0.1,12.38,33.73,648.851,140.0072],
    [18866,1525557031,57.4102,-111.8329,1254.3,927.0,89.8,7.6,-0.5,12.01,34.49,648.9363,140.0017],
    [18867,1525557032,57.4102,-111.8315,1253.5,926.4,90.6,7.0,-0.5,12.08,34.52,649.1042,140.0043],
    [18868,1525557033,57.4102,-111.8301,1252.8,927.0,90.4,6.8,-1.3,11.89,34.43,649.2364,139.9978],
    [18869,1525557034,57.4101,-111.8288,1252.4,928.2,91.7,8.1,0.3,12.08,34.16,649.4711,139.9945],
    [18870,1525557035,57.4101,-111.8274,1252.1,927.8,90.9,8.9,-0.5,11.94,34.16,649.9601,140.0268],
    [18871,1525557036,57.4101,-111.8262,1251.1,926.0,89.9,8.2,-1.1,12.7,33.68,650.1739,140.0184],
    [18872,1525557037,57.4101,-111.8247,1249.0,924.0,89.8,8.9,-0.8,11.95,34.31,650.4665,140.0124],
    [18873,1525557038,57.4101,-111.8233,1246.7,921.7,89.1,7.9,-1.2,11.48,34.39,650.8693,140.0287],
    [18874,1525557039,57.4101,-111.8219,1243.6,919.5,88.6,6.6,-0.9,12.11,34.76,651.0552,140.0088],
    [18875,1525557040,57.4101,-111.8206,1240.4,918.0,88.2,8.5,-0.7,12.08,34.29,651.6801,140.0216],
    [18876,1525557041,57.4101,-111.8192,1236.1,917.0,85.9,9.9,-2.6,12.39,34.03,652.1007,140.0044],
    [18877,1525557042,57.4102,-111.818,1232.0,914.0,85.3,9.3,-2.7,12.61,33.75,652.3667,140.0034],
    [18878,1525557043,57.4102,-111.8165,1226.8,908.9,85.4,9.4,-2.4,12.43,33.52,652.5195,140.0069],
    [18879,1525557044,57.4102,-111.8152,1222.6,903.9,88.0,9.5,0.9,12.29,33.88,652.7718,139.9973],
    [18880,1525557045,57.4103,-111.8138,1217.6,898.6,89.6,11.3,1.6,11.94,34.01,652.754,139.9898],
    [18881,1525557046,57.4103,-111.8124,1212.3,893.3,89.1,10.0,0.2,12.58,33.75,653.0666,140.0018],
    [18882,1525557047,57.4103,-111.8111,1207.8,888.8,91.1,9.4,1.9,12.35,34.74,653.4252,140.0121],
    [18883,1525557048,57.4103,-111.8098,1204.4,886.4,91.4,9.9,1.2,12.06,34.11,653.6952,140.0244],
    [18884,1525557049,57.4103,-111.8083,1201.8,885.7,91.1,8.2,-0.4,12.38,34.6,654.0764,140.0122],
    [18885,1525557050,57.4102,-111.8069,1200.5,886.5,91.6,7.3,-0.6,12.64,33.93,654.1604,140.0134],
    [18886,1525557051,57.4102,-111.8055,1198.4,886.4,91.9,7.9,-1.0,12.24,34.14,654.2907,140.006],
    [18887,1525557052,57.4102,-111.8041,1194.9,882.9,91.7,8.4,-1.6,12.29,33.87,654.4482,140.0192],
    [18888,1525557053,57.4101,-111.8028,1190.8,878.8,91.6,9.2,-2.0,11.94,33.84,654.3169,140.0034],
    [18889,1525557054,57.4101,-111.8014,1187.6,874.6,91.9,9.1,-2.1,12.4,34.36,654.1311,139.9943],
    [18890,1525557055,57.4101,-111.8001,1185.1,872.1,92.5,10.2,-1.5,12.62,33.59,653.8181,139.9998],
    [18891,1525557056,57.41,-111.7987,1181.7,867.7,93.3,9.3,-0.6,12.42,33.89,653.554,139.9925],
    [18892,1525557057,57.41,-111.7974,1179.7,865.7,93.1,10.2,-0.6,12.95,33.73,653.4193,140.0045],
    [18893,1525557058,57.41,-111.796,1180.6,865.6,90.8,9.9,-1.6,12.16,33.76,653.2565,139.989],
    [18894,1525557059,57.4099,-111.7947,1183.6,868.6,89.5,8.7,-2.0,12.37,33.88,653.1199,140.0024],
    [18895,1525557060,57.4099,-111.7934,1187.3,872.2,89.2,9.4,-1.7,12.04,33.91,653.1022,139.9973],
    [18896,1525557061,57.4099,-111.7921,1190.9,874.9,90.3,10.0,-0.6,12.6,33.92,653.0044,140.0079],
    [18897,1525557062,57.4099,-111.7907,1193.6,879.3,90.1,9.6,-1.2,12.69,33.84,652.7644,140.0053],
    [18898,1525557063,57.4099,-111.7894,1195.4,882.3,90.9,9.5,-0.6,12.6,33.71,652.3738,140.0062],
    [18899,1525557064,57.4099,-111.7881,1197.1,884.6,91.2,8.7,-0.7,12.24,34.22,652.1834,140.0012],
    [18900,1525557065,57.4099,-111.7868,1197.5,885.4,92.2,7.8,-0.1,12.35,33.59,651.911,139.9991],
    [18901,1525557066,57.4098,-111.7856,1198.3,887.3,92.8,8.7,-0.2,12.06,33.69,651.7606,139.9998],
    [18902,1525557067,57.4098,-111.7843,1201.0,890.1,92.9,9.2,-0.6,12.76,33.75,651.656,140.0066],
    [18903,1525557068,57.4098,-111.783,1204.4,894.7,93.4,10.0,-0.5,12.0,33.69,651.4603,139.994],
    [18904,1525557069,57.4097,-111.7817,1209.3,900.3,93.1,9.8,-0.6,12.82,33.76,651.2884,139.9893],
    [18905,1525557070,57.4097,-111.7805,1213.2,905.2,94.7,9.8,1.1,12.53,33.7,651.239,139.9939],
    [18906,1525557071,57.4096,-111.7792,1216.1,909.1,95.6,10.7,1.8,13.09,33.14,651.2475,139.9961],
    [18907,1525557072,57.4096,-111.778,1218.1,912.1,96.1,11.0,1.8,12.54,33.87,651.2045,140.0047],
    [18908,1525557073,57.4095,-111.7767,1220.1,914.1,96.5,11.5,2.0,12.7,34.25,651.2343,139.9988],
    [18909,1525557074,57.4095,-111.7754,1221.5,917.5,95.8,10.2,1.7,12.89,33.37,651.2693,140.0009],
    [18910,1525557075,57.4095,-111.7744,1222.4,919.4,95.2,9.9,1.7,12.3,33.75,651.2648,140.0049],
    [18911,1525557076,57.4094,-111.773,1222.8,922.8,94.9,10.6,2.0,12.92,33.21,650.9055,139.9915],
    [18912,1525557077,57.4094,-111.7717,1223.0,926.3,92.6,10.6,0.3,13.16,33.28,650.4512,139.9978],
    [18913,1525557078,57.4094,-111.7704,1222.9,928.9,92.2,10.1,0.5,12.51,34.14,650.2911,139.9899],
    [18914,1525557079,57.4094,-111.7693,1222.9,929.9,92.8,10.3,1.5,12.76,33.68,650.3038,139.9901],
    [18915,1525557080,57.4093,-111.768,1224.1,931.1,91.6,9.8,0.6,13.16,33.42,650.1484,140.0071],
    [18916,1525557081,57.4093,-111.7668,1226.7,934.7,91.1,9.2,0.2,12.54,33.84,649.7282,139.9989],
    [18917,1525557082,57.4093,-111.7655,1230.7,937.6,91.0,8.9,-0.2,12.64,33.6,649.606,139.9873],
    [18918,1525557083,57.4093,-111.7642,1233.9,940.9,90.8,8.0,-0.1,12.36,33.87,649.69,140.0014],
    [18919,1525557084,57.4093,-111.763,1235.5,942.2,92.8,8.8,1.9,12.41,33.87,649.7914,140.004],
    [18920,1525557085,57.4093,-111.7618,1236.6,943.4,92.0,8.6,0.6,13.37,33.49,649.944,139.9951],
    [18921,1525557086,57.4093,-111.7605,1239.7,946.7,89.2,8.3,-2.9,12.44,33.71,650.3049,140.0101],
    [18922,1525557087,57.4093,-111.7593,1243.1,950.1,90.8,7.6,-0.7,12.68,33.87,650.3698,140.0011],
    [18923,1525557088,57.4092,-111.758,1244.0,951.0,93.3,9.8,2.0,12.76,33.62,650.4673,139.9988],
    [18924,1525557089,57.4092,-111.7567,1242.5,949.5,91.7,9.9,0.9,12.68,33.93,650.5566,139.9979],
    [18925,1525557090,57.4092,-111.7554,1239.6,944.5,90.9,8.6,0.7,13.14,33.67,650.6698,139.9996],
    [18926,1525557091,57.4092,-111.7542,1236.4,938.2,90.3,8.7,0.4,12.9,33.54,650.7608,140.0044],
    [18927,1525557092,57.4092,-111.753,1234.1,930.2,89.3,8.7,-0.2,12.58,34.17,650.868,140.0009],
    [18928,1525557093,57.4092,-111.7517,1232.8,925.1,89.3,8.3,0.3,12.62,34.13,651.0121,140.0018],
    [18929,1525557094,57.4092,-111.7504,1231.6,920.8,89.2,8.4,0.6,12.15,33.81,651.1574,140.0011],
    [18930,1525557095,57.4093,-111.7491,1230.3,918.7,89.7,8.3,1.4,12.71,33.87,651.2844,140.0002],
    [18931,1525557096,57.4093,-111.7479,1228.9,918.0,90.0,8.5,1.6,12.46,34.59,651.5527,140.0083],
    [18932,1525557097,57.4093,-111.7466,1227.4,917.4,90.1,8.6,1.5,11.76,34.0,651.6862,140.0109],
    [18933,1525557098,57.4093,-111.7453,1225.9,918.1,90.3,8.3,1.4,12.48,34.0,651.9846,140.0022],
    [18934,1525557099,57.4093,-111.7439,1224.3,917.8,90.3,8.6,1.2,12.07,34.06,652.1639,140.0039],
    [18935,1525557100,57.4093,-111.7427,1222.5,919.2,90.7,8.4,1.5,12.19,34.27,652.332,140.0084],
    [18936,1525557101,57.4093,-111.7414,1220.1,919.5,90.9,9.1,1.5,12.64,33.68,652.2131,139.997],
    [18937,1525557102,57.4093,-111.7402,1217.6,919.6,90.0,10.2,0.0,12.69,33.7,652.155,139.9974],
    [18938,1525557103,57.4093,-111.7388,1214.6,917.6,90.9,9.9,0.5,12.94,33.23,652.1189,140.0026],
    [18939,1525557104,57.4093,-111.7375,1211.6,915.7,92.5,10.5,1.4,12.69,33.64,652.0022,140.0016],
    [18940,1525557105,57.4093,-111.7362,1208.9,913.0,93.0,9.4,1.4,12.78,33.51,651.9475,139.9974],
    [18941,1525557106,57.4093,-111.7349,1208.3,911.4,93.5,10.0,2.2,12.61,33.59,651.8721,139.9966],
    [18942,1525557107,57.4093,-111.7336,1210.0,911.1,93.0,11.4,2.6,12.61,34.3,651.8352,140.0033],
    [18943,1525557108,57.4093,-111.7323,1211.4,907.9,92.3,12.2,2.5,12.64,33.72,651.7217,139.9866],
    [18944,1525557109,57.4093,-111.7311,1212.6,907.6,91.3,11.8,2.3,12.19,33.71,651.4912,139.9949],
    [18945,1525557110,57.4093,-111.7298,1213.6,907.6,91.1,12.2,2.6,13.21,33.49,651.338,139.9935],
    [18946,1525557111,57.4093,-111.7285,1214.4,907.7,89.8,11.6,1.8,13.05,33.48,651.3181,140.0021],
    [18947,1525557112,57.4093,-111.7272,1214.9,908.3,88.5,11.8,1.0,12.14,33.84,651.2656,140.0006],
    [18948,1525557113,57.4093,-111.7258,1216.0,909.3,89.0,9.8,1.8,12.47,34.25,651.3632,139.9952],
    [18949,1525557114,57.4094,-111.7245,1218.0,912.1,89.5,9.2,1.9,12.61,33.93,651.3401,140.0085],
    [18950,1525557115,57.4094,-111.7231,1220.0,914.2,90.3,9.9,2.0,12.19,33.93,651.3154,139.9981],
    [18951,1525557116,57.4094,-111.7218,1221.3,917.7,90.5,10.4,1.4,12.53,34.48,651.3484,139.9924],
    [18952,1525557117,57.4094,-111.7205,1221.7,922.7,89.7,10.3,-0.1,12.06,34.33,651.4833,139.9985],
    [18953,1525557118,57.4094,-111.7192,1221.1,929.5,90.0,9.7,0.1,12.55,33.77,651.5883,139.9979],
    [18954,1525557119,57.4094,-111.718,1220.4,931.4,90.1,9.8,-0.2,12.22,33.87,651.6218,140.0062],
    [18955,1525557120,57.4094,-111.7166,1220.5,932.6,90.5,8.7,0.2,12.64,33.8,651.6254,139.9989],
    [18956,1525557121,57.4094,-111.7153,1220.3,931.8,91.0,8.8,0.5,12.23,33.89,651.6033,139.9996],
    [18957,1525557122,57.4094,-111.714,1219.4,922.6,90.2,8.3,-0.1,12.46,33.6,651.6013,140.0048],
    [18958,1525557123,57.4094,-111.7127,1218.0,914.6,90.9,8.7,0.9,12.58,34.35,651.5715,139.9975],
    [18959,1525557124,57.4094,-111.7115,1217.1,912.5,90.1,8.6,-0.1,12.59,33.59,651.4972,139.9911],
    [18960,1525557125,57.4094,-111.71,1217.0,912.2,89.2,8.4,-0.9,12.53,33.81,651.4587,139.9909],
    [18961,1525557126,57.4094,-111.7087,1217.0,913.3,90.1,9.1,-0.4,13.09,33.29,651.3265,140.0041],
    [18962,1525557127,57.4094,-111.7074,1217.1,913.0,89.3,7.9,-1.7,12.54,33.81,651.283,140.0042],
    [18963,1525557128,57.4094,-111.706,1217.5,916.3,90.4,8.3,-0.8,13.17,33.23,651.2215,140.0026],
    [18964,1525557129,57.4094,-111.7047,1218.2,919.9,90.8,7.0,-0.7,12.69,33.47,651.121,140.0007],
    [18965,1525557130,57.4093,-111.7034,1219.3,923.3,90.9,6.9,-1.1,12.68,34.04,651.0076,139.9975],
    [18966,1525557131,57.4093,-111.7022,1220.2,928.6,91.3,7.3,-1.1,12.56,33.58,651.0141,139.9924],
    [18967,1525557132,57.4093,-111.7008,1221.1,931.3,92.5,6.9,-0.4,12.49,34.44,651.0264,140.0188],
    [18968,1525557133,57.4093,-111.6996,1222.0,934.4,92.2,7.1,-1.2,12.62,33.76,651.0321,140.0043],
    [18969,1525557134,57.4092,-111.6984,1223.4,937.6,91.2,7.1,-2.8,12.58,34.41,650.937,140.0021],
    [18970,1525557135,57.4092,-111.697,1224.6,940.6,91.3,8.2,-3.0,12.53,33.55,650.8992,140.0016],
    [18971,1525557136,57.4091,-111.6956,1224.5,942.5,92.2,7.9,-2.6,12.53,33.93,650.7596,140.0027],
    [18972,1525557137,57.4091,-111.6943,1223.8,943.7,92.2,7.9,-3.9,12.2,33.76,650.7081,139.9984],
    [18973,1525557138,57.409,-111.693,1224.4,945.4,94.3,7.3,-3.4,12.73,33.35,650.5727,139.9981],
    [18974,1525557139,57.4089,-111.6919,1225.3,947.3,97.7,7.8,-1.7,12.34,33.54,650.5137,140.0036],
    [18975,1525557140,57.4088,-111.6905,1226.3,949.3,101.9,8.3,-0.3,12.53,33.82,650.5805,139.9955],
    [18976,1525557141,57.4087,-111.6893,1227.3,951.3,103.8,6.6,-1.4,12.58,34.39,650.719,140.0083],
    [18977,1525557142,57.4085,-111.6881,1228.6,953.9,106.7,5.0,-1.7,12.34,33.93,651.0738,139.9884],
    [18978,1525557143,57.4083,-111.6869,1230.2,958.0,110.7,5.5,-1.7,12.62,33.78,651.469,140.0181],
    [18979,1525557144,57.408,-111.6858,1231.1,959.1,113.9,5.8,-2.0,12.66,33.88,652.1432,140.0068],
    [18980,1525557145,57.4077,-111.6846,1230.7,959.8,117.9,6.4,-1.9,12.57,34.59,652.6959,140.012],
    [18981,1525557146,57.4074,-111.6835,1228.3,957.2,120.6,5.3,-2.0,12.48,34.65,653.2109,140.0118],
    [18982,1525557147,57.4071,-111.6825,1224.4,954.4,125.4,5.5,-0.1,11.9,34.18,653.4466,140.0302],
    [18983,1525557148,57.4067,-111.6814,1219.3,950.1,130.0,6.8,-0.4,12.35,34.32,654.043,139.9915],
    [18984,1525557149,57.4063,-111.6805,1214.2,946.2,133.4,6.4,0.3,12.54,35.15,654.4969,140.0156],
    [18985,1525557150,57.4058,-111.6796,1208.1,941.2,140.2,11.6,1.1,12.7,34.26,654.6643,140.0067],
    [18986,1525557151,57.4053,-111.6786,1199.4,934.4,144.4,11.3,1.1,12.54,34.51,654.7264,140.0166],
    [18987,1525557152,57.4048,-111.6778,1192.5,934.8,146.7,9.1,0.1,12.55,34.8,654.7526,140.0089],
    [18988,1525557153,57.4042,-111.677,1186.6,935.8,151.7,10.1,0.0,11.96,34.37,654.6982,140.0014],
    [18989,1525557154,57.4037,-111.6763,1181.9,928.9,155.3,9.6,-0.1,13.1,34.06,654.6333,139.9945],
    [18990,1525557155,57.403,-111.6757,1178.9,915.2,158.1,9.0,-1.1,12.64,33.97,654.789,139.9958],
    [18991,1525557156,57.4024,-111.6751,1177.4,909.6,161.7,9.7,-1.7,12.24,34.4,654.9651,140.0005],
    [18992,1525557157,57.4018,-111.6746,1176.9,907.9,165.0,10.1,-2.0,12.51,34.33,655.1939,140.0123],
    [18993,1525557158,57.4012,-111.6742,1177.3,908.3,168.2,10.5,-1.8,12.35,34.32,655.2138,140.0072],
    [18994,1525557159,57.4005,-111.6738,1177.7,908.7,171.7,12.0,-1.7,12.82,34.68,655.1785,139.9968],
    [18995,1525557160,57.3998,-111.6734,1176.6,908.6,174.8,13.4,-0.8,12.81,33.75,655.0698,140.0124],
    [18996,1525557161,57.3992,-111.6731,1174.6,906.6,176.1,13.1,-1.3,12.58,34.19,654.9087,140.0091],
    [18997,1525557162,57.3985,-111.6728,1172.5,904.5,176.6,11.8,-0.7,12.53,34.17,654.2197,139.9956],
    [18998,1525557163,57.3979,-111.6726,1171.1,903.1,176.7,10.6,-1.8,12.53,34.19,653.9731,140.003],
    [18999,1525557164,57.3972,-111.6724,1170.8,902.8,177.6,10.9,-1.3,12.93,33.47,653.5955,139.993],
    [19000,1525557165,57.3966,-111.6721,1171.8,903.8,178.6,10.7,-0.5,12.86,33.77,653.4116,139.9953],
    [19001,1525557166,57.3959,-111.6719,1175.3,907.3,177.8,9.0,0.5,13.08,33.27,653.0733,140.0033],
    [19002,1525557167,57.3953,-111.6717,1180.4,912.4,179.1,9.6,0.7,12.66,34.17,652.9856,140.0027],
    [19003,1525557168,57.3946,-111.6716,1185.9,917.9,180.6,10.0,-0.1,12.26,33.67,652.7341,139.9947],
    [19004,1525557169,57.3941,-111.6715,1189.8,921.8,181.2,9.8,-0.4,12.57,33.89,652.5796,139.996],
    [19005,1525557170,57.3934,-111.6713,1194.4,927.4,182.7,9.9,-0.3,13.29,33.31,652.495,139.9923],
    [19006,1525557171,57.3928,-111.6712,1197.5,930.5,182.7,9.0,-0.5,12.99,33.55,652.3554,139.9987],
    [19007,1525557172,57.3922,-111.6711,1200.4,934.4,183.4,9.1,-0.8,12.52,33.65,652.2148,139.9912],
    [19008,1525557173,57.3916,-111.671,1202.8,937.8,184.7,9.9,-1.0,12.38,33.57,652.1949,139.9978],
    [19009,1525557174,57.3909,-111.671,1204.8,939.8,184.7,9.7,0.2,13.11,33.41,652.2457,140.0015],
    [19010,1525557175,57.3904,-111.6709,1206.3,941.3,184.6,9.4,0.7,13.23,33.35,652.3155,140.0016],
    [19011,1525557176,57.3897,-111.6708,1208.1,943.0,183.8,8.8,0.9,12.6,33.43,652.7031,140.002],
    [19012,1525557177,57.3891,-111.6708,1209.4,945.3,183.6,8.8,0.7,12.99,32.8,652.7983,139.993],
    [19013,1525557178,57.3886,-111.6707,1209.9,946.0,182.7,8.3,0.8,12.55,33.98,653.1156,140.008],
    [19014,1525557179,57.3879,-111.6706,1209.6,945.6,182.1,8.6,1.0,12.67,33.58,653.1621,140.0037],
    [19015,1525557180,57.3873,-111.6705,1208.0,945.0,182.3,9.4,0.1,12.4,33.83,653.3271,140.0025],
    [19016,1525557181,57.3867,-111.6704,1205.3,942.3,181.3,8.8,0.2,12.64,33.7,653.3999,139.987],
    [19017,1525557182,57.3861,-111.6703,1202.4,940.4,181.6,9.3,1.0,13.09,33.4,653.7355,140.0084],
    [19018,1525557183,57.3855,-111.6701,1199.5,937.5,181.9,9.5,-0.1,12.54,33.55,653.9124,140.0082],
    [19019,1525557184,57.3848,-111.67,1197.4,935.4,181.0,8.5,0.2,12.67,34.03,654.0717,139.9931],
    [19020,1525557185,57.3842,-111.6699,1195.6,933.6,181.0,8.7,0.2,12.62,33.77,654.1126,139.9966],
    [19021,1525557186,57.3836,-111.6698,1193.7,931.7,182.5,10.3,1.1,12.63,33.51,654.2607,140.0089],
    [19022,1525557187,57.383,-111.6697,1191.6,929.6,183.4,10.7,0.5,12.31,33.37,654.3335,140.0008],
    [19023,1525557188,57.3823,-111.6695,1188.5,926.5,183.4,10.5,-0.2,12.97,32.73,654.3053,140.0055],
    [19024,1525557189,57.3817,-111.6694,1186.3,925.2,182.9,10.0,1.2,12.7,33.66,654.3008,140.0002],
    [19025,1525557190,57.3811,-111.6693,1184.6,924.8,181.9,8.8,1.6,12.51,33.28,654.2725,139.996],
    [19026,1525557191,57.3804,-111.6692,1183.1,923.1,182.1,9.0,1.5,12.73,33.01,654.2646,139.9966],
    [19027,1525557192,57.3798,-111.6691,1182.4,922.4,182.6,9.7,1.5,12.66,33.49,654.3226,140.0097],
    [19028,1525557193,57.3792,-111.669,1182.4,922.4,182.7,9.9,1.3,12.76,33.44,654.3442,140.0047],
    [19029,1525557194,57.3786,-111.6689,1182.5,922.6,182.6,9.7,1.5,12.52,33.74,654.3063,139.9994],
    [19030,1525557195,57.3779,-111.6688,1182.7,923.7,182.9,10.1,1.3,12.92,32.8,654.3898,140.01],
    [19031,1525557196,57.3773,-111.6687,1182.2,924.3,182.2,9.3,2.4,12.52,33.71,654.3259,140.006],
    [19032,1525557197,57.3767,-111.6686,1181.9,924.9,180.5,7.2,1.1,12.9,32.97,654.368,139.9955],
    [19033,1525557198,57.3761,-111.6685,1182.3,925.6,180.2,7.1,1.5,12.42,33.64,654.3513,140.0044],
    [19034,1525557199,57.3754,-111.6683,1182.6,927.0,180.5,7.4,0.6,12.82,33.54,654.1949,139.9932],
    [19035,1525557200,57.3748,-111.6682,1182.3,928.9,178.7,5.9,-0.6,12.99,33.01,654.0988,139.9876],
    [19036,1525557201,57.3742,-111.6681,1182.4,930.4,177.8,5.6,0.0,12.77,33.79,653.7767,140.0165],
    [19037,1525557202,57.3735,-111.668,1182.1,934.5,180.0,8.2,-1.2,12.71,33.74,653.5972,140.0019],
    [19038,1525557203,57.373,-111.6678,1181.9,935.9,180.6,8.3,-1.0,12.71,34.0,653.5971,139.9921],
    [19039,1525557204,57.3723,-111.6677,1183.8,940.2,180.0,7.8,0.5,12.83,33.81,653.479,140.0081],
    [19040,1525557205,57.3716,-111.6676,1185.4,941.7,181.4,10.0,-0.1,13.17,32.97,653.3317,140.0119],
    [19041,1525557206,57.371,-111.6674,1186.6,945.3,180.6,8.7,-0.3,12.74,33.69,653.1969,139.9869],
    [19042,1525557207,57.3703,-111.6673,1189.5,948.1,177.6,5.3,0.1,12.61,33.93,653.1307,140.0013],
    [19043,1525557208,57.3697,-111.6672,1192.1,953.1,181.0,9.3,-1.6,12.78,33.77,653.0244,139.9871],
    [19044,1525557209,57.3691,-111.667,1193.6,955.6,181.7,8.8,-2.0,12.93,33.48,653.1589,139.9931],
    [19045,1525557210,57.3684,-111.6669,1195.6,960.0,180.8,7.3,-2.3,12.85,34.35,653.2223,139.997],
    [19046,1525557211,57.3678,-111.6668,1197.2,961.5,183.5,9.6,-4.2,13.0,33.44,653.2535,140.0004],
    [19047,1525557212,57.3671,-111.6667,1198.6,963.3,183.3,9.1,-3.5,12.77,34.02,653.4385,139.997],
    [19048,1525557213,57.3665,-111.6666,1199.2,965.9,182.9,9.1,-3.0,12.75,34.21,653.4835,140.001],
    [19049,1525557214,57.3658,-111.6666,1198.6,965.2,182.8,9.4,-1.9,12.62,33.74,653.5588,139.9932],
    [19050,1525557215,57.3652,-111.6665,1197.3,964.3,182.1,8.7,-1.5,13.29,33.27,653.6655,139.9991],
    [19051,1525557216,57.3645,-111.6663,1196.0,964.0,181.3,8.1,-0.8,13.36,33.16,653.7435,139.9999],
    [19052,1525557217,57.3639,-111.6662,1194.6,962.6,182.2,9.4,-0.1,12.69,33.54,653.723,140.0021],
    [19053,1525557218,57.3633,-111.6661,1193.8,961.8,181.9,9.2,0.5,12.92,33.96,653.762,140.002],
    [19054,1525557219,57.3626,-111.666,1192.7,960.7,182.0,9.5,0.9,12.7,34.0,653.7429,140.0089],
    [19055,1525557220,57.362,-111.6659,1191.5,959.5,181.8,9.0,1.3,12.67,33.68,653.8709,139.9992],
    [19056,1525557221,57.3613,-111.6658,1190.2,957.9,181.0,7.4,2.1,13.03,33.62,654.0554,140.0174],
    [19057,1525557222,57.3607,-111.6657,1189.9,957.9,180.6,6.6,1.9,12.32,33.65,654.2049,140.0048],
    [19058,1525557223,57.36,-111.6656,1190.2,958.2,182.1,7.7,1.2,12.41,33.63,654.1904,140.0001],
    [19059,1525557224,57.3594,-111.6655,1190.0,958.0,181.5,6.6,0.9,13.16,33.49,654.0564,140.0044],
    [19060,1525557225,57.3588,-111.6655,1189.2,956.2,181.5,6.9,0.7,12.87,33.52,654.1645,140.012],
    [19061,1525557226,57.3581,-111.6654,1187.3,954.3,181.4,7.1,-0.4,12.79,33.71,654.427,139.9922],
    [19062,1525557227,57.3575,-111.6653,1185.8,952.8,179.7,6.3,-1.0,12.97,33.23,654.5905,140.0041],
    [19063,1525557228,57.3568,-111.6651,1185.0,952.0,178.4,6.1,0.3,12.38,33.6,654.6896,140.0054],
    [19064,1525557229,57.3562,-111.665,1185.2,951.5,176.6,4.5,0.3,13.2,33.46,654.6816,139.9917],
    [19065,1525557230,57.3555,-111.6648,1184.2,950.2,176.6,5.0,0.1,12.6,33.66,654.9785,140.0061],
    [19066,1525557231,57.3549,-111.6647,1182.1,948.1,179.3,7.7,0.0,12.96,33.59,655.1465,140.0077],
    [19067,1525557232,57.3543,-111.6646,1179.7,944.7,178.5,6.5,1.0,12.83,33.98,655.4006,139.9934],
    [19068,1525557233,57.3536,-111.6644,1178.0,943.0,177.2,5.0,1.1,12.45,33.89,655.7002,140.0087],
    [19069,1525557234,57.353,-111.6643,1177.2,941.2,178.0,6.3,1.4,12.69,33.78,655.8997,140.0152],
    [19070,1525557235,57.3523,-111.6641,1175.3,939.3,179.4,7.9,0.8,12.91,33.69,655.9102,140.0093],
    [19071,1525557236,57.3517,-111.664,1172.7,936.7,180.2,8.6,-0.2,12.59,34.33,655.9124,139.9992],
    [19072,1525557237,57.3511,-111.6639,1169.8,934.9,180.7,9.1,0.3,12.45,34.09,655.8992,140.0047],
    [19073,1525557238,57.3504,-111.6637,1166.1,930.1,181.3,9.5,-0.2,12.29,33.68,655.9451,139.9906],
    [19074,1525557239,57.3497,-111.6636,1163.4,927.4,181.0,8.5,0.3,13.0,33.59,656.0497,140.0045],
    [19075,1525557240,57.3491,-111.6635,1162.4,927.1,179.7,6.1,0.6,12.75,33.69,656.2379,140.0057],
    [19076,1525557241,57.3484,-111.6634,1162.7,927.4,180.5,6.0,-0.3,12.72,33.8,656.3505,140.0062],
    [19077,1525557242,57.3478,-111.6633,1162.4,925.7,182.4,7.0,-0.8,12.78,34.07,656.408,140.0049],
    [19078,1525557243,57.3471,-111.6632,1161.8,924.1,184.3,8.3,0.0,12.88,34.54,656.4051,139.9976],
    [19079,1525557244,57.3464,-111.6632,1160.9,923.4,185.7,8.9,0.2,13.3,33.01,656.362,140.0086],
    [19080,1525557245,57.3458,-111.6632,1159.2,919.6,186.6,8.9,0.1,13.26,33.15,656.2854,140.0006],
    [19081,1525557246,57.3452,-111.6632,1157.8,917.2,187.9,9.0,0.4,12.94,33.88,655.9966,139.9927],
    [19082,1525557247,57.3445,-111.6632,1157.0,915.5,188.9,8.5,-0.2,12.66,33.74,655.7906,139.9998],
    [19083,1525557248,57.3439,-111.6633,1156.5,912.6,190.4,8.9,0.8,12.82,33.92,655.5171,140.0002],
    [19084,1525557249,57.3432,-111.6634,1156.3,910.8,191.6,9.1,0.9,12.78,33.5,655.3713,140.0022],
    [19085,1525557250,57.3426,-111.6635,1158.0,909.9,192.9,10.3,1.0,12.53,33.64,655.2123,140.0011],
    [19086,1525557251,57.342,-111.6636,1161.0,911.3,193.9,11.5,1.7,12.55,33.53,655.1701,140.0024],
    [19087,1525557252,57.3414,-111.6637,1164.4,913.4,192.6,10.1,1.8,12.86,33.67,655.1666,140.0035],
    [19088,1525557253,57.3408,-111.6637,1167.2,913.5,191.2,9.2,1.9,12.95,33.36,655.1908,140.0021],
    [19089,1525557254,57.3402,-111.6638,1170.0,915.0,190.5,9.5,1.8,12.97,33.3,655.1101,140.005],
    [19090,1525557255,57.3396,-111.6639,1171.9,915.9,190.1,9.9,1.1,12.8,33.58,655.0086,140.0055],
    [19091,1525557256,57.339,-111.6639,1173.2,915.5,188.0,9.0,1.4,12.77,33.28,654.7255,139.9994],
    [19092,1525557257,57.3384,-111.6639,1173.6,914.2,186.2,8.2,1.9,12.96,33.23,654.7107,139.999],
    [19093,1525557258,57.3378,-111.6639,1173.3,911.3,185.4,8.4,1.5,13.51,32.94,654.389,140.0034],
    [19094,1525557259,57.3372,-111.6638,1173.9,909.9,184.6,8.4,1.6,13.14,33.01,654.2339,139.995],
    [19095,1525557260,57.3365,-111.6638,1175.3,910.4,184.3,8.8,1.3,13.01,33.68,654.0139,140.0008],
    [19096,1525557261,57.3359,-111.6637,1177.7,911.7,184.5,9.3,1.4,13.23,32.99,653.916,139.9965],
    [19097,1525557262,57.3353,-111.6636,1180.5,914.5,184.7,9.2,1.9,12.95,33.95,653.9058,140.0009],
    [19098,1525557263,57.3347,-111.6636,1183.1,915.4,184.0,8.2,1.4,13.03,33.17,653.7974,139.992],
    [19099,1525557264,57.3341,-111.6635,1185.6,917.9,184.0,8.1,2.2,12.9,33.51,653.7576,140.0019],
    [19100,1525557265,57.3336,-111.6635,1187.7,920.3,184.9,9.1,2.0,13.23,33.11,653.7425,139.9988],
    [19101,1525557266,57.3329,-111.6634,1189.2,922.6,185.8,9.9,2.2,13.06,33.14,653.7546,140.0027],
    [19102,1525557267,57.3324,-111.6634,1190.2,923.4,185.7,9.6,2.3,12.86,33.43,653.7686,140.0013],
    [19103,1525557268,57.3318,-111.6633,1190.9,922.5,186.1,9.9,2.7,12.55,33.08,653.8215,140.0029],
    [19104,1525557269,57.3312,-111.6633,1191.5,923.8,186.3,9.5,2.3,12.97,32.97,653.951,139.9984],
    [19105,1525557270,57.3307,-111.6633,1191.8,924.5,186.6,9.3,2.4,12.85,33.33,653.9983,140.0039],
    [19106,1525557271,57.3301,-111.6632,1191.8,924.2,187.8,10.0,1.8,12.94,33.61,654.0168,140.0004],
    [19107,1525557272,57.3295,-111.6632,1191.8,923.2,188.5,10.2,1.6,12.53,33.31,654.1279,140.0023],
    [19108,1525557273,57.3289,-111.6632,1191.2,920.8,188.9,10.4,1.1,13.41,33.02,654.1833,140.0018],
    [19109,1525557274,57.3283,-111.6632,1190.0,919.4,188.9,10.3,1.4,12.64,33.71,654.3958,139.9965],
    [19110,1525557275,57.3277,-111.6632,1189.2,917.8,188.2,9.5,1.9,12.91,34.17,654.678,140.0018],
    [19111,1525557276,57.3272,-111.6632,1188.6,917.2,188.5,9.9,2.1,13.16,33.15,654.9026,140.001],
    [19112,1525557277,57.3266,-111.6632,1187.6,917.0,189.1,10.3,1.8,13.03,33.69,655.0378,140.0005],
    [19113,1525557278,57.326,-111.6632,1186.4,916.0,188.1,9.1,1.8,13.08,32.96,655.3208,139.9992],
    [19114,1525557279,57.3254,-111.6632,1184.3,914.7,188.1,9.2,1.8,13.09,32.69,655.4601,140.0013],
    [19115,1525557280,57.3249,-111.6632,1181.6,912.3,188.1,9.3,1.6,13.3,33.07,655.6597,140.0047],
    [19116,1525557281,57.3243,-111.6632,1178.8,909.2,188.0,9.5,1.7,12.67,33.28,655.7205,140.0032],
    [19117,1525557282,57.3237,-111.6632,1175.6,905.0,188.0,9.7,1.2,12.64,33.31,655.7354,139.996],
    [19118,1525557283,57.3231,-111.6632,1172.8,901.5,187.5,9.5,1.3,13.12,32.74,655.8563,140.002],
    [19119,1525557284,57.3225,-111.6632,1170.2,898.6,187.2,9.5,1.3,12.74,33.27,656.0802,140.0084],
    [19120,1525557285,57.3219,-111.6632,1168.3,895.7,186.6,9.0,1.4,12.84,33.59,656.1998,140.0057],
    [19121,1525557286,57.3213,-111.6632,1167.1,893.4,186.2,8.7,1.2,12.9,34.13,656.3075,140.0042],
    [19122,1525557287,57.3207,-111.6632,1166.6,893.1,186.4,8.6,0.6,12.84,33.3,656.33,140.0056],
    [19123,1525557288,57.3201,-111.6631,1164.9,890.6,187.0,8.8,0.8,12.99,33.31,656.3725,139.9993],
    [19124,1525557289,57.3195,-111.6631,1162.9,889.2,187.1,8.1,0.0,13.39,33.14,656.3634,139.9973],
    [19125,1525557290,57.3188,-111.6632,1161.1,887.4,186.8,7.6,0.2,12.51,33.83,656.3874,140.0023],
    [19126,1525557291,57.3183,-111.6632,1159.7,886.8,187.6,8.2,0.3,12.94,33.4,656.3275,140.0038],
    [19127,1525557292,57.3176,-111.6632,1158.7,886.0,188.0,7.9,0.0,13.25,32.88,656.3343,140.0056],
    [19128,1525557293,57.3171,-111.6632,1158.3,885.7,188.4,8.2,0.4,12.4,33.46,656.269,139.9977],
    [19129,1525557294,57.3164,-111.6633,1158.2,885.5,190.0,9.5,-0.2,13.49,33.09,656.3235,139.9936],
    [19130,1525557295,57.3158,-111.6633,1158.1,886.3,190.0,9.2,-0.4,13.01,33.96,656.3267,140.0036],
    [19131,1525557296,57.3152,-111.6633,1158.7,888.3,189.1,8.4,-0.1,13.1,33.05,656.3114,139.9981],
    [19132,1525557297,57.3146,-111.6634,1159.1,888.8,189.3,8.8,-0.2,12.85,33.52,656.2894,140.0165],
    [19133,1525557298,57.314,-111.6634,1159.4,889.1,190.0,9.5,-0.8,12.93,33.94,656.2938,139.9858],
    [19134,1525557299,57.3134,-111.6635,1159.1,888.8,189.9,9.4,0.0,12.25,33.38,656.3631,140.0086],
    [19135,1525557300,57.3128,-111.6635,1158.6,889.6,188.6,7.8,0.8,12.62,33.24,656.2448,140.0064],
    [19136,1525557301,57.3121,-111.6635,1158.7,890.3,188.9,7.8,0.8,12.31,33.43,656.2088,139.9986],
    [19137,1525557302,57.3115,-111.6636,1158.7,889.4,189.5,7.0,0.4,13.49,32.98,656.0968,140.0024],
    [19138,1525557303,57.3109,-111.6637,1158.7,890.4,191.4,7.6,1.7,12.89,33.28,655.968,140.0047],
    [19139,1525557304,57.3104,-111.6638,1158.6,890.6,195.3,8.6,1.0,13.56,32.98,655.8825,139.9964],
    [19140,1525557305,57.3098,-111.664,1158.9,893.4,197.7,7.9,1.9,13.03,33.33,655.8478,139.9972],
    [19141,1525557306,57.3092,-111.6643,1159.8,897.7,201.0,8.1,2.0,13.36,33.25,655.8509,140.0026],
    [19142,1525557307,57.3087,-111.6646,1161.0,902.0,204.7,8.4,1.7,12.91,33.84,656.0041,139.9961],
    [19143,1525557308,57.3081,-111.665,1162.4,907.1,209.0,8.8,1.6,12.84,34.12,655.9957,140.0061],
    [19144,1525557309,57.3075,-111.6654,1163.9,915.2,212.9,8.6,1.4,13.48,32.93,656.0271,140.0016],
    [19145,1525557310,57.3071,-111.6659,1164.9,922.5,216.5,8.8,1.2,12.91,33.42,656.0814,139.9998],
    [19146,1525557311,57.3066,-111.6665,1164.8,925.6,220.1,8.9,0.8,12.82,34.04,656.2,140.0075],
    [19147,1525557312,57.3061,-111.6671,1164.0,926.0,223.5,9.3,0.2,12.98,33.25,656.1689,140.0029],
    [19148,1525557313,57.3057,-111.6677,1163.4,926.4,225.8,8.6,0.6,13.19,33.62,656.1677,140.0005],
    [19149,1525557314,57.3053,-111.6685,1162.9,925.9,228.8,8.5,0.1,13.05,33.31,656.1267,139.9954],
    [19150,1525557315,57.3049,-111.6692,1162.0,925.7,232.5,9.3,-0.8,13.27,32.91,656.016,140.0063],
    [19151,1525557316,57.3045,-111.6699,1161.3,925.3,235.1,8.7,-1.1,12.38,33.49,655.9148,139.9912],
    [19152,1525557317,57.3042,-111.6707,1161.1,925.1,236.8,7.6,-0.6,13.35,33.13,655.8761,140.0076],
    [19153,1525557318,57.3039,-111.6716,1161.1,925.1,238.5,7.7,0.3,12.8,33.69,655.8005,139.9983],
    [19154,1525557319,57.3036,-111.6724,1161.7,925.7,240.9,7.8,-0.4,12.91,33.26,655.8032,140.0011],
    [19155,1525557320,57.3033,-111.6733,1162.7,926.7,242.4,7.7,-0.4,12.55,33.74,655.6724,140.0092],
    [19156,1525557321,57.303,-111.6741,1163.9,927.9,244.2,8.4,-0.9,13.13,33.31,655.5399,139.9955],
    [19157,1525557322,57.3027,-111.675,1164.6,928.6,245.2,7.9,-0.8,13.14,33.25,655.4251,140.0051],
    [19158,1525557323,57.3025,-111.6759,1165.4,929.4,246.2,8.4,-0.4,13.03,33.2,655.3343,139.991],
    [19159,1525557324,57.3022,-111.6768,1166.2,929.5,247.5,8.1,-0.7,12.54,33.3,655.2264,140.0017],
    [19160,1525557325,57.302,-111.6777,1167.4,929.7,247.7,7.5,-0.1,13.03,34.0,655.1677,139.9959],
    [19161,1525557326,57.3018,-111.6786,1169.0,928.7,249.0,7.1,-0.6,13.15,33.07,655.1068,139.9867],
    [19162,1525557327,57.3016,-111.6795,1170.5,926.1,249.8,6.5,-0.2,13.49,33.02,655.0747,140.0085],
    [19163,1525557328,57.3014,-111.6804,1171.9,924.9,250.8,6.7,0.3,13.21,33.31,655.0166,140.0034],
    [19164,1525557329,57.3012,-111.6813,1173.2,926.2,252.7,6.8,0.2,12.35,33.29,654.9296,139.9957],
    [19165,1525557330,57.301,-111.6823,1173.9,926.8,254.3,8.0,0.1,12.95,33.79,654.8304,140.0021],
    [19166,1525557331,57.3008,-111.6832,1174.4,928.1,256.8,8.3,-1.4,12.8,33.99,654.6448,139.9988],
    [19167,1525557332,57.3007,-111.6841,1174.9,932.3,257.9,7.9,-1.2,13.37,33.16,654.4597,139.9952],
    [19168,1525557333,57.3006,-111.6851,1176.0,936.3,258.5,8.2,-0.7,13.07,32.92,654.3292,139.9978],
    [19169,1525557334,57.3005,-111.6859,1176.8,939.8,260.4,8.3,-1.8,12.41,33.33,654.0575,140.0027],
    [19170,1525557335,57.3003,-111.687,1178.1,940.1,261.2,8.4,-1.7,12.9,33.71,653.8118,140.0012],
    [19171,1525557336,57.3002,-111.6879,1179.6,939.7,261.7,9.1,-1.3,13.29,33.12,653.6365,139.9908],
    [19172,1525557337,57.3002,-111.6889,1181.7,937.0,262.5,9.9,-1.3,12.94,33.25,653.6346,140.0036],
    [19173,1525557338,57.3001,-111.6898,1184.1,932.0,263.7,9.9,-1.7,13.09,33.31,653.4459,139.9996],
    [19174,1525557339,57.3,-111.6907,1186.8,931.1,264.4,9.7,-0.6,12.55,33.31,653.4256,139.988],
    [19175,1525557340,57.2999,-111.6917,1189.6,926.8,264.9,9.7,0.4,12.61,33.17,653.3224,140.0074],
    [19176,1525557341,57.2999,-111.6925,1191.9,922.1,267.4,9.8,-0.9,12.89,33.36,653.2554,139.997],
    [19177,1525557342,57.2999,-111.6935,1193.7,921.0,269.6,9.1,-1.5,12.97,33.89,653.1288,140.0071],
    [19178,1525557343,57.2999,-111.6945,1195.1,920.3,270.0,9.8,-0.7,12.8,33.41,652.8806,139.999],
    [19179,1525557344,57.2999,-111.6954,1196.1,920.6,272.6,9.7,-2.5,13.08,33.23,652.5657,139.9979],
    [19180,1525557345,57.2999,-111.6963,1196.6,919.3,274.1,9.7,-2.4,13.25,33.38,652.3669,139.9921],
    [19181,1525557346,57.2999,-111.6972,1198.0,918.6,273.5,11.1,-0.8,12.48,33.35,652.2585,140.0034],
    [19182,1525557347,57.2999,-111.6981,1200.2,918.9,274.1,10.6,-0.2,12.95,33.44,652.0485,139.9921],
    [19183,1525557348,57.3,-111.699,1203.0,919.9,274.5,11.2,0.3,13.27,33.08,651.9099,139.9914],
    [19184,1525557349,57.3,-111.6999,1205.9,921.6,275.0,10.7,0.1,12.79,33.42,652.0826,140.0186],
    [19185,1525557350,57.3001,-111.7008,1208.8,922.8,275.9,10.4,-0.6,12.92,33.4,652.077,140.0199],
    [19186,1525557351,57.3001,-111.7017,1211.2,923.4,275.3,9.9,0.3,12.78,33.45,651.9902,139.9927],
    [19187,1525557352,57.3002,-111.7026,1213.1,925.1,274.3,11.0,0.7,12.84,33.66,651.997,140.0036],
    [19188,1525557353,57.3002,-111.7035,1214.4,925.4,274.9,10.8,-0.5,12.96,33.53,652.4971,139.998],
    [19189,1525557354,57.3003,-111.7044,1214.4,925.4,274.0,9.6,-0.1,13.15,33.42,652.5744,140.0021],
    [19190,1525557355,57.3003,-111.7052,1215.0,926.0,271.9,9.3,0.9,12.38,33.47,652.8426,140.0159],
    [19191,1525557356,57.3003,-111.7061,1215.0,926.0,270.8,9.2,1.2,13.34,33.17,653.2355,140.0006],
    [19192,1525557357,57.3004,-111.707,1213.9,923.9,268.5,10.1,2.5,12.86,33.45,653.2936,140.0129],
    [19193,1525557358,57.3004,-111.7079,1211.4,921.4,269.7,10.6,0.2,12.79,33.58,653.3969,140.0035],
    [19194,1525557359,57.3004,-111.7087,1208.2,918.2,270.7,9.5,-1.0,12.84,33.92,653.3356,139.9927],
    [19195,1525557360,57.3003,-111.7096,1204.7,914.7,268.4,9.1,0.6,12.86,34.37,653.2449,140.0086],
    [19196,1525557361,57.3003,-111.7105,1201.2,911.2,268.3,8.5,-0.2,12.57,33.73,653.2655,139.9992],
    [19197,1525557362,57.3003,-111.7114,1198.4,908.4,267.8,8.9,0.0,12.74,33.65,653.1883,139.9938],
    [19198,1525557363,57.3003,-111.7123,1196.9,906.9,266.8,8.5,0.6,13.23,34.01,653.2138,140.0002],
    [19199,1525557364,57.3003,-111.7133,1196.7,905.7,267.3,9.2,-0.1,13.16,33.04,653.2042,140.0051],
    [19200,1525557365,57.3002,-111.7142,1197.2,906.2,268.0,9.1,-0.5,12.16,33.83,653.2334,140.0],
    [19201,1525557366,57.3002,-111.7151,1198.0,907.0,266.9,9.4,0.6,12.78,33.78,653.2685,140.002],
    [19202,1525557367,57.3002,-111.7159,1198.5,907.5,267.5,9.8,0.1,12.78,33.85,653.3132,140.0073],
    [19203,1525557368,57.3002,-111.7169,1198.7,907.7,268.1,10.2,-0.4,12.88,33.7,653.217,140.0055],
    [19204,1525557369,57.3001,-111.7178,1198.7,907.7,267.9,9.7,0.0,12.45,34.15,653.1739,139.996],
    [19205,1525557370,57.3001,-111.7188,1198.7,907.4,267.3,9.4,0.7,13.38,33.76,653.1129,140.0024],
    [19206,1525557371,57.3001,-111.7197,1198.3,906.3,268.2,9.6,0.1,13.19,33.64,652.988,139.9957],
    [19207,1525557372,57.3001,-111.7206,1198.0,906.0,269.1,9.5,0.0,12.74,33.81,652.8486,139.9943],
    [19208,1525557373,57.3001,-111.7216,1198.5,905.5,268.9,9.4,0.7,13.19,33.68,652.7934,139.9842],
    [19209,1525557374,57.3001,-111.7225,1199.5,906.5,270.5,8.5,-0.6,12.74,34.28,652.737,139.9956],
    [19210,1525557375,57.3001,-111.7235,1200.4,906.6,271.7,8.0,-1.1,12.52,34.57,652.716,139.997],
    [19211,1525557376,57.3001,-111.7244,1201.8,907.6,271.8,8.3,-0.3,12.9,33.73,652.7182,139.9978],
    [19212,1525557377,57.3001,-111.7253,1203.3,908.0,272.1,8.8,0.0,12.78,34.64,652.5902,140.0001],
    [19213,1525557378,57.3001,-111.7263,1204.2,907.9,273.0,9.3,-0.1,12.74,34.09,652.6954,140.001],
    [19214,1525557379,57.3002,-111.7272,1204.6,907.6,272.5,10.0,1.1,12.31,33.81,652.7083,140.0045],
    [19215,1525557380,57.3002,-111.7282,1204.9,906.9,273.0,9.5,0.8,12.37,33.97,652.7295,140.0008],
    [19216,1525557381,57.3002,-111.7291,1205.3,907.3,273.2,9.6,0.3,12.54,33.89,652.7602,140.0015],
    [19217,1525557382,57.3003,-111.7301,1205.9,907.0,272.2,10.7,1.0,12.72,34.35,652.7972,139.9997],
    [19218,1525557383,57.3003,-111.731,1205.6,905.7,272.4,9.7,0.8,12.56,33.8,652.7258,140.0034],
    [19219,1525557384,57.3003,-111.732,1205.0,904.0,272.5,9.5,1.1,12.7,33.57,652.7303,139.998],
    [19220,1525557385,57.3004,-111.733,1204.8,902.8,273.0,9.6,0.9,12.96,33.81,652.6594,139.9993],
    [19221,1525557386,57.3004,-111.7339,1204.5,902.5,273.5,9.1,0.4,12.89,33.64,652.6301,139.9989],
    [19222,1525557387,57.3005,-111.7349,1204.1,901.8,273.8,8.8,-0.2,12.74,33.91,652.4916,140.0005],
    [19223,1525557388,57.3005,-111.7359,1204.4,901.4,272.7,8.7,0.4,12.78,33.61,652.4246,139.9985],
    [19224,1525557389,57.3005,-111.7368,1204.7,901.7,271.8,9.4,0.7,12.85,33.11,652.3649,139.9959],
    [19225,1525557390,57.3005,-111.7378,1205.0,902.0,271.3,9.9,0.8,13.08,32.91,652.2489,139.9893],
    [19226,1525557391,57.3006,-111.7387,1205.7,902.7,271.1,9.5,0.9,13.03,32.82,652.2112,139.9967],
    [19227,1525557392,57.3006,-111.7397,1206.7,904.7,271.1,9.0,1.1,13.31,33.0,652.1118,140.0026],
    [19228,1525557393,57.3006,-111.7407,1207.8,905.8,271.2,8.9,1.2,12.76,33.32,652.0157,140.0047],
    [19229,1525557394,57.3006,-111.7416,1208.6,907.2,271.2,9.1,1.2,12.7,33.27,651.9337,139.9992],
    [19230,1525557395,57.3007,-111.7426,1209.9,908.9,271.6,9.3,0.5,12.69,33.44,651.8183,139.9967],
    [19231,1525557396,57.3007,-111.7435,1210.9,909.9,271.9,9.1,0.0,12.73,33.95,651.6892,139.9948],
    [19232,1525557397,57.3007,-111.7444,1211.6,910.8,270.9,8.4,0.8,12.75,33.41,651.5569,140.0054],
    [19233,1525557398,57.3007,-111.7455,1213.1,913.1,269.8,7.4,1.6,12.41,33.52,651.3854,139.9964],
    [19234,1525557399,57.3007,-111.7465,1214.6,913.7,269.9,7.8,1.4,12.71,33.59,651.1412,140.0017],
    [19235,1525557400,57.3007,-111.7475,1215.9,915.0,270.5,8.0,0.9,13.17,33.6,650.9063,139.9784],
    [19236,1525557401,57.3007,-111.7484,1217.1,916.1,269.9,8.5,1.5,12.32,33.52,650.8243,139.9893],
    [19237,1525557402,57.3008,-111.7493,1218.7,917.6,269.3,8.4,2.2,12.88,33.74,650.6094,140.0003],
    [19238,1525557403,57.3008,-111.7503,1220.8,919.8,269.2,7.8,2.6,12.8,33.74,650.4548,139.9889],
    [19239,1525557404,57.3008,-111.7513,1223.1,922.1,269.6,7.4,2.1,13.21,33.1,650.41,139.9853],
    [19240,1525557405,57.3008,-111.7523,1226.0,924.7,270.7,7.7,0.5,12.7,33.58,650.3964,139.9939],
    [19241,1525557406,57.3008,-111.7532,1228.6,926.6,271.7,7.1,-0.6,13.31,33.27,650.3717,140.0086],
    [19242,1525557407,57.3008,-111.7543,1230.7,928.7,271.1,5.9,-0.3,12.76,33.92,650.342,139.9937],
    [19243,1525557408,57.3008,-111.7553,1232.4,930.4,272.0,5.8,-1.1,13.17,33.67,650.2981,140.0021],
    [19244,1525557409,57.3008,-111.7563,1233.4,931.4,271.7,8.5,-0.9,12.71,34.39,650.21,140.0],
    [19245,1525557410,57.3009,-111.7572,1233.6,931.6,272.1,9.3,-1.7,12.54,34.61,650.117,139.9959],
    [19246,1525557411,57.3009,-111.7582,1233.8,931.8,271.2,9.0,-1.0,13.07,33.26,650.0307,139.9972],
    [19247,1525557412,57.3009,-111.7593,1234.1,932.1,270.4,8.9,-0.6,13.03,33.57,649.9165,140.0019],
    [19248,1525557413,57.3009,-111.7604,1234.7,933.7,269.5,9.4,0.4,12.74,33.92,649.804,139.9993],
    [19249,1525557414,57.3009,-111.7614,1235.9,934.9,269.3,9.2,0.4,12.75,34.03,649.7258,140.0038],
    [19250,1525557415,57.3008,-111.7624,1237.0,935.0,270.5,9.0,-1.1,12.58,33.99,649.5396,139.9961],
    [19251,1525557416,57.3008,-111.7634,1238.4,935.4,271.3,8.5,-1.8,12.41,34.16,649.4653,139.9999],
    [19252,1525557417,57.3008,-111.7644,1239.9,935.9,270.1,8.4,-0.3,12.76,34.65,649.3927,140.0027],
    [19253,1525557418,57.3008,-111.7655,1241.7,936.7,269.8,7.9,-0.2,12.62,34.2,649.3892,139.9993],
    [19254,1525557419,57.3008,-111.7665,1243.3,937.3,269.7,7.4,-0.5,13.21,33.91,649.388,139.9973],
    [19255,1525557420,57.3008,-111.7675,1244.9,938.9,269.3,7.4,-0.3,12.52,34.12,649.3557,139.9948],
    [19256,1525557421,57.3008,-111.7685,1246.1,940.1,268.9,7.2,0.1,13.17,33.6,649.4481,140.0006],
    [19257,1525557422,57.3008,-111.7695,1247.0,942.0,269.4,6.4,-0.2,12.65,34.36,649.5027,140.0058],
    [19258,1525557423,57.3008,-111.7706,1247.3,942.3,270.0,6.7,-0.4,12.69,34.74,649.5258,139.9954],
    [19259,1525557424,57.3008,-111.7716,1247.3,942.5,270.0,6.7,0.2,12.71,34.79,649.7037,140.0094],
    [19260,1525557425,57.3008,-111.7727,1247.3,943.3,270.0,7.2,0.7,12.53,34.61,649.8345,139.9996],
    [19261,1525557426,57.3008,-111.7737,1246.9,942.9,270.5,7.6,0.5,12.67,34.73,649.8784,139.998],
    [19262,1525557427,57.3008,-111.7748,1245.9,941.9,270.7,6.7,0.4,12.52,34.58,650.0115,140.0041],
    [19263,1525557428,57.3008,-111.7757,1245.0,941.0,271.2,6.6,-0.2,12.68,34.95,649.9805,139.9929],
    [19264,1525557429,57.3008,-111.7768,1243.7,938.7,271.5,7.2,-0.4,12.55,34.58,649.9173,139.9975],
    [19265,1525557430,57.3009,-111.7779,1241.9,936.9,270.9,6.8,0.2,12.64,35.09,649.929,139.9981],
    [19266,1525557431,57.3009,-111.779,1240.4,935.4,271.5,6.9,-0.5,12.47,34.42,649.9509,140.0125],
    [19267,1525557432,57.3009,-111.78,1239.3,934.3,271.2,7.0,-0.2,13.23,33.8,649.8139,140.0111],
    [19268,1525557433,57.3009,-111.7811,1238.7,932.7,271.2,7.5,-0.3,13.14,33.94,649.8475,139.9954],
    [19269,1525557434,57.3009,-111.7821,1239.0,932.3,271.2,8.0,0.0,11.92,34.65,649.668,139.9959],
    [19270,1525557435,57.3009,-111.7833,1239.6,932.3,271.9,7.1,-0.5,12.61,34.74,649.5801,139.971],
    [19271,1525557436,57.3009,-111.7843,1239.8,930.9,272.1,6.6,-0.2,12.6,34.38,649.6494,139.9904],
    [19272,1525557437,57.301,-111.7853,1240.3,930.3,270.6,6.0,1.5,12.37,34.75,649.5721,139.9955],
    [19273,1525557438,57.301,-111.7865,1241.2,930.2,270.5,5.9,1.4,12.63,34.56,649.5348,139.9931],
    [19274,1525557439,57.301,-111.7875,1242.4,931.4,269.0,6.4,2.9,13.17,33.85,649.5009,139.9903],
    [19275,1525557440,57.301,-111.7886,1243.2,932.2,269.6,6.7,1.7,12.48,34.32,649.3806,139.9998],
    [19276,1525557441,57.301,-111.7897,1243.5,932.5,269.0,7.2,2.2,12.5,34.32,649.2263,139.9924],
    [19277,1525557442,57.301,-111.7907,1243.9,932.9,268.2,7.4,2.1,12.56,34.02,649.0589,140.0044],
    [19278,1525557443,57.301,-111.7919,1244.5,933.5,268.8,8.0,0.6,12.58,34.37,649.0148,140.0063],
    [19279,1525557444,57.301,-111.7929,1244.9,933.9,268.9,8.1,-0.2,12.61,34.51,649.2228,139.9934],
    [19280,1525557445,57.301,-111.794,1245.9,933.9,268.2,8.3,-0.2,12.74,33.96,649.2582,140.0071],
    [19281,1525557446,57.301,-111.7951,1247.7,935.7,268.1,8.3,-0.7,12.72,34.47,649.4364,139.9995],
    [19282,1525557447,57.3009,-111.7961,1249.4,937.4,267.8,7.3,-0.2,12.46,34.69,649.7179,140.0],
    [19283,1525557448,57.3009,-111.7973,1250.0,937.0,267.1,7.2,1.0,12.4,34.19,649.7844,140.0114],
    [19284,1525557449,57.3009,-111.7984,1248.8,935.8,268.3,6.9,0.3,12.83,34.05,650.0455,139.9981],
    [19285,1525557450,57.3009,-111.7995,1247.1,933.4,268.2,6.7,1.4,12.29,34.66,650.1653,140.0103],
    [19286,1525557451,57.3009,-111.8004,1245.6,931.6,268.3,7.1,1.4,12.66,33.9,650.3366,139.9948],
    [19287,1525557452,57.3009,-111.8016,1242.4,928.4,270.6,7.3,-0.1,12.43,33.95,650.4088,140.0025],
    [19288,1525557453,57.3009,-111.8028,1239.9,924.9,269.7,7.7,1.8,11.87,34.19,650.3968,139.9929],
    [19289,1525557454,57.3009,-111.8039,1237.9,922.9,271.1,7.8,0.8,12.64,34.6,650.3726,139.9975],
    [19290,1525557455,57.3009,-111.805,1235.8,920.1,271.3,7.6,1.3,12.6,33.86,650.3681,139.986],
    [19291,1525557456,57.3009,-111.8061,1234.1,918.1,272.6,7.8,-0.1,12.94,33.58,650.4016,139.9971],
    [19292,1525557457,57.301,-111.8073,1232.9,916.9,273.9,7.3,-0.7,13.28,33.66,650.3848,140.0071],
    [19293,1525557458,57.301,-111.8084,1232.9,916.9,272.8,7.6,1.0,12.36,33.9,650.4644,139.9894],
    [19294,1525557459,57.3011,-111.8095,1232.9,917.9,272.8,8.2,1.0,12.34,34.51,650.3015,140.0056],
    [19295,1525557460,57.3011,-111.8106,1232.8,918.8,272.3,9.9,1.1,12.21,33.75,650.1615,140.0017],
    [19296,1525557461,57.3011,-111.8117,1232.1,918.1,272.6,9.4,0.7,12.6,33.88,650.1371,140.0051],
    [19297,1525557462,57.3012,-111.8129,1231.6,917.6,270.6,10.1,3.1,13.19,33.43,650.051,140.0065],
    [19298,1525557463,57.3012,-111.814,1231.6,917.3,271.5,10.8,1.3,12.62,33.69,650.1572,139.9981],
    [19299,1525557464,57.3012,-111.8151,1232.4,917.4,273.2,10.4,-0.4,13.38,33.28,650.2379,140.0007],
    [19300,1525557465,57.3013,-111.8161,1234.1,918.1,272.4,11.0,0.7,12.87,33.27,650.3948,140.0003],
    [19301,1525557466,57.3013,-111.8173,1235.6,918.6,273.4,10.8,0.1,12.94,33.32,650.4431,140.007],
    [19302,1525557467,57.3014,-111.8184,1236.3,918.6,273.2,9.8,0.5,12.98,33.45,650.5901,139.9976],
    [19303,1525557468,57.3014,-111.8194,1235.7,917.7,273.6,10.0,-0.2,12.62,33.56,650.4642,139.9967],
    [19304,1525557469,57.3014,-111.8205,1234.6,915.6,273.2,10.1,-0.2,12.63,33.95,650.4499,140.006],
    [19305,1525557470,57.3015,-111.8216,1233.4,914.4,273.4,9.8,-1.2,12.25,33.32,650.5485,140.0067],
    [19306,1525557471,57.3015,-111.8227,1231.9,911.9,272.5,10.0,-1.0,12.29,33.39,650.552,139.9897],
    [19307,1525557472,57.3015,-111.8238,1230.5,910.5,271.5,10.0,-0.9,12.4,33.21,650.6433,140.0106],
    [19308,1525557473,57.3015,-111.8249,1230.9,910.9,271.0,9.9,-1.1,12.64,33.34,650.6555,139.9993],
    [19309,1525557474,57.3015,-111.826,1231.3,911.3,271.0,8.3,-1.9,12.65,33.14,650.7259,140.0045],
    [19310,1525557475,57.3015,-111.8271,1230.9,910.9,268.4,9.7,0.0,12.51,33.26,650.8173,140.0066],
    [19311,1525557476,57.3015,-111.8282,1230.1,910.1,268.1,10.5,-0.9,12.42,33.74,650.8112,140.0151],
    [19312,1525557477,57.3015,-111.8292,1229.5,909.5,266.9,10.5,-0.1,12.53,33.33,650.9974,139.9935],
    [19313,1525557478,57.3014,-111.8304,1229.5,909.5,266.5,10.7,-0.1,12.61,33.25,651.0555,140.0017],
    [19314,1525557479,57.3014,-111.8315,1228.9,908.9,267.6,10.8,-1.0,12.77,33.43,651.1772,139.9983],
    [19315,1525557480,57.3013,-111.8325,1228.0,906.9,267.8,9.9,-0.6,12.08,33.25,651.4116,140.0091],
    [19316,1525557481,57.3013,-111.8336,1227.2,906.2,268.2,10.0,0.1,12.98,32.51,651.5512,140.0147],
    [19317,1525557482,57.3013,-111.8347,1225.9,904.9,269.8,10.1,-0.8,13.18,32.28,651.5481,140.0124],
    [19318,1525557483,57.3013,-111.8358,1224.0,903.0,270.2,10.5,-0.2,12.89,33.51,651.3726,140.0095],
    [19319,1525557484,57.3013,-111.8367,1222.6,901.6,270.7,10.7,-0.4,12.47,32.84,651.1246,139.9963],
    [19320,1525557485,57.3013,-111.8379,1220.2,899.2,272.0,9.8,-1.1,12.46,32.79,650.8332,139.9887],
    [19321,1525557486,57.3013,-111.8391,1218.5,897.5,271.3,9.8,0.0,13.22,32.86,650.8148,139.9973],
    [19322,1525557487,57.3013,-111.8401,1218.8,897.8,272.3,10.2,-1.0,13.09,32.65,650.8957,140.0023],
    [19323,1525557488,57.3014,-111.8411,1220.2,898.2,272.9,9.3,-1.4,12.2,32.71,650.9724,139.997],
    [19324,1525557489,57.3014,-111.8422,1223.3,901.3,273.0,10.4,-1.4,13.19,31.98,651.1243,140.0077],
    [19325,1525557490,57.3014,-111.8433,1226.0,903.0,273.4,10.6,-1.8,12.87,32.93,651.1777,140.0112],
    [19326,1525557491,57.3014,-111.8442,1227.0,904.0,272.6,11.2,-0.8,12.65,32.85,651.2751,139.994],
    [19327,1525557492,57.3014,-111.8453,1226.6,902.6,271.9,10.7,-0.4,12.79,33.09,651.3349,140.0048],
    [19328,1525557493,57.3015,-111.8464,1225.5,901.5,272.1,11.6,-1.4,13.24,32.37,651.5538,139.999],
    [19329,1525557494,57.3015,-111.8474,1224.4,899.4,272.3,10.5,-2.0,12.92,32.61,651.6524,140.0098],
    [19330,1525557495,57.3015,-111.8484,1223.1,898.1,270.8,10.4,-0.7,12.83,33.05,651.8411,140.0035],
    [19331,1525557496,57.3015,-111.8495,1222.0,896.0,270.6,10.6,-0.6,12.81,33.06,651.9872,140.0182],
    [19332,1525557497,57.3015,-111.8504,1220.7,894.7,270.2,11.1,-0.3,13.1,32.26,652.0344,139.991],
    [19333,1525557498,57.3015,-111.8515,1218.8,891.8,270.8,11.4,-0.9,12.27,32.85,652.0221,139.992],
    [19334,1525557499,57.3015,-111.8526,1216.7,888.7,270.9,11.2,-1.1,12.6,32.64,651.7883,140.0027],
    [19335,1525557500,57.3015,-111.8536,1214.7,885.7,271.6,10.6,-1.6,12.89,32.91,651.6699,139.9977],
    [19336,1525557501,57.3015,-111.8547,1213.2,883.2,271.1,9.8,-0.3,12.86,32.59,651.4315,140.0007],
    [19337,1525557502,57.3015,-111.8557,1212.2,882.1,271.6,11.2,-0.3,13.32,32.18,651.1376,139.9988],
    [19338,1525557503,57.3015,-111.8567,1211.9,880.9,271.7,12.3,0.3,13.28,32.2,650.9194,139.9942],
    [19339,1525557504,57.3015,-111.8577,1213.6,882.6,270.7,11.6,1.2,13.43,31.95,650.7399,139.9952],
    [19340,1525557505,57.3016,-111.8588,1216.4,885.4,271.4,10.8,0.1,12.97,32.67,650.3129,140.0022],
    [19341,1525557506,57.3016,-111.8598,1219.3,888.3,270.5,10.5,1.1,12.9,32.62,649.9753,140.0013],
    [19342,1525557507,57.3016,-111.8608,1222.8,891.8,270.6,10.3,0.9,12.85,32.85,649.4513,139.9884],
    [19343,1525557508,57.3016,-111.8618,1225.8,894.8,271.7,10.3,0.0,12.53,32.88,649.4614,140.0071],
    [19344,1525557509,57.3016,-111.8628,1228.9,897.6,271.4,10.4,0.5,13.71,32.42,649.449,140.0078],
    [19345,1525557510,57.3016,-111.8638,1232.8,900.8,270.9,10.6,1.0,12.4,32.92,649.5651,139.9954],
    [19346,1525557511,57.3017,-111.8648,1238.0,905.0,270.4,9.7,1.8,12.24,32.76,649.5319,140.01],
    [19347,1525557512,57.3017,-111.8658,1242.6,909.3,271.4,9.3,0.8,12.99,32.64,649.5441,140.0033],
    [19348,1525557513,57.3017,-111.8668,1244.9,910.9,273.2,8.4,-0.9,12.9,33.17,649.4337,139.9971],
    [19349,1525557514,57.3017,-111.8679,1245.3,910.3,273.6,7.5,-1.3,12.98,33.0,649.2282,139.9966],
    [19350,1525557515,57.3018,-111.8689,1244.7,909.7,274.4,7.1,-2.4,13.29,32.61,648.7581,140.0022],
    [19351,1525557516,57.3018,-111.8699,1244.4,908.4,273.7,7.1,-2.0,12.29,33.11,648.6158,139.9945],
    [19352,1525557517,57.3018,-111.8709,1244.7,907.7,272.6,7.2,-1.6,13.39,32.32,648.2347,139.9897],
    [19353,1525557518,57.3018,-111.8719,1245.7,908.7,272.9,7.2,-2.7,13.33,32.73,648.2379,140.006],
    [19354,1525557519,57.3018,-111.873,1247.9,910.9,271.6,7.3,-1.9,12.93,33.45,648.0326,139.9946],
    [19355,1525557520,57.3018,-111.874,1251.7,914.6,270.2,6.9,-0.8,12.88,33.22,648.1465,139.9976],
    [19356,1525557521,57.3018,-111.8748,1255.4,918.8,269.7,7.4,-0.5,13.11,33.01,648.2567,140.0022],
    [19357,1525557522,57.3018,-111.8759,1260.0,924.0,271.2,7.4,-2.2,12.97,33.35,648.4474,139.9942],
    [19358,1525557523,57.3018,-111.877,1262.2,926.2,271.4,6.6,-2.4,12.91,33.18,648.6002,139.9947],
    [19359,1525557524,57.3018,-111.8781,1263.8,928.0,269.3,7.4,-0.9,13.05,33.7,648.7314,140.0181],
    [19360,1525557525,57.3018,-111.8789,1263.4,928.1,269.2,8.3,-1.0,13.02,33.05,648.9459,139.997],
    [19361,1525557526,57.3017,-111.8801,1261.5,926.2,268.0,8.2,-0.1,12.93,33.7,648.9129,139.9985],
    [19362,1525557527,57.3017,-111.8811,1259.4,924.5,268.3,9.1,-0.4,12.58,33.58,648.9713,139.9952],
    [19363,1525557528,57.3017,-111.8821,1257.0,922.0,268.5,9.4,-0.1,12.86,33.07,648.9795,139.9947],
    [19364,1525557529,57.3017,-111.8832,1254.4,918.4,268.0,9.6,0.8,12.88,33.25,649.0627,139.9901],
    [19365,1525557530,57.3017,-111.8842,1252.6,915.7,269.4,9.8,-0.3,13.0,33.1,649.0937,140.0076],
    [19366,1525557531,57.3017,-111.8852,1252.3,915.1,269.5,10.1,0.3,12.43,33.09,648.9629,139.9981],
    [19367,1525557532,57.3017,-111.8862,1251.7,913.7,269.8,9.6,0.3,13.05,33.23,648.7993,139.9974],
    [19368,1525557533,57.3017,-111.8873,1250.8,912.8,270.3,10.1,-0.3,12.67,32.87,648.6725,139.9951],
    [19369,1525557534,57.3017,-111.8883,1250.1,912.1,271.4,10.3,-1.6,13.19,32.37,648.5783,139.9949],
    [19370,1525557535,57.3017,-111.8894,1249.8,911.8,270.5,11.1,-0.3,12.82,33.2,648.4908,139.9925],
    [19371,1525557536,57.3017,-111.8904,1250.8,911.8,270.4,11.1,0.3,12.4,32.89,648.485,139.9881],
    [19372,1525557537,57.3017,-111.8914,1252.2,912.2,271.2,10.6,-0.4,12.36,33.13,648.4816,140.008],
    [19373,1525557538,57.3017,-111.8924,1253.9,912.9,271.1,10.6,-0.3,13.28,32.49,648.3546,139.9974],
    [19374,1525557539,57.3017,-111.8934,1255.7,913.7,271.0,10.2,-0.2,12.69,32.89,648.2564,140.0006],
    [19375,1525557540,57.3017,-111.8946,1256.6,913.6,271.6,11.1,-1.0,13.41,32.68,648.1052,140.0],
    [19376,1525557541,57.3017,-111.8956,1256.9,913.9,271.1,11.8,-0.3,12.84,33.45,648.0208,140.0012],
    [19377,1525557542,57.3017,-111.8967,1257.5,914.5,269.6,12.2,0.9,12.79,33.33,647.9729,140.0009],
    [19378,1525557543,57.3017,-111.8977,1258.3,916.0,269.8,12.4,0.2,12.94,32.59,648.0284,140.0048],
    [19379,1525557544,57.3017,-111.8987,1259.8,916.8,268.8,12.5,0.9,13.36,32.26,648.1058,140.0017],
    [19380,1525557545,57.3017,-111.8998,1261.4,918.4,268.5,12.3,0.8,12.76,33.0,648.2023,140.0077],
    [19381,1525557546,57.3017,-111.9008,1262.8,919.8,267.7,12.4,1.6,13.43,32.57,648.2481,139.9969],
    [19382,1525557547,57.3017,-111.9018,1263.6,919.6,267.2,12.1,1.8,12.99,32.9,648.446,140.0078],
    [19383,1525557548,57.3017,-111.9028,1263.3,919.3,267.4,11.8,1.5,12.97,32.62,648.5913,140.0121],
    [19384,1525557549,57.3017,-111.9038,1262.4,917.7,267.1,11.7,2.0,12.53,32.62,648.7151,140.0001],
    [19385,1525557550,57.3016,-111.9049,1261.1,917.1,267.2,12.1,2.0,12.7,32.86,648.9764,140.0009],
    [19386,1525557551,57.3016,-111.906,1259.5,915.5,268.5,12.3,0.9,12.51,32.81,649.2116,140.0037],
    [19387,1525557552,57.3016,-111.907,1258.0,914.0,268.4,11.9,1.7,12.87,33.17,649.3403,140.0017],
    [19388,1525557553,57.3016,-111.908,1256.4,912.4,268.8,10.9,1.5,12.8,32.71,649.5497,140.0063],
    [19389,1525557554,57.3016,-111.909,1254.5,909.5,270.0,10.9,0.1,12.68,32.73,649.6887,140.0155],
    [19390,1525557555,57.3016,-111.9101,1251.8,905.8,270.7,11.6,-0.2,12.75,32.8,649.6839,140.0119],
    [19391,1525557556,57.3016,-111.9111,1249.0,902.7,271.0,11.7,-0.3,12.94,32.8,649.6383,139.9923],
    [19392,1525557557,57.3016,-111.9122,1246.2,899.2,271.5,11.2,-0.4,12.44,32.69,649.7113,140.0048],
    [19393,1525557558,57.3017,-111.9133,1243.6,896.6,271.8,10.9,-0.5,12.76,32.91,649.8911,140.0093],
    [19394,1525557559,57.3017,-111.9143,1242.5,895.5,271.6,10.0,0.2,12.3,32.41,649.9045,140.014],
    [19395,1525557560,57.3017,-111.9154,1242.6,894.9,270.6,9.6,1.5,12.49,32.37,649.9386,140.0036],
    [19396,1525557561,57.3017,-111.9163,1242.7,894.7,271.0,10.2,1.4,12.93,32.79,649.8077,140.0115],
    [19397,1525557562,57.3017,-111.9173,1242.4,894.4,270.3,10.0,2.5,12.7,32.18,649.9956,139.9932],
    [19398,1525557563,57.3018,-111.9183,1241.4,893.4,269.9,9.5,2.7,12.74,32.18,650.2346,140.0086],
    [19399,1525557564,57.3018,-111.9194,1240.3,892.3,269.4,8.7,2.8,13.39,31.86,650.2526,140.0109],
    [19400,1525557565,57.3018,-111.9204,1239.8,890.8,269.3,8.5,1.9,12.86,32.41,650.2633,139.9775],
    [19401,1525557566,57.3018,-111.9215,1240.2,890.6,269.5,7.6,1.3,12.84,32.44,650.2908,140.0048],
    [19402,1525557567,57.3018,-111.9226,1239.5,889.5,269.5,8.5,0.4,12.48,32.59,650.1821,140.0003],
    [19403,1525557568,57.3018,-111.9236,1237.0,886.0,270.8,9.3,-1.4,12.78,33.26,650.1331,140.0029],
    [19404,1525557569,57.3018,-111.9246,1235.2,883.3,268.3,9.9,1.2,12.83,33.19,649.9284,140.0006],
    [19405,1525557570,57.3018,-111.9257,1234.8,880.9,268.4,9.9,0.6,12.8,32.96,649.772,139.9996],
    [19406,1525557571,57.3018,-111.9267,1234.8,879.8,268.3,9.9,0.8,12.67,32.97,649.4705,139.9954],
    [19407,1525557572,57.3018,-111.9277,1235.5,880.0,267.6,10.0,1.8,12.9,32.35,649.3032,139.993],
    [19408,1525557573,57.3018,-111.9287,1237.0,881.0,267.7,9.7,2.2,12.3,32.6,649.1654,140.0062],
    [19409,1525557574,57.3018,-111.9297,1238.8,881.7,267.9,9.3,2.4,12.79,32.68,648.9905,140.0036],
    [19410,1525557575,57.3018,-111.9307,1241.2,884.1,268.7,9.1,2.2,12.77,32.63,648.9307,140.0016],
    [19411,1525557576,57.3018,-111.9317,1244.0,886.0,269.0,9.6,2.8,12.49,32.6,648.9363,139.9995],
    [19412,1525557577,57.3018,-111.9328,1246.9,888.9,270.0,9.7,2.5,12.57,33.13,648.8337,140.0023],
    [19413,1525557578,57.3018,-111.9338,1249.1,891.1,270.7,9.4,2.5,12.78,32.43,648.6922,139.9986],
    [19414,1525557579,57.3018,-111.9348,1251.1,893.1,271.0,9.5,2.6,12.47,32.72,648.5546,139.9958],
    [19415,1525557580,57.3019,-111.9357,1252.4,893.4,272.1,9.4,1.6,12.58,32.61,648.461,140.0049],
    [19416,1525557581,57.3019,-111.9367,1253.3,893.4,272.4,9.3,1.5,12.68,33.26,648.4616,140.0043],
    [19417,1525557582,57.302,-111.9377,1254.2,893.3,271.7,9.7,2.2,12.74,32.44,648.4541,140.0019],
    [19418,1525557583,57.302,-111.9387,1255.5,893.5,272.0,9.3,1.4,12.8,32.63,648.332,140.0085],
    [19419,1525557584,57.302,-111.9397,1257.2,895.2,271.7,9.5,1.5,12.45,32.58,648.1727,140.0],
    [19420,1525557585,57.3021,-111.9407,1258.6,895.6,270.8,10.0,2.3,12.89,33.23,648.1363,139.9979],
    [19421,1525557586,57.3021,-111.9417,1259.0,896.0,271.6,9.9,1.1,12.7,33.35,648.0495,140.0073],
    [19422,1525557587,57.3021,-111.9426,1259.6,896.6,273.2,9.7,-0.5,12.43,32.65,647.921,139.9952],
    [19423,1525557588,57.3021,-111.9436,1260.8,896.8,272.0,9.1,0.8,12.85,32.99,647.8421,140.002],
    [19424,1525557589,57.3022,-111.9446,1262.2,898.2,271.6,8.9,0.7,12.78,33.0,647.6035,139.9939],
    [19425,1525557590,57.3022,-111.9455,1263.6,898.6,271.9,8.6,-0.2,12.58,33.11,647.6128,140.0002],
    [19426,1525557591,57.3022,-111.9465,1264.9,898.9,270.5,9.0,0.6,12.28,32.98,647.6099,140.0032],
    [19427,1525557592,57.3022,-111.9474,1266.3,899.3,269.9,9.4,0.4,12.77,33.3,647.6659,139.9963],
    [19428,1525557593,57.3022,-111.9484,1267.7,899.7,269.7,9.0,0.1,13.0,32.31,647.6245,139.9976],
    [19429,1525557594,57.3022,-111.9493,1269.5,900.5,268.6,9.3,0.6,12.34,32.74,647.6204,140.0025],
    [19430,1525557595,57.3022,-111.9503,1270.4,900.7,268.4,9.1,0.3,12.75,32.63,647.628,140.0036],
    [19431,1525557596,57.3022,-111.9512,1270.4,900.4,267.3,9.2,1.0,12.66,33.03,647.6467,140.0092],
    [19432,1525557597,57.3022,-111.9521,1270.1,899.1,266.2,10.1,1.5,12.26,33.01,647.6203,139.9927],
    [19433,1525557598,57.3021,-111.953,1270.0,899.0,266.4,10.0,1.1,12.73,33.46,647.6472,139.9988],
    [19434,1525557599,57.3021,-111.9538,1269.8,897.8,266.0,10.3,1.5,12.37,33.1,647.6512,139.9996],
    [19435,1525557600,57.3021,-111.9549,1270.1,897.1,266.3,10.0,1.4,12.83,33.0,647.5798,139.9997],
    [19436,1525557601,57.3021,-111.9559,1270.0,897.0,266.6,9.7,1.2,12.77,33.53,647.5851,139.9969],
    [19437,1525557602,57.302,-111.9568,1270.2,897.2,267.1,9.9,0.0,13.21,32.42,647.6328,140.0074],
    [19438,1525557603,57.302,-111.9577,1270.1,897.1,268.2,9.7,-1.4,13.27,32.51,647.4142,140.026],
    [19439,1525557604,57.302,-111.9586,1270.1,896.1,268.1,9.8,-1.3,12.96,32.88,647.1759,140.0111],
    [19440,1525557605,57.3019,-111.9595,1270.4,895.4,267.8,9.8,-0.7,13.26,32.93,646.6456,139.9861],
    [19441,1525557606,57.3019,-111.9604,1270.9,894.9,267.6,10.2,-0.2,12.89,32.96,646.2407,139.9984],
    [19442,1525557607,57.3019,-111.9614,1270.7,892.7,268.4,10.2,-0.2,12.7,33.9,645.8506,139.9915],
    [19443,1525557608,57.3019,-111.9623,1272.0,893.0,267.5,9.3,1.2,12.78,33.06,645.6722,140.004],
    [19444,1525557609,57.3019,-111.9632,1275.4,895.5,266.5,9.6,1.2,12.64,33.44,645.3622,140.0084],
    [19445,1525557610,57.3018,-111.9641,1281.1,901.1,266.9,9.8,-0.5,12.26,33.32,645.0894,140.0094],
    [19446,1525557611,57.3018,-111.965,1286.9,906.1,265.4,8.8,0.1,12.27,33.31,644.7368,139.9951],
    [19447,1525557612,57.3017,-111.9658,1291.5,910.7,263.3,10.5,1.3,12.28,33.55,644.4579,140.0067],
    [19448,1525557613,57.3017,-111.9667,1295.4,913.4,260.6,10.6,2.3,11.92,33.51,643.8543,139.9986],
    [19449,1525557614,57.3016,-111.9675,1298.7,916.7,259.1,10.5,1.3,12.8,32.85,643.6816,139.9879],
    [19450,1525557615,57.3015,-111.9684,1302.4,919.6,254.5,10.1,3.1,12.1,33.47,643.536,139.9933],
    [19451,1525557616,57.3013,-111.9691,1306.8,923.7,249.6,9.9,4.7,12.97,33.37,643.1987,140.0093],
    [19452,1525557617,57.3012,-111.9699,1311.2,927.9,246.9,9.4,3.9,12.79,33.58,643.1145,139.9871],
    [19453,1525557618,57.301,-111.9706,1316.0,932.0,242.9,8.8,4.4,12.73,33.83,643.0424,140.0049],
    [19454,1525557619,57.3008,-111.9713,1320.2,935.2,240.4,9.3,3.3,12.32,33.69,642.9023,139.9868],
    [19455,1525557620,57.3005,-111.9721,1323.6,937.6,239.0,10.7,1.5,12.25,33.7,642.8764,139.9927],
    [19456,1525557621,57.3003,-111.9727,1326.2,940.2,232.9,9.1,2.7,12.11,33.71,642.5545,139.9984],
    [19457,1525557622,57.2999,-111.9733,1328.7,942.7,228.3,8.7,2.0,12.33,33.8,642.3775,139.9867],
    [19458,1525557623,57.2996,-111.9738,1330.1,944.1,226.0,8.8,1.0,12.4,34.01,642.2135,140.0022],
    [19459,1525557624,57.2992,-111.9744,1331.7,945.2,221.7,8.7,1.6,11.71,34.08,641.964,139.9965],
    [19460,1525557625,57.2988,-111.9749,1332.7,946.7,219.4,9.7,1.7,12.2,34.48,641.8808,139.9942],
    [19461,1525557626,57.2984,-111.9753,1334.3,949.0,214.6,8.8,3.2,12.35,34.44,641.7125,139.9996],
    [19462,1525557627,57.298,-111.9757,1337.4,956.4,211.1,9.5,3.6,11.76,34.18,641.5497,139.9975],
    [19463,1525557628,57.2975,-111.9761,1339.7,960.8,209.7,10.5,2.6,11.79,34.26,641.3981,139.9942],
    [19464,1525557629,57.2971,-111.9764,1342.6,968.7,205.6,9.2,2.7,12.23,34.52,641.1523,140.0024],
    [19465,1525557630,57.2966,-111.9767,1345.0,973.6,201.4,8.0,3.2,12.14,34.6,641.0037,140.0017],
    [19466,1525557631,57.2961,-111.9769,1346.6,976.9,197.4,7.4,3.3,12.78,34.09,640.6892,139.9883],
    [19467,1525557632,57.2957,-111.977,1348.1,979.2,194.5,7.7,3.5,12.32,34.14,640.6439,140.0],
    [19468,1525557633,57.2951,-111.9771,1350.5,980.2,192.0,8.7,3.1,12.34,34.95,640.2546,140.0041],
    [19469,1525557634,57.2946,-111.9771,1353.2,979.2,189.0,8.4,2.7,12.1,34.53,640.0653,139.9956],
    [19470,1525557635,57.2941,-111.9771,1356.0,977.5,185.9,7.9,2.5,12.15,34.44,639.6832,139.9873],
    [19471,1525557636,57.2936,-111.9771,1358.9,976.5,184.3,9.1,2.9,11.71,34.75,639.5468,139.9898],
    [19472,1525557637,57.2931,-111.977,1361.5,976.5,183.0,10.2,2.0,12.8,34.44,639.3387,139.997],
    [19473,1525557638,57.2926,-111.9769,1364.2,979.4,179.7,9.1,2.2,11.82,34.93,638.9541,139.9982],
    [19474,1525557639,57.292,-111.9767,1367.8,982.7,174.6,7.4,2.6,12.38,34.25,638.5694,139.9881],
    [19475,1525557640,57.2915,-111.9764,1371.4,986.3,171.9,8.1,3.2,12.0,35.15,638.3987,139.9939],
    [19476,1525557641,57.291,-111.9761,1375.5,991.5,168.6,8.3,3.0,12.06,35.0,638.1691,140.002],
    [19477,1525557642,57.2905,-111.9757,1379.3,995.2,165.0,8.0,2.6,11.95,35.65,637.9577,139.9993],
    [19478,1525557643,57.29,-111.9753,1383.0,1000.0,161.1,7.4,2.0,11.99,35.22,637.85,140.0034],
    [19479,1525557644,57.2895,-111.9749,1386.4,1003.4,158.1,6.9,2.9,12.44,34.73,637.6623,139.9905],
    [19480,1525557645,57.289,-111.9743,1389.6,1007.6,155.7,7.3,2.9,12.06,34.97,637.495,139.9859],
    [19481,1525557646,57.2886,-111.9738,1392.5,1010.5,153.3,7.8,2.4,11.53,35.11,637.3952,140.0017],
    [19482,1525557647,57.2881,-111.9732,1395.3,1013.2,150.0,8.3,1.6,12.19,35.25,637.2422,139.9974],
    [19483,1525557648,57.2877,-111.9725,1397.3,1016.3,146.8,8.6,0.6,11.23,35.37,636.8774,139.9901],
    [19484,1525557649,57.2873,-111.9719,1399.2,1019.3,141.6,7.3,-0.3,11.98,34.94,636.6527,139.995],
    [19485,1525557650,57.2869,-111.9711,1401.0,1022.0,138.0,6.2,0.1,12.26,34.74,636.1085,139.9973],
    [19486,1525557651,57.2865,-111.9703,1403.0,1025.0,135.2,6.6,-0.1,12.08,34.65,635.7383,139.9937],
    [19487,1525557652,57.2861,-111.9695,1406.0,1030.0,132.0,6.7,-0.5,11.4,35.39,635.4013,139.9858],
    [19488,1525557653,57.2858,-111.9686,1409.7,1036.0,128.7,6.6,-0.9,11.69,35.44,635.0427,139.9844],
    [19489,1525557654,57.2854,-111.9677,1413.8,1043.0,125.8,6.6,-1.2,11.91,36.08,634.6302,140.005],
    [19490,1525557655,57.2851,-111.9668,1418.4,1051.7,122.4,6.6,-2.0,11.68,35.6,634.1955,139.9867],
    [19491,1525557656,57.2848,-111.9659,1423.2,1060.9,119.4,6.9,-2.7,12.06,35.26,633.9833,139.9947],
    [19492,1525557657,57.2846,-111.965,1428.3,1069.3,117.1,6.0,-2.0,11.51,35.75,633.8159,139.9944],
    [19493,1525557658,57.2843,-111.964,1434.0,1075.9,116.1,6.6,-0.8,11.65,35.64,633.5831,139.9934],
    [19494,1525557659,57.2841,-111.963,1438.6,1080.7,114.6,6.8,-0.8,12.23,35.39,633.4834,139.9939],
    [19495,1525557660,57.2839,-111.962,1442.9,1084.8,112.2,7.7,-1.1,10.96,35.87,633.4511,139.9827],
    [19496,1525557661,57.2837,-111.961,1446.5,1089.5,110.9,8.7,-0.4,12.05,35.78,633.2524,140.0026],
    [19497,1525557662,57.2835,-111.9599,1449.1,1093.1,108.6,8.9,-0.7,11.39,36.72,633.2359,140.0015],
    [19498,1525557663,57.2833,-111.9588,1451.7,1096.0,105.8,9.2,-1.2,11.32,36.07,633.2271,139.9907],
    [19499,1525557664,57.2832,-111.9578,1454.0,1099.1,103.7,10.5,-1.5,11.19,36.39,632.8458,139.9979],
    [19500,1525557665,57.2831,-111.9568,1455.4,1099.2,102.9,10.5,-0.2,11.9,35.57,632.6408,139.9954],
    [19501,1525557666,57.283,-111.9556,1456.1,1099.0,101.7,10.6,0.4,11.57,35.82,632.3961,139.9869],
    [19502,1525557667,57.2829,-111.9544,1457.1,1098.1,96.9,10.4,-1.5,11.5,36.01,631.9648,139.9968],
    [19503,1525557668,57.2828,-111.9533,1458.4,1096.7,95.5,9.5,-0.2,11.63,35.59,631.5705,139.9864],
    [19504,1525557669,57.2828,-111.9521,1460.7,1099.0,92.5,9.8,-1.3,11.24,36.47,631.2649,140.0026],
    [19505,1525557670,57.2827,-111.951,1464.3,1105.5,89.6,9.6,-2.2,11.17,36.36,630.9141,139.9883],
    [19506,1525557671,57.2827,-111.9498,1468.0,1111.5,90.2,9.7,-0.6,11.1,36.07,630.5464,139.9916],
    [19507,1525557672,57.2827,-111.9487,1472.0,1117.0,88.9,9.7,-1.1,11.19,36.59,630.2209,139.9895],
    [19508,1525557673,57.2827,-111.9475,1476.9,1122.9,87.1,9.2,-1.9,11.18,36.75,629.6467,139.9927],
    [19509,1525557674,57.2828,-111.9463,1481.2,1128.2,86.7,9.6,-1.6,10.96,36.31,629.3865,139.9849],
    [19510,1525557675,57.2828,-111.9451,1485.5,1133.5,86.7,9.3,-1.2,10.76,36.27,629.267,140.0039],
    [19511,1525557676,57.2828,-111.9441,1489.3,1137.3,87.1,9.1,-0.5,11.57,36.02,629.0546,140.0054],
    [19512,1525557677,57.2828,-111.9429,1494.9,1142.9,86.5,9.4,-1.0,11.28,36.45,628.7915,139.9897],
    [19513,1525557678,57.2829,-111.9417,1500.6,1147.6,84.3,9.9,-2.6,10.99,36.3,628.699,139.9982],
    [19514,1525557679,57.2829,-111.9405,1505.6,1152.6,83.8,9.9,-2.5,11.03,37.09,628.4437,140.0028],
    [19515,1525557680,57.2829,-111.9393,1508.9,1156.9,85.4,10.3,-0.8,11.52,36.31,628.2174,139.994],
    [19516,1525557681,57.283,-111.9382,1511.6,1160.6,84.6,10.2,-1.7,11.08,36.74,628.19,139.9976],
    [19517,1525557682,57.283,-111.937,1515.0,1164.0,83.7,9.9,-1.7,11.04,36.49,628.0067,139.9914],
    [19518,1525557683,57.283,-111.9359,1517.3,1167.3,85.3,10.8,0.0,10.54,36.45,627.9436,139.9864],
    [19519,1525557684,57.2831,-111.9347,1519.8,1170.8,84.5,11.2,-0.5,11.44,35.98,627.7752,140.0006],
    [19520,1525557685,57.2831,-111.9336,1522.3,1173.3,83.2,11.4,-1.2,11.07,36.2,627.4209,139.9905],
    [19521,1525557686,57.2832,-111.9325,1523.6,1175.6,82.8,11.0,-1.2,10.84,36.63,627.4133,139.987],
    [19522,1525557687,57.2832,-111.9314,1524.8,1176.8,82.5,10.6,-1.1,10.94,36.44,627.1002,139.9949],
    [19523,1525557688,57.2833,-111.9301,1526.7,1178.7,82.5,9.2,-0.6,10.74,36.8,626.8894,139.992],
    [19524,1525557689,57.2834,-111.9289,1528.7,1180.7,82.8,9.9,0.0,10.84,36.65,626.7472,139.9935],
    [19525,1525557690,57.2834,-111.9278,1531.5,1184.5,80.7,10.5,-1.2,11.14,36.46,626.4095,140.0026],
    [19526,1525557691,57.2835,-111.9266,1534.0,1187.4,81.7,10.2,-0.4,10.83,36.96,625.9453,139.9858],
    [19527,1525557692,57.2836,-111.9255,1536.6,1190.6,81.6,9.4,-1.3,10.9,37.22,625.6127,140.001],
    [19528,1525557693,57.2837,-111.9243,1539.4,1193.4,81.3,8.7,-2.2,10.64,37.18,625.3967,140.0135],
    [19529,1525557694,57.2837,-111.9232,1542.3,1196.6,82.8,8.9,-1.5,10.38,36.88,624.8938,139.98],
    [19530,1525557695,57.2838,-111.922,1546.0,1200.0,82.7,8.9,-2.2,9.98,36.88,624.6686,139.9941],
    [19531,1525557696,57.2838,-111.9208,1551.2,1205.2,82.7,8.4,-2.6,10.37,37.02,624.1753,139.9996],
    [19532,1525557697,57.2839,-111.9196,1555.9,1210.9,84.5,8.9,-1.5,10.59,37.03,623.9065,140.0006],
    [19533,1525557698,57.2839,-111.9185,1559.9,1214.9,84.9,8.6,-2.0,10.57,37.42,623.5607,139.9835],
    [19534,1525557699,57.2839,-111.9174,1564.8,1219.8,86.5,8.5,-1.0,10.34,37.1,623.0251,140.0003],
    [19535,1525557700,57.284,-111.9163,1569.3,1224.3,88.0,8.8,-0.5,10.7,36.37,622.6851,139.9947],
    [19536,1525557701,57.284,-111.9151,1574.5,1230.5,88.3,9.1,-1.3,10.25,36.84,622.4721,139.9941],
    [19537,1525557702,57.284,-111.914,1579.0,1235.0,89.4,9.0,-1.3,10.37,36.83,622.2261,139.9893],
    [19538,1525557703,57.284,-111.9128,1584.4,1240.4,90.8,8.7,-0.1,10.49,36.54,622.1653,139.997],
    [19539,1525557704,57.2839,-111.9116,1589.3,1246.3,91.3,8.7,0.5,10.26,37.57,622.1945,140.0017],
    [19540,1525557705,57.2839,-111.9105,1593.7,1250.7,90.3,8.5,-0.1,10.62,36.43,622.3616,139.9997],
    [19541,1525557706,57.2839,-111.9094,1597.8,1255.4,89.4,8.0,-0.8,10.16,37.18,622.3421,140.0051],
    [19542,1525557707,57.2839,-111.9082,1601.0,1259.0,89.1,8.2,-0.6,10.36,37.18,622.3784,140.0018],
    [19543,1525557708,57.2839,-111.9071,1602.2,1261.2,89.8,8.4,0.0,9.69,37.48,622.3992,139.991],
    [19544,1525557709,57.2839,-111.9059,1601.9,1260.9,88.6,8.5,-0.9,9.92,37.56,622.4046,139.9891],
    [19545,1525557710,57.2839,-111.9047,1600.7,1260.7,88.6,8.3,-0.6,10.11,38.24,622.1999,139.985],
    [19546,1525557711,57.284,-111.9036,1599.4,1259.4,88.1,8.5,-0.7,10.16,38.33,622.1895,139.9742],
    [19547,1525557712,57.284,-111.9024,1598.6,1258.6,87.4,8.4,-0.8,10.16,38.43,621.9748,140.0034],
    [19548,1525557713,57.284,-111.9012,1598.8,1258.8,88.4,9.2,0.7,10.07,37.92,621.6788,139.9839],
    [19549,1525557714,57.284,-111.9,1599.0,1259.0,88.6,9.8,0.9,9.6,38.22,621.4616,140.0057],
    [19550,1525557715,57.284,-111.8989,1599.8,1260.8,87.4,8.5,0.1,10.05,38.53,621.2691,140.0053],
    [19551,1525557716,57.2841,-111.8976,1601.3,1262.6,88.8,8.9,1.7,9.94,38.43,621.0512,139.9899],
    [19552,1525557717,57.2841,-111.8964,1603.2,1265.2,87.8,8.6,0.3,10.19,38.46,620.8678,139.9899],
    [19553,1525557718,57.2841,-111.8952,1606.1,1269.1,86.6,8.8,-0.5,10.66,38.61,620.5171,139.9995],
    [19554,1525557719,57.2842,-111.8939,1608.8,1272.8,87.1,9.5,-0.3,10.27,38.48,620.2809,139.9871],
    [19555,1525557720,57.2842,-111.8927,1611.7,1276.7,85.6,9.3,-1.7,10.6,38.28,620.0158,139.9994],
    [19556,1525557721,57.2842,-111.8915,1614.3,1279.3,86.3,9.5,-0.8,9.34,38.89,619.9875,139.9963],
    [19557,1525557722,57.2842,-111.8902,1618.1,1283.1,86.6,10.1,-0.6,9.81,38.95,619.8405,140.0074],
    [19558,1525557723,57.2843,-111.8889,1621.7,1286.7,85.5,9.6,-2.0,9.9,39.2,619.7254,139.9939],
    [19559,1525557724,57.2843,-111.8877,1624.8,1289.8,85.7,9.1,-2.0,10.01,39.25,619.46,139.9972],
    [19560,1525557725,57.2843,-111.8864,1627.3,1292.3,86.2,9.1,-1.7,9.71,39.29,619.2781,139.9914],
    [19561,1525557726,57.2843,-111.8853,1629.1,1294.1,86.1,8.7,-1.9,9.96,39.59,619.1491,139.9945],
    [19562,1525557727,57.2844,-111.8839,1630.7,1296.0,85.8,8.5,-2.3,9.84,39.2,618.9045,139.9993],
    [19563,1525557728,57.2844,-111.8826,1632.6,1298.6,85.3,7.8,-2.6,9.1,39.42,618.5936,139.9961],
    [19564,1525557729,57.2844,-111.8814,1634.9,1301.9,84.9,8.1,-2.6,9.94,39.48,618.4823,139.9978],
    [19565,1525557730,57.2845,-111.8801,1637.2,1304.2,85.6,7.5,-1.9,9.91,39.11,618.2924,140.0043],
    [19566,1525557731,57.2845,-111.8788,1640.1,1307.1,85.5,8.7,-2.3,9.61,39.39,617.9053,139.9969],
    [19567,1525557732,57.2845,-111.8776,1642.6,1310.7,84.7,8.4,-3.3,9.95,39.21,617.6737,139.9914],
    [19568,1525557733,57.2845,-111.8762,1645.6,1313.6,85.3,7.8,-2.9,9.27,39.28,617.3983,140.0011],
    [19569,1525557734,57.2846,-111.875,1648.4,1316.4,86.0,8.2,-2.3,9.82,39.25,617.066,139.9899],
    [19570,1525557735,57.2846,-111.8736,1651.3,1319.3,86.1,8.4,-2.6,9.26,39.48,616.7316,139.9914],
    [19571,1525557736,57.2846,-111.8723,1655.0,1322.0,86.0,8.5,-2.8,9.96,39.15,616.53,140.0037],
    [19572,1525557737,57.2846,-111.871,1658.8,1326.8,87.1,8.6,-1.7,10.16,38.9,616.3721,139.9914],
    [19573,1525557738,57.2846,-111.8698,1662.7,1331.7,87.0,8.9,-2.1,9.56,39.81,616.1224,140.0032],
    [19574,1525557739,57.2847,-111.8684,1666.9,1336.9,86.8,8.7,-2.3,9.43,40.11,616.0151,139.9996],
    [19575,1525557740,57.2847,-111.8672,1670.5,1340.5,87.2,8.6,-2.0,9.47,39.56,615.848,140.0025],
    [19576,1525557741,57.2847,-111.8658,1673.8,1343.8,86.7,8.7,-2.6,9.63,39.57,615.7923,140.0045],
    [19577,1525557742,57.2847,-111.8645,1676.4,1346.4,87.5,8.7,-1.9,9.38,39.68,615.7138,139.9969],
    [19578,1525557743,57.2847,-111.8633,1678.9,1348.9,87.9,8.7,-1.8,9.47,40.1,615.675,140.0015],
    [19579,1525557744,57.2847,-111.862,1681.1,1351.1,88.3,8.8,-1.4,9.28,39.8,615.5292,140.0057],
    [19580,1525557745,57.2847,-111.8607,1682.8,1352.8,88.9,8.9,-1.4,9.87,39.36,615.4257,140.013],
    [19581,1525557746,57.2847,-111.8593,1683.9,1353.9,88.8,8.2,-2.2,10.17,39.38,615.1989,139.9849],
    [19582,1525557747,57.2847,-111.858,1685.0,1355.0,90.1,8.8,-1.3,9.36,39.97,614.9605,140.0073],
    [19583,1525557748,57.2847,-111.8566,1685.7,1355.7,91.2,9.1,-0.6,9.44,39.85,614.905,139.9958],
    [19584,1525557749,57.2847,-111.8553,1686.6,1356.6,91.0,9.1,-1.5,8.94,39.84,614.7408,139.9779],
    [19585,1525557750,57.2846,-111.8541,1688.5,1359.2,89.9,9.8,-2.9,9.34,39.96,614.6266,140.014],
    [19586,1525557751,57.2846,-111.8527,1691.2,1362.2,90.2,9.5,-2.5,9.7,39.72,614.5056,140.0041],
    [19587,1525557752,57.2846,-111.8513,1693.4,1365.4,89.7,9.2,-3.3,9.31,40.64,614.4515,139.9968],
    [19588,1525557753,57.2846,-111.8499,1695.3,1368.3,90.0,9.0,-2.1,9.16,39.96,614.3473,140.0028],
    [19589,1525557754,57.2845,-111.8486,1697.1,1371.1,92.5,8.3,0.9,9.66,39.41,614.271,140.0028],
    [19590,1525557755,57.2845,-111.8472,1698.5,1372.5,91.6,9.0,0.0,9.45,40.05,614.1628,139.9932],
    [19591,1525557756,57.2845,-111.8459,1699.7,1374.7,91.2,9.1,-0.6,8.99,39.9,613.9869,139.9954],
    [19592,1525557757,57.2845,-111.8445,1700.8,1375.8,90.9,9.3,-0.8,9.02,40.21,613.8914,140.0033],
    [19593,1525557758,57.2845,-111.8432,1702.1,1377.1,91.2,9.8,-0.6,9.1,40.57,613.6354,139.9969],
    [19594,1525557759,57.2844,-111.8418,1703.6,1378.6,90.4,9.4,-1.4,9.21,39.84,613.512,139.9963],
    [19595,1525557760,57.2844,-111.8406,1704.8,1379.8,90.3,9.5,-1.2,9.17,40.43,613.3294,139.9906],
    [19596,1525557761,57.2844,-111.839,1706.3,1381.8,89.7,9.4,-1.8,8.98,39.97,613.0582,140.0078],
    [19597,1525557762,57.2844,-111.8377,1708.5,1384.5,88.3,9.7,-2.8,8.79,40.02,612.9843,140.0028],
    [19598,1525557763,57.2844,-111.8363,1710.8,1386.8,88.5,10.0,-2.2,8.62,40.01,612.8138,139.9912],
    [19599,1525557764,57.2844,-111.8349,1713.2,1389.2,88.4,10.0,-2.2,8.87,40.56,612.6415,140.0016],
    [19600,1525557765,57.2844,-111.8336,1715.5,1392.5,88.2,10.2,-2.2,8.45,40.24,612.5643,140.002],
    [19601,1525557766,57.2844,-111.8324,1717.6,1394.6,88.0,10.7,-2.5,8.76,40.17,612.4417,139.9842],
    [19602,1525557767,57.2844,-111.8309,1720.0,1397.0,86.7,10.5,-3.6,8.99,40.74,612.3367,139.997],
    [19603,1525557768,57.2844,-111.8294,1722.0,1399.0,87.6,10.5,-2.3,8.86,40.31,612.2931,139.9935],
    [19604,1525557769,57.2844,-111.828,1723.7,1400.7,87.3,11.2,-2.6,8.94,40.35,612.209,139.995],
    [19605,1525557770,57.2844,-111.8266,1725.4,1402.9,86.8,10.7,-3.0,8.98,40.77,612.0993,139.9903],
    [19606,1525557771,57.2844,-111.8253,1726.9,1404.9,87.7,10.7,-1.8,8.83,40.51,612.0191,139.9975],
    [19607,1525557772,57.2845,-111.8239,1728.2,1406.2,87.2,10.8,-2.6,8.24,40.49,611.7768,139.9963],
    [19608,1525557773,57.2845,-111.8225,1729.4,1407.4,87.5,10.7,-2.4,9.02,40.05,611.5916,139.9945],
    [19609,1525557774,57.2845,-111.821,1730.2,1408.5,88.1,10.4,-2.1,8.82,40.34,611.3783,139.9995],
    [19610,1525557775,57.2845,-111.8196,1731.4,1410.4,88.9,10.3,-1.5,8.59,40.51,611.1027,139.9941],
    [19611,1525557776,57.2845,-111.8182,1733.0,1413.0,89.3,10.4,-1.5,8.54,40.39,610.712,139.9961],
    [19612,1525557777,57.2845,-111.8169,1735.1,1416.1,89.1,10.3,-2.0,8.2,40.38,610.6149,140.0004],
    [19613,1525557778,57.2845,-111.8153,1738.2,1419.2,89.5,10.4,-1.7,9.12,40.04,610.0668,139.9897],
    [19614,1525557779,57.2844,-111.8139,1741.0,1423.0,89.7,10.6,-1.8,8.77,40.35,609.6802,140.0028],
    [19615,1525557780,57.2844,-111.8125,1744.4,1427.4,89.5,10.2,-2.2,8.83,39.88,609.0596,139.9957],
    [19616,1525557781,57.2844,-111.8111,1748.2,1432.2,89.9,9.9,-2.0,8.87,40.17,608.6447,139.9974],
    [19617,1525557782,57.2844,-111.8096,1752.0,1437.0,90.3,9.6,-2.0,8.9,40.07,608.3393,140.0004],
    [19618,1525557783,57.2844,-111.8082,1756.6,1441.6,91.1,9.2,-1.1,8.29,40.4,607.6549,139.9958],
    [19619,1525557784,57.2843,-111.8068,1761.7,1446.7,91.9,9.2,-0.2,9.05,40.04,606.7374,140.002],
    [19620,1525557785,57.2843,-111.8054,1767.8,1452.8,91.7,8.6,-0.3,8.73,40.26,606.4971,139.9967],
    [19621,1525557786,57.2843,-111.8041,1775.1,1460.1,91.5,8.6,-0.4,8.61,40.35,605.7813,139.9926],
    [19622,1525557787,57.2843,-111.8027,1783.0,1468.0,91.4,8.5,-0.6,8.77,40.18,605.1939,139.996],
    [19623,1525557788,57.2843,-111.8013,1790.9,1475.9,91.5,8.4,-0.6,8.77,40.25,604.7397,139.989],
    [19624,1525557789,57.2842,-111.7999,1798.9,1485.1,91.9,8.3,-0.6,8.82,40.92,604.5113,139.9888],
    [19625,1525557790,57.2842,-111.7986,1806.8,1495.1,91.8,7.9,-0.9,8.8,40.4,603.9549,140.0015],
    [19626,1525557791,57.2842,-111.7972,1814.7,1502.0,91.8,7.7,-1.0,8.19,40.74,603.823,140.0026],
    [19627,1525557792,57.2841,-111.7959,1821.8,1507.7,91.8,7.5,-1.0,7.95,40.96,603.2029,139.9845],
    [19628,1525557793,57.2841,-111.7946,1828.0,1513.0,92.1,7.3,-0.7,8.7,40.52,603.029,140.0048],
    [19629,1525557794,57.2841,-111.7933,1834.2,1519.2,91.7,7.4,-1.0,8.31,40.99,602.8405,139.9991],
    [19630,1525557795,57.2841,-111.792,1839.7,1525.7,91.0,8.1,-1.5,8.34,41.32,602.5262,139.9988],
    [19631,1525557796,57.284,-111.7906,1844.8,1532.9,91.1,8.2,-1.0,8.85,41.12,602.2489,139.9964],
    [19632,1525557797,57.284,-111.7893,1849.1,1538.1,91.5,7.3,-0.5,8.56,40.82,601.9745,139.995],
    [19633,1525557798,57.284,-111.788,1853.0,1543.0,90.7,7.5,-1.5,7.81,41.67,601.7845,140.0081],
    [19634,1525557799,57.284,-111.7867,1856.6,1546.6,90.9,7.7,-1.4,8.33,42.14,601.5505,139.9907],
    [19635,1525557800,57.284,-111.7854,1860.6,1551.6,90.8,8.2,-1.5,8.11,41.85,601.2821,139.9993],
    [19636,1525557801,57.2839,-111.7841,1864.2,1556.2,90.4,7.9,-1.6,8.06,41.95,601.1146,139.9916],
    [19637,1525557802,57.2839,-111.7828,1867.4,1560.4,90.6,7.9,-1.3,8.23,41.91,600.8744,140.0041],
    [19638,1525557803,57.2839,-111.7815,1870.3,1564.3,89.6,8.5,-2.5,8.13,42.39,600.6304,139.9691],
    [19639,1525557804,57.2839,-111.7801,1873.4,1567.4,89.4,8.0,-2.5,7.52,42.15,600.3134,140.024],
    [19640,1525557805,57.2839,-111.7788,1876.1,1571.1,90.1,8.4,-1.8,7.91,42.77,599.9527,139.9991],
    [19641,1525557806,57.2838,-111.7775,1879.0,1574.0,89.8,7.5,-2.3,8.13,41.79,599.585,139.9889],
    [19642,1525557807,57.2838,-111.7762,1882.0,1577.0,90.0,7.1,-2.2,8.0,42.05,599.3522,139.9776],
    [19643,1525557808,57.2838,-111.7749,1885.6,1580.6,91.2,6.5,-0.7,7.88,42.49,598.709,139.9957],
    [19644,1525557809,57.2838,-111.7736,1889.0,1584.0,91.1,6.9,-0.9,7.81,43.05,598.2957,140.004],
    [19645,1525557810,57.2838,-111.7722,1893.8,1588.8,89.9,6.9,-1.8,7.63,42.83,597.9658,139.982],
    [19646,1525557811,57.2838,-111.7709,1899.1,1594.1,89.8,7.0,-1.3,7.54,42.82,597.6692,139.9631],
    [19647,1525557812,57.2837,-111.7697,1904.6,1599.6,89.7,6.9,-1.2,7.59,43.12,597.0322,140.0256],
    [19648,1525557813,57.2837,-111.7683,1910.4,1605.4,88.4,6.6,-2.2,7.44,43.02,596.9033,139.9645],
    [19649,1525557814,57.2837,-111.767,1915.8,1610.8,89.2,8.1,-1.0,7.84,42.59,596.6984,140.0123],
    [19650,1525557815,57.2837,-111.7658,1920.6,1615.6,90.5,6.6,0.8,7.45,43.14,596.3589,139.9883],
    [19651,1525557816,57.2837,-111.7645,1925.4,1620.4,91.8,6.7,2.1,7.64,43.19,596.2919,139.986],
    [19652,1525557817,57.2837,-111.7631,1930.7,1625.7,89.3,7.7,-0.5,7.18,44.03,596.1302,140.0148],
    [19653,1525557818,57.2838,-111.7618,1935.2,1629.2,90.5,6.9,1.5,7.58,43.43,595.5804,139.9741],
    [19654,1525557819,57.2838,-111.7606,1938.1,1632.1,91.6,7.5,2.4,6.76,44.02,595.3952,139.968],
    [19655,1525557820,57.2838,-111.7592,1941.8,1634.8,89.4,7.4,0.1,7.02,44.01,594.956,140.0035],
    [19656,1525557821,57.2838,-111.7578,1944.1,1637.1,91.1,7.7,2.3,7.66,43.93,594.5576,139.9917],
    [19657,1525557822,57.2838,-111.7565,1946.6,1639.5,90.6,8.5,1.3,7.25,44.59,594.0969,140.0031],
    [19658,1525557823,57.2838,-111.7552,1950.7,1644.1,88.7,8.1,0.0,6.99,44.38,593.8761,140.0056],
    [19659,1525557824,57.2838,-111.7539,1955.2,1649.2,91.0,7.4,3.1,7.16,44.64,593.5342,139.9826],
    [19660,1525557825,57.2838,-111.7525,1959.7,1654.6,91.0,6.8,3.0,7.04,44.78,593.1581,140.0053],
    [19661,1525557826,57.2838,-111.7511,1964.8,1660.6,90.5,6.6,2.9,7.06,44.39,592.7456,139.9855],
    [19662,1525557827,57.2839,-111.7498,1970.4,1665.4,90.6,7.1,2.8,7.89,44.28,592.5313,139.9978],
    [19663,1525557828,57.2839,-111.7484,1975.6,1670.7,89.4,7.4,1.4,6.71,44.79,591.9857,139.9985],
    [19664,1525557829,57.2839,-111.7471,1980.4,1675.5,89.9,7.3,2.2,6.41,44.67,591.7075,139.9982],
    [19665,1525557830,57.2839,-111.7457,1985.2,1680.3,90.0,7.5,2.3,6.92,45.2,591.3032,140.0022],
    [19666,1525557831,57.2839,-111.7443,1990.2,1686.7,89.5,6.9,2.0,6.29,44.92,590.9259,139.9894],
    [19667,1525557832,57.284,-111.743,1995.2,1693.2,89.5,7.0,2.1,7.28,44.78,590.3809,139.996],
    [19668,1525557833,57.284,-111.7416,2000.9,1698.9,89.4,7.6,2.1,6.9,45.92,589.9431,139.993],
    [19669,1525557834,57.284,-111.7403,2006.2,1704.2,90.1,8.3,2.9,6.81,45.79,589.6528,139.9912],
    [19670,1525557835,57.284,-111.7389,2011.5,1710.6,89.9,8.6,2.3,6.95,45.45,589.1522,140.0],
    [19671,1525557836,57.2841,-111.7376,2017.2,1717.3,90.0,8.7,2.6,6.84,45.49,588.4794,140.0081],
    [19672,1525557837,57.2841,-111.7363,2022.9,1724.6,90.0,8.7,2.6,6.66,45.9,587.9855,139.9707],
    [19673,1525557838,57.2841,-111.735,2028.2,1731.9,89.4,8.2,2.0,7.46,45.06,587.6433,140.0007],
    [19674,1525557839,57.2841,-111.7336,2034.9,1745.6,89.6,8.2,2.7,6.87,45.42,587.3705,140.0109],
    [19675,1525557840,57.2842,-111.7322,2042.1,1761.7,90.1,9.0,3.0,6.68,46.19,586.9645,139.9672],
    [19676,1525557841,57.2842,-111.7309,2049.0,1773.3,88.3,9.7,0.8,6.23,45.87,586.6675,140.0121],
    [19677,1525557842,57.2842,-111.7296,2055.7,1777.6,88.7,9.3,1.5,6.22,46.14,586.4167,139.9905],
    [19678,1525557843,57.2842,-111.7282,2061.2,1770.9,89.0,9.7,1.5,6.02,46.28,586.2453,139.9962],
    [19679,1525557844,57.2843,-111.727,2065.9,1770.5,86.9,9.2,-0.7,5.84,46.44,586.0844,140.0027],
    [19680,1525557845,57.2843,-111.7255,2071.2,1774.1,87.3,8.8,0.1,6.39,46.18,585.9833,139.9994],
    [19681,1525557846,57.2843,-111.7241,2075.4,1778.4,87.0,9.4,0.0,5.65,46.84,585.725,140.0034],
    [19682,1525557847,57.2844,-111.7228,2078.8,1781.8,86.7,9.3,0.0,6.16,46.95,585.5388,139.9962],
    [19683,1525557848,57.2844,-111.7215,2081.3,1785.3,87.0,8.6,0.4,6.26,47.2,585.4742,140.0053],
    [19684,1525557849,57.2844,-111.7201,2083.5,1788.5,87.0,8.2,0.4,6.16,47.69,585.1869,139.9885],
    [19685,1525557850,57.2845,-111.7187,2085.5,1791.5,87.5,8.4,0.9,5.44,47.29,584.9424,140.0006],
    [19686,1525557851,57.2845,-111.7174,2087.7,1794.7,86.9,8.5,0.1,6.1,48.02,584.7831,139.9901],
    [19687,1525557852,57.2846,-111.716,2090.7,1797.7,87.0,8.9,0.2,5.91,47.39,584.5418,139.9844],
    [19688,1525557853,57.2846,-111.7148,2093.2,1800.2,86.8,9.4,-0.1,6.38,47.51,584.2234,139.9981],
    [19689,1525557854,57.2846,-111.7134,2096.0,1803.0,87.9,9.5,0.9,5.63,48.4,584.0478,139.9968],
    [19690,1525557855,57.2847,-111.712,2098.4,1805.4,88.3,8.9,0.7,6.12,47.26,583.9008,139.9957],
    [19691,1525557856,57.2847,-111.7106,2101.4,1809.4,88.5,8.5,0.8,5.99,47.74,583.5959,139.9961],
    [19692,1525557857,57.2847,-111.7092,2104.7,1816.1,89.5,8.0,2.1,5.55,48.0,583.4499,139.9979],
    [19693,1525557858,57.2847,-111.7079,2107.9,1829.3,89.3,8.0,1.9,5.28,48.03,583.1835,140.0121],
    [19694,1525557859,57.2848,-111.7065,2110.5,1847.4,89.1,7.7,1.5,6.07,47.52,583.0095,139.9863],
    [19695,1525557860,57.2848,-111.7052,2113.0,1861.5,89.6,7.4,1.4,6.23,47.49,582.9732,139.9823],
    [19696,1525557861,57.2848,-111.7037,2116.2,1871.2,89.3,7.2,-0.1,5.41,48.19,582.9058,140.0111],
    [19697,1525557862,57.2848,-111.7024,2119.1,1877.2,89.7,7.4,-0.7,5.96,47.77,582.6748,139.9985],
    [19698,1525557863,57.2848,-111.701,2121.5,1876.6,90.9,8.2,-0.8,5.4,48.53,582.5444,139.998],
    [19699,1525557864,57.2848,-111.6996,2123.7,1868.1,91.8,6.7,-1.1,6.0,48.14,582.1629,139.9819],
    [19700,1525557865,57.2847,-111.6983,2125.1,1854.8,93.7,5.8,0.1,5.36,49.26,581.9964,139.9923],
    [19701,1525557866,57.2847,-111.6969,2126.6,1856.6,95.8,5.8,1.0,5.67,48.64,581.7868,140.0147],
    [19702,1525557867,57.2846,-111.6954,2128.9,1855.9,97.4,6.5,1.4,5.13,48.53,581.606,139.9787],
    [19703,1525557868,57.2845,-111.6942,2131.5,1850.8,98.1,6.7,0.9,5.32,48.95,581.3794,139.9983],
    [19704,1525557869,57.2844,-111.6928,2135.0,1846.9,98.6,6.5,0.5,5.56,48.97,581.0343,140.0],
    [19705,1525557870,57.2843,-111.6913,2138.3,1851.0,99.7,6.8,1.0,5.22,49.35,580.8728,139.9979],
    [19706,1525557871,57.2842,-111.6901,2141.0,1854.7,99.4,6.7,0.1,5.07,49.79,580.4633,139.9814],
    [19707,1525557872,57.2841,-111.6886,2144.4,1857.4,100.8,6.8,1.7,5.12,49.82,580.257,140.0117],
    [19708,1525557873,57.284,-111.6874,2147.6,1860.6,100.4,6.5,0.9,5.21,50.02,580.2108,139.9996],
    [19709,1525557874,57.2839,-111.6859,2151.6,1864.9,100.2,6.5,0.7,5.12,50.71,580.1213,139.9811],
    [19710,1525557875,57.2838,-111.6847,2155.6,1870.6,100.2,6.5,0.7,5.12,50.22,580.1547,140.0237],
    [19711,1525557876,57.2836,-111.6833,2159.8,1876.9,99.8,6.1,0.4,4.99,51.0,580.1776,140.027],
    [19712,1525557877,57.2835,-111.6819,2163.0,1881.9,99.3,6.6,-0.2,4.95,50.41,580.1402,140.0091],
    [19713,1525557878,57.2834,-111.6806,2164.6,1885.7,100.1,7.1,0.8,4.95,51.15,579.915,139.9732],
    [19714,1525557879,57.2833,-111.6793,2165.4,1888.5,100.5,7.2,0.8,5.02,50.66,580.0113,140.0277],
    [19715,1525557880,57.2832,-111.678,2165.8,1892.8,100.6,7.2,0.8,4.75,50.61,579.6817,139.9806],
    [19716,1525557881,57.2831,-111.6767,2165.6,1897.2,101.3,6.8,0.7,5.13,50.66,579.589,139.9794],
    [19717,1525557882,57.2829,-111.6753,2165.9,1903.9,101.5,6.6,-0.3,5.08,50.67,579.4305,139.9846],
    [19718,1525557883,57.2828,-111.674,2167.5,1910.1,102.8,6.3,0.2,4.56,51.21,579.3617,139.9949],
    [19719,1525557884,57.2826,-111.6727,2167.7,1915.9,102.7,6.6,-0.1,4.77,52.01,579.6055,140.0388],
    [19720,1525557885,57.2825,-111.6714,2169.5,1924.8,103.7,6.8,0.9,5.01,51.43,579.6522,140.0218],
    [19721,1525557886,57.2824,-111.6701,2172.1,1933.3,103.4,6.3,0.7,4.81,51.77,579.7128,139.9977],
    [19722,1525557887,57.2822,-111.6688,2174.1,1938.1,103.4,6.5,0.5,5.11,51.89,579.8018,140.0049],
    [19723,1525557888,57.282,-111.6674,2175.3,1940.3,103.1,6.8,0.2,4.59,52.27,579.7789,140.0032],
    [19724,1525557889,57.2819,-111.6661,2174.3,1939.3,102.9,8.0,-0.4,4.99,51.95,579.7615,139.996],
    [19725,1525557890,57.2817,-111.6648,2172.8,1937.8,101.5,8.6,-1.6,4.94,52.26,579.7924,140.0056],
    [19726,1525557891,57.2816,-111.6636,2171.9,1935.9,100.9,8.4,-0.9,4.43,52.49,579.8319,139.9977],
    [19727,1525557892,57.2815,-111.6621,2171.1,1935.1,100.8,9.0,0.5,4.71,52.59,579.9095,139.9903],
    [19728,1525557893,57.2814,-111.6608,2171.0,1935.0,98.3,8.8,-0.5,4.62,53.15,580.062,140.0052],
    [19729,1525557894,57.2813,-111.6595,2171.2,1934.2,96.7,9.1,-0.1,4.59,52.5,580.1209,140.0175],
    [19730,1525557895,57.2812,-111.6582,2171.3,1934.3,93.9,9.1,-1.1,4.57,53.02,580.162,140.0087],
    [19731,1525557896,57.2812,-111.6568,2170.9,1934.9,91.1,9.1,-1.4,4.58,52.98,580.365,140.0002],
    [19732,1525557897,57.2812,-111.6554,2169.8,1933.8,89.8,8.1,0.2,4.59,53.41,580.6014,140.0115],
    [19733,1525557898,57.2812,-111.6542,2168.5,1932.2,87.4,8.3,0.4,5.27,53.01,580.6755,140.0048],
    [19734,1525557899,57.2812,-111.6528,2167.1,1927.1,82.5,8.7,-1.2,4.37,53.18,580.8116,139.9836],
    [19735,1525557900,57.2813,-111.6515,2165.8,1920.2,79.3,8.8,-1.0,4.0,53.7,580.9161,140.0079],
    [19736,1525557901,57.2815,-111.6502,2163.4,1909.0,77.4,7.3,0.0,5.03,52.86,580.9922,140.0118],
    [19737,1525557902,57.2816,-111.649,2160.7,1900.9,74.6,7.0,0.0,4.44,53.46,581.0667,140.0076],
    [19738,1525557903,57.2818,-111.6477,2158.5,1893.1,70.2,5.9,-1.2,4.23,53.81,581.2013,140.0191],
    [19739,1525557904,57.282,-111.6465,2157.0,1889.1,68.0,5.0,-0.4,4.07,53.75,581.2586,140.0106],
    [19740,1525557905,57.2823,-111.6453,2155.8,1884.7,64.9,5.5,-0.5,4.56,53.69,581.4559,139.999],
    [19741,1525557906,57.2826,-111.6441,2154.7,1881.6,61.2,6.1,-1.4,4.66,53.34,581.4919,140.0048],
    [19742,1525557907,57.2829,-111.6429,2153.2,1879.2,59.0,5.9,-0.9,4.42,53.72,581.788,140.0069],
    [19743,1525557908,57.2832,-111.6419,2152.2,1876.3,55.6,6.3,-1.8,3.97,53.86,582.0436,140.012],
    [19744,1525557909,57.2836,-111.6408,2151.1,1874.3,52.8,6.1,-1.8,4.26,54.03,582.3928,140.0158],
    [19745,1525557910,57.284,-111.6398,2149.5,1871.4,51.9,5.2,0.2,4.32,54.17,582.8304,140.0094],
    [19746,1525557911,57.2844,-111.6388,2147.6,1867.6,47.9,5.9,-0.5,3.89,53.95,583.1647,140.0205],
    [19747,1525557912,57.2848,-111.6378,2145.0,1864.0,44.7,6.3,-0.5,4.47,53.82,583.6942,140.003],
    [19748,1525557913,57.2853,-111.6369,2141.1,1859.1,41.8,6.4,-0.2,3.86,54.01,584.1229,140.0143],
    [19749,1525557914,57.2858,-111.636,2136.8,1853.8,37.4,7.5,-0.7,4.18,54.5,584.5401,140.0208],
    [19750,1525557915,57.2863,-111.6352,2131.9,1848.6,34.5,7.4,-0.4,4.21,54.53,584.8385,140.0069],
    [19751,1525557916,57.2868,-111.6345,2126.9,1842.9,31.8,7.7,0.2,4.17,54.13,585.1362,140.0038],
    [19752,1525557917,57.2874,-111.6338,2121.2,1836.2,29.2,7.4,0.1,4.1,54.23,585.6494,140.0072],
    [19753,1525557918,57.288,-111.6331,2114.7,1828.7,26.8,6.9,0.4,4.89,53.88,586.0361,140.023],
    [19754,1525557919,57.2885,-111.6324,2108.9,1822.3,23.8,7.7,0.6,4.19,54.64,586.3024,140.0252],
    [19755,1525557920,57.2892,-111.6318,2103.2,1816.2,21.2,8.0,0.6,4.0,54.36,586.5498,140.0081],
    [19756,1525557921,57.2898,-111.6313,2097.5,1809.5,18.8,8.1,0.7,4.85,53.98,586.6028,140.0016],
    [19757,1525557922,57.2904,-111.6308,2091.9,1803.9,16.5,7.9,0.5,3.8,54.1,586.6559,139.9969],
    [19758,1525557923,57.291,-111.6303,2086.7,1798.7,13.7,8.3,1.1,3.96,54.57,586.6381,139.9922],
    [19759,1525557924,57.2917,-111.6299,2082.1,1793.1,9.8,9.2,1.3,4.46,54.07,586.7198,140.0062],
    [19760,1525557925,57.2924,-111.6296,2078.8,1789.8,6.1,9.7,1.3,4.87,53.95,586.9383,140.007],
    [19761,1525557926,57.293,-111.6294,2076.9,1787.9,2.7,9.8,1.2,4.39,54.25,587.2199,140.0139],
    [19762,1525557927,57.2937,-111.6292,2076.2,1786.2,359.9,9.6,1.2,4.33,54.64,587.501,139.9954],
    [19763,1525557928,57.2943,-111.6291,2075.8,1785.8,358.0,9.0,1.1,4.85,53.64,587.6634,139.9953],
    [19764,1525557929,57.295,-111.629,2075.0,1785.0,355.3,9.4,1.2,4.02,53.83,587.9535,140.0185],
    [19765,1525557930,57.2957,-111.629,2072.6,1782.6,352.3,9.7,1.6,3.78,54.16,588.278,140.0124],
    [19766,1525557931,57.2964,-111.629,2069.3,1779.3,349.6,10.1,1.3,3.96,54.05,588.4806,140.0132],
    [19767,1525557932,57.297,-111.6291,2065.7,1775.7,345.9,11.1,0.4,3.66,53.75,588.6114,140.0093],
    [19768,1525557933,57.2977,-111.6292,2062.2,1773.2,343.5,10.6,0.5,4.43,53.71,588.8356,140.0153],
    [19769,1525557934,57.2983,-111.6294,2058.8,1769.8,340.9,10.6,0.9,4.38,53.57,588.9429,140.0001],
    [19770,1525557935,57.2989,-111.6297,2055.0,1765.0,337.5,11.0,0.8,4.59,53.53,589.0355,140.0091],
    [19771,1525557936,57.2995,-111.63,2052.0,1762.0,334.8,11.0,1.0,4.34,53.49,589.0604,140.0212],
    [19772,1525557937,57.3002,-111.6304,2048.9,1758.9,331.8,10.9,1.0,4.42,53.4,589.0308,139.9949],
    [19773,1525557938,57.3007,-111.6308,2046.3,1756.1,329.0,10.8,1.2,4.49,53.21,588.9902,140.0089],
    [19774,1525557939,57.3014,-111.6313,2044.5,1754.5,325.9,11.1,1.1,4.47,53.05,588.9701,140.0001],
    [19775,1525557940,57.3019,-111.6318,2043.4,1753.4,323.7,11.0,0.7,4.5,53.02,588.9379,140.0037],
    [19776,1525557941,57.3024,-111.6324,2042.8,1752.8,321.4,10.4,0.8,4.31,52.78,588.9479,140.0102],
    [19777,1525557942,57.303,-111.633,2042.9,1752.9,319.4,10.0,0.4,4.18,52.8,588.8986,140.0081],
    [19778,1525557943,57.3034,-111.6337,2043.4,1754.4,317.0,9.7,0.6,4.53,52.61,588.9073,140.0007],
    [19779,1525557944,57.3039,-111.6343,2044.0,1754.8,314.6,10.0,0.7,4.67,52.49,589.0764,139.9924],
    [19780,1525557945,57.3044,-111.6351,2044.2,1756.2,311.9,10.7,0.8,4.58,52.43,589.2155,140.0083],
    [19781,1525557946,57.3048,-111.6358,2044.5,1756.7,309.8,10.4,1.0,4.53,52.34,589.3193,140.012],
    [19782,1525557947,57.3052,-111.6366,2044.8,1757.8,307.5,10.6,1.4,4.66,52.75,589.5131,139.994],
    [19783,1525557948,57.3056,-111.6374,2044.8,1758.9,304.9,11.2,1.8,4.16,52.21,589.8579,140.0132],
    [19784,1525557949,57.306,-111.6382,2043.7,1758.9,304.1,10.9,0.8,4.48,52.09,590.0381,140.0046],
    [19785,1525557950,57.3063,-111.6389,2041.7,1756.7,302.6,11.2,0.7,4.64,52.34,590.1599,140.0088],
    [19786,1525557951,57.3067,-111.6399,2038.7,1754.7,300.0,11.7,0.9,4.63,52.53,590.3166,140.0013],
    [19787,1525557952,57.3071,-111.6408,2036.0,1752.0,299.0,11.0,0.3,5.03,51.63,590.7258,140.0121],
    [19788,1525557953,57.3074,-111.6417,2032.9,1748.9,296.5,11.2,1.3,4.85,51.96,590.8966,140.011],
    [19789,1525557954,57.3077,-111.6426,2030.0,1746.0,294.7,11.2,1.5,4.82,52.12,590.9284,140.0108],
    [19790,1525557955,57.308,-111.6435,2027.2,1743.2,292.9,11.6,1.9,5.29,51.69,591.3248,140.0119],
    [19791,1525557956,57.3082,-111.6443,2024.7,1740.7,291.9,11.9,1.7,4.44,51.79,591.5666,140.0078],
    [19792,1525557957,57.3085,-111.6454,2021.1,1737.4,290.8,12.0,1.4,4.41,51.9,591.8714,140.005],
    [19793,1525557958,57.3087,-111.6464,2017.9,1734.2,289.3,11.8,1.9,4.78,51.85,592.1017,140.0055],
    [19794,1525557959,57.309,-111.6474,2015.2,1732.0,288.6,11.9,1.8,4.64,51.76,592.1144,140.0055],
    [19795,1525557960,57.3092,-111.6484,2011.9,1728.9,288.5,11.1,1.3,4.66,51.58,592.4483,139.9969],
    [19796,1525557961,57.3094,-111.6493,2008.5,1725.5,288.1,10.9,1.2,4.75,52.17,592.6537,140.0105],
    [19797,1525557962,57.3096,-111.6503,2005.2,1722.2,287.9,10.5,1.0,4.2,51.63,592.816,139.9976],
    [19798,1525557963,57.3098,-111.6514,2001.9,1718.9,287.7,10.5,0.8,4.92,51.61,592.9162,140.0121],
    [19799,1525557964,57.31,-111.6523,1999.2,1716.2,287.5,9.6,1.0,5.01,51.45,593.1114,140.0068],
    [19800,1525557965,57.3103,-111.6534,1996.4,1713.4,287.5,10.1,0.8,4.83,51.9,593.2649,140.0075],
    [19801,1525557966,57.3105,-111.6544,1993.8,1710.8,287.0,10.5,1.5,4.31,51.5,593.3461,140.0086],
    [19802,1525557967,57.3106,-111.6553,1991.9,1709.9,286.9,10.7,1.4,4.92,51.02,593.5151,140.0062],
    [19803,1525557968,57.3109,-111.6563,1989.8,1707.8,287.0,10.4,1.5,5.52,51.06,593.6963,140.0037],
    [19804,1525557969,57.3111,-111.6574,1987.9,1706.5,286.4,10.1,1.8,5.07,51.24,593.8511,140.0147],
    [19805,1525557970,57.3113,-111.6584,1985.7,1704.7,286.2,9.8,1.2,5.59,50.92,593.9549,140.0105],
    [19806,1525557971,57.3115,-111.6595,1983.5,1703.5,284.9,10.5,1.4,5.32,51.32,594.3168,140.0136],
    [19807,1525557972,57.3116,-111.6605,1981.5,1702.6,283.7,10.6,1.4,4.91,51.27,594.5226,140.0114],
    [19808,1525557973,57.3118,-111.6615,1979.6,1702.7,282.5,10.5,1.1,4.93,51.17,594.6623,140.0041],
    [19809,1525557974,57.312,-111.6625,1977.7,1704.4,281.5,10.4,1.1,5.26,50.88,594.7416,140.0074],
    [19810,1525557975,57.3121,-111.6635,1975.4,1707.1,280.3,10.3,0.8,4.82,50.92,595.119,140.0179],
    [19811,1525557976,57.3122,-111.6646,1972.8,1710.8,279.4,10.6,0.6,4.9,51.21,595.3136,140.0127],
    [19812,1525557977,57.3123,-111.6656,1969.5,1715.7,277.9,10.9,0.9,5.46,50.27,595.5933,139.999],
    [19813,1525557978,57.3124,-111.6667,1966.9,1722.2,277.1,10.1,0.6,4.53,51.22,595.9174,140.0158],
    [19814,1525557979,57.3125,-111.6677,1964.2,1725.0,275.8,9.7,1.0,5.72,50.5,596.1644,140.0268],
    [19815,1525557980,57.3126,-111.6687,1961.0,1724.0,274.2,9.9,1.5,4.82,50.96,596.2775,140.0037],
    [19816,1525557981,57.3126,-111.6698,1957.4,1720.4,273.2,9.9,1.4,5.25,50.5,596.5516,140.011],
    [19817,1525557982,57.3127,-111.6708,1953.3,1716.3,272.0,10.2,1.5,5.17,51.24,596.6619,140.0089],
    [19818,1525557983,57.3127,-111.6719,1949.7,1712.7,269.9,9.9,1.7,5.49,50.59,596.9135,140.0119],
    [19819,1525557984,57.3127,-111.6729,1946.9,1709.9,267.5,9.1,2.1,4.9,50.71,596.9699,140.0244],
    [19820,1525557985,57.3127,-111.674,1944.5,1707.5,265.4,9.2,2.1,5.2,51.2,597.1914,140.0009],
    [19821,1525557986,57.3126,-111.675,1941.6,1704.6,263.0,10.0,2.6,5.32,51.33,597.2523,140.0052],
    [19822,1525557987,57.3126,-111.676,1939.0,1702.0,260.2,10.8,3.0,5.41,50.54,597.3763,140.0086],
    [19823,1525557988,57.3124,-111.6771,1936.4,1699.4,258.1,10.3,2.5,4.63,50.68,597.4642,139.9973],
    [19824,1525557989,57.3123,-111.6781,1934.4,1697.4,254.6,9.7,3.8,5.07,50.64,597.6628,140.0163],
    [19825,1525557990,57.3122,-111.679,1932.9,1695.9,252.9,9.3,3.0,6.22,50.1,597.7563,140.0026],
    [19826,1525557991,57.312,-111.68,1931.7,1695.0,250.3,9.3,3.1,5.44,50.39,597.9413,140.0],
    [19827,1525557992,57.3118,-111.6809,1930.6,1692.8,248.1,8.9,2.5,5.24,50.28,598.013,140.0168],
    [19828,1525557993,57.3116,-111.6818,1929.1,1688.5,245.7,9.0,2.4,5.43,50.57,598.1995,140.0031],
    [19829,1525557994,57.3113,-111.6827,1927.2,1681.7,242.6,8.9,3.3,5.22,50.2,598.3391,140.0082],
    [19830,1525557995,57.3111,-111.6836,1925.0,1672.6,240.7,9.5,3.0,5.58,50.87,598.505,140.0133],
    [19831,1525557996,57.3108,-111.6844,1923.0,1665.4,238.5,9.6,3.2,6.24,49.77,598.638,140.015],
    [19832,1525557997,57.3105,-111.6852,1921.2,1659.5,235.9,9.6,4.0,5.51,50.33,598.8387,139.9988],
    [19833,1525557998,57.3101,-111.6861,1919.5,1655.7,234.7,10.0,3.1,5.59,50.17,599.0626,140.004],
    [19834,1525557999,57.3098,-111.6868,1918.1,1653.3,233.0,9.6,3.0,5.8,50.48,599.1444,139.9887],
    [19835,1525558000,57.3094,-111.6876,1916.4,1649.6,230.7,9.1,3.4,6.12,50.14,599.52,140.0223],
    [19836,1525558001,57.3091,-111.6883,1913.8,1646.8,229.4,9.4,2.8,5.17,50.27,599.7411,140.0045],
    [19837,1525558002,57.3087,-111.689,1911.4,1643.4,227.7,9.8,2.7,6.01,50.05,600.0004,140.0081],
    [19838,1525558003,57.3083,-111.6897,1908.7,1641.4,225.1,9.9,3.2,5.69,50.1,600.289,140.0251],
    [19839,1525558004,57.3078,-111.6903,1906.0,1639.0,223.5,10.9,3.2,5.72,50.06,600.38,140.0272],
    [19840,1525558005,57.3074,-111.6909,1903.1,1636.1,221.3,10.5,3.5,5.66,49.8,600.6884,139.9977],
    [19841,1525558006,57.307,-111.6915,1899.8,1632.8,218.6,10.1,3.7,5.48,49.62,600.8433,139.9979],
    [19842,1525558007,57.3065,-111.6921,1896.3,1628.3,217.1,10.8,3.0,5.67,49.63,601.1203,140.0125],
    [19843,1525558008,57.306,-111.6925,1892.9,1623.7,215.1,10.1,2.1,5.27,49.35,601.2797,140.0092],
    [19844,1525558009,57.3055,-111.693,1889.6,1618.6,212.4,9.3,1.9,6.32,48.76,601.5584,139.9972],
    [19845,1525558010,57.305,-111.6934,1887.0,1614.1,210.2,9.3,2.5,5.84,49.33,601.8871,140.0103],
    [19846,1525558011,57.3045,-111.6938,1884.2,1610.2,207.8,9.4,2.9,5.78,49.44,602.1078,140.0129],
    [19847,1525558012,57.304,-111.6942,1881.3,1605.8,205.5,9.0,2.9,5.84,48.91,602.2354,140.0087],
    [19848,1525558013,57.3034,-111.6945,1877.9,1601.9,202.9,8.7,3.0,5.71,49.44,602.425,140.0044],
    [19849,1525558014,57.3029,-111.6948,1874.6,1597.5,201.2,9.1,3.2,5.45,48.6,602.4901,140.0047],
    [19850,1525558015,57.3023,-111.695,1871.1,1594.2,198.4,8.7,3.5,6.09,48.5,602.6373,140.0123],
    [19851,1525558016,57.3017,-111.6952,1868.0,1590.2,196.3,8.9,3.1,5.79,48.61,602.7421,140.01],
    [19852,1525558017,57.3012,-111.6954,1865.3,1587.3,193.9,8.8,3.2,5.63,48.45,602.954,139.9941],
    [19853,1525558018,57.3006,-111.6955,1863.3,1585.3,191.6,9.1,3.1,6.05,48.09,603.0826,139.989],
    [19854,1525558019,57.3001,-111.6956,1861.6,1585.0,189.0,8.9,3.3,6.07,48.16,603.4358,140.0139],
    [19855,1525558020,57.2994,-111.6956,1860.2,1589.9,185.6,8.2,2.5,5.59,47.95,603.6241,140.0057],
    [19856,1525558021,57.2989,-111.6955,1858.8,1598.8,183.3,8.7,1.6,6.01,48.1,604.1376,140.0075],
    [19857,1525558022,57.2983,-111.6954,1856.6,1603.9,182.1,9.8,1.3,5.99,48.03,604.3047,140.0089],
    [19858,1525558023,57.2977,-111.6952,1853.4,1605.0,178.9,8.9,2.0,6.07,47.71,604.4578,140.0005],
    [19859,1525558024,57.2971,-111.6951,1849.7,1602.0,175.6,7.9,2.2,6.16,48.15,604.5703,139.9947],
    [19860,1525558025,57.2965,-111.6948,1845.5,1595.5,173.9,8.5,2.1,5.46,48.03,604.8335,140.012],
    [19861,1525558026,57.2959,-111.6945,1841.7,1583.3,171.8,8.7,2.5,5.88,48.14,605.1332,140.0061],
    [19862,1525558027,57.2953,-111.6942,1838.3,1571.2,168.8,8.1,2.4,5.39,47.95,605.3746,140.008],
    [19863,1525558028,57.2948,-111.6938,1836.3,1573.0,165.6,8.0,1.9,5.38,47.95,605.5786,140.0059],
    [19864,1525558029,57.2942,-111.6934,1834.1,1587.5,163.2,8.9,1.9,6.52,47.79,605.985,140.0081],
    [19865,1525558030,57.2936,-111.6929,1831.2,1585.6,159.6,8.1,1.8,5.7,47.95,606.1972,139.9953],
    [19866,1525558031,57.293,-111.6923,1828.0,1573.0,156.2,7.6,1.7,6.29,47.51,606.4508,140.021],
    [19867,1525558032,57.2925,-111.6917,1824.5,1562.7,152.7,6.9,1.9,6.22,48.56,606.7153,140.0148],
    [19868,1525558033,57.2921,-111.6912,1821.6,1548.6,149.6,6.5,1.8,5.87,48.0,607.0763,139.9999],
    [19869,1525558034,57.2915,-111.6904,1817.6,1540.2,145.9,6.7,1.1,6.03,47.58,607.2444,139.9997],
    [19870,1525558035,57.291,-111.6895,1813.3,1536.0,143.6,7.4,1.7,6.32,47.33,607.4806,140.012],
    [19871,1525558036,57.2905,-111.6887,1809.3,1530.3,139.5,6.7,0.6,6.6,46.9,607.6495,139.9975],
    [19872,1525558037,57.2901,-111.6878,1805.3,1525.0,136.3,6.5,1.0,6.34,47.61,607.7825,140.0203],
    [19873,1525558038,57.2897,-111.6869,1801.8,1519.8,135.1,8.9,2.2,6.94,47.2,607.8795,140.0051],
    [19874,1525558039,57.2893,-111.686,1798.7,1516.7,131.2,8.2,2.0,6.91,47.16,607.9808,139.9984],
    [19875,1525558040,57.2889,-111.685,1795.8,1514.5,126.3,6.7,1.1,6.29,47.62,608.0237,140.0007],
    [19876,1525558041,57.2886,-111.6839,1793.4,1514.1,122.8,7.0,1.1,7.07,46.94,608.1083,140.0095],
    [19877,1525558042,57.2883,-111.6828,1791.6,1515.6,119.4,7.2,0.8,6.25,47.16,608.1724,140.0088],
    [19878,1525558043,57.288,-111.6817,1790.2,1517.6,116.2,7.4,0.8,7.23,46.61,608.2129,139.9939],
    [19879,1525558044,57.2877,-111.6806,1789.1,1518.8,112.4,7.0,0.7,6.12,47.35,608.3285,140.005],
    [19880,1525558045,57.2875,-111.6794,1788.1,1522.6,108.7,7.0,0.8,6.57,46.93,608.4097,139.9952],
    [19881,1525558046,57.2874,-111.6783,1787.4,1525.2,105.2,7.2,0.7,6.76,46.85,608.4786,140.003],
    [19882,1525558047,57.2872,-111.6771,1786.6,1527.7,100.5,7.1,0.0,6.46,47.02,608.5941,140.0049],
    [19883,1525558048,57.2872,-111.6759,1785.8,1529.8,97.8,7.7,0.7,6.45,47.39,608.8269,139.996],
    [19884,1525558049,57.2871,-111.6747,1784.8,1533.8,93.7,7.6,0.0,6.09,47.13,609.054,140.002],
    [19885,1525558050,57.2871,-111.6734,1783.7,1536.0,89.8,7.7,0.2,7.24,46.39,609.1751,139.9995],
    [19886,1525558051,57.2871,-111.6722,1782.5,1539.4,86.9,7.8,0.9,6.25,47.39,609.5585,140.0068],
    [19887,1525558052,57.2872,-111.671,1780.7,1543.1,82.8,8.0,0.5,6.21,46.93,609.7618,140.004],
    [19888,1525558053,57.2873,-111.6698,1778.1,1543.1,79.5,7.3,1.0,6.17,47.07,610.1504,140.0012],
    [19889,1525558054,57.2874,-111.6686,1775.5,1540.5,76.0,7.5,1.3,6.63,47.52,610.2642,140.0091],
    [19890,1525558055,57.2876,-111.6675,1772.7,1537.7,71.5,8.1,0.1,6.95,46.52,610.7253,139.9995],
    [19891,1525558056,57.2878,-111.6662,1768.9,1533.9,67.2,8.4,-0.2,7.09,46.63,610.9706,140.0129],
    [19892,1525558057,57.288,-111.6651,1764.9,1529.9,64.5,7.5,0.5,6.17,46.8,611.1814,140.0013],
    [19893,1525558058,57.2883,-111.664,1760.7,1524.0,61.3,7.4,0.7,6.26,46.87,611.2748,139.9989],
    [19894,1525558059,57.2886,-111.6629,1756.4,1519.4,57.3,7.6,-0.3,6.88,46.6,611.3225,139.9994],
    [19895,1525558060,57.289,-111.6619,1752.6,1514.6,54.0,7.8,0.1,7.03,47.02,611.5458,140.0127],
    [19896,1525558061,57.2893,-111.6609,1749.4,1511.4,50.8,7.9,-0.2,6.67,46.75,611.8267,140.0099],
    [19897,1525558062,57.2897,-111.66,1746.8,1508.8,47.9,7.6,-0.1,6.78,46.6,611.8917,140.0071],
    [19898,1525558063,57.2901,-111.659,1745.1,1508.1,45.4,7.0,1.5,7.07,45.96,612.3222,140.0029],
    [19899,1525558064,57.2906,-111.6581,1743.5,1506.5,42.4,7.5,1.9,6.67,46.82,612.5239,140.0085],
    [19900,1525558065,57.2911,-111.6572,1741.2,1502.4,39.4,8.0,2.5,6.72,46.61,612.8931,140.0077],
    [19901,1525558066,57.2915,-111.6565,1738.6,1493.6,36.1,8.6,2.4,6.1,46.82,613.2542,140.0143],
    [19902,1525558067,57.292,-111.6557,1735.7,1482.4,32.1,9.3,1.3,6.86,46.5,613.7235,140.0081],
    [19903,1525558068,57.2925,-111.655,1732.3,1473.0,29.6,9.0,1.3,6.87,47.21,613.8968,140.0114],
    [19904,1525558069,57.2931,-111.6543,1728.5,1462.9,27.4,8.9,1.7,6.64,46.34,614.2608,140.0078],
    [19905,1525558070,57.2936,-111.6537,1724.6,1455.6,25.6,9.0,2.2,6.66,46.55,614.4233,140.0031],
    [19906,1525558071,57.2941,-111.6532,1720.4,1449.2,23.7,9.1,2.1,6.84,46.23,614.8437,140.0064],
    [19907,1525558072,57.2947,-111.6526,1715.1,1441.8,21.0,9.3,1.5,7.79,46.13,614.987,140.0029],
    [19908,1525558073,57.2953,-111.652,1710.3,1435.3,17.7,10.0,1.2,6.68,46.41,615.4253,140.0071],
    [19909,1525558074,57.2959,-111.6516,1706.3,1430.3,15.0,10.3,1.1,7.06,46.22,615.7512,140.0262],
    [19910,1525558075,57.2965,-111.6511,1702.6,1425.6,12.5,10.3,0.7,6.9,46.32,615.9716,140.0001],
    [19911,1525558076,57.2971,-111.6507,1699.5,1421.4,11.1,9.8,1.1,7.3,45.67,616.135,139.9963],
    [19912,1525558077,57.2977,-111.6504,1695.5,1416.8,10.3,8.9,1.5,6.52,45.98,616.4075,140.006],
    [19913,1525558078,57.2983,-111.65,1690.6,1411.6,8.6,8.8,1.5,7.36,45.85,616.675,140.0052],
    [19914,1525558079,57.2989,-111.6498,1686.1,1406.1,6.0,9.6,1.8,7.0,46.13,616.9885,139.9954],
    [19915,1525558080,57.2995,-111.6495,1682.3,1402.3,2.9,10.4,1.4,6.82,45.88,617.0886,140.0104],
    [19916,1525558081,57.3001,-111.6493,1679.3,1398.3,361.7,9.7,1.6,7.88,45.57,617.547,139.9899],
    [19917,1525558082,57.3007,-111.6491,1675.9,1394.9,359.9,9.7,1.3,7.24,45.66,617.8053,140.0101],
    [19918,1525558083,57.3014,-111.649,1672.2,1391.2,358.2,9.0,0.6,7.16,45.78,618.078,140.0143],
    [19919,1525558084,57.302,-111.6489,1669.1,1388.1,357.9,7.5,-0.1,7.27,45.65,618.292,140.0008],
    [19920,1525558085,57.3026,-111.6488,1665.9,1384.9,355.7,8.0,0.1,7.05,45.81,618.4942,139.9979],
    [19921,1525558086,57.3032,-111.6488,1662.5,1381.5,354.1,7.5,0.1,6.97,45.21,618.8423,140.001],
    [19922,1525558087,57.3039,-111.6488,1658.3,1377.3,352.4,7.2,-0.4,7.14,45.4,619.3193,140.0081],
    [19923,1525558088,57.3045,-111.6489,1654.4,1373.4,349.9,7.6,0.1,7.88,44.86,619.5183,140.018],
    [19924,1525558089,57.3051,-111.649,1650.9,1369.9,347.6,7.8,-0.3,7.34,45.58,619.7803,139.9997],
    [19925,1525558090,57.3057,-111.6491,1647.1,1366.1,345.7,7.9,-0.6,7.14,44.86,619.9999,139.9984],
    [19926,1525558091,57.3063,-111.6493,1642.9,1361.6,344.4,7.6,-0.4,7.57,45.33,620.2061,140.0092],
    [19927,1525558092,57.3069,-111.6495,1638.0,1356.0,342.7,8.2,-0.7,7.75,44.37,620.6462,140.0093],
    [19928,1525558093,57.3076,-111.6497,1633.6,1351.6,339.6,10.2,-0.1,7.88,44.28,620.9041,140.0109],
    [19929,1525558094,57.3082,-111.65,1629.9,1347.6,337.7,10.8,0.0,7.56,45.29,621.1152,140.0094],
    [19930,1525558095,57.3088,-111.6503,1626.2,1343.2,337.0,10.4,-0.3,7.62,45.49,621.4053,140.0084],
    [19931,1525558096,57.3093,-111.6506,1623.0,1340.0,335.4,10.7,0.2,7.91,44.35,621.5161,140.0089],
    [19932,1525558097,57.31,-111.6509,1619.4,1336.4,334.9,9.8,0.1,7.65,44.54,621.7217,140.0097],
    [19933,1525558098,57.3105,-111.6513,1615.9,1332.9,333.5,10.0,0.0,7.74,44.45,621.9673,140.0095],
    [19934,1525558099,57.3111,-111.6516,1612.7,1329.7,331.9,10.2,0.0,7.64,43.99,622.1,140.0107],
    [19935,1525558100,57.3117,-111.6521,1609.3,1326.3,330.4,9.9,0.2,8.62,43.65,622.1355,139.9967],
    [19936,1525558101,57.3122,-111.6525,1606.6,1323.6,328.6,10.0,0.3,8.14,43.74,622.1256,140.0147],
    [19937,1525558102,57.3128,-111.653,1603.9,1320.9,327.2,9.5,0.4,7.55,43.83,622.0911,139.9913],
    [19938,1525558103,57.3133,-111.6535,1601.5,1318.5,325.2,10.4,-0.3,7.97,43.55,622.3283,140.0132],
    [19939,1525558104,57.3138,-111.654,1599.4,1316.4,322.2,11.2,-0.2,8.24,43.97,622.4568,140.0138],
    [19940,1525558105,57.3143,-111.6546,1598.5,1315.5,320.9,10.3,-0.9,8.68,43.11,622.608,139.9917],
    [19941,1525558106,57.3148,-111.6552,1598.4,1316.1,318.2,10.9,-0.2,8.57,42.68,622.9356,140.0236],
    [19942,1525558107,57.3153,-111.6558,1598.3,1316.3,316.5,11.3,-0.4,8.68,42.51,623.1264,140.026],
    [19943,1525558108,57.3157,-111.6564,1597.0,1315.0,315.1,11.0,-0.1,8.46,42.45,623.757,140.0059],
    [19944,1525558109,57.3162,-111.6571,1595.2,1313.2,312.6,11.1,0.9,8.58,42.45,624.0659,140.0081],
    [19945,1525558110,57.3166,-111.6578,1593.0,1311.0,311.2,10.6,0.8,7.8,42.96,624.3953,140.0127],
    [19946,1525558111,57.317,-111.6585,1589.5,1307.5,309.8,9.9,1.5,8.22,42.73,624.8627,140.005],
    [19947,1525558112,57.3174,-111.6592,1584.7,1303.7,308.0,10.3,1.7,8.55,42.46,625.379,140.0183],
    [19948,1525558113,57.3178,-111.66,1579.4,1298.7,308.3,9.3,0.5,7.77,42.74,625.6166,140.0111],
    [19949,1525558114,57.3182,-111.6607,1574.6,1294.5,306.6,9.4,1.1,8.95,42.43,626.0339,140.0026],
    [19950,1525558115,57.3186,-111.6615,1570.0,1291.3,305.1,9.3,1.4,8.18,42.72,626.4947,140.0116],
    [19951,1525558116,57.3189,-111.6623,1564.5,1287.6,304.1,8.8,0.9,7.69,42.67,626.6973,140.0116],
    [19952,1525558117,57.3193,-111.6631,1558.9,1285.3,301.2,10.1,1.7,7.93,42.53,627.0509,140.0124],
    [19953,1525558118,57.3196,-111.6638,1553.7,1282.7,299.4,10.1,1.6,8.83,42.37,627.3128,140.009],
    [19954,1525558119,57.3199,-111.6648,1548.7,1284.1,297.9,10.4,1.4,8.46,43.4,627.5398,140.006],
    [19955,1525558120,57.3202,-111.6657,1544.0,1284.7,295.8,11.0,1.7,8.67,42.16,627.7511,140.0023],
    [19956,1525558121,57.3205,-111.6666,1540.0,1288.7,295.0,10.3,1.4,8.38,42.46,627.9107,140.0075],
    [19957,1525558122,57.3208,-111.6674,1535.7,1292.4,293.9,10.4,0.6,8.25,42.35,628.1337,140.0009],
    [19958,1525558123,57.321,-111.6684,1532.3,1294.3,292.4,9.8,0.0,8.73,42.49,628.449,140.0145],
    [19959,1525558124,57.3213,-111.6693,1529.2,1293.2,290.4,10.1,-0.5,8.63,42.32,628.6234,140.0009],
    [19960,1525558125,57.3215,-111.6702,1526.3,1290.3,288.7,10.2,-0.9,8.79,42.76,629.1938,140.0163],
    [19961,1525558126,57.3217,-111.6712,1523.4,1287.4,286.1,10.7,-0.3,8.95,41.69,629.5465,140.0158],
    [19962,1525558127,57.3218,-111.6721,1520.6,1284.6,284.4,10.8,-0.4,9.44,41.63,630.1664,139.9965],
    [19963,1525558128,57.322,-111.6731,1517.4,1281.4,282.1,10.9,0.8,8.02,42.22,630.2342,139.9816],
    [19964,1525558129,57.3221,-111.674,1513.4,1277.4,281.0,10.6,0.8,8.17,41.95,630.6107,140.0064],
    [19965,1525558130,57.3222,-111.675,1507.9,1271.9,279.5,10.3,1.1,9.14,41.81,630.7915,140.0037],
    [19966,1525558131,57.3223,-111.676,1502.1,1266.1,278.5,9.3,1.1,8.63,41.92,631.2655,140.0067],
    [19967,1525558132,57.3224,-111.677,1496.9,1260.9,276.8,9.3,1.7,8.89,41.69,631.4019,140.012],
    [19968,1525558133,57.3225,-111.678,1492.7,1256.7,276.8,10.0,0.1,9.01,41.4,631.8984,140.0135],
    [19969,1525558134,57.3226,-111.679,1488.8,1252.8,276.5,10.3,-0.5,8.9,42.28,632.1606,140.017],
    [19970,1525558135,57.3226,-111.68,1484.9,1248.9,275.3,10.3,-0.1,9.39,40.92,632.513,139.9943],
    [19971,1525558136,57.3227,-111.681,1480.3,1244.3,274.5,10.6,0.0,9.11,41.45,632.8154,140.0129],
    [19972,1525558137,57.3227,-111.682,1475.8,1238.4,273.5,10.7,0.3,8.86,41.44,633.0243,140.0062],
    [19973,1525558138,57.3228,-111.683,1471.3,1232.0,273.0,10.1,0.5,8.89,41.38,633.3711,140.0069],
    [19974,1525558139,57.3228,-111.684,1466.6,1226.3,272.5,9.9,0.6,9.49,41.18,633.5757,140.0074],
    [19975,1525558140,57.3228,-111.685,1462.2,1220.2,272.8,10.4,-0.3,9.23,40.92,633.7809,140.008],
    [19976,1525558141,57.3229,-111.6861,1458.0,1216.0,272.1,10.3,0.0,9.34,40.66,634.1803,140.0131],
    [19977,1525558142,57.3229,-111.6869,1455.3,1213.2,271.2,10.5,0.8,8.95,41.02,634.3257,140.0206],
    [19978,1525558143,57.3229,-111.6881,1452.1,1212.4,271.8,10.7,0.2,8.86,40.81,634.6552,140.0071],
    [19979,1525558144,57.3229,-111.6891,1449.2,1210.2,271.9,10.5,0.5,9.35,40.61,634.7726,140.0034],
    [19980,1525558145,57.323,-111.6901,1446.5,1206.6,271.5,10.1,0.7,9.44,40.64,634.8422,140.0073],
    [19981,1525558146,57.323,-111.6911,1442.9,1201.9,272.1,9.2,-0.6,9.31,40.58,634.9796,139.9929],
    [19982,1525558147,57.323,-111.6921,1440.0,1200.0,270.3,8.5,0.5,9.56,40.48,635.0027,140.0011],
    [19983,1525558148,57.323,-111.6931,1437.3,1197.0,269.7,8.3,-0.2,9.55,40.4,635.1888,140.0146],
    [19984,1525558149,57.323,-111.6942,1435.0,1193.1,268.7,9.0,-0.1,9.59,39.84,635.3951,140.0224],
    [19985,1525558150,57.323,-111.6952,1433.1,1189.1,265.8,9.5,1.0,9.48,40.46,635.3571,140.0009],
    [19986,1525558151,57.3229,-111.6961,1431.6,1185.6,265.0,9.9,-0.7,9.75,39.9,635.3511,140.0005],
    [19987,1525558152,57.3228,-111.6971,1430.3,1183.3,262.6,9.6,-0.1,9.56,40.22,635.4397,140.0128],
    [19988,1525558153,57.3227,-111.6981,1428.8,1176.6,258.4,9.7,1.1,9.64,40.63,635.3055,140.0024],
    [19989,1525558154,57.3226,-111.6991,1427.4,1174.2,255.6,9.2,0.8,9.53,40.03,635.5074,139.9992],
    [19990,1525558155,57.3225,-111.7,1426.7,1169.8,252.0,8.8,1.4,9.83,39.8,635.7927,140.0036],
    [19991,1525558156,57.3223,-111.7009,1426.9,1171.0,248.9,8.4,1.3,9.13,39.96,635.8547,140.019],
    [19992,1525558157,57.3221,-111.7017,1426.8,1168.5,247.0,7.8,0.4,9.52,39.77,636.1522,139.9959],
    [19993,1525558158,57.3218,-111.7027,1426.9,1165.8,243.3,7.4,0.9,9.49,40.08,636.5103,140.016],
    [19994,1525558159,57.3215,-111.7035,1426.0,1161.6,241.0,7.8,0.6,8.98,40.03,636.6118,140.0203],
    [19995,1525558160,57.3212,-111.7043,1423.6,1155.5,239.1,8.4,0.2,9.92,39.66,636.8398,140.0],
    [19996,1525558161,57.3209,-111.7051,1420.6,1149.0,234.8,7.8,2.0,9.79,39.94,637.049,140.0042],
    [19997,1525558162,57.3206,-111.7058,1417.7,1143.0,232.4,8.1,2.1,10.0,40.41,637.2649,140.0098],
    [19998,1525558163,57.3202,-111.7066,1414.1,1137.5,230.8,8.5,1.7,9.35,40.12,637.3639,140.0116],
    [19999,1525558164,57.3198,-111.7073,1410.8,1132.9,227.2,7.5,2.4,9.5,39.6,637.5942,140.009],
    [20000,1525558165,57.3194,-111.708,1408.4,1130.4,225.0,7.8,2.1,9.91,39.52,637.705,140.0101],
    [20001,1525558166,57.319,-111.7086,1406.1,1127.1,223.8,8.5,1.6,9.97,39.47,637.6798,140.0043],
    [20002,1525558167,57.3186,-111.7092,1403.8,1124.1,221.9,8.6,1.7,9.68,39.51,637.6721,140.0048],
    [20003,1525558168,57.3182,-111.7097,1401.3,1121.3,220.4,8.7,1.3,10.14,38.82,637.714,139.9997],
    [20004,1525558169,57.3177,-111.7103,1399.0,1119.0,218.0,8.6,1.4,9.92,39.22,637.796,140.0116],
    [20005,1525558170,57.3172,-111.7109,1397.7,1116.7,215.7,8.7,1.6,9.63,38.79,637.8107,140.0088],
    [20006,1525558171,57.3168,-111.7113,1397.4,1116.4,213.7,8.9,1.5,9.84,39.27,637.8148,140.0106],
    [20007,1525558172,57.3163,-111.7118,1397.6,1115.9,211.3,8.9,1.7,10.42,38.85,637.8386,140.0088],
    [20008,1525558173,57.3158,-111.7121,1397.4,1115.4,209.3,9.1,1.5,9.84,38.69,637.8863,139.9989],
    [20009,1525558174,57.3153,-111.7125,1396.9,1113.9,206.3,8.7,1.6,10.27,38.64,637.9834,139.9994],
    [20010,1525558175,57.3148,-111.7128,1396.5,1113.5,202.5,8.3,1.9,9.93,38.64,638.0419,140.0002],
    [20011,1525558176,57.3143,-111.713,1396.6,1113.3,199.3,8.6,1.5,9.87,38.69,638.2311,140.0058],
    [20012,1525558177,57.3138,-111.7132,1396.6,1112.5,195.2,8.6,1.1,10.27,38.78,638.4206,140.002],
    [20013,1525558178,57.3132,-111.7133,1396.3,1113.3,190.6,8.6,1.2,9.96,38.09,638.8733,140.0027],
    [20014,1525558179,57.3127,-111.7133,1395.3,1112.3,185.9,8.6,1.9,10.16,38.3,639.1967,140.0087],
    [20015,1525558180,57.3122,-111.7132,1393.8,1109.8,181.2,8.6,2.0,10.15,38.22,639.5166,140.0167],
    [20016,1525558181,57.3116,-111.713,1391.6,1107.6,177.1,8.7,1.9,10.25,38.65,639.5741,140.004],
    [20017,1525558182,57.3111,-111.7128,1388.6,1103.6,172.9,8.7,1.7,9.81,38.47,639.6176,139.9989],
    [20018,1525558183,57.3106,-111.7126,1385.2,1100.2,169.6,8.8,2.1,10.28,38.07,639.6153,139.9925],
    [20019,1525558184,57.3101,-111.7121,1380.8,1095.8,165.6,9.2,2.4,10.49,37.62,639.6856,139.9942],
    [20020,1525558185,57.3095,-111.7117,1376.8,1090.8,160.7,8.7,2.0,9.71,38.14,639.8571,139.9961],
    [20021,1525558186,57.309,-111.7111,1374.5,1088.6,155.3,8.0,1.6,10.34,37.89,639.9841,139.997],
    [20022,1525558187,57.3085,-111.7105,1373.9,1086.8,151.3,8.1,0.9,10.35,37.86,640.1445,140.0021],
    [20023,1525558188,57.3081,-111.7099,1373.6,1086.6,148.6,8.9,1.5,9.97,38.01,640.3711,140.0062],
    [20024,1525558189,57.3076,-111.7092,1372.6,1085.6,144.5,8.3,1.5,10.41,38.55,640.5395,140.001],
    [20025,1525558190,57.3072,-111.7084,1370.9,1083.9,139.6,7.3,1.5,10.37,38.47,641.0083,140.0076],
    [20026,1525558191,57.3068,-111.7076,1368.7,1081.7,134.5,6.0,1.5,10.21,38.33,641.1264,140.0038],
    [20027,1525558192,57.3064,-111.7067,1366.4,1079.4,129.7,5.8,0.9,10.29,38.14,641.4482,140.0032],
    [20028,1525558193,57.3061,-111.7058,1363.8,1077.5,125.8,6.8,0.3,10.59,37.95,641.7454,140.0084],
    [20029,1525558194,57.3058,-111.7048,1361.1,1075.1,121.5,6.2,0.8,10.33,38.31,641.8363,140.0057],
    [20030,1525558195,57.3055,-111.7038,1357.4,1072.4,117.6,6.2,1.3,10.68,37.89,642.013,139.9998],
    [20031,1525558196,57.3053,-111.7028,1353.8,1068.8,114.0,6.6,1.7,10.72,37.48,642.2595,140.0069],
    [20032,1525558197,57.3051,-111.7016,1350.4,1066.4,109.5,6.4,1.6,10.48,38.35,642.3367,140.0113],
    [20033,1525558198,57.3049,-111.7006,1347.6,1064.6,105.7,7.1,1.7,10.15,38.04,642.895,140.0075],
    [20034,1525558199,57.3048,-111.6995,1345.2,1063.2,101.5,7.3,1.3,11.15,37.29,643.0153,140.0114],
    [20035,1525558200,57.3047,-111.6983,1343.2,1062.1,97.3,7.2,1.3,10.4,37.58,643.3722,140.0119],
    [20036,1525558201,57.3047,-111.6972,1340.5,1061.5,93.6,7.6,1.4,10.79,37.79,643.5157,140.0105],
    [20037,1525558202,57.3047,-111.696,1337.0,1059.3,89.0,7.7,0.8,10.98,37.27,643.8237,140.0044],
    [20038,1525558203,57.3047,-111.6948,1332.9,1057.8,84.9,7.1,1.4,10.65,37.6,644.0393,140.0004],
    [20039,1525558204,57.3048,-111.6936,1328.7,1055.8,81.7,7.3,2.9,11.31,37.07,644.1741,140.0031],
    [20040,1525558205,57.305,-111.6925,1325.6,1054.5,77.2,7.7,2.7,10.89,37.54,644.3642,139.9994],
    [20041,1525558206,57.3051,-111.6913,1322.7,1055.8,72.3,8.1,2.8,10.07,37.57,644.4694,139.9959],
    [20042,1525558207,57.3054,-111.6902,1320.2,1056.5,67.5,8.3,2.7,10.49,37.47,644.5368,139.9985],
    [20043,1525558208,57.3056,-111.6891,1317.8,1056.6,62.5,8.5,2.5,10.68,37.2,644.8606,140.0054],
    [20044,1525558209,57.3059,-111.6881,1315.5,1056.0,57.7,8.1,2.1,10.71,37.14,645.0353,140.0067],
    [20045,1525558210,57.3063,-111.6871,1313.3,1057.3,53.1,7.9,2.0,10.51,37.17,645.2891,140.0046],
    [20046,1525558211,57.3066,-111.6862,1311.5,1055.4,48.7,7.8,1.5,10.78,37.08,645.5461,140.0137],
    [20047,1525558212,57.307,-111.6853,1309.7,1049.7,44.3,8.2,1.2,11.12,36.71,645.7704,140.0058],
    [20048,1525558213,57.3074,-111.6845,1307.6,1048.7,40.1,8.8,1.5,10.77,36.86,645.9884,139.9976],
    [20049,1525558214,57.3079,-111.6837,1304.9,1046.9,35.6,9.4,1.2,11.14,36.74,646.166,140.001],
    [20050,1525558215,57.3084,-111.6829,1302.1,1049.4,32.2,9.2,1.5,11.09,36.64,646.4109,140.0013],
    [20051,1525558216,57.3089,-111.6822,1298.5,1049.8,28.9,9.1,1.8,10.98,36.51,646.6396,140.0078],
    [20052,1525558217,57.3094,-111.6817,1295.4,1050.0,24.9,9.1,1.7,10.93,36.49,646.8201,140.0053],
    [20053,1525558218,57.3099,-111.6811,1292.8,1053.2,20.9,9.0,1.9,11.64,36.37,647.1186,139.9963],
    [20054,1525558219,57.3105,-111.6806,1290.4,1052.0,17.5,8.9,1.8,10.8,36.77,647.4784,140.009],
    [20055,1525558220,57.311,-111.6802,1287.7,1051.0,13.8,9.3,2.0,10.79,36.63,647.6032,140.0076],
    [20056,1525558221,57.3116,-111.6798,1284.5,1047.8,10.2,9.6,1.6,10.55,36.59,648.0897,139.9962],
    [20057,1525558222,57.3121,-111.6795,1280.9,1043.9,7.3,9.2,1.2,11.11,36.41,648.1791,139.9992],
    [20058,1525558223,57.3127,-111.6793,1277.5,1040.5,4.0,9.2,1.4,10.97,36.53,648.2433,139.9975],
    [20059,1525558224,57.3133,-111.6791,1273.8,1036.8,360.3,9.7,2.0,11.06,36.88,648.5762,140.0096],
    [20060,1525558225,57.3139,-111.6789,1270.2,1033.2,357.1,9.7,2.0,11.04,37.04,648.644,140.0032],
    [20061,1525558226,57.3144,-111.6789,1266.8,1029.8,355.0,8.8,1.8,11.38,35.93,648.8058,139.9973],
    [20062,1525558227,57.315,-111.6788,1263.7,1027.7,352.1,8.5,1.6,10.95,36.99,648.8582,139.9977],
    [20063,1525558228,57.3156,-111.6789,1261.2,1025.2,348.2,9.7,1.2,11.09,37.18,649.0322,140.0106],
    [20064,1525558229,57.3161,-111.6789,1258.6,1022.6,345.0,10.0,1.2,10.75,36.45,649.2005,140.012],
    [20065,1525558230,57.3167,-111.6791,1256.7,1020.7,341.4,10.4,0.9,11.19,37.03,649.4018,140.0063],
    [20066,1525558231,57.3172,-111.6793,1255.3,1019.3,338.5,10.1,0.3,11.45,36.52,649.369,139.9993],
    [20067,1525558232,57.3178,-111.6795,1253.8,1017.8,335.5,10.0,0.0,11.2,36.76,649.3123,139.9997],
    [20068,1525558233,57.3182,-111.6798,1252.0,1016.0,331.8,10.0,0.8,11.39,37.24,649.4059,139.9993],
    [20069,1525558234,57.3188,-111.6802,1249.4,1013.4,327.3,10.3,0.5,11.49,36.76,649.5019,140.0067],
    [20070,1525558235,57.3193,-111.6807,1248.0,1012.0,325.5,7.8,-0.1,11.42,36.31,649.7214,140.0075],
    [20071,1525558236,57.3197,-111.6811,1247.6,1012.6,323.0,7.1,-0.5,11.59,36.6,649.9973,140.0054],
    [20072,1525558237,57.3202,-111.6817,1247.5,1012.5,319.3,7.5,-0.6,11.56,36.48,650.3583,140.0015],
    [20073,1525558238,57.3206,-111.6823,1247.0,1009.8,317.1,6.6,-1.1,11.69,36.33,650.648,140.0073],
    [20074,1525558239,57.321,-111.6829,1245.6,1004.0,314.1,6.5,-0.9,11.34,36.53,650.9735,140.0094],
    [20075,1525558240,57.3214,-111.6836,1243.1,995.9,309.3,7.6,0.0,11.47,36.78,651.2608,140.0229],
    [20076,1525558241,57.3217,-111.6844,1239.7,988.6,306.5,7.1,0.0,11.51,36.29,651.3922,140.0191],
    [20077,1525558242,57.3221,-111.6851,1236.1,985.5,304.2,6.9,-0.1,11.5,36.75,651.5326,140.0047],
    [20078,1525558243,57.3224,-111.6859,1232.0,983.6,300.4,8.0,0.3,12.05,35.99,651.7697,139.9934],
    [20079,1525558244,57.3227,-111.6867,1228.1,983.4,297.3,8.7,-0.1,11.95,36.22,651.9239,140.0042],
    [20080,1525558245,57.3229,-111.6875,1224.3,984.0,294.1,8.3,0.2,11.38,37.17,652.1586,140.0085],
    [20081,1525558246,57.3232,-111.6884,1221.1,982.1,289.9,6.9,1.2,11.58,36.6,652.4596,139.9866],
    [20082,1525558247,57.3233,-111.6893,1219.1,979.1,285.5,7.5,2.0,11.56,36.78,652.655,140.0062],
    [20083,1525558248,57.3235,-111.6902,1217.1,973.7,282.3,7.6,1.2,11.62,36.44,652.9609,140.0026],
    [20084,1525558249,57.3236,-111.6911,1214.8,970.6,278.8,7.6,1.6,11.69,37.23,653.4284,140.0126],
    [20085,1525558250,57.3237,-111.6921,1211.8,965.8,273.1,7.8,3.7,12.04,36.28,653.5528,140.0161],
    [20086,1525558251,57.3237,-111.693,1208.2,963.2,272.0,8.2,1.1,11.72,36.4,653.8637,140.0112],
    [20087,1525558252,57.3237,-111.694,1204.7,961.0,269.3,8.8,1.3,11.62,36.44,654.148,140.0034],
    [20088,1525558253,57.3237,-111.6949,1201.2,958.2,265.7,8.9,1.8,11.91,36.19,654.2933,140.004],
    [20089,1525558254,57.3237,-111.6959,1197.3,955.3,264.1,8.6,0.4,12.37,35.69,654.5038,140.0061],
    [20090,1525558255,57.3236,-111.6968,1193.4,951.7,259.9,8.0,1.6,11.6,35.98,654.6238,140.0058],
    [20091,1525558256,57.3235,-111.6978,1189.7,947.4,256.7,7.8,1.5,11.71,35.8,654.91,140.0013],
    [20092,1525558257,57.3234,-111.6987,1186.6,943.2,254.1,8.1,1.0,12.18,35.52,654.9961,140.0015],
    [20093,1525558258,57.3232,-111.6996,1184.2,939.0,251.2,8.1,1.3,12.03,35.42,655.4384,140.0066],
    [20094,1525558259,57.323,-111.7005,1181.9,932.9,248.7,7.8,0.6,12.55,35.33,655.806,140.0121],
    [20095,1525558260,57.3228,-111.7013,1179.7,931.7,245.7,7.0,0.5,12.4,35.13,656.0563,140.0122],
    [20096,1525558261,57.3225,-111.7022,1177.0,926.0,242.6,7.8,1.2,12.62,35.14,656.2055,140.0094],
    [20097,1525558262,57.3223,-111.703,1173.7,919.5,240.2,8.1,0.9,12.04,35.71,656.4462,140.0111],
    [20098,1525558263,57.322,-111.7039,1170.1,911.1,237.5,7.9,0.9,12.17,35.29,656.5939,140.0088],
    [20099,1525558264,57.3216,-111.7047,1166.2,899.8,234.7,7.9,1.2,11.88,35.76,656.6992,139.9985],
    [20100,1525558265,57.3213,-111.7054,1162.8,892.8,232.2,7.6,1.2,12.06,35.31,656.781,140.0021],
    [20101,1525558266,57.3209,-111.7061,1160.0,886.6,230.0,7.6,0.7,11.96,35.26,657.0706,140.0055],
    [20102,1525558267,57.3206,-111.7068,1157.9,882.4,228.2,7.5,0.0,12.31,34.96,657.3678,140.0007],
    [20103,1525558268,57.3202,-111.7075,1155.9,878.9,225.7,7.7,0.1,12.18,35.02,657.638,140.0049],
    [20104,1525558269,57.3197,-111.7081,1154.0,875.8,223.4,8.2,-0.1,12.32,34.88,657.928,140.0092],
    [20105,1525558270,57.3193,-111.7087,1151.8,872.8,221.7,9.0,-0.9,12.21,34.87,658.2988,140.0068],
    [20106,1525558271,57.3189,-111.7092,1149.2,869.5,218.6,8.5,-0.4,12.63,34.69,658.4484,140.0048],
    [20107,1525558272,57.3184,-111.7098,1145.7,865.7,215.1,8.5,0.1,12.14,35.0,658.5104,139.9962],
    [20108,1525558273,57.3179,-111.7102,1142.3,862.3,212.0,8.4,0.6,11.81,34.92,658.5944,140.0014],
    [20109,1525558274,57.3174,-111.7106,1138.6,858.3,207.9,7.3,0.7,12.65,34.52,658.8327,140.0038],
    [20110,1525558275,57.3169,-111.711,1135.1,854.1,205.6,7.0,-0.2,12.38,34.82,658.9366,140.0118],
    [20111,1525558276,57.3163,-111.7113,1131.8,850.8,202.6,6.8,-0.5,12.67,34.29,659.0221,140.0038],
    [20112,1525558277,57.3158,-111.7116,1130.3,848.6,199.5,6.7,0.2,12.28,34.36,659.014,140.0043],
    [20113,1525558278,57.3152,-111.7118,1129.0,846.8,196.4,6.4,0.8,12.19,34.54,659.1525,140.0067],
    [20114,1525558279,57.3147,-111.712,1127.0,844.0,194.8,7.1,1.1,12.42,34.71,659.2231,140.0047],
    [20115,1525558280,57.3141,-111.7121,1125.0,842.0,192.0,6.9,1.4,12.88,34.19,659.3152,140.0074],
    [20116,1525558281,57.3135,-111.7122,1124.2,841.2,190.4,7.9,0.7,12.5,34.37,659.4457,140.0007],
    [20117,1525558282,57.313,-111.7122,1123.7,840.7,188.2,8.1,0.4,12.47,34.38,659.6042,140.0059],
    [20118,1525558283,57.3124,-111.7122,1122.5,838.9,184.9,7.5,0.9,12.58,33.99,659.72,140.0079],
    [20119,1525558284,57.3118,-111.7122,1121.5,837.5,181.8,7.3,0.5,11.95,34.09,660.0114,140.0041],
    [20120,1525558285,57.3112,-111.7121,1120.3,836.3,178.7,7.2,0.6,12.96,34.1,660.1014,140.0003],
    [20121,1525558286,57.3107,-111.7119,1118.9,833.9,175.7,7.2,0.6,12.53,34.62,660.4197,140.0077],
    [20122,1525558287,57.3101,-111.7117,1117.2,832.2,173.0,7.5,0.4,12.85,33.71,660.5115,140.0032],
    [20123,1525558288,57.3095,-111.7114,1115.1,829.1,170.3,7.6,0.0,12.37,33.47,660.8282,140.007],
    [20124,1525558289,57.309,-111.7111,1112.8,826.9,167.6,7.6,0.1,12.83,33.99,661.0493,140.0023],
    [20125,1525558290,57.3085,-111.7107,1110.3,823.2,164.2,7.0,0.4,12.56,34.0,661.2232,140.0046],
    [20126,1525558291,57.3079,-111.7103,1107.6,820.6,161.2,6.5,0.7,13.32,33.0,661.3916,140.0015],
    [20127,1525558292,57.3074,-111.7098,1105.2,818.2,158.1,6.3,0.8,12.42,33.37,661.8092,140.0088],
    [20128,1525558293,57.3069,-111.7093,1102.9,815.7,156.4,6.9,1.0,12.86,33.28,662.0155,140.0047],
    [20129,1525558294,57.3063,-111.7087,1099.9,811.9,153.8,7.2,1.5,13.24,33.06,662.5837,140.003],
    [20130,1525558295,57.3058,-111.7081,1097.0,809.0,151.1,7.4,2.0,12.85,33.47,662.7511,140.0024],
    [20131,1525558296,57.3054,-111.7074,1094.1,806.1,148.3,7.9,1.7,12.89,33.41,663.3797,140.0007],
    [20132,1525558297,57.3049,-111.7067,1090.3,802.3,145.4,8.3,1.0,12.97,33.14,663.7137,140.004],
    [20133,1525558298,57.3044,-111.7059,1085.5,798.4,142.8,8.4,1.3,12.98,33.22,663.9775,140.0048],
    [20134,1525558299,57.304,-111.7051,1080.4,793.4,139.0,7.6,0.8,12.86,33.39,664.1429,140.0045],
    [20135,1525558300,57.3036,-111.7043,1075.3,788.3,135.9,7.2,1.0,12.34,32.93,664.2998,140.0086],
    [20136,1525558301,57.3032,-111.7034,1070.3,783.3,133.3,7.4,1.2,13.21,32.54,664.4618,139.9939],
    [20137,1525558302,57.3028,-111.7024,1065.7,779.7,129.6,6.4,0.9,12.9,33.34,664.6263,139.9995],
    [20138,1525558303,57.3025,-111.7015,1062.3,776.3,126.9,6.1,0.8,13.12,33.07,664.8082,140.004],
    [20139,1525558304,57.3021,-111.7005,1059.7,774.7,124.8,6.9,0.7,13.04,32.66,665.0735,140.0022],
    [20140,1525558305,57.3018,-111.6995,1057.4,773.3,122.2,7.4,0.4,13.17,32.56,665.2403,140.0023],
    [20141,1525558306,57.3015,-111.6984,1055.7,773.8,118.8,7.1,0.1,12.93,32.67,665.4161,140.0018],
    [20142,1525558307,57.3012,-111.6974,1054.0,773.0,115.4,6.3,-0.4,13.02,32.74,665.7473,139.9984],
    [20143,1525558308,57.301,-111.6963,1051.8,772.8,112.5,6.8,-1.0,12.89,32.7,665.9909,139.9979],
    [20144,1525558309,57.3008,-111.6952,1049.4,771.6,109.2,7.2,-1.6,13.27,33.37,666.4431,139.9984],
    [20145,1525558310,57.3006,-111.6941,1046.5,769.6,106.5,7.4,-1.6,13.28,32.91,666.8179,140.0086],
    [20146,1525558311,57.3004,-111.6929,1043.5,769.5,103.6,7.8,-1.5,13.16,33.14,667.1949,140.0102],
    [20147,1525558312,57.3003,-111.6917,1040.5,770.8,100.7,8.2,-2.2,13.11,32.62,667.4455,140.0093],
    [20148,1525558313,57.3002,-111.6906,1036.5,777.5,98.6,7.6,-2.0,13.27,32.93,667.6233,140.0063],
    [20149,1525558314,57.3001,-111.6894,1031.9,784.2,97.1,6.4,-0.6,13.28,32.7,667.9437,140.0047],
    [20150,1525558315,57.3,-111.6882,1027.0,785.7,95.8,6.9,0.7,13.14,32.87,668.1837,140.0072],
    [20151,1525558316,57.3,-111.687,1022.6,786.3,92.7,7.3,0.5,13.57,33.0,668.244,139.9998],
    [20152,1525558317,57.3,-111.6858,1019.1,783.2,89.7,7.9,0.6,14.14,32.03,668.3338,139.9993],
    [20153,1525558318,57.3,-111.6846,1015.8,778.2,87.5,8.1,1.4,13.55,32.25,668.4156,139.9974],
    [20154,1525558319,57.3001,-111.6834,1012.8,773.1,84.9,7.7,1.9,13.62,32.84,668.528,139.9963],
    [20155,1525558320,57.3002,-111.6822,1010.5,766.5,80.7,7.3,1.5,13.51,32.25,668.6926,139.995],
    [20156,1525558321,57.3003,-111.681,1009.0,759.7,77.0,7.3,2.0,13.6,32.61,668.8532,140.0024],
    [20157,1525558322,57.3004,-111.6799,1008.0,756.0,73.3,7.3,2.1,13.64,32.06,669.1731,140.0068],
    [20158,1525558323,57.3007,-111.6787,1006.7,759.1,68.5,7.8,1.7,14.18,32.0,669.5773,140.0025],
    [20159,1525558324,57.3009,-111.6777,1005.3,763.3,64.5,7.2,1.0,13.81,31.62,669.9517,140.0121],
    [20160,1525558325,57.3011,-111.6767,1003.3,764.6,60.9,6.5,1.1,13.9,32.08,670.2476,140.0108],
    [20161,1525558326,57.3015,-111.6756,1000.5,764.3,57.6,6.5,1.7,13.89,32.25,670.4702,140.0025],
    [20162,1525558327,57.3018,-111.6746,997.1,761.1,54.1,6.9,1.8,13.58,32.26,670.8004,140.0063],
    [20163,1525558328,57.3022,-111.6736,993.4,757.1,50.6,7.0,1.8,13.78,32.3,671.2104,140.0014],
    [20164,1525558329,57.3026,-111.6727,989.7,753.4,47.8,7.3,2.0,13.7,32.3,671.4329,140.0005],
    [20165,1525558330,57.303,-111.6719,985.8,748.7,43.7,8.2,1.9,14.64,31.39,671.7984,139.9968],
    [20166,1525558331,57.3034,-111.671,981.7,745.4,40.0,8.4,2.3,14.12,32.07,672.1741,140.0041],
    [20167,1525558332,57.3039,-111.6702,977.5,741.5,36.7,8.7,2.5,14.32,31.16,672.4559,140.0044],
    [20168,1525558333,57.3044,-111.6695,973.4,737.4,33.0,9.1,2.1,13.91,31.94,672.7286,140.0021],
    [20169,1525558334,57.3049,-111.6688,969.3,732.3,29.7,8.9,1.5,13.91,31.15,673.0221,140.0056],
    [20170,1525558335,57.3054,-111.6681,965.3,728.3,26.8,8.7,1.7,14.04,31.93,673.2443,140.004],
    [20171,1525558336,57.3059,-111.6675,961.4,724.4,24.4,8.3,1.9,14.0,31.22,673.3855,140.0051],
    [20172,1525558337,57.3065,-111.667,957.5,719.5,21.1,8.6,1.2,13.73,31.01,673.4902,140.0024],
    [20173,1525558338,57.307,-111.6665,953.2,713.3,17.6,8.7,0.7,13.89,31.32,673.6262,140.0035],
    [20174,1525558339,57.3075,-111.6661,950.1,705.8,15.3,8.3,0.9,14.19,31.49,673.759,140.0113],
    [20175,1525558340,57.3082,-111.6657,947.0,699.2,11.6,8.6,0.6,14.11,31.07,674.0126,140.0046],
    [20176,1525558341,57.3086,-111.6654,945.2,694.2,9.3,8.3,1.0,14.09,31.25,674.1369,140.0018],
    [20177,1525558342,57.3093,-111.6651,943.4,688.8,5.6,8.7,0.9,14.73,30.29,674.2707,140.0045],
    [20178,1525558343,57.3099,-111.6648,941.6,683.2,2.6,8.7,0.8,14.31,30.81,674.4184,140.0013],
    [20179,1525558344,57.3105,-111.6647,939.5,677.5,359.2,9.2,1.1,14.01,30.94,674.4575,139.998],
    [20180,1525558345,57.311,-111.6646,937.4,675.4,355.8,9.3,1.0,13.74,30.9,674.6722,140.0003],
    [20181,1525558346,57.3116,-111.6645,935.6,674.6,353.0,8.7,0.9,14.4,30.82,674.8629,140.0105],
    [20182,1525558347,57.3122,-111.6645,933.8,671.8,349.7,8.8,1.0,14.35,30.68,675.0293,140.0038],
    [20183,1525558348,57.3128,-111.6646,931.9,668.9,347.1,8.3,0.3,14.44,31.07,675.3092,139.991],
    [20184,1525558349,57.3133,-111.6647,930.4,668.3,344.2,8.2,0.1,13.85,30.74,675.4867,140.0031],
    [20185,1525558350,57.3139,-111.6649,928.6,666.1,340.6,8.8,0.5,14.38,31.24,675.4835,140.0036],
    [20186,1525558351,57.3144,-111.6652,925.9,664.7,336.9,9.2,1.4,13.94,30.83,675.7874,140.0163],
    [20187,1525558352,57.315,-111.6654,922.9,663.9,333.7,9.5,0.9,14.22,31.16,676.0389,140.0033],
    [20188,1525558353,57.3155,-111.6658,920.2,662.9,330.4,10.4,0.2,14.91,30.5,676.2973,140.0045],
    [20189,1525558354,57.316,-111.6662,918.0,667.1,327.2,10.8,-0.6,14.54,31.44,676.6066,140.0044],
    [20190,1525558355,57.3164,-111.6665,916.3,668.0,325.6,9.9,-1.8,14.71,30.73,676.8043,140.0019],
    [20191,1525558356,57.3169,-111.6671,913.3,669.3,322.1,9.4,-1.5,14.51,30.99,676.8612,140.0083],
    [20192,1525558357,57.3173,-111.6676,911.1,670.8,318.5,8.5,-1.0,14.7,30.83,677.0608,140.009],
    [20193,1525558358,57.3178,-111.6682,908.4,669.8,316.0,8.0,-1.8,15.03,30.09,677.2872,140.0066],
    [20194,1525558359,57.3182,-111.6689,905.4,668.4,311.6,8.5,-1.1,14.66,30.57,677.317,140.0047],
    [20195,1525558360,57.3185,-111.6695,902.7,666.7,309.3,7.8,-1.7,14.89,30.26,677.5216,139.9987],
    [20196,1525558361,57.3188,-111.6702,900.7,664.7,306.8,7.6,-1.7,14.6,31.51,677.9393,140.0071],
    [20197,1525558362,57.3192,-111.671,898.5,662.5,303.8,7.5,-1.2,14.78,30.81,677.9901,140.0072],
    [20198,1525558363,57.3195,-111.6718,896.5,660.5,302.6,6.4,-1.9,15.45,30.63,678.328,140.0058],
    [20199,1525558364,57.3197,-111.6725,894.8,658.8,299.7,6.3,-1.1,15.32,30.67,678.5621,140.0037],
    [20200,1525558365,57.32,-111.6734,892.2,656.2,296.2,7.3,-0.4,14.86,31.29,678.8286,140.0046],
    [20201,1525558366,57.3203,-111.6742,889.2,653.2,293.9,8.1,-0.1,14.74,31.74,679.138,139.9986],
    [20202,1525558367,57.3205,-111.6751,886.1,650.1,290.5,8.5,1.2,14.77,30.88,679.2255,139.999],
    [20203,1525558368,57.3207,-111.676,882.8,646.8,288.4,7.8,0.9,14.97,31.05,679.5903,140.0055],
    [20204,1525558369,57.3209,-111.6769,879.8,643.8,286.9,7.3,0.8,14.95,31.27,679.8763,140.0049],
    [20205,1525558370,57.321,-111.6778,876.6,640.6,283.9,7.4,1.8,15.5,30.12,680.2862,140.0095],
    [20206,1525558371,57.3212,-111.6787,873.4,637.4,282.7,7.0,0.9,14.95,30.76,680.4442,139.9915],
    [20207,1525558372,57.3213,-111.6797,870.4,634.4,281.2,7.0,0.4,14.74,30.61,681.0084,140.0094],
    [20208,1525558373,57.3214,-111.6806,866.9,630.9,280.0,6.7,0.3,15.15,30.39,681.2145,140.0113],
    [20209,1525558374,57.3215,-111.6816,863.0,626.4,277.9,6.7,1.2,14.8,30.5,681.5232,139.9926],
    [20210,1525558375,57.3216,-111.6825,858.6,618.0,276.3,6.3,1.7,15.02,30.88,682.0077,140.0092],
    [20211,1525558376,57.3217,-111.6835,854.6,607.6,275.7,6.4,1.1,15.61,29.92,682.3653,139.9989],
    [20212,1525558377,57.3217,-111.6845,850.1,598.4,275.6,5.5,0.8,15.55,29.82,682.545,140.0057],
    [20213,1525558378,57.3218,-111.6855,845.7,592.3,274.8,5.5,1.4,14.57,30.52,682.6861,140.004],
    [20214,1525558379,57.3219,-111.6865,841.7,586.9,275.0,6.4,0.8,14.56,30.55,682.7817,140.0069],
    [20215,1525558380,57.3219,-111.6875,836.7,583.3,274.4,6.5,1.3,15.8,29.95,682.8464,140.0007],
    [20216,1525558381,57.322,-111.6884,833.0,587.6,273.7,6.8,1.4,15.27,30.53,682.9326,140.0],
    [20217,1525558382,57.322,-111.6895,829.8,587.8,273.5,6.5,0.8,15.23,30.32,683.0387,140.0071],
    [20218,1525558383,57.3221,-111.6905,828.2,588.2,272.5,6.2,0.5,15.15,30.45,683.1065,140.0039],
    [20219,1525558384,57.3221,-111.6914,827.0,588.0,271.6,5.8,0.4,14.81,30.21,683.2525,140.0036],
    [20220,1525558385,57.3221,-111.6925,825.6,585.7,269.7,7.0,0.7,15.92,29.37,683.3406,140.0078],
    [20221,1525558386,57.3221,-111.6935,824.8,582.1,268.3,7.7,0.3,15.43,30.1,683.4476,140.0031],
    [20222,1525558387,57.3221,-111.6945,823.7,576.7,267.1,7.5,-0.3,15.5,29.62,683.5452,140.0032],
    [20223,1525558388,57.322,-111.6955,822.4,571.4,264.5,7.8,0.0,15.57,30.32,683.8122,140.0033],
    [20224,1525558389,57.322,-111.6964,821.2,565.9,262.3,7.9,0.1,15.51,29.39,683.8739,139.9997],
    [20225,1525558390,57.3219,-111.6974,820.0,558.7,260.2,7.0,-0.1,14.99,29.5,684.1818,139.9995],
    [20226,1525558391,57.3217,-111.6984,818.7,554.9,257.5,6.8,-0.1,15.41,29.37,684.311,140.0061],
    [20227,1525558392,57.3216,-111.6993,817.6,550.2,255.5,6.6,-0.6,15.15,29.31,684.6034,140.0022],
    [20228,1525558393,57.3214,-111.7002,815.7,548.4,253.3,6.6,-0.7,16.01,28.61,684.8909,140.01],
    [20229,1525558394,57.3212,-111.7011,813.4,544.4,251.0,6.7,-1.0,15.07,29.51,685.3828,140.003],
    [20230,1525558395,57.321,-111.7021,810.8,540.3,249.1,6.9,-1.3,15.69,29.53,685.598,140.0088],
    [20231,1525558396,57.3208,-111.7029,807.7,536.0,246.0,6.7,-0.2,15.56,29.48,685.6885,140.0176],
    [20232,1525558397,57.3206,-111.7037,804.7,533.0,243.9,6.6,-0.1,15.53,29.41,685.8524,140.0044],
    [20233,1525558398,57.3203,-111.7047,800.5,526.5,241.4,6.6,-0.2,15.37,29.26,686.222,140.0084],
    [20234,1525558399,57.32,-111.7055,796.3,520.2,239.3,7.1,-0.6,15.54,29.3,686.3127,140.0076],
    [20235,1525558400,57.3197,-111.7063,792.8,515.8,236.4,7.0,-0.2,15.45,29.29,686.4545,140.0099],
    [20236,1525558401,57.3193,-111.7071,790.2,512.6,232.9,6.0,0.5,15.71,29.32,686.7351,140.0068],
    [20237,1525558402,57.319,-111.7078,787.8,509.8,230.9,7.0,-0.1,15.95,28.97,686.9973,139.9985],
    [20238,1525558403,57.3186,-111.7086,785.5,506.6,228.9,7.7,-0.2,15.99,28.91,687.0056,140.0041],
    [20239,1525558404,57.3182,-111.7093,783.2,504.1,225.2,6.8,0.5,15.68,29.47,687.2662,139.9972],
    [20240,1525558405,57.3178,-111.7099,781.1,501.1,222.7,6.2,-0.2,16.33,28.65,687.3253,139.9994],
    [20241,1525558406,57.3173,-111.7105,778.5,498.5,219.8,6.1,-0.2,15.9,29.65,687.3898,139.998],
    [20242,1525558407,57.3168,-111.7111,775.7,494.7,217.7,6.6,-0.4,15.45,29.01,687.553,140.0075],
    [20243,1525558408,57.3164,-111.7116,773.8,492.8,213.9,5.3,0.8,15.66,28.94,687.7356,140.0071],
    [20244,1525558409,57.3159,-111.7121,772.3,490.3,210.7,5.0,1.9,16.31,28.13,687.8128,140.0054],
    [20245,1525558410,57.3154,-111.7126,770.8,487.8,210.2,6.6,0.5,16.25,28.18,687.8714,139.9975],
    [20246,1525558411,57.3149,-111.713,769.6,486.6,207.6,6.3,1.4,15.97,28.88,688.2601,140.0114],
    [20247,1525558412,57.3143,-111.7134,768.0,484.0,205.1,6.4,1.4,15.81,28.82,688.6166,140.0021],
    [20248,1525558413,57.3138,-111.7137,766.4,482.4,203.1,6.7,1.1,16.37,28.25,688.8795,140.0005],
    [20249,1525558414,57.3133,-111.714,765.2,482.2,200.2,6.1,0.7,16.13,29.17,689.2508,140.0037],
    [20250,1525558415,57.3127,-111.7142,763.3,480.3,197.1,5.7,0.7,16.1,28.73,689.5501,140.0027],
    [20251,1525558416,57.3122,-111.7144,760.3,476.3,195.5,6.2,-0.5,16.6,28.34,690.0011,140.0045],
    [20252,1525558417,57.3116,-111.7146,756.3,472.4,192.4,5.9,-0.9,16.14,28.64,690.4106,140.013],
    [20253,1525558418,57.311,-111.7147,752.7,467.7,189.4,5.3,-0.7,16.22,28.65,690.5849,140.0],
    [20254,1525558419,57.3105,-111.7148,748.7,462.7,188.9,6.3,-1.4,16.34,28.98,690.7849,140.0063],
    [20255,1525558420,57.3099,-111.7148,744.3,458.1,187.0,5.8,-1.3,16.07,28.81,691.0026,140.0089],
    [20256,1525558421,57.3093,-111.7148,739.9,452.9,185.4,5.9,-1.3,16.33,28.45,691.0867,139.9945],
    [20257,1525558422,57.3087,-111.7148,735.3,447.3,184.3,6.6,-1.5,16.47,28.68,691.1535,140.0019],
    [20258,1525558423,57.3081,-111.7148,731.7,443.7,182.4,7.1,-2.1,15.77,28.33,691.1929,140.0037],
    [20259,1525558424,57.3076,-111.7147,729.1,441.1,180.2,7.1,-2.8,16.15,28.12,691.1563,140.0014],
    [20260,1525558425,57.3069,-111.7145,726.5,438.2,177.0,6.6,-2.4,16.38,27.93,691.1562,140.0012],
    [20261,1525558426,57.3063,-111.7143,725.1,436.1,173.6,6.3,-1.7,16.28,28.1,691.1504,139.9938],
    [20262,1525558427,57.3058,-111.7141,724.4,435.4,170.0,5.7,-1.5,16.32,28.03,691.0555,139.9886],
    [20263,1525558428,57.3052,-111.7138,723.9,434.9,166.2,5.3,-1.5,16.47,28.1,691.1954,139.999],
    [20264,1525558429,57.3046,-111.7134,723.8,434.8,162.2,5.2,-1.6,16.19,27.81,691.2168,140.0017],
    [20265,1525558430,57.304,-111.7129,724.0,435.0,158.4,5.6,-1.7,16.38,27.82,691.4409,140.0006],
    [20266,1525558431,57.3035,-111.7124,724.1,435.1,154.4,5.3,-0.8,16.69,27.25,691.4509,140.0019],
    [20267,1525558432,57.303,-111.7118,724.5,434.5,150.2,5.3,-0.3,16.77,27.94,691.4884,139.9982],
    [20268,1525558433,57.3025,-111.7112,724.1,434.1,146.4,5.0,-1.1,16.02,27.78,691.5786,140.0057],
    [20269,1525558434,57.302,-111.7105,722.9,432.9,142.2,4.4,-1.0,16.16,27.96,691.4099,140.0019],
    [20270,1525558435,57.3015,-111.7097,721.5,431.5,139.8,5.7,0.8,16.29,27.8,691.3232,139.9924],
    [20271,1525558436,57.3011,-111.7089,720.6,430.6,137.0,7.1,1.8,16.52,28.43,691.273,139.9879],
    [20272,1525558437,57.3008,-111.7081,720.1,430.1,132.8,6.3,1.9,16.18,27.74,691.2752,140.0],
    [20273,1525558438,57.3004,-111.7071,719.9,429.9,127.1,6.6,0.6,16.68,27.67,691.5121,140.0057],
    [20274,1525558439,57.3001,-111.7061,720.8,430.7,122.5,6.9,0.0,16.86,28.09,691.5552,140.0007],
    [20275,1525558440,57.2998,-111.7051,721.9,432.9,118.9,7.1,0.5,16.6,27.7,691.6646,140.0043],
    [20276,1525558441,57.2995,-111.704,722.3,433.3,114.3,6.1,-0.5,16.93,27.36,691.7702,139.997],
    [20277,1525558442,57.2993,-111.7029,721.6,433.6,107.8,4.0,-3.0,16.88,28.37,691.925,140.0003],
    [20278,1525558443,57.2991,-111.7018,720.5,433.6,105.6,4.9,-1.6,17.25,27.2,692.1327,140.0048],
    [20279,1525558444,57.2989,-111.7006,719.2,433.1,103.9,6.3,-0.1,16.93,28.36,692.3583,140.0091],
    [20280,1525558445,57.2988,-111.6995,718.1,435.1,99.1,6.5,-1.6,16.83,27.84,692.5182,140.0065],
    [20281,1525558446,57.2987,-111.6983,716.6,438.9,94.2,6.3,-1.7,17.12,27.38,692.6358,139.9995],
    [20282,1525558447,57.2987,-111.6972,715.0,445.0,90.7,6.2,-1.6,16.62,27.72,692.7413,140.0017],
    [20283,1525558448,57.2987,-111.696,712.6,449.3,86.9,6.4,-2.1,17.01,28.13,692.88,140.0034],
    [20284,1525558449,57.2987,-111.6948,710.1,451.8,84.0,7.4,-1.6,17.53,26.93,692.8506,139.9991],
    [20285,1525558450,57.2988,-111.6937,707.9,451.9,80.9,8.0,-1.4,17.35,27.22,692.9622,139.9937],
    [20286,1525558451,57.2989,-111.6926,706.4,454.7,78.2,7.5,-1.3,17.04,27.59,693.0115,139.9929],
    [20287,1525558452,57.299,-111.6915,705.0,455.4,75.8,7.0,-0.9,16.63,27.22,693.4228,140.0022],
    [20288,1525558453,57.2991,-111.6904,703.9,460.3,73.9,6.6,0.1,17.0,27.57,693.5001,140.0045],
    [20289,1525558454,57.2993,-111.6893,703.7,461.6,71.0,6.6,0.5,16.86,26.97,693.9769,139.9971],
    [20290,1525558455,57.2995,-111.6882,703.0,463.7,66.4,7.1,-1.0,17.04,27.06,694.165,140.0057],
    [20291,1525558456,57.2997,-111.6872,701.5,465.5,62.1,7.6,-2.2,17.51,26.69,694.3646,140.0044],
    [20292,1525558457,57.3,-111.6862,698.7,462.7,59.0,7.8,-2.2,16.98,26.94,694.384,140.004],
    [20293,1525558458,57.3003,-111.6851,695.4,458.4,56.1,7.6,-2.0,16.75,26.74,694.3274,139.9924],
    [20294,1525558459,57.3005,-111.6842,692.2,452.2,53.0,7.6,-2.0,17.1,26.75,694.5312,139.9987],
    [20295,1525558460,57.3009,-111.6833,689.0,442.7,48.7,7.1,-2.8,16.42,26.66,694.5012,139.9964],
    [20296,1525558461,57.3012,-111.6824,687.0,437.9,45.2,6.9,-1.3,16.74,26.73,694.715,140.0002],
    [20297,1525558462,57.3016,-111.6816,686.4,439.1,41.8,6.8,0.2,17.14,26.73,694.9029,140.0051],
    [20298,1525558463,57.302,-111.6809,685.9,443.9,38.2,7.1,0.4,17.14,26.73,694.9599,140.0074],
    [20299,1525558464,57.3025,-111.6802,684.8,446.8,34.6,6.9,-0.3,16.94,26.81,695.1792,139.9905],
    [20300,1525558465,57.3029,-111.6795,683.8,447.8,29.3,7.6,-1.8,16.92,26.72,695.4397,140.0026],
    [20301,1525558466,57.3034,-111.6789,682.3,447.3,24.8,7.9,-1.4,17.5,26.71,695.7391,140.0033],
    [20302,1525558467,57.3039,-111.6785,680.5,445.5,21.3,7.8,-0.6,17.01,27.09,695.7189,140.0005],
    [20303,1525558468,57.3044,-111.678,677.9,442.9,16.9,7.4,-0.3,16.96,27.02,695.6827,140.0002],
    [20304,1525558469,57.3049,-111.6776,676.0,441.0,14.4,7.1,0.5,16.76,27.17,695.7311,139.9962],
    [20305,1525558470,57.3055,-111.6772,672.5,437.5,10.3,8.0,-0.2,17.52,27.21,696.0606,139.9973],
    [20306,1525558471,57.3059,-111.677,670.2,434.2,7.0,8.0,-1.5,17.78,26.98,696.4071,140.0022],
    [20307,1525558472,57.3065,-111.6768,669.3,433.3,3.6,7.3,-1.9,17.2,27.14,696.9676,140.0033],
    [20308,1525558473,57.307,-111.6766,669.3,433.3,360.3,7.2,-2.4,17.32,26.92,697.1668,140.0049],
    [20309,1525558474,57.3076,-111.6765,668.7,432.7,356.6,7.7,-2.1,16.68,27.25,697.4665,140.0021],
    [20310,1525558475,57.3081,-111.6765,666.0,429.0,353.9,7.6,-2.2,17.06,27.52,697.8546,140.0075],
    [20311,1525558476,57.3087,-111.6765,661.7,424.7,351.5,7.0,-1.7,17.24,27.13,697.9724,140.0069],
    [20312,1525558477,57.3092,-111.6766,657.1,420.1,348.6,7.1,-1.3,17.17,27.24,698.2373,140.0045],
    [20313,1525558478,57.3098,-111.6767,652.2,415.2,346.1,7.0,-1.2,17.12,27.21,698.6765,140.0012],
    [20314,1525558479,57.3102,-111.6768,648.6,411.6,343.7,7.6,-1.1,17.52,27.12,699.0267,139.9966],
    [20315,1525558480,57.3108,-111.677,644.6,407.6,341.1,7.9,-0.4,17.36,27.9,699.2899,140.0013],
    [20316,1525558481,57.3113,-111.6772,641.5,404.5,339.2,7.7,0.5,17.33,27.27,699.7318,140.0034],
    [20317,1525558482,57.3118,-111.6775,638.2,401.2,336.3,8.4,0.6,16.84,27.14,700.0447,140.0058],
    [20318,1525558483,57.3124,-111.6778,633.7,396.7,335.3,7.1,0.6,17.27,27.68,700.2621,140.0026],
    [20319,1525558484,57.3129,-111.6781,629.6,392.6,334.1,6.7,-0.2,17.84,26.7,700.3906,140.0011],
    [20320,1525558485,57.3134,-111.6785,625.7,388.7,331.9,7.2,-0.5,17.45,27.68,700.5373,140.0095],
    [20321,1525558486,57.3139,-111.6789,621.6,384.6,330.5,6.1,-0.6,17.42,27.13,700.697,140.0053],
    [20322,1525558487,57.3144,-111.6793,617.9,380.9,328.1,6.0,-0.5,17.45,27.34,700.7507,140.0013],
    [20323,1525558488,57.3148,-111.6798,614.8,378.8,325.4,6.1,-0.7,16.9,26.84,701.194,140.009],
    [20324,1525558489,57.3153,-111.6803,612.6,376.6,322.8,6.0,-0.9,17.45,26.89,701.3529,140.004],
    [20325,1525558490,57.3157,-111.6809,610.6,374.6,320.1,6.0,-0.6,17.24,26.73,701.4528,140.0062],
    [20326,1525558491,57.3162,-111.6815,609.2,373.2,317.1,6.0,-0.3,17.69,26.89,701.6758,140.0096],
    [20327,1525558492,57.3166,-111.6821,607.2,371.2,314.6,6.5,-1.1,17.76,26.99,701.6663,139.9991],
    [20328,1525558493,57.317,-111.6828,604.2,368.2,311.7,6.7,-1.4,18.06,26.38,701.8355,140.0085],
    [20329,1525558494,57.3173,-111.6835,601.2,365.5,308.7,6.7,-1.8,17.32,26.73,701.9151,140.0003],
    [20330,1525558495,57.3177,-111.6842,598.5,360.0,305.7,5.8,-1.5,17.64,26.69,702.0767,139.9985],
    [20331,1525558496,57.3179,-111.685,596.6,351.0,302.3,6.1,-2.4,17.5,26.52,702.4422,140.0046],
    [20332,1525558497,57.3182,-111.6858,595.8,341.8,298.7,5.6,-2.8,17.4,26.99,702.9419,140.0043],
    [20333,1525558498,57.3184,-111.6866,595.0,337.1,294.1,5.8,-1.3,17.28,26.5,703.4678,140.0101],
    [20334,1525558499,57.3187,-111.6876,593.2,330.5,290.3,5.7,-1.6,17.29,26.51,703.6209,140.0044],
    [20335,1525558500,57.3188,-111.6884,590.7,326.6,287.7,5.4,-1.7,17.77,26.37,704.0239,140.009],
    [20336,1525558501,57.319,-111.6894,586.4,321.5,284.6,5.2,-1.7,17.73,26.54,704.2408,140.0017],
    [20337,1525558502,57.3191,-111.6903,581.9,316.3,281.3,6.2,-1.6,17.62,27.15,704.5313,140.0076],
    [20338,1525558503,57.3192,-111.6913,577.3,311.6,278.6,6.6,-2.2,17.49,26.53,704.6186,140.0079],
    [20339,1525558504,57.3192,-111.6923,572.8,311.2,274.8,6.5,-1.7,17.6,26.48,704.8096,140.0021],
    [20340,1525558505,57.3192,-111.6932,569.3,310.9,271.7,5.8,-1.3,17.62,26.18,704.9847,140.0026],
    [20341,1525558506,57.3192,-111.6942,565.8,312.4,268.3,5.9,-1.6,18.11,25.98,705.0708,139.9977],
    [20342,1525558507,57.3192,-111.6952,562.9,309.1,265.2,5.9,-1.8,17.42,26.17,705.7394,140.0025],
    [20343,1525558508,57.3191,-111.6962,560.9,302.8,261.1,5.8,-0.6,17.65,26.1,706.1191,140.0043],
    [20344,1525558509,57.319,-111.6971,558.6,294.3,257.1,5.8,0.0,18.05,26.65,706.3894,140.003],
    [20345,1525558510,57.3188,-111.6981,556.1,287.7,254.2,6.0,-0.6,17.79,26.06,706.9299,140.0088],
    [20346,1525558511,57.3186,-111.699,553.1,282.1,252.1,5.8,-1.7,17.7,25.9,707.2572,140.0016],
    [20347,1525558512,57.3184,-111.6999,548.9,276.7,249.9,5.7,-1.9,17.57,25.83,707.5783,140.004],
    [20348,1525558513,57.3182,-111.7008,543.5,269.7,245.8,5.5,-0.1,18.21,26.07,707.7387,140.0054],
    [20349,1525558514,57.318,-111.7015,538.9,264.9,243.8,5.8,0.0,17.59,25.91,708.1385,140.0042],
    [20350,1525558515,57.3177,-111.7025,533.6,258.4,242.1,5.4,-1.0,18.14,25.97,708.3698,140.0066],
    [20351,1525558516,57.3174,-111.7034,529.7,253.8,240.5,5.4,-1.7,18.11,25.75,708.5794,139.9978],
    [20352,1525558517,57.3171,-111.7042,526.3,249.3,238.6,5.1,-1.7,18.64,25.42,708.9026,140.0055],
    [20353,1525558518,57.3168,-111.705,523.2,245.9,236.5,4.8,-1.6,18.26,25.57,709.3428,139.9975],
    [20354,1525558519,57.3164,-111.7058,520.0,242.1,234.7,4.5,-1.8,18.24,25.55,709.6268,140.0024],
    [20355,1525558520,57.3161,-111.7066,516.5,237.2,232.2,4.0,-1.3,17.97,25.61,710.021,139.9994],
    [20356,1525558521,57.3157,-111.7073,512.7,232.7,230.2,4.2,-1.4,18.17,25.62,710.4277,140.0026],
    [20357,1525558522,57.3153,-111.7081,508.6,227.5,228.3,4.4,-1.9,18.55,25.46,710.7895,139.9986],
    [20358,1525558523,57.3149,-111.7088,504.6,222.9,226.3,4.6,-2.4,18.22,26.23,711.1724,140.0027],
    [20359,1525558524,57.3145,-111.7095,500.7,218.7,225.1,5.1,-3.0,18.07,25.49,711.5351,139.9963],
    [20360,1525558525,57.3141,-111.7101,496.7,213.7,222.9,5.0,-2.5,18.16,25.91,711.8031,140.0006],
    [20361,1525558526,57.3136,-111.7107,491.6,208.6,220.0,4.6,-1.8,18.45,25.31,712.3097,140.0046],
    [20362,1525558527,57.3131,-111.7113,486.8,203.8,218.0,5.0,-1.7,18.47,25.35,712.7384,140.0019],
    [20363,1525558528,57.3126,-111.7119,482.1,198.8,216.1,5.5,-1.9,18.74,24.9,713.3148,140.0113],
    [20364,1525558529,57.3121,-111.7124,477.7,193.7,214.1,5.9,-1.9,18.52,25.62,713.7373,140.0014],
    [20365,1525558530,57.3117,-111.7129,473.6,189.6,210.3,4.9,-0.4,18.48,25.45,714.3445,139.9976],
    [20366,1525558531,57.3111,-111.7134,468.4,183.4,206.7,4.4,-0.5,18.05,25.34,714.5706,139.9961],
    [20367,1525558532,57.3106,-111.7138,463.6,178.6,205.3,5.7,-1.1,18.82,25.86,715.0063,140.001],
    [20368,1525558533,57.31,-111.7141,458.1,172.1,203.9,6.8,-1.8,18.81,25.2,715.4234,139.9983],
    [20369,1525558534,57.3094,-111.7144,452.0,165.0,201.3,6.1,-1.8,18.97,24.85,715.9964,140.003],
    [20370,1525558535,57.3089,-111.7147,446.2,158.2,199.1,5.9,-2.0,18.84,25.53,716.5809,139.9948],
    [20371,1525558536,57.3083,-111.715,440.9,152.9,197.2,6.1,-2.1,18.71,24.99,717.201,140.0085],
    [20372,1525558537,57.3077,-111.7152,435.6,147.6,194.6,5.7,-1.3,19.33,24.46,717.5925,139.9957],
    [20373,1525558538,57.3071,-111.7153,429.5,140.5,193.2,6.3,-1.7,18.94,24.63,718.2066,140.0057],
    [20374,1525558539,57.3065,-111.7155,422.2,133.2,190.4,5.7,-1.5,19.05,24.26,718.2861,140.0026],
    [20375,1525558540,57.3059,-111.7155,415.6,126.6,188.7,6.8,-1.0,18.76,25.01,718.4786,140.0025],
    [20376,1525558541,57.3053,-111.7156,410.1,121.1,186.9,6.3,-0.9,19.01,24.56,718.9783,139.9987],
    [20377,1525558542,57.3047,-111.7156,404.4,115.4,183.6,5.1,-0.2,19.18,24.19,719.3477,140.0075],
    [20378,1525558543,57.304,-111.7156,399.3,110.3,183.2,5.9,-0.7,18.8,24.53,719.5677,139.9955],
    [20379,1525558544,57.3034,-111.7155,395.4,105.4,180.2,4.0,-0.3,19.17,24.57,719.9017,140.005],
    [20380,1525558545,57.3028,-111.7154,392.1,102.1,180.1,5.2,-0.5,19.32,25.03,720.3376,139.9993],
    [20381,1525558546,57.3022,-111.7153,388.6,98.6,181.1,6.1,-1.5,19.42,24.12,720.4919,140.0062],
    [20382,1525558547,57.3016,-111.7153,384.4,94.4,178.6,2.8,-1.4,19.27,24.35,721.1451,140.0211],
    [20383,1525558548,57.301,-111.7152,380.4,89.4,179.0,3.3,-0.8,19.45,24.71,721.432,140.0306],
    [20384,1525558549,57.3003,-111.7151,376.8,85.8,181.6,6.4,0.8,20.39,23.85,721.6592,140.0184],
    [20385,1525558550,57.2997,-111.715,372.2,81.2,182.5,7.4,1.3,19.37,23.99,721.745,140.0062],
    [20386,1525558551,57.2991,-111.715,367.4,76.4,182.1,7.1,0.8,19.67,23.99,721.6089,140.0131],
    [20387,1525558552,57.2984,-111.7149,362.8,71.8,182.1,7.1,0.1,19.37,23.76,721.514,140.0129],
    [20388,1525558553,57.2979,-111.7148,359.2,68.2,181.9,7.0,0.0,19.7,23.64,721.0146,140.007],
    [20389,1525558554,57.2972,-111.7147,355.5,65.5,182.0,7.2,-0.3,20.52,23.2,720.616,140.0062],
    [20390,1525558555,57.2966,-111.7147,354.2,65.1,181.3,6.6,-0.8,20.15,23.77,720.1541,139.9983],
    [20391,1525558556,57.2959,-111.7146,355.0,67.0,180.8,6.1,-1.1,20.05,23.24,719.6897,140.0006],
    [20392,1525558557,57.2953,-111.7145,358.1,70.1,181.1,6.7,-0.9,20.13,23.18,718.9595,140.0052],
    [20393,1525558558,57.2947,-111.7144,362.8,76.8,180.6,6.6,-0.7,20.49,22.74,718.6843,139.998],
    [20394,1525558559,57.294,-111.7143,367.6,85.2,179.7,6.3,-1.0,20.52,22.8,717.8688,139.9974],
    [20395,1525558560,57.2934,-111.7142,371.9,95.3,179.8,6.9,0.2,20.14,22.9,717.3917,140.0047],
    [20396,1525558561,57.2928,-111.7141,377.4,112.1,180.2,7.6,0.0,19.77,22.79,716.6836,140.0043],
    [20397,1525558562,57.2922,-111.7139,383.9,126.6,180.0,7.0,0.3,20.2,22.87,716.2869,140.0065],
    [20398,1525558563,57.2916,-111.7138,390.6,139.9,177.2,3.9,2.1,20.36,23.36,715.3135,140.0061],
    [20399,1525558564,57.2909,-111.7137,398.2,151.3,176.7,3.8,3.0,20.03,22.55,714.8976,140.0028],
    [20400,1525558565,57.2903,-111.7136,405.4,156.5,177.1,4.6,3.0,20.38,22.68,714.0696,140.0002],
    [20401,1525558566,57.2897,-111.7134,412.9,151.5,176.6,4.2,2.5,19.87,22.71,713.707,139.9978],
    [20402,1525558567,57.2891,-111.7133,420.3,151.0,176.7,4.7,2.3,20.09,23.25,713.0971,139.9978],
    [20403,1525558568,57.2885,-111.7131,427.7,148.8,176.7,4.6,2.4,19.9,22.74,712.7225,140.0014],
    [20404,1525558569,57.2879,-111.713,434.9,151.9,174.8,3.1,2.5,19.86,22.61,712.3947,140.0005],
    [20405,1525558570,57.2874,-111.7128,441.9,154.3,174.8,4.1,2.0,20.36,22.4,711.9074,140.0052],
    [20406,1525558571,57.2867,-111.7126,448.9,158.9,173.9,4.8,2.2,20.31,22.66,711.3295,140.0001],
    [20407,1525558572,57.2862,-111.7124,454.3,163.0,171.5,4.5,1.8,19.78,22.58,710.8995,140.0029],
    [20408,1525558573,57.2856,-111.7122,459.5,167.6,168.5,3.8,2.2,20.25,22.61,710.5292,139.9975],
    [20409,1525558574,57.285,-111.7119,464.8,171.8,167.4,5.0,2.6,20.35,22.43,710.2324,139.9985],
    [20410,1525558575,57.2845,-111.7115,470.8,177.8,165.6,5.3,2.3,19.98,22.91,709.8244,140.0029],
    [20411,1525558576,57.2839,-111.7111,476.8,184.5,163.0,4.6,1.7,19.82,22.59,709.5364,140.001],
    [20412,1525558577,57.2834,-111.7107,482.2,190.2,160.8,4.0,0.9,20.35,23.07,709.1607,139.9988],
    [20413,1525558578,57.2829,-111.7103,487.3,195.3,159.1,3.4,0.2,20.32,23.42,709.082,140.001],
    [20414,1525558579,57.2823,-111.7099,491.6,199.7,158.9,4.0,-0.7,20.17,22.54,708.541,139.9991],
    [20415,1525558580,57.2818,-111.7094,495.9,203.9,158.4,3.8,-1.5,20.03,22.5,708.2841,139.995],
    [20416,1525558581,57.2813,-111.709,500.1,210.7,157.4,3.2,-1.5,19.9,22.77,707.9068,140.0002],
    [20417,1525558582,57.2808,-111.7086,503.2,215.3,157.9,3.8,-1.2,20.18,22.74,707.8287,139.998],
    [20418,1525558583,57.2802,-111.7081,507.7,222.9,158.2,3.9,-1.4,19.91,22.66,707.3314,139.9967],
    [20419,1525558584,57.2797,-111.7077,512.2,234.5,158.0,3.9,-1.2,20.12,22.78,706.8527,139.9958],
    [20420,1525558585,57.2792,-111.7072,515.6,247.3,159.4,5.5,-1.2,20.2,22.71,706.2807,139.9893],
    [20421,1525558586,57.2787,-111.7068,518.5,254.3,160.3,5.8,-0.7,20.37,22.42,705.8349,139.9937],
    [20422,1525558587,57.2781,-111.7063,522.4,266.8,158.6,4.4,-0.9,19.61,22.99,705.3373,139.9965],
    [20423,1525558588,57.2776,-111.7059,527.1,275.3,157.9,4.1,-0.5,20.45,22.88,704.7963,140.0017],
    [20424,1525558589,57.2771,-111.7054,532.5,279.5,156.3,3.2,-0.3,19.79,23.13,704.4547,139.9863],
    [20425,1525558590,57.2766,-111.7049,539.0,283.3,155.9,3.7,0.1,20.23,22.67,704.1872,139.9959],
    [20426,1525558591,57.276,-111.7044,545.3,290.1,154.9,3.2,0.8,20.5,22.67,703.6394,140.0018],
    [20427,1525558592,57.2755,-111.7039,551.0,295.0,155.7,4.5,1.0,19.86,23.21,703.4013,140.0045],
    [20428,1525558593,57.275,-111.7034,556.0,299.5,155.3,3.9,0.7,20.39,22.68,702.8185,140.0036],
    [20429,1525558594,57.2745,-111.7029,560.5,303.5,155.4,3.6,3.1,19.73,23.6,702.7205,140.0022],
    [20430,1525558595,57.274,-111.7024,564.6,310.7,157.3,5.2,3.6,19.83,23.4,702.2526,139.9989],
    [20431,1525558596,57.2735,-111.7019,570.0,320.1,157.0,5.0,3.0,19.81,23.38,702.119,140.0064],
    [20432,1525558597,57.273,-111.7014,575.5,324.5,157.7,5.7,2.7,19.74,23.55,701.745,139.9996],
    [20433,1525558598,57.2725,-111.7009,580.6,326.1,158.0,6.2,2.0,20.03,23.34,701.5301,139.9947],
    [20434,1525558599,57.2719,-111.7004,584.9,320.5,159.4,7.2,2.9,19.73,23.37,701.1102,139.9957],
    [20435,1525558600,57.2714,-111.6999,588.2,316.4,160.2,7.9,3.0,20.03,22.7,700.7291,140.0023],
    [20436,1525558601,57.2709,-111.6994,590.7,303.0,160.1,8.2,2.1,19.51,23.57,700.1927,139.9987],
    [20437,1525558602,57.2704,-111.6989,593.6,298.0,159.7,8.3,1.8,20.17,22.78,699.7247,139.9928],
    [20438,1525558603,57.2699,-111.6984,597.0,297.8,159.3,8.2,2.0,19.61,23.68,699.2925,140.0023],
    [20439,1525558604,57.2693,-111.6979,601.1,301.1,158.5,7.8,2.1,20.13,23.05,699.0449,140.0038],
    [20440,1525558605,57.2688,-111.6973,605.8,306.8,158.4,8.1,2.6,19.05,23.49,698.5705,140.0017],
    [20441,1525558606,57.2683,-111.6968,610.8,312.8,156.9,6.5,2.2,19.08,23.59,698.4033,139.9956],
    [20442,1525558607,57.2678,-111.6963,616.7,319.7,156.3,5.8,2.3,19.92,22.62,698.1104,139.9972],
    [20443,1525558608,57.2673,-111.6957,622.3,325.7,157.4,6.4,2.0,19.29,23.55,697.7613,140.0003],
    [20444,1525558609,57.2667,-111.6952,627.4,331.4,157.0,5.6,0.7,19.35,23.62,697.3088,139.9978],
    [20445,1525558610,57.2662,-111.6947,631.9,335.9,157.8,6.2,0.1,19.34,23.68,697.1456,139.9905],
    [20446,1525558611,57.2657,-111.6942,635.4,339.4,159.8,7.3,0.3,19.33,24.19,696.9084,140.0005],
    [20447,1525558612,57.2652,-111.6938,638.5,342.5,159.8,6.4,0.4,19.62,23.53,696.5877,140.0011],
    [20448,1525558613,57.2646,-111.6933,642.6,346.6,159.9,5.9,0.2,19.04,23.73,696.295,140.0031],
    [20449,1525558614,57.2641,-111.6928,646.8,350.8,160.8,6.1,0.2,18.98,23.74,696.0558,140.0045],
    [20450,1525558615,57.2635,-111.6924,650.7,355.4,162.4,6.9,0.8,19.1,24.59,695.8854,139.9982],
    [20451,1525558616,57.263,-111.6919,654.0,359.0,162.5,6.3,0.6,19.75,23.31,695.635,140.0041],
    [20452,1525558617,57.2624,-111.6915,657.4,362.4,162.4,6.2,0.2,19.56,24.09,695.2707,139.9942],
    [20453,1525558618,57.2619,-111.6911,660.3,364.2,162.9,6.5,0.4,19.1,24.01,695.0499,139.9953],
    [20454,1525558619,57.2614,-111.6907,663.9,367.9,162.3,6.2,-0.4,18.72,24.02,694.7549,139.9987],
    [20455,1525558620,57.2609,-111.6903,666.7,370.7,162.4,6.7,-1.3,18.99,23.97,694.4335,140.0016],
    [20456,1525558621,57.2603,-111.6899,669.6,373.6,163.2,7.2,-0.9,18.61,24.1,694.1065,139.9963],
    [20457,1525558622,57.2597,-111.6895,672.8,376.8,163.6,7.4,0.0,18.82,23.76,693.6886,140.0022],
    [20458,1525558623,57.2592,-111.689,676.6,380.6,164.2,8.2,0.6,19.36,23.38,693.6619,140.0025],
    [20459,1525558624,57.2586,-111.6886,680.5,384.5,163.7,8.2,0.0,18.8,24.8,693.3817,140.005],
    [20460,1525558625,57.2581,-111.6882,684.3,388.3,163.2,8.7,-0.8,18.88,24.84,693.2857,140.0013],
    [20461,1525558626,57.2576,-111.6877,687.9,391.9,162.4,8.5,-0.6,18.8,24.04,693.0288,140.0038],
    [20462,1525558627,57.257,-111.6872,691.7,395.7,161.5,8.1,-0.4,18.22,24.23,692.8202,140.0009],
    [20463,1525558628,57.2565,-111.6868,693.8,397.1,161.2,8.3,-0.1,18.66,24.58,692.65,139.9904],
    [20464,1525558629,57.2559,-111.6863,695.7,398.8,160.2,7.8,-0.1,18.73,24.34,692.2411,139.9964],
    [20465,1525558630,57.2554,-111.6858,698.0,401.1,160.7,9.3,-0.3,18.6,24.37,692.0962,139.9991],
    [20466,1525558631,57.2548,-111.6853,700.3,403.3,161.3,10.1,-0.8,18.87,24.23,691.9268,140.005],
    [20467,1525558632,57.2544,-111.6848,702.6,405.6,160.4,9.4,-1.3,18.86,24.09,691.4845,139.9989],
    [20468,1525558633,57.2538,-111.6843,705.9,408.9,160.9,10.0,-1.1,18.73,24.31,691.2493,140.0],
    [20469,1525558634,57.2532,-111.6838,709.3,412.2,160.7,9.8,-1.1,19.27,24.17,691.0123,140.0011],
    [20470,1525558635,57.2526,-111.6832,712.5,415.4,160.4,9.7,-1.2,18.09,24.43,690.7248,139.9963],
    [20471,1525558636,57.2521,-111.6827,715.3,417.5,159.8,9.4,-1.5,18.53,24.5,690.5407,139.9969],
    [20472,1525558637,57.2515,-111.6822,718.9,421.0,159.1,9.0,-1.7,18.1,24.97,690.1569,139.9953],
    [20473,1525558638,57.251,-111.6817,722.2,424.3,159.0,9.2,-2.0,18.51,24.75,689.7853,139.9991],
    [20474,1525558639,57.2505,-111.6812,725.1,427.1,159.1,9.5,-2.1,18.31,24.42,689.2966,139.9975],
    [20475,1525558640,57.2499,-111.6806,728.4,430.1,158.9,9.0,-1.6,18.82,23.94,689.06,139.9979],
    [20476,1525558641,57.2493,-111.6801,732.3,433.3,158.5,8.6,-1.4,18.16,24.49,688.4031,140.0008],
    [20477,1525558642,57.2488,-111.6796,736.5,437.5,158.9,9.2,-1.3,18.26,24.58,688.1109,139.9951],
    [20478,1525558643,57.2482,-111.679,741.0,441.9,158.8,9.0,-1.8,18.6,24.12,687.6686,139.988],
    [20479,1525558644,57.2477,-111.6785,745.4,446.2,157.8,8.1,-2.0,18.34,24.71,687.4561,139.9971],
    [20480,1525558645,57.2471,-111.6779,749.8,449.9,158.4,8.8,-2.3,18.69,24.48,687.3077,139.9974],
    [20481,1525558646,57.2466,-111.6774,754.1,454.2,157.4,7.9,-3.0,17.81,24.79,687.2473,140.005],
    [20482,1525558647,57.246,-111.6769,760.1,460.1,155.7,7.1,-2.9,18.62,24.55,687.2018,139.9991],
    [20483,1525558648,57.2455,-111.6763,764.6,465.6,156.5,7.9,-1.8,17.63,24.82,687.1941,139.9978],
    [20484,1525558649,57.2449,-111.6757,768.6,469.5,155.5,7.5,-1.5,18.06,24.71,687.1378,139.9914],
    [20485,1525558650,57.2444,-111.6752,770.9,470.8,156.4,9.0,-1.6,17.96,25.07,687.0983,140.0029],
    [20486,1525558651,57.2439,-111.6746,772.1,472.0,156.3,9.1,-2.1,18.11,24.92,687.0111,139.9976],
    [20487,1525558652,57.2433,-111.674,772.6,472.6,154.6,7.5,-2.7,18.11,25.7,686.9143,140.0027],
    [20488,1525558653,57.2427,-111.6734,772.6,471.6,154.3,7.4,-2.9,17.94,25.46,686.8817,139.9987],
    [20489,1525558654,57.2422,-111.6728,772.7,471.7,154.2,7.6,-3.3,18.25,24.8,686.651,140.0004],
    [20490,1525558655,57.2416,-111.6722,773.4,472.4,154.3,7.8,-3.4,17.86,25.25,686.5945,139.9905],
    [20491,1525558656,57.241,-111.6716,774.0,473.0,154.6,7.6,-3.1,17.95,24.99,686.4174,139.9973],
    [20492,1525558657,57.2404,-111.671,775.1,474.1,155.0,6.8,-3.0,18.18,24.7,686.2201,139.9993],
    [20493,1525558658,57.2399,-111.6705,776.4,475.4,156.7,7.6,-2.6,18.05,25.25,685.9041,139.9991],
    [20494,1525558659,57.2393,-111.6699,777.6,476.6,158.0,7.7,-2.7,18.38,24.79,685.6576,139.9937],
    [20495,1525558660,57.2387,-111.6694,779.1,478.1,159.7,7.8,-2.3,17.79,25.46,685.4373,140.0016],
    [20496,1525558661,57.2382,-111.6689,780.7,479.7,161.1,7.9,-2.4,18.12,24.91,685.2535,139.9926],
    [20497,1525558662,57.2375,-111.6684,783.5,482.5,162.5,7.5,-2.6,18.12,24.96,685.1033,139.997],
    [20498,1525558663,57.2369,-111.6679,787.0,486.0,163.7,6.9,-2.6,17.81,25.97,684.7429,139.998],
    [20499,1525558664,57.2363,-111.6675,790.0,489.0,165.4,7.3,-2.8,17.37,25.37,684.5272,139.9976],
    [20500,1525558665,57.2357,-111.6671,792.5,490.5,166.9,7.3,-3.0,17.64,25.21,684.0782,139.995],
    [20501,1525558666,57.235,-111.6667,795.1,493.1,168.5,7.5,-2.5,17.41,25.08,683.9788,140.0029],
    [20502,1525558667,57.2344,-111.6664,797.3,494.3,170.5,8.3,-2.5,18.33,24.75,683.6296,140.0005],
    [20503,1525558668,57.2338,-111.6661,800.3,497.3,171.9,8.1,-2.3,17.21,25.16,683.5094,140.0026],
    [20504,1525558669,57.2331,-111.6658,804.0,501.0,173.1,7.9,-2.2,18.16,25.29,683.2713,140.0017],
    [20505,1525558670,57.2325,-111.6656,807.9,504.9,173.9,7.6,-1.7,17.1,25.28,683.0377,140.0013],
    [20506,1525558671,57.2318,-111.6653,811.4,508.4,174.9,7.5,-1.9,17.77,25.66,682.6256,139.9945],
    [20507,1525558672,57.2312,-111.6651,814.3,511.3,175.7,7.6,-2.2,17.75,25.32,682.2953,139.9966],
    [20508,1525558673,57.2306,-111.6649,817.3,514.3,176.5,7.6,-2.7,17.7,25.61,681.9686,140.0013],
    [20509,1525558674,57.2299,-111.6647,820.3,517.3,176.6,7.0,-2.8,17.68,25.61,681.5957,139.9938],
    [20510,1525558675,57.2293,-111.6645,823.4,520.7,177.6,7.3,-3.0,17.64,25.53,681.0529,139.9993],
    [20511,1525558676,57.2286,-111.6644,826.9,524.9,178.2,7.0,-2.4,17.84,25.72,680.8358,140.0012],
    [20512,1525558677,57.228,-111.6642,830.7,528.7,178.5,6.5,-1.7,17.64,25.32,680.3255,139.985],
    [20513,1525558678,57.2273,-111.6641,834.9,532.9,179.2,6.6,-1.7,17.97,25.13,679.7985,139.9979],
    [20514,1525558679,57.2267,-111.664,839.7,537.7,180.0,6.8,-1.8,17.59,25.66,679.6899,139.996],
    [20515,1525558680,57.226,-111.6639,845.6,542.6,180.9,7.0,-2.0,17.51,25.74,679.1364,139.9961],
    [20516,1525558681,57.2254,-111.6638,851.0,548.0,181.3,7.1,-2.6,18.13,25.17,678.9018,139.9987],
    [20517,1525558682,57.2247,-111.6637,856.3,552.3,181.9,7.1,-2.3,17.32,25.79,678.3806,139.9972],
    [20518,1525558683,57.2241,-111.6636,861.9,557.9,180.7,5.5,-1.9,17.38,25.65,678.1597,139.9961],
    [20519,1525558684,57.2234,-111.6635,866.9,562.9,181.4,6.3,-1.8,17.32,26.24,677.9433,140.005],
    [20520,1525558685,57.2228,-111.6635,871.2,568.2,181.4,6.2,-1.6,17.24,25.99,677.6946,139.9981],
    [20521,1525558686,57.2222,-111.6634,875.4,572.4,180.7,5.8,-2.2,17.83,25.19,677.5864,139.9936],
    [20522,1525558687,57.2216,-111.6633,879.6,576.6,180.1,5.6,-2.6,17.3,25.93,677.5079,139.9889],
    [20523,1525558688,57.2209,-111.6632,883.0,580.0,179.6,5.7,-2.5,17.22,26.45,677.0581,139.9849],
    [20524,1525558689,57.2203,-111.6631,886.1,583.1,178.8,5.3,-2.5,17.75,25.69,676.6624,139.997],
    [20525,1525558690,57.2196,-111.663,888.3,585.3,178.3,5.2,-2.3,17.49,25.57,676.445,139.9966],
    [20526,1525558691,57.219,-111.6629,890.3,587.3,179.5,6.6,-1.9,17.22,26.36,675.9531,140.0003],
    [20527,1525558692,57.2183,-111.6627,892.4,588.5,180.7,7.6,-0.5,17.16,26.02,675.7208,139.989],
    [20528,1525558693,57.2177,-111.6626,895.1,591.1,180.4,7.0,0.6,17.11,26.21,675.4797,140.0015],
    [20529,1525558694,57.2171,-111.6625,899.0,595.0,180.5,7.0,0.6,17.4,26.37,674.9465,139.9883],
    [20530,1525558695,57.2164,-111.6624,903.4,600.3,180.6,6.8,0.6,16.94,27.11,674.5117,140.0036],
    [20531,1525558696,57.2158,-111.6623,908.2,604.4,180.2,6.3,0.6,17.0,26.38,674.4467,140.0018],
    [20532,1525558697,57.2151,-111.6622,913.1,609.1,182.4,8.2,0.2,16.38,26.28,674.0817,139.9899],
    [20533,1525558698,57.2145,-111.6622,917.5,613.5,181.9,6.4,0.8,17.11,25.9,673.6113,140.0054],
    [20534,1525558699,57.2139,-111.6621,922.0,619.0,182.2,6.3,1.1,17.12,25.92,673.5147,139.9988],
    [20535,1525558700,57.2132,-111.662,925.8,622.7,184.1,7.4,0.5,16.99,26.64,673.1784,139.9926],
    [20536,1525558701,57.2126,-111.662,929.6,627.6,184.5,7.2,0.9,16.72,26.65,672.8958,140.0001],
    [20537,1525558702,57.2119,-111.662,933.9,631.9,186.5,8.7,1.0,17.27,25.82,672.6824,139.9896],
    [20538,1525558703,57.2113,-111.662,938.1,636.1,186.6,7.7,0.9,16.79,26.71,672.3198,140.0033],
    [20539,1525558704,57.2107,-111.662,941.4,639.4,187.0,7.8,1.3,16.76,26.7,672.1098,139.9904],
    [20540,1525558705,57.2101,-111.662,944.5,642.2,188.6,8.6,1.4,16.7,26.42,671.9718,139.9921],
    [20541,1525558706,57.2094,-111.6621,948.0,645.0,188.4,7.8,2.1,16.53,26.83,671.5376,139.9936],
    [20542,1525558707,57.2088,-111.6621,951.3,648.3,190.4,9.0,1.8,16.66,26.44,671.2124,139.9951],
    [20543,1525558708,57.2082,-111.6622,954.4,651.4,191.0,8.8,1.5,16.58,26.82,670.9173,139.9972],
    [20544,1525558709,57.2076,-111.6623,957.8,654.8,191.8,9.2,1.5,16.74,26.83,670.8782,139.996],
    [20545,1525558710,57.207,-111.6624,961.3,658.3,192.9,9.6,1.0,17.05,26.27,670.5377,139.9925],
    [20546,1525558711,57.2064,-111.6625,965.1,662.1,193.0,9.0,0.8,16.64,27.12,670.2189,140.0027],
    [20547,1525558712,57.2058,-111.6626,969.0,666.0,193.7,8.9,0.5,16.59,27.46,670.0816,139.9883],
    [20548,1525558713,57.2052,-111.6628,972.0,669.0,193.1,7.7,1.1,16.41,26.68,669.9767,139.991],
    [20549,1525558714,57.2045,-111.6629,975.3,672.3,192.9,7.1,1.4,16.55,26.77,669.659,139.9991],
    [20550,1525558715,57.2039,-111.663,978.1,675.1,194.4,8.3,0.8,16.72,26.45,669.3178,139.9973],
    [20551,1525558716,57.2033,-111.6632,980.9,677.9,195.5,8.5,0.3,16.55,26.45,669.1073,140.0033],
    [20552,1525558717,57.2027,-111.6634,983.3,680.3,196.5,8.9,0.6,16.52,26.84,668.8798,139.9971],
    [20553,1525558718,57.2021,-111.6636,985.3,683.4,197.9,9.6,0.4,16.48,26.85,668.6598,139.9943],
    [20554,1525558719,57.2015,-111.6638,988.2,686.2,198.0,9.0,0.6,16.61,26.82,668.4491,140.0028],
    [20555,1525558720,57.2009,-111.664,991.7,689.7,197.7,8.4,1.0,16.12,27.09,668.2799,139.9984],
    [20556,1525558721,57.2003,-111.6642,995.2,693.2,197.5,8.1,1.0,16.52,27.01,668.0149,140.001],
    [20557,1525558722,57.1997,-111.6645,998.8,696.8,197.8,8.2,0.5,16.18,26.97,667.8666,139.9985],
    [20558,1525558723,57.1991,-111.6647,1001.4,700.1,197.8,8.4,1.0,16.26,27.33,667.7852,139.9981],
    [20559,1525558724,57.1985,-111.6649,1003.5,703.1,197.2,8.1,1.3,16.16,27.6,667.3677,139.9959],
    [20560,1525558725,57.1979,-111.6651,1005.7,709.3,197.0,8.4,0.9,16.64,27.12,667.2123,139.993],
    [20561,1525558726,57.1973,-111.6653,1008.4,720.9,196.2,8.1,0.7,16.2,27.63,666.7802,139.9958],
    [20562,1525558727,57.1966,-111.6655,1011.1,741.3,195.7,8.5,0.2,15.6,27.37,666.6206,139.9907],
    [20563,1525558728,57.1961,-111.6657,1013.6,757.4,195.1,8.8,-0.1,16.33,27.25,666.2805,140.0007],
    [20564,1525558729,57.1954,-111.6658,1016.7,768.8,193.8,8.7,-0.3,15.69,27.45,666.121,139.9928],
    [20565,1525558730,57.1949,-111.6659,1019.9,775.6,192.6,8.5,0.0,16.41,26.98,665.8174,140.0019],
    [20566,1525558731,57.1942,-111.666,1023.7,780.5,190.5,7.8,0.5,16.14,27.44,665.7182,139.9992],
    [20567,1525558732,57.1936,-111.6661,1027.2,777.1,189.4,7.8,0.4,16.1,28.05,665.4921,139.9945],
    [20568,1525558733,57.193,-111.6662,1030.2,770.2,187.4,6.6,0.7,15.82,27.64,665.3238,140.0031],
    [20569,1525558734,57.1923,-111.6662,1033.3,760.0,185.7,6.4,0.5,16.14,27.21,665.0106,139.9918],
    [20570,1525558735,57.1917,-111.6662,1035.8,753.0,184.1,6.0,0.5,16.18,27.59,664.761,140.0048],
    [20571,1525558736,57.1911,-111.6661,1038.5,757.2,182.7,6.0,0.8,15.69,27.71,664.45,139.9943],
    [20572,1525558737,57.1904,-111.6661,1041.0,766.3,182.6,7.2,0.6,15.98,27.59,664.2566,139.9918],
    [20573,1525558738,57.1898,-111.666,1043.9,779.7,180.7,6.4,0.8,15.88,27.63,663.7954,139.9942],
    [20574,1525558739,57.1892,-111.6659,1047.1,791.2,179.3,6.0,1.0,16.0,27.35,663.6094,139.9897],
    [20575,1525558740,57.1886,-111.6658,1050.4,793.8,178.3,5.8,0.4,15.77,28.09,663.1781,140.0035],
    [20576,1525558741,57.188,-111.6657,1053.5,787.2,176.6,4.8,1.0,15.53,27.87,663.0911,139.9917],
    [20577,1525558742,57.1873,-111.6655,1057.2,779.5,175.4,4.2,1.0,15.7,28.19,662.8382,140.0056],
    [20578,1525558743,57.1867,-111.6653,1061.0,772.6,174.2,3.5,1.0,15.65,27.97,662.7301,140.002],
    [20579,1525558744,57.186,-111.6651,1064.4,776.5,175.1,4.9,1.3,15.99,27.65,662.541,139.9919],
    [20580,1525558745,57.1854,-111.665,1067.4,780.4,174.9,4.7,0.9,15.5,27.98,662.4518,140.0004],
    [20581,1525558746,57.1848,-111.6648,1071.3,784.5,174.8,5.1,0.6,15.23,27.87,662.377,139.9974],
    [20582,1525558747,57.1842,-111.6646,1074.2,788.9,175.0,5.2,-0.1,15.23,28.01,662.392,139.9972],
    [20583,1525558748,57.1835,-111.6644,1076.3,792.5,174.1,4.3,0.0,15.55,28.82,662.3264,139.996],
    [20584,1525558749,57.1829,-111.6642,1078.0,793.0,174.7,5.4,0.0,15.95,27.89,662.295,139.9991],
    [20585,1525558750,57.1823,-111.664,1079.8,792.1,174.6,6.0,-0.6,14.9,28.22,662.0278,139.996],
    [20586,1525558751,57.1816,-111.6638,1080.8,790.9,174.3,6.3,-0.8,15.3,28.39,661.8482,139.997],
    [20587,1525558752,57.181,-111.6636,1081.0,790.2,174.1,6.7,-0.3,15.76,28.25,661.2561,139.9999],
    [20588,1525558753,57.1804,-111.6633,1081.1,791.1,173.7,7.0,-0.2,15.39,28.62,661.1813,139.9987],
    [20589,1525558754,57.1797,-111.6631,1082.1,792.1,173.6,7.6,-0.3,15.64,28.33,660.3417,139.9934],
    [20590,1525558755,57.1791,-111.6628,1083.7,794.6,173.4,7.7,0.0,15.3,28.36,659.7842,140.0031],
    [20591,1525558756,57.1784,-111.6625,1086.2,798.2,173.4,7.8,0.5,15.33,28.98,659.2501,139.9852],
    [20592,1525558757,57.1778,-111.6623,1090.5,802.4,172.0,6.5,-0.1,15.66,28.01,658.6257,139.9709],
    [20593,1525558758,57.1772,-111.662,1096.5,808.5,171.9,7.3,-0.8,15.18,28.57,657.7139,139.9933],
    [20594,1525558759,57.1766,-111.6617,1102.7,815.0,172.5,7.9,-0.5,15.1,28.57,656.7528,139.9776],
    [20595,1525558760,57.1759,-111.6614,1110.5,822.3,170.3,5.4,-0.9,15.18,28.9,655.8071,139.9984],
    [20596,1525558761,57.1753,-111.6611,1117.7,830.7,170.4,5.4,-0.1,15.07,29.0,655.6169,139.9886],
    [20597,1525558762,57.1747,-111.6609,1127.1,840.1,170.6,4.7,1.0,15.14,29.16,654.6872,140.0046],
    [20598,1525558763,57.174,-111.6606,1137.6,851.3,169.6,3.7,1.2,15.18,28.91,654.2739,139.9903],
    [20599,1525558764,57.1734,-111.6603,1149.0,863.0,172.8,6.7,0.7,15.05,28.93,653.6935,139.9812],
    [20600,1525558765,57.1728,-111.6601,1160.1,874.1,172.4,5.8,-0.2,15.28,28.64,653.3011,139.9955],
    [20601,1525558766,57.1722,-111.6598,1168.4,883.1,172.7,6.1,-0.6,15.11,29.72,652.8474,139.9965],
    [20602,1525558767,57.1715,-111.6596,1177.2,892.2,172.6,6.2,-1.3,15.01,29.11,652.6093,140.0011],
    [20603,1525558768,57.1709,-111.6593,1184.6,900.8,171.7,6.4,-0.6,15.19,29.54,652.23,140.0056],
    [20604,1525558769,57.1704,-111.6591,1190.4,906.3,172.0,7.7,0.8,14.72,29.22,652.0158,139.9917],
    [20605,1525558770,57.1697,-111.6588,1196.1,913.1,169.7,7.0,0.6,15.21,29.17,651.7015,139.988],
    [20606,1525558771,57.1692,-111.6584,1201.2,917.8,167.6,6.4,0.4,14.39,29.45,651.5079,139.9938],
    [20607,1525558772,57.1685,-111.658,1205.6,922.6,165.7,6.5,-0.3,14.63,29.92,651.2596,140.008],
    [20608,1525558773,57.1679,-111.6576,1209.7,926.7,164.3,7.4,-1.7,14.58,30.08,651.2875,139.993],
    [20609,1525558774,57.1673,-111.6572,1213.5,931.5,163.2,7.9,-1.7,14.76,29.55,651.1573,139.9974],
    [20610,1525558775,57.1667,-111.6567,1216.9,935.1,163.1,8.7,-0.8,14.69,30.02,650.948,139.9856],
    [20611,1525558776,57.1661,-111.6563,1219.6,938.6,163.0,9.3,-1.1,14.51,30.3,650.8114,139.9995],
    [20612,1525558777,57.1656,-111.6558,1222.0,940.8,162.5,9.3,-2.0,14.48,30.16,650.4819,139.9969],
    [20613,1525558778,57.165,-111.6553,1223.3,941.3,163.2,10.1,-1.7,14.32,29.87,650.1811,139.9877],
    [20614,1525558779,57.1644,-111.6548,1224.5,944.1,163.4,10.0,-1.5,14.48,30.48,649.9946,139.9987],
    [20615,1525558780,57.1638,-111.6543,1226.3,947.7,161.8,8.4,-1.0,14.48,30.63,649.4475,140.001],
    [20616,1525558781,57.1632,-111.6538,1228.7,951.8,161.2,8.2,-1.0,14.96,29.57,649.1881,139.9987],
    [20617,1525558782,57.1626,-111.6533,1232.1,955.8,160.6,7.7,-0.1,14.35,29.94,648.7044,140.0],
    [20618,1525558783,57.162,-111.6528,1236.0,960.0,161.8,9.3,0.8,14.42,29.9,648.2373,139.9897],
    [20619,1525558784,57.1614,-111.6523,1240.1,965.8,161.8,9.4,0.4,14.26,30.68,647.6839,139.9864],
    [20620,1525558785,57.1608,-111.6518,1244.3,970.7,160.9,8.6,-0.3,14.21,30.32,647.34,139.9949],
    [20621,1525558786,57.1602,-111.6512,1248.9,974.8,161.3,9.1,-0.2,14.14,30.31,646.7214,139.9929],
    [20622,1525558787,57.1597,-111.6508,1254.0,979.1,161.2,8.8,0.3,14.16,30.99,646.2567,139.9969],
    [20623,1525558788,57.1591,-111.6502,1261.0,985.0,161.3,9.0,0.7,13.81,30.68,645.8729,139.9852],
    [20624,1525558789,57.1585,-111.6497,1267.9,990.8,161.4,9.3,1.3,13.97,31.16,645.4989,139.9966],
    [20625,1525558790,57.158,-111.6492,1274.8,999.1,161.1,9.1,1.2,13.35,30.75,645.1893,139.9927],
    [20626,1525558791,57.1574,-111.6487,1281.7,1007.7,160.5,8.8,0.5,13.75,30.69,644.9924,139.9963],
    [20627,1525558792,57.1568,-111.6482,1287.8,1015.4,159.6,7.9,0.6,13.81,30.99,644.6757,139.9934],
    [20628,1525558793,57.1563,-111.6477,1292.9,1022.2,159.3,7.7,0.6,13.46,30.98,644.5688,139.9893],
    [20629,1525558794,57.1557,-111.6471,1297.3,1028.3,159.0,7.8,0.4,13.84,31.28,644.4036,139.9922],
    [20630,1525558795,57.1552,-111.6466,1301.3,1033.2,158.8,7.9,0.2,14.12,30.84,644.2475,140.0078],
    [20631,1525558796,57.1546,-111.6461,1304.5,1037.8,158.0,7.3,-0.1,13.66,31.18,644.1607,139.9976],
    [20632,1525558797,57.1541,-111.6456,1307.5,1041.5,157.8,7.5,-0.2,13.48,31.22,643.9829,139.9952],
    [20633,1525558798,57.1535,-111.645,1309.9,1043.9,158.3,8.2,-0.2,13.78,31.73,643.7023,140.0031],
    [20634,1525558799,57.153,-111.6445,1311.5,1045.5,158.0,7.8,-0.3,13.42,31.93,643.526,139.9866],
    [20635,1525558800,57.1524,-111.6439,1313.3,1047.3,156.3,5.9,-0.8,13.1,31.43,643.4575,139.9924],
    [20636,1525558801,57.1519,-111.6434,1315.3,1049.3,155.9,6.0,-1.0,13.4,31.67,643.2854,140.0072],
    [20637,1525558802,57.1513,-111.6428,1317.4,1050.4,155.9,6.3,-1.1,13.46,31.79,642.9648,139.9876],
    [20638,1525558803,57.1507,-111.6423,1319.4,1052.4,154.6,5.9,-1.9,13.05,31.69,642.7034,139.9862],
    [20639,1525558804,57.1502,-111.6417,1321.7,1053.7,154.2,6.3,-1.4,12.69,31.76,642.2198,139.9928],
    [20640,1525558805,57.1496,-111.6411,1323.5,1055.5,155.3,7.6,-1.0,13.49,31.14,641.8408,139.9805],
    [20641,1525558806,57.1491,-111.6405,1325.9,1058.9,152.9,5.2,-1.8,12.92,31.82,641.6034,139.9864],
    [20642,1525558807,57.1486,-111.64,1329.0,1062.2,152.4,5.0,-1.6,13.26,31.73,641.075,139.997],
    [20643,1525558808,57.148,-111.6393,1333.1,1067.1,153.8,6.9,-1.4,13.29,32.62,640.7852,139.9922],
    [20644,1525558809,57.1475,-111.6388,1336.7,1070.7,152.9,6.2,-1.8,13.04,32.29,640.5679,139.9804],
    [20645,1525558810,57.1469,-111.6381,1341.8,1075.7,152.0,5.7,-1.5,13.23,32.24,640.3278,139.9974],
    [20646,1525558811,57.1463,-111.6375,1346.6,1082.6,151.8,5.6,-1.5,13.1,32.1,640.0745,140.0071],
    [20647,1525558812,57.1458,-111.6369,1351.0,1088.2,151.9,5.6,-1.9,12.89,32.37,639.8192,139.997],
    [20648,1525558813,57.1452,-111.6362,1355.5,1091.2,151.9,4.9,-2.2,12.84,32.34,639.5277,140.0037],
    [20649,1525558814,57.1446,-111.6356,1359.4,1092.7,152.7,4.3,-0.6,13.05,32.57,639.3158,139.9924],
    [20650,1525558815,57.1441,-111.6351,1362.4,1094.4,154.8,5.3,0.4,12.87,32.38,638.9775,139.9916],
    [20651,1525558816,57.1435,-111.6345,1365.7,1096.7,155.4,4.7,-0.4,13.03,32.29,638.807,139.9896],
    [20652,1525558817,57.1429,-111.6339,1369.7,1100.7,156.9,5.2,-0.9,12.93,33.18,638.6295,139.9956],
    [20653,1525558818,57.1424,-111.6334,1373.1,1103.4,158.2,5.5,-1.3,13.14,32.48,638.2584,140.0008],
    [20654,1525558819,57.1417,-111.6329,1376.6,1106.6,159.2,5.6,-1.3,12.7,32.39,638.0632,139.9846],
    [20655,1525558820,57.1412,-111.6324,1380.0,1110.0,160.9,6.7,-0.8,13.2,31.97,637.7813,140.0045],
    [20656,1525558821,57.1406,-111.6319,1383.1,1113.1,162.6,7.9,-0.5,12.55,32.58,637.4706,139.9819],
    [20657,1525558822,57.14,-111.6315,1386.0,1116.0,162.4,7.2,-1.4,12.3,32.7,637.1267,139.9833],
    [20658,1525558823,57.1394,-111.631,1389.3,1118.8,160.1,5.0,-2.0,12.27,32.99,636.5375,139.9885],
    [20659,1525558824,57.1388,-111.6305,1392.6,1121.6,160.5,5.5,-1.5,12.85,32.42,636.1309,139.9811],
    [20660,1525558825,57.1382,-111.6301,1395.8,1124.8,160.1,5.1,-1.6,12.63,32.87,635.6487,139.9945],
    [20661,1525558826,57.1376,-111.6296,1400.7,1129.7,159.9,5.1,-1.3,13.11,32.46,635.0923,139.996],
    [20662,1525558827,57.137,-111.6291,1406.0,1135.0,160.1,5.5,-1.2,12.21,33.11,634.9437,140.0067],
    [20663,1525558828,57.1364,-111.6286,1411.7,1139.7,159.3,4.5,-0.5,12.62,33.13,634.3142,139.9966],
    [20664,1525558829,57.1358,-111.6281,1417.0,1145.0,158.3,3.3,-0.1,12.54,33.29,633.7342,139.9966],
    [20665,1525558830,57.1352,-111.6277,1422.5,1150.5,158.3,3.6,-0.3,12.37,33.32,633.5491,139.9857],
    [20666,1525558831,57.1346,-111.6272,1428.4,1155.4,159.6,5.1,0.2,12.57,33.04,632.9138,139.9928],
    [20667,1525558832,57.1341,-111.6267,1434.3,1161.3,160.8,6.7,0.3,12.34,33.71,632.1782,139.9935],
    [20668,1525558833,57.1334,-111.6262,1441.0,1167.0,161.7,7.5,0.1,11.79,33.59,631.959,139.9735],
    [20669,1525558834,57.1329,-111.6257,1447.1,1172.1,160.6,6.8,0.2,12.4,33.85,631.5447,139.9881],
    [20670,1525558835,57.1323,-111.6252,1453.6,1177.5,161.4,8.5,0.0,12.95,33.49,631.2191,139.9954],
    [20671,1525558836,57.1317,-111.6247,1460.2,1184.2,161.1,9.0,-1.4,12.11,34.22,631.0278,139.9826],
    [20672,1525558837,57.1311,-111.6242,1466.3,1190.3,158.6,7.0,-2.8,12.11,33.99,630.7912,139.9932],
    [20673,1525558838,57.1305,-111.6237,1471.7,1195.7,157.8,6.3,-1.7,12.07,34.06,630.2014,139.9947],
    [20674,1525558839,57.13,-111.6232,1475.8,1199.8,158.4,6.5,0.0,11.71,33.94,629.8754,139.9874],
    [20675,1525558840,57.1294,-111.6226,1480.0,1204.0,157.2,5.6,-0.2,11.58,34.1,629.4905,139.9985],
    [20676,1525558841,57.1288,-111.6221,1483.9,1208.9,157.9,6.9,0.4,11.87,35.01,628.9532,139.9862],
    [20677,1525558842,57.1282,-111.6215,1487.7,1212.6,158.3,6.7,0.8,11.89,34.81,628.3729,139.9934],
    [20678,1525558843,57.1277,-111.621,1492.6,1218.5,157.2,5.5,0.4,12.01,34.74,627.8986,139.9907],
    [20679,1525558844,57.1271,-111.6204,1498.3,1225.3,158.6,7.1,0.8,11.52,34.61,627.3282,139.9875],
    [20680,1525558845,57.1265,-111.6199,1503.9,1231.6,160.0,8.3,0.9,11.84,34.53,627.1583,139.9927],
    [20681,1525558846,57.1259,-111.6194,1509.6,1237.5,160.0,7.7,1.1,11.68,34.7,626.741,139.994],
    [20682,1525558847,57.1253,-111.6189,1515.6,1244.6,159.2,6.4,1.0,11.67,34.62,626.4608,139.9851],
    [20683,1525558848,57.1248,-111.6184,1522.4,1252.4,159.2,6.4,0.6,11.73,34.99,626.1044,139.9852],
    [20684,1525558849,57.1242,-111.6178,1529.6,1260.6,159.4,7.1,0.4,11.61,35.81,625.7496,139.9813],
    [20685,1525558850,57.1236,-111.6173,1534.8,1265.8,160.2,8.4,0.5,11.82,34.89,625.4429,139.9965],
    [20686,1525558851,57.123,-111.6168,1540.2,1272.2,160.0,8.7,0.7,10.84,35.29,625.2739,139.9726],
    [20687,1525558852,57.1224,-111.6163,1544.7,1277.7,160.0,9.0,1.2,11.15,35.34,624.9916,140.0024],
    [20688,1525558853,57.1219,-111.6157,1548.9,1284.3,159.5,8.9,1.5,10.76,35.46,624.7667,139.9951],
    [20689,1525558854,57.1213,-111.6152,1553.0,1294.4,158.9,8.6,2.2,11.77,35.38,624.4539,139.9994],
    [20690,1525558855,57.1207,-111.6146,1556.7,1308.8,158.0,8.2,2.4,10.88,35.52,624.1497,139.9938],
    [20691,1525558856,57.1202,-111.614,1559.9,1319.1,158.2,8.4,2.9,11.31,36.32,623.7424,139.9863],
    [20692,1525558857,57.1196,-111.6135,1562.6,1318.2,157.3,7.3,2.6,10.95,35.89,623.3792,139.9905],
    [20693,1525558858,57.1191,-111.6129,1565.6,1311.9,157.0,7.0,2.1,11.11,36.21,622.9972,139.9895],
    [20694,1525558859,57.1185,-111.6123,1570.0,1311.0,157.3,6.9,2.2,11.0,35.9,622.4538,139.9892],
    [20695,1525558860,57.1179,-111.6117,1574.7,1313.7,157.6,7.0,2.3,10.84,35.87,622.0043,139.9744],
    [20696,1525558861,57.1173,-111.6112,1579.7,1317.7,158.4,7.6,2.4,11.03,36.13,621.5259,139.9909],
    [20697,1525558862,57.1168,-111.6106,1584.7,1323.2,158.1,6.9,2.1,11.76,35.5,621.0195,139.9875],
    [20698,1525558863,57.1162,-111.6101,1589.9,1328.3,158.6,7.0,2.2,11.03,36.27,620.3199,139.9786],
    [20699,1525558864,57.1156,-111.6096,1595.8,1333.9,158.9,6.4,2.0,11.32,35.76,619.9594,139.9886],
    [20700,1525558865,57.1151,-111.6091,1602.2,1339.1,158.9,5.7,2.6,10.71,35.93,619.5752,140.0058],
    [20701,1525558866,57.1145,-111.6085,1608.7,1345.7,159.5,5.6,3.2,10.35,36.25,619.2633,139.9748],
    [20702,1525558867,57.114,-111.608,1615.6,1352.6,159.0,4.9,2.6,10.86,36.75,619.0652,139.9831],
    [20703,1525558868,57.1134,-111.6076,1622.3,1359.3,157.9,3.9,2.5,10.95,36.12,618.7991,140.0079],
    [20704,1525558869,57.1129,-111.6071,1628.3,1364.3,158.5,4.8,2.2,11.23,35.78,618.5233,139.9896],
    [20705,1525558870,57.1123,-111.6065,1633.7,1369.0,158.1,4.2,1.9,10.64,36.78,618.2389,139.9984],
    [20706,1525558871,57.1117,-111.606,1638.4,1373.4,158.8,5.0,2.5,10.69,37.3,617.9917,139.979],
    [20707,1525558872,57.1111,-111.6055,1641.9,1376.9,160.8,6.6,3.2,10.58,36.92,617.7374,139.9979],
    [20708,1525558873,57.1106,-111.6051,1645.1,1380.1,159.9,5.8,2.8,10.8,36.55,617.6088,139.9994],
    [20709,1525558874,57.11,-111.6045,1649.0,1384.0,160.5,6.7,2.7,10.49,37.18,617.4184,139.9958],
    [20710,1525558875,57.1094,-111.6041,1652.3,1388.3,160.2,6.8,1.8,10.93,37.0,617.2716,139.9839],
    [20711,1525558876,57.1088,-111.6035,1655.9,1391.9,159.4,5.9,1.6,10.45,37.38,617.1952,140.0],
    [20712,1525558877,57.1083,-111.603,1658.8,1394.8,158.4,5.0,1.6,10.21,37.41,617.0781,140.0094],
    [20713,1525558878,57.1077,-111.6026,1661.4,1396.4,158.4,5.4,0.8,10.16,37.53,616.8984,139.9866],
    [20714,1525558879,57.1071,-111.602,1663.9,1398.9,159.0,6.2,0.9,10.27,37.64,616.8869,139.9969],
    [20715,1525558880,57.1065,-111.6015,1665.6,1400.6,159.9,6.9,1.6,9.89,37.63,616.8177,139.9951],
    [20716,1525558881,57.106,-111.601,1667.2,1403.5,160.2,6.8,1.1,10.11,37.78,616.806,139.9873],
    [20717,1525558882,57.1054,-111.6005,1668.8,1405.8,159.3,5.7,0.0,10.16,38.55,616.7452,140.0025],
    [20718,1525558883,57.1048,-111.6,1670.6,1407.6,160.4,6.7,0.0,10.26,37.65,616.6498,139.9902],
    [20719,1525558884,57.1042,-111.5995,1671.3,1408.3,161.8,7.7,0.4,10.23,37.86,616.4201,139.9954],
    [20720,1525558885,57.1036,-111.599,1671.9,1408.9,162.6,8.1,0.6,10.57,37.51,616.2964,139.9907],
    [20721,1525558886,57.103,-111.5985,1672.4,1409.4,163.9,8.9,0.7,10.23,37.94,615.9845,139.9962],
    [20722,1525558887,57.1024,-111.5981,1673.2,1410.2,163.8,7.7,0.8,10.0,38.03,615.777,139.9954],
    [20723,1525558888,57.1017,-111.5976,1674.4,1411.4,164.4,7.8,0.9,9.68,38.72,615.5211,139.9902],
    [20724,1525558889,57.1011,-111.5971,1676.3,1413.3,164.5,7.3,0.8,10.08,38.4,615.4427,139.9813],
    [20725,1525558890,57.1005,-111.5967,1679.2,1416.2,164.4,7.4,0.8,10.01,38.92,615.2127,140.0039],
    [20726,1525558891,57.0999,-111.5963,1682.1,1419.1,164.7,8.2,0.9,10.24,38.2,615.0474,139.9902],
    [20727,1525558892,57.0992,-111.5958,1685.0,1422.0,163.8,8.1,0.7,9.09,38.59,614.8547,140.0],
    [20728,1525558893,57.0986,-111.5953,1687.7,1424.7,162.2,7.7,0.9,10.28,37.97,614.7499,140.0029],
    [20729,1525558894,57.098,-111.5948,1689.7,1425.7,161.7,8.6,1.6,9.9,38.4,614.4264,139.9902],
    [20730,1525558895,57.0974,-111.5943,1691.9,1427.9,159.9,8.0,1.3,9.95,38.48,614.3726,139.9971],
    [20731,1525558896,57.0968,-111.5937,1694.3,1430.3,159.2,8.5,1.3,9.54,38.74,614.3863,139.9901],
    [20732,1525558897,57.0962,-111.5932,1696.2,1432.9,158.9,8.6,1.6,9.73,38.78,614.2752,139.9988],
    [20733,1525558898,57.0956,-111.5926,1698.7,1435.7,157.5,7.8,1.1,9.79,39.16,614.2578,139.9838],
    [20734,1525558899,57.095,-111.592,1701.4,1438.4,157.4,7.7,1.5,9.85,38.41,614.2438,139.9877],
    [20735,1525558900,57.0944,-111.5914,1703.1,1439.1,157.4,7.9,1.7,10.04,38.59,614.1677,139.9927],
    [20736,1525558901,57.0938,-111.5907,1703.8,1439.7,158.8,9.5,2.1,9.64,39.3,614.1806,139.9996],
    [20737,1525558902,57.0932,-111.5901,1704.6,1440.2,158.8,9.6,1.6,9.21,39.12,614.1188,139.9932],
    [20738,1525558903,57.0926,-111.5896,1704.8,1439.5,158.2,8.6,2.3,9.51,39.73,614.0921,139.9881],
    [20739,1525558904,57.092,-111.589,1704.5,1438.4,157.8,7.7,3.0,9.54,39.46,614.1096,139.9994],
    [20740,1525558905,57.0914,-111.5884,1705.3,1440.6,157.1,7.0,2.9,9.15,39.11,614.0738,139.9981],
    [20741,1525558906,57.0907,-111.5877,1705.6,1443.4,157.6,7.5,2.8,9.94,38.91,614.1178,139.9968],
    [20742,1525558907,57.0901,-111.5871,1705.9,1446.0,157.5,7.4,2.7,9.26,39.28,614.1178,139.9968],
    [20743,1525558908,57.0895,-111.5865,1706.2,1445.2,157.6,7.4,3.0,9.36,39.18,614.1721,140.0076],
    [20744,1525558909,57.0889,-111.5859,1706.4,1444.4,157.8,7.6,3.0,9.47,39.37,614.1898,139.9993],
    [20745,1525558910,57.0883,-111.5853,1706.5,1443.6,157.7,7.6,2.7,8.86,39.27,614.3085,140.0212],
    [20746,1525558911,57.0877,-111.5847,1706.5,1443.5,157.6,7.3,2.5,9.21,39.38,614.1848,139.9991],
    [20747,1525558912,57.0871,-111.5841,1706.1,1443.1,157.5,7.2,1.9,9.18,39.52,614.1255,139.9781],
    [20748,1525558913,57.0864,-111.5835,1705.7,1440.6,157.3,7.2,1.3,9.37,39.74,614.128,139.9997],
    [20749,1525558914,57.0858,-111.5829,1705.4,1435.8,157.5,7.6,1.1,9.08,39.69,614.1098,140.0007],
    [20750,1525558915,57.0852,-111.5823,1704.8,1431.6,157.1,7.4,-0.1,8.68,39.57,614.0351,139.9928],
    [20751,1525558916,57.0845,-111.5816,1705.1,1428.9,156.0,6.3,-0.5,9.6,39.61,614.0328,139.9938],
    [20752,1525558917,57.0839,-111.581,1706.4,1424.4,156.7,7.0,0.4,9.43,39.33,614.0812,139.993],
    [20753,1525558918,57.0833,-111.5804,1706.7,1421.4,157.1,7.3,0.3,9.15,39.67,613.999,140.0045],
    [20754,1525558919,57.0826,-111.5798,1707.0,1419.3,156.7,6.8,-0.2,8.88,39.6,614.0774,139.9793],
    [20755,1525558920,57.082,-111.5792,1707.4,1418.5,156.7,6.5,0.0,9.47,39.21,614.0865,139.9963],
    [20756,1525558921,57.0814,-111.5786,1707.4,1417.7,157.4,7.2,0.1,9.22,39.55,614.0481,139.9941],
    [20757,1525558922,57.0807,-111.578,1707.0,1418.1,158.0,7.8,0.0,9.26,40.26,614.0654,139.9937],
    [20758,1525558923,57.0801,-111.5774,1707.2,1418.1,157.7,7.1,0.0,9.22,40.1,614.0351,139.9949],
    [20759,1525558924,57.0794,-111.5768,1707.2,1419.3,158.2,7.7,0.9,8.63,39.93,614.0703,139.9967],
    [20760,1525558925,57.0788,-111.5762,1706.9,1417.9,158.9,8.1,1.2,8.7,39.78,614.1344,140.0033],
    [20761,1525558926,57.0781,-111.5755,1706.8,1417.2,159.0,8.1,1.4,9.62,39.6,614.0949,139.9931],
    [20762,1525558927,57.0775,-111.575,1706.8,1415.5,159.5,8.5,1.8,9.18,39.97,614.1194,139.9948],
    [20763,1525558928,57.0768,-111.5744,1706.7,1412.5,158.9,7.8,1.9,9.15,40.06,614.1268,140.0096],
    [20764,1525558929,57.0762,-111.5738,1706.3,1409.3,159.1,8.3,1.9,8.64,39.85,614.0905,139.9953],
    [20765,1525558930,57.0755,-111.5732,1706.0,1405.7,158.1,7.3,1.0,9.39,39.81,614.0326,139.9905],
    [20766,1525558931,57.0749,-111.5725,1705.9,1404.2,157.1,6.2,1.1,9.29,39.6,613.9589,139.9901],
    [20767,1525558932,57.0742,-111.5719,1705.7,1403.4,158.3,7.5,1.8,9.09,40.53,613.9775,140.0089],
    [20768,1525558933,57.0736,-111.5713,1705.5,1400.2,158.0,7.2,1.3,9.07,40.02,613.9997,140.0029],
    [20769,1525558934,57.0729,-111.5707,1705.6,1398.6,158.6,7.8,1.7,9.15,40.03,613.9721,140.002],
    [20770,1525558935,57.0722,-111.5701,1706.0,1397.3,158.7,7.3,2.4,9.12,40.22,613.9821,139.9894],
    [20771,1525558936,57.0716,-111.5695,1706.7,1397.0,158.8,7.3,2.5,9.91,39.69,614.0688,139.9967],
    [20772,1525558937,57.0709,-111.5689,1707.3,1398.0,158.9,7.3,2.2,8.68,39.91,614.0831,140.0134],
    [20773,1525558938,57.0703,-111.5683,1707.2,1397.2,158.6,7.2,1.8,8.6,40.23,614.0729,139.9929],
    [20774,1525558939,57.0696,-111.5677,1707.2,1396.2,158.3,7.0,1.3,8.95,40.08,614.0833,140.0024],
    [20775,1525558940,57.069,-111.5671,1707.2,1395.2,157.8,6.6,1.3,9.3,39.75,613.9944,139.9833],
    [20776,1525558941,57.0683,-111.5665,1706.4,1394.4,158.3,7.0,1.5,9.02,40.15,614.0479,140.0148],
    [20777,1525558942,57.0676,-111.5658,1705.9,1393.9,157.9,6.8,1.5,8.89,40.13,614.0056,139.9876],
    [20778,1525558943,57.067,-111.5653,1705.8,1393.8,158.8,7.7,2.0,9.08,40.62,614.083,140.0105],
    [20779,1525558944,57.0664,-111.5647,1706.0,1394.0,158.4,7.2,2.4,9.02,40.05,614.07,140.0116],
    [20780,1525558945,57.0657,-111.5641,1706.3,1395.3,159.0,8.0,2.7,9.1,39.96,614.0508,140.0106],
    [20781,1525558946,57.0651,-111.5634,1706.3,1395.3,158.5,7.5,2.6,9.07,39.92,613.943,139.9961],
    [20782,1525558947,57.0644,-111.5628,1706.3,1394.3,159.1,8.7,3.0,8.81,40.31,613.9412,140.0011],
    [20783,1525558948,57.0637,-111.5622,1706.2,1393.2,159.1,9.0,2.5,8.98,40.1,614.0111,140.0008],
    [20784,1525558949,57.0631,-111.5616,1706.5,1393.5,158.8,8.9,2.4,9.28,39.82,614.0902,139.9878],
    [20785,1525558950,57.0624,-111.5609,1706.6,1393.6,157.6,7.8,1.6,9.1,40.07,614.0241,139.999],
    [20786,1525558951,57.0617,-111.5603,1707.3,1394.3,157.2,7.7,1.3,8.86,40.19,614.0127,139.9893],
    [20787,1525558952,57.0611,-111.5596,1707.5,1393.2,156.9,7.5,0.9,8.86,40.3,614.0694,139.9993],
    [20788,1525558953,57.0605,-111.559,1706.9,1391.9,156.3,7.1,0.7,9.13,40.53,614.124,140.0046],
    [20789,1525558954,57.0598,-111.5583,1706.1,1392.1,156.3,6.8,0.6,8.86,40.17,614.0792,139.9905],
    [20790,1525558955,57.0592,-111.5577,1706.2,1392.2,155.6,5.6,0.3,8.78,40.23,614.0568,139.9997],
    [20791,1525558956,57.0585,-111.5571,1706.4,1392.4,156.3,6.2,0.8,8.68,40.63,613.9918,139.9951],
    [20792,1525558957,57.0578,-111.5564,1706.1,1392.1,157.0,6.6,0.9,8.46,40.29,613.6918,139.9795],
    [20793,1525558958,57.0571,-111.5558,1705.4,1391.4,156.8,6.0,0.5,8.94,40.59,613.5262,139.9696],
    [20794,1525558959,57.0565,-111.5552,1705.4,1391.4,157.5,6.7,0.8,8.66,40.19,613.4551,139.9892],
    [20795,1525558960,57.0558,-111.5545,1706.0,1392.0,158.5,7.4,0.6,9.38,40.11,613.3832,140.001],
    [20796,1525558961,57.0551,-111.5539,1707.4,1393.4,157.9,5.9,1.1,8.91,40.54,613.408,140.0093],
    [20797,1525558962,57.0544,-111.5533,1708.9,1395.9,157.1,4.3,1.7,8.84,40.18,613.5412,139.9957],
    [20798,1525558963,57.0538,-111.5527,1710.7,1397.7,157.5,4.5,2.9,9.06,41.04,613.6223,139.9881],
    [20799,1525558964,57.0531,-111.5521,1711.7,1398.7,157.4,3.9,3.0,9.46,40.38,613.6952,140.0242],
    [20800,1525558965,57.0524,-111.5515,1712.9,1399.9,157.5,4.0,2.8,8.91,40.47,613.5818,139.9835],
    [20801,1525558966,57.0517,-111.5509,1712.4,1399.4,158.2,5.0,2.2,8.65,40.72,613.5489,139.9833],
    [20802,1525558967,57.051,-111.5503,1710.9,1398.2,159.0,6.1,2.1,8.73,40.72,613.5746,140.0078],
    [20803,1525558968,57.0503,-111.5497,1709.2,1397.2,160.2,7.4,2.8,9.62,40.43,613.5646,139.9809],
    [20804,1525558969,57.0496,-111.5491,1708.5,1396.5,159.3,7.1,1.6,9.19,40.77,613.7907,140.0206],
    [20805,1525558970,57.049,-111.5485,1709.7,1398.0,159.1,8.8,0.7,8.97,41.68,613.9098,140.0061],
    [20806,1525558971,57.0482,-111.5478,1710.8,1399.8,159.1,9.0,0.9,9.1,40.92,614.1691,140.0143],
    [20807,1525558972,57.0476,-111.5472,1710.5,1399.5,157.9,7.8,0.8,9.66,40.45,614.2703,140.0136],
    [20808,1525558973,57.0468,-111.5465,1709.7,1398.7,159.1,9.2,1.1,9.13,40.73,614.5113,140.0108],
    [20809,1525558974,57.0461,-111.5459,1708.5,1397.5,157.3,6.6,-0.5,8.46,40.89,614.3592,139.9943],
    [20810,1525558975,57.0454,-111.5452,1706.8,1396.1,157.6,7.4,-1.5,9.13,40.86,614.2291,139.9612],
    [20811,1525558976,57.0447,-111.5446,1704.0,1394.0,158.2,8.3,-2.1,8.96,40.97,614.2539,139.9965],
    [20812,1525558977,57.044,-111.5439,1701.2,1391.2,157.9,8.3,-2.4,9.29,40.55,614.2504,140.0031],
    [20813,1525558978,57.0433,-111.5433,1699.4,1389.4,158.0,8.5,-2.8,9.52,39.91,614.4417,140.023],
    [20814,1525558979,57.0425,-111.5426,1699.7,1389.7,157.1,7.2,-2.9,8.46,40.57,614.3359,140.0081],
    [20815,1525558980,57.0418,-111.542,1701.4,1392.4,158.0,8.2,-1.6,8.78,40.63,614.2052,139.9759],
    [20816,1525558981,57.0411,-111.5413,1701.8,1394.9,159.0,9.4,-0.9,9.09,40.79,614.0553,140.0014],
    [20817,1525558982,57.0404,-111.5406,1701.4,1396.1,159.0,9.4,-0.8,8.99,40.67,614.0566,139.9943],
    [20818,1525558983,57.0397,-111.54,1700.5,1396.2,159.1,10.2,-2.1,8.48,40.58,614.03,140.0026],
    [20819,1525558984,57.039,-111.5393,1700.7,1395.7,158.0,9.1,-2.8,9.15,40.8,613.7393,139.9975],
    [20820,1525558985,57.0382,-111.5386,1702.8,1397.9,157.9,8.5,-1.4,8.78,40.52,613.594,140.0003],
    [20821,1525558986,57.0375,-111.538,1704.5,1398.1,158.1,8.6,-0.7,8.81,40.47,613.5474,139.9844],
    [20822,1525558987,57.0368,-111.5373,1705.1,1398.1,159.1,10.1,-0.4,9.11,40.21,613.5677,139.992],
    [20823,1525558988,57.0361,-111.5367,1705.9,1398.9,158.7,9.6,-0.7,9.67,40.04,613.5946,139.999],
    [20824,1525558989,57.0354,-111.536,1708.0,1403.0,158.7,9.9,0.1,9.26,40.83,613.6053,139.9951],
    [20825,1525558990,57.0347,-111.5353,1710.2,1405.2,159.0,10.5,0.0,8.79,40.42,613.6279,139.9983],
    [20826,1525558991,57.034,-111.5347,1711.6,1406.6,157.8,9.2,-0.2,8.97,40.36,613.5892,140.0078],
    [20827,1525558992,57.0333,-111.534,1711.4,1406.4,157.7,8.7,0.4,8.95,40.57,613.7267,139.9998],
    [20828,1525558993,57.0326,-111.5333,1711.2,1406.2,158.7,10.0,-0.1,9.1,40.01,613.774,139.995],
    [20829,1525558994,57.0319,-111.5327,1711.0,1407.0,159.8,10.8,-0.4,8.7,39.82,613.8801,140.0033],
    [20830,1525558995,57.0312,-111.532,1710.6,1406.6,159.5,9.6,-0.5,8.91,39.99,613.9487,140.0056],
    [20831,1525558996,57.0304,-111.5314,1710.7,1405.7,159.1,8.9,-1.1,8.89,39.96,614.0252,139.9938],
    [20832,1525558997,57.0297,-111.5307,1710.0,1403.0,159.9,10.2,-1.6,9.44,39.56,614.0496,140.0036],
    [20833,1525558998,57.029,-111.5301,1708.9,1401.0,159.7,9.9,-1.2,8.82,39.96,614.0707,140.0043],
    [20834,1525558999,57.0283,-111.5294,1707.8,1398.4,159.6,10.0,-0.8,8.96,40.16,613.9477,139.9938],
    [20835,1525559000,57.0276,-111.5288,1706.3,1396.0,159.8,10.3,-0.2,9.33,39.47,613.995,139.9919],
    [20836,1525559001,57.0269,-111.5282,1705.0,1392.9,159.9,10.7,0.0,9.02,40.44,613.9498,139.9974],
    [20837,1525559002,57.0261,-111.5275,1704.7,1392.7,159.5,10.4,0.2,8.84,39.77,613.9181,139.9896],
    [20838,1525559003,57.0254,-111.5268,1704.6,1391.6,158.6,9.4,-0.2,9.23,39.18,613.8846,140.0004],
    [20839,1525559004,57.0247,-111.5261,1705.4,1391.3,157.5,8.4,-0.1,8.88,39.62,613.8663,140.005],
    [20840,1525559005,57.024,-111.5254,1705.8,1391.9,158.2,9.6,0.2,8.97,39.81,613.8672,140.0077],
    [20841,1525559006,57.0233,-111.5248,1705.7,1390.7,157.8,9.2,0.2,8.47,39.71,613.9791,140.0054],
    [20842,1525559007,57.0226,-111.5241,1706.2,1391.1,158.5,10.1,1.0,9.02,39.98,613.9668,140.0057],
    [20843,1525559008,57.0219,-111.5234,1706.9,1392.0,158.6,10.2,0.7,9.36,39.31,613.9321,139.9932],
    [20844,1525559009,57.0212,-111.5227,1707.5,1392.5,158.1,9.6,0.2,8.97,39.49,613.9006,139.9896],
    [20845,1525559010,57.0205,-111.522,1707.4,1393.4,158.3,10.1,0.2,8.99,39.56,613.9219,139.997],
    [20846,1525559011,57.0198,-111.5214,1706.9,1392.0,159.1,11.4,-0.2,8.77,39.54,613.9671,140.0082],
    [20847,1525559012,57.0191,-111.5207,1706.7,1389.7,158.5,10.8,-0.6,8.87,39.43,613.9082,140.0011],
    [20848,1525559013,57.0184,-111.5201,1706.8,1389.8,158.3,10.6,0.0,9.13,39.2,613.9351,140.0077],
    [20849,1525559014,57.0177,-111.5193,1706.9,1391.0,158.4,10.8,0.4,9.09,39.74,613.9771,139.9977],
    [20850,1525559015,57.017,-111.5186,1706.8,1390.8,158.4,10.8,0.7,8.53,39.45,613.9812,140.0053],
    [20851,1525559016,57.0163,-111.518,1706.7,1389.7,157.9,10.2,0.7,8.94,40.01,614.0072,139.9967],
    [20852,1525559017,57.0156,-111.5173,1707.1,1390.1,157.3,9.7,0.5,8.53,39.43,614.0298,139.9988],
    [20853,1525559018,57.015,-111.5166,1707.1,1390.1,157.7,10.3,0.5,9.08,39.22,613.9485,139.9957],
    [20854,1525559019,57.0142,-111.5159,1706.8,1389.8,157.9,10.6,0.3,8.92,39.51,613.953,139.9891],
    [20855,1525559020,57.0136,-111.5152,1706.8,1389.8,157.0,9.6,-0.4,9.5,39.03,614.1121,140.0027],
    [20856,1525559021,57.0129,-111.5145,1706.4,1389.4,156.9,9.3,-0.1,8.95,39.47,614.139,139.995],
    [20857,1525559022,57.0122,-111.5138,1706.2,1398.2,156.9,9.1,0.1,9.18,39.04,614.188,140.006],
    [20858,1525559023,57.0115,-111.5132,1706.8,1409.8,157.2,9.6,-0.1,8.88,39.61,614.2203,140.0],
    [20859,1525559024,57.0108,-111.5125,1706.9,1409.9,158.0,10.4,0.8,9.01,39.93,614.0439,139.9936],
    [20860,1525559025,57.0102,-111.5118,1705.6,1408.6,159.0,11.5,1.6,8.51,39.45,613.8892,139.9943],
    [20861,1525559026,57.0095,-111.5111,1704.7,1407.7,159.1,11.8,2.0,8.51,39.44,613.9251,139.9965],
    [20862,1525559027,57.0088,-111.5105,1704.1,1407.1,158.5,11.4,1.8,8.81,39.45,613.9818,140.0061],
    [20863,1525559028,57.0081,-111.5098,1703.8,1406.8,158.2,11.2,1.9,9.13,39.34,614.1046,140.0084],
    [20864,1525559029,57.0075,-111.5091,1705.1,1408.1,157.1,9.9,2.0,9.36,38.73,614.1073,139.9908],
    [20865,1525559030,57.0068,-111.5084,1707.3,1410.3,156.2,9.1,1.2,8.88,39.3,614.0738,139.9961],
    [20866,1525559031,57.0061,-111.5077,1708.1,1411.1,156.2,9.3,0.9,8.94,40.21,614.0673,139.9952],
    [20867,1525559032,57.0054,-111.507,1707.2,1410.2,155.9,8.7,0.7,8.49,39.71,614.0376,140.0038],
    [20868,1525559033,57.0048,-111.5063,1706.1,1409.2,156.1,9.0,0.5,9.09,39.75,613.966,139.9846],
    [20869,1525559034,57.0042,-111.5056,1705.4,1408.6,156.3,8.7,1.2,8.88,39.77,614.0966,140.0151],
    [20870,1525559035,57.0035,-111.5049,1705.3,1408.5,156.2,8.4,1.6,9.16,39.64,614.0732,139.9994],
    [20871,1525559036,57.0028,-111.5042,1705.2,1408.3,156.5,8.8,1.6,8.95,40.73,614.0772,139.9992],
    [20872,1525559037,57.0021,-111.5035,1705.6,1409.1,156.3,8.3,1.7,8.98,39.97,614.042,140.0005],
    [20873,1525559038,57.0014,-111.5028,1706.1,1409.9,156.7,8.8,2.1,8.8,40.21,614.0613,140.0052],
    [20874,1525559039,57.0008,-111.5022,1705.6,1409.9,156.8,9.1,1.2,8.69,39.88,614.1182,140.0073],
    [20875,1525559040,57.0001,-111.5015,1705.5,1409.8,156.3,8.6,0.7,8.88,40.04,614.1456,139.9988],
    [20876,1525559041,56.9994,-111.5008,1705.7,1410.6,156.4,8.6,0.7,8.83,40.23,614.1819,140.0027],
    [20877,1525559042,56.9988,-111.5001,1706.2,1414.6,156.5,8.7,0.7,8.71,40.12,614.098,139.9971],
    [20878,1525559043,56.9981,-111.4994,1706.3,1416.7,156.6,9.0,0.4,8.2,40.08,614.1126,139.9997],
    [20879,1525559044,56.9974,-111.4987,1706.0,1417.6,156.6,9.0,0.3,9.12,40.04,614.1635,140.0086],
    [20880,1525559045,56.9968,-111.4981,1705.4,1418.2,157.1,9.6,1.0,8.17,40.31,614.1594,139.9975],
    [20881,1525559046,56.9961,-111.4974,1705.2,1417.8,156.9,9.3,0.9,8.84,40.43,614.1792,140.0074],
    [20882,1525559047,56.9954,-111.4967,1705.8,1408.6,156.3,8.6,0.5,8.51,40.04,614.1669,139.9994],
    [20883,1525559048,56.9949,-111.4961,1706.1,1397.0,156.0,8.4,0.2,8.77,39.98,614.1495,139.996],
    [20884,1525559049,56.9942,-111.4954,1705.7,1388.5,155.3,7.8,-0.3,8.7,40.15,614.1449,139.9918],
    [20885,1525559050,56.9935,-111.4947,1705.4,1393.5,155.5,8.0,-0.2,8.9,40.62,614.1282,139.997],
    [20886,1525559051,56.9929,-111.494,1705.5,1403.1,155.2,7.8,-0.6,8.77,40.41,614.1245,139.992],
    [20887,1525559052,56.9922,-111.4934,1705.5,1411.5,155.6,8.0,-0.4,9.09,39.42,614.187,140.0125],
    [20888,1525559053,56.9915,-111.4927,1705.4,1413.4,155.8,7.9,0.1,8.58,40.4,614.2061,140.0042],
    [20889,1525559054,56.9909,-111.492,1705.5,1414.5,156.3,8.1,0.5,8.55,40.19,614.1603,140.0047],
    [20890,1525559055,56.9902,-111.4913,1705.8,1414.8,156.1,7.7,0.7,8.65,40.68,614.2014,139.9992],
    [20891,1525559056,56.9896,-111.4907,1705.7,1414.7,156.0,7.3,0.9,9.41,39.85,614.2189,140.003],
    [20892,1525559057,56.989,-111.4901,1705.3,1413.3,155.7,6.9,0.5,8.29,40.14,614.2919,140.0061],
    [20893,1525559058,56.9883,-111.4894,1705.3,1412.1,155.9,7.3,-0.1,9.28,40.0,614.357,140.0053],
    [20894,1525559059,56.9876,-111.4887,1706.0,1410.7,155.7,7.2,-0.3,8.95,40.69,614.3697,140.0046],
    [20895,1525559060,56.9871,-111.4882,1706.0,1406.3,156.5,8.2,0.1,8.8,40.52,614.51,140.0197],
    [20896,1525559061,56.9864,-111.4875,1705.5,1398.8,157.1,9.0,-0.1,8.35,40.74,614.5766,140.017],
    [20897,1525559062,56.9857,-111.4868,1704.8,1385.3,156.6,8.4,-0.7,8.42,40.69,614.5395,139.9924],
    [20898,1525559063,56.9852,-111.4863,1704.1,1375.3,156.3,8.3,-0.8,8.95,39.93,614.4803,140.0051],
    [20899,1525559064,56.9846,-111.4857,1703.5,1368.4,156.3,8.1,-0.9,8.72,40.99,614.4186,139.9953],
    [20900,1525559065,56.9839,-111.485,1702.8,1363.5,156.4,7.8,-1.5,8.79,40.64,614.3334,139.9964],
    [20901,1525559066,56.9831,-111.4842,1701.6,1360.4,157.5,8.1,-1.8,8.72,40.51,614.2968,139.9982],
    [20902,1525559067,56.9825,-111.4837,1701.5,1360.7,159.2,8.8,-1.2,8.74,40.58,614.2546,140.0028],
    [20903,1525559068,56.9818,-111.483,1702.2,1366.2,160.9,9.1,-0.7,8.47,40.68,614.1935,139.9989],
    [20904,1525559069,56.9811,-111.4825,1703.1,1369.0,162.3,9.6,-0.4,9.4,40.11,614.1506,139.9974],
    [20905,1525559070,56.9805,-111.4819,1703.7,1371.7,163.5,10.0,0.1,8.22,40.66,614.2337,140.0011],
    [20906,1525559071,56.9798,-111.4814,1704.5,1373.5,164.3,10.4,0.4,8.77,40.11,614.3362,140.016],
    [20907,1525559072,56.9792,-111.4809,1705.4,1374.4,164.1,10.0,0.1,9.26,40.42,614.4063,140.0026],
    [20908,1525559073,56.9785,-111.4804,1706.1,1375.1,163.3,9.2,-0.1,8.87,40.47,614.4174,140.0047],
    [20909,1525559074,56.9778,-111.4799,1706.6,1376.7,163.8,10.0,0.1,8.89,41.2,614.4036,139.999],
    [20910,1525559075,56.9772,-111.4794,1706.3,1376.3,163.4,9.4,-0.5,8.5,40.57,614.4199,139.9927],
    [20911,1525559076,56.9765,-111.4789,1705.3,1376.3,161.9,7.9,-1.0,9.24,40.17,614.4405,140.0033],
    [20912,1525559077,56.9759,-111.4784,1704.4,1375.4,162.2,8.1,-0.7,8.7,40.44,614.4469,140.0079],
    [20913,1525559078,56.9753,-111.4779,1704.0,1375.0,162.0,7.7,-0.9,8.63,40.71,614.4321,140.0054],
    [20914,1525559079,56.9746,-111.4774,1703.9,1376.0,162.2,7.9,-0.6,8.47,40.6,614.4596,139.9974],
    [20915,1525559080,56.974,-111.4769,1703.7,1375.7,163.5,9.0,0.1,8.52,40.59,614.4003,139.995],
    [20916,1525559081,56.9733,-111.4764,1703.6,1375.6,164.0,9.6,0.2,8.68,40.64,614.3646,139.9988],
    [20917,1525559082,56.9726,-111.4759,1703.5,1375.5,164.0,9.6,0.1,8.66,40.83,614.3447,140.0025],
    [20918,1525559083,56.972,-111.4754,1703.6,1375.6,163.9,9.7,0.3,9.04,40.38,614.3745,140.0038],
    [20919,1525559084,56.9714,-111.4749,1703.6,1376.3,164.4,10.4,0.5,9.39,40.54,614.4152,140.001],
    [20920,1525559085,56.9707,-111.4744,1703.8,1376.8,164.5,10.7,1.1,8.45,40.77,614.4008,139.9942],
    [20921,1525559086,56.9701,-111.4739,1704.5,1377.5,164.3,10.5,1.5,8.36,40.76,614.239,139.992],
    [20922,1525559087,56.9695,-111.4733,1705.1,1378.1,163.5,9.9,1.2,8.28,40.61,614.323,140.0034],
    [20923,1525559088,56.9688,-111.4728,1704.8,1377.8,163.4,10.2,0.9,8.15,40.6,614.4402,140.005],
    [20924,1525559089,56.9682,-111.4723,1704.3,1378.1,163.7,10.8,1.2,8.52,40.73,614.4125,140.005],
    [20925,1525559090,56.9676,-111.4718,1704.5,1378.5,163.8,10.8,1.7,8.24,40.8,614.4046,139.9967],
    [20926,1525559091,56.967,-111.4713,1705.5,1379.5,163.4,10.5,1.7,8.11,40.72,614.4479,140.0065],
    [20927,1525559092,56.9664,-111.4708,1705.7,1379.7,163.6,11.0,1.1,8.39,40.73,614.4459,139.9993],
    [20928,1525559093,56.9657,-111.4703,1704.9,1378.9,163.9,11.4,0.6,8.46,41.11,614.5086,140.0037],
    [20929,1525559094,56.9651,-111.4697,1704.8,1378.5,163.2,10.9,0.5,8.57,40.47,614.5103,140.0034],
    [20930,1525559095,56.9645,-111.4692,1704.7,1377.7,163.3,11.1,0.8,8.84,40.31,614.4947,139.9937],
    [20931,1525559096,56.9638,-111.4686,1704.4,1377.4,162.9,10.8,0.5,8.75,40.39,614.5123,139.9957],
    [20932,1525559097,56.9632,-111.4681,1704.2,1377.2,162.4,10.5,0.0,8.64,40.28,614.4484,139.9953],
    [20933,1525559098,56.9626,-111.4676,1703.8,1376.8,162.8,11.1,0.0,9.04,40.54,614.4261,139.9967],
    [20934,1525559099,56.962,-111.4671,1703.6,1376.6,162.7,11.1,-0.1,8.62,40.23,614.4999,140.0088],
    [20935,1525559100,56.9614,-111.4665,1703.6,1377.5,163.2,11.7,0.2,8.76,40.41,614.5306,140.0056],
    [20936,1525559101,56.9607,-111.466,1703.9,1379.1,163.4,11.7,0.3,9.1,40.3,614.4922,140.0019],
    [20937,1525559102,56.9601,-111.4655,1704.2,1381.2,163.0,11.3,0.2,8.96,40.79,614.3937,139.991],
    [20938,1525559103,56.9595,-111.4649,1704.4,1383.0,162.8,11.1,0.2,8.08,40.54,614.4342,140.0039],
    [20939,1525559104,56.9589,-111.4644,1704.1,1385.5,162.7,11.2,-0.1,8.85,40.26,614.4657,140.0052],
    [20940,1525559105,56.9583,-111.4639,1703.6,1387.6,163.0,11.5,-0.5,9.26,39.87,614.4652,140.0017],
    [20941,1525559106,56.9577,-111.4633,1704.0,1388.4,162.3,10.8,-0.6,8.65,40.83,614.5284,139.998],
    [20942,1525559107,56.9571,-111.4628,1704.8,1389.8,162.0,10.5,-0.5,8.91,40.33,614.5058,140.0072],
    [20943,1525559108,56.9564,-111.4622,1705.0,1389.9,162.2,10.9,-0.8,8.46,40.61,614.4869,139.9983],
    [20944,1525559109,56.9558,-111.4617,1704.7,1390.7,162.2,10.9,-1.1,8.48,40.07,614.4912,139.994],
    [20945,1525559110,56.9552,-111.4612,1704.3,1393.2,162.3,11.1,-0.8,8.25,40.43,614.4762,139.9979],
    [20946,1525559111,56.9546,-111.4606,1703.8,1399.0,163.4,12.1,-0.2,8.64,40.76,614.4189,139.9881],
    [20947,1525559112,56.954,-111.4601,1703.8,1406.7,162.9,11.5,-0.4,8.19,40.42,614.3004,139.9987],
    [20948,1525559113,56.9533,-111.4596,1704.1,1413.8,162.9,11.9,-0.5,9.06,40.27,614.2935,139.9927],
    [20949,1525559114,56.9527,-111.459,1704.1,1420.4,163.6,12.4,-0.3,8.47,40.61,614.3621,140.0085],
    [20950,1525559115,56.9521,-111.4585,1703.9,1430.4,163.0,11.8,-0.1,8.25,40.45,614.3644,140.0031],
    [20951,1525559116,56.9515,-111.458,1704.6,1441.6,163.1,11.8,0.6,8.45,40.63,614.2805,139.9894],
    [20952,1525559117,56.9509,-111.4574,1705.8,1451.7,162.8,11.4,0.7,8.13,40.35,614.2932,139.994],
    [20953,1525559118,56.9502,-111.4569,1706.3,1460.0,162.5,11.1,0.7,9.04,39.82,614.3216,140.0023],
    [20954,1525559119,56.9496,-111.4563,1705.8,1465.8,162.1,10.6,0.7,8.59,41.16,614.3149,139.9997],
    [20955,1525559120,56.949,-111.4558,1705.6,1467.8,162.0,10.6,0.9,8.39,40.41,614.347,140.0018],
    [20956,1525559121,56.9484,-111.4552,1706.0,1468.8,162.9,11.6,1.3,8.55,40.25,614.3358,139.9901],
    [20957,1525559122,56.9478,-111.4547,1706.2,1468.2,163.1,11.7,1.3,8.51,40.39,614.3528,139.9994],
    [20958,1525559123,56.9472,-111.4542,1706.0,1468.0,162.5,11.2,0.9,8.48,39.8,614.2861,139.9924],
    [20959,1525559124,56.9465,-111.4536,1706.0,1468.0,162.4,11.0,0.5,8.54,39.95,614.3461,140.0001],
    [20960,1525559125,56.9459,-111.4531,1705.9,1467.9,161.5,10.2,-0.3,8.2,40.57,614.2764,139.9918],
    [20961,1525559126,56.9453,-111.4525,1705.9,1467.6,161.2,9.9,-0.4,8.74,40.18,614.2632,139.9981],
    [20962,1525559127,56.9447,-111.452,1705.8,1466.8,161.3,9.6,-0.2,8.55,40.11,614.3063,139.9996],
    [20963,1525559128,56.9441,-111.4514,1706.0,1467.0,160.9,8.8,0.2,8.73,40.01,614.3033,139.9896],
    [20964,1525559129,56.9435,-111.451,1705.9,1466.9,161.6,9.2,0.6,8.5,40.11,614.429,139.9936],
    [20965,1525559130,56.9429,-111.4504,1706.1,1467.1,161.8,9.1,0.9,8.02,40.29,614.4854,140.0104],
    [20966,1525559131,56.9422,-111.4498,1706.3,1466.7,162.9,10.1,0.8,8.7,40.0,614.4751,139.9981],
    [20967,1525559132,56.9416,-111.4493,1706.0,1466.0,162.8,9.6,0.9,8.66,40.07,614.4307,140.0025],
    [20968,1525559133,56.941,-111.4488,1705.4,1465.4,162.7,9.1,1.6,8.44,40.3,614.3514,140.0049],
    [20969,1525559134,56.9403,-111.4483,1704.2,1464.2,163.6,9.9,2.2,8.7,40.08,614.2728,140.0],
    [20970,1525559135,56.9397,-111.4478,1703.3,1462.3,163.6,9.7,1.8,8.76,40.32,614.2911,139.9956],
    [20971,1525559136,56.939,-111.4473,1703.4,1461.5,163.4,9.2,1.6,9.27,39.85,614.2705,140.0082],
    [20972,1525559137,56.9385,-111.4468,1704.1,1462.1,163.0,8.5,1.7,8.55,40.2,614.4258,139.9897],
    [20973,1525559138,56.9378,-111.4463,1705.0,1463.0,162.7,7.9,1.7,8.59,40.45,614.4399,140.0151],
    [20974,1525559139,56.9372,-111.4458,1705.4,1464.4,162.3,7.4,1.0,8.6,40.61,614.4568,140.0003],
    [20975,1525559140,56.9366,-111.4453,1706.1,1466.1,163.3,8.1,0.3,9.11,40.1,614.3264,139.9779],
    [20976,1525559141,56.936,-111.4449,1705.9,1467.9,163.9,7.9,-0.3,7.82,40.4,614.3205,139.9943],
    [20977,1525559142,56.9353,-111.4444,1704.7,1469.0,166.0,9.0,0.4,8.53,40.36,614.4202,140.0086],
    [20978,1525559143,56.9347,-111.444,1703.9,1470.0,166.0,7.4,0.4,8.27,40.5,614.4561,140.0001],
    [20979,1525559144,56.9341,-111.4436,1703.8,1469.8,167.1,7.9,0.3,8.27,40.57,614.4437,139.999],
    [20980,1525559145,56.9334,-111.4432,1704.6,1470.6,169.6,9.9,0.8,8.4,40.65,614.3741,139.9963],
    [20981,1525559146,56.9327,-111.4428,1705.4,1470.4,169.8,9.5,1.4,8.0,40.52,614.4421,140.0025],
    [20982,1525559147,56.9321,-111.4424,1704.9,1469.9,169.9,9.5,1.4,8.61,40.79,614.4256,139.9978],
    [20983,1525559148,56.9314,-111.442,1704.3,1469.3,170.1,9.6,1.1,9.1,40.5,614.4984,140.0064],
    [20984,1525559149,56.9308,-111.4417,1704.2,1469.2,170.0,9.5,1.0,8.46,41.12,614.5432,140.0052],
    [20985,1525559150,56.9301,-111.4413,1704.5,1469.5,170.3,10.0,1.0,8.21,40.43,614.5163,139.9967],
    [20986,1525559151,56.9295,-111.4409,1704.6,1469.6,169.9,9.5,0.9,8.66,40.49,614.5364,139.9986],
    [20987,1525559152,56.9289,-111.4406,1704.3,1469.3,169.5,9.1,0.5,8.56,40.54,614.5131,139.9978],
    [20988,1525559153,56.9282,-111.4402,1703.7,1468.7,169.3,9.1,0.6,9.26,40.25,614.4187,139.9935],
    [20989,1525559154,56.9276,-111.4398,1703.2,1468.2,169.1,9.0,1.0,8.17,40.57,614.3945,139.9985],
    [20990,1525559155,56.9269,-111.4394,1703.1,1468.1,169.2,9.2,1.2,8.35,40.73,614.2029,139.9944],
    [20991,1525559156,56.9263,-111.4391,1703.0,1468.0,169.7,9.6,1.1,8.53,40.82,614.2289,139.9905],
    [20992,1525559157,56.9256,-111.4387,1703.3,1468.3,169.6,9.3,1.0,8.57,41.2,614.2747,140.0018],
    [20993,1525559158,56.925,-111.4383,1704.0,1469.0,169.5,9.0,1.5,8.23,41.16,614.4163,139.9949],
    [20994,1525559159,56.9243,-111.438,1704.8,1469.8,169.3,8.5,2.0,8.65,40.63,614.4461,140.0024],
    [20995,1525559160,56.9237,-111.4376,1705.9,1470.9,168.9,8.0,1.9,9.38,40.28,614.4463,139.9944],
    [20996,1525559161,56.923,-111.4372,1706.4,1471.4,169.3,8.8,2.2,8.4,40.62,614.3597,140.0052],
    [20997,1525559162,56.9224,-111.4369,1706.3,1471.3,170.1,10.0,2.2,8.46,40.67,614.3328,139.9985],
    [20998,1525559163,56.9217,-111.4365,1705.2,1470.2,169.9,9.7,2.5,7.98,40.64,614.4223,140.0044],
    [20999,1525559164,56.9211,-111.4361,1703.7,1468.7,170.0,9.7,2.5,8.08,40.71,614.4548,140.0016],
    [21000,1525559165,56.9205,-111.4357,1703.6,1468.6,170.2,10.1,2.2,9.29,40.37,614.4885,139.9899],
    [21001,1525559166,56.9198,-111.4353,1704.7,1469.7,170.2,9.9,1.6,9.27,40.11,614.494,139.994],
    [21002,1525559167,56.9192,-111.435,1705.4,1469.7,169.8,9.7,0.8,8.62,40.92,614.4111,139.9962],
    [21003,1525559168,56.9186,-111.4346,1705.0,1469.0,170.0,9.8,0.5,8.55,40.53,614.4058,139.9899],
    [21004,1525559169,56.9179,-111.4343,1704.1,1468.1,168.7,8.1,0.6,8.18,40.62,614.4535,139.9991],
    [21005,1525559170,56.9173,-111.4339,1703.7,1467.7,168.9,8.2,1.6,8.79,40.55,614.4392,140.0075],
    [21006,1525559171,56.9166,-111.4335,1703.7,1468.7,169.4,8.4,1.8,8.0,40.63,614.3988,140.0029],
    [21007,1525559172,56.916,-111.4331,1704.3,1469.3,169.3,8.3,1.5,8.93,40.11,614.4334,140.0211],
    [21008,1525559173,56.9153,-111.4328,1704.3,1469.3,169.9,8.9,1.8,8.14,40.7,614.3668,139.9846],
    [21009,1525559174,56.9146,-111.4324,1704.0,1469.0,169.1,7.9,2.3,8.74,40.43,614.2753,140.0068],
    [21010,1525559175,56.914,-111.432,1704.1,1469.1,168.6,7.5,2.7,8.45,40.66,614.048,139.9731],
    [21011,1525559176,56.9134,-111.4317,1704.7,1469.7,168.5,7.6,2.3,9.21,40.43,613.897,139.987],
    [21012,1525559177,56.9127,-111.4313,1704.8,1468.8,168.9,8.4,0.8,9.08,40.5,613.7915,140.0062],
    [21013,1525559178,56.9121,-111.4309,1705.0,1469.0,169.7,8.6,1.0,8.38,40.73,613.8301,139.9952],
    [21014,1525559179,56.9115,-111.4306,1706.3,1470.3,168.3,6.2,0.7,8.54,41.34,613.9405,140.0128],
    [21015,1525559180,56.9108,-111.4302,1708.6,1472.6,167.6,5.3,1.3,8.48,41.34,613.9527,140.0155],
    [21016,1525559181,56.9102,-111.4299,1710.7,1474.7,168.7,6.0,2.0,8.86,40.31,614.0555,140.0025],
    [21017,1525559182,56.9095,-111.4296,1712.3,1475.3,166.9,3.4,1.0,9.01,40.27,614.0574,139.9998],
    [21018,1525559183,56.9089,-111.4292,1713.1,1476.8,167.5,4.1,0.7,8.34,41.53,613.9816,139.9831],
    [21019,1525559184,56.9082,-111.4289,1712.3,1476.3,168.8,5.4,-0.1,8.07,41.13,613.916,139.9826],
    [21020,1525559185,56.9076,-111.4286,1711.4,1475.3,168.6,5.0,-0.9,8.57,40.97,614.2023,140.0177],
    [21021,1525559186,56.907,-111.4283,1710.4,1474.5,169.2,5.3,-0.9,8.28,41.11,614.4923,140.0198],
    [21022,1525559187,56.9063,-111.4279,1709.4,1472.4,170.1,5.8,-0.5,8.41,40.81,614.6052,140.0019],
    [21023,1525559188,56.9056,-111.4276,1709.4,1472.4,170.3,5.6,0.1,8.59,41.15,614.6307,139.9952],
    [21024,1525559189,56.905,-111.4274,1709.3,1472.3,170.4,5.6,0.3,8.06,41.4,614.8552,140.0042],
    [21025,1525559190,56.9043,-111.427,1707.1,1470.1,170.9,6.9,-0.5,8.03,41.45,614.9459,140.003],
    [21026,1525559191,56.9036,-111.4267,1704.1,1467.1,171.4,8.2,-1.1,8.79,41.17,614.9686,140.0077],
    [21027,1525559192,56.9029,-111.4264,1701.9,1464.9,170.9,8.5,-0.9,8.01,41.3,614.8009,139.9965],
    [21028,1525559193,56.9023,-111.4261,1700.6,1463.6,170.9,9.0,-0.3,9.02,40.44,614.7107,140.0069],
    [21029,1525559194,56.9016,-111.4257,1698.7,1461.7,171.0,9.4,0.4,8.62,41.17,614.6797,140.0019],
    [21030,1525559195,56.9009,-111.4254,1697.7,1460.7,171.4,10.3,-0.1,8.58,41.75,614.6191,140.0077],
    [21031,1525559196,56.9002,-111.425,1697.8,1459.4,171.3,10.5,-0.7,9.18,40.56,614.6116,140.0051],
    [21032,1525559197,56.8996,-111.4247,1698.8,1459.8,170.7,10.4,-1.0,8.79,40.66,614.6257,140.0061],
    [21033,1525559198,56.8989,-111.4243,1700.4,1461.5,169.4,9.3,-1.6,8.41,40.82,614.5673,140.0015],
    [21034,1525559199,56.8983,-111.4239,1701.3,1461.3,168.5,8.6,-1.4,8.56,40.86,614.4929,139.9947],
    [21035,1525559200,56.8976,-111.4235,1701.9,1462.1,168.2,8.1,-1.5,8.45,40.85,614.459,139.9928],
    [21036,1525559201,56.8969,-111.4231,1702.4,1461.3,168.6,8.5,-1.6,8.6,40.7,614.4469,140.0015],
    [21037,1525559202,56.8963,-111.4228,1702.6,1461.6,170.2,9.9,-1.5,8.61,40.76,614.4923,139.996],
    [21038,1525559203,56.8956,-111.4224,1703.2,1462.3,169.5,8.9,-1.3,8.67,40.43,614.4371,140.005],
    [21039,1525559204,56.895,-111.422,1703.9,1463.9,169.7,9.1,-1.0,8.21,40.63,614.4246,139.9921],
    [21040,1525559205,56.8943,-111.4217,1704.4,1465.4,170.1,9.3,-0.3,8.59,40.62,614.3939,140.0058],
    [21041,1525559206,56.8936,-111.4213,1704.5,1466.5,170.2,9.6,-0.1,7.87,40.3,614.3988,139.9936],
    [21042,1525559207,56.893,-111.4209,1704.2,1466.2,170.6,10.1,0.0,8.61,40.63,614.3432,140.0062],
    [21043,1525559208,56.8923,-111.4206,1704.2,1467.2,169.7,8.8,0.3,8.56,40.94,614.3204,139.9992],
    [21044,1525559209,56.8917,-111.4202,1704.5,1467.5,169.2,8.5,1.0,8.43,40.28,614.3809,140.0159],
    [21045,1525559210,56.8911,-111.4199,1704.7,1467.7,169.5,8.9,1.4,8.69,40.31,614.3981,140.0168],
    [21046,1525559211,56.8904,-111.4195,1705.0,1468.0,169.6,9.1,1.4,8.21,40.62,614.3136,139.9944],
    [21047,1525559212,56.8898,-111.4191,1705.6,1467.9,168.8,7.9,1.1,8.68,40.43,614.3876,140.0091],
    [21048,1525559213,56.8891,-111.4188,1706.0,1467.0,168.6,7.6,0.6,8.74,40.33,614.3762,139.9929],
    [21049,1525559214,56.8885,-111.4184,1706.1,1464.0,168.8,7.8,-0.3,8.37,40.57,614.508,140.008],
    [21050,1525559215,56.8879,-111.4181,1706.0,1454.0,169.5,8.4,-0.6,9.14,40.6,614.5234,140.0034],
    [21051,1525559216,56.8873,-111.4177,1706.4,1442.1,169.9,8.6,-0.5,8.87,40.47,614.5189,139.9999],
    [21052,1525559217,56.8866,-111.4174,1706.1,1426.1,169.7,8.3,-0.7,8.39,40.93,614.4178,139.9993],
    [21053,1525559218,56.886,-111.417,1705.5,1417.1,168.8,7.7,-0.4,8.28,40.67,614.5137,139.9897],
    [21054,1525559219,56.8853,-111.4166,1704.6,1406.0,168.9,8.2,-0.3,8.24,41.14,614.53,140.0003],
    [21055,1525559220,56.8847,-111.4163,1704.0,1406.0,169.3,8.8,-0.9,8.59,41.41,614.518,139.9898],
    [21056,1525559221,56.8841,-111.4159,1704.4,1406.9,168.9,8.2,-1.3,8.88,40.87,614.5695,140.0031],
    [21057,1525559222,56.8834,-111.4156,1705.0,1406.9,168.5,7.6,-0.9,8.52,41.75,614.4846,140.0042],
    [21058,1525559223,56.8828,-111.4152,1704.3,1399.0,169.3,7.9,-0.5,8.14,41.02,614.4249,139.9982],
    [21059,1525559224,56.8822,-111.4149,1703.7,1393.1,169.2,7.2,-0.3,8.52,41.36,614.4934,140.0052],
    [21060,1525559225,56.8815,-111.4145,1703.7,1387.7,170.3,8.0,0.7,8.44,41.93,614.4589,140.0061],
    [21061,1525559226,56.8809,-111.4142,1703.5,1382.5,170.5,7.8,0.5,8.36,41.26,614.3713,139.9975],
    [21062,1525559227,56.8802,-111.4139,1704.0,1379.4,169.1,6.2,-0.2,8.71,40.99,614.3336,139.9842],
    [21063,1525559228,56.8796,-111.4135,1704.8,1380.1,169.1,6.3,-0.6,8.26,41.66,614.3463,140.0002],
    [21064,1525559229,56.879,-111.4132,1704.5,1380.8,169.5,6.6,-0.8,8.59,41.64,614.2612,140.0067],
    [21065,1525559230,56.8783,-111.4129,1704.7,1384.3,168.8,5.7,-0.9,8.5,41.2,614.4013,140.0045],
    [21066,1525559231,56.8777,-111.4126,1705.6,1386.0,169.1,6.1,-0.4,8.52,41.39,614.5213,140.0137],
    [21067,1525559232,56.877,-111.4123,1706.3,1386.0,170.2,7.5,0.0,8.46,41.84,614.6409,139.9977],
    [21068,1525559233,56.8764,-111.4119,1706.3,1382.6,169.8,6.7,0.6,8.43,41.19,614.659,140.0022],
    [21069,1525559234,56.8757,-111.4116,1706.5,1381.3,168.8,5.6,0.5,9.01,40.49,614.6464,140.0026],
    [21070,1525559235,56.8751,-111.4113,1705.8,1377.5,169.4,6.9,-0.2,8.19,41.12,614.5046,139.9979],
    [21071,1525559236,56.8745,-111.411,1704.3,1371.8,170.3,7.8,-0.7,7.94,41.17,614.4366,139.9974],
    [21072,1525559237,56.8739,-111.4107,1703.0,1367.8,170.5,8.1,-0.5,9.12,41.02,614.4866,140.005],
    [21073,1525559238,56.8732,-111.4103,1702.4,1364.4,172.0,10.0,-0.2,8.01,41.2,614.445,140.0038],
    [21074,1525559239,56.8726,-111.41,1702.7,1362.2,171.9,10.5,-0.1,8.45,41.53,614.4732,140.0021],
    [21075,1525559240,56.872,-111.4096,1703.9,1361.9,170.1,9.8,-0.1,8.75,40.91,614.4642,140.0061],
    [21076,1525559241,56.8713,-111.4093,1705.2,1362.1,168.3,9.8,-0.4,8.51,41.87,614.4957,140.0015],
    [21077,1525559242,56.8707,-111.4088,1705.4,1361.4,166.3,10.1,-0.7,8.81,41.21,614.4334,139.9976],
    [21078,1525559243,56.8701,-111.4084,1705.6,1361.6,164.0,10.6,-0.6,7.98,41.31,614.3408,139.9951],
    [21079,1525559244,56.8695,-111.4079,1705.6,1360.6,161.7,10.8,-0.6,8.47,42.03,614.3133,139.9914],
    [21080,1525559245,56.8689,-111.4073,1705.5,1360.5,158.9,10.4,-1.0,8.37,41.29,614.3431,140.0017],
    [21081,1525559246,56.8683,-111.4067,1705.3,1360.0,156.4,9.9,-1.2,9.17,40.85,614.2977,140.0114],
    [21082,1525559247,56.8677,-111.406,1706.0,1360.0,153.9,9.3,-1.3,8.68,40.78,614.0647,139.9902],
    [21083,1525559248,56.8671,-111.4054,1706.9,1360.9,152.8,9.5,-1.1,8.14,41.6,614.0581,139.9832],
    [21084,1525559249,56.8666,-111.4047,1707.2,1360.9,152.4,9.7,-0.4,8.06,41.15,614.1344,140.003],
    [21085,1525559250,56.866,-111.404,1707.1,1360.2,152.0,9.8,-0.2,8.48,41.42,614.0614,139.9962],
    [21086,1525559251,56.8655,-111.4033,1708.0,1361.0,151.2,9.8,-1.2,8.43,41.21,614.0863,140.0006],
    [21087,1525559252,56.8649,-111.4026,1709.7,1362.6,149.8,9.0,-1.8,8.43,41.06,614.1187,140.0102],
    [21088,1525559253,56.8644,-111.4019,1710.2,1362.2,150.0,9.2,-1.0,8.16,41.0,614.0987,139.9963],
    [21089,1525559254,56.8638,-111.4012,1710.0,1362.0,149.9,8.8,-0.8,8.1,40.89,614.0629,139.9952],
    [21090,1525559255,56.8632,-111.4004,1710.6,1362.6,150.1,8.7,-0.8,7.9,40.9,614.0131,139.9861],
    [21091,1525559256,56.8628,-111.3999,1710.9,1362.9,150.7,9.2,-0.9,8.76,40.68,614.0422,140.0141],
    [21092,1525559257,56.8623,-111.3992,1710.8,1362.8,151.0,9.3,-1.0,8.19,41.4,614.0263,139.9981],
    [21093,1525559258,56.8616,-111.3983,1710.6,1361.6,151.2,9.1,-0.9,8.26,40.85,613.9639,139.9945],
    [21094,1525559259,56.861,-111.3976,1711.0,1362.0,150.6,8.4,-1.0,7.84,40.93,613.8246,140.0047],
    [21095,1525559260,56.8605,-111.397,1711.4,1362.4,150.3,7.7,-0.5,8.37,40.96,614.1535,139.991],
    [21096,1525559261,56.8599,-111.3962,1711.1,1361.1,150.3,7.7,-0.3,8.39,41.16,614.4666,140.0008],
    [21097,1525559262,56.8594,-111.3955,1710.8,1360.8,151.6,9.1,0.4,8.23,40.94,614.6609,139.9905],
    [21098,1525559263,56.8588,-111.3948,1711.2,1360.2,152.5,9.6,1.0,8.65,41.31,614.6754,139.9851],
    [21099,1525559264,56.8582,-111.3941,1711.9,1360.9,152.0,9.6,0.0,7.78,41.17,614.8911,139.9898],
    [21100,1525559265,56.8577,-111.3934,1710.5,1359.5,153.2,11.1,0.5,8.45,41.17,615.1534,140.0095],
    [21101,1525559266,56.8571,-111.3927,1707.3,1356.3,152.8,10.5,0.4,8.56,41.17,615.2276,139.9949],
    [21102,1525559267,56.8565,-111.3919,1704.5,1353.5,151.4,9.2,0.5,8.9,40.81,615.4761,140.0062],
    [21103,1525559268,56.856,-111.3913,1702.3,1351.3,150.6,8.6,0.8,8.5,41.43,615.7412,140.0057],
    [21104,1525559269,56.8554,-111.3905,1699.3,1348.3,150.3,8.3,1.1,8.45,41.12,615.8754,140.0053],
    [21105,1525559270,56.8549,-111.3898,1696.3,1345.3,149.2,6.7,1.0,8.47,41.05,615.8826,140.0029],
    [21106,1525559271,56.8543,-111.389,1694.2,1343.2,148.9,6.6,0.7,8.5,41.13,616.0931,140.0048],
    [21107,1525559272,56.8537,-111.3883,1691.9,1340.9,149.4,7.0,0.8,8.68,40.95,616.159,140.001],
    [21108,1525559273,56.8531,-111.3876,1688.7,1337.7,149.2,6.7,0.6,7.99,41.15,616.2943,139.9953],
    [21109,1525559274,56.8526,-111.3868,1686.5,1335.5,148.7,5.9,-0.2,9.13,40.85,616.322,139.9957],
    [21110,1525559275,56.852,-111.3861,1685.5,1334.5,148.6,5.6,-0.4,8.34,41.37,616.6928,140.0108],
    [21111,1525559276,56.8514,-111.3854,1684.1,1332.0,149.1,5.5,-0.2,8.44,41.88,616.8559,140.0104],
    [21112,1525559277,56.8508,-111.3846,1682.1,1330.1,149.4,5.2,0.0,8.31,41.28,617.1447,140.006],
    [21113,1525559278,56.8502,-111.3839,1680.4,1328.4,149.6,5.2,0.0,8.8,40.91,617.3586,140.0115],
    [21114,1525559279,56.8496,-111.3832,1678.8,1326.8,150.0,5.7,0.0,8.84,41.0,617.7375,140.0086],
    [21115,1525559280,56.8491,-111.3825,1676.1,1324.1,151.0,6.3,0.4,8.44,41.61,618.0381,140.0206],
    [21116,1525559281,56.8485,-111.3818,1672.1,1319.0,151.6,6.7,0.6,8.56,41.44,618.4255,140.0059],
    [21117,1525559282,56.8479,-111.3812,1668.9,1314.9,152.6,7.5,0.6,8.34,41.54,618.6289,139.9924],
    [21118,1525559283,56.8473,-111.3805,1665.5,1310.5,152.8,7.7,0.4,8.49,41.93,618.7886,140.0045],
    [21119,1525559284,56.8467,-111.3798,1662.3,1307.3,153.9,9.6,0.3,7.88,41.69,618.8396,139.9982],
    [21120,1525559285,56.8461,-111.3791,1658.2,1303.2,152.0,8.5,-0.8,8.5,41.43,619.0466,140.0051],
    [21121,1525559286,56.8455,-111.3783,1653.9,1298.9,149.9,7.2,-0.4,8.47,41.5,619.2528,140.0065],
    [21122,1525559287,56.8449,-111.3776,1649.9,1294.9,150.7,9.0,0.8,8.53,42.01,619.4134,139.9978],
    [21123,1525559288,56.8444,-111.3769,1647.6,1292.6,149.8,8.2,0.6,8.61,40.95,619.48,139.9974],
    [21124,1525559289,56.8438,-111.3761,1645.8,1290.8,148.6,7.2,0.3,8.59,41.13,619.7877,140.0054],
    [21125,1525559290,56.8432,-111.3753,1643.5,1288.5,150.3,9.1,0.8,8.86,40.84,619.9663,140.0132],
    [21126,1525559291,56.8426,-111.3746,1641.0,1286.0,150.4,8.9,0.5,8.45,41.12,620.0888,140.0006],
    [21127,1525559292,56.8421,-111.3738,1639.4,1283.4,149.8,7.5,0.7,8.57,40.93,620.1738,140.0129],
    [21128,1525559293,56.8415,-111.3731,1637.3,1281.3,149.4,6.8,0.8,8.27,41.06,620.3584,140.0061],
    [21129,1525559294,56.841,-111.3725,1635.2,1278.5,149.9,6.8,0.9,8.58,41.64,620.4681,140.003],
    [21130,1525559295,56.8403,-111.3716,1632.3,1275.3,150.0,6.7,0.7,8.27,40.99,620.7735,139.9956],
    [21131,1525559296,56.8397,-111.3709,1630.4,1273.4,149.4,6.4,0.0,8.14,41.01,620.9958,140.0131],
    [21132,1525559297,56.8391,-111.3701,1628.8,1271.8,149.1,6.0,-0.5,8.85,40.42,621.2183,139.9963],
    [21133,1525559298,56.8386,-111.3694,1627.1,1270.1,148.4,5.5,-1.5,8.91,40.76,621.3769,140.0036],
    [21134,1525559299,56.838,-111.3687,1625.2,1269.2,148.6,5.5,-1.6,8.82,41.09,621.5754,139.9996],
    [21135,1525559300,56.8374,-111.368,1621.9,1265.9,149.5,5.9,-1.1,9.21,40.53,621.742,140.0081],
    [21136,1525559301,56.8368,-111.3672,1618.5,1262.5,149.7,5.7,-1.5,8.22,40.89,622.0621,140.007],
    [21137,1525559302,56.8362,-111.3666,1615.6,1258.6,149.5,5.2,-1.8,8.81,41.07,622.1115,140.0066],
    [21138,1525559303,56.8356,-111.3658,1613.0,1255.3,149.8,5.1,-1.3,9.09,40.37,622.4266,139.9985],
    [21139,1525559304,56.835,-111.3651,1610.7,1252.0,150.7,5.8,-1.4,8.92,40.66,622.5895,140.0009],
    [21140,1525559305,56.8344,-111.3644,1608.4,1249.4,150.4,5.6,-2.1,8.74,40.76,622.7764,140.0017],
    [21141,1525559306,56.8338,-111.3637,1605.6,1246.6,150.6,5.9,-2.2,9.25,40.48,622.8287,140.0076],
    [21142,1525559307,56.8332,-111.363,1603.0,1243.0,151.0,6.3,-1.9,9.06,40.42,623.1506,139.985],
    [21143,1525559308,56.8326,-111.3623,1600.3,1240.3,151.8,6.9,-0.8,8.98,40.56,623.324,139.998],
    [21144,1525559309,56.832,-111.3616,1597.3,1237.3,152.4,7.5,-0.2,8.96,41.02,623.5511,140.0072],
    [21145,1525559310,56.8314,-111.3609,1594.8,1234.8,152.3,7.2,0.2,9.15,40.42,623.66,140.0046],
    [21146,1525559311,56.8307,-111.3602,1592.7,1232.7,151.8,6.9,-0.1,9.35,39.91,623.9833,140.0139],
    [21147,1525559312,56.8301,-111.3595,1589.8,1229.8,152.6,7.7,0.9,9.01,40.57,624.2834,140.014],
    [21148,1525559313,56.8295,-111.3588,1586.7,1225.7,152.3,7.0,1.8,8.84,40.35,624.4161,139.9997],
    [21149,1525559314,56.8291,-111.3582,1584.6,1223.6,152.0,7.2,1.5,8.5,40.5,624.6126,140.0021],
    [21150,1525559315,56.8284,-111.3574,1582.1,1221.1,152.5,8.5,0.8,9.01,40.35,624.961,140.0076],
    [21151,1525559316,56.8278,-111.3567,1578.8,1217.8,151.6,7.7,0.3,9.04,40.41,625.1495,140.0167],
    [21152,1525559317,56.8272,-111.356,1575.7,1214.7,150.9,7.1,-0.1,9.15,40.45,625.4772,140.0073],
    [21153,1525559318,56.8265,-111.3552,1573.1,1211.7,150.4,7.1,-0.2,8.98,40.08,625.6285,140.0057],
    [21154,1525559319,56.826,-111.3545,1570.4,1208.4,150.8,7.5,0.1,8.8,39.92,625.7188,139.9976],
    [21155,1525559320,56.8254,-111.3538,1567.0,1205.0,150.2,7.1,-0.4,8.87,39.88,625.918,140.0019],
    [21156,1525559321,56.8248,-111.3531,1563.8,1201.8,149.8,6.9,-0.7,8.63,39.96,626.2462,140.0104],
    [21157,1525559322,56.8242,-111.3523,1560.7,1199.7,150.1,7.1,-0.7,9.12,39.81,626.3801,140.0107],
    [21158,1525559323,56.8236,-111.3516,1558.3,1197.3,150.6,7.4,-0.6,9.0,39.78,626.6557,140.0095],
    [21159,1525559324,56.823,-111.3509,1556.3,1195.3,151.0,7.7,0.0,9.54,39.05,626.7494,140.0061],
    [21160,1525559325,56.8224,-111.3502,1553.6,1191.6,151.7,8.1,0.6,9.21,39.6,627.0191,140.0051],
    [21161,1525559326,56.8219,-111.3495,1550.7,1188.7,150.8,7.2,0.0,9.59,39.05,627.1464,140.001],
    [21162,1525559327,56.8213,-111.3487,1548.1,1185.1,150.6,7.0,0.0,9.49,39.31,627.4344,140.0009],
    [21163,1525559328,56.8207,-111.348,1545.3,1182.3,150.9,7.6,0.1,9.17,39.72,627.5451,140.0147],
    [21164,1525559329,56.8201,-111.3473,1543.0,1180.0,150.9,7.7,-0.1,8.79,39.51,627.7996,140.0004],
    [21165,1525559330,56.8195,-111.3466,1540.9,1177.9,150.6,7.6,-0.2,8.97,39.67,627.9904,140.0033],
    [21166,1525559331,56.8189,-111.3459,1538.4,1175.4,150.6,7.8,0.3,9.19,39.98,628.3777,140.0079],
    [21167,1525559332,56.8183,-111.3451,1535.5,1172.5,151.5,8.9,0.9,9.35,39.93,628.5327,140.0084],
    [21168,1525559333,56.8178,-111.3444,1532.6,1169.6,151.6,9.2,0.8,9.82,39.0,628.9183,140.0001],
    [21169,1525559334,56.8172,-111.3437,1529.9,1166.2,151.3,9.2,0.6,8.91,39.19,629.003,139.9996],
    [21170,1525559335,56.8166,-111.343,1527.1,1162.1,151.3,9.4,0.5,9.1,39.18,629.319,140.0089],
    [21171,1525559336,56.8161,-111.3422,1523.5,1157.5,151.5,9.7,0.6,8.76,39.28,629.4951,140.0075],
    [21172,1525559337,56.8155,-111.3416,1519.9,1153.9,151.0,9.0,0.3,9.8,38.99,629.7912,140.0009],
    [21173,1525559338,56.8149,-111.3408,1516.3,1151.3,150.8,9.1,0.3,9.4,39.28,629.9121,139.9964],
    [21174,1525559339,56.8143,-111.34,1513.5,1147.7,151.4,9.6,0.8,9.59,39.48,630.0284,139.9949],
    [21175,1525559340,56.8138,-111.3393,1510.5,1144.5,151.2,9.3,0.9,10.07,38.7,630.2036,140.0027],
    [21176,1525559341,56.8132,-111.3385,1507.5,1141.5,151.2,9.4,1.1,9.55,38.9,630.4274,140.0059],
    [21177,1525559342,56.8126,-111.3378,1504.6,1138.6,151.6,9.8,1.5,10.09,38.21,630.7134,140.0031],
    [21178,1525559343,56.8121,-111.3372,1502.6,1135.6,151.8,10.2,1.7,9.78,38.63,630.9134,140.0093],
    [21179,1525559344,56.8115,-111.3363,1500.2,1133.2,151.3,9.7,1.7,9.63,38.81,631.0925,139.9959],
    [21180,1525559345,56.8109,-111.3356,1497.6,1130.6,150.2,8.2,1.6,9.4,38.72,631.3446,140.0117],
    [21181,1525559346,56.8103,-111.3348,1494.7,1126.7,149.5,7.6,1.8,9.47,38.56,631.5208,140.0055],
    [21182,1525559347,56.8097,-111.3341,1491.3,1123.4,149.6,7.4,1.7,9.43,38.83,631.7793,140.0084],
    [21183,1525559348,56.8092,-111.3333,1488.2,1119.2,148.3,6.1,0.9,9.67,38.36,632.0179,140.0101],
    [21184,1525559349,56.8086,-111.3326,1485.7,1116.0,148.6,6.0,1.0,9.75,38.46,632.1496,140.0071],
    [21185,1525559350,56.808,-111.3318,1482.9,1112.9,148.3,5.6,0.1,9.26,38.33,632.5134,140.0076],
    [21186,1525559351,56.8076,-111.3312,1480.7,1110.4,148.5,5.6,-0.4,9.94,38.24,632.9935,140.0072],
    [21187,1525559352,56.8069,-111.3304,1477.5,1106.4,149.5,6.3,-0.1,9.81,38.11,633.1317,139.998],
    [21188,1525559353,56.8063,-111.3296,1473.7,1103.7,150.7,7.1,-0.1,10.44,37.73,633.3483,140.0039],
    [21189,1525559354,56.8057,-111.3289,1470.6,1099.6,151.1,7.5,-0.7,9.82,38.04,633.4756,140.0054],
    [21190,1525559355,56.8051,-111.3283,1467.5,1096.5,150.8,7.0,-1.3,9.88,38.08,633.8864,140.0049],
    [21191,1525559356,56.8045,-111.3275,1463.7,1092.7,150.3,6.5,-1.0,9.93,38.2,634.1208,140.0189],
    [21192,1525559357,56.8039,-111.3268,1460.0,1088.0,150.9,7.4,-0.5,10.37,37.19,634.3142,140.0038],
    [21193,1525559358,56.8033,-111.3261,1457.3,1085.3,150.9,7.6,-0.4,9.75,37.9,634.5692,140.0033],
    [21194,1525559359,56.8027,-111.3253,1454.6,1082.3,150.3,7.5,-0.2,9.6,37.81,634.8143,140.0083],
    [21195,1525559360,56.8022,-111.3246,1451.1,1078.1,152.1,9.4,0.8,9.8,37.77,635.0922,140.0062],
    [21196,1525559361,56.8016,-111.3239,1447.6,1074.6,151.4,9.1,-0.2,9.66,37.87,635.3525,140.0079],
    [21197,1525559362,56.801,-111.3231,1444.5,1071.5,152.1,10.1,-0.2,10.14,38.05,635.5682,140.0009],
    [21198,1525559363,56.8004,-111.3224,1441.3,1068.3,151.7,9.3,0.0,10.26,37.55,635.9142,140.0126],
    [21199,1525559364,56.7998,-111.3217,1438.0,1066.7,151.1,8.8,0.0,10.51,37.32,636.0201,140.0098],
    [21200,1525559365,56.7992,-111.321,1434.8,1066.9,151.6,9.5,0.0,10.21,37.75,636.2981,140.0049],
    [21201,1525559366,56.7987,-111.3203,1431.9,1064.9,150.6,8.5,-0.8,10.66,37.21,636.466,140.0051],
    [21202,1525559367,56.798,-111.3195,1428.3,1061.3,150.3,8.3,-0.6,10.23,37.83,636.6266,139.9977],
    [21203,1525559368,56.7974,-111.3187,1424.9,1057.2,150.4,8.4,-0.7,10.16,37.32,636.9352,140.0025],
    [21204,1525559369,56.7968,-111.318,1422.0,1052.7,150.2,8.4,-1.2,10.25,37.67,637.2417,139.9919],
    [21205,1525559370,56.7963,-111.3173,1418.8,1048.8,150.8,8.6,-0.6,10.85,36.56,637.4034,140.0105],
    [21206,1525559371,56.7957,-111.3165,1415.8,1045.1,150.9,8.6,-0.1,10.41,37.73,637.5803,140.0102],
    [21207,1525559372,56.7951,-111.3158,1412.7,1041.7,152.3,10.1,0.8,10.53,37.46,637.8894,140.0062],
    [21208,1525559373,56.7945,-111.315,1409.6,1037.6,152.2,9.8,1.4,10.43,37.53,638.0407,140.0117],
    [21209,1525559374,56.7939,-111.3143,1406.6,1033.6,152.2,9.6,2.2,10.31,36.95,638.2808,140.0056],
    [21210,1525559375,56.7933,-111.3136,1403.8,1029.8,152.2,9.7,2.7,10.21,36.93,638.6737,140.0094],
    [21211,1525559376,56.7927,-111.3128,1400.9,1026.9,152.0,10.1,2.5,9.86,36.92,638.7725,140.0035],
    [21212,1525559377,56.7921,-111.312,1398.0,1025.0,152.1,10.4,2.3,11.0,36.32,639.0004,140.0037],
    [21213,1525559378,56.7915,-111.3113,1395.1,1023.0,150.4,8.6,1.6,10.23,36.43,639.2026,140.0141],
    [21214,1525559379,56.791,-111.3105,1391.8,1020.9,150.4,9.0,1.4,11.1,35.63,639.3905,139.9878],
    [21215,1525559380,56.7904,-111.3098,1388.7,1017.7,150.2,9.2,0.9,10.7,36.26,639.5649,139.9979],
    [21216,1525559381,56.7898,-111.3089,1385.6,1013.6,150.6,9.7,0.9,10.35,36.67,639.8406,139.9968],
    [21217,1525559382,56.7892,-111.3082,1383.2,1011.3,150.2,9.3,0.4,10.58,36.88,640.0401,140.0051],
    [21218,1525559383,56.7886,-111.3074,1380.6,1007.6,149.8,9.6,-0.5,10.99,35.99,640.2391,139.9998],
    [21219,1525559384,56.788,-111.3067,1378.0,1004.0,150.5,10.0,0.4,10.75,36.88,640.4288,140.0084],
    [21220,1525559385,56.7874,-111.3059,1374.8,1000.9,150.8,10.0,1.5,10.67,36.18,640.6435,139.9976],
    [21221,1525559386,56.7869,-111.3051,1372.0,996.9,151.0,10.7,1.5,10.63,36.24,640.7069,139.9846],
    [21222,1525559387,56.7862,-111.3043,1369.6,992.5,150.2,10.2,0.9,10.66,36.06,640.881,139.9881],
    [21223,1525559388,56.7857,-111.3036,1367.5,989.4,148.6,8.5,0.2,10.29,35.96,640.994,139.9934],
    [21224,1525559389,56.7851,-111.3027,1364.5,985.6,148.1,7.9,0.3,11.16,35.71,641.2008,139.9966],
    [21225,1525559390,56.7845,-111.3019,1361.6,982.6,148.6,8.3,0.9,11.21,35.56,641.4484,140.0266],
    [21226,1525559391,56.7839,-111.3012,1359.4,980.4,149.2,8.0,2.5,11.73,35.22,641.4958,140.011],
    [21227,1525559392,56.7834,-111.3004,1357.2,978.6,148.9,6.7,3.8,11.06,36.26,641.8018,139.9976],
    [21228,1525559393,56.7827,-111.2996,1354.1,976.1,149.5,7.0,4.0,10.78,35.5,642.1613,140.0149],
    [21229,1525559394,56.7821,-111.2988,1351.7,974.7,149.1,6.5,2.9,11.14,35.39,642.4314,140.0062],
    [21230,1525559395,56.7815,-111.298,1350.0,972.3,147.7,5.1,1.2,10.86,35.41,642.6651,140.0025],
    [21231,1525559396,56.7809,-111.2972,1348.2,969.1,148.2,5.7,1.3,10.46,35.38,642.9053,140.0071],
    [21232,1525559397,56.7804,-111.2965,1345.7,965.7,149.7,7.0,2.7,11.13,35.25,643.5443,140.0145],
    [21233,1525559398,56.7797,-111.2957,1342.0,962.0,152.0,9.1,3.0,11.74,34.62,643.7616,140.0168],
    [21234,1525559399,56.7791,-111.2949,1337.8,956.1,152.7,9.8,2.1,11.28,35.19,643.9868,140.0117],
    [21235,1525559400,56.7786,-111.2942,1334.6,951.6,152.6,9.3,1.4,11.49,34.86,644.3624,140.0023],
    [21236,1525559401,56.7779,-111.2934,1330.9,946.9,152.5,9.3,1.7,11.93,34.63,644.602,140.0067],
    [21237,1525559402,56.7773,-111.2927,1326.3,942.3,153.0,9.8,2.2,11.37,34.9,644.8716,140.0099],
    [21238,1525559403,56.7767,-111.2919,1321.6,936.7,152.3,9.5,2.0,11.56,34.34,645.1492,140.0047],
    [21239,1525559404,56.7761,-111.2912,1317.6,931.6,151.7,9.6,1.6,11.65,34.37,645.3626,140.0071],
    [21240,1525559405,56.7755,-111.2904,1314.4,928.4,151.3,9.6,1.6,11.32,34.87,645.4031,140.0044],
    [21241,1525559406,56.7749,-111.2896,1310.7,924.7,150.8,9.3,1.8,11.88,34.21,645.9126,140.0011],
    [21242,1525559407,56.7743,-111.2889,1307.5,922.5,150.1,8.8,1.5,11.74,34.05,646.1918,140.0134],
    [21243,1525559408,56.7737,-111.2881,1304.6,919.6,150.9,9.6,2.0,10.89,34.65,646.4375,140.0073],
    [21244,1525559409,56.7731,-111.2873,1301.3,916.3,151.3,9.9,2.5,11.41,34.57,646.7025,140.0024],
    [21245,1525559410,56.7726,-111.2866,1298.2,913.2,151.7,10.3,2.7,11.78,34.27,646.826,139.9996],
    [21246,1525559411,56.7719,-111.2858,1294.2,907.5,152.2,10.7,2.8,11.22,34.34,646.8565,140.0163],
    [21247,1525559412,56.7713,-111.285,1290.7,902.7,151.0,9.5,1.8,11.44,34.02,646.9375,139.9825],
    [21248,1525559413,56.7708,-111.2842,1287.8,899.7,150.1,8.7,1.4,11.87,33.82,647.2898,140.0156],
    [21249,1525559414,56.7702,-111.2835,1284.8,897.7,149.9,8.4,1.5,11.59,34.13,647.4438,140.0154],
    [21250,1525559415,56.7696,-111.2828,1282.5,896.5,149.3,7.6,1.1,11.46,34.14,647.6945,140.0047],
    [21251,1525559416,56.769,-111.282,1281.0,897.6,148.1,5.7,0.4,11.66,34.01,648.0336,140.0144],
    [21252,1525559417,56.7684,-111.2812,1279.5,897.9,148.3,5.9,1.0,11.57,34.08,648.3755,139.9972],
    [21253,1525559418,56.7678,-111.2804,1276.7,897.7,149.2,6.3,0.8,11.61,34.41,648.545,139.9917],
    [21254,1525559419,56.7672,-111.2796,1273.6,895.6,148.2,5.1,-0.2,11.61,34.04,648.8946,140.0063],
    [21255,1525559420,56.7667,-111.2789,1270.6,894.5,150.5,7.7,0.4,11.77,33.94,649.285,139.9985],
    [21256,1525559421,56.7661,-111.2782,1267.4,890.1,150.1,7.4,-0.6,12.16,33.82,649.4645,140.0087],
    [21257,1525559422,56.7655,-111.2774,1263.6,883.6,149.0,6.1,-0.8,11.55,33.82,649.807,140.0091],
    [21258,1525559423,56.7649,-111.2767,1259.5,876.8,149.8,6.8,-0.2,11.95,33.6,650.0574,140.0085],
    [21259,1525559424,56.7643,-111.276,1255.6,871.5,149.3,5.8,-0.3,11.94,33.61,650.512,140.0142],
    [21260,1525559425,56.7637,-111.2752,1251.7,866.7,150.0,5.8,0.7,12.16,33.84,650.7471,140.013],
    [21261,1525559426,56.7631,-111.2745,1248.0,862.1,150.3,5.6,1.3,12.27,33.79,651.0492,140.0099],
    [21262,1525559427,56.7625,-111.2738,1244.7,856.7,151.8,7.9,1.8,11.85,33.57,651.2255,140.0026],
    [21263,1525559428,56.7619,-111.2731,1241.0,852.3,152.6,9.1,1.0,12.29,33.67,651.4119,140.0024],
    [21264,1525559429,56.7613,-111.2723,1236.5,847.5,151.4,8.2,0.0,12.44,33.13,651.7092,140.0072],
    [21265,1525559430,56.7607,-111.2716,1232.6,843.6,151.3,8.6,-0.4,12.19,33.24,652.1646,140.0075],
    [21266,1525559431,56.7601,-111.2709,1229.2,840.2,150.5,7.9,-0.5,12.36,33.73,652.5856,140.0137],
    [21267,1525559432,56.7595,-111.2702,1226.3,837.3,150.4,8.0,0.0,12.23,33.29,653.045,140.0089],
    [21268,1525559433,56.759,-111.2694,1223.4,834.4,150.5,8.2,0.0,12.16,33.1,653.3011,140.0048],
    [21269,1525559434,56.7584,-111.2687,1219.8,830.1,150.5,8.4,0.0,12.08,33.52,653.8752,140.0113],
    [21270,1525559435,56.7578,-111.2679,1215.1,825.1,151.3,9.1,0.1,11.93,32.85,654.0501,140.0146],
    [21271,1525559436,56.7573,-111.2673,1211.2,820.6,151.6,9.5,0.1,12.47,33.29,654.2769,140.0046],
    [21272,1525559437,56.7567,-111.2666,1205.8,814.8,152.3,10.1,0.2,11.73,32.76,654.7293,140.002],
    [21273,1525559438,56.756,-111.2658,1200.4,808.4,152.1,9.5,0.3,12.26,33.42,655.0171,140.0056],
    [21274,1525559439,56.7555,-111.265,1195.8,803.8,152.5,10.0,0.4,11.85,32.77,655.3266,140.0049],
    [21275,1525559440,56.7549,-111.2643,1191.8,799.8,152.6,10.0,-0.1,12.52,32.63,655.7641,140.0057],
    [21276,1525559441,56.7543,-111.2637,1188.3,796.3,152.1,9.7,-0.4,12.24,33.04,656.0368,140.006],
    [21277,1525559442,56.7537,-111.2629,1184.1,792.1,152.2,9.7,-0.1,12.43,32.82,656.4058,139.9932],
    [21278,1525559443,56.7531,-111.2622,1179.9,788.0,151.5,9.1,-0.3,12.19,32.62,656.619,140.0075],
    [21279,1525559444,56.7526,-111.2616,1175.8,783.9,151.5,9.2,-0.2,12.34,32.44,656.8665,140.0006],
    [21280,1525559445,56.752,-111.2608,1171.0,779.9,151.4,8.8,-0.1,12.38,32.9,657.2115,140.0085],
    [21281,1525559446,56.7514,-111.2601,1166.4,775.3,150.8,8.4,-0.4,12.56,32.37,657.4871,140.0101],
    [21282,1525559447,56.7508,-111.2593,1162.3,771.2,151.4,9.1,0.1,12.92,32.08,657.7101,140.0087],
    [21283,1525559448,56.7503,-111.2586,1158.6,767.5,151.6,9.2,-0.2,12.71,32.35,657.9435,140.011],
    [21284,1525559449,56.7497,-111.2579,1155.2,764.1,151.0,8.7,-0.5,12.17,32.44,658.2642,140.0014],
    [21285,1525559450,56.7491,-111.2572,1151.5,760.6,151.3,9.0,-0.2,12.97,31.8,658.4966,140.0018],
    [21286,1525559451,56.7485,-111.2565,1148.2,757.3,150.7,8.8,-0.8,12.15,32.07,658.9124,140.0057],
    [21287,1525559452,56.7479,-111.2557,1144.5,753.5,150.4,8.5,-0.9,13.2,31.59,659.219,140.0048],
    [21288,1525559453,56.7474,-111.255,1141.2,750.2,150.3,8.6,-1.1,12.56,31.92,659.4143,140.0051],
    [21289,1525559454,56.7468,-111.2543,1138.1,747.2,150.6,8.8,-0.8,12.4,31.84,659.6351,140.0032],
    [21290,1525559455,56.7462,-111.2535,1134.2,743.8,151.0,9.0,-0.2,12.6,31.84,659.9023,140.0058],
    [21291,1525559456,56.7456,-111.2528,1130.2,740.1,151.3,9.2,-0.6,12.77,31.67,660.1862,140.0083],
    [21292,1525559457,56.7451,-111.2521,1126.7,737.0,151.5,9.3,-0.7,12.85,32.19,660.35,140.0008],
    [21293,1525559458,56.7445,-111.2514,1124.0,735.0,151.7,9.5,-0.8,12.23,31.85,660.6746,140.0052],
    [21294,1525559459,56.7439,-111.2507,1121.1,732.1,152.5,10.0,-0.5,12.74,32.27,660.9132,140.0059],
    [21295,1525559460,56.7434,-111.25,1117.5,728.3,152.2,9.6,-0.6,13.32,31.49,661.2831,140.0097],
    [21296,1525559461,56.7428,-111.2493,1114.1,725.1,152.1,9.7,-1.0,13.03,31.62,661.6227,140.0001],
    [21297,1525559462,56.7422,-111.2486,1111.1,722.1,152.1,9.5,-0.7,13.0,31.54,662.0651,140.0031],
    [21298,1525559463,56.7416,-111.2479,1107.9,719.9,151.9,9.6,-0.6,13.8,31.26,662.2094,140.0072],
    [21299,1525559464,56.741,-111.2471,1104.4,716.4,151.5,9.9,-1.2,13.08,31.2,662.3958,140.0019],
    [21300,1525559465,56.7405,-111.2465,1100.8,713.8,150.4,9.0,-1.3,13.25,31.59,662.596,140.0073],
    [21301,1525559466,56.7399,-111.2458,1096.0,709.0,150.5,9.1,-0.1,12.97,31.34,662.7266,139.9975],
    [21302,1525559467,56.7394,-111.245,1091.0,705.1,151.7,10.1,1.2,12.93,31.65,662.9935,140.0047],
    [21303,1525559468,56.7388,-111.2442,1087.7,701.7,151.5,9.8,1.3,13.16,31.4,663.1981,140.0066],
    [21304,1525559469,56.7382,-111.2435,1085.3,700.0,152.1,10.3,1.4,13.54,31.04,663.376,140.0029],
    [21305,1525559470,56.7376,-111.2428,1082.7,697.7,152.4,10.2,1.6,13.1,31.03,663.6596,140.0054],
    [21306,1525559471,56.7371,-111.2421,1080.2,695.2,152.5,9.8,1.5,13.66,30.68,663.8006,139.999],
    [21307,1525559472,56.7365,-111.2414,1077.7,692.7,152.1,9.0,1.4,14.2,30.71,664.2576,140.0037],
    [21308,1525559473,56.736,-111.2407,1075.3,690.3,152.9,9.5,2.0,13.67,30.87,664.4051,140.0011],
    [21309,1525559474,56.7354,-111.24,1072.4,687.4,152.8,9.4,1.5,14.09,30.84,664.5782,139.9944],
    [21310,1525559475,56.7348,-111.2393,1069.6,685.7,151.9,8.9,1.0,13.73,30.78,664.6933,140.0088],
    [21311,1525559476,56.7343,-111.2386,1066.4,682.4,152.7,9.9,0.9,13.25,30.9,664.8704,139.999],
    [21312,1525559477,56.7337,-111.2379,1062.8,677.8,152.4,9.8,0.9,13.64,30.96,664.9664,139.995],
    [21313,1525559478,56.7332,-111.2372,1059.7,674.1,152.1,9.2,1.2,13.5,31.23,665.0046,140.0037]
]}
